<?xml version="1.0" encoding="UTF-8" standalone="no" ?>
<gpx xmlns="http://www.topografix.com/GPX/1/1" xmlns:xsi="http://www.w3.org/2001/XMLSchema-instance" xsi:schemaLocation="http://www.topografix.com/GPX/1/1 http://www.topografix.com/GPX/1/1/gpx.xsd" version="1.1" creator="VisuGPX - https://www.visugpx.com">
  <metadata>
    <name>S 1104</name>
  </metadata>
  <trk>
    <name><![CDATA[Partis tôt pour préparer le Normandie Cat]]></name>
    <trkseg>
      <trkpt lat="49.28448" lon="-0.10695">
        <ele>2.7</ele>
        <time>2024-03-03T06:56:40Z</time>
      </trkpt>
      <trkpt lat="49.28445" lon="-0.10692">
        <ele>2.7</ele>
        <time>2024-03-03T06:56:41Z</time>
      </trkpt>
      <trkpt lat="49.28444" lon="-0.10693">
        <ele>2.7</ele>
        <time>2024-03-03T06:56:43Z</time>
      </trkpt>
      <trkpt lat="49.28445" lon="-0.10697">
        <ele>2.7</ele>
        <time>2024-03-03T06:56:44Z</time>
      </trkpt>
      <trkpt lat="49.28445" lon="-0.10698">
        <ele>2.7</ele>
        <time>2024-03-03T06:56:45Z</time>
      </trkpt>
      <trkpt lat="49.28445" lon="-0.10698">
        <ele>2.7</ele>
        <time>2024-03-03T06:56:46Z</time>
      </trkpt>
      <trkpt lat="49.28444" lon="-0.10699">
        <ele>2.7</ele>
        <time>2024-03-03T06:56:47Z</time>
      </trkpt>
      <trkpt lat="49.28443" lon="-0.107">
        <ele>2.7</ele>
        <time>2024-03-03T06:56:48Z</time>
      </trkpt>
      <trkpt lat="49.28442" lon="-0.10701">
        <ele>2.7</ele>
        <time>2024-03-03T06:56:49Z</time>
      </trkpt>
      <trkpt lat="49.28441" lon="-0.10701">
        <ele>2.7</ele>
        <time>2024-03-03T06:56:50Z</time>
      </trkpt>
      <trkpt lat="49.28441" lon="-0.10701">
        <ele>2.7</ele>
        <time>2024-03-03T06:56:51Z</time>
      </trkpt>
      <trkpt lat="49.28441" lon="-0.10701">
        <ele>2.7</ele>
        <time>2024-03-03T06:56:52Z</time>
      </trkpt>
      <trkpt lat="49.28441" lon="-0.10701">
        <ele>2.7</ele>
        <time>2024-03-03T06:56:53Z</time>
      </trkpt>
      <trkpt lat="49.28441" lon="-0.10701">
        <ele>2.7</ele>
        <time>2024-03-03T06:56:54Z</time>
      </trkpt>
      <trkpt lat="49.28441" lon="-0.10701">
        <ele>2.7</ele>
        <time>2024-03-03T06:56:55Z</time>
      </trkpt>
      <trkpt lat="49.28441" lon="-0.10701">
        <ele>2.7</ele>
        <time>2024-03-03T06:56:56Z</time>
      </trkpt>
      <trkpt lat="49.28441" lon="-0.10701">
        <ele>2.7</ele>
        <time>2024-03-03T06:56:57Z</time>
      </trkpt>
      <trkpt lat="49.28441" lon="-0.10701">
        <ele>2.7</ele>
        <time>2024-03-03T06:56:58Z</time>
      </trkpt>
      <trkpt lat="49.28441" lon="-0.10701">
        <ele>2.7</ele>
        <time>2024-03-03T06:56:59Z</time>
      </trkpt>
      <trkpt lat="49.28441" lon="-0.10701">
        <ele>2.7</ele>
        <time>2024-03-03T06:57:00Z</time>
      </trkpt>
      <trkpt lat="49.28441" lon="-0.10701">
        <ele>2.7</ele>
        <time>2024-03-03T06:57:01Z</time>
      </trkpt>
      <trkpt lat="49.28441" lon="-0.10701">
        <ele>2.7</ele>
        <time>2024-03-03T06:57:02Z</time>
      </trkpt>
      <trkpt lat="49.28441" lon="-0.10701">
        <ele>2.7</ele>
        <time>2024-03-03T06:57:03Z</time>
      </trkpt>
      <trkpt lat="49.28441" lon="-0.10701">
        <ele>2.7</ele>
        <time>2024-03-03T06:57:04Z</time>
      </trkpt>
      <trkpt lat="49.28441" lon="-0.10701">
        <ele>2.7</ele>
        <time>2024-03-03T06:57:05Z</time>
      </trkpt>
      <trkpt lat="49.28441" lon="-0.10701">
        <ele>2.7</ele>
        <time>2024-03-03T06:57:06Z</time>
      </trkpt>
      <trkpt lat="49.28441" lon="-0.10701">
        <ele>2.7</ele>
        <time>2024-03-03T06:57:07Z</time>
      </trkpt>
      <trkpt lat="49.28441" lon="-0.10701">
        <ele>2.7</ele>
        <time>2024-03-03T06:57:08Z</time>
      </trkpt>
      <trkpt lat="49.28441" lon="-0.10701">
        <ele>2.7</ele>
        <time>2024-03-03T06:57:09Z</time>
      </trkpt>
      <trkpt lat="49.28441" lon="-0.10701">
        <ele>2.7</ele>
        <time>2024-03-03T06:57:10Z</time>
      </trkpt>
      <trkpt lat="49.28441" lon="-0.10701">
        <ele>2.7</ele>
        <time>2024-03-03T06:57:11Z</time>
      </trkpt>
      <trkpt lat="49.28441" lon="-0.10701">
        <ele>2.7</ele>
        <time>2024-03-03T06:57:12Z</time>
      </trkpt>
      <trkpt lat="49.28441" lon="-0.10701">
        <ele>2.7</ele>
        <time>2024-03-03T06:57:13Z</time>
      </trkpt>
      <trkpt lat="49.28441" lon="-0.10701">
        <ele>2.7</ele>
        <time>2024-03-03T06:57:14Z</time>
      </trkpt>
      <trkpt lat="49.28441" lon="-0.10701">
        <ele>2.7</ele>
        <time>2024-03-03T06:57:15Z</time>
      </trkpt>
      <trkpt lat="49.28441" lon="-0.10701">
        <ele>2.7</ele>
        <time>2024-03-03T06:57:16Z</time>
      </trkpt>
      <trkpt lat="49.28441" lon="-0.10701">
        <ele>2.7</ele>
        <time>2024-03-03T06:57:17Z</time>
      </trkpt>
      <trkpt lat="49.28441" lon="-0.10701">
        <ele>2.7</ele>
        <time>2024-03-03T06:57:18Z</time>
      </trkpt>
      <trkpt lat="49.28441" lon="-0.10701">
        <ele>2.7</ele>
        <time>2024-03-03T06:57:19Z</time>
      </trkpt>
      <trkpt lat="49.28442" lon="-0.10702">
        <ele>2.7</ele>
        <time>2024-03-03T06:57:20Z</time>
      </trkpt>
      <trkpt lat="49.28441" lon="-0.10701">
        <ele>2.7</ele>
        <time>2024-03-03T06:57:21Z</time>
      </trkpt>
      <trkpt lat="49.28441" lon="-0.10701">
        <ele>2.7</ele>
        <time>2024-03-03T06:57:22Z</time>
      </trkpt>
      <trkpt lat="49.28442" lon="-0.10702">
        <ele>2.7</ele>
        <time>2024-03-03T06:57:23Z</time>
      </trkpt>
      <trkpt lat="49.28442" lon="-0.10702">
        <ele>2.7</ele>
        <time>2024-03-03T06:57:24Z</time>
      </trkpt>
      <trkpt lat="49.28442" lon="-0.10702">
        <ele>2.7</ele>
        <time>2024-03-03T06:57:25Z</time>
      </trkpt>
      <trkpt lat="49.28442" lon="-0.10702">
        <ele>2.7</ele>
        <time>2024-03-03T06:57:26Z</time>
      </trkpt>
      <trkpt lat="49.28442" lon="-0.10702">
        <ele>2.7</ele>
        <time>2024-03-03T06:57:27Z</time>
      </trkpt>
      <trkpt lat="49.28442" lon="-0.10702">
        <ele>2.7</ele>
        <time>2024-03-03T06:57:28Z</time>
      </trkpt>
      <trkpt lat="49.28442" lon="-0.10702">
        <ele>2.7</ele>
        <time>2024-03-03T06:57:29Z</time>
      </trkpt>
      <trkpt lat="49.28442" lon="-0.10702">
        <ele>2.7</ele>
        <time>2024-03-03T06:57:30Z</time>
      </trkpt>
      <trkpt lat="49.28442" lon="-0.10702">
        <ele>2.7</ele>
        <time>2024-03-03T06:57:31Z</time>
      </trkpt>
      <trkpt lat="49.28442" lon="-0.10702">
        <ele>2.7</ele>
        <time>2024-03-03T06:57:32Z</time>
      </trkpt>
      <trkpt lat="49.28442" lon="-0.10701">
        <ele>2.7</ele>
        <time>2024-03-03T06:57:33Z</time>
      </trkpt>
      <trkpt lat="49.28442" lon="-0.10701">
        <ele>2.7</ele>
        <time>2024-03-03T06:57:34Z</time>
      </trkpt>
      <trkpt lat="49.28442" lon="-0.10701">
        <ele>2.7</ele>
        <time>2024-03-03T06:57:35Z</time>
      </trkpt>
      <trkpt lat="49.28442" lon="-0.10701">
        <ele>2.7</ele>
        <time>2024-03-03T06:57:36Z</time>
      </trkpt>
      <trkpt lat="49.28442" lon="-0.10701">
        <ele>2.7</ele>
        <time>2024-03-03T06:57:37Z</time>
      </trkpt>
      <trkpt lat="49.28442" lon="-0.10701">
        <ele>2.7</ele>
        <time>2024-03-03T06:57:38Z</time>
      </trkpt>
      <trkpt lat="49.28442" lon="-0.10701">
        <ele>2.7</ele>
        <time>2024-03-03T06:57:39Z</time>
      </trkpt>
      <trkpt lat="49.28442" lon="-0.10701">
        <ele>2.7</ele>
        <time>2024-03-03T06:57:40Z</time>
      </trkpt>
      <trkpt lat="49.28442" lon="-0.10701">
        <ele>2.7</ele>
        <time>2024-03-03T06:57:41Z</time>
      </trkpt>
      <trkpt lat="49.28442" lon="-0.10701">
        <ele>2.7</ele>
        <time>2024-03-03T06:57:42Z</time>
      </trkpt>
      <trkpt lat="49.28442" lon="-0.10701">
        <ele>2.7</ele>
        <time>2024-03-03T06:57:43Z</time>
      </trkpt>
      <trkpt lat="49.28442" lon="-0.10701">
        <ele>2.7</ele>
        <time>2024-03-03T06:57:44Z</time>
      </trkpt>
      <trkpt lat="49.28442" lon="-0.10701">
        <ele>2.7</ele>
        <time>2024-03-03T06:57:45Z</time>
      </trkpt>
      <trkpt lat="49.28442" lon="-0.10701">
        <ele>2.7</ele>
        <time>2024-03-03T06:57:46Z</time>
      </trkpt>
      <trkpt lat="49.28442" lon="-0.10701">
        <ele>2.7</ele>
        <time>2024-03-03T06:57:47Z</time>
      </trkpt>
      <trkpt lat="49.28442" lon="-0.10701">
        <ele>2.7</ele>
        <time>2024-03-03T06:57:48Z</time>
      </trkpt>
      <trkpt lat="49.28442" lon="-0.10701">
        <ele>2.7</ele>
        <time>2024-03-03T06:57:49Z</time>
      </trkpt>
      <trkpt lat="49.28442" lon="-0.10701">
        <ele>2.7</ele>
        <time>2024-03-03T06:57:50Z</time>
      </trkpt>
      <trkpt lat="49.28442" lon="-0.10701">
        <ele>2.7</ele>
        <time>2024-03-03T06:57:51Z</time>
      </trkpt>
      <trkpt lat="49.28442" lon="-0.10701">
        <ele>2.7</ele>
        <time>2024-03-03T06:57:52Z</time>
      </trkpt>
      <trkpt lat="49.28442" lon="-0.10701">
        <ele>2.7</ele>
        <time>2024-03-03T06:57:53Z</time>
      </trkpt>
      <trkpt lat="49.28442" lon="-0.10701">
        <ele>2.7</ele>
        <time>2024-03-03T06:57:54Z</time>
      </trkpt>
      <trkpt lat="49.28442" lon="-0.10702">
        <ele>2.7</ele>
        <time>2024-03-03T06:57:55Z</time>
      </trkpt>
      <trkpt lat="49.28442" lon="-0.10703">
        <ele>2.7</ele>
        <time>2024-03-03T06:57:56Z</time>
      </trkpt>
      <trkpt lat="49.28442" lon="-0.10704">
        <ele>2.7</ele>
        <time>2024-03-03T06:57:57Z</time>
      </trkpt>
      <trkpt lat="49.28442" lon="-0.10705">
        <ele>2.7</ele>
        <time>2024-03-03T06:57:58Z</time>
      </trkpt>
      <trkpt lat="49.28443" lon="-0.10705">
        <ele>2.7</ele>
        <time>2024-03-03T06:57:59Z</time>
      </trkpt>
      <trkpt lat="49.28443" lon="-0.10705">
        <ele>2.7</ele>
        <time>2024-03-03T06:58:00Z</time>
      </trkpt>
      <trkpt lat="49.28444" lon="-0.10705">
        <ele>2.8</ele>
        <time>2024-03-03T06:58:01Z</time>
      </trkpt>
      <trkpt lat="49.28444" lon="-0.10705">
        <ele>2.8</ele>
        <time>2024-03-03T06:58:02Z</time>
      </trkpt>
      <trkpt lat="49.28444" lon="-0.10705">
        <ele>2.8</ele>
        <time>2024-03-03T06:58:03Z</time>
      </trkpt>
      <trkpt lat="49.28445" lon="-0.10705">
        <ele>2.8</ele>
        <time>2024-03-03T06:58:04Z</time>
      </trkpt>
      <trkpt lat="49.28445" lon="-0.10705">
        <ele>2.8</ele>
        <time>2024-03-03T06:58:05Z</time>
      </trkpt>
      <trkpt lat="49.28445" lon="-0.10705">
        <ele>2.8</ele>
        <time>2024-03-03T06:58:06Z</time>
      </trkpt>
      <trkpt lat="49.28445" lon="-0.10705">
        <ele>2.8</ele>
        <time>2024-03-03T06:58:07Z</time>
      </trkpt>
      <trkpt lat="49.28445" lon="-0.10705">
        <ele>2.8</ele>
        <time>2024-03-03T06:58:08Z</time>
      </trkpt>
      <trkpt lat="49.28445" lon="-0.10705">
        <ele>2.8</ele>
        <time>2024-03-03T06:58:09Z</time>
      </trkpt>
      <trkpt lat="49.28445" lon="-0.10705">
        <ele>2.8</ele>
        <time>2024-03-03T06:58:10Z</time>
      </trkpt>
      <trkpt lat="49.28445" lon="-0.10705">
        <ele>2.8</ele>
        <time>2024-03-03T06:58:11Z</time>
      </trkpt>
      <trkpt lat="49.28444" lon="-0.10705">
        <ele>2.8</ele>
        <time>2024-03-03T06:58:12Z</time>
      </trkpt>
      <trkpt lat="49.28444" lon="-0.10705">
        <ele>2.8</ele>
        <time>2024-03-03T06:58:13Z</time>
      </trkpt>
      <trkpt lat="49.28444" lon="-0.10705">
        <ele>2.8</ele>
        <time>2024-03-03T06:58:14Z</time>
      </trkpt>
      <trkpt lat="49.28444" lon="-0.10705">
        <ele>2.8</ele>
        <time>2024-03-03T06:58:15Z</time>
      </trkpt>
      <trkpt lat="49.28444" lon="-0.10705">
        <ele>2.8</ele>
        <time>2024-03-03T06:58:16Z</time>
      </trkpt>
      <trkpt lat="49.28444" lon="-0.10705">
        <ele>2.8</ele>
        <time>2024-03-03T06:58:17Z</time>
      </trkpt>
      <trkpt lat="49.28444" lon="-0.10705">
        <ele>2.8</ele>
        <time>2024-03-03T06:58:18Z</time>
      </trkpt>
      <trkpt lat="49.28444" lon="-0.10705">
        <ele>2.8</ele>
        <time>2024-03-03T06:58:19Z</time>
      </trkpt>
      <trkpt lat="49.28444" lon="-0.10705">
        <ele>2.8</ele>
        <time>2024-03-03T06:58:20Z</time>
      </trkpt>
      <trkpt lat="49.28444" lon="-0.10705">
        <ele>2.8</ele>
        <time>2024-03-03T06:58:21Z</time>
      </trkpt>
      <trkpt lat="49.28444" lon="-0.10705">
        <ele>2.8</ele>
        <time>2024-03-03T06:58:22Z</time>
      </trkpt>
      <trkpt lat="49.28444" lon="-0.10705">
        <ele>2.8</ele>
        <time>2024-03-03T06:58:23Z</time>
      </trkpt>
      <trkpt lat="49.28444" lon="-0.10705">
        <ele>2.8</ele>
        <time>2024-03-03T06:58:24Z</time>
      </trkpt>
      <trkpt lat="49.28444" lon="-0.10705">
        <ele>2.8</ele>
        <time>2024-03-03T06:58:25Z</time>
      </trkpt>
      <trkpt lat="49.28444" lon="-0.10705">
        <ele>2.8</ele>
        <time>2024-03-03T06:58:26Z</time>
      </trkpt>
      <trkpt lat="49.28444" lon="-0.10705">
        <ele>2.8</ele>
        <time>2024-03-03T06:58:27Z</time>
      </trkpt>
      <trkpt lat="49.28444" lon="-0.10705">
        <ele>2.8</ele>
        <time>2024-03-03T06:58:28Z</time>
      </trkpt>
      <trkpt lat="49.28444" lon="-0.10705">
        <ele>2.8</ele>
        <time>2024-03-03T06:58:29Z</time>
      </trkpt>
      <trkpt lat="49.28444" lon="-0.10705">
        <ele>2.8</ele>
        <time>2024-03-03T06:58:30Z</time>
      </trkpt>
      <trkpt lat="49.28444" lon="-0.10705">
        <ele>2.8</ele>
        <time>2024-03-03T06:58:31Z</time>
      </trkpt>
      <trkpt lat="49.28444" lon="-0.10705">
        <ele>2.8</ele>
        <time>2024-03-03T06:58:32Z</time>
      </trkpt>
      <trkpt lat="49.28444" lon="-0.10705">
        <ele>2.8</ele>
        <time>2024-03-03T06:58:33Z</time>
      </trkpt>
      <trkpt lat="49.28444" lon="-0.10705">
        <ele>2.8</ele>
        <time>2024-03-03T06:58:34Z</time>
      </trkpt>
      <trkpt lat="49.28444" lon="-0.10705">
        <ele>2.8</ele>
        <time>2024-03-03T06:58:35Z</time>
      </trkpt>
      <trkpt lat="49.28444" lon="-0.10705">
        <ele>2.8</ele>
        <time>2024-03-03T06:58:36Z</time>
      </trkpt>
      <trkpt lat="49.28444" lon="-0.10705">
        <ele>2.8</ele>
        <time>2024-03-03T06:58:37Z</time>
      </trkpt>
      <trkpt lat="49.28444" lon="-0.10705">
        <ele>2.8</ele>
        <time>2024-03-03T06:58:38Z</time>
      </trkpt>
      <trkpt lat="49.28444" lon="-0.10705">
        <ele>2.8</ele>
        <time>2024-03-03T06:58:39Z</time>
      </trkpt>
      <trkpt lat="49.28444" lon="-0.10705">
        <ele>2.8</ele>
        <time>2024-03-03T06:58:40Z</time>
      </trkpt>
      <trkpt lat="49.28444" lon="-0.10705">
        <ele>2.8</ele>
        <time>2024-03-03T06:58:41Z</time>
      </trkpt>
      <trkpt lat="49.28444" lon="-0.10705">
        <ele>2.8</ele>
        <time>2024-03-03T06:58:42Z</time>
      </trkpt>
      <trkpt lat="49.28444" lon="-0.10705">
        <ele>2.8</ele>
        <time>2024-03-03T06:58:43Z</time>
      </trkpt>
      <trkpt lat="49.28444" lon="-0.10705">
        <ele>2.8</ele>
        <time>2024-03-03T06:58:44Z</time>
      </trkpt>
      <trkpt lat="49.28444" lon="-0.10705">
        <ele>2.8</ele>
        <time>2024-03-03T06:58:45Z</time>
      </trkpt>
      <trkpt lat="49.28444" lon="-0.10705">
        <ele>2.8</ele>
        <time>2024-03-03T06:58:46Z</time>
      </trkpt>
      <trkpt lat="49.28444" lon="-0.10705">
        <ele>2.8</ele>
        <time>2024-03-03T06:58:47Z</time>
      </trkpt>
      <trkpt lat="49.28444" lon="-0.10705">
        <ele>2.8</ele>
        <time>2024-03-03T06:58:48Z</time>
      </trkpt>
      <trkpt lat="49.28444" lon="-0.10705">
        <ele>2.8</ele>
        <time>2024-03-03T06:58:49Z</time>
      </trkpt>
      <trkpt lat="49.28444" lon="-0.10705">
        <ele>2.8</ele>
        <time>2024-03-03T06:58:50Z</time>
      </trkpt>
      <trkpt lat="49.28444" lon="-0.10705">
        <ele>2.8</ele>
        <time>2024-03-03T06:58:51Z</time>
      </trkpt>
      <trkpt lat="49.28444" lon="-0.10705">
        <ele>2.8</ele>
        <time>2024-03-03T06:58:52Z</time>
      </trkpt>
      <trkpt lat="49.28444" lon="-0.10705">
        <ele>2.8</ele>
        <time>2024-03-03T06:58:53Z</time>
      </trkpt>
      <trkpt lat="49.28444" lon="-0.10705">
        <ele>2.8</ele>
        <time>2024-03-03T06:58:54Z</time>
      </trkpt>
      <trkpt lat="49.28446" lon="-0.10705">
        <ele>2.8</ele>
        <time>2024-03-03T06:58:55Z</time>
      </trkpt>
      <trkpt lat="49.28446" lon="-0.10706">
        <ele>2.8</ele>
        <time>2024-03-03T06:58:56Z</time>
      </trkpt>
      <trkpt lat="49.28446" lon="-0.10706">
        <ele>2.8</ele>
        <time>2024-03-03T06:58:57Z</time>
      </trkpt>
      <trkpt lat="49.28446" lon="-0.10705">
        <ele>2.8</ele>
        <time>2024-03-03T06:58:58Z</time>
      </trkpt>
      <trkpt lat="49.28446" lon="-0.10705">
        <ele>2.8</ele>
        <time>2024-03-03T06:58:59Z</time>
      </trkpt>
      <trkpt lat="49.28446" lon="-0.10705">
        <ele>2.8</ele>
        <time>2024-03-03T06:59:00Z</time>
      </trkpt>
      <trkpt lat="49.28446" lon="-0.10705">
        <ele>2.8</ele>
        <time>2024-03-03T06:59:01Z</time>
      </trkpt>
      <trkpt lat="49.28446" lon="-0.10705">
        <ele>2.8</ele>
        <time>2024-03-03T06:59:02Z</time>
      </trkpt>
      <trkpt lat="49.28446" lon="-0.10705">
        <ele>2.8</ele>
        <time>2024-03-03T06:59:03Z</time>
      </trkpt>
      <trkpt lat="49.28446" lon="-0.10705">
        <ele>2.8</ele>
        <time>2024-03-03T06:59:04Z</time>
      </trkpt>
      <trkpt lat="49.28446" lon="-0.10705">
        <ele>2.8</ele>
        <time>2024-03-03T06:59:05Z</time>
      </trkpt>
      <trkpt lat="49.28446" lon="-0.10705">
        <ele>2.8</ele>
        <time>2024-03-03T06:59:06Z</time>
      </trkpt>
      <trkpt lat="49.28446" lon="-0.10705">
        <ele>2.8</ele>
        <time>2024-03-03T06:59:07Z</time>
      </trkpt>
      <trkpt lat="49.28446" lon="-0.10705">
        <ele>2.8</ele>
        <time>2024-03-03T06:59:08Z</time>
      </trkpt>
      <trkpt lat="49.28446" lon="-0.10705">
        <ele>2.8</ele>
        <time>2024-03-03T06:59:09Z</time>
      </trkpt>
      <trkpt lat="49.28446" lon="-0.10705">
        <ele>2.8</ele>
        <time>2024-03-03T06:59:10Z</time>
      </trkpt>
      <trkpt lat="49.28446" lon="-0.10705">
        <ele>2.8</ele>
        <time>2024-03-03T06:59:11Z</time>
      </trkpt>
      <trkpt lat="49.28447" lon="-0.10705">
        <ele>2.8</ele>
        <time>2024-03-03T06:59:12Z</time>
      </trkpt>
      <trkpt lat="49.28447" lon="-0.10706">
        <ele>2.8</ele>
        <time>2024-03-03T06:59:13Z</time>
      </trkpt>
      <trkpt lat="49.28447" lon="-0.10706">
        <ele>2.8</ele>
        <time>2024-03-03T06:59:14Z</time>
      </trkpt>
      <trkpt lat="49.28447" lon="-0.10706">
        <ele>2.8</ele>
        <time>2024-03-03T06:59:15Z</time>
      </trkpt>
      <trkpt lat="49.28447" lon="-0.10706">
        <ele>2.8</ele>
        <time>2024-03-03T06:59:16Z</time>
      </trkpt>
      <trkpt lat="49.28447" lon="-0.10706">
        <ele>2.8</ele>
        <time>2024-03-03T06:59:17Z</time>
      </trkpt>
      <trkpt lat="49.28447" lon="-0.10706">
        <ele>2.8</ele>
        <time>2024-03-03T06:59:18Z</time>
      </trkpt>
      <trkpt lat="49.28447" lon="-0.10706">
        <ele>2.8</ele>
        <time>2024-03-03T06:59:19Z</time>
      </trkpt>
      <trkpt lat="49.28447" lon="-0.10706">
        <ele>2.8</ele>
        <time>2024-03-03T06:59:20Z</time>
      </trkpt>
      <trkpt lat="49.28447" lon="-0.10706">
        <ele>2.8</ele>
        <time>2024-03-03T06:59:21Z</time>
      </trkpt>
      <trkpt lat="49.28447" lon="-0.10707">
        <ele>2.8</ele>
        <time>2024-03-03T06:59:22Z</time>
      </trkpt>
      <trkpt lat="49.28448" lon="-0.10708">
        <ele>2.8</ele>
        <time>2024-03-03T06:59:23Z</time>
      </trkpt>
      <trkpt lat="49.28448" lon="-0.10708">
        <ele>2.8</ele>
        <time>2024-03-03T06:59:24Z</time>
      </trkpt>
      <trkpt lat="49.28447" lon="-0.10708">
        <ele>2.8</ele>
        <time>2024-03-03T06:59:25Z</time>
      </trkpt>
      <trkpt lat="49.28447" lon="-0.10708">
        <ele>2.8</ele>
        <time>2024-03-03T06:59:26Z</time>
      </trkpt>
      <trkpt lat="49.28447" lon="-0.10708">
        <ele>2.8</ele>
        <time>2024-03-03T06:59:27Z</time>
      </trkpt>
      <trkpt lat="49.28447" lon="-0.10708">
        <ele>2.8</ele>
        <time>2024-03-03T06:59:28Z</time>
      </trkpt>
      <trkpt lat="49.28447" lon="-0.10708">
        <ele>2.8</ele>
        <time>2024-03-03T06:59:29Z</time>
      </trkpt>
      <trkpt lat="49.28447" lon="-0.10708">
        <ele>2.8</ele>
        <time>2024-03-03T06:59:30Z</time>
      </trkpt>
      <trkpt lat="49.28447" lon="-0.10708">
        <ele>2.8</ele>
        <time>2024-03-03T06:59:31Z</time>
      </trkpt>
      <trkpt lat="49.28447" lon="-0.10708">
        <ele>2.8</ele>
        <time>2024-03-03T06:59:32Z</time>
      </trkpt>
      <trkpt lat="49.28447" lon="-0.10708">
        <ele>2.8</ele>
        <time>2024-03-03T06:59:33Z</time>
      </trkpt>
      <trkpt lat="49.28447" lon="-0.10708">
        <ele>2.8</ele>
        <time>2024-03-03T06:59:34Z</time>
      </trkpt>
      <trkpt lat="49.28447" lon="-0.10708">
        <ele>2.8</ele>
        <time>2024-03-03T06:59:35Z</time>
      </trkpt>
      <trkpt lat="49.28447" lon="-0.10708">
        <ele>2.8</ele>
        <time>2024-03-03T06:59:36Z</time>
      </trkpt>
      <trkpt lat="49.28447" lon="-0.10708">
        <ele>2.8</ele>
        <time>2024-03-03T06:59:37Z</time>
      </trkpt>
      <trkpt lat="49.28447" lon="-0.10708">
        <ele>2.8</ele>
        <time>2024-03-03T06:59:38Z</time>
      </trkpt>
      <trkpt lat="49.28447" lon="-0.10708">
        <ele>2.8</ele>
        <time>2024-03-03T06:59:39Z</time>
      </trkpt>
      <trkpt lat="49.28447" lon="-0.10708">
        <ele>2.8</ele>
        <time>2024-03-03T06:59:40Z</time>
      </trkpt>
      <trkpt lat="49.28447" lon="-0.10708">
        <ele>2.8</ele>
        <time>2024-03-03T06:59:41Z</time>
      </trkpt>
      <trkpt lat="49.28447" lon="-0.10708">
        <ele>2.8</ele>
        <time>2024-03-03T06:59:42Z</time>
      </trkpt>
      <trkpt lat="49.28447" lon="-0.10708">
        <ele>2.8</ele>
        <time>2024-03-03T06:59:43Z</time>
      </trkpt>
      <trkpt lat="49.28447" lon="-0.10708">
        <ele>2.8</ele>
        <time>2024-03-03T06:59:44Z</time>
      </trkpt>
      <trkpt lat="49.28447" lon="-0.10708">
        <ele>2.8</ele>
        <time>2024-03-03T06:59:45Z</time>
      </trkpt>
      <trkpt lat="49.28447" lon="-0.10708">
        <ele>2.8</ele>
        <time>2024-03-03T06:59:46Z</time>
      </trkpt>
      <trkpt lat="49.28447" lon="-0.10708">
        <ele>2.8</ele>
        <time>2024-03-03T06:59:47Z</time>
      </trkpt>
      <trkpt lat="49.28447" lon="-0.10708">
        <ele>2.8</ele>
        <time>2024-03-03T06:59:48Z</time>
      </trkpt>
      <trkpt lat="49.28447" lon="-0.10708">
        <ele>2.9</ele>
        <time>2024-03-03T06:59:49Z</time>
      </trkpt>
      <trkpt lat="49.28447" lon="-0.10707">
        <ele>2.9</ele>
        <time>2024-03-03T06:59:50Z</time>
      </trkpt>
      <trkpt lat="49.28447" lon="-0.10707">
        <ele>2.9</ele>
        <time>2024-03-03T06:59:51Z</time>
      </trkpt>
      <trkpt lat="49.28447" lon="-0.10707">
        <ele>2.9</ele>
        <time>2024-03-03T06:59:52Z</time>
      </trkpt>
      <trkpt lat="49.28447" lon="-0.10707">
        <ele>2.9</ele>
        <time>2024-03-03T06:59:53Z</time>
      </trkpt>
      <trkpt lat="49.28447" lon="-0.10707">
        <ele>2.9</ele>
        <time>2024-03-03T06:59:54Z</time>
      </trkpt>
      <trkpt lat="49.28447" lon="-0.10707">
        <ele>2.9</ele>
        <time>2024-03-03T06:59:55Z</time>
      </trkpt>
      <trkpt lat="49.28447" lon="-0.10707">
        <ele>2.9</ele>
        <time>2024-03-03T06:59:56Z</time>
      </trkpt>
      <trkpt lat="49.28447" lon="-0.10707">
        <ele>2.9</ele>
        <time>2024-03-03T06:59:57Z</time>
      </trkpt>
      <trkpt lat="49.28447" lon="-0.10707">
        <ele>2.9</ele>
        <time>2024-03-03T06:59:58Z</time>
      </trkpt>
      <trkpt lat="49.28447" lon="-0.10707">
        <ele>2.9</ele>
        <time>2024-03-03T06:59:59Z</time>
      </trkpt>
      <trkpt lat="49.28447" lon="-0.10707">
        <ele>2.9</ele>
        <time>2024-03-03T07:00:00Z</time>
      </trkpt>
      <trkpt lat="49.28447" lon="-0.10707">
        <ele>2.9</ele>
        <time>2024-03-03T07:00:01Z</time>
      </trkpt>
      <trkpt lat="49.28447" lon="-0.10707">
        <ele>2.9</ele>
        <time>2024-03-03T07:00:02Z</time>
      </trkpt>
      <trkpt lat="49.28447" lon="-0.10707">
        <ele>2.9</ele>
        <time>2024-03-03T07:00:03Z</time>
      </trkpt>
      <trkpt lat="49.28447" lon="-0.10707">
        <ele>2.9</ele>
        <time>2024-03-03T07:00:04Z</time>
      </trkpt>
      <trkpt lat="49.28447" lon="-0.10707">
        <ele>2.9</ele>
        <time>2024-03-03T07:00:05Z</time>
      </trkpt>
      <trkpt lat="49.28448" lon="-0.10707">
        <ele>2.9</ele>
        <time>2024-03-03T07:00:06Z</time>
      </trkpt>
      <trkpt lat="49.28448" lon="-0.10707">
        <ele>2.9</ele>
        <time>2024-03-03T07:00:07Z</time>
      </trkpt>
      <trkpt lat="49.28448" lon="-0.10707">
        <ele>2.9</ele>
        <time>2024-03-03T07:00:08Z</time>
      </trkpt>
      <trkpt lat="49.28448" lon="-0.10707">
        <ele>2.9</ele>
        <time>2024-03-03T07:00:09Z</time>
      </trkpt>
      <trkpt lat="49.28448" lon="-0.10707">
        <ele>2.9</ele>
        <time>2024-03-03T07:00:10Z</time>
      </trkpt>
      <trkpt lat="49.28448" lon="-0.10707">
        <ele>2.9</ele>
        <time>2024-03-03T07:00:11Z</time>
      </trkpt>
      <trkpt lat="49.28448" lon="-0.10707">
        <ele>2.9</ele>
        <time>2024-03-03T07:00:12Z</time>
      </trkpt>
      <trkpt lat="49.28448" lon="-0.10707">
        <ele>2.9</ele>
        <time>2024-03-03T07:00:13Z</time>
      </trkpt>
      <trkpt lat="49.28448" lon="-0.10707">
        <ele>2.9</ele>
        <time>2024-03-03T07:00:14Z</time>
      </trkpt>
      <trkpt lat="49.28448" lon="-0.10707">
        <ele>2.9</ele>
        <time>2024-03-03T07:00:15Z</time>
      </trkpt>
      <trkpt lat="49.28449" lon="-0.10706">
        <ele>2.9</ele>
        <time>2024-03-03T07:00:16Z</time>
      </trkpt>
      <trkpt lat="49.28449" lon="-0.10707">
        <ele>2.9</ele>
        <time>2024-03-03T07:00:17Z</time>
      </trkpt>
      <trkpt lat="49.28449" lon="-0.10707">
        <ele>2.9</ele>
        <time>2024-03-03T07:00:18Z</time>
      </trkpt>
      <trkpt lat="49.28449" lon="-0.10706">
        <ele>2.9</ele>
        <time>2024-03-03T07:00:19Z</time>
      </trkpt>
      <trkpt lat="49.28449" lon="-0.10706">
        <ele>2.9</ele>
        <time>2024-03-03T07:00:20Z</time>
      </trkpt>
      <trkpt lat="49.28449" lon="-0.10705">
        <ele>2.9</ele>
        <time>2024-03-03T07:00:21Z</time>
      </trkpt>
      <trkpt lat="49.28449" lon="-0.10705">
        <ele>2.9</ele>
        <time>2024-03-03T07:00:22Z</time>
      </trkpt>
      <trkpt lat="49.28449" lon="-0.10705">
        <ele>2.9</ele>
        <time>2024-03-03T07:00:23Z</time>
      </trkpt>
      <trkpt lat="49.28449" lon="-0.10705">
        <ele>2.9</ele>
        <time>2024-03-03T07:00:24Z</time>
      </trkpt>
      <trkpt lat="49.28449" lon="-0.10706">
        <ele>2.9</ele>
        <time>2024-03-03T07:00:25Z</time>
      </trkpt>
      <trkpt lat="49.28449" lon="-0.10705">
        <ele>2.9</ele>
        <time>2024-03-03T07:00:26Z</time>
      </trkpt>
      <trkpt lat="49.28449" lon="-0.10705">
        <ele>2.9</ele>
        <time>2024-03-03T07:00:27Z</time>
      </trkpt>
      <trkpt lat="49.28449" lon="-0.10705">
        <ele>2.9</ele>
        <time>2024-03-03T07:00:28Z</time>
      </trkpt>
      <trkpt lat="49.28449" lon="-0.10705">
        <ele>2.9</ele>
        <time>2024-03-03T07:00:29Z</time>
      </trkpt>
      <trkpt lat="49.28449" lon="-0.10705">
        <ele>2.9</ele>
        <time>2024-03-03T07:00:30Z</time>
      </trkpt>
      <trkpt lat="49.28449" lon="-0.10704">
        <ele>3</ele>
        <time>2024-03-03T07:00:31Z</time>
      </trkpt>
      <trkpt lat="49.28449" lon="-0.10705">
        <ele>3</ele>
        <time>2024-03-03T07:00:32Z</time>
      </trkpt>
      <trkpt lat="49.28449" lon="-0.10705">
        <ele>3</ele>
        <time>2024-03-03T07:00:33Z</time>
      </trkpt>
      <trkpt lat="49.28449" lon="-0.10705">
        <ele>3</ele>
        <time>2024-03-03T07:00:34Z</time>
      </trkpt>
      <trkpt lat="49.28449" lon="-0.10705">
        <ele>3</ele>
        <time>2024-03-03T07:00:35Z</time>
      </trkpt>
      <trkpt lat="49.28449" lon="-0.10705">
        <ele>3</ele>
        <time>2024-03-03T07:00:36Z</time>
      </trkpt>
      <trkpt lat="49.28449" lon="-0.10705">
        <ele>3</ele>
        <time>2024-03-03T07:00:37Z</time>
      </trkpt>
      <trkpt lat="49.28449" lon="-0.10705">
        <ele>3</ele>
        <time>2024-03-03T07:00:38Z</time>
      </trkpt>
      <trkpt lat="49.28449" lon="-0.10705">
        <ele>3</ele>
        <time>2024-03-03T07:00:39Z</time>
      </trkpt>
      <trkpt lat="49.28449" lon="-0.10705">
        <ele>3</ele>
        <time>2024-03-03T07:00:40Z</time>
      </trkpt>
      <trkpt lat="49.28449" lon="-0.10705">
        <ele>3</ele>
        <time>2024-03-03T07:00:41Z</time>
      </trkpt>
      <trkpt lat="49.28449" lon="-0.10705">
        <ele>3</ele>
        <time>2024-03-03T07:00:42Z</time>
      </trkpt>
      <trkpt lat="49.28449" lon="-0.10706">
        <ele>3</ele>
        <time>2024-03-03T07:00:43Z</time>
      </trkpt>
      <trkpt lat="49.28449" lon="-0.10706">
        <ele>3</ele>
        <time>2024-03-03T07:00:44Z</time>
      </trkpt>
      <trkpt lat="49.28449" lon="-0.10706">
        <ele>3</ele>
        <time>2024-03-03T07:00:45Z</time>
      </trkpt>
      <trkpt lat="49.28449" lon="-0.10706">
        <ele>3</ele>
        <time>2024-03-03T07:00:46Z</time>
      </trkpt>
      <trkpt lat="49.28449" lon="-0.10706">
        <ele>3</ele>
        <time>2024-03-03T07:00:47Z</time>
      </trkpt>
      <trkpt lat="49.28449" lon="-0.10706">
        <ele>3</ele>
        <time>2024-03-03T07:00:48Z</time>
      </trkpt>
      <trkpt lat="49.28449" lon="-0.10706">
        <ele>3</ele>
        <time>2024-03-03T07:00:49Z</time>
      </trkpt>
      <trkpt lat="49.28449" lon="-0.10706">
        <ele>3</ele>
        <time>2024-03-03T07:00:50Z</time>
      </trkpt>
      <trkpt lat="49.2845" lon="-0.10706">
        <ele>3</ele>
        <time>2024-03-03T07:00:51Z</time>
      </trkpt>
      <trkpt lat="49.2845" lon="-0.10706">
        <ele>3</ele>
        <time>2024-03-03T07:00:52Z</time>
      </trkpt>
      <trkpt lat="49.2845" lon="-0.10706">
        <ele>3</ele>
        <time>2024-03-03T07:00:53Z</time>
      </trkpt>
      <trkpt lat="49.2845" lon="-0.10706">
        <ele>3</ele>
        <time>2024-03-03T07:00:54Z</time>
      </trkpt>
      <trkpt lat="49.2845" lon="-0.10707">
        <ele>3</ele>
        <time>2024-03-03T07:00:55Z</time>
      </trkpt>
      <trkpt lat="49.2845" lon="-0.10707">
        <ele>3</ele>
        <time>2024-03-03T07:00:56Z</time>
      </trkpt>
      <trkpt lat="49.2845" lon="-0.10707">
        <ele>3</ele>
        <time>2024-03-03T07:00:57Z</time>
      </trkpt>
      <trkpt lat="49.2845" lon="-0.10707">
        <ele>3</ele>
        <time>2024-03-03T07:00:58Z</time>
      </trkpt>
      <trkpt lat="49.2845" lon="-0.10707">
        <ele>3</ele>
        <time>2024-03-03T07:00:59Z</time>
      </trkpt>
      <trkpt lat="49.2845" lon="-0.10707">
        <ele>3</ele>
        <time>2024-03-03T07:01:00Z</time>
      </trkpt>
      <trkpt lat="49.2845" lon="-0.10707">
        <ele>3</ele>
        <time>2024-03-03T07:01:01Z</time>
      </trkpt>
      <trkpt lat="49.2845" lon="-0.10707">
        <ele>3</ele>
        <time>2024-03-03T07:01:02Z</time>
      </trkpt>
      <trkpt lat="49.2845" lon="-0.10707">
        <ele>3</ele>
        <time>2024-03-03T07:01:03Z</time>
      </trkpt>
      <trkpt lat="49.2845" lon="-0.10707">
        <ele>3</ele>
        <time>2024-03-03T07:01:04Z</time>
      </trkpt>
      <trkpt lat="49.2845" lon="-0.10707">
        <ele>3</ele>
        <time>2024-03-03T07:01:05Z</time>
      </trkpt>
      <trkpt lat="49.2845" lon="-0.10707">
        <ele>3</ele>
        <time>2024-03-03T07:01:06Z</time>
      </trkpt>
      <trkpt lat="49.2845" lon="-0.10708">
        <ele>3</ele>
        <time>2024-03-03T07:01:07Z</time>
      </trkpt>
      <trkpt lat="49.2845" lon="-0.10708">
        <ele>3</ele>
        <time>2024-03-03T07:01:08Z</time>
      </trkpt>
      <trkpt lat="49.2845" lon="-0.10708">
        <ele>3</ele>
        <time>2024-03-03T07:01:09Z</time>
      </trkpt>
      <trkpt lat="49.2845" lon="-0.10708">
        <ele>3</ele>
        <time>2024-03-03T07:01:10Z</time>
      </trkpt>
      <trkpt lat="49.2845" lon="-0.10708">
        <ele>3</ele>
        <time>2024-03-03T07:01:11Z</time>
      </trkpt>
      <trkpt lat="49.2845" lon="-0.10708">
        <ele>3</ele>
        <time>2024-03-03T07:01:12Z</time>
      </trkpt>
      <trkpt lat="49.2845" lon="-0.10708">
        <ele>3</ele>
        <time>2024-03-03T07:01:13Z</time>
      </trkpt>
      <trkpt lat="49.2845" lon="-0.10708">
        <ele>3</ele>
        <time>2024-03-03T07:01:14Z</time>
      </trkpt>
      <trkpt lat="49.2845" lon="-0.10708">
        <ele>3</ele>
        <time>2024-03-03T07:01:15Z</time>
      </trkpt>
      <trkpt lat="49.2845" lon="-0.10708">
        <ele>3</ele>
        <time>2024-03-03T07:01:16Z</time>
      </trkpt>
      <trkpt lat="49.2845" lon="-0.10708">
        <ele>3</ele>
        <time>2024-03-03T07:01:17Z</time>
      </trkpt>
      <trkpt lat="49.2845" lon="-0.10709">
        <ele>3</ele>
        <time>2024-03-03T07:01:18Z</time>
      </trkpt>
      <trkpt lat="49.2845" lon="-0.10709">
        <ele>3</ele>
        <time>2024-03-03T07:01:19Z</time>
      </trkpt>
      <trkpt lat="49.2845" lon="-0.10709">
        <ele>3</ele>
        <time>2024-03-03T07:01:20Z</time>
      </trkpt>
      <trkpt lat="49.2845" lon="-0.10709">
        <ele>3</ele>
        <time>2024-03-03T07:01:21Z</time>
      </trkpt>
      <trkpt lat="49.2845" lon="-0.10709">
        <ele>3</ele>
        <time>2024-03-03T07:01:22Z</time>
      </trkpt>
      <trkpt lat="49.2845" lon="-0.10709">
        <ele>3</ele>
        <time>2024-03-03T07:01:23Z</time>
      </trkpt>
      <trkpt lat="49.2845" lon="-0.10709">
        <ele>3</ele>
        <time>2024-03-03T07:01:24Z</time>
      </trkpt>
      <trkpt lat="49.2845" lon="-0.10709">
        <ele>3</ele>
        <time>2024-03-03T07:01:25Z</time>
      </trkpt>
      <trkpt lat="49.2845" lon="-0.10709">
        <ele>3</ele>
        <time>2024-03-03T07:01:26Z</time>
      </trkpt>
      <trkpt lat="49.2845" lon="-0.10709">
        <ele>3</ele>
        <time>2024-03-03T07:01:27Z</time>
      </trkpt>
      <trkpt lat="49.2845" lon="-0.10709">
        <ele>3</ele>
        <time>2024-03-03T07:01:28Z</time>
      </trkpt>
      <trkpt lat="49.2845" lon="-0.10709">
        <ele>3</ele>
        <time>2024-03-03T07:01:29Z</time>
      </trkpt>
      <trkpt lat="49.2845" lon="-0.1071">
        <ele>3</ele>
        <time>2024-03-03T07:01:30Z</time>
      </trkpt>
      <trkpt lat="49.2845" lon="-0.1071">
        <ele>3</ele>
        <time>2024-03-03T07:01:31Z</time>
      </trkpt>
      <trkpt lat="49.2845" lon="-0.1071">
        <ele>3.1</ele>
        <time>2024-03-03T07:01:32Z</time>
      </trkpt>
      <trkpt lat="49.2845" lon="-0.1071">
        <ele>3.1</ele>
        <time>2024-03-03T07:01:33Z</time>
      </trkpt>
      <trkpt lat="49.2845" lon="-0.1071">
        <ele>3.1</ele>
        <time>2024-03-03T07:01:34Z</time>
      </trkpt>
      <trkpt lat="49.2845" lon="-0.1071">
        <ele>3.1</ele>
        <time>2024-03-03T07:01:35Z</time>
      </trkpt>
      <trkpt lat="49.2845" lon="-0.1071">
        <ele>3.1</ele>
        <time>2024-03-03T07:01:36Z</time>
      </trkpt>
      <trkpt lat="49.2845" lon="-0.1071">
        <ele>3.1</ele>
        <time>2024-03-03T07:01:37Z</time>
      </trkpt>
      <trkpt lat="49.2845" lon="-0.1071">
        <ele>3.1</ele>
        <time>2024-03-03T07:01:38Z</time>
      </trkpt>
      <trkpt lat="49.2845" lon="-0.1071">
        <ele>3.1</ele>
        <time>2024-03-03T07:01:39Z</time>
      </trkpt>
      <trkpt lat="49.28451" lon="-0.10714">
        <ele>3.1</ele>
        <time>2024-03-03T07:01:40Z</time>
      </trkpt>
      <trkpt lat="49.28451" lon="-0.10716">
        <ele>3.2</ele>
        <time>2024-03-03T07:01:41Z</time>
      </trkpt>
      <trkpt lat="49.28451" lon="-0.10721">
        <ele>3.3</ele>
        <time>2024-03-03T07:01:42Z</time>
      </trkpt>
      <trkpt lat="49.28451" lon="-0.10723">
        <ele>3.3</ele>
        <time>2024-03-03T07:01:43Z</time>
      </trkpt>
      <trkpt lat="49.28452" lon="-0.10727">
        <ele>3.4</ele>
        <time>2024-03-03T07:01:44Z</time>
      </trkpt>
      <trkpt lat="49.28452" lon="-0.10732">
        <ele>3.5</ele>
        <time>2024-03-03T07:01:45Z</time>
      </trkpt>
      <trkpt lat="49.28452" lon="-0.10737">
        <ele>3.6</ele>
        <time>2024-03-03T07:01:46Z</time>
      </trkpt>
      <trkpt lat="49.28451" lon="-0.10742">
        <ele>3.7</ele>
        <time>2024-03-03T07:01:47Z</time>
      </trkpt>
      <trkpt lat="49.28449" lon="-0.10746">
        <ele>3.9</ele>
        <time>2024-03-03T07:01:48Z</time>
      </trkpt>
      <trkpt lat="49.28446" lon="-0.1075">
        <ele>4</ele>
        <time>2024-03-03T07:01:49Z</time>
      </trkpt>
      <trkpt lat="49.28442" lon="-0.10753">
        <ele>4</ele>
        <time>2024-03-03T07:01:50Z</time>
      </trkpt>
      <trkpt lat="49.28439" lon="-0.10756">
        <ele>4</ele>
        <time>2024-03-03T07:01:51Z</time>
      </trkpt>
      <trkpt lat="49.28435" lon="-0.10758">
        <ele>4.1</ele>
        <time>2024-03-03T07:01:52Z</time>
      </trkpt>
      <trkpt lat="49.28432" lon="-0.1076">
        <ele>4.1</ele>
        <time>2024-03-03T07:01:53Z</time>
      </trkpt>
      <trkpt lat="49.28428" lon="-0.10762">
        <ele>4.1</ele>
        <time>2024-03-03T07:01:54Z</time>
      </trkpt>
      <trkpt lat="49.28424" lon="-0.10764">
        <ele>4.1</ele>
        <time>2024-03-03T07:01:55Z</time>
      </trkpt>
      <trkpt lat="49.28421" lon="-0.10765">
        <ele>4.1</ele>
        <time>2024-03-03T07:01:56Z</time>
      </trkpt>
      <trkpt lat="49.28417" lon="-0.10767">
        <ele>4.2</ele>
        <time>2024-03-03T07:01:57Z</time>
      </trkpt>
      <trkpt lat="49.28412" lon="-0.10768">
        <ele>4.2</ele>
        <time>2024-03-03T07:01:58Z</time>
      </trkpt>
      <trkpt lat="49.28407" lon="-0.10769">
        <ele>4.2</ele>
        <time>2024-03-03T07:01:59Z</time>
      </trkpt>
      <trkpt lat="49.28402" lon="-0.1077">
        <ele>4.2</ele>
        <time>2024-03-03T07:02:00Z</time>
      </trkpt>
      <trkpt lat="49.28397" lon="-0.10771">
        <ele>4.2</ele>
        <time>2024-03-03T07:02:01Z</time>
      </trkpt>
      <trkpt lat="49.28393" lon="-0.10772">
        <ele>4.1</ele>
        <time>2024-03-03T07:02:02Z</time>
      </trkpt>
      <trkpt lat="49.28388" lon="-0.10773">
        <ele>4.1</ele>
        <time>2024-03-03T07:02:03Z</time>
      </trkpt>
      <trkpt lat="49.28384" lon="-0.10774">
        <ele>4.1</ele>
        <time>2024-03-03T07:02:04Z</time>
      </trkpt>
      <trkpt lat="49.2838" lon="-0.10774">
        <ele>4.1</ele>
        <time>2024-03-03T07:02:05Z</time>
      </trkpt>
      <trkpt lat="49.28376" lon="-0.10775">
        <ele>4.1</ele>
        <time>2024-03-03T07:02:06Z</time>
      </trkpt>
      <trkpt lat="49.28372" lon="-0.10775">
        <ele>4.1</ele>
        <time>2024-03-03T07:02:07Z</time>
      </trkpt>
      <trkpt lat="49.28368" lon="-0.10775">
        <ele>4.1</ele>
        <time>2024-03-03T07:02:08Z</time>
      </trkpt>
      <trkpt lat="49.28365" lon="-0.10776">
        <ele>4.1</ele>
        <time>2024-03-03T07:02:09Z</time>
      </trkpt>
      <trkpt lat="49.28361" lon="-0.10775">
        <ele>4.1</ele>
        <time>2024-03-03T07:02:10Z</time>
      </trkpt>
      <trkpt lat="49.28358" lon="-0.10773">
        <ele>4.2</ele>
        <time>2024-03-03T07:02:11Z</time>
      </trkpt>
      <trkpt lat="49.28356" lon="-0.10767">
        <ele>4.2</ele>
        <time>2024-03-03T07:02:12Z</time>
      </trkpt>
      <trkpt lat="49.28355" lon="-0.1076">
        <ele>4.1</ele>
        <time>2024-03-03T07:02:13Z</time>
      </trkpt>
      <trkpt lat="49.28354" lon="-0.10753">
        <ele>4.1</ele>
        <time>2024-03-03T07:02:14Z</time>
      </trkpt>
      <trkpt lat="49.28354" lon="-0.10747">
        <ele>4.1</ele>
        <time>2024-03-03T07:02:15Z</time>
      </trkpt>
      <trkpt lat="49.28354" lon="-0.1074">
        <ele>4.1</ele>
        <time>2024-03-03T07:02:16Z</time>
      </trkpt>
      <trkpt lat="49.28354" lon="-0.10734">
        <ele>4.1</ele>
        <time>2024-03-03T07:02:17Z</time>
      </trkpt>
      <trkpt lat="49.28353" lon="-0.10727">
        <ele>4.1</ele>
        <time>2024-03-03T07:02:18Z</time>
      </trkpt>
      <trkpt lat="49.28352" lon="-0.10721">
        <ele>4.1</ele>
        <time>2024-03-03T07:02:19Z</time>
      </trkpt>
      <trkpt lat="49.28352" lon="-0.10715">
        <ele>4.1</ele>
        <time>2024-03-03T07:02:20Z</time>
      </trkpt>
      <trkpt lat="49.28352" lon="-0.10708">
        <ele>4.1</ele>
        <time>2024-03-03T07:02:21Z</time>
      </trkpt>
      <trkpt lat="49.28351" lon="-0.10701">
        <ele>4.1</ele>
        <time>2024-03-03T07:02:22Z</time>
      </trkpt>
      <trkpt lat="49.28351" lon="-0.10695">
        <ele>4.1</ele>
        <time>2024-03-03T07:02:23Z</time>
      </trkpt>
      <trkpt lat="49.28351" lon="-0.10687">
        <ele>4.1</ele>
        <time>2024-03-03T07:02:24Z</time>
      </trkpt>
      <trkpt lat="49.2835" lon="-0.1068">
        <ele>4.1</ele>
        <time>2024-03-03T07:02:25Z</time>
      </trkpt>
      <trkpt lat="49.2835" lon="-0.10673">
        <ele>4.1</ele>
        <time>2024-03-03T07:02:26Z</time>
      </trkpt>
      <trkpt lat="49.28349" lon="-0.10665">
        <ele>4.1</ele>
        <time>2024-03-03T07:02:27Z</time>
      </trkpt>
      <trkpt lat="49.28349" lon="-0.10657">
        <ele>4.1</ele>
        <time>2024-03-03T07:02:28Z</time>
      </trkpt>
      <trkpt lat="49.28348" lon="-0.1065">
        <ele>4.1</ele>
        <time>2024-03-03T07:02:29Z</time>
      </trkpt>
      <trkpt lat="49.28348" lon="-0.10642">
        <ele>4.1</ele>
        <time>2024-03-03T07:02:30Z</time>
      </trkpt>
      <trkpt lat="49.28348" lon="-0.10635">
        <ele>4.1</ele>
        <time>2024-03-03T07:02:31Z</time>
      </trkpt>
      <trkpt lat="49.28348" lon="-0.10627">
        <ele>4.1</ele>
        <time>2024-03-03T07:02:32Z</time>
      </trkpt>
      <trkpt lat="49.28347" lon="-0.1062">
        <ele>4.1</ele>
        <time>2024-03-03T07:02:33Z</time>
      </trkpt>
      <trkpt lat="49.28347" lon="-0.10611">
        <ele>4.1</ele>
        <time>2024-03-03T07:02:34Z</time>
      </trkpt>
      <trkpt lat="49.28347" lon="-0.10603">
        <ele>4.1</ele>
        <time>2024-03-03T07:02:35Z</time>
      </trkpt>
      <trkpt lat="49.28347" lon="-0.10595">
        <ele>4.1</ele>
        <time>2024-03-03T07:02:36Z</time>
      </trkpt>
      <trkpt lat="49.28346" lon="-0.10588">
        <ele>4.1</ele>
        <time>2024-03-03T07:02:37Z</time>
      </trkpt>
      <trkpt lat="49.28346" lon="-0.10581">
        <ele>4.1</ele>
        <time>2024-03-03T07:02:38Z</time>
      </trkpt>
      <trkpt lat="49.28346" lon="-0.10574">
        <ele>4.1</ele>
        <time>2024-03-03T07:02:39Z</time>
      </trkpt>
      <trkpt lat="49.28346" lon="-0.10567">
        <ele>4.1</ele>
        <time>2024-03-03T07:02:40Z</time>
      </trkpt>
      <trkpt lat="49.28346" lon="-0.10559">
        <ele>4.1</ele>
        <time>2024-03-03T07:02:41Z</time>
      </trkpt>
      <trkpt lat="49.28346" lon="-0.10555">
        <ele>4.1</ele>
        <time>2024-03-03T07:02:42Z</time>
      </trkpt>
      <trkpt lat="49.28346" lon="-0.10549">
        <ele>4.1</ele>
        <time>2024-03-03T07:02:43Z</time>
      </trkpt>
      <trkpt lat="49.28346" lon="-0.10547">
        <ele>4.1</ele>
        <time>2024-03-03T07:02:44Z</time>
      </trkpt>
      <trkpt lat="49.28345" lon="-0.10541">
        <ele>4.1</ele>
        <time>2024-03-03T07:02:45Z</time>
      </trkpt>
      <trkpt lat="49.28345" lon="-0.10539">
        <ele>4.1</ele>
        <time>2024-03-03T07:02:46Z</time>
      </trkpt>
      <trkpt lat="49.28345" lon="-0.10534">
        <ele>4</ele>
        <time>2024-03-03T07:02:47Z</time>
      </trkpt>
      <trkpt lat="49.28344" lon="-0.10527">
        <ele>4</ele>
        <time>2024-03-03T07:02:48Z</time>
      </trkpt>
      <trkpt lat="49.28344" lon="-0.10521">
        <ele>4</ele>
        <time>2024-03-03T07:02:49Z</time>
      </trkpt>
      <trkpt lat="49.28344" lon="-0.10515">
        <ele>4</ele>
        <time>2024-03-03T07:02:50Z</time>
      </trkpt>
      <trkpt lat="49.28344" lon="-0.10508">
        <ele>4</ele>
        <time>2024-03-03T07:02:51Z</time>
      </trkpt>
      <trkpt lat="49.28344" lon="-0.10501">
        <ele>4</ele>
        <time>2024-03-03T07:02:52Z</time>
      </trkpt>
      <trkpt lat="49.28343" lon="-0.10495">
        <ele>4</ele>
        <time>2024-03-03T07:02:53Z</time>
      </trkpt>
      <trkpt lat="49.28343" lon="-0.10488">
        <ele>4</ele>
        <time>2024-03-03T07:02:54Z</time>
      </trkpt>
      <trkpt lat="49.28342" lon="-0.10481">
        <ele>4</ele>
        <time>2024-03-03T07:02:55Z</time>
      </trkpt>
      <trkpt lat="49.28342" lon="-0.10473">
        <ele>4</ele>
        <time>2024-03-03T07:02:56Z</time>
      </trkpt>
      <trkpt lat="49.28341" lon="-0.10465">
        <ele>4</ele>
        <time>2024-03-03T07:02:57Z</time>
      </trkpt>
      <trkpt lat="49.28341" lon="-0.10457">
        <ele>4</ele>
        <time>2024-03-03T07:02:58Z</time>
      </trkpt>
      <trkpt lat="49.2834" lon="-0.10449">
        <ele>4</ele>
        <time>2024-03-03T07:02:59Z</time>
      </trkpt>
      <trkpt lat="49.28339" lon="-0.10441">
        <ele>4</ele>
        <time>2024-03-03T07:03:00Z</time>
      </trkpt>
      <trkpt lat="49.28339" lon="-0.10433">
        <ele>4</ele>
        <time>2024-03-03T07:03:01Z</time>
      </trkpt>
      <trkpt lat="49.28338" lon="-0.10425">
        <ele>4</ele>
        <time>2024-03-03T07:03:02Z</time>
      </trkpt>
      <trkpt lat="49.28338" lon="-0.10418">
        <ele>4</ele>
        <time>2024-03-03T07:03:03Z</time>
      </trkpt>
      <trkpt lat="49.28338" lon="-0.10411">
        <ele>4</ele>
        <time>2024-03-03T07:03:04Z</time>
      </trkpt>
      <trkpt lat="49.28338" lon="-0.10403">
        <ele>4</ele>
        <time>2024-03-03T07:03:05Z</time>
      </trkpt>
      <trkpt lat="49.28337" lon="-0.10396">
        <ele>4</ele>
        <time>2024-03-03T07:03:06Z</time>
      </trkpt>
      <trkpt lat="49.28337" lon="-0.10389">
        <ele>4</ele>
        <time>2024-03-03T07:03:07Z</time>
      </trkpt>
      <trkpt lat="49.28337" lon="-0.10381">
        <ele>4</ele>
        <time>2024-03-03T07:03:08Z</time>
      </trkpt>
      <trkpt lat="49.28337" lon="-0.10374">
        <ele>4</ele>
        <time>2024-03-03T07:03:09Z</time>
      </trkpt>
      <trkpt lat="49.28336" lon="-0.10367">
        <ele>4</ele>
        <time>2024-03-03T07:03:10Z</time>
      </trkpt>
      <trkpt lat="49.28336" lon="-0.10359">
        <ele>4</ele>
        <time>2024-03-03T07:03:11Z</time>
      </trkpt>
      <trkpt lat="49.28336" lon="-0.10352">
        <ele>4</ele>
        <time>2024-03-03T07:03:12Z</time>
      </trkpt>
      <trkpt lat="49.28336" lon="-0.10345">
        <ele>4</ele>
        <time>2024-03-03T07:03:13Z</time>
      </trkpt>
      <trkpt lat="49.28336" lon="-0.10339">
        <ele>4</ele>
        <time>2024-03-03T07:03:14Z</time>
      </trkpt>
      <trkpt lat="49.28337" lon="-0.10333">
        <ele>4</ele>
        <time>2024-03-03T07:03:15Z</time>
      </trkpt>
      <trkpt lat="49.28337" lon="-0.10328">
        <ele>4</ele>
        <time>2024-03-03T07:03:16Z</time>
      </trkpt>
      <trkpt lat="49.28338" lon="-0.10324">
        <ele>4</ele>
        <time>2024-03-03T07:03:17Z</time>
      </trkpt>
      <trkpt lat="49.2834" lon="-0.1032">
        <ele>4</ele>
        <time>2024-03-03T07:03:18Z</time>
      </trkpt>
      <trkpt lat="49.2834" lon="-0.10317">
        <ele>4</ele>
        <time>2024-03-03T07:03:19Z</time>
      </trkpt>
      <trkpt lat="49.28341" lon="-0.10315">
        <ele>4</ele>
        <time>2024-03-03T07:03:20Z</time>
      </trkpt>
      <trkpt lat="49.28341" lon="-0.10313">
        <ele>4</ele>
        <time>2024-03-03T07:03:21Z</time>
      </trkpt>
      <trkpt lat="49.28342" lon="-0.10313">
        <ele>4</ele>
        <time>2024-03-03T07:03:22Z</time>
      </trkpt>
      <trkpt lat="49.28342" lon="-0.10313">
        <ele>4</ele>
        <time>2024-03-03T07:03:23Z</time>
      </trkpt>
      <trkpt lat="49.28342" lon="-0.10313">
        <ele>4</ele>
        <time>2024-03-03T07:03:24Z</time>
      </trkpt>
      <trkpt lat="49.28342" lon="-0.10314">
        <ele>4</ele>
        <time>2024-03-03T07:03:25Z</time>
      </trkpt>
      <trkpt lat="49.28342" lon="-0.10314">
        <ele>4</ele>
        <time>2024-03-03T07:03:26Z</time>
      </trkpt>
      <trkpt lat="49.28342" lon="-0.10314">
        <ele>4</ele>
        <time>2024-03-03T07:03:27Z</time>
      </trkpt>
      <trkpt lat="49.28342" lon="-0.10314">
        <ele>4</ele>
        <time>2024-03-03T07:03:28Z</time>
      </trkpt>
      <trkpt lat="49.28342" lon="-0.10314">
        <ele>4</ele>
        <time>2024-03-03T07:03:29Z</time>
      </trkpt>
      <trkpt lat="49.28342" lon="-0.10314">
        <ele>4</ele>
        <time>2024-03-03T07:03:30Z</time>
      </trkpt>
      <trkpt lat="49.28342" lon="-0.10314">
        <ele>4</ele>
        <time>2024-03-03T07:03:31Z</time>
      </trkpt>
      <trkpt lat="49.28342" lon="-0.10314">
        <ele>4</ele>
        <time>2024-03-03T07:03:32Z</time>
      </trkpt>
      <trkpt lat="49.28342" lon="-0.10314">
        <ele>4</ele>
        <time>2024-03-03T07:03:33Z</time>
      </trkpt>
      <trkpt lat="49.28342" lon="-0.10314">
        <ele>4</ele>
        <time>2024-03-03T07:03:34Z</time>
      </trkpt>
      <trkpt lat="49.28342" lon="-0.10314">
        <ele>4</ele>
        <time>2024-03-03T07:03:35Z</time>
      </trkpt>
      <trkpt lat="49.28342" lon="-0.10314">
        <ele>4</ele>
        <time>2024-03-03T07:03:36Z</time>
      </trkpt>
      <trkpt lat="49.28342" lon="-0.10314">
        <ele>4</ele>
        <time>2024-03-03T07:03:37Z</time>
      </trkpt>
      <trkpt lat="49.28342" lon="-0.10314">
        <ele>4</ele>
        <time>2024-03-03T07:03:38Z</time>
      </trkpt>
      <trkpt lat="49.28342" lon="-0.10314">
        <ele>4</ele>
        <time>2024-03-03T07:03:39Z</time>
      </trkpt>
      <trkpt lat="49.28342" lon="-0.10314">
        <ele>4</ele>
        <time>2024-03-03T07:03:40Z</time>
      </trkpt>
      <trkpt lat="49.28342" lon="-0.10314">
        <ele>4</ele>
        <time>2024-03-03T07:03:41Z</time>
      </trkpt>
      <trkpt lat="49.28342" lon="-0.10314">
        <ele>4</ele>
        <time>2024-03-03T07:03:42Z</time>
      </trkpt>
      <trkpt lat="49.28342" lon="-0.10314">
        <ele>4</ele>
        <time>2024-03-03T07:03:43Z</time>
      </trkpt>
      <trkpt lat="49.28342" lon="-0.10314">
        <ele>4</ele>
        <time>2024-03-03T07:03:44Z</time>
      </trkpt>
      <trkpt lat="49.28342" lon="-0.10314">
        <ele>4</ele>
        <time>2024-03-03T07:03:45Z</time>
      </trkpt>
      <trkpt lat="49.28342" lon="-0.10314">
        <ele>4</ele>
        <time>2024-03-03T07:03:46Z</time>
      </trkpt>
      <trkpt lat="49.28342" lon="-0.10314">
        <ele>4</ele>
        <time>2024-03-03T07:03:47Z</time>
      </trkpt>
      <trkpt lat="49.28342" lon="-0.10314">
        <ele>4</ele>
        <time>2024-03-03T07:03:48Z</time>
      </trkpt>
      <trkpt lat="49.28342" lon="-0.10314">
        <ele>4</ele>
        <time>2024-03-03T07:03:49Z</time>
      </trkpt>
      <trkpt lat="49.28342" lon="-0.10314">
        <ele>4</ele>
        <time>2024-03-03T07:03:50Z</time>
      </trkpt>
      <trkpt lat="49.28342" lon="-0.10314">
        <ele>4</ele>
        <time>2024-03-03T07:03:51Z</time>
      </trkpt>
      <trkpt lat="49.28342" lon="-0.10314">
        <ele>4</ele>
        <time>2024-03-03T07:03:52Z</time>
      </trkpt>
      <trkpt lat="49.28342" lon="-0.10314">
        <ele>4</ele>
        <time>2024-03-03T07:03:53Z</time>
      </trkpt>
      <trkpt lat="49.28342" lon="-0.10314">
        <ele>4</ele>
        <time>2024-03-03T07:03:54Z</time>
      </trkpt>
      <trkpt lat="49.28342" lon="-0.10314">
        <ele>4</ele>
        <time>2024-03-03T07:03:55Z</time>
      </trkpt>
      <trkpt lat="49.28342" lon="-0.10314">
        <ele>4</ele>
        <time>2024-03-03T07:03:56Z</time>
      </trkpt>
      <trkpt lat="49.28342" lon="-0.10314">
        <ele>4</ele>
        <time>2024-03-03T07:03:57Z</time>
      </trkpt>
      <trkpt lat="49.28342" lon="-0.10314">
        <ele>4</ele>
        <time>2024-03-03T07:03:58Z</time>
      </trkpt>
      <trkpt lat="49.28342" lon="-0.10314">
        <ele>4</ele>
        <time>2024-03-03T07:03:59Z</time>
      </trkpt>
      <trkpt lat="49.28342" lon="-0.10314">
        <ele>4</ele>
        <time>2024-03-03T07:04:00Z</time>
      </trkpt>
      <trkpt lat="49.28342" lon="-0.10314">
        <ele>4</ele>
        <time>2024-03-03T07:04:01Z</time>
      </trkpt>
      <trkpt lat="49.28342" lon="-0.10314">
        <ele>4</ele>
        <time>2024-03-03T07:04:02Z</time>
      </trkpt>
      <trkpt lat="49.28342" lon="-0.10314">
        <ele>4</ele>
        <time>2024-03-03T07:04:03Z</time>
      </trkpt>
      <trkpt lat="49.28342" lon="-0.10314">
        <ele>4</ele>
        <time>2024-03-03T07:04:04Z</time>
      </trkpt>
      <trkpt lat="49.28342" lon="-0.10314">
        <ele>4</ele>
        <time>2024-03-03T07:04:05Z</time>
      </trkpt>
      <trkpt lat="49.28342" lon="-0.10314">
        <ele>4</ele>
        <time>2024-03-03T07:04:06Z</time>
      </trkpt>
      <trkpt lat="49.28342" lon="-0.10314">
        <ele>4</ele>
        <time>2024-03-03T07:04:07Z</time>
      </trkpt>
      <trkpt lat="49.28342" lon="-0.10314">
        <ele>4</ele>
        <time>2024-03-03T07:04:08Z</time>
      </trkpt>
      <trkpt lat="49.28342" lon="-0.10314">
        <ele>4</ele>
        <time>2024-03-03T07:04:09Z</time>
      </trkpt>
      <trkpt lat="49.28342" lon="-0.10314">
        <ele>4</ele>
        <time>2024-03-03T07:04:10Z</time>
      </trkpt>
      <trkpt lat="49.28342" lon="-0.10314">
        <ele>4</ele>
        <time>2024-03-03T07:04:11Z</time>
      </trkpt>
      <trkpt lat="49.28342" lon="-0.10314">
        <ele>4</ele>
        <time>2024-03-03T07:04:12Z</time>
      </trkpt>
      <trkpt lat="49.28342" lon="-0.10314">
        <ele>4</ele>
        <time>2024-03-03T07:04:13Z</time>
      </trkpt>
      <trkpt lat="49.28342" lon="-0.10314">
        <ele>4</ele>
        <time>2024-03-03T07:04:14Z</time>
      </trkpt>
      <trkpt lat="49.28342" lon="-0.10314">
        <ele>4</ele>
        <time>2024-03-03T07:04:15Z</time>
      </trkpt>
      <trkpt lat="49.28342" lon="-0.10314">
        <ele>4</ele>
        <time>2024-03-03T07:04:16Z</time>
      </trkpt>
      <trkpt lat="49.28342" lon="-0.10314">
        <ele>4</ele>
        <time>2024-03-03T07:04:17Z</time>
      </trkpt>
      <trkpt lat="49.28342" lon="-0.10314">
        <ele>4</ele>
        <time>2024-03-03T07:04:18Z</time>
      </trkpt>
      <trkpt lat="49.28342" lon="-0.10314">
        <ele>4</ele>
        <time>2024-03-03T07:04:19Z</time>
      </trkpt>
      <trkpt lat="49.28342" lon="-0.10314">
        <ele>4</ele>
        <time>2024-03-03T07:04:20Z</time>
      </trkpt>
      <trkpt lat="49.28342" lon="-0.10314">
        <ele>4</ele>
        <time>2024-03-03T07:04:21Z</time>
      </trkpt>
      <trkpt lat="49.28342" lon="-0.10314">
        <ele>4</ele>
        <time>2024-03-03T07:04:22Z</time>
      </trkpt>
      <trkpt lat="49.28342" lon="-0.10314">
        <ele>4</ele>
        <time>2024-03-03T07:04:23Z</time>
      </trkpt>
      <trkpt lat="49.28342" lon="-0.10312">
        <ele>4</ele>
        <time>2024-03-03T07:04:24Z</time>
      </trkpt>
      <trkpt lat="49.28342" lon="-0.1031">
        <ele>4</ele>
        <time>2024-03-03T07:04:25Z</time>
      </trkpt>
      <trkpt lat="49.28343" lon="-0.10305">
        <ele>4.1</ele>
        <time>2024-03-03T07:04:26Z</time>
      </trkpt>
      <trkpt lat="49.28344" lon="-0.10303">
        <ele>4.1</ele>
        <time>2024-03-03T07:04:27Z</time>
      </trkpt>
      <trkpt lat="49.28344" lon="-0.10299">
        <ele>4.1</ele>
        <time>2024-03-03T07:04:28Z</time>
      </trkpt>
      <trkpt lat="49.28344" lon="-0.10294">
        <ele>4.1</ele>
        <time>2024-03-03T07:04:29Z</time>
      </trkpt>
      <trkpt lat="49.28344" lon="-0.10289">
        <ele>4.1</ele>
        <time>2024-03-03T07:04:30Z</time>
      </trkpt>
      <trkpt lat="49.28344" lon="-0.10283">
        <ele>4.1</ele>
        <time>2024-03-03T07:04:31Z</time>
      </trkpt>
      <trkpt lat="49.28345" lon="-0.10278">
        <ele>4.1</ele>
        <time>2024-03-03T07:04:32Z</time>
      </trkpt>
      <trkpt lat="49.28344" lon="-0.10272">
        <ele>4.1</ele>
        <time>2024-03-03T07:04:33Z</time>
      </trkpt>
      <trkpt lat="49.28344" lon="-0.10266">
        <ele>4.1</ele>
        <time>2024-03-03T07:04:34Z</time>
      </trkpt>
      <trkpt lat="49.28343" lon="-0.10261">
        <ele>4.1</ele>
        <time>2024-03-03T07:04:35Z</time>
      </trkpt>
      <trkpt lat="49.28341" lon="-0.10257">
        <ele>4.1</ele>
        <time>2024-03-03T07:04:36Z</time>
      </trkpt>
      <trkpt lat="49.28337" lon="-0.10255">
        <ele>4.1</ele>
        <time>2024-03-03T07:04:37Z</time>
      </trkpt>
      <trkpt lat="49.28333" lon="-0.10253">
        <ele>4.1</ele>
        <time>2024-03-03T07:04:38Z</time>
      </trkpt>
      <trkpt lat="49.28329" lon="-0.10253">
        <ele>4.1</ele>
        <time>2024-03-03T07:04:39Z</time>
      </trkpt>
      <trkpt lat="49.28324" lon="-0.10253">
        <ele>4</ele>
        <time>2024-03-03T07:04:40Z</time>
      </trkpt>
      <trkpt lat="49.28319" lon="-0.10254">
        <ele>4</ele>
        <time>2024-03-03T07:04:41Z</time>
      </trkpt>
      <trkpt lat="49.28315" lon="-0.10256">
        <ele>4</ele>
        <time>2024-03-03T07:04:42Z</time>
      </trkpt>
      <trkpt lat="49.2831" lon="-0.10257">
        <ele>4</ele>
        <time>2024-03-03T07:04:43Z</time>
      </trkpt>
      <trkpt lat="49.28305" lon="-0.10258">
        <ele>4</ele>
        <time>2024-03-03T07:04:44Z</time>
      </trkpt>
      <trkpt lat="49.28301" lon="-0.10258">
        <ele>4</ele>
        <time>2024-03-03T07:04:45Z</time>
      </trkpt>
      <trkpt lat="49.28296" lon="-0.10256">
        <ele>4</ele>
        <time>2024-03-03T07:04:46Z</time>
      </trkpt>
      <trkpt lat="49.28291" lon="-0.10253">
        <ele>4</ele>
        <time>2024-03-03T07:04:47Z</time>
      </trkpt>
      <trkpt lat="49.28288" lon="-0.10247">
        <ele>4</ele>
        <time>2024-03-03T07:04:48Z</time>
      </trkpt>
      <trkpt lat="49.28285" lon="-0.1024">
        <ele>4</ele>
        <time>2024-03-03T07:04:49Z</time>
      </trkpt>
      <trkpt lat="49.28283" lon="-0.10232">
        <ele>4</ele>
        <time>2024-03-03T07:04:50Z</time>
      </trkpt>
      <trkpt lat="49.28281" lon="-0.10224">
        <ele>4.1</ele>
        <time>2024-03-03T07:04:51Z</time>
      </trkpt>
      <trkpt lat="49.2828" lon="-0.10216">
        <ele>4.1</ele>
        <time>2024-03-03T07:04:52Z</time>
      </trkpt>
      <trkpt lat="49.28278" lon="-0.10207">
        <ele>4.2</ele>
        <time>2024-03-03T07:04:53Z</time>
      </trkpt>
      <trkpt lat="49.28276" lon="-0.10199">
        <ele>4.2</ele>
        <time>2024-03-03T07:04:54Z</time>
      </trkpt>
      <trkpt lat="49.28273" lon="-0.10192">
        <ele>4.2</ele>
        <time>2024-03-03T07:04:55Z</time>
      </trkpt>
      <trkpt lat="49.2827" lon="-0.10186">
        <ele>4.1</ele>
        <time>2024-03-03T07:04:56Z</time>
      </trkpt>
      <trkpt lat="49.28267" lon="-0.10179">
        <ele>4.1</ele>
        <time>2024-03-03T07:04:57Z</time>
      </trkpt>
      <trkpt lat="49.28263" lon="-0.10172">
        <ele>4.1</ele>
        <time>2024-03-03T07:04:58Z</time>
      </trkpt>
      <trkpt lat="49.2826" lon="-0.10166">
        <ele>4</ele>
        <time>2024-03-03T07:04:59Z</time>
      </trkpt>
      <trkpt lat="49.28256" lon="-0.1016">
        <ele>4</ele>
        <time>2024-03-03T07:05:00Z</time>
      </trkpt>
      <trkpt lat="49.28253" lon="-0.10154">
        <ele>4</ele>
        <time>2024-03-03T07:05:01Z</time>
      </trkpt>
      <trkpt lat="49.28249" lon="-0.10147">
        <ele>4</ele>
        <time>2024-03-03T07:05:02Z</time>
      </trkpt>
      <trkpt lat="49.28246" lon="-0.1014">
        <ele>4</ele>
        <time>2024-03-03T07:05:03Z</time>
      </trkpt>
      <trkpt lat="49.28243" lon="-0.10133">
        <ele>4</ele>
        <time>2024-03-03T07:05:04Z</time>
      </trkpt>
      <trkpt lat="49.28239" lon="-0.10126">
        <ele>4</ele>
        <time>2024-03-03T07:05:05Z</time>
      </trkpt>
      <trkpt lat="49.28235" lon="-0.1012">
        <ele>4.1</ele>
        <time>2024-03-03T07:05:06Z</time>
      </trkpt>
      <trkpt lat="49.28231" lon="-0.10113">
        <ele>4.1</ele>
        <time>2024-03-03T07:05:07Z</time>
      </trkpt>
      <trkpt lat="49.28228" lon="-0.10106">
        <ele>4.1</ele>
        <time>2024-03-03T07:05:08Z</time>
      </trkpt>
      <trkpt lat="49.28224" lon="-0.10099">
        <ele>4.1</ele>
        <time>2024-03-03T07:05:09Z</time>
      </trkpt>
      <trkpt lat="49.28221" lon="-0.10091">
        <ele>4.1</ele>
        <time>2024-03-03T07:05:10Z</time>
      </trkpt>
      <trkpt lat="49.28218" lon="-0.10084">
        <ele>4.1</ele>
        <time>2024-03-03T07:05:11Z</time>
      </trkpt>
      <trkpt lat="49.28215" lon="-0.10077">
        <ele>4.2</ele>
        <time>2024-03-03T07:05:12Z</time>
      </trkpt>
      <trkpt lat="49.28211" lon="-0.1007">
        <ele>4.2</ele>
        <time>2024-03-03T07:05:13Z</time>
      </trkpt>
      <trkpt lat="49.28207" lon="-0.10064">
        <ele>4.2</ele>
        <time>2024-03-03T07:05:14Z</time>
      </trkpt>
      <trkpt lat="49.28204" lon="-0.10058">
        <ele>4.2</ele>
        <time>2024-03-03T07:05:15Z</time>
      </trkpt>
      <trkpt lat="49.28201" lon="-0.10051">
        <ele>4.2</ele>
        <time>2024-03-03T07:05:16Z</time>
      </trkpt>
      <trkpt lat="49.28197" lon="-0.10044">
        <ele>4.3</ele>
        <time>2024-03-03T07:05:17Z</time>
      </trkpt>
      <trkpt lat="49.28194" lon="-0.10037">
        <ele>4.3</ele>
        <time>2024-03-03T07:05:18Z</time>
      </trkpt>
      <trkpt lat="49.28191" lon="-0.1003">
        <ele>4.3</ele>
        <time>2024-03-03T07:05:19Z</time>
      </trkpt>
      <trkpt lat="49.28187" lon="-0.10024">
        <ele>4.3</ele>
        <time>2024-03-03T07:05:20Z</time>
      </trkpt>
      <trkpt lat="49.28183" lon="-0.10017">
        <ele>4.3</ele>
        <time>2024-03-03T07:05:21Z</time>
      </trkpt>
      <trkpt lat="49.2818" lon="-0.10011">
        <ele>4.4</ele>
        <time>2024-03-03T07:05:22Z</time>
      </trkpt>
      <trkpt lat="49.28177" lon="-0.10005">
        <ele>4.4</ele>
        <time>2024-03-03T07:05:23Z</time>
      </trkpt>
      <trkpt lat="49.28173" lon="-0.09999">
        <ele>4.4</ele>
        <time>2024-03-03T07:05:24Z</time>
      </trkpt>
      <trkpt lat="49.28169" lon="-0.09993">
        <ele>4.5</ele>
        <time>2024-03-03T07:05:25Z</time>
      </trkpt>
      <trkpt lat="49.28167" lon="-0.09989">
        <ele>4.5</ele>
        <time>2024-03-03T07:05:26Z</time>
      </trkpt>
      <trkpt lat="49.28164" lon="-0.09984">
        <ele>4.5</ele>
        <time>2024-03-03T07:05:27Z</time>
      </trkpt>
      <trkpt lat="49.2816" lon="-0.09979">
        <ele>4.5</ele>
        <time>2024-03-03T07:05:28Z</time>
      </trkpt>
      <trkpt lat="49.28156" lon="-0.09976">
        <ele>4.5</ele>
        <time>2024-03-03T07:05:29Z</time>
      </trkpt>
      <trkpt lat="49.28151" lon="-0.09975">
        <ele>4.5</ele>
        <time>2024-03-03T07:05:30Z</time>
      </trkpt>
      <trkpt lat="49.28146" lon="-0.09974">
        <ele>4.5</ele>
        <time>2024-03-03T07:05:31Z</time>
      </trkpt>
      <trkpt lat="49.28142" lon="-0.09969">
        <ele>4.5</ele>
        <time>2024-03-03T07:05:32Z</time>
      </trkpt>
      <trkpt lat="49.2814" lon="-0.0996">
        <ele>4.6</ele>
        <time>2024-03-03T07:05:33Z</time>
      </trkpt>
      <trkpt lat="49.2814" lon="-0.0995">
        <ele>4.6</ele>
        <time>2024-03-03T07:05:34Z</time>
      </trkpt>
      <trkpt lat="49.2814" lon="-0.09941">
        <ele>4.6</ele>
        <time>2024-03-03T07:05:35Z</time>
      </trkpt>
      <trkpt lat="49.28139" lon="-0.09932">
        <ele>4.7</ele>
        <time>2024-03-03T07:05:36Z</time>
      </trkpt>
      <trkpt lat="49.28137" lon="-0.09924">
        <ele>4.7</ele>
        <time>2024-03-03T07:05:37Z</time>
      </trkpt>
      <trkpt lat="49.28134" lon="-0.09918">
        <ele>4.7</ele>
        <time>2024-03-03T07:05:38Z</time>
      </trkpt>
      <trkpt lat="49.28131" lon="-0.09911">
        <ele>4.8</ele>
        <time>2024-03-03T07:05:39Z</time>
      </trkpt>
      <trkpt lat="49.28127" lon="-0.09904">
        <ele>4.8</ele>
        <time>2024-03-03T07:05:40Z</time>
      </trkpt>
      <trkpt lat="49.28124" lon="-0.09897">
        <ele>4.8</ele>
        <time>2024-03-03T07:05:41Z</time>
      </trkpt>
      <trkpt lat="49.2812" lon="-0.09889">
        <ele>4.9</ele>
        <time>2024-03-03T07:05:42Z</time>
      </trkpt>
      <trkpt lat="49.28117" lon="-0.09883">
        <ele>4.9</ele>
        <time>2024-03-03T07:05:43Z</time>
      </trkpt>
      <trkpt lat="49.28114" lon="-0.09876">
        <ele>4.9</ele>
        <time>2024-03-03T07:05:44Z</time>
      </trkpt>
      <trkpt lat="49.28111" lon="-0.0987">
        <ele>5</ele>
        <time>2024-03-03T07:05:45Z</time>
      </trkpt>
      <trkpt lat="49.28107" lon="-0.09863">
        <ele>5</ele>
        <time>2024-03-03T07:05:46Z</time>
      </trkpt>
      <trkpt lat="49.28104" lon="-0.09856">
        <ele>5.1</ele>
        <time>2024-03-03T07:05:47Z</time>
      </trkpt>
      <trkpt lat="49.28101" lon="-0.0985">
        <ele>5.1</ele>
        <time>2024-03-03T07:05:48Z</time>
      </trkpt>
      <trkpt lat="49.28097" lon="-0.09845">
        <ele>5.1</ele>
        <time>2024-03-03T07:05:49Z</time>
      </trkpt>
      <trkpt lat="49.28093" lon="-0.0984">
        <ele>5.2</ele>
        <time>2024-03-03T07:05:50Z</time>
      </trkpt>
      <trkpt lat="49.2809" lon="-0.09834">
        <ele>5.2</ele>
        <time>2024-03-03T07:05:51Z</time>
      </trkpt>
      <trkpt lat="49.28086" lon="-0.09828">
        <ele>5.3</ele>
        <time>2024-03-03T07:05:52Z</time>
      </trkpt>
      <trkpt lat="49.28083" lon="-0.09821">
        <ele>5.3</ele>
        <time>2024-03-03T07:05:53Z</time>
      </trkpt>
      <trkpt lat="49.28079" lon="-0.09814">
        <ele>5.4</ele>
        <time>2024-03-03T07:05:54Z</time>
      </trkpt>
      <trkpt lat="49.28076" lon="-0.09807">
        <ele>5.4</ele>
        <time>2024-03-03T07:05:55Z</time>
      </trkpt>
      <trkpt lat="49.28072" lon="-0.098">
        <ele>5.5</ele>
        <time>2024-03-03T07:05:56Z</time>
      </trkpt>
      <trkpt lat="49.28069" lon="-0.09795">
        <ele>5.5</ele>
        <time>2024-03-03T07:05:57Z</time>
      </trkpt>
      <trkpt lat="49.28065" lon="-0.0979">
        <ele>5.6</ele>
        <time>2024-03-03T07:05:58Z</time>
      </trkpt>
      <trkpt lat="49.28061" lon="-0.09787">
        <ele>5.6</ele>
        <time>2024-03-03T07:05:59Z</time>
      </trkpt>
      <trkpt lat="49.28057" lon="-0.09783">
        <ele>5.6</ele>
        <time>2024-03-03T07:06:00Z</time>
      </trkpt>
      <trkpt lat="49.28054" lon="-0.0978">
        <ele>5.7</ele>
        <time>2024-03-03T07:06:01Z</time>
      </trkpt>
      <trkpt lat="49.28051" lon="-0.09776">
        <ele>5.7</ele>
        <time>2024-03-03T07:06:02Z</time>
      </trkpt>
      <trkpt lat="49.2805" lon="-0.0977">
        <ele>5.8</ele>
        <time>2024-03-03T07:06:03Z</time>
      </trkpt>
      <trkpt lat="49.28049" lon="-0.09764">
        <ele>5.8</ele>
        <time>2024-03-03T07:06:04Z</time>
      </trkpt>
      <trkpt lat="49.28049" lon="-0.09757">
        <ele>5.8</ele>
        <time>2024-03-03T07:06:05Z</time>
      </trkpt>
      <trkpt lat="49.2805" lon="-0.0975">
        <ele>5.8</ele>
        <time>2024-03-03T07:06:06Z</time>
      </trkpt>
      <trkpt lat="49.28051" lon="-0.09742">
        <ele>5.8</ele>
        <time>2024-03-03T07:06:07Z</time>
      </trkpt>
      <trkpt lat="49.28052" lon="-0.09735">
        <ele>5.8</ele>
        <time>2024-03-03T07:06:08Z</time>
      </trkpt>
      <trkpt lat="49.28052" lon="-0.09728">
        <ele>5.8</ele>
        <time>2024-03-03T07:06:09Z</time>
      </trkpt>
      <trkpt lat="49.28053" lon="-0.09721">
        <ele>5.8</ele>
        <time>2024-03-03T07:06:10Z</time>
      </trkpt>
      <trkpt lat="49.28055" lon="-0.09714">
        <ele>5.8</ele>
        <time>2024-03-03T07:06:11Z</time>
      </trkpt>
      <trkpt lat="49.28056" lon="-0.09706">
        <ele>5.8</ele>
        <time>2024-03-03T07:06:12Z</time>
      </trkpt>
      <trkpt lat="49.28058" lon="-0.09698">
        <ele>5.7</ele>
        <time>2024-03-03T07:06:13Z</time>
      </trkpt>
      <trkpt lat="49.28059" lon="-0.09689">
        <ele>5.7</ele>
        <time>2024-03-03T07:06:14Z</time>
      </trkpt>
      <trkpt lat="49.28061" lon="-0.0968">
        <ele>5.6</ele>
        <time>2024-03-03T07:06:15Z</time>
      </trkpt>
      <trkpt lat="49.28063" lon="-0.0967">
        <ele>5.6</ele>
        <time>2024-03-03T07:06:16Z</time>
      </trkpt>
      <trkpt lat="49.28064" lon="-0.0966">
        <ele>5.5</ele>
        <time>2024-03-03T07:06:17Z</time>
      </trkpt>
      <trkpt lat="49.28066" lon="-0.09651">
        <ele>5.4</ele>
        <time>2024-03-03T07:06:18Z</time>
      </trkpt>
      <trkpt lat="49.28068" lon="-0.09642">
        <ele>5.4</ele>
        <time>2024-03-03T07:06:19Z</time>
      </trkpt>
      <trkpt lat="49.2807" lon="-0.09634">
        <ele>5.3</ele>
        <time>2024-03-03T07:06:20Z</time>
      </trkpt>
      <trkpt lat="49.28072" lon="-0.09626">
        <ele>5.3</ele>
        <time>2024-03-03T07:06:21Z</time>
      </trkpt>
      <trkpt lat="49.28074" lon="-0.09618">
        <ele>5.2</ele>
        <time>2024-03-03T07:06:22Z</time>
      </trkpt>
      <trkpt lat="49.28076" lon="-0.0961">
        <ele>5.2</ele>
        <time>2024-03-03T07:06:23Z</time>
      </trkpt>
      <trkpt lat="49.28078" lon="-0.09603">
        <ele>5.2</ele>
        <time>2024-03-03T07:06:24Z</time>
      </trkpt>
      <trkpt lat="49.28079" lon="-0.09596">
        <ele>5.2</ele>
        <time>2024-03-03T07:06:25Z</time>
      </trkpt>
      <trkpt lat="49.28079" lon="-0.09589">
        <ele>5.1</ele>
        <time>2024-03-03T07:06:26Z</time>
      </trkpt>
      <trkpt lat="49.28077" lon="-0.09583">
        <ele>5.1</ele>
        <time>2024-03-03T07:06:27Z</time>
      </trkpt>
      <trkpt lat="49.28072" lon="-0.09578">
        <ele>5.1</ele>
        <time>2024-03-03T07:06:28Z</time>
      </trkpt>
      <trkpt lat="49.28067" lon="-0.09575">
        <ele>5.1</ele>
        <time>2024-03-03T07:06:29Z</time>
      </trkpt>
      <trkpt lat="49.28061" lon="-0.09573">
        <ele>5.1</ele>
        <time>2024-03-03T07:06:30Z</time>
      </trkpt>
      <trkpt lat="49.28056" lon="-0.09571">
        <ele>5.1</ele>
        <time>2024-03-03T07:06:31Z</time>
      </trkpt>
      <trkpt lat="49.28051" lon="-0.09568">
        <ele>5.1</ele>
        <time>2024-03-03T07:06:32Z</time>
      </trkpt>
      <trkpt lat="49.28045" lon="-0.09566">
        <ele>5.1</ele>
        <time>2024-03-03T07:06:33Z</time>
      </trkpt>
      <trkpt lat="49.28038" lon="-0.09563">
        <ele>5.1</ele>
        <time>2024-03-03T07:06:34Z</time>
      </trkpt>
      <trkpt lat="49.28032" lon="-0.09561">
        <ele>5.1</ele>
        <time>2024-03-03T07:06:35Z</time>
      </trkpt>
      <trkpt lat="49.28027" lon="-0.09559">
        <ele>5.1</ele>
        <time>2024-03-03T07:06:36Z</time>
      </trkpt>
      <trkpt lat="49.28021" lon="-0.09557">
        <ele>5.1</ele>
        <time>2024-03-03T07:06:37Z</time>
      </trkpt>
      <trkpt lat="49.28015" lon="-0.09556">
        <ele>5.1</ele>
        <time>2024-03-03T07:06:38Z</time>
      </trkpt>
      <trkpt lat="49.2801" lon="-0.09554">
        <ele>5.1</ele>
        <time>2024-03-03T07:06:39Z</time>
      </trkpt>
      <trkpt lat="49.28005" lon="-0.09552">
        <ele>5.1</ele>
        <time>2024-03-03T07:06:40Z</time>
      </trkpt>
      <trkpt lat="49.27999" lon="-0.0955">
        <ele>5.1</ele>
        <time>2024-03-03T07:06:41Z</time>
      </trkpt>
      <trkpt lat="49.27994" lon="-0.09548">
        <ele>5.1</ele>
        <time>2024-03-03T07:06:42Z</time>
      </trkpt>
      <trkpt lat="49.27988" lon="-0.09547">
        <ele>5.1</ele>
        <time>2024-03-03T07:06:43Z</time>
      </trkpt>
      <trkpt lat="49.27982" lon="-0.09547">
        <ele>5.1</ele>
        <time>2024-03-03T07:06:44Z</time>
      </trkpt>
      <trkpt lat="49.27976" lon="-0.09546">
        <ele>5.1</ele>
        <time>2024-03-03T07:06:45Z</time>
      </trkpt>
      <trkpt lat="49.27971" lon="-0.09546">
        <ele>5.1</ele>
        <time>2024-03-03T07:06:46Z</time>
      </trkpt>
      <trkpt lat="49.27965" lon="-0.09547">
        <ele>5.2</ele>
        <time>2024-03-03T07:06:47Z</time>
      </trkpt>
      <trkpt lat="49.27959" lon="-0.09547">
        <ele>5.2</ele>
        <time>2024-03-03T07:06:48Z</time>
      </trkpt>
      <trkpt lat="49.27953" lon="-0.09547">
        <ele>5.2</ele>
        <time>2024-03-03T07:06:49Z</time>
      </trkpt>
      <trkpt lat="49.27948" lon="-0.09547">
        <ele>5.2</ele>
        <time>2024-03-03T07:06:50Z</time>
      </trkpt>
      <trkpt lat="49.27942" lon="-0.09547">
        <ele>5.2</ele>
        <time>2024-03-03T07:06:51Z</time>
      </trkpt>
      <trkpt lat="49.27936" lon="-0.09545">
        <ele>5.2</ele>
        <time>2024-03-03T07:06:52Z</time>
      </trkpt>
      <trkpt lat="49.2793" lon="-0.09542">
        <ele>5.2</ele>
        <time>2024-03-03T07:06:53Z</time>
      </trkpt>
      <trkpt lat="49.27924" lon="-0.0954">
        <ele>5.2</ele>
        <time>2024-03-03T07:06:54Z</time>
      </trkpt>
      <trkpt lat="49.27918" lon="-0.09539">
        <ele>5.2</ele>
        <time>2024-03-03T07:06:55Z</time>
      </trkpt>
      <trkpt lat="49.27912" lon="-0.09538">
        <ele>5.2</ele>
        <time>2024-03-03T07:06:56Z</time>
      </trkpt>
      <trkpt lat="49.27905" lon="-0.09536">
        <ele>5.2</ele>
        <time>2024-03-03T07:06:57Z</time>
      </trkpt>
      <trkpt lat="49.27898" lon="-0.09535">
        <ele>5.2</ele>
        <time>2024-03-03T07:06:58Z</time>
      </trkpt>
      <trkpt lat="49.27892" lon="-0.09534">
        <ele>5.2</ele>
        <time>2024-03-03T07:06:59Z</time>
      </trkpt>
      <trkpt lat="49.27885" lon="-0.09533">
        <ele>5.2</ele>
        <time>2024-03-03T07:07:00Z</time>
      </trkpt>
      <trkpt lat="49.27879" lon="-0.09533">
        <ele>5.2</ele>
        <time>2024-03-03T07:07:01Z</time>
      </trkpt>
      <trkpt lat="49.27872" lon="-0.09532">
        <ele>5.2</ele>
        <time>2024-03-03T07:07:02Z</time>
      </trkpt>
      <trkpt lat="49.27866" lon="-0.09532">
        <ele>5.1</ele>
        <time>2024-03-03T07:07:03Z</time>
      </trkpt>
      <trkpt lat="49.27859" lon="-0.09533">
        <ele>5.1</ele>
        <time>2024-03-03T07:07:04Z</time>
      </trkpt>
      <trkpt lat="49.27853" lon="-0.09533">
        <ele>5.1</ele>
        <time>2024-03-03T07:07:05Z</time>
      </trkpt>
      <trkpt lat="49.27847" lon="-0.09533">
        <ele>5.1</ele>
        <time>2024-03-03T07:07:06Z</time>
      </trkpt>
      <trkpt lat="49.27841" lon="-0.09533">
        <ele>5.1</ele>
        <time>2024-03-03T07:07:07Z</time>
      </trkpt>
      <trkpt lat="49.27835" lon="-0.09534">
        <ele>5.1</ele>
        <time>2024-03-03T07:07:08Z</time>
      </trkpt>
      <trkpt lat="49.27829" lon="-0.09536">
        <ele>5.1</ele>
        <time>2024-03-03T07:07:09Z</time>
      </trkpt>
      <trkpt lat="49.27823" lon="-0.09538">
        <ele>5.1</ele>
        <time>2024-03-03T07:07:10Z</time>
      </trkpt>
      <trkpt lat="49.27817" lon="-0.09539">
        <ele>5.1</ele>
        <time>2024-03-03T07:07:11Z</time>
      </trkpt>
      <trkpt lat="49.27811" lon="-0.09539">
        <ele>5.1</ele>
        <time>2024-03-03T07:07:12Z</time>
      </trkpt>
      <trkpt lat="49.27806" lon="-0.0954">
        <ele>5.1</ele>
        <time>2024-03-03T07:07:13Z</time>
      </trkpt>
      <trkpt lat="49.278" lon="-0.09541">
        <ele>5.1</ele>
        <time>2024-03-03T07:07:14Z</time>
      </trkpt>
      <trkpt lat="49.27795" lon="-0.09541">
        <ele>5.1</ele>
        <time>2024-03-03T07:07:15Z</time>
      </trkpt>
      <trkpt lat="49.2779" lon="-0.09542">
        <ele>5.1</ele>
        <time>2024-03-03T07:07:16Z</time>
      </trkpt>
      <trkpt lat="49.27785" lon="-0.09542">
        <ele>5.1</ele>
        <time>2024-03-03T07:07:17Z</time>
      </trkpt>
      <trkpt lat="49.27779" lon="-0.09543">
        <ele>5.1</ele>
        <time>2024-03-03T07:07:18Z</time>
      </trkpt>
      <trkpt lat="49.27773" lon="-0.09544">
        <ele>5.1</ele>
        <time>2024-03-03T07:07:19Z</time>
      </trkpt>
      <trkpt lat="49.27767" lon="-0.09544">
        <ele>5.1</ele>
        <time>2024-03-03T07:07:20Z</time>
      </trkpt>
      <trkpt lat="49.2776" lon="-0.09544">
        <ele>5.1</ele>
        <time>2024-03-03T07:07:21Z</time>
      </trkpt>
      <trkpt lat="49.27754" lon="-0.09543">
        <ele>5.1</ele>
        <time>2024-03-03T07:07:22Z</time>
      </trkpt>
      <trkpt lat="49.27748" lon="-0.09543">
        <ele>5.1</ele>
        <time>2024-03-03T07:07:23Z</time>
      </trkpt>
      <trkpt lat="49.27741" lon="-0.09544">
        <ele>5.1</ele>
        <time>2024-03-03T07:07:24Z</time>
      </trkpt>
      <trkpt lat="49.27734" lon="-0.09545">
        <ele>5.1</ele>
        <time>2024-03-03T07:07:25Z</time>
      </trkpt>
      <trkpt lat="49.27728" lon="-0.09546">
        <ele>5.1</ele>
        <time>2024-03-03T07:07:26Z</time>
      </trkpt>
      <trkpt lat="49.27722" lon="-0.09547">
        <ele>5.1</ele>
        <time>2024-03-03T07:07:27Z</time>
      </trkpt>
      <trkpt lat="49.27716" lon="-0.09548">
        <ele>5.1</ele>
        <time>2024-03-03T07:07:28Z</time>
      </trkpt>
      <trkpt lat="49.2771" lon="-0.09549">
        <ele>5.1</ele>
        <time>2024-03-03T07:07:29Z</time>
      </trkpt>
      <trkpt lat="49.27704" lon="-0.0955">
        <ele>5.1</ele>
        <time>2024-03-03T07:07:30Z</time>
      </trkpt>
      <trkpt lat="49.27697" lon="-0.09551">
        <ele>5.1</ele>
        <time>2024-03-03T07:07:31Z</time>
      </trkpt>
      <trkpt lat="49.27691" lon="-0.09551">
        <ele>5.1</ele>
        <time>2024-03-03T07:07:32Z</time>
      </trkpt>
      <trkpt lat="49.27685" lon="-0.09551">
        <ele>5.1</ele>
        <time>2024-03-03T07:07:33Z</time>
      </trkpt>
      <trkpt lat="49.27679" lon="-0.09551">
        <ele>5.1</ele>
        <time>2024-03-03T07:07:34Z</time>
      </trkpt>
      <trkpt lat="49.27673" lon="-0.0955">
        <ele>5.1</ele>
        <time>2024-03-03T07:07:35Z</time>
      </trkpt>
      <trkpt lat="49.27667" lon="-0.0955">
        <ele>5.1</ele>
        <time>2024-03-03T07:07:36Z</time>
      </trkpt>
      <trkpt lat="49.27661" lon="-0.09549">
        <ele>5.1</ele>
        <time>2024-03-03T07:07:37Z</time>
      </trkpt>
      <trkpt lat="49.27654" lon="-0.09549">
        <ele>5.1</ele>
        <time>2024-03-03T07:07:38Z</time>
      </trkpt>
      <trkpt lat="49.27647" lon="-0.09549">
        <ele>5.1</ele>
        <time>2024-03-03T07:07:39Z</time>
      </trkpt>
      <trkpt lat="49.27641" lon="-0.0955">
        <ele>5</ele>
        <time>2024-03-03T07:07:40Z</time>
      </trkpt>
      <trkpt lat="49.27635" lon="-0.09551">
        <ele>5</ele>
        <time>2024-03-03T07:07:41Z</time>
      </trkpt>
      <trkpt lat="49.27629" lon="-0.09551">
        <ele>5</ele>
        <time>2024-03-03T07:07:42Z</time>
      </trkpt>
      <trkpt lat="49.27623" lon="-0.09553">
        <ele>4.9</ele>
        <time>2024-03-03T07:07:43Z</time>
      </trkpt>
      <trkpt lat="49.27618" lon="-0.09554">
        <ele>4.9</ele>
        <time>2024-03-03T07:07:44Z</time>
      </trkpt>
      <trkpt lat="49.27613" lon="-0.09555">
        <ele>4.9</ele>
        <time>2024-03-03T07:07:45Z</time>
      </trkpt>
      <trkpt lat="49.27607" lon="-0.09555">
        <ele>4.9</ele>
        <time>2024-03-03T07:07:46Z</time>
      </trkpt>
      <trkpt lat="49.27602" lon="-0.09555">
        <ele>5</ele>
        <time>2024-03-03T07:07:47Z</time>
      </trkpt>
      <trkpt lat="49.27597" lon="-0.09556">
        <ele>5</ele>
        <time>2024-03-03T07:07:48Z</time>
      </trkpt>
      <trkpt lat="49.27592" lon="-0.09558">
        <ele>5.1</ele>
        <time>2024-03-03T07:07:49Z</time>
      </trkpt>
      <trkpt lat="49.27587" lon="-0.09559">
        <ele>5.1</ele>
        <time>2024-03-03T07:07:50Z</time>
      </trkpt>
      <trkpt lat="49.27583" lon="-0.09559">
        <ele>5.2</ele>
        <time>2024-03-03T07:07:51Z</time>
      </trkpt>
      <trkpt lat="49.27579" lon="-0.0956">
        <ele>5.2</ele>
        <time>2024-03-03T07:07:52Z</time>
      </trkpt>
      <trkpt lat="49.27575" lon="-0.09561">
        <ele>5.2</ele>
        <time>2024-03-03T07:07:53Z</time>
      </trkpt>
      <trkpt lat="49.27572" lon="-0.09563">
        <ele>5.2</ele>
        <time>2024-03-03T07:07:54Z</time>
      </trkpt>
      <trkpt lat="49.2757" lon="-0.09564">
        <ele>5.2</ele>
        <time>2024-03-03T07:07:55Z</time>
      </trkpt>
      <trkpt lat="49.27567" lon="-0.09566">
        <ele>5.2</ele>
        <time>2024-03-03T07:07:56Z</time>
      </trkpt>
      <trkpt lat="49.27564" lon="-0.09567">
        <ele>5.2</ele>
        <time>2024-03-03T07:07:57Z</time>
      </trkpt>
      <trkpt lat="49.27561" lon="-0.09567">
        <ele>5.2</ele>
        <time>2024-03-03T07:07:58Z</time>
      </trkpt>
      <trkpt lat="49.27557" lon="-0.09567">
        <ele>5.2</ele>
        <time>2024-03-03T07:07:59Z</time>
      </trkpt>
      <trkpt lat="49.27553" lon="-0.09567">
        <ele>5.2</ele>
        <time>2024-03-03T07:08:00Z</time>
      </trkpt>
      <trkpt lat="49.27548" lon="-0.09568">
        <ele>5.1</ele>
        <time>2024-03-03T07:08:01Z</time>
      </trkpt>
      <trkpt lat="49.27543" lon="-0.09569">
        <ele>5.1</ele>
        <time>2024-03-03T07:08:02Z</time>
      </trkpt>
      <trkpt lat="49.27538" lon="-0.09572">
        <ele>5.1</ele>
        <time>2024-03-03T07:08:03Z</time>
      </trkpt>
      <trkpt lat="49.27533" lon="-0.09575">
        <ele>5.1</ele>
        <time>2024-03-03T07:08:04Z</time>
      </trkpt>
      <trkpt lat="49.27529" lon="-0.09577">
        <ele>5.1</ele>
        <time>2024-03-03T07:08:05Z</time>
      </trkpt>
      <trkpt lat="49.27524" lon="-0.09578">
        <ele>5.1</ele>
        <time>2024-03-03T07:08:06Z</time>
      </trkpt>
      <trkpt lat="49.27519" lon="-0.09579">
        <ele>5.1</ele>
        <time>2024-03-03T07:08:07Z</time>
      </trkpt>
      <trkpt lat="49.27514" lon="-0.09581">
        <ele>5.1</ele>
        <time>2024-03-03T07:08:08Z</time>
      </trkpt>
      <trkpt lat="49.27509" lon="-0.09582">
        <ele>5.2</ele>
        <time>2024-03-03T07:08:09Z</time>
      </trkpt>
      <trkpt lat="49.27504" lon="-0.09583">
        <ele>5.2</ele>
        <time>2024-03-03T07:08:10Z</time>
      </trkpt>
      <trkpt lat="49.27499" lon="-0.09584">
        <ele>5.2</ele>
        <time>2024-03-03T07:08:11Z</time>
      </trkpt>
      <trkpt lat="49.27494" lon="-0.09584">
        <ele>5.2</ele>
        <time>2024-03-03T07:08:12Z</time>
      </trkpt>
      <trkpt lat="49.27489" lon="-0.09585">
        <ele>5.2</ele>
        <time>2024-03-03T07:08:13Z</time>
      </trkpt>
      <trkpt lat="49.27484" lon="-0.09586">
        <ele>5.3</ele>
        <time>2024-03-03T07:08:14Z</time>
      </trkpt>
      <trkpt lat="49.27478" lon="-0.09586">
        <ele>5.3</ele>
        <time>2024-03-03T07:08:15Z</time>
      </trkpt>
      <trkpt lat="49.27473" lon="-0.09587">
        <ele>5.4</ele>
        <time>2024-03-03T07:08:16Z</time>
      </trkpt>
      <trkpt lat="49.27468" lon="-0.09588">
        <ele>5.4</ele>
        <time>2024-03-03T07:08:17Z</time>
      </trkpt>
      <trkpt lat="49.27462" lon="-0.09589">
        <ele>5.5</ele>
        <time>2024-03-03T07:08:18Z</time>
      </trkpt>
      <trkpt lat="49.27456" lon="-0.0959">
        <ele>5.6</ele>
        <time>2024-03-03T07:08:19Z</time>
      </trkpt>
      <trkpt lat="49.2745" lon="-0.09591">
        <ele>5.6</ele>
        <time>2024-03-03T07:08:20Z</time>
      </trkpt>
      <trkpt lat="49.27445" lon="-0.09592">
        <ele>5.6</ele>
        <time>2024-03-03T07:08:21Z</time>
      </trkpt>
      <trkpt lat="49.2744" lon="-0.09592">
        <ele>5.7</ele>
        <time>2024-03-03T07:08:22Z</time>
      </trkpt>
      <trkpt lat="49.27435" lon="-0.09592">
        <ele>5.7</ele>
        <time>2024-03-03T07:08:23Z</time>
      </trkpt>
      <trkpt lat="49.2743" lon="-0.09591">
        <ele>5.8</ele>
        <time>2024-03-03T07:08:24Z</time>
      </trkpt>
      <trkpt lat="49.27425" lon="-0.09592">
        <ele>5.8</ele>
        <time>2024-03-03T07:08:25Z</time>
      </trkpt>
      <trkpt lat="49.2742" lon="-0.09592">
        <ele>5.9</ele>
        <time>2024-03-03T07:08:26Z</time>
      </trkpt>
      <trkpt lat="49.27415" lon="-0.09592">
        <ele>6</ele>
        <time>2024-03-03T07:08:27Z</time>
      </trkpt>
      <trkpt lat="49.2741" lon="-0.09592">
        <ele>6.1</ele>
        <time>2024-03-03T07:08:28Z</time>
      </trkpt>
      <trkpt lat="49.27405" lon="-0.0959">
        <ele>6.3</ele>
        <time>2024-03-03T07:08:29Z</time>
      </trkpt>
      <trkpt lat="49.274" lon="-0.09589">
        <ele>6.4</ele>
        <time>2024-03-03T07:08:30Z</time>
      </trkpt>
      <trkpt lat="49.27395" lon="-0.09587">
        <ele>6.6</ele>
        <time>2024-03-03T07:08:31Z</time>
      </trkpt>
      <trkpt lat="49.2739" lon="-0.09584">
        <ele>6.7</ele>
        <time>2024-03-03T07:08:32Z</time>
      </trkpt>
      <trkpt lat="49.27385" lon="-0.09582">
        <ele>6.9</ele>
        <time>2024-03-03T07:08:33Z</time>
      </trkpt>
      <trkpt lat="49.27381" lon="-0.0958">
        <ele>7</ele>
        <time>2024-03-03T07:08:34Z</time>
      </trkpt>
      <trkpt lat="49.27376" lon="-0.09578">
        <ele>7.2</ele>
        <time>2024-03-03T07:08:35Z</time>
      </trkpt>
      <trkpt lat="49.27372" lon="-0.09575">
        <ele>7.3</ele>
        <time>2024-03-03T07:08:36Z</time>
      </trkpt>
      <trkpt lat="49.27367" lon="-0.09574">
        <ele>7.5</ele>
        <time>2024-03-03T07:08:37Z</time>
      </trkpt>
      <trkpt lat="49.27362" lon="-0.09571">
        <ele>7.7</ele>
        <time>2024-03-03T07:08:38Z</time>
      </trkpt>
      <trkpt lat="49.27358" lon="-0.0957">
        <ele>7.8</ele>
        <time>2024-03-03T07:08:39Z</time>
      </trkpt>
      <trkpt lat="49.27353" lon="-0.09568">
        <ele>8</ele>
        <time>2024-03-03T07:08:40Z</time>
      </trkpt>
      <trkpt lat="49.27348" lon="-0.09567">
        <ele>8.1</ele>
        <time>2024-03-03T07:08:41Z</time>
      </trkpt>
      <trkpt lat="49.27344" lon="-0.09566">
        <ele>8.3</ele>
        <time>2024-03-03T07:08:42Z</time>
      </trkpt>
      <trkpt lat="49.27339" lon="-0.09565">
        <ele>8.5</ele>
        <time>2024-03-03T07:08:43Z</time>
      </trkpt>
      <trkpt lat="49.27334" lon="-0.09564">
        <ele>8.6</ele>
        <time>2024-03-03T07:08:44Z</time>
      </trkpt>
      <trkpt lat="49.2733" lon="-0.09562">
        <ele>8.8</ele>
        <time>2024-03-03T07:08:45Z</time>
      </trkpt>
      <trkpt lat="49.27325" lon="-0.09561">
        <ele>9</ele>
        <time>2024-03-03T07:08:46Z</time>
      </trkpt>
      <trkpt lat="49.2732" lon="-0.09561">
        <ele>9.2</ele>
        <time>2024-03-03T07:08:47Z</time>
      </trkpt>
      <trkpt lat="49.27315" lon="-0.09559">
        <ele>9.4</ele>
        <time>2024-03-03T07:08:48Z</time>
      </trkpt>
      <trkpt lat="49.2731" lon="-0.09558">
        <ele>9.6</ele>
        <time>2024-03-03T07:08:49Z</time>
      </trkpt>
      <trkpt lat="49.27305" lon="-0.09557">
        <ele>9.8</ele>
        <time>2024-03-03T07:08:50Z</time>
      </trkpt>
      <trkpt lat="49.273" lon="-0.09556">
        <ele>9.9</ele>
        <time>2024-03-03T07:08:51Z</time>
      </trkpt>
      <trkpt lat="49.27296" lon="-0.09555">
        <ele>10.1</ele>
        <time>2024-03-03T07:08:52Z</time>
      </trkpt>
      <trkpt lat="49.27291" lon="-0.09555">
        <ele>10.3</ele>
        <time>2024-03-03T07:08:53Z</time>
      </trkpt>
      <trkpt lat="49.27287" lon="-0.09554">
        <ele>10.5</ele>
        <time>2024-03-03T07:08:54Z</time>
      </trkpt>
      <trkpt lat="49.27281" lon="-0.09553">
        <ele>10.7</ele>
        <time>2024-03-03T07:08:55Z</time>
      </trkpt>
      <trkpt lat="49.27276" lon="-0.09552">
        <ele>10.9</ele>
        <time>2024-03-03T07:08:56Z</time>
      </trkpt>
      <trkpt lat="49.27271" lon="-0.09551">
        <ele>11.1</ele>
        <time>2024-03-03T07:08:57Z</time>
      </trkpt>
      <trkpt lat="49.27266" lon="-0.09551">
        <ele>11.3</ele>
        <time>2024-03-03T07:08:58Z</time>
      </trkpt>
      <trkpt lat="49.27261" lon="-0.0955">
        <ele>11.6</ele>
        <time>2024-03-03T07:08:59Z</time>
      </trkpt>
      <trkpt lat="49.27257" lon="-0.09549">
        <ele>11.8</ele>
        <time>2024-03-03T07:09:00Z</time>
      </trkpt>
      <trkpt lat="49.27252" lon="-0.09548">
        <ele>12</ele>
        <time>2024-03-03T07:09:01Z</time>
      </trkpt>
      <trkpt lat="49.27248" lon="-0.09547">
        <ele>12.2</ele>
        <time>2024-03-03T07:09:02Z</time>
      </trkpt>
      <trkpt lat="49.27243" lon="-0.09546">
        <ele>12.4</ele>
        <time>2024-03-03T07:09:03Z</time>
      </trkpt>
      <trkpt lat="49.27238" lon="-0.09545">
        <ele>12.6</ele>
        <time>2024-03-03T07:09:04Z</time>
      </trkpt>
      <trkpt lat="49.27234" lon="-0.09543">
        <ele>12.9</ele>
        <time>2024-03-03T07:09:05Z</time>
      </trkpt>
      <trkpt lat="49.27229" lon="-0.09542">
        <ele>13.1</ele>
        <time>2024-03-03T07:09:06Z</time>
      </trkpt>
      <trkpt lat="49.27224" lon="-0.09541">
        <ele>13.4</ele>
        <time>2024-03-03T07:09:07Z</time>
      </trkpt>
      <trkpt lat="49.2722" lon="-0.0954">
        <ele>13.6</ele>
        <time>2024-03-03T07:09:08Z</time>
      </trkpt>
      <trkpt lat="49.27215" lon="-0.09539">
        <ele>13.8</ele>
        <time>2024-03-03T07:09:09Z</time>
      </trkpt>
      <trkpt lat="49.27211" lon="-0.09539">
        <ele>14.1</ele>
        <time>2024-03-03T07:09:10Z</time>
      </trkpt>
      <trkpt lat="49.27207" lon="-0.09538">
        <ele>14.3</ele>
        <time>2024-03-03T07:09:11Z</time>
      </trkpt>
      <trkpt lat="49.27202" lon="-0.09537">
        <ele>14.6</ele>
        <time>2024-03-03T07:09:12Z</time>
      </trkpt>
      <trkpt lat="49.27198" lon="-0.09536">
        <ele>14.8</ele>
        <time>2024-03-03T07:09:13Z</time>
      </trkpt>
      <trkpt lat="49.27194" lon="-0.09535">
        <ele>15.1</ele>
        <time>2024-03-03T07:09:14Z</time>
      </trkpt>
      <trkpt lat="49.2719" lon="-0.09533">
        <ele>15.3</ele>
        <time>2024-03-03T07:09:15Z</time>
      </trkpt>
      <trkpt lat="49.27186" lon="-0.09532">
        <ele>15.5</ele>
        <time>2024-03-03T07:09:16Z</time>
      </trkpt>
      <trkpt lat="49.27182" lon="-0.0953">
        <ele>15.8</ele>
        <time>2024-03-03T07:09:17Z</time>
      </trkpt>
      <trkpt lat="49.27178" lon="-0.09528">
        <ele>16</ele>
        <time>2024-03-03T07:09:18Z</time>
      </trkpt>
      <trkpt lat="49.27175" lon="-0.09526">
        <ele>16.2</ele>
        <time>2024-03-03T07:09:19Z</time>
      </trkpt>
      <trkpt lat="49.27171" lon="-0.09524">
        <ele>16.4</ele>
        <time>2024-03-03T07:09:20Z</time>
      </trkpt>
      <trkpt lat="49.27167" lon="-0.09521">
        <ele>16.7</ele>
        <time>2024-03-03T07:09:21Z</time>
      </trkpt>
      <trkpt lat="49.27164" lon="-0.09519">
        <ele>17</ele>
        <time>2024-03-03T07:09:22Z</time>
      </trkpt>
      <trkpt lat="49.2716" lon="-0.09516">
        <ele>17.2</ele>
        <time>2024-03-03T07:09:23Z</time>
      </trkpt>
      <trkpt lat="49.27158" lon="-0.09516">
        <ele>17.3</ele>
        <time>2024-03-03T07:09:24Z</time>
      </trkpt>
      <trkpt lat="49.27156" lon="-0.09513">
        <ele>17.5</ele>
        <time>2024-03-03T07:09:25Z</time>
      </trkpt>
      <trkpt lat="49.27153" lon="-0.09511">
        <ele>17.7</ele>
        <time>2024-03-03T07:09:26Z</time>
      </trkpt>
      <trkpt lat="49.2715" lon="-0.09509">
        <ele>17.9</ele>
        <time>2024-03-03T07:09:27Z</time>
      </trkpt>
      <trkpt lat="49.27147" lon="-0.09507">
        <ele>18.1</ele>
        <time>2024-03-03T07:09:28Z</time>
      </trkpt>
      <trkpt lat="49.27143" lon="-0.09504">
        <ele>18.3</ele>
        <time>2024-03-03T07:09:29Z</time>
      </trkpt>
      <trkpt lat="49.2714" lon="-0.09502">
        <ele>18.5</ele>
        <time>2024-03-03T07:09:30Z</time>
      </trkpt>
      <trkpt lat="49.27136" lon="-0.095">
        <ele>18.7</ele>
        <time>2024-03-03T07:09:31Z</time>
      </trkpt>
      <trkpt lat="49.27132" lon="-0.09497">
        <ele>18.9</ele>
        <time>2024-03-03T07:09:32Z</time>
      </trkpt>
      <trkpt lat="49.27127" lon="-0.09494">
        <ele>19.2</ele>
        <time>2024-03-03T07:09:33Z</time>
      </trkpt>
      <trkpt lat="49.27122" lon="-0.09492">
        <ele>19.5</ele>
        <time>2024-03-03T07:09:34Z</time>
      </trkpt>
      <trkpt lat="49.27117" lon="-0.09491">
        <ele>19.7</ele>
        <time>2024-03-03T07:09:35Z</time>
      </trkpt>
      <trkpt lat="49.27113" lon="-0.09489">
        <ele>19.9</ele>
        <time>2024-03-03T07:09:36Z</time>
      </trkpt>
      <trkpt lat="49.27109" lon="-0.09487">
        <ele>20.1</ele>
        <time>2024-03-03T07:09:37Z</time>
      </trkpt>
      <trkpt lat="49.27104" lon="-0.09486">
        <ele>20.3</ele>
        <time>2024-03-03T07:09:38Z</time>
      </trkpt>
      <trkpt lat="49.27099" lon="-0.09483">
        <ele>20.5</ele>
        <time>2024-03-03T07:09:39Z</time>
      </trkpt>
      <trkpt lat="49.27095" lon="-0.09479">
        <ele>20.7</ele>
        <time>2024-03-03T07:09:40Z</time>
      </trkpt>
      <trkpt lat="49.2709" lon="-0.09476">
        <ele>20.9</ele>
        <time>2024-03-03T07:09:41Z</time>
      </trkpt>
      <trkpt lat="49.27086" lon="-0.09473">
        <ele>21.1</ele>
        <time>2024-03-03T07:09:42Z</time>
      </trkpt>
      <trkpt lat="49.27081" lon="-0.09469">
        <ele>21.2</ele>
        <time>2024-03-03T07:09:43Z</time>
      </trkpt>
      <trkpt lat="49.27078" lon="-0.09464">
        <ele>21.4</ele>
        <time>2024-03-03T07:09:44Z</time>
      </trkpt>
      <trkpt lat="49.27074" lon="-0.09459">
        <ele>21.5</ele>
        <time>2024-03-03T07:09:45Z</time>
      </trkpt>
      <trkpt lat="49.2707" lon="-0.09455">
        <ele>21.6</ele>
        <time>2024-03-03T07:09:46Z</time>
      </trkpt>
      <trkpt lat="49.27066" lon="-0.09451">
        <ele>21.8</ele>
        <time>2024-03-03T07:09:47Z</time>
      </trkpt>
      <trkpt lat="49.27062" lon="-0.09447">
        <ele>21.9</ele>
        <time>2024-03-03T07:09:48Z</time>
      </trkpt>
      <trkpt lat="49.27058" lon="-0.09443">
        <ele>22</ele>
        <time>2024-03-03T07:09:49Z</time>
      </trkpt>
      <trkpt lat="49.27054" lon="-0.0944">
        <ele>22.1</ele>
        <time>2024-03-03T07:09:50Z</time>
      </trkpt>
      <trkpt lat="49.2705" lon="-0.09436">
        <ele>22.2</ele>
        <time>2024-03-03T07:09:51Z</time>
      </trkpt>
      <trkpt lat="49.27045" lon="-0.09433">
        <ele>22.3</ele>
        <time>2024-03-03T07:09:52Z</time>
      </trkpt>
      <trkpt lat="49.27041" lon="-0.09429">
        <ele>22.4</ele>
        <time>2024-03-03T07:09:53Z</time>
      </trkpt>
      <trkpt lat="49.27036" lon="-0.09427">
        <ele>22.5</ele>
        <time>2024-03-03T07:09:54Z</time>
      </trkpt>
      <trkpt lat="49.27031" lon="-0.09425">
        <ele>22.5</ele>
        <time>2024-03-03T07:09:55Z</time>
      </trkpt>
      <trkpt lat="49.27027" lon="-0.09424">
        <ele>22.6</ele>
        <time>2024-03-03T07:09:56Z</time>
      </trkpt>
      <trkpt lat="49.27022" lon="-0.09424">
        <ele>22.6</ele>
        <time>2024-03-03T07:09:57Z</time>
      </trkpt>
      <trkpt lat="49.27017" lon="-0.09424">
        <ele>22.6</ele>
        <time>2024-03-03T07:09:58Z</time>
      </trkpt>
      <trkpt lat="49.27012" lon="-0.09424">
        <ele>22.6</ele>
        <time>2024-03-03T07:09:59Z</time>
      </trkpt>
      <trkpt lat="49.27008" lon="-0.09423">
        <ele>22.5</ele>
        <time>2024-03-03T07:10:00Z</time>
      </trkpt>
      <trkpt lat="49.27003" lon="-0.09424">
        <ele>22.5</ele>
        <time>2024-03-03T07:10:01Z</time>
      </trkpt>
      <trkpt lat="49.26999" lon="-0.09423">
        <ele>22.4</ele>
        <time>2024-03-03T07:10:02Z</time>
      </trkpt>
      <trkpt lat="49.26995" lon="-0.09424">
        <ele>22.3</ele>
        <time>2024-03-03T07:10:03Z</time>
      </trkpt>
      <trkpt lat="49.26991" lon="-0.09424">
        <ele>22.1</ele>
        <time>2024-03-03T07:10:04Z</time>
      </trkpt>
      <trkpt lat="49.26986" lon="-0.09423">
        <ele>22</ele>
        <time>2024-03-03T07:10:05Z</time>
      </trkpt>
      <trkpt lat="49.26981" lon="-0.09423">
        <ele>21.7</ele>
        <time>2024-03-03T07:10:06Z</time>
      </trkpt>
      <trkpt lat="49.26975" lon="-0.09423">
        <ele>21.5</ele>
        <time>2024-03-03T07:10:07Z</time>
      </trkpt>
      <trkpt lat="49.2697" lon="-0.09424">
        <ele>21.2</ele>
        <time>2024-03-03T07:10:08Z</time>
      </trkpt>
      <trkpt lat="49.26964" lon="-0.09424">
        <ele>20.9</ele>
        <time>2024-03-03T07:10:09Z</time>
      </trkpt>
      <trkpt lat="49.26958" lon="-0.09425">
        <ele>20.5</ele>
        <time>2024-03-03T07:10:10Z</time>
      </trkpt>
      <trkpt lat="49.26952" lon="-0.09426">
        <ele>20.1</ele>
        <time>2024-03-03T07:10:11Z</time>
      </trkpt>
      <trkpt lat="49.26945" lon="-0.09428">
        <ele>19.7</ele>
        <time>2024-03-03T07:10:12Z</time>
      </trkpt>
      <trkpt lat="49.26938" lon="-0.09429">
        <ele>19.3</ele>
        <time>2024-03-03T07:10:13Z</time>
      </trkpt>
      <trkpt lat="49.2693" lon="-0.0943">
        <ele>18.9</ele>
        <time>2024-03-03T07:10:14Z</time>
      </trkpt>
      <trkpt lat="49.26922" lon="-0.0943">
        <ele>18.4</ele>
        <time>2024-03-03T07:10:15Z</time>
      </trkpt>
      <trkpt lat="49.26913" lon="-0.0943">
        <ele>17.8</ele>
        <time>2024-03-03T07:10:16Z</time>
      </trkpt>
      <trkpt lat="49.26904" lon="-0.0943">
        <ele>17.3</ele>
        <time>2024-03-03T07:10:17Z</time>
      </trkpt>
      <trkpt lat="49.26895" lon="-0.0943">
        <ele>16.8</ele>
        <time>2024-03-03T07:10:18Z</time>
      </trkpt>
      <trkpt lat="49.26886" lon="-0.0943">
        <ele>16.2</ele>
        <time>2024-03-03T07:10:19Z</time>
      </trkpt>
      <trkpt lat="49.26877" lon="-0.0943">
        <ele>15.7</ele>
        <time>2024-03-03T07:10:20Z</time>
      </trkpt>
      <trkpt lat="49.26869" lon="-0.09431">
        <ele>15.2</ele>
        <time>2024-03-03T07:10:21Z</time>
      </trkpt>
      <trkpt lat="49.2686" lon="-0.09431">
        <ele>14.7</ele>
        <time>2024-03-03T07:10:22Z</time>
      </trkpt>
      <trkpt lat="49.2685" lon="-0.0943">
        <ele>14.1</ele>
        <time>2024-03-03T07:10:23Z</time>
      </trkpt>
      <trkpt lat="49.26839" lon="-0.0943">
        <ele>13.5</ele>
        <time>2024-03-03T07:10:24Z</time>
      </trkpt>
      <trkpt lat="49.26829" lon="-0.0943">
        <ele>12.9</ele>
        <time>2024-03-03T07:10:25Z</time>
      </trkpt>
      <trkpt lat="49.26819" lon="-0.09431">
        <ele>12.3</ele>
        <time>2024-03-03T07:10:26Z</time>
      </trkpt>
      <trkpt lat="49.26809" lon="-0.09431">
        <ele>11.8</ele>
        <time>2024-03-03T07:10:27Z</time>
      </trkpt>
      <trkpt lat="49.26799" lon="-0.09432">
        <ele>11.3</ele>
        <time>2024-03-03T07:10:28Z</time>
      </trkpt>
      <trkpt lat="49.26789" lon="-0.09432">
        <ele>10.8</ele>
        <time>2024-03-03T07:10:29Z</time>
      </trkpt>
      <trkpt lat="49.26779" lon="-0.09433">
        <ele>10.3</ele>
        <time>2024-03-03T07:10:30Z</time>
      </trkpt>
      <trkpt lat="49.26767" lon="-0.09432">
        <ele>9.8</ele>
        <time>2024-03-03T07:10:31Z</time>
      </trkpt>
      <trkpt lat="49.26757" lon="-0.09432">
        <ele>9.3</ele>
        <time>2024-03-03T07:10:32Z</time>
      </trkpt>
      <trkpt lat="49.26746" lon="-0.09432">
        <ele>8.9</ele>
        <time>2024-03-03T07:10:33Z</time>
      </trkpt>
      <trkpt lat="49.26735" lon="-0.09433">
        <ele>8.6</ele>
        <time>2024-03-03T07:10:34Z</time>
      </trkpt>
      <trkpt lat="49.26725" lon="-0.09433">
        <ele>8.3</ele>
        <time>2024-03-03T07:10:35Z</time>
      </trkpt>
      <trkpt lat="49.26715" lon="-0.09433">
        <ele>8.2</ele>
        <time>2024-03-03T07:10:36Z</time>
      </trkpt>
      <trkpt lat="49.26706" lon="-0.09432">
        <ele>8</ele>
        <time>2024-03-03T07:10:37Z</time>
      </trkpt>
      <trkpt lat="49.26697" lon="-0.09431">
        <ele>8</ele>
        <time>2024-03-03T07:10:38Z</time>
      </trkpt>
      <trkpt lat="49.26688" lon="-0.09431">
        <ele>7.9</ele>
        <time>2024-03-03T07:10:39Z</time>
      </trkpt>
      <trkpt lat="49.26679" lon="-0.09431">
        <ele>8</ele>
        <time>2024-03-03T07:10:40Z</time>
      </trkpt>
      <trkpt lat="49.26671" lon="-0.09432">
        <ele>8.1</ele>
        <time>2024-03-03T07:10:41Z</time>
      </trkpt>
      <trkpt lat="49.26663" lon="-0.09432">
        <ele>8.3</ele>
        <time>2024-03-03T07:10:42Z</time>
      </trkpt>
      <trkpt lat="49.26657" lon="-0.09432">
        <ele>8.5</ele>
        <time>2024-03-03T07:10:43Z</time>
      </trkpt>
      <trkpt lat="49.2665" lon="-0.09432">
        <ele>8.7</ele>
        <time>2024-03-03T07:10:44Z</time>
      </trkpt>
      <trkpt lat="49.26644" lon="-0.09432">
        <ele>8.9</ele>
        <time>2024-03-03T07:10:45Z</time>
      </trkpt>
      <trkpt lat="49.26639" lon="-0.09431">
        <ele>9.2</ele>
        <time>2024-03-03T07:10:46Z</time>
      </trkpt>
      <trkpt lat="49.26634" lon="-0.0943">
        <ele>9.4</ele>
        <time>2024-03-03T07:10:47Z</time>
      </trkpt>
      <trkpt lat="49.26629" lon="-0.0943">
        <ele>9.6</ele>
        <time>2024-03-03T07:10:48Z</time>
      </trkpt>
      <trkpt lat="49.26625" lon="-0.09431">
        <ele>9.9</ele>
        <time>2024-03-03T07:10:49Z</time>
      </trkpt>
      <trkpt lat="49.2662" lon="-0.09431">
        <ele>10.1</ele>
        <time>2024-03-03T07:10:50Z</time>
      </trkpt>
      <trkpt lat="49.26615" lon="-0.09431">
        <ele>10.4</ele>
        <time>2024-03-03T07:10:51Z</time>
      </trkpt>
      <trkpt lat="49.2661" lon="-0.0943">
        <ele>10.6</ele>
        <time>2024-03-03T07:10:52Z</time>
      </trkpt>
      <trkpt lat="49.26605" lon="-0.09429">
        <ele>10.9</ele>
        <time>2024-03-03T07:10:53Z</time>
      </trkpt>
      <trkpt lat="49.266" lon="-0.09429">
        <ele>11.1</ele>
        <time>2024-03-03T07:10:54Z</time>
      </trkpt>
      <trkpt lat="49.26596" lon="-0.0943">
        <ele>11.4</ele>
        <time>2024-03-03T07:10:55Z</time>
      </trkpt>
      <trkpt lat="49.26592" lon="-0.0943">
        <ele>11.6</ele>
        <time>2024-03-03T07:10:56Z</time>
      </trkpt>
      <trkpt lat="49.26588" lon="-0.0943">
        <ele>11.8</ele>
        <time>2024-03-03T07:10:57Z</time>
      </trkpt>
      <trkpt lat="49.26583" lon="-0.0943">
        <ele>12.1</ele>
        <time>2024-03-03T07:10:58Z</time>
      </trkpt>
      <trkpt lat="49.26577" lon="-0.0943">
        <ele>12.5</ele>
        <time>2024-03-03T07:10:59Z</time>
      </trkpt>
      <trkpt lat="49.26571" lon="-0.0943">
        <ele>12.8</ele>
        <time>2024-03-03T07:11:00Z</time>
      </trkpt>
      <trkpt lat="49.26566" lon="-0.0943">
        <ele>13.1</ele>
        <time>2024-03-03T07:11:01Z</time>
      </trkpt>
      <trkpt lat="49.26561" lon="-0.0943">
        <ele>13.4</ele>
        <time>2024-03-03T07:11:02Z</time>
      </trkpt>
      <trkpt lat="49.26556" lon="-0.09429">
        <ele>13.7</ele>
        <time>2024-03-03T07:11:03Z</time>
      </trkpt>
      <trkpt lat="49.26551" lon="-0.09429">
        <ele>13.9</ele>
        <time>2024-03-03T07:11:04Z</time>
      </trkpt>
      <trkpt lat="49.26547" lon="-0.09429">
        <ele>14.1</ele>
        <time>2024-03-03T07:11:05Z</time>
      </trkpt>
      <trkpt lat="49.26541" lon="-0.09429">
        <ele>14.3</ele>
        <time>2024-03-03T07:11:06Z</time>
      </trkpt>
      <trkpt lat="49.26536" lon="-0.09429">
        <ele>14.5</ele>
        <time>2024-03-03T07:11:07Z</time>
      </trkpt>
      <trkpt lat="49.2653" lon="-0.09429">
        <ele>14.6</ele>
        <time>2024-03-03T07:11:08Z</time>
      </trkpt>
      <trkpt lat="49.26524" lon="-0.09428">
        <ele>14.8</ele>
        <time>2024-03-03T07:11:09Z</time>
      </trkpt>
      <trkpt lat="49.26517" lon="-0.09428">
        <ele>14.9</ele>
        <time>2024-03-03T07:11:10Z</time>
      </trkpt>
      <trkpt lat="49.26511" lon="-0.09428">
        <ele>15</ele>
        <time>2024-03-03T07:11:11Z</time>
      </trkpt>
      <trkpt lat="49.26505" lon="-0.09428">
        <ele>15.2</ele>
        <time>2024-03-03T07:11:12Z</time>
      </trkpt>
      <trkpt lat="49.26499" lon="-0.09428">
        <ele>15.3</ele>
        <time>2024-03-03T07:11:13Z</time>
      </trkpt>
      <trkpt lat="49.26493" lon="-0.09428">
        <ele>15.4</ele>
        <time>2024-03-03T07:11:14Z</time>
      </trkpt>
      <trkpt lat="49.26487" lon="-0.09427">
        <ele>15.5</ele>
        <time>2024-03-03T07:11:15Z</time>
      </trkpt>
      <trkpt lat="49.2648" lon="-0.09427">
        <ele>15.6</ele>
        <time>2024-03-03T07:11:16Z</time>
      </trkpt>
      <trkpt lat="49.26474" lon="-0.09426">
        <ele>15.6</ele>
        <time>2024-03-03T07:11:17Z</time>
      </trkpt>
      <trkpt lat="49.26467" lon="-0.09426">
        <ele>15.7</ele>
        <time>2024-03-03T07:11:18Z</time>
      </trkpt>
      <trkpt lat="49.26461" lon="-0.09425">
        <ele>15.7</ele>
        <time>2024-03-03T07:11:19Z</time>
      </trkpt>
      <trkpt lat="49.26455" lon="-0.09425">
        <ele>15.8</ele>
        <time>2024-03-03T07:11:20Z</time>
      </trkpt>
      <trkpt lat="49.26448" lon="-0.09424">
        <ele>15.8</ele>
        <time>2024-03-03T07:11:21Z</time>
      </trkpt>
      <trkpt lat="49.26442" lon="-0.09424">
        <ele>15.8</ele>
        <time>2024-03-03T07:11:22Z</time>
      </trkpt>
      <trkpt lat="49.26436" lon="-0.09424">
        <ele>15.8</ele>
        <time>2024-03-03T07:11:23Z</time>
      </trkpt>
      <trkpt lat="49.26429" lon="-0.09425">
        <ele>15.8</ele>
        <time>2024-03-03T07:11:24Z</time>
      </trkpt>
      <trkpt lat="49.26423" lon="-0.09425">
        <ele>15.8</ele>
        <time>2024-03-03T07:11:25Z</time>
      </trkpt>
      <trkpt lat="49.26416" lon="-0.09425">
        <ele>15.8</ele>
        <time>2024-03-03T07:11:26Z</time>
      </trkpt>
      <trkpt lat="49.2641" lon="-0.09425">
        <ele>15.7</ele>
        <time>2024-03-03T07:11:27Z</time>
      </trkpt>
      <trkpt lat="49.26403" lon="-0.09425">
        <ele>15.6</ele>
        <time>2024-03-03T07:11:28Z</time>
      </trkpt>
      <trkpt lat="49.26396" lon="-0.09425">
        <ele>15.5</ele>
        <time>2024-03-03T07:11:29Z</time>
      </trkpt>
      <trkpt lat="49.26389" lon="-0.09425">
        <ele>15.4</ele>
        <time>2024-03-03T07:11:30Z</time>
      </trkpt>
      <trkpt lat="49.26382" lon="-0.09424">
        <ele>15.3</ele>
        <time>2024-03-03T07:11:31Z</time>
      </trkpt>
      <trkpt lat="49.26375" lon="-0.09424">
        <ele>15.1</ele>
        <time>2024-03-03T07:11:32Z</time>
      </trkpt>
      <trkpt lat="49.26369" lon="-0.09424">
        <ele>15</ele>
        <time>2024-03-03T07:11:33Z</time>
      </trkpt>
      <trkpt lat="49.26362" lon="-0.09423">
        <ele>14.8</ele>
        <time>2024-03-03T07:11:34Z</time>
      </trkpt>
      <trkpt lat="49.26354" lon="-0.09423">
        <ele>14.6</ele>
        <time>2024-03-03T07:11:35Z</time>
      </trkpt>
      <trkpt lat="49.26347" lon="-0.09424">
        <ele>14.4</ele>
        <time>2024-03-03T07:11:36Z</time>
      </trkpt>
      <trkpt lat="49.26341" lon="-0.09424">
        <ele>14.2</ele>
        <time>2024-03-03T07:11:37Z</time>
      </trkpt>
      <trkpt lat="49.26334" lon="-0.09424">
        <ele>14</ele>
        <time>2024-03-03T07:11:38Z</time>
      </trkpt>
      <trkpt lat="49.26327" lon="-0.09425">
        <ele>13.8</ele>
        <time>2024-03-03T07:11:39Z</time>
      </trkpt>
      <trkpt lat="49.2632" lon="-0.09426">
        <ele>13.6</ele>
        <time>2024-03-03T07:11:40Z</time>
      </trkpt>
      <trkpt lat="49.26314" lon="-0.09428">
        <ele>13.4</ele>
        <time>2024-03-03T07:11:41Z</time>
      </trkpt>
      <trkpt lat="49.26307" lon="-0.0943">
        <ele>13.1</ele>
        <time>2024-03-03T07:11:42Z</time>
      </trkpt>
      <trkpt lat="49.26301" lon="-0.09433">
        <ele>12.9</ele>
        <time>2024-03-03T07:11:43Z</time>
      </trkpt>
      <trkpt lat="49.26294" lon="-0.09437">
        <ele>12.6</ele>
        <time>2024-03-03T07:11:44Z</time>
      </trkpt>
      <trkpt lat="49.26287" lon="-0.09442">
        <ele>12.4</ele>
        <time>2024-03-03T07:11:45Z</time>
      </trkpt>
      <trkpt lat="49.26281" lon="-0.09446">
        <ele>12.2</ele>
        <time>2024-03-03T07:11:46Z</time>
      </trkpt>
      <trkpt lat="49.26273" lon="-0.0945">
        <ele>11.9</ele>
        <time>2024-03-03T07:11:47Z</time>
      </trkpt>
      <trkpt lat="49.26266" lon="-0.09455">
        <ele>11.7</ele>
        <time>2024-03-03T07:11:48Z</time>
      </trkpt>
      <trkpt lat="49.26259" lon="-0.09459">
        <ele>11.5</ele>
        <time>2024-03-03T07:11:49Z</time>
      </trkpt>
      <trkpt lat="49.26251" lon="-0.09464">
        <ele>11.3</ele>
        <time>2024-03-03T07:11:50Z</time>
      </trkpt>
      <trkpt lat="49.26243" lon="-0.09468">
        <ele>11.1</ele>
        <time>2024-03-03T07:11:51Z</time>
      </trkpt>
      <trkpt lat="49.26236" lon="-0.09472">
        <ele>11</ele>
        <time>2024-03-03T07:11:52Z</time>
      </trkpt>
      <trkpt lat="49.26227" lon="-0.09474">
        <ele>10.9</ele>
        <time>2024-03-03T07:11:53Z</time>
      </trkpt>
      <trkpt lat="49.26219" lon="-0.09475">
        <ele>10.9</ele>
        <time>2024-03-03T07:11:54Z</time>
      </trkpt>
      <trkpt lat="49.26211" lon="-0.09475">
        <ele>11</ele>
        <time>2024-03-03T07:11:55Z</time>
      </trkpt>
      <trkpt lat="49.26203" lon="-0.09474">
        <ele>11</ele>
        <time>2024-03-03T07:11:56Z</time>
      </trkpt>
      <trkpt lat="49.26195" lon="-0.09472">
        <ele>11</ele>
        <time>2024-03-03T07:11:57Z</time>
      </trkpt>
      <trkpt lat="49.26188" lon="-0.09468">
        <ele>11.1</ele>
        <time>2024-03-03T07:11:58Z</time>
      </trkpt>
      <trkpt lat="49.26181" lon="-0.09463">
        <ele>11.1</ele>
        <time>2024-03-03T07:11:59Z</time>
      </trkpt>
      <trkpt lat="49.26175" lon="-0.09459">
        <ele>11.2</ele>
        <time>2024-03-03T07:12:00Z</time>
      </trkpt>
      <trkpt lat="49.26169" lon="-0.09456">
        <ele>11.3</ele>
        <time>2024-03-03T07:12:01Z</time>
      </trkpt>
      <trkpt lat="49.26164" lon="-0.09454">
        <ele>11.4</ele>
        <time>2024-03-03T07:12:02Z</time>
      </trkpt>
      <trkpt lat="49.26158" lon="-0.09453">
        <ele>11.5</ele>
        <time>2024-03-03T07:12:03Z</time>
      </trkpt>
      <trkpt lat="49.26152" lon="-0.09452">
        <ele>11.6</ele>
        <time>2024-03-03T07:12:04Z</time>
      </trkpt>
      <trkpt lat="49.26145" lon="-0.09451">
        <ele>11.7</ele>
        <time>2024-03-03T07:12:05Z</time>
      </trkpt>
      <trkpt lat="49.26139" lon="-0.09451">
        <ele>11.7</ele>
        <time>2024-03-03T07:12:06Z</time>
      </trkpt>
      <trkpt lat="49.26134" lon="-0.09452">
        <ele>11.8</ele>
        <time>2024-03-03T07:12:07Z</time>
      </trkpt>
      <trkpt lat="49.26127" lon="-0.09453">
        <ele>11.8</ele>
        <time>2024-03-03T07:12:08Z</time>
      </trkpt>
      <trkpt lat="49.26121" lon="-0.09454">
        <ele>11.8</ele>
        <time>2024-03-03T07:12:09Z</time>
      </trkpt>
      <trkpt lat="49.26115" lon="-0.09456">
        <ele>11.8</ele>
        <time>2024-03-03T07:12:10Z</time>
      </trkpt>
      <trkpt lat="49.26108" lon="-0.09457">
        <ele>11.9</ele>
        <time>2024-03-03T07:12:11Z</time>
      </trkpt>
      <trkpt lat="49.26102" lon="-0.09459">
        <ele>11.9</ele>
        <time>2024-03-03T07:12:12Z</time>
      </trkpt>
      <trkpt lat="49.26095" lon="-0.09461">
        <ele>11.9</ele>
        <time>2024-03-03T07:12:13Z</time>
      </trkpt>
      <trkpt lat="49.26088" lon="-0.09462">
        <ele>11.9</ele>
        <time>2024-03-03T07:12:14Z</time>
      </trkpt>
      <trkpt lat="49.26082" lon="-0.09464">
        <ele>11.9</ele>
        <time>2024-03-03T07:12:15Z</time>
      </trkpt>
      <trkpt lat="49.26074" lon="-0.09466">
        <ele>12</ele>
        <time>2024-03-03T07:12:16Z</time>
      </trkpt>
      <trkpt lat="49.26067" lon="-0.09467">
        <ele>12</ele>
        <time>2024-03-03T07:12:17Z</time>
      </trkpt>
      <trkpt lat="49.2606" lon="-0.09468">
        <ele>12.1</ele>
        <time>2024-03-03T07:12:18Z</time>
      </trkpt>
      <trkpt lat="49.26053" lon="-0.09469">
        <ele>12.1</ele>
        <time>2024-03-03T07:12:19Z</time>
      </trkpt>
      <trkpt lat="49.26046" lon="-0.0947">
        <ele>12.1</ele>
        <time>2024-03-03T07:12:20Z</time>
      </trkpt>
      <trkpt lat="49.26039" lon="-0.09472">
        <ele>12.2</ele>
        <time>2024-03-03T07:12:21Z</time>
      </trkpt>
      <trkpt lat="49.26033" lon="-0.09472">
        <ele>12.2</ele>
        <time>2024-03-03T07:12:22Z</time>
      </trkpt>
      <trkpt lat="49.26026" lon="-0.09474">
        <ele>12.1</ele>
        <time>2024-03-03T07:12:23Z</time>
      </trkpt>
      <trkpt lat="49.26019" lon="-0.09476">
        <ele>12.1</ele>
        <time>2024-03-03T07:12:24Z</time>
      </trkpt>
      <trkpt lat="49.26013" lon="-0.09477">
        <ele>12.1</ele>
        <time>2024-03-03T07:12:25Z</time>
      </trkpt>
      <trkpt lat="49.26006" lon="-0.09479">
        <ele>12</ele>
        <time>2024-03-03T07:12:26Z</time>
      </trkpt>
      <trkpt lat="49.25999" lon="-0.09482">
        <ele>11.9</ele>
        <time>2024-03-03T07:12:27Z</time>
      </trkpt>
      <trkpt lat="49.25992" lon="-0.09483">
        <ele>11.7</ele>
        <time>2024-03-03T07:12:28Z</time>
      </trkpt>
      <trkpt lat="49.25985" lon="-0.09485">
        <ele>11.6</ele>
        <time>2024-03-03T07:12:29Z</time>
      </trkpt>
      <trkpt lat="49.25978" lon="-0.09486">
        <ele>11.5</ele>
        <time>2024-03-03T07:12:30Z</time>
      </trkpt>
      <trkpt lat="49.25971" lon="-0.09487">
        <ele>11.2</ele>
        <time>2024-03-03T07:12:31Z</time>
      </trkpt>
      <trkpt lat="49.25965" lon="-0.0949">
        <ele>11</ele>
        <time>2024-03-03T07:12:32Z</time>
      </trkpt>
      <trkpt lat="49.25958" lon="-0.09492">
        <ele>10.7</ele>
        <time>2024-03-03T07:12:33Z</time>
      </trkpt>
      <trkpt lat="49.25952" lon="-0.09494">
        <ele>10.5</ele>
        <time>2024-03-03T07:12:34Z</time>
      </trkpt>
      <trkpt lat="49.25944" lon="-0.09496">
        <ele>10.2</ele>
        <time>2024-03-03T07:12:35Z</time>
      </trkpt>
      <trkpt lat="49.25937" lon="-0.09497">
        <ele>10</ele>
        <time>2024-03-03T07:12:36Z</time>
      </trkpt>
      <trkpt lat="49.2593" lon="-0.09497">
        <ele>9.7</ele>
        <time>2024-03-03T07:12:37Z</time>
      </trkpt>
      <trkpt lat="49.25923" lon="-0.09498">
        <ele>9.5</ele>
        <time>2024-03-03T07:12:38Z</time>
      </trkpt>
      <trkpt lat="49.25915" lon="-0.09497">
        <ele>9.3</ele>
        <time>2024-03-03T07:12:39Z</time>
      </trkpt>
      <trkpt lat="49.25909" lon="-0.09496">
        <ele>9.1</ele>
        <time>2024-03-03T07:12:40Z</time>
      </trkpt>
      <trkpt lat="49.25902" lon="-0.09496">
        <ele>8.9</ele>
        <time>2024-03-03T07:12:41Z</time>
      </trkpt>
      <trkpt lat="49.25895" lon="-0.09495">
        <ele>8.7</ele>
        <time>2024-03-03T07:12:42Z</time>
      </trkpt>
      <trkpt lat="49.25888" lon="-0.09493">
        <ele>8.6</ele>
        <time>2024-03-03T07:12:43Z</time>
      </trkpt>
      <trkpt lat="49.25881" lon="-0.09493">
        <ele>8.5</ele>
        <time>2024-03-03T07:12:44Z</time>
      </trkpt>
      <trkpt lat="49.25875" lon="-0.09492">
        <ele>8.4</ele>
        <time>2024-03-03T07:12:45Z</time>
      </trkpt>
      <trkpt lat="49.25869" lon="-0.09492">
        <ele>8.4</ele>
        <time>2024-03-03T07:12:46Z</time>
      </trkpt>
      <trkpt lat="49.25863" lon="-0.09491">
        <ele>8.4</ele>
        <time>2024-03-03T07:12:47Z</time>
      </trkpt>
      <trkpt lat="49.25858" lon="-0.0949">
        <ele>8.4</ele>
        <time>2024-03-03T07:12:48Z</time>
      </trkpt>
      <trkpt lat="49.25853" lon="-0.09491">
        <ele>8.4</ele>
        <time>2024-03-03T07:12:49Z</time>
      </trkpt>
      <trkpt lat="49.2585" lon="-0.09491">
        <ele>8.4</ele>
        <time>2024-03-03T07:12:50Z</time>
      </trkpt>
      <trkpt lat="49.25846" lon="-0.09492">
        <ele>8.4</ele>
        <time>2024-03-03T07:12:51Z</time>
      </trkpt>
      <trkpt lat="49.25845" lon="-0.09492">
        <ele>8.4</ele>
        <time>2024-03-03T07:12:52Z</time>
      </trkpt>
      <trkpt lat="49.25842" lon="-0.09493">
        <ele>8.5</ele>
        <time>2024-03-03T07:12:53Z</time>
      </trkpt>
      <trkpt lat="49.25839" lon="-0.09493">
        <ele>8.5</ele>
        <time>2024-03-03T07:12:54Z</time>
      </trkpt>
      <trkpt lat="49.25835" lon="-0.09493">
        <ele>8.5</ele>
        <time>2024-03-03T07:12:55Z</time>
      </trkpt>
      <trkpt lat="49.2583" lon="-0.09493">
        <ele>8.5</ele>
        <time>2024-03-03T07:12:56Z</time>
      </trkpt>
      <trkpt lat="49.25825" lon="-0.09492">
        <ele>8.4</ele>
        <time>2024-03-03T07:12:57Z</time>
      </trkpt>
      <trkpt lat="49.2582" lon="-0.09491">
        <ele>8.4</ele>
        <time>2024-03-03T07:12:58Z</time>
      </trkpt>
      <trkpt lat="49.25816" lon="-0.0949">
        <ele>8.4</ele>
        <time>2024-03-03T07:12:59Z</time>
      </trkpt>
      <trkpt lat="49.25812" lon="-0.0949">
        <ele>8.4</ele>
        <time>2024-03-03T07:13:00Z</time>
      </trkpt>
      <trkpt lat="49.25808" lon="-0.09491">
        <ele>8.4</ele>
        <time>2024-03-03T07:13:01Z</time>
      </trkpt>
      <trkpt lat="49.25804" lon="-0.09493">
        <ele>8.4</ele>
        <time>2024-03-03T07:13:02Z</time>
      </trkpt>
      <trkpt lat="49.25799" lon="-0.09494">
        <ele>8.4</ele>
        <time>2024-03-03T07:13:03Z</time>
      </trkpt>
      <trkpt lat="49.25795" lon="-0.09496">
        <ele>8.4</ele>
        <time>2024-03-03T07:13:04Z</time>
      </trkpt>
      <trkpt lat="49.25791" lon="-0.09499">
        <ele>8.4</ele>
        <time>2024-03-03T07:13:05Z</time>
      </trkpt>
      <trkpt lat="49.25786" lon="-0.09502">
        <ele>8.4</ele>
        <time>2024-03-03T07:13:06Z</time>
      </trkpt>
      <trkpt lat="49.2578" lon="-0.09505">
        <ele>8.5</ele>
        <time>2024-03-03T07:13:07Z</time>
      </trkpt>
      <trkpt lat="49.25774" lon="-0.09508">
        <ele>8.4</ele>
        <time>2024-03-03T07:13:08Z</time>
      </trkpt>
      <trkpt lat="49.25769" lon="-0.09512">
        <ele>8.3</ele>
        <time>2024-03-03T07:13:09Z</time>
      </trkpt>
      <trkpt lat="49.25763" lon="-0.09516">
        <ele>8.2</ele>
        <time>2024-03-03T07:13:10Z</time>
      </trkpt>
      <trkpt lat="49.25757" lon="-0.09521">
        <ele>8.1</ele>
        <time>2024-03-03T07:13:11Z</time>
      </trkpt>
      <trkpt lat="49.2575" lon="-0.09525">
        <ele>8</ele>
        <time>2024-03-03T07:13:12Z</time>
      </trkpt>
      <trkpt lat="49.25744" lon="-0.09529">
        <ele>8</ele>
        <time>2024-03-03T07:13:13Z</time>
      </trkpt>
      <trkpt lat="49.25738" lon="-0.09534">
        <ele>7.9</ele>
        <time>2024-03-03T07:13:14Z</time>
      </trkpt>
      <trkpt lat="49.25732" lon="-0.09538">
        <ele>7.9</ele>
        <time>2024-03-03T07:13:15Z</time>
      </trkpt>
      <trkpt lat="49.25725" lon="-0.09542">
        <ele>7.8</ele>
        <time>2024-03-03T07:13:16Z</time>
      </trkpt>
      <trkpt lat="49.25719" lon="-0.09546">
        <ele>7.8</ele>
        <time>2024-03-03T07:13:17Z</time>
      </trkpt>
      <trkpt lat="49.25713" lon="-0.09551">
        <ele>7.8</ele>
        <time>2024-03-03T07:13:18Z</time>
      </trkpt>
      <trkpt lat="49.25706" lon="-0.09555">
        <ele>7.7</ele>
        <time>2024-03-03T07:13:19Z</time>
      </trkpt>
      <trkpt lat="49.257" lon="-0.09559">
        <ele>7.7</ele>
        <time>2024-03-03T07:13:20Z</time>
      </trkpt>
      <trkpt lat="49.25694" lon="-0.09563">
        <ele>7.6</ele>
        <time>2024-03-03T07:13:21Z</time>
      </trkpt>
      <trkpt lat="49.25688" lon="-0.09566">
        <ele>7.6</ele>
        <time>2024-03-03T07:13:22Z</time>
      </trkpt>
      <trkpt lat="49.25681" lon="-0.09569">
        <ele>7.5</ele>
        <time>2024-03-03T07:13:23Z</time>
      </trkpt>
      <trkpt lat="49.25676" lon="-0.09573">
        <ele>7.5</ele>
        <time>2024-03-03T07:13:24Z</time>
      </trkpt>
      <trkpt lat="49.2567" lon="-0.09577">
        <ele>7.5</ele>
        <time>2024-03-03T07:13:25Z</time>
      </trkpt>
      <trkpt lat="49.25665" lon="-0.09581">
        <ele>7.4</ele>
        <time>2024-03-03T07:13:26Z</time>
      </trkpt>
      <trkpt lat="49.2566" lon="-0.09586">
        <ele>7.4</ele>
        <time>2024-03-03T07:13:27Z</time>
      </trkpt>
      <trkpt lat="49.25654" lon="-0.0959">
        <ele>7.4</ele>
        <time>2024-03-03T07:13:28Z</time>
      </trkpt>
      <trkpt lat="49.25647" lon="-0.09593">
        <ele>7.3</ele>
        <time>2024-03-03T07:13:29Z</time>
      </trkpt>
      <trkpt lat="49.2564" lon="-0.09596">
        <ele>7.3</ele>
        <time>2024-03-03T07:13:30Z</time>
      </trkpt>
      <trkpt lat="49.25633" lon="-0.09599">
        <ele>7.3</ele>
        <time>2024-03-03T07:13:31Z</time>
      </trkpt>
      <trkpt lat="49.25627" lon="-0.09601">
        <ele>7.2</ele>
        <time>2024-03-03T07:13:32Z</time>
      </trkpt>
      <trkpt lat="49.2562" lon="-0.09602">
        <ele>7.2</ele>
        <time>2024-03-03T07:13:33Z</time>
      </trkpt>
      <trkpt lat="49.25614" lon="-0.09602">
        <ele>7.2</ele>
        <time>2024-03-03T07:13:34Z</time>
      </trkpt>
      <trkpt lat="49.25608" lon="-0.09603">
        <ele>7.1</ele>
        <time>2024-03-03T07:13:35Z</time>
      </trkpt>
      <trkpt lat="49.25601" lon="-0.09603">
        <ele>7.1</ele>
        <time>2024-03-03T07:13:36Z</time>
      </trkpt>
      <trkpt lat="49.25595" lon="-0.09604">
        <ele>7</ele>
        <time>2024-03-03T07:13:37Z</time>
      </trkpt>
      <trkpt lat="49.25589" lon="-0.09604">
        <ele>7</ele>
        <time>2024-03-03T07:13:38Z</time>
      </trkpt>
      <trkpt lat="49.25582" lon="-0.09605">
        <ele>6.9</ele>
        <time>2024-03-03T07:13:39Z</time>
      </trkpt>
      <trkpt lat="49.25575" lon="-0.09605">
        <ele>6.8</ele>
        <time>2024-03-03T07:13:40Z</time>
      </trkpt>
      <trkpt lat="49.25568" lon="-0.09604">
        <ele>6.8</ele>
        <time>2024-03-03T07:13:41Z</time>
      </trkpt>
      <trkpt lat="49.25562" lon="-0.09604">
        <ele>6.7</ele>
        <time>2024-03-03T07:13:42Z</time>
      </trkpt>
      <trkpt lat="49.25555" lon="-0.09605">
        <ele>6.6</ele>
        <time>2024-03-03T07:13:43Z</time>
      </trkpt>
      <trkpt lat="49.25548" lon="-0.09605">
        <ele>6.6</ele>
        <time>2024-03-03T07:13:44Z</time>
      </trkpt>
      <trkpt lat="49.25541" lon="-0.09606">
        <ele>6.5</ele>
        <time>2024-03-03T07:13:45Z</time>
      </trkpt>
      <trkpt lat="49.25534" lon="-0.09605">
        <ele>6.4</ele>
        <time>2024-03-03T07:13:46Z</time>
      </trkpt>
      <trkpt lat="49.25528" lon="-0.09606">
        <ele>6.4</ele>
        <time>2024-03-03T07:13:47Z</time>
      </trkpt>
      <trkpt lat="49.25521" lon="-0.09605">
        <ele>6.3</ele>
        <time>2024-03-03T07:13:48Z</time>
      </trkpt>
      <trkpt lat="49.25514" lon="-0.09606">
        <ele>6.2</ele>
        <time>2024-03-03T07:13:49Z</time>
      </trkpt>
      <trkpt lat="49.25507" lon="-0.09605">
        <ele>6.1</ele>
        <time>2024-03-03T07:13:50Z</time>
      </trkpt>
      <trkpt lat="49.255" lon="-0.09606">
        <ele>6</ele>
        <time>2024-03-03T07:13:51Z</time>
      </trkpt>
      <trkpt lat="49.25493" lon="-0.09606">
        <ele>5.9</ele>
        <time>2024-03-03T07:13:52Z</time>
      </trkpt>
      <trkpt lat="49.25486" lon="-0.09608">
        <ele>5.8</ele>
        <time>2024-03-03T07:13:53Z</time>
      </trkpt>
      <trkpt lat="49.25479" lon="-0.09609">
        <ele>5.8</ele>
        <time>2024-03-03T07:13:54Z</time>
      </trkpt>
      <trkpt lat="49.25473" lon="-0.09611">
        <ele>5.8</ele>
        <time>2024-03-03T07:13:55Z</time>
      </trkpt>
      <trkpt lat="49.25465" lon="-0.09612">
        <ele>5.7</ele>
        <time>2024-03-03T07:13:56Z</time>
      </trkpt>
      <trkpt lat="49.25458" lon="-0.09613">
        <ele>5.7</ele>
        <time>2024-03-03T07:13:57Z</time>
      </trkpt>
      <trkpt lat="49.25451" lon="-0.09614">
        <ele>5.6</ele>
        <time>2024-03-03T07:13:58Z</time>
      </trkpt>
      <trkpt lat="49.25445" lon="-0.09615">
        <ele>5.5</ele>
        <time>2024-03-03T07:13:59Z</time>
      </trkpt>
      <trkpt lat="49.25438" lon="-0.09616">
        <ele>5.5</ele>
        <time>2024-03-03T07:14:00Z</time>
      </trkpt>
      <trkpt lat="49.25431" lon="-0.09617">
        <ele>5.4</ele>
        <time>2024-03-03T07:14:01Z</time>
      </trkpt>
      <trkpt lat="49.25424" lon="-0.09618">
        <ele>5.3</ele>
        <time>2024-03-03T07:14:02Z</time>
      </trkpt>
      <trkpt lat="49.25418" lon="-0.09619">
        <ele>5.3</ele>
        <time>2024-03-03T07:14:03Z</time>
      </trkpt>
      <trkpt lat="49.25411" lon="-0.0962">
        <ele>5.2</ele>
        <time>2024-03-03T07:14:04Z</time>
      </trkpt>
      <trkpt lat="49.25404" lon="-0.09622">
        <ele>5.2</ele>
        <time>2024-03-03T07:14:05Z</time>
      </trkpt>
      <trkpt lat="49.25397" lon="-0.09624">
        <ele>5.2</ele>
        <time>2024-03-03T07:14:06Z</time>
      </trkpt>
      <trkpt lat="49.2539" lon="-0.09624">
        <ele>5.2</ele>
        <time>2024-03-03T07:14:07Z</time>
      </trkpt>
      <trkpt lat="49.25384" lon="-0.09625">
        <ele>5.2</ele>
        <time>2024-03-03T07:14:08Z</time>
      </trkpt>
      <trkpt lat="49.25378" lon="-0.09627">
        <ele>5.1</ele>
        <time>2024-03-03T07:14:09Z</time>
      </trkpt>
      <trkpt lat="49.25372" lon="-0.09629">
        <ele>5.1</ele>
        <time>2024-03-03T07:14:10Z</time>
      </trkpt>
      <trkpt lat="49.25365" lon="-0.0963">
        <ele>5.1</ele>
        <time>2024-03-03T07:14:11Z</time>
      </trkpt>
      <trkpt lat="49.25359" lon="-0.09632">
        <ele>5.2</ele>
        <time>2024-03-03T07:14:12Z</time>
      </trkpt>
      <trkpt lat="49.25352" lon="-0.09633">
        <ele>5.2</ele>
        <time>2024-03-03T07:14:13Z</time>
      </trkpt>
      <trkpt lat="49.25346" lon="-0.09634">
        <ele>5.2</ele>
        <time>2024-03-03T07:14:14Z</time>
      </trkpt>
      <trkpt lat="49.2534" lon="-0.09636">
        <ele>5.2</ele>
        <time>2024-03-03T07:14:15Z</time>
      </trkpt>
      <trkpt lat="49.25333" lon="-0.09638">
        <ele>5.2</ele>
        <time>2024-03-03T07:14:16Z</time>
      </trkpt>
      <trkpt lat="49.25327" lon="-0.0964">
        <ele>5.2</ele>
        <time>2024-03-03T07:14:17Z</time>
      </trkpt>
      <trkpt lat="49.2532" lon="-0.09642">
        <ele>5.3</ele>
        <time>2024-03-03T07:14:18Z</time>
      </trkpt>
      <trkpt lat="49.25314" lon="-0.09645">
        <ele>5.3</ele>
        <time>2024-03-03T07:14:19Z</time>
      </trkpt>
      <trkpt lat="49.25308" lon="-0.09648">
        <ele>5.4</ele>
        <time>2024-03-03T07:14:20Z</time>
      </trkpt>
      <trkpt lat="49.25302" lon="-0.09652">
        <ele>5.4</ele>
        <time>2024-03-03T07:14:21Z</time>
      </trkpt>
      <trkpt lat="49.25296" lon="-0.09658">
        <ele>5.4</ele>
        <time>2024-03-03T07:14:22Z</time>
      </trkpt>
      <trkpt lat="49.25291" lon="-0.09663">
        <ele>5.5</ele>
        <time>2024-03-03T07:14:23Z</time>
      </trkpt>
      <trkpt lat="49.25285" lon="-0.09669">
        <ele>5.5</ele>
        <time>2024-03-03T07:14:24Z</time>
      </trkpt>
      <trkpt lat="49.2528" lon="-0.09674">
        <ele>5.5</ele>
        <time>2024-03-03T07:14:25Z</time>
      </trkpt>
      <trkpt lat="49.25275" lon="-0.09679">
        <ele>5.5</ele>
        <time>2024-03-03T07:14:26Z</time>
      </trkpt>
      <trkpt lat="49.25268" lon="-0.09684">
        <ele>5.5</ele>
        <time>2024-03-03T07:14:27Z</time>
      </trkpt>
      <trkpt lat="49.25262" lon="-0.09689">
        <ele>5.6</ele>
        <time>2024-03-03T07:14:28Z</time>
      </trkpt>
      <trkpt lat="49.25255" lon="-0.09693">
        <ele>5.6</ele>
        <time>2024-03-03T07:14:29Z</time>
      </trkpt>
      <trkpt lat="49.25248" lon="-0.09696">
        <ele>5.6</ele>
        <time>2024-03-03T07:14:30Z</time>
      </trkpt>
      <trkpt lat="49.25241" lon="-0.097">
        <ele>5.6</ele>
        <time>2024-03-03T07:14:31Z</time>
      </trkpt>
      <trkpt lat="49.25235" lon="-0.09702">
        <ele>5.6</ele>
        <time>2024-03-03T07:14:32Z</time>
      </trkpt>
      <trkpt lat="49.25229" lon="-0.09705">
        <ele>5.5</ele>
        <time>2024-03-03T07:14:33Z</time>
      </trkpt>
      <trkpt lat="49.25222" lon="-0.09707">
        <ele>5.5</ele>
        <time>2024-03-03T07:14:34Z</time>
      </trkpt>
      <trkpt lat="49.25216" lon="-0.0971">
        <ele>5.5</ele>
        <time>2024-03-03T07:14:35Z</time>
      </trkpt>
      <trkpt lat="49.2521" lon="-0.09713">
        <ele>5.4</ele>
        <time>2024-03-03T07:14:36Z</time>
      </trkpt>
      <trkpt lat="49.25204" lon="-0.09715">
        <ele>5.3</ele>
        <time>2024-03-03T07:14:37Z</time>
      </trkpt>
      <trkpt lat="49.25198" lon="-0.09718">
        <ele>5.3</ele>
        <time>2024-03-03T07:14:38Z</time>
      </trkpt>
      <trkpt lat="49.25192" lon="-0.09721">
        <ele>5.2</ele>
        <time>2024-03-03T07:14:39Z</time>
      </trkpt>
      <trkpt lat="49.25185" lon="-0.09724">
        <ele>5.1</ele>
        <time>2024-03-03T07:14:40Z</time>
      </trkpt>
      <trkpt lat="49.25178" lon="-0.09726">
        <ele>5</ele>
        <time>2024-03-03T07:14:41Z</time>
      </trkpt>
      <trkpt lat="49.25172" lon="-0.09728">
        <ele>4.9</ele>
        <time>2024-03-03T07:14:42Z</time>
      </trkpt>
      <trkpt lat="49.25165" lon="-0.09731">
        <ele>4.9</ele>
        <time>2024-03-03T07:14:43Z</time>
      </trkpt>
      <trkpt lat="49.25159" lon="-0.09734">
        <ele>4.8</ele>
        <time>2024-03-03T07:14:44Z</time>
      </trkpt>
      <trkpt lat="49.25153" lon="-0.09738">
        <ele>4.8</ele>
        <time>2024-03-03T07:14:45Z</time>
      </trkpt>
      <trkpt lat="49.25147" lon="-0.09742">
        <ele>4.7</ele>
        <time>2024-03-03T07:14:46Z</time>
      </trkpt>
      <trkpt lat="49.25142" lon="-0.09747">
        <ele>4.7</ele>
        <time>2024-03-03T07:14:47Z</time>
      </trkpt>
      <trkpt lat="49.25137" lon="-0.09753">
        <ele>4.6</ele>
        <time>2024-03-03T07:14:48Z</time>
      </trkpt>
      <trkpt lat="49.25132" lon="-0.09761">
        <ele>4.5</ele>
        <time>2024-03-03T07:14:49Z</time>
      </trkpt>
      <trkpt lat="49.25128" lon="-0.09768">
        <ele>4.4</ele>
        <time>2024-03-03T07:14:50Z</time>
      </trkpt>
      <trkpt lat="49.25125" lon="-0.09775">
        <ele>4.4</ele>
        <time>2024-03-03T07:14:51Z</time>
      </trkpt>
      <trkpt lat="49.25121" lon="-0.09783">
        <ele>4.4</ele>
        <time>2024-03-03T07:14:52Z</time>
      </trkpt>
      <trkpt lat="49.25117" lon="-0.09791">
        <ele>4.3</ele>
        <time>2024-03-03T07:14:53Z</time>
      </trkpt>
      <trkpt lat="49.25114" lon="-0.098">
        <ele>4.3</ele>
        <time>2024-03-03T07:14:54Z</time>
      </trkpt>
      <trkpt lat="49.2511" lon="-0.09808">
        <ele>4.3</ele>
        <time>2024-03-03T07:14:55Z</time>
      </trkpt>
      <trkpt lat="49.25107" lon="-0.09817">
        <ele>4.2</ele>
        <time>2024-03-03T07:14:56Z</time>
      </trkpt>
      <trkpt lat="49.25103" lon="-0.09826">
        <ele>4.2</ele>
        <time>2024-03-03T07:14:57Z</time>
      </trkpt>
      <trkpt lat="49.25099" lon="-0.09834">
        <ele>4.2</ele>
        <time>2024-03-03T07:14:58Z</time>
      </trkpt>
      <trkpt lat="49.25097" lon="-0.09842">
        <ele>4.2</ele>
        <time>2024-03-03T07:14:59Z</time>
      </trkpt>
      <trkpt lat="49.25094" lon="-0.0985">
        <ele>4.2</ele>
        <time>2024-03-03T07:15:00Z</time>
      </trkpt>
      <trkpt lat="49.2509" lon="-0.09858">
        <ele>4.2</ele>
        <time>2024-03-03T07:15:01Z</time>
      </trkpt>
      <trkpt lat="49.25086" lon="-0.09868">
        <ele>4.2</ele>
        <time>2024-03-03T07:15:02Z</time>
      </trkpt>
      <trkpt lat="49.25083" lon="-0.09877">
        <ele>4.2</ele>
        <time>2024-03-03T07:15:03Z</time>
      </trkpt>
      <trkpt lat="49.25079" lon="-0.09886">
        <ele>4.2</ele>
        <time>2024-03-03T07:15:04Z</time>
      </trkpt>
      <trkpt lat="49.25077" lon="-0.09896">
        <ele>4.2</ele>
        <time>2024-03-03T07:15:05Z</time>
      </trkpt>
      <trkpt lat="49.25074" lon="-0.09905">
        <ele>4.3</ele>
        <time>2024-03-03T07:15:06Z</time>
      </trkpt>
      <trkpt lat="49.2507" lon="-0.09914">
        <ele>4.3</ele>
        <time>2024-03-03T07:15:07Z</time>
      </trkpt>
      <trkpt lat="49.25068" lon="-0.09922">
        <ele>4.3</ele>
        <time>2024-03-03T07:15:08Z</time>
      </trkpt>
      <trkpt lat="49.25065" lon="-0.0993">
        <ele>4.4</ele>
        <time>2024-03-03T07:15:09Z</time>
      </trkpt>
      <trkpt lat="49.25061" lon="-0.09938">
        <ele>4.4</ele>
        <time>2024-03-03T07:15:10Z</time>
      </trkpt>
      <trkpt lat="49.25058" lon="-0.09947">
        <ele>4.4</ele>
        <time>2024-03-03T07:15:11Z</time>
      </trkpt>
      <trkpt lat="49.25055" lon="-0.09955">
        <ele>4.4</ele>
        <time>2024-03-03T07:15:12Z</time>
      </trkpt>
      <trkpt lat="49.25052" lon="-0.09964">
        <ele>4.4</ele>
        <time>2024-03-03T07:15:13Z</time>
      </trkpt>
      <trkpt lat="49.25049" lon="-0.09974">
        <ele>4.4</ele>
        <time>2024-03-03T07:15:14Z</time>
      </trkpt>
      <trkpt lat="49.25047" lon="-0.09983">
        <ele>4.5</ele>
        <time>2024-03-03T07:15:15Z</time>
      </trkpt>
      <trkpt lat="49.25043" lon="-0.09992">
        <ele>4.5</ele>
        <time>2024-03-03T07:15:16Z</time>
      </trkpt>
      <trkpt lat="49.2504" lon="-0.1">
        <ele>4.6</ele>
        <time>2024-03-03T07:15:17Z</time>
      </trkpt>
      <trkpt lat="49.25038" lon="-0.10009">
        <ele>4.7</ele>
        <time>2024-03-03T07:15:18Z</time>
      </trkpt>
      <trkpt lat="49.25035" lon="-0.10018">
        <ele>4.8</ele>
        <time>2024-03-03T07:15:19Z</time>
      </trkpt>
      <trkpt lat="49.25033" lon="-0.10026">
        <ele>4.8</ele>
        <time>2024-03-03T07:15:20Z</time>
      </trkpt>
      <trkpt lat="49.2503" lon="-0.10034">
        <ele>4.9</ele>
        <time>2024-03-03T07:15:21Z</time>
      </trkpt>
      <trkpt lat="49.25026" lon="-0.10043">
        <ele>4.9</ele>
        <time>2024-03-03T07:15:22Z</time>
      </trkpt>
      <trkpt lat="49.25023" lon="-0.10052">
        <ele>4.9</ele>
        <time>2024-03-03T07:15:23Z</time>
      </trkpt>
      <trkpt lat="49.2502" lon="-0.1006">
        <ele>5</ele>
        <time>2024-03-03T07:15:24Z</time>
      </trkpt>
      <trkpt lat="49.25017" lon="-0.10068">
        <ele>5</ele>
        <time>2024-03-03T07:15:25Z</time>
      </trkpt>
      <trkpt lat="49.25015" lon="-0.10076">
        <ele>5.1</ele>
        <time>2024-03-03T07:15:26Z</time>
      </trkpt>
      <trkpt lat="49.25013" lon="-0.10084">
        <ele>5.1</ele>
        <time>2024-03-03T07:15:27Z</time>
      </trkpt>
      <trkpt lat="49.25009" lon="-0.10091">
        <ele>5.1</ele>
        <time>2024-03-03T07:15:28Z</time>
      </trkpt>
      <trkpt lat="49.25007" lon="-0.10099">
        <ele>5.2</ele>
        <time>2024-03-03T07:15:29Z</time>
      </trkpt>
      <trkpt lat="49.25005" lon="-0.10107">
        <ele>5.2</ele>
        <time>2024-03-03T07:15:30Z</time>
      </trkpt>
      <trkpt lat="49.25002" lon="-0.10115">
        <ele>5.3</ele>
        <time>2024-03-03T07:15:31Z</time>
      </trkpt>
      <trkpt lat="49.24999" lon="-0.10123">
        <ele>5.3</ele>
        <time>2024-03-03T07:15:32Z</time>
      </trkpt>
      <trkpt lat="49.24997" lon="-0.10131">
        <ele>5.4</ele>
        <time>2024-03-03T07:15:33Z</time>
      </trkpt>
      <trkpt lat="49.24994" lon="-0.10138">
        <ele>5.4</ele>
        <time>2024-03-03T07:15:34Z</time>
      </trkpt>
      <trkpt lat="49.24993" lon="-0.10145">
        <ele>5.5</ele>
        <time>2024-03-03T07:15:35Z</time>
      </trkpt>
      <trkpt lat="49.24991" lon="-0.10151">
        <ele>5.5</ele>
        <time>2024-03-03T07:15:36Z</time>
      </trkpt>
      <trkpt lat="49.2499" lon="-0.10157">
        <ele>5.5</ele>
        <time>2024-03-03T07:15:37Z</time>
      </trkpt>
      <trkpt lat="49.24988" lon="-0.10165">
        <ele>5.6</ele>
        <time>2024-03-03T07:15:38Z</time>
      </trkpt>
      <trkpt lat="49.24985" lon="-0.10173">
        <ele>5.6</ele>
        <time>2024-03-03T07:15:39Z</time>
      </trkpt>
      <trkpt lat="49.24982" lon="-0.10181">
        <ele>5.6</ele>
        <time>2024-03-03T07:15:40Z</time>
      </trkpt>
      <trkpt lat="49.2498" lon="-0.1019">
        <ele>5.6</ele>
        <time>2024-03-03T07:15:41Z</time>
      </trkpt>
      <trkpt lat="49.24977" lon="-0.10198">
        <ele>5.6</ele>
        <time>2024-03-03T07:15:42Z</time>
      </trkpt>
      <trkpt lat="49.24973" lon="-0.10206">
        <ele>5.6</ele>
        <time>2024-03-03T07:15:43Z</time>
      </trkpt>
      <trkpt lat="49.24969" lon="-0.10214">
        <ele>5.6</ele>
        <time>2024-03-03T07:15:44Z</time>
      </trkpt>
      <trkpt lat="49.24965" lon="-0.10223">
        <ele>5.7</ele>
        <time>2024-03-03T07:15:45Z</time>
      </trkpt>
      <trkpt lat="49.24959" lon="-0.10231">
        <ele>5.7</ele>
        <time>2024-03-03T07:15:46Z</time>
      </trkpt>
      <trkpt lat="49.24954" lon="-0.10239">
        <ele>5.8</ele>
        <time>2024-03-03T07:15:47Z</time>
      </trkpt>
      <trkpt lat="49.24949" lon="-0.10246">
        <ele>5.8</ele>
        <time>2024-03-03T07:15:48Z</time>
      </trkpt>
      <trkpt lat="49.24944" lon="-0.10253">
        <ele>5.9</ele>
        <time>2024-03-03T07:15:49Z</time>
      </trkpt>
      <trkpt lat="49.24938" lon="-0.10259">
        <ele>6</ele>
        <time>2024-03-03T07:15:50Z</time>
      </trkpt>
      <trkpt lat="49.24931" lon="-0.10265">
        <ele>6.1</ele>
        <time>2024-03-03T07:15:51Z</time>
      </trkpt>
      <trkpt lat="49.24925" lon="-0.10271">
        <ele>6.2</ele>
        <time>2024-03-03T07:15:52Z</time>
      </trkpt>
      <trkpt lat="49.24918" lon="-0.10276">
        <ele>6.3</ele>
        <time>2024-03-03T07:15:53Z</time>
      </trkpt>
      <trkpt lat="49.24911" lon="-0.10281">
        <ele>6.4</ele>
        <time>2024-03-03T07:15:54Z</time>
      </trkpt>
      <trkpt lat="49.24904" lon="-0.10285">
        <ele>6.4</ele>
        <time>2024-03-03T07:15:55Z</time>
      </trkpt>
      <trkpt lat="49.24897" lon="-0.10287">
        <ele>6.5</ele>
        <time>2024-03-03T07:15:56Z</time>
      </trkpt>
      <trkpt lat="49.2489" lon="-0.1029">
        <ele>6.5</ele>
        <time>2024-03-03T07:15:57Z</time>
      </trkpt>
      <trkpt lat="49.24882" lon="-0.10292">
        <ele>6.4</ele>
        <time>2024-03-03T07:15:58Z</time>
      </trkpt>
      <trkpt lat="49.24875" lon="-0.10292">
        <ele>6.4</ele>
        <time>2024-03-03T07:15:59Z</time>
      </trkpt>
      <trkpt lat="49.24867" lon="-0.10292">
        <ele>6.3</ele>
        <time>2024-03-03T07:16:00Z</time>
      </trkpt>
      <trkpt lat="49.2486" lon="-0.10291">
        <ele>6.2</ele>
        <time>2024-03-03T07:16:01Z</time>
      </trkpt>
      <trkpt lat="49.24853" lon="-0.10289">
        <ele>6.2</ele>
        <time>2024-03-03T07:16:02Z</time>
      </trkpt>
      <trkpt lat="49.24846" lon="-0.10287">
        <ele>6.1</ele>
        <time>2024-03-03T07:16:03Z</time>
      </trkpt>
      <trkpt lat="49.2484" lon="-0.10284">
        <ele>6.1</ele>
        <time>2024-03-03T07:16:04Z</time>
      </trkpt>
      <trkpt lat="49.24833" lon="-0.10281">
        <ele>6</ele>
        <time>2024-03-03T07:16:05Z</time>
      </trkpt>
      <trkpt lat="49.24827" lon="-0.10278">
        <ele>6</ele>
        <time>2024-03-03T07:16:06Z</time>
      </trkpt>
      <trkpt lat="49.24821" lon="-0.10275">
        <ele>5.9</ele>
        <time>2024-03-03T07:16:07Z</time>
      </trkpt>
      <trkpt lat="49.24815" lon="-0.10272">
        <ele>5.8</ele>
        <time>2024-03-03T07:16:08Z</time>
      </trkpt>
      <trkpt lat="49.24809" lon="-0.10269">
        <ele>5.8</ele>
        <time>2024-03-03T07:16:09Z</time>
      </trkpt>
      <trkpt lat="49.24804" lon="-0.10265">
        <ele>5.7</ele>
        <time>2024-03-03T07:16:10Z</time>
      </trkpt>
      <trkpt lat="49.24798" lon="-0.10261">
        <ele>5.6</ele>
        <time>2024-03-03T07:16:11Z</time>
      </trkpt>
      <trkpt lat="49.24792" lon="-0.10257">
        <ele>5.5</ele>
        <time>2024-03-03T07:16:12Z</time>
      </trkpt>
      <trkpt lat="49.24786" lon="-0.10253">
        <ele>5.4</ele>
        <time>2024-03-03T07:16:13Z</time>
      </trkpt>
      <trkpt lat="49.2478" lon="-0.10249">
        <ele>5.3</ele>
        <time>2024-03-03T07:16:14Z</time>
      </trkpt>
      <trkpt lat="49.24774" lon="-0.10244">
        <ele>5.2</ele>
        <time>2024-03-03T07:16:15Z</time>
      </trkpt>
      <trkpt lat="49.24768" lon="-0.1024">
        <ele>5.1</ele>
        <time>2024-03-03T07:16:16Z</time>
      </trkpt>
      <trkpt lat="49.24762" lon="-0.10236">
        <ele>5</ele>
        <time>2024-03-03T07:16:17Z</time>
      </trkpt>
      <trkpt lat="49.24755" lon="-0.10232">
        <ele>4.9</ele>
        <time>2024-03-03T07:16:18Z</time>
      </trkpt>
      <trkpt lat="49.24749" lon="-0.10227">
        <ele>4.8</ele>
        <time>2024-03-03T07:16:19Z</time>
      </trkpt>
      <trkpt lat="49.24742" lon="-0.10222">
        <ele>4.8</ele>
        <time>2024-03-03T07:16:20Z</time>
      </trkpt>
      <trkpt lat="49.24736" lon="-0.10217">
        <ele>4.7</ele>
        <time>2024-03-03T07:16:21Z</time>
      </trkpt>
      <trkpt lat="49.2473" lon="-0.10212">
        <ele>4.6</ele>
        <time>2024-03-03T07:16:22Z</time>
      </trkpt>
      <trkpt lat="49.24723" lon="-0.10206">
        <ele>4.5</ele>
        <time>2024-03-03T07:16:23Z</time>
      </trkpt>
      <trkpt lat="49.24717" lon="-0.102">
        <ele>4.5</ele>
        <time>2024-03-03T07:16:24Z</time>
      </trkpt>
      <trkpt lat="49.24711" lon="-0.10196">
        <ele>4.4</ele>
        <time>2024-03-03T07:16:25Z</time>
      </trkpt>
      <trkpt lat="49.24704" lon="-0.10191">
        <ele>4.3</ele>
        <time>2024-03-03T07:16:26Z</time>
      </trkpt>
      <trkpt lat="49.24698" lon="-0.10187">
        <ele>4.3</ele>
        <time>2024-03-03T07:16:27Z</time>
      </trkpt>
      <trkpt lat="49.24691" lon="-0.10182">
        <ele>4.3</ele>
        <time>2024-03-03T07:16:28Z</time>
      </trkpt>
      <trkpt lat="49.24686" lon="-0.10178">
        <ele>4.2</ele>
        <time>2024-03-03T07:16:29Z</time>
      </trkpt>
      <trkpt lat="49.2468" lon="-0.10174">
        <ele>4.2</ele>
        <time>2024-03-03T07:16:30Z</time>
      </trkpt>
      <trkpt lat="49.24674" lon="-0.10169">
        <ele>4.2</ele>
        <time>2024-03-03T07:16:31Z</time>
      </trkpt>
      <trkpt lat="49.24668" lon="-0.10164">
        <ele>4.2</ele>
        <time>2024-03-03T07:16:32Z</time>
      </trkpt>
      <trkpt lat="49.24661" lon="-0.1016">
        <ele>4.2</ele>
        <time>2024-03-03T07:16:33Z</time>
      </trkpt>
      <trkpt lat="49.24655" lon="-0.10155">
        <ele>4.2</ele>
        <time>2024-03-03T07:16:34Z</time>
      </trkpt>
      <trkpt lat="49.24648" lon="-0.1015">
        <ele>4.2</ele>
        <time>2024-03-03T07:16:35Z</time>
      </trkpt>
      <trkpt lat="49.24642" lon="-0.10146">
        <ele>4.2</ele>
        <time>2024-03-03T07:16:36Z</time>
      </trkpt>
      <trkpt lat="49.24636" lon="-0.10141">
        <ele>4.3</ele>
        <time>2024-03-03T07:16:37Z</time>
      </trkpt>
      <trkpt lat="49.2463" lon="-0.10137">
        <ele>4.3</ele>
        <time>2024-03-03T07:16:38Z</time>
      </trkpt>
      <trkpt lat="49.24625" lon="-0.10131">
        <ele>4.4</ele>
        <time>2024-03-03T07:16:39Z</time>
      </trkpt>
      <trkpt lat="49.2462" lon="-0.10127">
        <ele>4.5</ele>
        <time>2024-03-03T07:16:40Z</time>
      </trkpt>
      <trkpt lat="49.24614" lon="-0.10123">
        <ele>4.7</ele>
        <time>2024-03-03T07:16:41Z</time>
      </trkpt>
      <trkpt lat="49.24608" lon="-0.10119">
        <ele>4.8</ele>
        <time>2024-03-03T07:16:42Z</time>
      </trkpt>
      <trkpt lat="49.24602" lon="-0.10115">
        <ele>5</ele>
        <time>2024-03-03T07:16:43Z</time>
      </trkpt>
      <trkpt lat="49.24596" lon="-0.10111">
        <ele>5.2</ele>
        <time>2024-03-03T07:16:44Z</time>
      </trkpt>
      <trkpt lat="49.2459" lon="-0.10106">
        <ele>5.4</ele>
        <time>2024-03-03T07:16:45Z</time>
      </trkpt>
      <trkpt lat="49.24584" lon="-0.10102">
        <ele>5.7</ele>
        <time>2024-03-03T07:16:46Z</time>
      </trkpt>
      <trkpt lat="49.24579" lon="-0.10099">
        <ele>5.9</ele>
        <time>2024-03-03T07:16:47Z</time>
      </trkpt>
      <trkpt lat="49.24573" lon="-0.10095">
        <ele>6.1</ele>
        <time>2024-03-03T07:16:48Z</time>
      </trkpt>
      <trkpt lat="49.24567" lon="-0.10091">
        <ele>6.3</ele>
        <time>2024-03-03T07:16:49Z</time>
      </trkpt>
      <trkpt lat="49.24562" lon="-0.10088">
        <ele>6.3</ele>
        <time>2024-03-03T07:16:50Z</time>
      </trkpt>
      <trkpt lat="49.24557" lon="-0.10084">
        <ele>6.4</ele>
        <time>2024-03-03T07:16:51Z</time>
      </trkpt>
      <trkpt lat="49.24553" lon="-0.10081">
        <ele>6.6</ele>
        <time>2024-03-03T07:16:52Z</time>
      </trkpt>
      <trkpt lat="49.24548" lon="-0.10078">
        <ele>6.8</ele>
        <time>2024-03-03T07:16:53Z</time>
      </trkpt>
      <trkpt lat="49.24543" lon="-0.10076">
        <ele>6.9</ele>
        <time>2024-03-03T07:16:54Z</time>
      </trkpt>
      <trkpt lat="49.24539" lon="-0.10073">
        <ele>7.1</ele>
        <time>2024-03-03T07:16:55Z</time>
      </trkpt>
      <trkpt lat="49.24534" lon="-0.1007">
        <ele>7.4</ele>
        <time>2024-03-03T07:16:56Z</time>
      </trkpt>
      <trkpt lat="49.24529" lon="-0.10066">
        <ele>7.6</ele>
        <time>2024-03-03T07:16:57Z</time>
      </trkpt>
      <trkpt lat="49.24525" lon="-0.10062">
        <ele>7.8</ele>
        <time>2024-03-03T07:16:58Z</time>
      </trkpt>
      <trkpt lat="49.2452" lon="-0.10059">
        <ele>8</ele>
        <time>2024-03-03T07:16:59Z</time>
      </trkpt>
      <trkpt lat="49.24516" lon="-0.10056">
        <ele>8.2</ele>
        <time>2024-03-03T07:17:00Z</time>
      </trkpt>
      <trkpt lat="49.24512" lon="-0.10053">
        <ele>8.4</ele>
        <time>2024-03-03T07:17:01Z</time>
      </trkpt>
      <trkpt lat="49.24507" lon="-0.1005">
        <ele>8.6</ele>
        <time>2024-03-03T07:17:02Z</time>
      </trkpt>
      <trkpt lat="49.24503" lon="-0.10046">
        <ele>8.8</ele>
        <time>2024-03-03T07:17:03Z</time>
      </trkpt>
      <trkpt lat="49.24499" lon="-0.10043">
        <ele>9</ele>
        <time>2024-03-03T07:17:04Z</time>
      </trkpt>
      <trkpt lat="49.24495" lon="-0.1004">
        <ele>9.2</ele>
        <time>2024-03-03T07:17:05Z</time>
      </trkpt>
      <trkpt lat="49.24491" lon="-0.10038">
        <ele>9.4</ele>
        <time>2024-03-03T07:17:06Z</time>
      </trkpt>
      <trkpt lat="49.24486" lon="-0.10035">
        <ele>9.6</ele>
        <time>2024-03-03T07:17:07Z</time>
      </trkpt>
      <trkpt lat="49.24481" lon="-0.10031">
        <ele>9.8</ele>
        <time>2024-03-03T07:17:08Z</time>
      </trkpt>
      <trkpt lat="49.24477" lon="-0.10028">
        <ele>10</ele>
        <time>2024-03-03T07:17:09Z</time>
      </trkpt>
      <trkpt lat="49.24472" lon="-0.10025">
        <ele>10.2</ele>
        <time>2024-03-03T07:17:10Z</time>
      </trkpt>
      <trkpt lat="49.24468" lon="-0.10022">
        <ele>10.4</ele>
        <time>2024-03-03T07:17:11Z</time>
      </trkpt>
      <trkpt lat="49.24463" lon="-0.10018">
        <ele>10.6</ele>
        <time>2024-03-03T07:17:12Z</time>
      </trkpt>
      <trkpt lat="49.24459" lon="-0.10015">
        <ele>10.8</ele>
        <time>2024-03-03T07:17:13Z</time>
      </trkpt>
      <trkpt lat="49.24455" lon="-0.10011">
        <ele>10.9</ele>
        <time>2024-03-03T07:17:14Z</time>
      </trkpt>
      <trkpt lat="49.24452" lon="-0.10007">
        <ele>11.1</ele>
        <time>2024-03-03T07:17:15Z</time>
      </trkpt>
      <trkpt lat="49.24448" lon="-0.10001">
        <ele>11.3</ele>
        <time>2024-03-03T07:17:16Z</time>
      </trkpt>
      <trkpt lat="49.24445" lon="-0.09995">
        <ele>11.4</ele>
        <time>2024-03-03T07:17:17Z</time>
      </trkpt>
      <trkpt lat="49.24441" lon="-0.09989">
        <ele>11.6</ele>
        <time>2024-03-03T07:17:18Z</time>
      </trkpt>
      <trkpt lat="49.24438" lon="-0.09982">
        <ele>11.8</ele>
        <time>2024-03-03T07:17:19Z</time>
      </trkpt>
      <trkpt lat="49.24435" lon="-0.09975">
        <ele>11.9</ele>
        <time>2024-03-03T07:17:20Z</time>
      </trkpt>
      <trkpt lat="49.24433" lon="-0.09967">
        <ele>12.1</ele>
        <time>2024-03-03T07:17:21Z</time>
      </trkpt>
      <trkpt lat="49.2443" lon="-0.0996">
        <ele>12.2</ele>
        <time>2024-03-03T07:17:22Z</time>
      </trkpt>
      <trkpt lat="49.24428" lon="-0.09952">
        <ele>12.2</ele>
        <time>2024-03-03T07:17:23Z</time>
      </trkpt>
      <trkpt lat="49.24425" lon="-0.09944">
        <ele>12.3</ele>
        <time>2024-03-03T07:17:24Z</time>
      </trkpt>
      <trkpt lat="49.24423" lon="-0.09936">
        <ele>12.3</ele>
        <time>2024-03-03T07:17:25Z</time>
      </trkpt>
      <trkpt lat="49.24421" lon="-0.09927">
        <ele>12.2</ele>
        <time>2024-03-03T07:17:26Z</time>
      </trkpt>
      <trkpt lat="49.24419" lon="-0.09917">
        <ele>12.2</ele>
        <time>2024-03-03T07:17:27Z</time>
      </trkpt>
      <trkpt lat="49.24416" lon="-0.09908">
        <ele>12.1</ele>
        <time>2024-03-03T07:17:28Z</time>
      </trkpt>
      <trkpt lat="49.24414" lon="-0.09898">
        <ele>11.9</ele>
        <time>2024-03-03T07:17:29Z</time>
      </trkpt>
      <trkpt lat="49.24412" lon="-0.09888">
        <ele>11.8</ele>
        <time>2024-03-03T07:17:30Z</time>
      </trkpt>
      <trkpt lat="49.2441" lon="-0.09878">
        <ele>11.7</ele>
        <time>2024-03-03T07:17:31Z</time>
      </trkpt>
      <trkpt lat="49.24408" lon="-0.09868">
        <ele>11.6</ele>
        <time>2024-03-03T07:17:32Z</time>
      </trkpt>
      <trkpt lat="49.24406" lon="-0.09859">
        <ele>11.4</ele>
        <time>2024-03-03T07:17:33Z</time>
      </trkpt>
      <trkpt lat="49.24404" lon="-0.09849">
        <ele>11.2</ele>
        <time>2024-03-03T07:17:34Z</time>
      </trkpt>
      <trkpt lat="49.24402" lon="-0.09839">
        <ele>11.1</ele>
        <time>2024-03-03T07:17:35Z</time>
      </trkpt>
      <trkpt lat="49.24399" lon="-0.09829">
        <ele>10.9</ele>
        <time>2024-03-03T07:17:36Z</time>
      </trkpt>
      <trkpt lat="49.24397" lon="-0.09819">
        <ele>10.7</ele>
        <time>2024-03-03T07:17:37Z</time>
      </trkpt>
      <trkpt lat="49.24394" lon="-0.09809">
        <ele>10.5</ele>
        <time>2024-03-03T07:17:38Z</time>
      </trkpt>
      <trkpt lat="49.24391" lon="-0.09799">
        <ele>10.3</ele>
        <time>2024-03-03T07:17:39Z</time>
      </trkpt>
      <trkpt lat="49.24388" lon="-0.0979">
        <ele>10.1</ele>
        <time>2024-03-03T07:17:40Z</time>
      </trkpt>
      <trkpt lat="49.24384" lon="-0.09781">
        <ele>9.9</ele>
        <time>2024-03-03T07:17:41Z</time>
      </trkpt>
      <trkpt lat="49.2438" lon="-0.09773">
        <ele>9.7</ele>
        <time>2024-03-03T07:17:42Z</time>
      </trkpt>
      <trkpt lat="49.24375" lon="-0.09765">
        <ele>9.5</ele>
        <time>2024-03-03T07:17:43Z</time>
      </trkpt>
      <trkpt lat="49.2437" lon="-0.09757">
        <ele>9.3</ele>
        <time>2024-03-03T07:17:44Z</time>
      </trkpt>
      <trkpt lat="49.24364" lon="-0.0975">
        <ele>9.1</ele>
        <time>2024-03-03T07:17:45Z</time>
      </trkpt>
      <trkpt lat="49.24359" lon="-0.09743">
        <ele>8.9</ele>
        <time>2024-03-03T07:17:46Z</time>
      </trkpt>
      <trkpt lat="49.24353" lon="-0.09736">
        <ele>8.7</ele>
        <time>2024-03-03T07:17:47Z</time>
      </trkpt>
      <trkpt lat="49.24348" lon="-0.09729">
        <ele>8.5</ele>
        <time>2024-03-03T07:17:48Z</time>
      </trkpt>
      <trkpt lat="49.24342" lon="-0.09723">
        <ele>8.3</ele>
        <time>2024-03-03T07:17:49Z</time>
      </trkpt>
      <trkpt lat="49.24336" lon="-0.09717">
        <ele>8.2</ele>
        <time>2024-03-03T07:17:50Z</time>
      </trkpt>
      <trkpt lat="49.2433" lon="-0.09712">
        <ele>8</ele>
        <time>2024-03-03T07:17:51Z</time>
      </trkpt>
      <trkpt lat="49.24324" lon="-0.09707">
        <ele>7.9</ele>
        <time>2024-03-03T07:17:52Z</time>
      </trkpt>
      <trkpt lat="49.24318" lon="-0.09702">
        <ele>7.8</ele>
        <time>2024-03-03T07:17:53Z</time>
      </trkpt>
      <trkpt lat="49.24312" lon="-0.09697">
        <ele>7.8</ele>
        <time>2024-03-03T07:17:54Z</time>
      </trkpt>
      <trkpt lat="49.24306" lon="-0.09691">
        <ele>7.8</ele>
        <time>2024-03-03T07:17:55Z</time>
      </trkpt>
      <trkpt lat="49.24301" lon="-0.09685">
        <ele>7.8</ele>
        <time>2024-03-03T07:17:56Z</time>
      </trkpt>
      <trkpt lat="49.24295" lon="-0.0968">
        <ele>7.8</ele>
        <time>2024-03-03T07:17:57Z</time>
      </trkpt>
      <trkpt lat="49.2429" lon="-0.09674">
        <ele>7.8</ele>
        <time>2024-03-03T07:17:58Z</time>
      </trkpt>
      <trkpt lat="49.24284" lon="-0.09668">
        <ele>7.8</ele>
        <time>2024-03-03T07:17:59Z</time>
      </trkpt>
      <trkpt lat="49.24279" lon="-0.09662">
        <ele>7.9</ele>
        <time>2024-03-03T07:18:00Z</time>
      </trkpt>
      <trkpt lat="49.24275" lon="-0.09656">
        <ele>7.9</ele>
        <time>2024-03-03T07:18:01Z</time>
      </trkpt>
      <trkpt lat="49.2427" lon="-0.09651">
        <ele>7.9</ele>
        <time>2024-03-03T07:18:02Z</time>
      </trkpt>
      <trkpt lat="49.24265" lon="-0.09645">
        <ele>8</ele>
        <time>2024-03-03T07:18:03Z</time>
      </trkpt>
      <trkpt lat="49.2426" lon="-0.09639">
        <ele>8</ele>
        <time>2024-03-03T07:18:04Z</time>
      </trkpt>
      <trkpt lat="49.24254" lon="-0.09634">
        <ele>8.1</ele>
        <time>2024-03-03T07:18:05Z</time>
      </trkpt>
      <trkpt lat="49.24249" lon="-0.09629">
        <ele>8.2</ele>
        <time>2024-03-03T07:18:06Z</time>
      </trkpt>
      <trkpt lat="49.24244" lon="-0.09624">
        <ele>8.3</ele>
        <time>2024-03-03T07:18:07Z</time>
      </trkpt>
      <trkpt lat="49.24239" lon="-0.09619">
        <ele>8.3</ele>
        <time>2024-03-03T07:18:08Z</time>
      </trkpt>
      <trkpt lat="49.24234" lon="-0.09613">
        <ele>8.4</ele>
        <time>2024-03-03T07:18:09Z</time>
      </trkpt>
      <trkpt lat="49.24229" lon="-0.09607">
        <ele>8.4</ele>
        <time>2024-03-03T07:18:10Z</time>
      </trkpt>
      <trkpt lat="49.24224" lon="-0.096">
        <ele>8.4</ele>
        <time>2024-03-03T07:18:11Z</time>
      </trkpt>
      <trkpt lat="49.24219" lon="-0.09594">
        <ele>8.4</ele>
        <time>2024-03-03T07:18:12Z</time>
      </trkpt>
      <trkpt lat="49.24215" lon="-0.09588">
        <ele>8.4</ele>
        <time>2024-03-03T07:18:13Z</time>
      </trkpt>
      <trkpt lat="49.2421" lon="-0.09583">
        <ele>8.4</ele>
        <time>2024-03-03T07:18:14Z</time>
      </trkpt>
      <trkpt lat="49.24205" lon="-0.09578">
        <ele>8.5</ele>
        <time>2024-03-03T07:18:15Z</time>
      </trkpt>
      <trkpt lat="49.24199" lon="-0.09571">
        <ele>8.5</ele>
        <time>2024-03-03T07:18:16Z</time>
      </trkpt>
      <trkpt lat="49.24195" lon="-0.09564">
        <ele>8.5</ele>
        <time>2024-03-03T07:18:17Z</time>
      </trkpt>
      <trkpt lat="49.2419" lon="-0.09556">
        <ele>8.5</ele>
        <time>2024-03-03T07:18:18Z</time>
      </trkpt>
      <trkpt lat="49.24186" lon="-0.09548">
        <ele>8.5</ele>
        <time>2024-03-03T07:18:19Z</time>
      </trkpt>
      <trkpt lat="49.24182" lon="-0.0954">
        <ele>8.5</ele>
        <time>2024-03-03T07:18:20Z</time>
      </trkpt>
      <trkpt lat="49.24178" lon="-0.09532">
        <ele>8.5</ele>
        <time>2024-03-03T07:18:21Z</time>
      </trkpt>
      <trkpt lat="49.24175" lon="-0.09524">
        <ele>8.5</ele>
        <time>2024-03-03T07:18:22Z</time>
      </trkpt>
      <trkpt lat="49.24172" lon="-0.09515">
        <ele>8.4</ele>
        <time>2024-03-03T07:18:23Z</time>
      </trkpt>
      <trkpt lat="49.2417" lon="-0.09505">
        <ele>8.4</ele>
        <time>2024-03-03T07:18:24Z</time>
      </trkpt>
      <trkpt lat="49.24167" lon="-0.09494">
        <ele>8.4</ele>
        <time>2024-03-03T07:18:25Z</time>
      </trkpt>
      <trkpt lat="49.24165" lon="-0.09484">
        <ele>8.3</ele>
        <time>2024-03-03T07:18:26Z</time>
      </trkpt>
      <trkpt lat="49.24163" lon="-0.09475">
        <ele>8.2</ele>
        <time>2024-03-03T07:18:27Z</time>
      </trkpt>
      <trkpt lat="49.24161" lon="-0.09464">
        <ele>8.2</ele>
        <time>2024-03-03T07:18:28Z</time>
      </trkpt>
      <trkpt lat="49.2416" lon="-0.09455">
        <ele>8.1</ele>
        <time>2024-03-03T07:18:29Z</time>
      </trkpt>
      <trkpt lat="49.24158" lon="-0.09446">
        <ele>8.1</ele>
        <time>2024-03-03T07:18:30Z</time>
      </trkpt>
      <trkpt lat="49.24156" lon="-0.09436">
        <ele>8.1</ele>
        <time>2024-03-03T07:18:31Z</time>
      </trkpt>
      <trkpt lat="49.24154" lon="-0.09426">
        <ele>8</ele>
        <time>2024-03-03T07:18:32Z</time>
      </trkpt>
      <trkpt lat="49.24152" lon="-0.09417">
        <ele>8</ele>
        <time>2024-03-03T07:18:33Z</time>
      </trkpt>
      <trkpt lat="49.24151" lon="-0.09408">
        <ele>8</ele>
        <time>2024-03-03T07:18:34Z</time>
      </trkpt>
      <trkpt lat="49.2415" lon="-0.09398">
        <ele>7.9</ele>
        <time>2024-03-03T07:18:35Z</time>
      </trkpt>
      <trkpt lat="49.24149" lon="-0.09388">
        <ele>7.9</ele>
        <time>2024-03-03T07:18:36Z</time>
      </trkpt>
      <trkpt lat="49.24148" lon="-0.09379">
        <ele>7.8</ele>
        <time>2024-03-03T07:18:37Z</time>
      </trkpt>
      <trkpt lat="49.24147" lon="-0.09369">
        <ele>7.8</ele>
        <time>2024-03-03T07:18:38Z</time>
      </trkpt>
      <trkpt lat="49.24145" lon="-0.09359">
        <ele>7.8</ele>
        <time>2024-03-03T07:18:39Z</time>
      </trkpt>
      <trkpt lat="49.24144" lon="-0.09348">
        <ele>7.7</ele>
        <time>2024-03-03T07:18:40Z</time>
      </trkpt>
      <trkpt lat="49.24142" lon="-0.09339">
        <ele>7.7</ele>
        <time>2024-03-03T07:18:41Z</time>
      </trkpt>
      <trkpt lat="49.2414" lon="-0.09329">
        <ele>7.6</ele>
        <time>2024-03-03T07:18:42Z</time>
      </trkpt>
      <trkpt lat="49.24138" lon="-0.09318">
        <ele>7.5</ele>
        <time>2024-03-03T07:18:43Z</time>
      </trkpt>
      <trkpt lat="49.24137" lon="-0.09307">
        <ele>7.5</ele>
        <time>2024-03-03T07:18:44Z</time>
      </trkpt>
      <trkpt lat="49.24136" lon="-0.09297">
        <ele>7.5</ele>
        <time>2024-03-03T07:18:45Z</time>
      </trkpt>
      <trkpt lat="49.24135" lon="-0.09286">
        <ele>7.4</ele>
        <time>2024-03-03T07:18:46Z</time>
      </trkpt>
      <trkpt lat="49.24133" lon="-0.09276">
        <ele>7.4</ele>
        <time>2024-03-03T07:18:47Z</time>
      </trkpt>
      <trkpt lat="49.24131" lon="-0.09265">
        <ele>7.4</ele>
        <time>2024-03-03T07:18:48Z</time>
      </trkpt>
      <trkpt lat="49.2413" lon="-0.09255">
        <ele>7.4</ele>
        <time>2024-03-03T07:18:49Z</time>
      </trkpt>
      <trkpt lat="49.24128" lon="-0.09245">
        <ele>7.4</ele>
        <time>2024-03-03T07:18:50Z</time>
      </trkpt>
      <trkpt lat="49.24127" lon="-0.09236">
        <ele>7.4</ele>
        <time>2024-03-03T07:18:51Z</time>
      </trkpt>
      <trkpt lat="49.24125" lon="-0.09227">
        <ele>7.3</ele>
        <time>2024-03-03T07:18:52Z</time>
      </trkpt>
      <trkpt lat="49.24123" lon="-0.09218">
        <ele>7.3</ele>
        <time>2024-03-03T07:18:53Z</time>
      </trkpt>
      <trkpt lat="49.24122" lon="-0.09209">
        <ele>7.3</ele>
        <time>2024-03-03T07:18:54Z</time>
      </trkpt>
      <trkpt lat="49.2412" lon="-0.09199">
        <ele>7.3</ele>
        <time>2024-03-03T07:18:55Z</time>
      </trkpt>
      <trkpt lat="49.24118" lon="-0.09189">
        <ele>7.3</ele>
        <time>2024-03-03T07:18:56Z</time>
      </trkpt>
      <trkpt lat="49.24116" lon="-0.0918">
        <ele>7.3</ele>
        <time>2024-03-03T07:18:57Z</time>
      </trkpt>
      <trkpt lat="49.24114" lon="-0.09171">
        <ele>7.3</ele>
        <time>2024-03-03T07:18:58Z</time>
      </trkpt>
      <trkpt lat="49.24112" lon="-0.09162">
        <ele>7.2</ele>
        <time>2024-03-03T07:18:59Z</time>
      </trkpt>
      <trkpt lat="49.24109" lon="-0.09154">
        <ele>7.2</ele>
        <time>2024-03-03T07:19:00Z</time>
      </trkpt>
      <trkpt lat="49.24106" lon="-0.09145">
        <ele>7.2</ele>
        <time>2024-03-03T07:19:01Z</time>
      </trkpt>
      <trkpt lat="49.24103" lon="-0.09136">
        <ele>7.2</ele>
        <time>2024-03-03T07:19:02Z</time>
      </trkpt>
      <trkpt lat="49.24101" lon="-0.09126">
        <ele>7.2</ele>
        <time>2024-03-03T07:19:03Z</time>
      </trkpt>
      <trkpt lat="49.24098" lon="-0.09117">
        <ele>7.2</ele>
        <time>2024-03-03T07:19:04Z</time>
      </trkpt>
      <trkpt lat="49.24095" lon="-0.09108">
        <ele>7.2</ele>
        <time>2024-03-03T07:19:05Z</time>
      </trkpt>
      <trkpt lat="49.24093" lon="-0.091">
        <ele>7.2</ele>
        <time>2024-03-03T07:19:06Z</time>
      </trkpt>
      <trkpt lat="49.24089" lon="-0.09092">
        <ele>7.2</ele>
        <time>2024-03-03T07:19:07Z</time>
      </trkpt>
      <trkpt lat="49.24085" lon="-0.09083">
        <ele>7.2</ele>
        <time>2024-03-03T07:19:08Z</time>
      </trkpt>
      <trkpt lat="49.24081" lon="-0.09076">
        <ele>7.2</ele>
        <time>2024-03-03T07:19:09Z</time>
      </trkpt>
      <trkpt lat="49.24076" lon="-0.0907">
        <ele>7.2</ele>
        <time>2024-03-03T07:19:10Z</time>
      </trkpt>
      <trkpt lat="49.24071" lon="-0.09063">
        <ele>7.1</ele>
        <time>2024-03-03T07:19:11Z</time>
      </trkpt>
      <trkpt lat="49.24065" lon="-0.09057">
        <ele>7.1</ele>
        <time>2024-03-03T07:19:12Z</time>
      </trkpt>
      <trkpt lat="49.24059" lon="-0.09053">
        <ele>7.1</ele>
        <time>2024-03-03T07:19:13Z</time>
      </trkpt>
      <trkpt lat="49.24054" lon="-0.09049">
        <ele>7.1</ele>
        <time>2024-03-03T07:19:14Z</time>
      </trkpt>
      <trkpt lat="49.24048" lon="-0.09045">
        <ele>7.1</ele>
        <time>2024-03-03T07:19:15Z</time>
      </trkpt>
      <trkpt lat="49.24042" lon="-0.09041">
        <ele>7.1</ele>
        <time>2024-03-03T07:19:16Z</time>
      </trkpt>
      <trkpt lat="49.24037" lon="-0.09036">
        <ele>7.1</ele>
        <time>2024-03-03T07:19:17Z</time>
      </trkpt>
      <trkpt lat="49.24031" lon="-0.09032">
        <ele>7.1</ele>
        <time>2024-03-03T07:19:18Z</time>
      </trkpt>
      <trkpt lat="49.24025" lon="-0.09026">
        <ele>7.1</ele>
        <time>2024-03-03T07:19:19Z</time>
      </trkpt>
      <trkpt lat="49.2402" lon="-0.0902">
        <ele>7</ele>
        <time>2024-03-03T07:19:20Z</time>
      </trkpt>
      <trkpt lat="49.24014" lon="-0.09015">
        <ele>7</ele>
        <time>2024-03-03T07:19:21Z</time>
      </trkpt>
      <trkpt lat="49.24009" lon="-0.0901">
        <ele>7</ele>
        <time>2024-03-03T07:19:22Z</time>
      </trkpt>
      <trkpt lat="49.24004" lon="-0.09005">
        <ele>7</ele>
        <time>2024-03-03T07:19:23Z</time>
      </trkpt>
      <trkpt lat="49.23999" lon="-0.09">
        <ele>7</ele>
        <time>2024-03-03T07:19:24Z</time>
      </trkpt>
      <trkpt lat="49.23994" lon="-0.08994">
        <ele>7</ele>
        <time>2024-03-03T07:19:25Z</time>
      </trkpt>
      <trkpt lat="49.23989" lon="-0.08988">
        <ele>7</ele>
        <time>2024-03-03T07:19:26Z</time>
      </trkpt>
      <trkpt lat="49.23985" lon="-0.08981">
        <ele>7.1</ele>
        <time>2024-03-03T07:19:27Z</time>
      </trkpt>
      <trkpt lat="49.2398" lon="-0.08972">
        <ele>7.1</ele>
        <time>2024-03-03T07:19:28Z</time>
      </trkpt>
      <trkpt lat="49.23976" lon="-0.08962">
        <ele>7.1</ele>
        <time>2024-03-03T07:19:29Z</time>
      </trkpt>
      <trkpt lat="49.23972" lon="-0.08951">
        <ele>7.1</ele>
        <time>2024-03-03T07:19:30Z</time>
      </trkpt>
      <trkpt lat="49.23969" lon="-0.08942">
        <ele>7.1</ele>
        <time>2024-03-03T07:19:31Z</time>
      </trkpt>
      <trkpt lat="49.23967" lon="-0.08932">
        <ele>7.2</ele>
        <time>2024-03-03T07:19:32Z</time>
      </trkpt>
      <trkpt lat="49.23965" lon="-0.08921">
        <ele>7.2</ele>
        <time>2024-03-03T07:19:33Z</time>
      </trkpt>
      <trkpt lat="49.23964" lon="-0.08911">
        <ele>7.2</ele>
        <time>2024-03-03T07:19:34Z</time>
      </trkpt>
      <trkpt lat="49.23963" lon="-0.089">
        <ele>7.2</ele>
        <time>2024-03-03T07:19:35Z</time>
      </trkpt>
      <trkpt lat="49.23961" lon="-0.0889">
        <ele>7.2</ele>
        <time>2024-03-03T07:19:36Z</time>
      </trkpt>
      <trkpt lat="49.2396" lon="-0.08881">
        <ele>7.2</ele>
        <time>2024-03-03T07:19:37Z</time>
      </trkpt>
      <trkpt lat="49.23958" lon="-0.08871">
        <ele>7.2</ele>
        <time>2024-03-03T07:19:38Z</time>
      </trkpt>
      <trkpt lat="49.23957" lon="-0.08861">
        <ele>7.3</ele>
        <time>2024-03-03T07:19:39Z</time>
      </trkpt>
      <trkpt lat="49.23956" lon="-0.08852">
        <ele>7.3</ele>
        <time>2024-03-03T07:19:40Z</time>
      </trkpt>
      <trkpt lat="49.23955" lon="-0.08843">
        <ele>7.3</ele>
        <time>2024-03-03T07:19:41Z</time>
      </trkpt>
      <trkpt lat="49.23954" lon="-0.08833">
        <ele>7.3</ele>
        <time>2024-03-03T07:19:42Z</time>
      </trkpt>
      <trkpt lat="49.23951" lon="-0.08823">
        <ele>7.4</ele>
        <time>2024-03-03T07:19:43Z</time>
      </trkpt>
      <trkpt lat="49.2395" lon="-0.08813">
        <ele>7.4</ele>
        <time>2024-03-03T07:19:44Z</time>
      </trkpt>
      <trkpt lat="49.23948" lon="-0.08803">
        <ele>7.4</ele>
        <time>2024-03-03T07:19:45Z</time>
      </trkpt>
      <trkpt lat="49.23945" lon="-0.08792">
        <ele>7.4</ele>
        <time>2024-03-03T07:19:46Z</time>
      </trkpt>
      <trkpt lat="49.23943" lon="-0.08782">
        <ele>7.4</ele>
        <time>2024-03-03T07:19:47Z</time>
      </trkpt>
      <trkpt lat="49.23941" lon="-0.08773">
        <ele>7.4</ele>
        <time>2024-03-03T07:19:48Z</time>
      </trkpt>
      <trkpt lat="49.2394" lon="-0.08763">
        <ele>7.4</ele>
        <time>2024-03-03T07:19:49Z</time>
      </trkpt>
      <trkpt lat="49.23938" lon="-0.08754">
        <ele>7.4</ele>
        <time>2024-03-03T07:19:50Z</time>
      </trkpt>
      <trkpt lat="49.23935" lon="-0.08745">
        <ele>7.4</ele>
        <time>2024-03-03T07:19:51Z</time>
      </trkpt>
      <trkpt lat="49.23933" lon="-0.08735">
        <ele>7.4</ele>
        <time>2024-03-03T07:19:52Z</time>
      </trkpt>
      <trkpt lat="49.23931" lon="-0.08725">
        <ele>7.4</ele>
        <time>2024-03-03T07:19:53Z</time>
      </trkpt>
      <trkpt lat="49.23929" lon="-0.08715">
        <ele>7.4</ele>
        <time>2024-03-03T07:19:54Z</time>
      </trkpt>
      <trkpt lat="49.23928" lon="-0.08704">
        <ele>7.4</ele>
        <time>2024-03-03T07:19:55Z</time>
      </trkpt>
      <trkpt lat="49.23926" lon="-0.08694">
        <ele>7.4</ele>
        <time>2024-03-03T07:19:56Z</time>
      </trkpt>
      <trkpt lat="49.23924" lon="-0.08684">
        <ele>7.4</ele>
        <time>2024-03-03T07:19:57Z</time>
      </trkpt>
      <trkpt lat="49.23923" lon="-0.08675">
        <ele>7.5</ele>
        <time>2024-03-03T07:19:58Z</time>
      </trkpt>
      <trkpt lat="49.23923" lon="-0.08665">
        <ele>7.5</ele>
        <time>2024-03-03T07:19:59Z</time>
      </trkpt>
      <trkpt lat="49.23921" lon="-0.08655">
        <ele>7.5</ele>
        <time>2024-03-03T07:20:00Z</time>
      </trkpt>
      <trkpt lat="49.2392" lon="-0.08645">
        <ele>7.5</ele>
        <time>2024-03-03T07:20:01Z</time>
      </trkpt>
      <trkpt lat="49.23919" lon="-0.08635">
        <ele>7.5</ele>
        <time>2024-03-03T07:20:02Z</time>
      </trkpt>
      <trkpt lat="49.23918" lon="-0.08626">
        <ele>7.5</ele>
        <time>2024-03-03T07:20:03Z</time>
      </trkpt>
      <trkpt lat="49.23917" lon="-0.08616">
        <ele>7.5</ele>
        <time>2024-03-03T07:20:04Z</time>
      </trkpt>
      <trkpt lat="49.23915" lon="-0.08606">
        <ele>7.6</ele>
        <time>2024-03-03T07:20:05Z</time>
      </trkpt>
      <trkpt lat="49.23914" lon="-0.08596">
        <ele>7.6</ele>
        <time>2024-03-03T07:20:06Z</time>
      </trkpt>
      <trkpt lat="49.23913" lon="-0.08587">
        <ele>7.6</ele>
        <time>2024-03-03T07:20:07Z</time>
      </trkpt>
      <trkpt lat="49.23911" lon="-0.08578">
        <ele>7.6</ele>
        <time>2024-03-03T07:20:08Z</time>
      </trkpt>
      <trkpt lat="49.23909" lon="-0.08569">
        <ele>7.6</ele>
        <time>2024-03-03T07:20:09Z</time>
      </trkpt>
      <trkpt lat="49.23907" lon="-0.08561">
        <ele>7.6</ele>
        <time>2024-03-03T07:20:10Z</time>
      </trkpt>
      <trkpt lat="49.23904" lon="-0.08552">
        <ele>7.6</ele>
        <time>2024-03-03T07:20:11Z</time>
      </trkpt>
      <trkpt lat="49.23901" lon="-0.08543">
        <ele>7.6</ele>
        <time>2024-03-03T07:20:12Z</time>
      </trkpt>
      <trkpt lat="49.23899" lon="-0.08535">
        <ele>7.6</ele>
        <time>2024-03-03T07:20:13Z</time>
      </trkpt>
      <trkpt lat="49.23896" lon="-0.08526">
        <ele>7.6</ele>
        <time>2024-03-03T07:20:14Z</time>
      </trkpt>
      <trkpt lat="49.23894" lon="-0.08517">
        <ele>7.6</ele>
        <time>2024-03-03T07:20:15Z</time>
      </trkpt>
      <trkpt lat="49.23892" lon="-0.08508">
        <ele>7.5</ele>
        <time>2024-03-03T07:20:16Z</time>
      </trkpt>
      <trkpt lat="49.23889" lon="-0.08498">
        <ele>7.5</ele>
        <time>2024-03-03T07:20:17Z</time>
      </trkpt>
      <trkpt lat="49.23887" lon="-0.08489">
        <ele>7.5</ele>
        <time>2024-03-03T07:20:18Z</time>
      </trkpt>
      <trkpt lat="49.23884" lon="-0.0848">
        <ele>7.5</ele>
        <time>2024-03-03T07:20:19Z</time>
      </trkpt>
      <trkpt lat="49.23883" lon="-0.0847">
        <ele>7.5</ele>
        <time>2024-03-03T07:20:20Z</time>
      </trkpt>
      <trkpt lat="49.23881" lon="-0.08459">
        <ele>7.5</ele>
        <time>2024-03-03T07:20:21Z</time>
      </trkpt>
      <trkpt lat="49.23879" lon="-0.08449">
        <ele>7.6</ele>
        <time>2024-03-03T07:20:22Z</time>
      </trkpt>
      <trkpt lat="49.23878" lon="-0.0844">
        <ele>7.6</ele>
        <time>2024-03-03T07:20:23Z</time>
      </trkpt>
      <trkpt lat="49.23877" lon="-0.0843">
        <ele>7.6</ele>
        <time>2024-03-03T07:20:24Z</time>
      </trkpt>
      <trkpt lat="49.23877" lon="-0.0842">
        <ele>7.6</ele>
        <time>2024-03-03T07:20:25Z</time>
      </trkpt>
      <trkpt lat="49.23877" lon="-0.0841">
        <ele>7.7</ele>
        <time>2024-03-03T07:20:26Z</time>
      </trkpt>
      <trkpt lat="49.23877" lon="-0.08401">
        <ele>7.7</ele>
        <time>2024-03-03T07:20:27Z</time>
      </trkpt>
      <trkpt lat="49.23878" lon="-0.08391">
        <ele>7.7</ele>
        <time>2024-03-03T07:20:28Z</time>
      </trkpt>
      <trkpt lat="49.23878" lon="-0.08382">
        <ele>7.7</ele>
        <time>2024-03-03T07:20:29Z</time>
      </trkpt>
      <trkpt lat="49.23878" lon="-0.08372">
        <ele>7.7</ele>
        <time>2024-03-03T07:20:30Z</time>
      </trkpt>
      <trkpt lat="49.23878" lon="-0.08362">
        <ele>7.7</ele>
        <time>2024-03-03T07:20:31Z</time>
      </trkpt>
      <trkpt lat="49.23879" lon="-0.08351">
        <ele>7.7</ele>
        <time>2024-03-03T07:20:32Z</time>
      </trkpt>
      <trkpt lat="49.23879" lon="-0.08341">
        <ele>7.8</ele>
        <time>2024-03-03T07:20:33Z</time>
      </trkpt>
      <trkpt lat="49.23879" lon="-0.08332">
        <ele>7.8</ele>
        <time>2024-03-03T07:20:34Z</time>
      </trkpt>
      <trkpt lat="49.23879" lon="-0.08321">
        <ele>7.9</ele>
        <time>2024-03-03T07:20:35Z</time>
      </trkpt>
      <trkpt lat="49.23878" lon="-0.08312">
        <ele>7.9</ele>
        <time>2024-03-03T07:20:36Z</time>
      </trkpt>
      <trkpt lat="49.23877" lon="-0.08303">
        <ele>8</ele>
        <time>2024-03-03T07:20:37Z</time>
      </trkpt>
      <trkpt lat="49.23876" lon="-0.08294">
        <ele>8</ele>
        <time>2024-03-03T07:20:38Z</time>
      </trkpt>
      <trkpt lat="49.23874" lon="-0.08286">
        <ele>8.1</ele>
        <time>2024-03-03T07:20:39Z</time>
      </trkpt>
      <trkpt lat="49.23872" lon="-0.08277">
        <ele>8.1</ele>
        <time>2024-03-03T07:20:40Z</time>
      </trkpt>
      <trkpt lat="49.23869" lon="-0.08269">
        <ele>8.2</ele>
        <time>2024-03-03T07:20:41Z</time>
      </trkpt>
      <trkpt lat="49.23866" lon="-0.08263">
        <ele>8.2</ele>
        <time>2024-03-03T07:20:42Z</time>
      </trkpt>
      <trkpt lat="49.23861" lon="-0.08256">
        <ele>8.2</ele>
        <time>2024-03-03T07:20:43Z</time>
      </trkpt>
      <trkpt lat="49.23856" lon="-0.08249">
        <ele>8.1</ele>
        <time>2024-03-03T07:20:44Z</time>
      </trkpt>
      <trkpt lat="49.23852" lon="-0.0824">
        <ele>8</ele>
        <time>2024-03-03T07:20:45Z</time>
      </trkpt>
      <trkpt lat="49.23848" lon="-0.08232">
        <ele>7.9</ele>
        <time>2024-03-03T07:20:46Z</time>
      </trkpt>
      <trkpt lat="49.23843" lon="-0.08225">
        <ele>7.8</ele>
        <time>2024-03-03T07:20:47Z</time>
      </trkpt>
      <trkpt lat="49.23838" lon="-0.08217">
        <ele>7.7</ele>
        <time>2024-03-03T07:20:48Z</time>
      </trkpt>
      <trkpt lat="49.23834" lon="-0.08209">
        <ele>7.5</ele>
        <time>2024-03-03T07:20:49Z</time>
      </trkpt>
      <trkpt lat="49.23828" lon="-0.08201">
        <ele>7.4</ele>
        <time>2024-03-03T07:20:50Z</time>
      </trkpt>
      <trkpt lat="49.23823" lon="-0.08193">
        <ele>7.3</ele>
        <time>2024-03-03T07:20:51Z</time>
      </trkpt>
      <trkpt lat="49.23817" lon="-0.08185">
        <ele>7.1</ele>
        <time>2024-03-03T07:20:52Z</time>
      </trkpt>
      <trkpt lat="49.23812" lon="-0.08178">
        <ele>7</ele>
        <time>2024-03-03T07:20:53Z</time>
      </trkpt>
      <trkpt lat="49.23807" lon="-0.08172">
        <ele>6.9</ele>
        <time>2024-03-03T07:20:54Z</time>
      </trkpt>
      <trkpt lat="49.23801" lon="-0.08165">
        <ele>6.8</ele>
        <time>2024-03-03T07:20:55Z</time>
      </trkpt>
      <trkpt lat="49.23795" lon="-0.08158">
        <ele>6.7</ele>
        <time>2024-03-03T07:20:56Z</time>
      </trkpt>
      <trkpt lat="49.2379" lon="-0.08151">
        <ele>6.6</ele>
        <time>2024-03-03T07:20:57Z</time>
      </trkpt>
      <trkpt lat="49.23784" lon="-0.08144">
        <ele>6.6</ele>
        <time>2024-03-03T07:20:58Z</time>
      </trkpt>
      <trkpt lat="49.23779" lon="-0.08138">
        <ele>6.5</ele>
        <time>2024-03-03T07:20:59Z</time>
      </trkpt>
      <trkpt lat="49.23773" lon="-0.08132">
        <ele>6.4</ele>
        <time>2024-03-03T07:21:00Z</time>
      </trkpt>
      <trkpt lat="49.23767" lon="-0.08126">
        <ele>6.4</ele>
        <time>2024-03-03T07:21:01Z</time>
      </trkpt>
      <trkpt lat="49.23762" lon="-0.08118">
        <ele>6.3</ele>
        <time>2024-03-03T07:21:02Z</time>
      </trkpt>
      <trkpt lat="49.23757" lon="-0.08112">
        <ele>6.3</ele>
        <time>2024-03-03T07:21:03Z</time>
      </trkpt>
      <trkpt lat="49.23752" lon="-0.08107">
        <ele>6.2</ele>
        <time>2024-03-03T07:21:04Z</time>
      </trkpt>
      <trkpt lat="49.23746" lon="-0.081">
        <ele>6.2</ele>
        <time>2024-03-03T07:21:05Z</time>
      </trkpt>
      <trkpt lat="49.23741" lon="-0.08094">
        <ele>6.2</ele>
        <time>2024-03-03T07:21:06Z</time>
      </trkpt>
      <trkpt lat="49.23736" lon="-0.08088">
        <ele>6.2</ele>
        <time>2024-03-03T07:21:07Z</time>
      </trkpt>
      <trkpt lat="49.23731" lon="-0.08082">
        <ele>6.2</ele>
        <time>2024-03-03T07:21:08Z</time>
      </trkpt>
      <trkpt lat="49.23727" lon="-0.08075">
        <ele>6.2</ele>
        <time>2024-03-03T07:21:09Z</time>
      </trkpt>
      <trkpt lat="49.23723" lon="-0.08067">
        <ele>6.2</ele>
        <time>2024-03-03T07:21:10Z</time>
      </trkpt>
      <trkpt lat="49.2372" lon="-0.08059">
        <ele>6.3</ele>
        <time>2024-03-03T07:21:11Z</time>
      </trkpt>
      <trkpt lat="49.23718" lon="-0.0805">
        <ele>6.3</ele>
        <time>2024-03-03T07:21:12Z</time>
      </trkpt>
      <trkpt lat="49.23716" lon="-0.0804">
        <ele>6.3</ele>
        <time>2024-03-03T07:21:13Z</time>
      </trkpt>
      <trkpt lat="49.23715" lon="-0.08032">
        <ele>6.3</ele>
        <time>2024-03-03T07:21:14Z</time>
      </trkpt>
      <trkpt lat="49.23715" lon="-0.08023">
        <ele>6.3</ele>
        <time>2024-03-03T07:21:15Z</time>
      </trkpt>
      <trkpt lat="49.23716" lon="-0.08015">
        <ele>6.3</ele>
        <time>2024-03-03T07:21:16Z</time>
      </trkpt>
      <trkpt lat="49.23717" lon="-0.08006">
        <ele>6.4</ele>
        <time>2024-03-03T07:21:17Z</time>
      </trkpt>
      <trkpt lat="49.23717" lon="-0.07997">
        <ele>6.4</ele>
        <time>2024-03-03T07:21:18Z</time>
      </trkpt>
      <trkpt lat="49.23717" lon="-0.07988">
        <ele>6.4</ele>
        <time>2024-03-03T07:21:19Z</time>
      </trkpt>
      <trkpt lat="49.23718" lon="-0.07979">
        <ele>6.4</ele>
        <time>2024-03-03T07:21:20Z</time>
      </trkpt>
      <trkpt lat="49.2372" lon="-0.0797">
        <ele>6.5</ele>
        <time>2024-03-03T07:21:21Z</time>
      </trkpt>
      <trkpt lat="49.2372" lon="-0.07961">
        <ele>6.5</ele>
        <time>2024-03-03T07:21:22Z</time>
      </trkpt>
      <trkpt lat="49.23721" lon="-0.07953">
        <ele>6.5</ele>
        <time>2024-03-03T07:21:23Z</time>
      </trkpt>
      <trkpt lat="49.23722" lon="-0.07943">
        <ele>6.5</ele>
        <time>2024-03-03T07:21:24Z</time>
      </trkpt>
      <trkpt lat="49.23724" lon="-0.07935">
        <ele>6.5</ele>
        <time>2024-03-03T07:21:25Z</time>
      </trkpt>
      <trkpt lat="49.23725" lon="-0.07926">
        <ele>6.5</ele>
        <time>2024-03-03T07:21:26Z</time>
      </trkpt>
      <trkpt lat="49.23726" lon="-0.07917">
        <ele>6.5</ele>
        <time>2024-03-03T07:21:27Z</time>
      </trkpt>
      <trkpt lat="49.23727" lon="-0.07908">
        <ele>6.6</ele>
        <time>2024-03-03T07:21:28Z</time>
      </trkpt>
      <trkpt lat="49.23728" lon="-0.07899">
        <ele>6.6</ele>
        <time>2024-03-03T07:21:29Z</time>
      </trkpt>
      <trkpt lat="49.23729" lon="-0.07889">
        <ele>6.7</ele>
        <time>2024-03-03T07:21:30Z</time>
      </trkpt>
      <trkpt lat="49.23731" lon="-0.07879">
        <ele>6.7</ele>
        <time>2024-03-03T07:21:31Z</time>
      </trkpt>
      <trkpt lat="49.23732" lon="-0.07869">
        <ele>6.8</ele>
        <time>2024-03-03T07:21:32Z</time>
      </trkpt>
      <trkpt lat="49.23732" lon="-0.07859">
        <ele>6.8</ele>
        <time>2024-03-03T07:21:33Z</time>
      </trkpt>
      <trkpt lat="49.23733" lon="-0.07849">
        <ele>6.8</ele>
        <time>2024-03-03T07:21:34Z</time>
      </trkpt>
      <trkpt lat="49.23733" lon="-0.07838">
        <ele>6.9</ele>
        <time>2024-03-03T07:21:35Z</time>
      </trkpt>
      <trkpt lat="49.23733" lon="-0.07827">
        <ele>6.9</ele>
        <time>2024-03-03T07:21:36Z</time>
      </trkpt>
      <trkpt lat="49.23731" lon="-0.07817">
        <ele>7</ele>
        <time>2024-03-03T07:21:37Z</time>
      </trkpt>
      <trkpt lat="49.23729" lon="-0.07807">
        <ele>7</ele>
        <time>2024-03-03T07:21:38Z</time>
      </trkpt>
      <trkpt lat="49.23727" lon="-0.07797">
        <ele>7.1</ele>
        <time>2024-03-03T07:21:39Z</time>
      </trkpt>
      <trkpt lat="49.23724" lon="-0.07787">
        <ele>7.1</ele>
        <time>2024-03-03T07:21:40Z</time>
      </trkpt>
      <trkpt lat="49.23722" lon="-0.07778">
        <ele>7.1</ele>
        <time>2024-03-03T07:21:41Z</time>
      </trkpt>
      <trkpt lat="49.23719" lon="-0.0777">
        <ele>7.1</ele>
        <time>2024-03-03T07:21:42Z</time>
      </trkpt>
      <trkpt lat="49.23716" lon="-0.07761">
        <ele>7.2</ele>
        <time>2024-03-03T07:21:43Z</time>
      </trkpt>
      <trkpt lat="49.23714" lon="-0.07754">
        <ele>7.2</ele>
        <time>2024-03-03T07:21:44Z</time>
      </trkpt>
      <trkpt lat="49.23712" lon="-0.07747">
        <ele>7.2</ele>
        <time>2024-03-03T07:21:45Z</time>
      </trkpt>
      <trkpt lat="49.2371" lon="-0.07739">
        <ele>7.2</ele>
        <time>2024-03-03T07:21:46Z</time>
      </trkpt>
      <trkpt lat="49.23709" lon="-0.07732">
        <ele>7.2</ele>
        <time>2024-03-03T07:21:47Z</time>
      </trkpt>
      <trkpt lat="49.23708" lon="-0.07722">
        <ele>7.2</ele>
        <time>2024-03-03T07:21:48Z</time>
      </trkpt>
      <trkpt lat="49.23707" lon="-0.07712">
        <ele>7.2</ele>
        <time>2024-03-03T07:21:49Z</time>
      </trkpt>
      <trkpt lat="49.23707" lon="-0.07701">
        <ele>7.2</ele>
        <time>2024-03-03T07:21:50Z</time>
      </trkpt>
      <trkpt lat="49.23708" lon="-0.0769">
        <ele>7.2</ele>
        <time>2024-03-03T07:21:51Z</time>
      </trkpt>
      <trkpt lat="49.23708" lon="-0.0768">
        <ele>7.2</ele>
        <time>2024-03-03T07:21:52Z</time>
      </trkpt>
      <trkpt lat="49.23709" lon="-0.07669">
        <ele>7.2</ele>
        <time>2024-03-03T07:21:53Z</time>
      </trkpt>
      <trkpt lat="49.2371" lon="-0.07658">
        <ele>7.2</ele>
        <time>2024-03-03T07:21:54Z</time>
      </trkpt>
      <trkpt lat="49.23711" lon="-0.07647">
        <ele>7.3</ele>
        <time>2024-03-03T07:21:55Z</time>
      </trkpt>
      <trkpt lat="49.23713" lon="-0.07636">
        <ele>7.3</ele>
        <time>2024-03-03T07:21:56Z</time>
      </trkpt>
      <trkpt lat="49.23714" lon="-0.07625">
        <ele>7.3</ele>
        <time>2024-03-03T07:21:57Z</time>
      </trkpt>
      <trkpt lat="49.23714" lon="-0.07615">
        <ele>7.3</ele>
        <time>2024-03-03T07:21:58Z</time>
      </trkpt>
      <trkpt lat="49.23714" lon="-0.07605">
        <ele>7.3</ele>
        <time>2024-03-03T07:21:59Z</time>
      </trkpt>
      <trkpt lat="49.23714" lon="-0.07595">
        <ele>7.3</ele>
        <time>2024-03-03T07:22:00Z</time>
      </trkpt>
      <trkpt lat="49.23713" lon="-0.07585">
        <ele>7.3</ele>
        <time>2024-03-03T07:22:01Z</time>
      </trkpt>
      <trkpt lat="49.23713" lon="-0.07575">
        <ele>7.4</ele>
        <time>2024-03-03T07:22:02Z</time>
      </trkpt>
      <trkpt lat="49.23713" lon="-0.07567">
        <ele>7.4</ele>
        <time>2024-03-03T07:22:03Z</time>
      </trkpt>
      <trkpt lat="49.23714" lon="-0.07558">
        <ele>7.4</ele>
        <time>2024-03-03T07:22:04Z</time>
      </trkpt>
      <trkpt lat="49.23714" lon="-0.07548">
        <ele>7.3</ele>
        <time>2024-03-03T07:22:05Z</time>
      </trkpt>
      <trkpt lat="49.23714" lon="-0.07539">
        <ele>7.3</ele>
        <time>2024-03-03T07:22:06Z</time>
      </trkpt>
      <trkpt lat="49.23714" lon="-0.07528">
        <ele>7.3</ele>
        <time>2024-03-03T07:22:07Z</time>
      </trkpt>
      <trkpt lat="49.23714" lon="-0.07518">
        <ele>7.3</ele>
        <time>2024-03-03T07:22:08Z</time>
      </trkpt>
      <trkpt lat="49.23714" lon="-0.07508">
        <ele>7.3</ele>
        <time>2024-03-03T07:22:09Z</time>
      </trkpt>
      <trkpt lat="49.23715" lon="-0.07498">
        <ele>7.3</ele>
        <time>2024-03-03T07:22:10Z</time>
      </trkpt>
      <trkpt lat="49.23716" lon="-0.07489">
        <ele>7.3</ele>
        <time>2024-03-03T07:22:11Z</time>
      </trkpt>
      <trkpt lat="49.23717" lon="-0.0748">
        <ele>7.3</ele>
        <time>2024-03-03T07:22:12Z</time>
      </trkpt>
      <trkpt lat="49.23717" lon="-0.07471">
        <ele>7.3</ele>
        <time>2024-03-03T07:22:13Z</time>
      </trkpt>
      <trkpt lat="49.23717" lon="-0.07461">
        <ele>7.3</ele>
        <time>2024-03-03T07:22:14Z</time>
      </trkpt>
      <trkpt lat="49.23717" lon="-0.07452">
        <ele>7.3</ele>
        <time>2024-03-03T07:22:15Z</time>
      </trkpt>
      <trkpt lat="49.23717" lon="-0.07442">
        <ele>7.3</ele>
        <time>2024-03-03T07:22:16Z</time>
      </trkpt>
      <trkpt lat="49.23717" lon="-0.07433">
        <ele>7.3</ele>
        <time>2024-03-03T07:22:17Z</time>
      </trkpt>
      <trkpt lat="49.23716" lon="-0.07424">
        <ele>7.3</ele>
        <time>2024-03-03T07:22:18Z</time>
      </trkpt>
      <trkpt lat="49.23716" lon="-0.07414">
        <ele>7.3</ele>
        <time>2024-03-03T07:22:19Z</time>
      </trkpt>
      <trkpt lat="49.23715" lon="-0.07403">
        <ele>7.3</ele>
        <time>2024-03-03T07:22:20Z</time>
      </trkpt>
      <trkpt lat="49.23714" lon="-0.07393">
        <ele>7.3</ele>
        <time>2024-03-03T07:22:21Z</time>
      </trkpt>
      <trkpt lat="49.23713" lon="-0.07382">
        <ele>7.4</ele>
        <time>2024-03-03T07:22:22Z</time>
      </trkpt>
      <trkpt lat="49.23713" lon="-0.07372">
        <ele>7.4</ele>
        <time>2024-03-03T07:22:23Z</time>
      </trkpt>
      <trkpt lat="49.23712" lon="-0.07362">
        <ele>7.4</ele>
        <time>2024-03-03T07:22:24Z</time>
      </trkpt>
      <trkpt lat="49.23711" lon="-0.07353">
        <ele>7.4</ele>
        <time>2024-03-03T07:22:25Z</time>
      </trkpt>
      <trkpt lat="49.2371" lon="-0.07345">
        <ele>7.4</ele>
        <time>2024-03-03T07:22:26Z</time>
      </trkpt>
      <trkpt lat="49.23709" lon="-0.07338">
        <ele>7.4</ele>
        <time>2024-03-03T07:22:27Z</time>
      </trkpt>
      <trkpt lat="49.23708" lon="-0.0733">
        <ele>7.4</ele>
        <time>2024-03-03T07:22:28Z</time>
      </trkpt>
      <trkpt lat="49.23707" lon="-0.07322">
        <ele>7.4</ele>
        <time>2024-03-03T07:22:29Z</time>
      </trkpt>
      <trkpt lat="49.23706" lon="-0.07315">
        <ele>7.4</ele>
        <time>2024-03-03T07:22:30Z</time>
      </trkpt>
      <trkpt lat="49.23704" lon="-0.07308">
        <ele>7.4</ele>
        <time>2024-03-03T07:22:31Z</time>
      </trkpt>
      <trkpt lat="49.23703" lon="-0.073">
        <ele>7.4</ele>
        <time>2024-03-03T07:22:32Z</time>
      </trkpt>
      <trkpt lat="49.23701" lon="-0.07293">
        <ele>7.4</ele>
        <time>2024-03-03T07:22:33Z</time>
      </trkpt>
      <trkpt lat="49.237" lon="-0.07287">
        <ele>7.4</ele>
        <time>2024-03-03T07:22:34Z</time>
      </trkpt>
      <trkpt lat="49.23699" lon="-0.07281">
        <ele>7.4</ele>
        <time>2024-03-03T07:22:35Z</time>
      </trkpt>
      <trkpt lat="49.23698" lon="-0.07276">
        <ele>7.4</ele>
        <time>2024-03-03T07:22:36Z</time>
      </trkpt>
      <trkpt lat="49.23697" lon="-0.07271">
        <ele>7.4</ele>
        <time>2024-03-03T07:22:37Z</time>
      </trkpt>
      <trkpt lat="49.23696" lon="-0.07266">
        <ele>7.5</ele>
        <time>2024-03-03T07:22:38Z</time>
      </trkpt>
      <trkpt lat="49.23696" lon="-0.07261">
        <ele>7.5</ele>
        <time>2024-03-03T07:22:39Z</time>
      </trkpt>
      <trkpt lat="49.23695" lon="-0.07255">
        <ele>7.5</ele>
        <time>2024-03-03T07:22:40Z</time>
      </trkpt>
      <trkpt lat="49.23694" lon="-0.07249">
        <ele>7.5</ele>
        <time>2024-03-03T07:22:41Z</time>
      </trkpt>
      <trkpt lat="49.23694" lon="-0.07241">
        <ele>7.5</ele>
        <time>2024-03-03T07:22:42Z</time>
      </trkpt>
      <trkpt lat="49.23693" lon="-0.07234">
        <ele>7.5</ele>
        <time>2024-03-03T07:22:43Z</time>
      </trkpt>
      <trkpt lat="49.23692" lon="-0.07227">
        <ele>7.5</ele>
        <time>2024-03-03T07:22:44Z</time>
      </trkpt>
      <trkpt lat="49.23691" lon="-0.07221">
        <ele>7.5</ele>
        <time>2024-03-03T07:22:45Z</time>
      </trkpt>
      <trkpt lat="49.2369" lon="-0.07215">
        <ele>7.5</ele>
        <time>2024-03-03T07:22:46Z</time>
      </trkpt>
      <trkpt lat="49.23689" lon="-0.07208">
        <ele>7.5</ele>
        <time>2024-03-03T07:22:47Z</time>
      </trkpt>
      <trkpt lat="49.23687" lon="-0.072">
        <ele>7.5</ele>
        <time>2024-03-03T07:22:48Z</time>
      </trkpt>
      <trkpt lat="49.23685" lon="-0.07192">
        <ele>7.5</ele>
        <time>2024-03-03T07:22:49Z</time>
      </trkpt>
      <trkpt lat="49.23683" lon="-0.07184">
        <ele>7.5</ele>
        <time>2024-03-03T07:22:50Z</time>
      </trkpt>
      <trkpt lat="49.23681" lon="-0.07176">
        <ele>7.5</ele>
        <time>2024-03-03T07:22:51Z</time>
      </trkpt>
      <trkpt lat="49.23679" lon="-0.07168">
        <ele>7.5</ele>
        <time>2024-03-03T07:22:52Z</time>
      </trkpt>
      <trkpt lat="49.23676" lon="-0.0716">
        <ele>7.5</ele>
        <time>2024-03-03T07:22:53Z</time>
      </trkpt>
      <trkpt lat="49.23673" lon="-0.07153">
        <ele>7.5</ele>
        <time>2024-03-03T07:22:54Z</time>
      </trkpt>
      <trkpt lat="49.2367" lon="-0.07147">
        <ele>7.5</ele>
        <time>2024-03-03T07:22:55Z</time>
      </trkpt>
      <trkpt lat="49.23667" lon="-0.0714">
        <ele>7.5</ele>
        <time>2024-03-03T07:22:56Z</time>
      </trkpt>
      <trkpt lat="49.23663" lon="-0.07134">
        <ele>7.5</ele>
        <time>2024-03-03T07:22:57Z</time>
      </trkpt>
      <trkpt lat="49.2366" lon="-0.07127">
        <ele>7.4</ele>
        <time>2024-03-03T07:22:58Z</time>
      </trkpt>
      <trkpt lat="49.23656" lon="-0.07121">
        <ele>7.4</ele>
        <time>2024-03-03T07:22:59Z</time>
      </trkpt>
      <trkpt lat="49.23652" lon="-0.07115">
        <ele>7.4</ele>
        <time>2024-03-03T07:23:00Z</time>
      </trkpt>
      <trkpt lat="49.23647" lon="-0.0711">
        <ele>7.4</ele>
        <time>2024-03-03T07:23:01Z</time>
      </trkpt>
      <trkpt lat="49.23643" lon="-0.07103">
        <ele>7.4</ele>
        <time>2024-03-03T07:23:02Z</time>
      </trkpt>
      <trkpt lat="49.23639" lon="-0.07097">
        <ele>7.4</ele>
        <time>2024-03-03T07:23:03Z</time>
      </trkpt>
      <trkpt lat="49.23634" lon="-0.07092">
        <ele>7.4</ele>
        <time>2024-03-03T07:23:04Z</time>
      </trkpt>
      <trkpt lat="49.2363" lon="-0.07086">
        <ele>7.4</ele>
        <time>2024-03-03T07:23:05Z</time>
      </trkpt>
      <trkpt lat="49.23625" lon="-0.07081">
        <ele>7.4</ele>
        <time>2024-03-03T07:23:06Z</time>
      </trkpt>
      <trkpt lat="49.2362" lon="-0.07076">
        <ele>7.4</ele>
        <time>2024-03-03T07:23:07Z</time>
      </trkpt>
      <trkpt lat="49.23614" lon="-0.07072">
        <ele>7.4</ele>
        <time>2024-03-03T07:23:08Z</time>
      </trkpt>
      <trkpt lat="49.23609" lon="-0.07068">
        <ele>7.4</ele>
        <time>2024-03-03T07:23:09Z</time>
      </trkpt>
      <trkpt lat="49.23604" lon="-0.07063">
        <ele>7.4</ele>
        <time>2024-03-03T07:23:10Z</time>
      </trkpt>
      <trkpt lat="49.23599" lon="-0.07059">
        <ele>7.4</ele>
        <time>2024-03-03T07:23:11Z</time>
      </trkpt>
      <trkpt lat="49.23593" lon="-0.07055">
        <ele>7.4</ele>
        <time>2024-03-03T07:23:12Z</time>
      </trkpt>
      <trkpt lat="49.23587" lon="-0.07051">
        <ele>7.4</ele>
        <time>2024-03-03T07:23:13Z</time>
      </trkpt>
      <trkpt lat="49.23581" lon="-0.07048">
        <ele>7.4</ele>
        <time>2024-03-03T07:23:14Z</time>
      </trkpt>
      <trkpt lat="49.23575" lon="-0.07044">
        <ele>7.4</ele>
        <time>2024-03-03T07:23:15Z</time>
      </trkpt>
      <trkpt lat="49.2357" lon="-0.0704">
        <ele>7.4</ele>
        <time>2024-03-03T07:23:16Z</time>
      </trkpt>
      <trkpt lat="49.23564" lon="-0.07037">
        <ele>7.4</ele>
        <time>2024-03-03T07:23:17Z</time>
      </trkpt>
      <trkpt lat="49.23558" lon="-0.07035">
        <ele>7.4</ele>
        <time>2024-03-03T07:23:18Z</time>
      </trkpt>
      <trkpt lat="49.23552" lon="-0.07032">
        <ele>7.4</ele>
        <time>2024-03-03T07:23:19Z</time>
      </trkpt>
      <trkpt lat="49.23547" lon="-0.0703">
        <ele>7.4</ele>
        <time>2024-03-03T07:23:20Z</time>
      </trkpt>
      <trkpt lat="49.23542" lon="-0.07028">
        <ele>7.4</ele>
        <time>2024-03-03T07:23:21Z</time>
      </trkpt>
      <trkpt lat="49.23537" lon="-0.07026">
        <ele>7.4</ele>
        <time>2024-03-03T07:23:22Z</time>
      </trkpt>
      <trkpt lat="49.23532" lon="-0.07023">
        <ele>7.4</ele>
        <time>2024-03-03T07:23:23Z</time>
      </trkpt>
      <trkpt lat="49.23527" lon="-0.0702">
        <ele>7.5</ele>
        <time>2024-03-03T07:23:24Z</time>
      </trkpt>
      <trkpt lat="49.23521" lon="-0.07017">
        <ele>7.5</ele>
        <time>2024-03-03T07:23:25Z</time>
      </trkpt>
      <trkpt lat="49.23516" lon="-0.07014">
        <ele>7.5</ele>
        <time>2024-03-03T07:23:26Z</time>
      </trkpt>
      <trkpt lat="49.2351" lon="-0.0701">
        <ele>7.5</ele>
        <time>2024-03-03T07:23:27Z</time>
      </trkpt>
      <trkpt lat="49.23504" lon="-0.07006">
        <ele>7.5</ele>
        <time>2024-03-03T07:23:28Z</time>
      </trkpt>
      <trkpt lat="49.23499" lon="-0.07002">
        <ele>7.5</ele>
        <time>2024-03-03T07:23:29Z</time>
      </trkpt>
      <trkpt lat="49.23493" lon="-0.06999">
        <ele>7.5</ele>
        <time>2024-03-03T07:23:30Z</time>
      </trkpt>
      <trkpt lat="49.23488" lon="-0.06995">
        <ele>7.5</ele>
        <time>2024-03-03T07:23:31Z</time>
      </trkpt>
      <trkpt lat="49.23482" lon="-0.06992">
        <ele>7.5</ele>
        <time>2024-03-03T07:23:32Z</time>
      </trkpt>
      <trkpt lat="49.23476" lon="-0.06988">
        <ele>7.6</ele>
        <time>2024-03-03T07:23:33Z</time>
      </trkpt>
      <trkpt lat="49.23471" lon="-0.06984">
        <ele>7.6</ele>
        <time>2024-03-03T07:23:34Z</time>
      </trkpt>
      <trkpt lat="49.23466" lon="-0.0698">
        <ele>7.6</ele>
        <time>2024-03-03T07:23:35Z</time>
      </trkpt>
      <trkpt lat="49.2346" lon="-0.06977">
        <ele>7.7</ele>
        <time>2024-03-03T07:23:36Z</time>
      </trkpt>
      <trkpt lat="49.23454" lon="-0.06972">
        <ele>7.7</ele>
        <time>2024-03-03T07:23:37Z</time>
      </trkpt>
      <trkpt lat="49.23448" lon="-0.06969">
        <ele>7.8</ele>
        <time>2024-03-03T07:23:38Z</time>
      </trkpt>
      <trkpt lat="49.23442" lon="-0.06965">
        <ele>7.9</ele>
        <time>2024-03-03T07:23:39Z</time>
      </trkpt>
      <trkpt lat="49.23436" lon="-0.06961">
        <ele>8</ele>
        <time>2024-03-03T07:23:40Z</time>
      </trkpt>
      <trkpt lat="49.2343" lon="-0.06958">
        <ele>8.1</ele>
        <time>2024-03-03T07:23:41Z</time>
      </trkpt>
      <trkpt lat="49.23424" lon="-0.06956">
        <ele>8.2</ele>
        <time>2024-03-03T07:23:42Z</time>
      </trkpt>
      <trkpt lat="49.23418" lon="-0.06953">
        <ele>8.3</ele>
        <time>2024-03-03T07:23:43Z</time>
      </trkpt>
      <trkpt lat="49.23412" lon="-0.0695">
        <ele>8.4</ele>
        <time>2024-03-03T07:23:44Z</time>
      </trkpt>
      <trkpt lat="49.23407" lon="-0.06947">
        <ele>8.5</ele>
        <time>2024-03-03T07:23:45Z</time>
      </trkpt>
      <trkpt lat="49.23401" lon="-0.06944">
        <ele>8.6</ele>
        <time>2024-03-03T07:23:46Z</time>
      </trkpt>
      <trkpt lat="49.23395" lon="-0.06941">
        <ele>8.7</ele>
        <time>2024-03-03T07:23:47Z</time>
      </trkpt>
      <trkpt lat="49.23389" lon="-0.06938">
        <ele>8.8</ele>
        <time>2024-03-03T07:23:48Z</time>
      </trkpt>
      <trkpt lat="49.23384" lon="-0.06934">
        <ele>9</ele>
        <time>2024-03-03T07:23:49Z</time>
      </trkpt>
      <trkpt lat="49.23378" lon="-0.06931">
        <ele>9.1</ele>
        <time>2024-03-03T07:23:50Z</time>
      </trkpt>
      <trkpt lat="49.23371" lon="-0.06927">
        <ele>9.2</ele>
        <time>2024-03-03T07:23:51Z</time>
      </trkpt>
      <trkpt lat="49.23365" lon="-0.06924">
        <ele>9.4</ele>
        <time>2024-03-03T07:23:52Z</time>
      </trkpt>
      <trkpt lat="49.23359" lon="-0.06921">
        <ele>9.5</ele>
        <time>2024-03-03T07:23:53Z</time>
      </trkpt>
      <trkpt lat="49.23353" lon="-0.06918">
        <ele>9.6</ele>
        <time>2024-03-03T07:23:54Z</time>
      </trkpt>
      <trkpt lat="49.23348" lon="-0.06915">
        <ele>9.7</ele>
        <time>2024-03-03T07:23:55Z</time>
      </trkpt>
      <trkpt lat="49.23342" lon="-0.0691">
        <ele>9.9</ele>
        <time>2024-03-03T07:23:56Z</time>
      </trkpt>
      <trkpt lat="49.23336" lon="-0.06906">
        <ele>10</ele>
        <time>2024-03-03T07:23:57Z</time>
      </trkpt>
      <trkpt lat="49.2333" lon="-0.06903">
        <ele>10.1</ele>
        <time>2024-03-03T07:23:58Z</time>
      </trkpt>
      <trkpt lat="49.23324" lon="-0.069">
        <ele>10.3</ele>
        <time>2024-03-03T07:23:59Z</time>
      </trkpt>
      <trkpt lat="49.23319" lon="-0.06897">
        <ele>10.4</ele>
        <time>2024-03-03T07:24:00Z</time>
      </trkpt>
      <trkpt lat="49.23313" lon="-0.06893">
        <ele>10.5</ele>
        <time>2024-03-03T07:24:01Z</time>
      </trkpt>
      <trkpt lat="49.23308" lon="-0.0689">
        <ele>10.5</ele>
        <time>2024-03-03T07:24:02Z</time>
      </trkpt>
      <trkpt lat="49.23302" lon="-0.06887">
        <ele>10.6</ele>
        <time>2024-03-03T07:24:03Z</time>
      </trkpt>
      <trkpt lat="49.23297" lon="-0.06885">
        <ele>10.7</ele>
        <time>2024-03-03T07:24:04Z</time>
      </trkpt>
      <trkpt lat="49.23292" lon="-0.06882">
        <ele>10.7</ele>
        <time>2024-03-03T07:24:05Z</time>
      </trkpt>
      <trkpt lat="49.23287" lon="-0.0688">
        <ele>10.8</ele>
        <time>2024-03-03T07:24:06Z</time>
      </trkpt>
      <trkpt lat="49.23281" lon="-0.06877">
        <ele>10.9</ele>
        <time>2024-03-03T07:24:07Z</time>
      </trkpt>
      <trkpt lat="49.23275" lon="-0.06874">
        <ele>10.9</ele>
        <time>2024-03-03T07:24:08Z</time>
      </trkpt>
      <trkpt lat="49.23269" lon="-0.06871">
        <ele>11</ele>
        <time>2024-03-03T07:24:09Z</time>
      </trkpt>
      <trkpt lat="49.23262" lon="-0.06868">
        <ele>11</ele>
        <time>2024-03-03T07:24:10Z</time>
      </trkpt>
      <trkpt lat="49.23256" lon="-0.06865">
        <ele>11</ele>
        <time>2024-03-03T07:24:11Z</time>
      </trkpt>
      <trkpt lat="49.2325" lon="-0.06862">
        <ele>11.1</ele>
        <time>2024-03-03T07:24:12Z</time>
      </trkpt>
      <trkpt lat="49.23244" lon="-0.06859">
        <ele>11.1</ele>
        <time>2024-03-03T07:24:13Z</time>
      </trkpt>
      <trkpt lat="49.23238" lon="-0.06855">
        <ele>11.2</ele>
        <time>2024-03-03T07:24:14Z</time>
      </trkpt>
      <trkpt lat="49.23232" lon="-0.06852">
        <ele>11.2</ele>
        <time>2024-03-03T07:24:15Z</time>
      </trkpt>
      <trkpt lat="49.23225" lon="-0.06849">
        <ele>11.2</ele>
        <time>2024-03-03T07:24:16Z</time>
      </trkpt>
      <trkpt lat="49.23219" lon="-0.06845">
        <ele>11.3</ele>
        <time>2024-03-03T07:24:17Z</time>
      </trkpt>
      <trkpt lat="49.23213" lon="-0.06842">
        <ele>11.3</ele>
        <time>2024-03-03T07:24:18Z</time>
      </trkpt>
      <trkpt lat="49.23207" lon="-0.0684">
        <ele>11.4</ele>
        <time>2024-03-03T07:24:19Z</time>
      </trkpt>
      <trkpt lat="49.23201" lon="-0.06836">
        <ele>11.4</ele>
        <time>2024-03-03T07:24:20Z</time>
      </trkpt>
      <trkpt lat="49.23194" lon="-0.06832">
        <ele>11.4</ele>
        <time>2024-03-03T07:24:21Z</time>
      </trkpt>
      <trkpt lat="49.23188" lon="-0.06829">
        <ele>11.4</ele>
        <time>2024-03-03T07:24:22Z</time>
      </trkpt>
      <trkpt lat="49.23181" lon="-0.06825">
        <ele>11.4</ele>
        <time>2024-03-03T07:24:23Z</time>
      </trkpt>
      <trkpt lat="49.23174" lon="-0.06822">
        <ele>11.4</ele>
        <time>2024-03-03T07:24:24Z</time>
      </trkpt>
      <trkpt lat="49.23168" lon="-0.06818">
        <ele>11.4</ele>
        <time>2024-03-03T07:24:25Z</time>
      </trkpt>
      <trkpt lat="49.23162" lon="-0.06816">
        <ele>11.5</ele>
        <time>2024-03-03T07:24:26Z</time>
      </trkpt>
      <trkpt lat="49.23156" lon="-0.06812">
        <ele>11.5</ele>
        <time>2024-03-03T07:24:27Z</time>
      </trkpt>
      <trkpt lat="49.23116" lon="-0.06791">
        <ele>11.9</ele>
        <time>2024-03-03T07:24:33Z</time>
      </trkpt>
      <trkpt lat="49.23111" lon="-0.06788">
        <ele>12</ele>
        <time>2024-03-03T07:24:34Z</time>
      </trkpt>
      <trkpt lat="49.23106" lon="-0.06787">
        <ele>12.1</ele>
        <time>2024-03-03T07:24:35Z</time>
      </trkpt>
      <trkpt lat="49.23099" lon="-0.06788">
        <ele>12.3</ele>
        <time>2024-03-03T07:24:36Z</time>
      </trkpt>
      <trkpt lat="49.23094" lon="-0.06787">
        <ele>12.4</ele>
        <time>2024-03-03T07:24:37Z</time>
      </trkpt>
      <trkpt lat="49.23088" lon="-0.06784">
        <ele>12.6</ele>
        <time>2024-03-03T07:24:38Z</time>
      </trkpt>
      <trkpt lat="49.23081" lon="-0.06782">
        <ele>12.8</ele>
        <time>2024-03-03T07:24:39Z</time>
      </trkpt>
      <trkpt lat="49.23075" lon="-0.0678">
        <ele>13</ele>
        <time>2024-03-03T07:24:40Z</time>
      </trkpt>
      <trkpt lat="49.23069" lon="-0.06777">
        <ele>13.3</ele>
        <time>2024-03-03T07:24:41Z</time>
      </trkpt>
      <trkpt lat="49.23064" lon="-0.06775">
        <ele>13.5</ele>
        <time>2024-03-03T07:24:42Z</time>
      </trkpt>
      <trkpt lat="49.23059" lon="-0.06772">
        <ele>13.7</ele>
        <time>2024-03-03T07:24:43Z</time>
      </trkpt>
      <trkpt lat="49.23054" lon="-0.0677">
        <ele>13.9</ele>
        <time>2024-03-03T07:24:44Z</time>
      </trkpt>
      <trkpt lat="49.23048" lon="-0.06767">
        <ele>14.1</ele>
        <time>2024-03-03T07:24:45Z</time>
      </trkpt>
      <trkpt lat="49.23043" lon="-0.06765">
        <ele>14.3</ele>
        <time>2024-03-03T07:24:46Z</time>
      </trkpt>
      <trkpt lat="49.23037" lon="-0.06763">
        <ele>14.4</ele>
        <time>2024-03-03T07:24:47Z</time>
      </trkpt>
      <trkpt lat="49.23032" lon="-0.06761">
        <ele>14.6</ele>
        <time>2024-03-03T07:24:48Z</time>
      </trkpt>
      <trkpt lat="49.23026" lon="-0.0676">
        <ele>14.8</ele>
        <time>2024-03-03T07:24:49Z</time>
      </trkpt>
      <trkpt lat="49.2302" lon="-0.0676">
        <ele>15</ele>
        <time>2024-03-03T07:24:50Z</time>
      </trkpt>
      <trkpt lat="49.23014" lon="-0.06759">
        <ele>15.2</ele>
        <time>2024-03-03T07:24:51Z</time>
      </trkpt>
      <trkpt lat="49.23009" lon="-0.06759">
        <ele>15.3</ele>
        <time>2024-03-03T07:24:52Z</time>
      </trkpt>
      <trkpt lat="49.23004" lon="-0.06759">
        <ele>15.5</ele>
        <time>2024-03-03T07:24:53Z</time>
      </trkpt>
      <trkpt lat="49.22999" lon="-0.0676">
        <ele>15.7</ele>
        <time>2024-03-03T07:24:54Z</time>
      </trkpt>
      <trkpt lat="49.22994" lon="-0.06763">
        <ele>15.8</ele>
        <time>2024-03-03T07:24:55Z</time>
      </trkpt>
      <trkpt lat="49.22988" lon="-0.06766">
        <ele>16</ele>
        <time>2024-03-03T07:24:56Z</time>
      </trkpt>
      <trkpt lat="49.22982" lon="-0.0677">
        <ele>16.2</ele>
        <time>2024-03-03T07:24:57Z</time>
      </trkpt>
      <trkpt lat="49.22977" lon="-0.06774">
        <ele>16.4</ele>
        <time>2024-03-03T07:24:58Z</time>
      </trkpt>
      <trkpt lat="49.22972" lon="-0.06778">
        <ele>16.6</ele>
        <time>2024-03-03T07:24:59Z</time>
      </trkpt>
      <trkpt lat="49.22967" lon="-0.06783">
        <ele>16.8</ele>
        <time>2024-03-03T07:25:00Z</time>
      </trkpt>
      <trkpt lat="49.22962" lon="-0.06788">
        <ele>17</ele>
        <time>2024-03-03T07:25:01Z</time>
      </trkpt>
      <trkpt lat="49.22958" lon="-0.06794">
        <ele>17.1</ele>
        <time>2024-03-03T07:25:02Z</time>
      </trkpt>
      <trkpt lat="49.22954" lon="-0.068">
        <ele>17.3</ele>
        <time>2024-03-03T07:25:03Z</time>
      </trkpt>
      <trkpt lat="49.2295" lon="-0.06806">
        <ele>17.5</ele>
        <time>2024-03-03T07:25:04Z</time>
      </trkpt>
      <trkpt lat="49.22947" lon="-0.06813">
        <ele>17.6</ele>
        <time>2024-03-03T07:25:05Z</time>
      </trkpt>
      <trkpt lat="49.22943" lon="-0.0682">
        <ele>17.8</ele>
        <time>2024-03-03T07:25:06Z</time>
      </trkpt>
      <trkpt lat="49.22941" lon="-0.06827">
        <ele>18</ele>
        <time>2024-03-03T07:25:07Z</time>
      </trkpt>
      <trkpt lat="49.22938" lon="-0.06834">
        <ele>18.1</ele>
        <time>2024-03-03T07:25:08Z</time>
      </trkpt>
      <trkpt lat="49.22936" lon="-0.06842">
        <ele>18.3</ele>
        <time>2024-03-03T07:25:09Z</time>
      </trkpt>
      <trkpt lat="49.22934" lon="-0.0685">
        <ele>18.4</ele>
        <time>2024-03-03T07:25:10Z</time>
      </trkpt>
      <trkpt lat="49.22931" lon="-0.06857">
        <ele>18.5</ele>
        <time>2024-03-03T07:25:11Z</time>
      </trkpt>
      <trkpt lat="49.22929" lon="-0.06865">
        <ele>18.7</ele>
        <time>2024-03-03T07:25:12Z</time>
      </trkpt>
      <trkpt lat="49.22927" lon="-0.06872">
        <ele>18.8</ele>
        <time>2024-03-03T07:25:13Z</time>
      </trkpt>
      <trkpt lat="49.22925" lon="-0.06879">
        <ele>18.9</ele>
        <time>2024-03-03T07:25:14Z</time>
      </trkpt>
      <trkpt lat="49.22923" lon="-0.06886">
        <ele>19.1</ele>
        <time>2024-03-03T07:25:15Z</time>
      </trkpt>
      <trkpt lat="49.2292" lon="-0.06894">
        <ele>19.2</ele>
        <time>2024-03-03T07:25:16Z</time>
      </trkpt>
      <trkpt lat="49.22918" lon="-0.06901">
        <ele>19.3</ele>
        <time>2024-03-03T07:25:17Z</time>
      </trkpt>
      <trkpt lat="49.22914" lon="-0.06908">
        <ele>19.5</ele>
        <time>2024-03-03T07:25:18Z</time>
      </trkpt>
      <trkpt lat="49.2291" lon="-0.06914">
        <ele>19.6</ele>
        <time>2024-03-03T07:25:19Z</time>
      </trkpt>
      <trkpt lat="49.22906" lon="-0.0692">
        <ele>19.8</ele>
        <time>2024-03-03T07:25:20Z</time>
      </trkpt>
      <trkpt lat="49.22902" lon="-0.06925">
        <ele>19.9</ele>
        <time>2024-03-03T07:25:21Z</time>
      </trkpt>
      <trkpt lat="49.22898" lon="-0.0693">
        <ele>20.1</ele>
        <time>2024-03-03T07:25:22Z</time>
      </trkpt>
      <trkpt lat="49.22894" lon="-0.06934">
        <ele>20.3</ele>
        <time>2024-03-03T07:25:23Z</time>
      </trkpt>
      <trkpt lat="49.22889" lon="-0.06937">
        <ele>20.4</ele>
        <time>2024-03-03T07:25:24Z</time>
      </trkpt>
      <trkpt lat="49.22885" lon="-0.06941">
        <ele>20.6</ele>
        <time>2024-03-03T07:25:25Z</time>
      </trkpt>
      <trkpt lat="49.22879" lon="-0.06944">
        <ele>20.8</ele>
        <time>2024-03-03T07:25:26Z</time>
      </trkpt>
      <trkpt lat="49.22874" lon="-0.06946">
        <ele>21</ele>
        <time>2024-03-03T07:25:27Z</time>
      </trkpt>
      <trkpt lat="49.22869" lon="-0.06947">
        <ele>21.2</ele>
        <time>2024-03-03T07:25:28Z</time>
      </trkpt>
      <trkpt lat="49.22864" lon="-0.06948">
        <ele>21.3</ele>
        <time>2024-03-03T07:25:29Z</time>
      </trkpt>
      <trkpt lat="49.22859" lon="-0.06948">
        <ele>21.5</ele>
        <time>2024-03-03T07:25:30Z</time>
      </trkpt>
      <trkpt lat="49.22854" lon="-0.06947">
        <ele>21.7</ele>
        <time>2024-03-03T07:25:31Z</time>
      </trkpt>
      <trkpt lat="49.22849" lon="-0.06947">
        <ele>21.9</ele>
        <time>2024-03-03T07:25:32Z</time>
      </trkpt>
      <trkpt lat="49.22844" lon="-0.06946">
        <ele>22.1</ele>
        <time>2024-03-03T07:25:33Z</time>
      </trkpt>
      <trkpt lat="49.22839" lon="-0.06945">
        <ele>22.2</ele>
        <time>2024-03-03T07:25:34Z</time>
      </trkpt>
      <trkpt lat="49.22833" lon="-0.06944">
        <ele>22.4</ele>
        <time>2024-03-03T07:25:35Z</time>
      </trkpt>
      <trkpt lat="49.22827" lon="-0.06943">
        <ele>22.6</ele>
        <time>2024-03-03T07:25:36Z</time>
      </trkpt>
      <trkpt lat="49.22822" lon="-0.06941">
        <ele>22.8</ele>
        <time>2024-03-03T07:25:37Z</time>
      </trkpt>
      <trkpt lat="49.22817" lon="-0.0694">
        <ele>22.9</ele>
        <time>2024-03-03T07:25:38Z</time>
      </trkpt>
      <trkpt lat="49.22811" lon="-0.06939">
        <ele>23.1</ele>
        <time>2024-03-03T07:25:39Z</time>
      </trkpt>
      <trkpt lat="49.22806" lon="-0.06938">
        <ele>23.2</ele>
        <time>2024-03-03T07:25:40Z</time>
      </trkpt>
      <trkpt lat="49.22801" lon="-0.06938">
        <ele>23.4</ele>
        <time>2024-03-03T07:25:41Z</time>
      </trkpt>
      <trkpt lat="49.22795" lon="-0.06937">
        <ele>23.4</ele>
        <time>2024-03-03T07:25:42Z</time>
      </trkpt>
      <trkpt lat="49.2279" lon="-0.06936">
        <ele>23.5</ele>
        <time>2024-03-03T07:25:43Z</time>
      </trkpt>
      <trkpt lat="49.22786" lon="-0.06936">
        <ele>23.5</ele>
        <time>2024-03-03T07:25:44Z</time>
      </trkpt>
      <trkpt lat="49.22781" lon="-0.06935">
        <ele>23.5</ele>
        <time>2024-03-03T07:25:45Z</time>
      </trkpt>
      <trkpt lat="49.22778" lon="-0.06934">
        <ele>23.6</ele>
        <time>2024-03-03T07:25:46Z</time>
      </trkpt>
      <trkpt lat="49.22774" lon="-0.06933">
        <ele>23.6</ele>
        <time>2024-03-03T07:25:47Z</time>
      </trkpt>
      <trkpt lat="49.22769" lon="-0.06932">
        <ele>23.6</ele>
        <time>2024-03-03T07:25:48Z</time>
      </trkpt>
      <trkpt lat="49.22762" lon="-0.06929">
        <ele>23.5</ele>
        <time>2024-03-03T07:25:49Z</time>
      </trkpt>
      <trkpt lat="49.22755" lon="-0.06928">
        <ele>23.5</ele>
        <time>2024-03-03T07:25:50Z</time>
      </trkpt>
      <trkpt lat="49.22749" lon="-0.06927">
        <ele>23.4</ele>
        <time>2024-03-03T07:25:51Z</time>
      </trkpt>
      <trkpt lat="49.22743" lon="-0.06926">
        <ele>23.3</ele>
        <time>2024-03-03T07:25:52Z</time>
      </trkpt>
      <trkpt lat="49.22737" lon="-0.06925">
        <ele>23.2</ele>
        <time>2024-03-03T07:25:53Z</time>
      </trkpt>
      <trkpt lat="49.2273" lon="-0.06923">
        <ele>23.1</ele>
        <time>2024-03-03T07:25:54Z</time>
      </trkpt>
      <trkpt lat="49.22724" lon="-0.06923">
        <ele>23</ele>
        <time>2024-03-03T07:25:55Z</time>
      </trkpt>
      <trkpt lat="49.22718" lon="-0.06922">
        <ele>22.9</ele>
        <time>2024-03-03T07:25:56Z</time>
      </trkpt>
      <trkpt lat="49.22712" lon="-0.06921">
        <ele>22.8</ele>
        <time>2024-03-03T07:25:57Z</time>
      </trkpt>
      <trkpt lat="49.22706" lon="-0.0692">
        <ele>22.6</ele>
        <time>2024-03-03T07:25:58Z</time>
      </trkpt>
      <trkpt lat="49.227" lon="-0.0692">
        <ele>22.5</ele>
        <time>2024-03-03T07:25:59Z</time>
      </trkpt>
      <trkpt lat="49.22694" lon="-0.0692">
        <ele>22.3</ele>
        <time>2024-03-03T07:26:00Z</time>
      </trkpt>
      <trkpt lat="49.22688" lon="-0.06919">
        <ele>22.2</ele>
        <time>2024-03-03T07:26:01Z</time>
      </trkpt>
      <trkpt lat="49.22682" lon="-0.06918">
        <ele>22</ele>
        <time>2024-03-03T07:26:02Z</time>
      </trkpt>
      <trkpt lat="49.22676" lon="-0.06916">
        <ele>21.8</ele>
        <time>2024-03-03T07:26:03Z</time>
      </trkpt>
      <trkpt lat="49.22669" lon="-0.06913">
        <ele>21.5</ele>
        <time>2024-03-03T07:26:04Z</time>
      </trkpt>
      <trkpt lat="49.22662" lon="-0.06912">
        <ele>21.3</ele>
        <time>2024-03-03T07:26:05Z</time>
      </trkpt>
      <trkpt lat="49.22655" lon="-0.06911">
        <ele>21.1</ele>
        <time>2024-03-03T07:26:06Z</time>
      </trkpt>
      <trkpt lat="49.22649" lon="-0.06909">
        <ele>20.8</ele>
        <time>2024-03-03T07:26:07Z</time>
      </trkpt>
      <trkpt lat="49.22643" lon="-0.06909">
        <ele>20.6</ele>
        <time>2024-03-03T07:26:08Z</time>
      </trkpt>
      <trkpt lat="49.22636" lon="-0.06908">
        <ele>20.3</ele>
        <time>2024-03-03T07:26:09Z</time>
      </trkpt>
      <trkpt lat="49.22629" lon="-0.06906">
        <ele>20</ele>
        <time>2024-03-03T07:26:10Z</time>
      </trkpt>
      <trkpt lat="49.22622" lon="-0.06904">
        <ele>19.7</ele>
        <time>2024-03-03T07:26:11Z</time>
      </trkpt>
      <trkpt lat="49.22613" lon="-0.06902">
        <ele>19.4</ele>
        <time>2024-03-03T07:26:12Z</time>
      </trkpt>
      <trkpt lat="49.22606" lon="-0.06901">
        <ele>19.1</ele>
        <time>2024-03-03T07:26:13Z</time>
      </trkpt>
      <trkpt lat="49.22598" lon="-0.069">
        <ele>18.9</ele>
        <time>2024-03-03T07:26:14Z</time>
      </trkpt>
      <trkpt lat="49.22591" lon="-0.06898">
        <ele>18.6</ele>
        <time>2024-03-03T07:26:15Z</time>
      </trkpt>
      <trkpt lat="49.22582" lon="-0.06896">
        <ele>18.3</ele>
        <time>2024-03-03T07:26:16Z</time>
      </trkpt>
      <trkpt lat="49.22573" lon="-0.06894">
        <ele>18</ele>
        <time>2024-03-03T07:26:17Z</time>
      </trkpt>
      <trkpt lat="49.22565" lon="-0.06891">
        <ele>17.7</ele>
        <time>2024-03-03T07:26:18Z</time>
      </trkpt>
      <trkpt lat="49.22556" lon="-0.06888">
        <ele>17.4</ele>
        <time>2024-03-03T07:26:19Z</time>
      </trkpt>
      <trkpt lat="49.22548" lon="-0.06885">
        <ele>17.1</ele>
        <time>2024-03-03T07:26:20Z</time>
      </trkpt>
      <trkpt lat="49.2254" lon="-0.06882">
        <ele>16.9</ele>
        <time>2024-03-03T07:26:21Z</time>
      </trkpt>
      <trkpt lat="49.22532" lon="-0.06879">
        <ele>16.7</ele>
        <time>2024-03-03T07:26:22Z</time>
      </trkpt>
      <trkpt lat="49.22524" lon="-0.06875">
        <ele>16.5</ele>
        <time>2024-03-03T07:26:23Z</time>
      </trkpt>
      <trkpt lat="49.22516" lon="-0.06873">
        <ele>16.4</ele>
        <time>2024-03-03T07:26:24Z</time>
      </trkpt>
      <trkpt lat="49.22508" lon="-0.06871">
        <ele>16.3</ele>
        <time>2024-03-03T07:26:25Z</time>
      </trkpt>
      <trkpt lat="49.22501" lon="-0.06868">
        <ele>16.2</ele>
        <time>2024-03-03T07:26:26Z</time>
      </trkpt>
      <trkpt lat="49.22495" lon="-0.06866">
        <ele>16.2</ele>
        <time>2024-03-03T07:26:27Z</time>
      </trkpt>
      <trkpt lat="49.22488" lon="-0.06864">
        <ele>16.2</ele>
        <time>2024-03-03T07:26:28Z</time>
      </trkpt>
      <trkpt lat="49.22483" lon="-0.06864">
        <ele>16.2</ele>
        <time>2024-03-03T07:26:29Z</time>
      </trkpt>
      <trkpt lat="49.22478" lon="-0.06863">
        <ele>16.2</ele>
        <time>2024-03-03T07:26:30Z</time>
      </trkpt>
      <trkpt lat="49.22473" lon="-0.06862">
        <ele>16.3</ele>
        <time>2024-03-03T07:26:31Z</time>
      </trkpt>
      <trkpt lat="49.22469" lon="-0.06862">
        <ele>16.3</ele>
        <time>2024-03-03T07:26:32Z</time>
      </trkpt>
      <trkpt lat="49.22466" lon="-0.06862">
        <ele>16.4</ele>
        <time>2024-03-03T07:26:33Z</time>
      </trkpt>
      <trkpt lat="49.22462" lon="-0.06863">
        <ele>16.4</ele>
        <time>2024-03-03T07:26:34Z</time>
      </trkpt>
      <trkpt lat="49.22461" lon="-0.06863">
        <ele>16.5</ele>
        <time>2024-03-03T07:26:35Z</time>
      </trkpt>
      <trkpt lat="49.22458" lon="-0.06865">
        <ele>16.5</ele>
        <time>2024-03-03T07:26:36Z</time>
      </trkpt>
      <trkpt lat="49.22456" lon="-0.06865">
        <ele>16.5</ele>
        <time>2024-03-03T07:26:37Z</time>
      </trkpt>
      <trkpt lat="49.22454" lon="-0.06866">
        <ele>16.6</ele>
        <time>2024-03-03T07:26:38Z</time>
      </trkpt>
      <trkpt lat="49.22453" lon="-0.06867">
        <ele>16.6</ele>
        <time>2024-03-03T07:26:39Z</time>
      </trkpt>
      <trkpt lat="49.22449" lon="-0.06868">
        <ele>16.6</ele>
        <time>2024-03-03T07:26:40Z</time>
      </trkpt>
      <trkpt lat="49.22448" lon="-0.06869">
        <ele>16.6</ele>
        <time>2024-03-03T07:26:41Z</time>
      </trkpt>
      <trkpt lat="49.22445" lon="-0.06869">
        <ele>16.6</ele>
        <time>2024-03-03T07:26:42Z</time>
      </trkpt>
      <trkpt lat="49.22442" lon="-0.06869">
        <ele>16.5</ele>
        <time>2024-03-03T07:26:43Z</time>
      </trkpt>
      <trkpt lat="49.2241" lon="-0.06858">
        <ele>15.5</ele>
        <time>2024-03-03T07:26:48Z</time>
      </trkpt>
      <trkpt lat="49.22405" lon="-0.06857">
        <ele>15.4</ele>
        <time>2024-03-03T07:26:49Z</time>
      </trkpt>
      <trkpt lat="49.22401" lon="-0.06857">
        <ele>15.4</ele>
        <time>2024-03-03T07:26:50Z</time>
      </trkpt>
      <trkpt lat="49.22396" lon="-0.06857">
        <ele>15.3</ele>
        <time>2024-03-03T07:26:51Z</time>
      </trkpt>
      <trkpt lat="49.2239" lon="-0.06856">
        <ele>15.3</ele>
        <time>2024-03-03T07:26:52Z</time>
      </trkpt>
      <trkpt lat="49.22382" lon="-0.06856">
        <ele>15.2</ele>
        <time>2024-03-03T07:26:53Z</time>
      </trkpt>
      <trkpt lat="49.22375" lon="-0.06855">
        <ele>14.9</ele>
        <time>2024-03-03T07:26:54Z</time>
      </trkpt>
      <trkpt lat="49.22368" lon="-0.06854">
        <ele>14.8</ele>
        <time>2024-03-03T07:26:55Z</time>
      </trkpt>
      <trkpt lat="49.22361" lon="-0.06854">
        <ele>14.6</ele>
        <time>2024-03-03T07:26:56Z</time>
      </trkpt>
      <trkpt lat="49.22354" lon="-0.06853">
        <ele>14.5</ele>
        <time>2024-03-03T07:26:57Z</time>
      </trkpt>
      <trkpt lat="49.22347" lon="-0.06853">
        <ele>14.3</ele>
        <time>2024-03-03T07:26:58Z</time>
      </trkpt>
      <trkpt lat="49.22339" lon="-0.06852">
        <ele>14.2</ele>
        <time>2024-03-03T07:26:59Z</time>
      </trkpt>
      <trkpt lat="49.22332" lon="-0.06852">
        <ele>14</ele>
        <time>2024-03-03T07:27:00Z</time>
      </trkpt>
      <trkpt lat="49.22325" lon="-0.06852">
        <ele>13.9</ele>
        <time>2024-03-03T07:27:01Z</time>
      </trkpt>
      <trkpt lat="49.22318" lon="-0.06852">
        <ele>13.8</ele>
        <time>2024-03-03T07:27:02Z</time>
      </trkpt>
      <trkpt lat="49.22311" lon="-0.06851">
        <ele>13.6</ele>
        <time>2024-03-03T07:27:03Z</time>
      </trkpt>
      <trkpt lat="49.22303" lon="-0.06851">
        <ele>13.5</ele>
        <time>2024-03-03T07:27:04Z</time>
      </trkpt>
      <trkpt lat="49.22296" lon="-0.0685">
        <ele>13.3</ele>
        <time>2024-03-03T07:27:05Z</time>
      </trkpt>
      <trkpt lat="49.22289" lon="-0.0685">
        <ele>13.2</ele>
        <time>2024-03-03T07:27:06Z</time>
      </trkpt>
      <trkpt lat="49.22281" lon="-0.0685">
        <ele>13</ele>
        <time>2024-03-03T07:27:07Z</time>
      </trkpt>
      <trkpt lat="49.22274" lon="-0.0685">
        <ele>12.9</ele>
        <time>2024-03-03T07:27:08Z</time>
      </trkpt>
      <trkpt lat="49.22267" lon="-0.0685">
        <ele>12.8</ele>
        <time>2024-03-03T07:27:09Z</time>
      </trkpt>
      <trkpt lat="49.2226" lon="-0.0685">
        <ele>12.7</ele>
        <time>2024-03-03T07:27:10Z</time>
      </trkpt>
      <trkpt lat="49.22253" lon="-0.0685">
        <ele>12.5</ele>
        <time>2024-03-03T07:27:11Z</time>
      </trkpt>
      <trkpt lat="49.22245" lon="-0.06849">
        <ele>12.5</ele>
        <time>2024-03-03T07:27:12Z</time>
      </trkpt>
      <trkpt lat="49.22238" lon="-0.06849">
        <ele>12.4</ele>
        <time>2024-03-03T07:27:13Z</time>
      </trkpt>
      <trkpt lat="49.22231" lon="-0.06849">
        <ele>12.3</ele>
        <time>2024-03-03T07:27:14Z</time>
      </trkpt>
      <trkpt lat="49.22224" lon="-0.06849">
        <ele>12.3</ele>
        <time>2024-03-03T07:27:15Z</time>
      </trkpt>
      <trkpt lat="49.22217" lon="-0.06849">
        <ele>12.3</ele>
        <time>2024-03-03T07:27:16Z</time>
      </trkpt>
      <trkpt lat="49.22209" lon="-0.0685">
        <ele>12.3</ele>
        <time>2024-03-03T07:27:17Z</time>
      </trkpt>
      <trkpt lat="49.22202" lon="-0.06851">
        <ele>12.3</ele>
        <time>2024-03-03T07:27:18Z</time>
      </trkpt>
      <trkpt lat="49.22195" lon="-0.06851">
        <ele>12.3</ele>
        <time>2024-03-03T07:27:19Z</time>
      </trkpt>
      <trkpt lat="49.22188" lon="-0.06851">
        <ele>12.4</ele>
        <time>2024-03-03T07:27:20Z</time>
      </trkpt>
      <trkpt lat="49.22181" lon="-0.06851">
        <ele>12.5</ele>
        <time>2024-03-03T07:27:21Z</time>
      </trkpt>
      <trkpt lat="49.22175" lon="-0.06852">
        <ele>12.6</ele>
        <time>2024-03-03T07:27:22Z</time>
      </trkpt>
      <trkpt lat="49.22168" lon="-0.06852">
        <ele>12.7</ele>
        <time>2024-03-03T07:27:23Z</time>
      </trkpt>
      <trkpt lat="49.22161" lon="-0.06852">
        <ele>12.9</ele>
        <time>2024-03-03T07:27:24Z</time>
      </trkpt>
      <trkpt lat="49.22154" lon="-0.06852">
        <ele>13.1</ele>
        <time>2024-03-03T07:27:25Z</time>
      </trkpt>
      <trkpt lat="49.22148" lon="-0.06853">
        <ele>13.3</ele>
        <time>2024-03-03T07:27:26Z</time>
      </trkpt>
      <trkpt lat="49.22141" lon="-0.06855">
        <ele>13.5</ele>
        <time>2024-03-03T07:27:27Z</time>
      </trkpt>
      <trkpt lat="49.22136" lon="-0.06856">
        <ele>13.7</ele>
        <time>2024-03-03T07:27:28Z</time>
      </trkpt>
      <trkpt lat="49.2213" lon="-0.06858">
        <ele>13.9</ele>
        <time>2024-03-03T07:27:29Z</time>
      </trkpt>
      <trkpt lat="49.22125" lon="-0.0686">
        <ele>14.2</ele>
        <time>2024-03-03T07:27:30Z</time>
      </trkpt>
      <trkpt lat="49.22119" lon="-0.06861">
        <ele>14.4</ele>
        <time>2024-03-03T07:27:31Z</time>
      </trkpt>
      <trkpt lat="49.22114" lon="-0.06863">
        <ele>14.6</ele>
        <time>2024-03-03T07:27:32Z</time>
      </trkpt>
      <trkpt lat="49.22109" lon="-0.06865">
        <ele>14.8</ele>
        <time>2024-03-03T07:27:33Z</time>
      </trkpt>
      <trkpt lat="49.22104" lon="-0.06866">
        <ele>15</ele>
        <time>2024-03-03T07:27:34Z</time>
      </trkpt>
      <trkpt lat="49.22098" lon="-0.06867">
        <ele>15.3</ele>
        <time>2024-03-03T07:27:35Z</time>
      </trkpt>
      <trkpt lat="49.22092" lon="-0.06867">
        <ele>15.5</ele>
        <time>2024-03-03T07:27:36Z</time>
      </trkpt>
      <trkpt lat="49.22086" lon="-0.06868">
        <ele>15.8</ele>
        <time>2024-03-03T07:27:37Z</time>
      </trkpt>
      <trkpt lat="49.2208" lon="-0.06869">
        <ele>16</ele>
        <time>2024-03-03T07:27:38Z</time>
      </trkpt>
      <trkpt lat="49.22075" lon="-0.0687">
        <ele>16.3</ele>
        <time>2024-03-03T07:27:39Z</time>
      </trkpt>
      <trkpt lat="49.2207" lon="-0.06871">
        <ele>16.5</ele>
        <time>2024-03-03T07:27:40Z</time>
      </trkpt>
      <trkpt lat="49.22064" lon="-0.06872">
        <ele>16.7</ele>
        <time>2024-03-03T07:27:41Z</time>
      </trkpt>
      <trkpt lat="49.22059" lon="-0.06873">
        <ele>17</ele>
        <time>2024-03-03T07:27:42Z</time>
      </trkpt>
      <trkpt lat="49.22054" lon="-0.06874">
        <ele>17.2</ele>
        <time>2024-03-03T07:27:43Z</time>
      </trkpt>
      <trkpt lat="49.2205" lon="-0.06875">
        <ele>17.4</ele>
        <time>2024-03-03T07:27:44Z</time>
      </trkpt>
      <trkpt lat="49.22045" lon="-0.06876">
        <ele>17.7</ele>
        <time>2024-03-03T07:27:45Z</time>
      </trkpt>
      <trkpt lat="49.2204" lon="-0.06877">
        <ele>17.9</ele>
        <time>2024-03-03T07:27:46Z</time>
      </trkpt>
      <trkpt lat="49.22035" lon="-0.06878">
        <ele>18.1</ele>
        <time>2024-03-03T07:27:47Z</time>
      </trkpt>
      <trkpt lat="49.2203" lon="-0.06879">
        <ele>18.4</ele>
        <time>2024-03-03T07:27:48Z</time>
      </trkpt>
      <trkpt lat="49.22026" lon="-0.0688">
        <ele>18.6</ele>
        <time>2024-03-03T07:27:49Z</time>
      </trkpt>
      <trkpt lat="49.22021" lon="-0.06882">
        <ele>18.8</ele>
        <time>2024-03-03T07:27:50Z</time>
      </trkpt>
      <trkpt lat="49.22016" lon="-0.06883">
        <ele>19.1</ele>
        <time>2024-03-03T07:27:51Z</time>
      </trkpt>
      <trkpt lat="49.22011" lon="-0.06885">
        <ele>19.3</ele>
        <time>2024-03-03T07:27:52Z</time>
      </trkpt>
      <trkpt lat="49.22006" lon="-0.06886">
        <ele>19.6</ele>
        <time>2024-03-03T07:27:53Z</time>
      </trkpt>
      <trkpt lat="49.22002" lon="-0.06887">
        <ele>19.8</ele>
        <time>2024-03-03T07:27:54Z</time>
      </trkpt>
      <trkpt lat="49.21997" lon="-0.06889">
        <ele>20.1</ele>
        <time>2024-03-03T07:27:55Z</time>
      </trkpt>
      <trkpt lat="49.21992" lon="-0.0689">
        <ele>20.3</ele>
        <time>2024-03-03T07:27:56Z</time>
      </trkpt>
      <trkpt lat="49.21987" lon="-0.06892">
        <ele>20.6</ele>
        <time>2024-03-03T07:27:57Z</time>
      </trkpt>
      <trkpt lat="49.21982" lon="-0.06893">
        <ele>20.8</ele>
        <time>2024-03-03T07:27:58Z</time>
      </trkpt>
      <trkpt lat="49.21977" lon="-0.06894">
        <ele>21</ele>
        <time>2024-03-03T07:27:59Z</time>
      </trkpt>
      <trkpt lat="49.21972" lon="-0.06895">
        <ele>21.3</ele>
        <time>2024-03-03T07:28:00Z</time>
      </trkpt>
      <trkpt lat="49.21966" lon="-0.06895">
        <ele>21.6</ele>
        <time>2024-03-03T07:28:01Z</time>
      </trkpt>
      <trkpt lat="49.21962" lon="-0.06897">
        <ele>21.8</ele>
        <time>2024-03-03T07:28:02Z</time>
      </trkpt>
      <trkpt lat="49.21957" lon="-0.06898">
        <ele>22.1</ele>
        <time>2024-03-03T07:28:03Z</time>
      </trkpt>
      <trkpt lat="49.21952" lon="-0.06898">
        <ele>22.3</ele>
        <time>2024-03-03T07:28:04Z</time>
      </trkpt>
      <trkpt lat="49.21948" lon="-0.06899">
        <ele>22.6</ele>
        <time>2024-03-03T07:28:05Z</time>
      </trkpt>
      <trkpt lat="49.21943" lon="-0.069">
        <ele>22.8</ele>
        <time>2024-03-03T07:28:06Z</time>
      </trkpt>
      <trkpt lat="49.21937" lon="-0.069">
        <ele>23.1</ele>
        <time>2024-03-03T07:28:07Z</time>
      </trkpt>
      <trkpt lat="49.21931" lon="-0.06898">
        <ele>23.4</ele>
        <time>2024-03-03T07:28:08Z</time>
      </trkpt>
      <trkpt lat="49.21925" lon="-0.06896">
        <ele>23.8</ele>
        <time>2024-03-03T07:28:09Z</time>
      </trkpt>
      <trkpt lat="49.2192" lon="-0.06893">
        <ele>24</ele>
        <time>2024-03-03T07:28:10Z</time>
      </trkpt>
      <trkpt lat="49.21915" lon="-0.0689">
        <ele>24.2</ele>
        <time>2024-03-03T07:28:11Z</time>
      </trkpt>
      <trkpt lat="49.2191" lon="-0.06886">
        <ele>24.3</ele>
        <time>2024-03-03T07:28:12Z</time>
      </trkpt>
      <trkpt lat="49.21904" lon="-0.06882">
        <ele>24.5</ele>
        <time>2024-03-03T07:28:13Z</time>
      </trkpt>
      <trkpt lat="49.219" lon="-0.06878">
        <ele>24.7</ele>
        <time>2024-03-03T07:28:14Z</time>
      </trkpt>
      <trkpt lat="49.21895" lon="-0.06874">
        <ele>24.9</ele>
        <time>2024-03-03T07:28:15Z</time>
      </trkpt>
      <trkpt lat="49.21891" lon="-0.0687">
        <ele>25.1</ele>
        <time>2024-03-03T07:28:16Z</time>
      </trkpt>
      <trkpt lat="49.21887" lon="-0.06865">
        <ele>25.3</ele>
        <time>2024-03-03T07:28:17Z</time>
      </trkpt>
      <trkpt lat="49.21883" lon="-0.0686">
        <ele>25.5</ele>
        <time>2024-03-03T07:28:18Z</time>
      </trkpt>
      <trkpt lat="49.21879" lon="-0.06856">
        <ele>25.7</ele>
        <time>2024-03-03T07:28:19Z</time>
      </trkpt>
      <trkpt lat="49.21876" lon="-0.06851">
        <ele>25.9</ele>
        <time>2024-03-03T07:28:20Z</time>
      </trkpt>
      <trkpt lat="49.21872" lon="-0.06847">
        <ele>26.1</ele>
        <time>2024-03-03T07:28:21Z</time>
      </trkpt>
      <trkpt lat="49.21868" lon="-0.06842">
        <ele>26.2</ele>
        <time>2024-03-03T07:28:22Z</time>
      </trkpt>
      <trkpt lat="49.21864" lon="-0.06837">
        <ele>26.4</ele>
        <time>2024-03-03T07:28:23Z</time>
      </trkpt>
      <trkpt lat="49.2186" lon="-0.06833">
        <ele>26.6</ele>
        <time>2024-03-03T07:28:24Z</time>
      </trkpt>
      <trkpt lat="49.21857" lon="-0.06827">
        <ele>26.8</ele>
        <time>2024-03-03T07:28:25Z</time>
      </trkpt>
      <trkpt lat="49.21853" lon="-0.06823">
        <ele>26.9</ele>
        <time>2024-03-03T07:28:26Z</time>
      </trkpt>
      <trkpt lat="49.2185" lon="-0.0682">
        <ele>27</ele>
        <time>2024-03-03T07:28:27Z</time>
      </trkpt>
      <trkpt lat="49.21847" lon="-0.06815">
        <ele>27.2</ele>
        <time>2024-03-03T07:28:28Z</time>
      </trkpt>
      <trkpt lat="49.21844" lon="-0.0681">
        <ele>27.3</ele>
        <time>2024-03-03T07:28:29Z</time>
      </trkpt>
      <trkpt lat="49.21841" lon="-0.06808">
        <ele>27.4</ele>
        <time>2024-03-03T07:28:30Z</time>
      </trkpt>
      <trkpt lat="49.21839" lon="-0.06805">
        <ele>27.5</ele>
        <time>2024-03-03T07:28:31Z</time>
      </trkpt>
      <trkpt lat="49.21836" lon="-0.06803">
        <ele>27.6</ele>
        <time>2024-03-03T07:28:32Z</time>
      </trkpt>
      <trkpt lat="49.21833" lon="-0.068">
        <ele>27.7</ele>
        <time>2024-03-03T07:28:33Z</time>
      </trkpt>
      <trkpt lat="49.21829" lon="-0.06797">
        <ele>27.8</ele>
        <time>2024-03-03T07:28:34Z</time>
      </trkpt>
      <trkpt lat="49.21825" lon="-0.06796">
        <ele>27.9</ele>
        <time>2024-03-03T07:28:35Z</time>
      </trkpt>
      <trkpt lat="49.21821" lon="-0.06796">
        <ele>28</ele>
        <time>2024-03-03T07:28:36Z</time>
      </trkpt>
      <trkpt lat="49.21816" lon="-0.06795">
        <ele>28.1</ele>
        <time>2024-03-03T07:28:37Z</time>
      </trkpt>
      <trkpt lat="49.21809" lon="-0.06793">
        <ele>28.2</ele>
        <time>2024-03-03T07:28:38Z</time>
      </trkpt>
      <trkpt lat="49.21803" lon="-0.06791">
        <ele>28.3</ele>
        <time>2024-03-03T07:28:39Z</time>
      </trkpt>
      <trkpt lat="49.21797" lon="-0.06791">
        <ele>28.4</ele>
        <time>2024-03-03T07:28:40Z</time>
      </trkpt>
      <trkpt lat="49.21791" lon="-0.0679">
        <ele>28.5</ele>
        <time>2024-03-03T07:28:41Z</time>
      </trkpt>
      <trkpt lat="49.21785" lon="-0.06789">
        <ele>28.6</ele>
        <time>2024-03-03T07:28:42Z</time>
      </trkpt>
      <trkpt lat="49.21779" lon="-0.06788">
        <ele>28.7</ele>
        <time>2024-03-03T07:28:43Z</time>
      </trkpt>
      <trkpt lat="49.21773" lon="-0.06787">
        <ele>28.7</ele>
        <time>2024-03-03T07:28:44Z</time>
      </trkpt>
      <trkpt lat="49.21766" lon="-0.06784">
        <ele>28.8</ele>
        <time>2024-03-03T07:28:45Z</time>
      </trkpt>
      <trkpt lat="49.2176" lon="-0.06782">
        <ele>28.9</ele>
        <time>2024-03-03T07:28:46Z</time>
      </trkpt>
      <trkpt lat="49.21753" lon="-0.06781">
        <ele>28.9</ele>
        <time>2024-03-03T07:28:47Z</time>
      </trkpt>
      <trkpt lat="49.21747" lon="-0.06779">
        <ele>28.9</ele>
        <time>2024-03-03T07:28:48Z</time>
      </trkpt>
      <trkpt lat="49.21741" lon="-0.06779">
        <ele>28.9</ele>
        <time>2024-03-03T07:28:49Z</time>
      </trkpt>
      <trkpt lat="49.21735" lon="-0.06778">
        <ele>28.9</ele>
        <time>2024-03-03T07:28:50Z</time>
      </trkpt>
      <trkpt lat="49.21729" lon="-0.06778">
        <ele>28.9</ele>
        <time>2024-03-03T07:28:51Z</time>
      </trkpt>
      <trkpt lat="49.21724" lon="-0.06777">
        <ele>28.9</ele>
        <time>2024-03-03T07:28:52Z</time>
      </trkpt>
      <trkpt lat="49.21719" lon="-0.06777">
        <ele>28.9</ele>
        <time>2024-03-03T07:28:53Z</time>
      </trkpt>
      <trkpt lat="49.21713" lon="-0.06776">
        <ele>28.9</ele>
        <time>2024-03-03T07:28:54Z</time>
      </trkpt>
      <trkpt lat="49.21707" lon="-0.06776">
        <ele>28.6</ele>
        <time>2024-03-03T07:28:55Z</time>
      </trkpt>
      <trkpt lat="49.21702" lon="-0.06777">
        <ele>28.4</ele>
        <time>2024-03-03T07:28:56Z</time>
      </trkpt>
      <trkpt lat="49.21696" lon="-0.06778">
        <ele>28.1</ele>
        <time>2024-03-03T07:28:57Z</time>
      </trkpt>
      <trkpt lat="49.21689" lon="-0.06779">
        <ele>27.7</ele>
        <time>2024-03-03T07:28:58Z</time>
      </trkpt>
      <trkpt lat="49.21683" lon="-0.06781">
        <ele>27.2</ele>
        <time>2024-03-03T07:28:59Z</time>
      </trkpt>
      <trkpt lat="49.21677" lon="-0.06786">
        <ele>26.7</ele>
        <time>2024-03-03T07:29:00Z</time>
      </trkpt>
      <trkpt lat="49.21672" lon="-0.06795">
        <ele>26</ele>
        <time>2024-03-03T07:29:01Z</time>
      </trkpt>
      <trkpt lat="49.21668" lon="-0.06805">
        <ele>25.2</ele>
        <time>2024-03-03T07:29:02Z</time>
      </trkpt>
      <trkpt lat="49.21664" lon="-0.06816">
        <ele>24.5</ele>
        <time>2024-03-03T07:29:03Z</time>
      </trkpt>
      <trkpt lat="49.2166" lon="-0.06827">
        <ele>23.7</ele>
        <time>2024-03-03T07:29:04Z</time>
      </trkpt>
      <trkpt lat="49.21655" lon="-0.06838">
        <ele>22.8</ele>
        <time>2024-03-03T07:29:05Z</time>
      </trkpt>
      <trkpt lat="49.21649" lon="-0.06847">
        <ele>22.1</ele>
        <time>2024-03-03T07:29:06Z</time>
      </trkpt>
      <trkpt lat="49.21641" lon="-0.06855">
        <ele>21.3</ele>
        <time>2024-03-03T07:29:07Z</time>
      </trkpt>
      <trkpt lat="49.21634" lon="-0.06864">
        <ele>20.5</ele>
        <time>2024-03-03T07:29:08Z</time>
      </trkpt>
      <trkpt lat="49.21625" lon="-0.06869">
        <ele>19.9</ele>
        <time>2024-03-03T07:29:09Z</time>
      </trkpt>
      <trkpt lat="49.21616" lon="-0.06874">
        <ele>19.2</ele>
        <time>2024-03-03T07:29:10Z</time>
      </trkpt>
      <trkpt lat="49.21606" lon="-0.06877">
        <ele>18.6</ele>
        <time>2024-03-03T07:29:11Z</time>
      </trkpt>
      <trkpt lat="49.21596" lon="-0.06879">
        <ele>18.1</ele>
        <time>2024-03-03T07:29:12Z</time>
      </trkpt>
      <trkpt lat="49.21585" lon="-0.06881">
        <ele>17.4</ele>
        <time>2024-03-03T07:29:13Z</time>
      </trkpt>
      <trkpt lat="49.21574" lon="-0.06882">
        <ele>16.8</ele>
        <time>2024-03-03T07:29:14Z</time>
      </trkpt>
      <trkpt lat="49.21563" lon="-0.06883">
        <ele>16.2</ele>
        <time>2024-03-03T07:29:15Z</time>
      </trkpt>
      <trkpt lat="49.21552" lon="-0.06884">
        <ele>15.7</ele>
        <time>2024-03-03T07:29:16Z</time>
      </trkpt>
      <trkpt lat="49.21542" lon="-0.06884">
        <ele>15.3</ele>
        <time>2024-03-03T07:29:17Z</time>
      </trkpt>
      <trkpt lat="49.21531" lon="-0.06885">
        <ele>14.9</ele>
        <time>2024-03-03T07:29:18Z</time>
      </trkpt>
      <trkpt lat="49.21521" lon="-0.06885">
        <ele>14.6</ele>
        <time>2024-03-03T07:29:19Z</time>
      </trkpt>
      <trkpt lat="49.2151" lon="-0.06886">
        <ele>14.3</ele>
        <time>2024-03-03T07:29:20Z</time>
      </trkpt>
      <trkpt lat="49.215" lon="-0.06887">
        <ele>14.1</ele>
        <time>2024-03-03T07:29:21Z</time>
      </trkpt>
      <trkpt lat="49.21491" lon="-0.06888">
        <ele>13.9</ele>
        <time>2024-03-03T07:29:22Z</time>
      </trkpt>
      <trkpt lat="49.21481" lon="-0.06889">
        <ele>13.8</ele>
        <time>2024-03-03T07:29:23Z</time>
      </trkpt>
      <trkpt lat="49.21471" lon="-0.0689">
        <ele>13.8</ele>
        <time>2024-03-03T07:29:24Z</time>
      </trkpt>
      <trkpt lat="49.21462" lon="-0.06891">
        <ele>13.9</ele>
        <time>2024-03-03T07:29:25Z</time>
      </trkpt>
      <trkpt lat="49.21453" lon="-0.06892">
        <ele>13.9</ele>
        <time>2024-03-03T07:29:26Z</time>
      </trkpt>
      <trkpt lat="49.21444" lon="-0.06894">
        <ele>13.9</ele>
        <time>2024-03-03T07:29:27Z</time>
      </trkpt>
      <trkpt lat="49.21436" lon="-0.06895">
        <ele>14</ele>
        <time>2024-03-03T07:29:28Z</time>
      </trkpt>
      <trkpt lat="49.21428" lon="-0.06896">
        <ele>14</ele>
        <time>2024-03-03T07:29:29Z</time>
      </trkpt>
      <trkpt lat="49.2142" lon="-0.06897">
        <ele>14.1</ele>
        <time>2024-03-03T07:29:30Z</time>
      </trkpt>
      <trkpt lat="49.21413" lon="-0.069">
        <ele>14.2</ele>
        <time>2024-03-03T07:29:31Z</time>
      </trkpt>
      <trkpt lat="49.21406" lon="-0.06901">
        <ele>14.3</ele>
        <time>2024-03-03T07:29:32Z</time>
      </trkpt>
      <trkpt lat="49.21398" lon="-0.06903">
        <ele>14.4</ele>
        <time>2024-03-03T07:29:33Z</time>
      </trkpt>
      <trkpt lat="49.2139" lon="-0.06903">
        <ele>14.4</ele>
        <time>2024-03-03T07:29:34Z</time>
      </trkpt>
      <trkpt lat="49.21382" lon="-0.06903">
        <ele>14.4</ele>
        <time>2024-03-03T07:29:35Z</time>
      </trkpt>
      <trkpt lat="49.21375" lon="-0.06903">
        <ele>14.3</ele>
        <time>2024-03-03T07:29:36Z</time>
      </trkpt>
      <trkpt lat="49.21368" lon="-0.06902">
        <ele>14.3</ele>
        <time>2024-03-03T07:29:37Z</time>
      </trkpt>
      <trkpt lat="49.21361" lon="-0.06901">
        <ele>14.1</ele>
        <time>2024-03-03T07:29:38Z</time>
      </trkpt>
      <trkpt lat="49.21354" lon="-0.06899">
        <ele>13.9</ele>
        <time>2024-03-03T07:29:39Z</time>
      </trkpt>
      <trkpt lat="49.21347" lon="-0.06898">
        <ele>13.8</ele>
        <time>2024-03-03T07:29:40Z</time>
      </trkpt>
      <trkpt lat="49.2134" lon="-0.06897">
        <ele>13.5</ele>
        <time>2024-03-03T07:29:41Z</time>
      </trkpt>
      <trkpt lat="49.21333" lon="-0.06896">
        <ele>13.3</ele>
        <time>2024-03-03T07:29:42Z</time>
      </trkpt>
      <trkpt lat="49.21325" lon="-0.06895">
        <ele>13</ele>
        <time>2024-03-03T07:29:43Z</time>
      </trkpt>
      <trkpt lat="49.21318" lon="-0.06894">
        <ele>12.7</ele>
        <time>2024-03-03T07:29:44Z</time>
      </trkpt>
      <trkpt lat="49.2131" lon="-0.06894">
        <ele>12.4</ele>
        <time>2024-03-03T07:29:45Z</time>
      </trkpt>
      <trkpt lat="49.21302" lon="-0.06894">
        <ele>12.2</ele>
        <time>2024-03-03T07:29:46Z</time>
      </trkpt>
      <trkpt lat="49.21294" lon="-0.06893">
        <ele>11.9</ele>
        <time>2024-03-03T07:29:47Z</time>
      </trkpt>
      <trkpt lat="49.21287" lon="-0.06893">
        <ele>11.7</ele>
        <time>2024-03-03T07:29:48Z</time>
      </trkpt>
      <trkpt lat="49.21279" lon="-0.06892">
        <ele>11.5</ele>
        <time>2024-03-03T07:29:49Z</time>
      </trkpt>
      <trkpt lat="49.21272" lon="-0.06892">
        <ele>11.2</ele>
        <time>2024-03-03T07:29:50Z</time>
      </trkpt>
      <trkpt lat="49.21264" lon="-0.06891">
        <ele>11</ele>
        <time>2024-03-03T07:29:51Z</time>
      </trkpt>
      <trkpt lat="49.21255" lon="-0.0689">
        <ele>10.7</ele>
        <time>2024-03-03T07:29:52Z</time>
      </trkpt>
      <trkpt lat="49.21246" lon="-0.0689">
        <ele>10.5</ele>
        <time>2024-03-03T07:29:53Z</time>
      </trkpt>
      <trkpt lat="49.21237" lon="-0.06888">
        <ele>10.2</ele>
        <time>2024-03-03T07:29:54Z</time>
      </trkpt>
      <trkpt lat="49.21227" lon="-0.06886">
        <ele>10</ele>
        <time>2024-03-03T07:29:55Z</time>
      </trkpt>
      <trkpt lat="49.21219" lon="-0.06884">
        <ele>9.9</ele>
        <time>2024-03-03T07:29:56Z</time>
      </trkpt>
      <trkpt lat="49.2121" lon="-0.06883">
        <ele>9.7</ele>
        <time>2024-03-03T07:29:57Z</time>
      </trkpt>
      <trkpt lat="49.21202" lon="-0.06883">
        <ele>9.6</ele>
        <time>2024-03-03T07:29:58Z</time>
      </trkpt>
      <trkpt lat="49.21193" lon="-0.06882">
        <ele>9.5</ele>
        <time>2024-03-03T07:29:59Z</time>
      </trkpt>
      <trkpt lat="49.21185" lon="-0.06881">
        <ele>9.4</ele>
        <time>2024-03-03T07:30:00Z</time>
      </trkpt>
      <trkpt lat="49.21176" lon="-0.0688">
        <ele>9.2</ele>
        <time>2024-03-03T07:30:01Z</time>
      </trkpt>
      <trkpt lat="49.21167" lon="-0.06879">
        <ele>9.1</ele>
        <time>2024-03-03T07:30:02Z</time>
      </trkpt>
      <trkpt lat="49.21158" lon="-0.06877">
        <ele>9</ele>
        <time>2024-03-03T07:30:03Z</time>
      </trkpt>
      <trkpt lat="49.2115" lon="-0.06876">
        <ele>8.9</ele>
        <time>2024-03-03T07:30:04Z</time>
      </trkpt>
      <trkpt lat="49.21142" lon="-0.06874">
        <ele>8.9</ele>
        <time>2024-03-03T07:30:05Z</time>
      </trkpt>
      <trkpt lat="49.21134" lon="-0.06872">
        <ele>8.9</ele>
        <time>2024-03-03T07:30:06Z</time>
      </trkpt>
      <trkpt lat="49.21126" lon="-0.06871">
        <ele>8.9</ele>
        <time>2024-03-03T07:30:07Z</time>
      </trkpt>
      <trkpt lat="49.21118" lon="-0.0687">
        <ele>8.9</ele>
        <time>2024-03-03T07:30:08Z</time>
      </trkpt>
      <trkpt lat="49.21111" lon="-0.06868">
        <ele>8.9</ele>
        <time>2024-03-03T07:30:09Z</time>
      </trkpt>
      <trkpt lat="49.21102" lon="-0.06865">
        <ele>8.9</ele>
        <time>2024-03-03T07:30:10Z</time>
      </trkpt>
      <trkpt lat="49.21094" lon="-0.06863">
        <ele>8.8</ele>
        <time>2024-03-03T07:30:11Z</time>
      </trkpt>
      <trkpt lat="49.21086" lon="-0.06862">
        <ele>8.8</ele>
        <time>2024-03-03T07:30:12Z</time>
      </trkpt>
      <trkpt lat="49.21079" lon="-0.0686">
        <ele>8.7</ele>
        <time>2024-03-03T07:30:13Z</time>
      </trkpt>
      <trkpt lat="49.21071" lon="-0.06858">
        <ele>8.7</ele>
        <time>2024-03-03T07:30:14Z</time>
      </trkpt>
      <trkpt lat="49.21063" lon="-0.06857">
        <ele>8.7</ele>
        <time>2024-03-03T07:30:15Z</time>
      </trkpt>
      <trkpt lat="49.21055" lon="-0.06858">
        <ele>8.6</ele>
        <time>2024-03-03T07:30:16Z</time>
      </trkpt>
      <trkpt lat="49.21048" lon="-0.06859">
        <ele>8.6</ele>
        <time>2024-03-03T07:30:17Z</time>
      </trkpt>
      <trkpt lat="49.2104" lon="-0.0686">
        <ele>8.6</ele>
        <time>2024-03-03T07:30:18Z</time>
      </trkpt>
      <trkpt lat="49.21034" lon="-0.06861">
        <ele>8.6</ele>
        <time>2024-03-03T07:30:19Z</time>
      </trkpt>
      <trkpt lat="49.21027" lon="-0.06862">
        <ele>8.6</ele>
        <time>2024-03-03T07:30:20Z</time>
      </trkpt>
      <trkpt lat="49.21019" lon="-0.06864">
        <ele>8.5</ele>
        <time>2024-03-03T07:30:21Z</time>
      </trkpt>
      <trkpt lat="49.21012" lon="-0.06864">
        <ele>8.5</ele>
        <time>2024-03-03T07:30:22Z</time>
      </trkpt>
      <trkpt lat="49.21004" lon="-0.06865">
        <ele>8.5</ele>
        <time>2024-03-03T07:30:23Z</time>
      </trkpt>
      <trkpt lat="49.20997" lon="-0.06865">
        <ele>8.4</ele>
        <time>2024-03-03T07:30:24Z</time>
      </trkpt>
      <trkpt lat="49.2099" lon="-0.06865">
        <ele>8.4</ele>
        <time>2024-03-03T07:30:25Z</time>
      </trkpt>
      <trkpt lat="49.20982" lon="-0.06865">
        <ele>8.4</ele>
        <time>2024-03-03T07:30:26Z</time>
      </trkpt>
      <trkpt lat="49.20975" lon="-0.06867">
        <ele>8.3</ele>
        <time>2024-03-03T07:30:27Z</time>
      </trkpt>
      <trkpt lat="49.20967" lon="-0.06867">
        <ele>8.3</ele>
        <time>2024-03-03T07:30:28Z</time>
      </trkpt>
      <trkpt lat="49.20959" lon="-0.06868">
        <ele>8.3</ele>
        <time>2024-03-03T07:30:29Z</time>
      </trkpt>
      <trkpt lat="49.20951" lon="-0.06869">
        <ele>8.3</ele>
        <time>2024-03-03T07:30:30Z</time>
      </trkpt>
      <trkpt lat="49.20944" lon="-0.06869">
        <ele>8.3</ele>
        <time>2024-03-03T07:30:31Z</time>
      </trkpt>
      <trkpt lat="49.20936" lon="-0.0687">
        <ele>8.3</ele>
        <time>2024-03-03T07:30:32Z</time>
      </trkpt>
      <trkpt lat="49.20928" lon="-0.0687">
        <ele>8.3</ele>
        <time>2024-03-03T07:30:33Z</time>
      </trkpt>
      <trkpt lat="49.2092" lon="-0.06869">
        <ele>8.3</ele>
        <time>2024-03-03T07:30:34Z</time>
      </trkpt>
      <trkpt lat="49.20913" lon="-0.06868">
        <ele>8.3</ele>
        <time>2024-03-03T07:30:35Z</time>
      </trkpt>
      <trkpt lat="49.20906" lon="-0.06865">
        <ele>8.2</ele>
        <time>2024-03-03T07:30:36Z</time>
      </trkpt>
      <trkpt lat="49.20898" lon="-0.06861">
        <ele>8.2</ele>
        <time>2024-03-03T07:30:37Z</time>
      </trkpt>
      <trkpt lat="49.20891" lon="-0.06858">
        <ele>8.2</ele>
        <time>2024-03-03T07:30:38Z</time>
      </trkpt>
      <trkpt lat="49.20885" lon="-0.06854">
        <ele>8.2</ele>
        <time>2024-03-03T07:30:39Z</time>
      </trkpt>
      <trkpt lat="49.20878" lon="-0.06852">
        <ele>8.2</ele>
        <time>2024-03-03T07:30:40Z</time>
      </trkpt>
      <trkpt lat="49.20871" lon="-0.06851">
        <ele>8.2</ele>
        <time>2024-03-03T07:30:41Z</time>
      </trkpt>
      <trkpt lat="49.20865" lon="-0.0685">
        <ele>8.2</ele>
        <time>2024-03-03T07:30:42Z</time>
      </trkpt>
      <trkpt lat="49.20858" lon="-0.06848">
        <ele>8.2</ele>
        <time>2024-03-03T07:30:43Z</time>
      </trkpt>
      <trkpt lat="49.20851" lon="-0.06847">
        <ele>8.3</ele>
        <time>2024-03-03T07:30:44Z</time>
      </trkpt>
      <trkpt lat="49.20843" lon="-0.06845">
        <ele>8.3</ele>
        <time>2024-03-03T07:30:45Z</time>
      </trkpt>
      <trkpt lat="49.20836" lon="-0.06844">
        <ele>8.3</ele>
        <time>2024-03-03T07:30:46Z</time>
      </trkpt>
      <trkpt lat="49.20829" lon="-0.06842">
        <ele>8.3</ele>
        <time>2024-03-03T07:30:47Z</time>
      </trkpt>
      <trkpt lat="49.20822" lon="-0.0684">
        <ele>8.3</ele>
        <time>2024-03-03T07:30:48Z</time>
      </trkpt>
      <trkpt lat="49.20815" lon="-0.06837">
        <ele>8.4</ele>
        <time>2024-03-03T07:30:49Z</time>
      </trkpt>
      <trkpt lat="49.20808" lon="-0.06835">
        <ele>8.4</ele>
        <time>2024-03-03T07:30:50Z</time>
      </trkpt>
      <trkpt lat="49.20802" lon="-0.06832">
        <ele>8.5</ele>
        <time>2024-03-03T07:30:51Z</time>
      </trkpt>
      <trkpt lat="49.20795" lon="-0.06829">
        <ele>8.5</ele>
        <time>2024-03-03T07:30:52Z</time>
      </trkpt>
      <trkpt lat="49.20789" lon="-0.06825">
        <ele>8.5</ele>
        <time>2024-03-03T07:30:53Z</time>
      </trkpt>
      <trkpt lat="49.20783" lon="-0.0682">
        <ele>8.5</ele>
        <time>2024-03-03T07:30:54Z</time>
      </trkpt>
      <trkpt lat="49.20777" lon="-0.06815">
        <ele>8.6</ele>
        <time>2024-03-03T07:30:55Z</time>
      </trkpt>
      <trkpt lat="49.20772" lon="-0.0681">
        <ele>8.6</ele>
        <time>2024-03-03T07:30:56Z</time>
      </trkpt>
      <trkpt lat="49.20766" lon="-0.06804">
        <ele>8.6</ele>
        <time>2024-03-03T07:30:57Z</time>
      </trkpt>
      <trkpt lat="49.20761" lon="-0.06799">
        <ele>8.6</ele>
        <time>2024-03-03T07:30:58Z</time>
      </trkpt>
      <trkpt lat="49.20756" lon="-0.06793">
        <ele>8.7</ele>
        <time>2024-03-03T07:30:59Z</time>
      </trkpt>
      <trkpt lat="49.2075" lon="-0.06786">
        <ele>8.7</ele>
        <time>2024-03-03T07:31:00Z</time>
      </trkpt>
      <trkpt lat="49.20745" lon="-0.06779">
        <ele>8.7</ele>
        <time>2024-03-03T07:31:01Z</time>
      </trkpt>
      <trkpt lat="49.20739" lon="-0.06773">
        <ele>8.8</ele>
        <time>2024-03-03T07:31:02Z</time>
      </trkpt>
      <trkpt lat="49.20734" lon="-0.06767">
        <ele>8.8</ele>
        <time>2024-03-03T07:31:03Z</time>
      </trkpt>
      <trkpt lat="49.20728" lon="-0.06761">
        <ele>8.8</ele>
        <time>2024-03-03T07:31:04Z</time>
      </trkpt>
      <trkpt lat="49.20723" lon="-0.06755">
        <ele>8.8</ele>
        <time>2024-03-03T07:31:05Z</time>
      </trkpt>
      <trkpt lat="49.20718" lon="-0.06749">
        <ele>8.9</ele>
        <time>2024-03-03T07:31:06Z</time>
      </trkpt>
      <trkpt lat="49.20713" lon="-0.06743">
        <ele>8.9</ele>
        <time>2024-03-03T07:31:07Z</time>
      </trkpt>
      <trkpt lat="49.20706" lon="-0.06738">
        <ele>8.9</ele>
        <time>2024-03-03T07:31:08Z</time>
      </trkpt>
      <trkpt lat="49.207" lon="-0.06733">
        <ele>8.9</ele>
        <time>2024-03-03T07:31:09Z</time>
      </trkpt>
      <trkpt lat="49.20694" lon="-0.06727">
        <ele>8.9</ele>
        <time>2024-03-03T07:31:10Z</time>
      </trkpt>
      <trkpt lat="49.20689" lon="-0.06721">
        <ele>9</ele>
        <time>2024-03-03T07:31:11Z</time>
      </trkpt>
      <trkpt lat="49.20683" lon="-0.06715">
        <ele>9</ele>
        <time>2024-03-03T07:31:12Z</time>
      </trkpt>
      <trkpt lat="49.20677" lon="-0.06709">
        <ele>9</ele>
        <time>2024-03-03T07:31:13Z</time>
      </trkpt>
      <trkpt lat="49.20672" lon="-0.06704">
        <ele>9</ele>
        <time>2024-03-03T07:31:14Z</time>
      </trkpt>
      <trkpt lat="49.20667" lon="-0.06699">
        <ele>9</ele>
        <time>2024-03-03T07:31:15Z</time>
      </trkpt>
      <trkpt lat="49.20662" lon="-0.06693">
        <ele>9</ele>
        <time>2024-03-03T07:31:16Z</time>
      </trkpt>
      <trkpt lat="49.20657" lon="-0.06687">
        <ele>9</ele>
        <time>2024-03-03T07:31:17Z</time>
      </trkpt>
      <trkpt lat="49.20652" lon="-0.06681">
        <ele>9</ele>
        <time>2024-03-03T07:31:18Z</time>
      </trkpt>
      <trkpt lat="49.20646" lon="-0.06675">
        <ele>9</ele>
        <time>2024-03-03T07:31:19Z</time>
      </trkpt>
      <trkpt lat="49.20641" lon="-0.06669">
        <ele>9</ele>
        <time>2024-03-03T07:31:20Z</time>
      </trkpt>
      <trkpt lat="49.20636" lon="-0.06662">
        <ele>9.1</ele>
        <time>2024-03-03T07:31:21Z</time>
      </trkpt>
      <trkpt lat="49.20631" lon="-0.06655">
        <ele>9.1</ele>
        <time>2024-03-03T07:31:22Z</time>
      </trkpt>
      <trkpt lat="49.20626" lon="-0.06649">
        <ele>9.1</ele>
        <time>2024-03-03T07:31:23Z</time>
      </trkpt>
      <trkpt lat="49.20621" lon="-0.06642">
        <ele>9.1</ele>
        <time>2024-03-03T07:31:24Z</time>
      </trkpt>
      <trkpt lat="49.20616" lon="-0.06636">
        <ele>9.1</ele>
        <time>2024-03-03T07:31:25Z</time>
      </trkpt>
      <trkpt lat="49.20611" lon="-0.06629">
        <ele>9.2</ele>
        <time>2024-03-03T07:31:26Z</time>
      </trkpt>
      <trkpt lat="49.20607" lon="-0.06622">
        <ele>9.2</ele>
        <time>2024-03-03T07:31:27Z</time>
      </trkpt>
      <trkpt lat="49.20602" lon="-0.06615">
        <ele>9.2</ele>
        <time>2024-03-03T07:31:28Z</time>
      </trkpt>
      <trkpt lat="49.20598" lon="-0.06607">
        <ele>9.2</ele>
        <time>2024-03-03T07:31:29Z</time>
      </trkpt>
      <trkpt lat="49.20592" lon="-0.06599">
        <ele>9.2</ele>
        <time>2024-03-03T07:31:30Z</time>
      </trkpt>
      <trkpt lat="49.20588" lon="-0.0659">
        <ele>9.2</ele>
        <time>2024-03-03T07:31:31Z</time>
      </trkpt>
      <trkpt lat="49.20583" lon="-0.06581">
        <ele>9.2</ele>
        <time>2024-03-03T07:31:32Z</time>
      </trkpt>
      <trkpt lat="49.20579" lon="-0.06572">
        <ele>9.1</ele>
        <time>2024-03-03T07:31:33Z</time>
      </trkpt>
      <trkpt lat="49.20574" lon="-0.06564">
        <ele>9.1</ele>
        <time>2024-03-03T07:31:34Z</time>
      </trkpt>
      <trkpt lat="49.20568" lon="-0.06556">
        <ele>9.1</ele>
        <time>2024-03-03T07:31:35Z</time>
      </trkpt>
      <trkpt lat="49.20562" lon="-0.06549">
        <ele>9.1</ele>
        <time>2024-03-03T07:31:36Z</time>
      </trkpt>
      <trkpt lat="49.20556" lon="-0.06543">
        <ele>9</ele>
        <time>2024-03-03T07:31:37Z</time>
      </trkpt>
      <trkpt lat="49.2055" lon="-0.06536">
        <ele>9</ele>
        <time>2024-03-03T07:31:38Z</time>
      </trkpt>
      <trkpt lat="49.20544" lon="-0.0653">
        <ele>9</ele>
        <time>2024-03-03T07:31:39Z</time>
      </trkpt>
      <trkpt lat="49.20538" lon="-0.06525">
        <ele>9</ele>
        <time>2024-03-03T07:31:40Z</time>
      </trkpt>
      <trkpt lat="49.20532" lon="-0.0652">
        <ele>9</ele>
        <time>2024-03-03T07:31:41Z</time>
      </trkpt>
      <trkpt lat="49.20525" lon="-0.06514">
        <ele>9</ele>
        <time>2024-03-03T07:31:42Z</time>
      </trkpt>
      <trkpt lat="49.20519" lon="-0.06508">
        <ele>9</ele>
        <time>2024-03-03T07:31:43Z</time>
      </trkpt>
      <trkpt lat="49.20513" lon="-0.06502">
        <ele>8.9</ele>
        <time>2024-03-03T07:31:44Z</time>
      </trkpt>
      <trkpt lat="49.20508" lon="-0.06496">
        <ele>8.9</ele>
        <time>2024-03-03T07:31:45Z</time>
      </trkpt>
      <trkpt lat="49.20503" lon="-0.06489">
        <ele>8.9</ele>
        <time>2024-03-03T07:31:46Z</time>
      </trkpt>
      <trkpt lat="49.20498" lon="-0.06482">
        <ele>8.9</ele>
        <time>2024-03-03T07:31:47Z</time>
      </trkpt>
      <trkpt lat="49.20492" lon="-0.06475">
        <ele>8.9</ele>
        <time>2024-03-03T07:31:48Z</time>
      </trkpt>
      <trkpt lat="49.20487" lon="-0.06467">
        <ele>8.9</ele>
        <time>2024-03-03T07:31:49Z</time>
      </trkpt>
      <trkpt lat="49.20482" lon="-0.0646">
        <ele>8.9</ele>
        <time>2024-03-03T07:31:50Z</time>
      </trkpt>
      <trkpt lat="49.20476" lon="-0.06453">
        <ele>8.9</ele>
        <time>2024-03-03T07:31:51Z</time>
      </trkpt>
      <trkpt lat="49.2047" lon="-0.06447">
        <ele>8.9</ele>
        <time>2024-03-03T07:31:52Z</time>
      </trkpt>
      <trkpt lat="49.20464" lon="-0.06441">
        <ele>8.8</ele>
        <time>2024-03-03T07:31:53Z</time>
      </trkpt>
      <trkpt lat="49.20458" lon="-0.06435">
        <ele>8.8</ele>
        <time>2024-03-03T07:31:54Z</time>
      </trkpt>
      <trkpt lat="49.20452" lon="-0.0643">
        <ele>8.8</ele>
        <time>2024-03-03T07:31:55Z</time>
      </trkpt>
      <trkpt lat="49.20445" lon="-0.06426">
        <ele>8.8</ele>
        <time>2024-03-03T07:31:56Z</time>
      </trkpt>
      <trkpt lat="49.20438" lon="-0.06423">
        <ele>8.9</ele>
        <time>2024-03-03T07:31:57Z</time>
      </trkpt>
      <trkpt lat="49.20431" lon="-0.06419">
        <ele>8.9</ele>
        <time>2024-03-03T07:31:58Z</time>
      </trkpt>
      <trkpt lat="49.20424" lon="-0.06417">
        <ele>8.9</ele>
        <time>2024-03-03T07:31:59Z</time>
      </trkpt>
      <trkpt lat="49.20417" lon="-0.06414">
        <ele>8.9</ele>
        <time>2024-03-03T07:32:00Z</time>
      </trkpt>
      <trkpt lat="49.2041" lon="-0.06411">
        <ele>8.9</ele>
        <time>2024-03-03T07:32:01Z</time>
      </trkpt>
      <trkpt lat="49.20404" lon="-0.06408">
        <ele>8.9</ele>
        <time>2024-03-03T07:32:02Z</time>
      </trkpt>
      <trkpt lat="49.20397" lon="-0.06404">
        <ele>8.9</ele>
        <time>2024-03-03T07:32:03Z</time>
      </trkpt>
      <trkpt lat="49.2039" lon="-0.064">
        <ele>8.9</ele>
        <time>2024-03-03T07:32:04Z</time>
      </trkpt>
      <trkpt lat="49.20384" lon="-0.06396">
        <ele>8.8</ele>
        <time>2024-03-03T07:32:05Z</time>
      </trkpt>
      <trkpt lat="49.20377" lon="-0.06392">
        <ele>8.8</ele>
        <time>2024-03-03T07:32:06Z</time>
      </trkpt>
      <trkpt lat="49.2037" lon="-0.06388">
        <ele>8.8</ele>
        <time>2024-03-03T07:32:07Z</time>
      </trkpt>
      <trkpt lat="49.20364" lon="-0.06385">
        <ele>8.7</ele>
        <time>2024-03-03T07:32:08Z</time>
      </trkpt>
      <trkpt lat="49.20358" lon="-0.06382">
        <ele>8.7</ele>
        <time>2024-03-03T07:32:09Z</time>
      </trkpt>
      <trkpt lat="49.20352" lon="-0.06379">
        <ele>8.6</ele>
        <time>2024-03-03T07:32:10Z</time>
      </trkpt>
      <trkpt lat="49.20344" lon="-0.06376">
        <ele>8.6</ele>
        <time>2024-03-03T07:32:11Z</time>
      </trkpt>
      <trkpt lat="49.20337" lon="-0.06373">
        <ele>8.6</ele>
        <time>2024-03-03T07:32:12Z</time>
      </trkpt>
      <trkpt lat="49.20331" lon="-0.0637">
        <ele>8.6</ele>
        <time>2024-03-03T07:32:13Z</time>
      </trkpt>
      <trkpt lat="49.20324" lon="-0.06367">
        <ele>8.6</ele>
        <time>2024-03-03T07:32:14Z</time>
      </trkpt>
      <trkpt lat="49.20318" lon="-0.06364">
        <ele>8.6</ele>
        <time>2024-03-03T07:32:15Z</time>
      </trkpt>
      <trkpt lat="49.20312" lon="-0.06362">
        <ele>8.5</ele>
        <time>2024-03-03T07:32:16Z</time>
      </trkpt>
      <trkpt lat="49.20306" lon="-0.0636">
        <ele>8.5</ele>
        <time>2024-03-03T07:32:17Z</time>
      </trkpt>
      <trkpt lat="49.203" lon="-0.06359">
        <ele>8.5</ele>
        <time>2024-03-03T07:32:18Z</time>
      </trkpt>
      <trkpt lat="49.20292" lon="-0.06355">
        <ele>8.5</ele>
        <time>2024-03-03T07:32:19Z</time>
      </trkpt>
      <trkpt lat="49.20285" lon="-0.06352">
        <ele>8.5</ele>
        <time>2024-03-03T07:32:20Z</time>
      </trkpt>
      <trkpt lat="49.20278" lon="-0.06348">
        <ele>8.4</ele>
        <time>2024-03-03T07:32:21Z</time>
      </trkpt>
      <trkpt lat="49.20271" lon="-0.06345">
        <ele>8.4</ele>
        <time>2024-03-03T07:32:22Z</time>
      </trkpt>
      <trkpt lat="49.20265" lon="-0.06342">
        <ele>8.3</ele>
        <time>2024-03-03T07:32:23Z</time>
      </trkpt>
      <trkpt lat="49.20258" lon="-0.06338">
        <ele>8.2</ele>
        <time>2024-03-03T07:32:24Z</time>
      </trkpt>
      <trkpt lat="49.20252" lon="-0.06335">
        <ele>8.2</ele>
        <time>2024-03-03T07:32:25Z</time>
      </trkpt>
      <trkpt lat="49.20245" lon="-0.06332">
        <ele>8.1</ele>
        <time>2024-03-03T07:32:26Z</time>
      </trkpt>
      <trkpt lat="49.20238" lon="-0.06329">
        <ele>8.1</ele>
        <time>2024-03-03T07:32:27Z</time>
      </trkpt>
      <trkpt lat="49.20231" lon="-0.06326">
        <ele>8</ele>
        <time>2024-03-03T07:32:28Z</time>
      </trkpt>
      <trkpt lat="49.20224" lon="-0.06322">
        <ele>8</ele>
        <time>2024-03-03T07:32:29Z</time>
      </trkpt>
      <trkpt lat="49.20217" lon="-0.0632">
        <ele>8</ele>
        <time>2024-03-03T07:32:30Z</time>
      </trkpt>
      <trkpt lat="49.20211" lon="-0.06318">
        <ele>8</ele>
        <time>2024-03-03T07:32:31Z</time>
      </trkpt>
      <trkpt lat="49.20204" lon="-0.06318">
        <ele>7.9</ele>
        <time>2024-03-03T07:32:32Z</time>
      </trkpt>
      <trkpt lat="49.20197" lon="-0.06319">
        <ele>7.9</ele>
        <time>2024-03-03T07:32:33Z</time>
      </trkpt>
      <trkpt lat="49.2019" lon="-0.06321">
        <ele>7.9</ele>
        <time>2024-03-03T07:32:34Z</time>
      </trkpt>
      <trkpt lat="49.20183" lon="-0.06324">
        <ele>7.9</ele>
        <time>2024-03-03T07:32:35Z</time>
      </trkpt>
      <trkpt lat="49.20176" lon="-0.06328">
        <ele>7.9</ele>
        <time>2024-03-03T07:32:36Z</time>
      </trkpt>
      <trkpt lat="49.2017" lon="-0.06333">
        <ele>7.9</ele>
        <time>2024-03-03T07:32:37Z</time>
      </trkpt>
      <trkpt lat="49.20165" lon="-0.06338">
        <ele>7.9</ele>
        <time>2024-03-03T07:32:38Z</time>
      </trkpt>
      <trkpt lat="49.2016" lon="-0.06343">
        <ele>7.8</ele>
        <time>2024-03-03T07:32:39Z</time>
      </trkpt>
      <trkpt lat="49.20156" lon="-0.06349">
        <ele>7.8</ele>
        <time>2024-03-03T07:32:40Z</time>
      </trkpt>
      <trkpt lat="49.20152" lon="-0.06357">
        <ele>7.8</ele>
        <time>2024-03-03T07:32:41Z</time>
      </trkpt>
      <trkpt lat="49.20147" lon="-0.06365">
        <ele>7.8</ele>
        <time>2024-03-03T07:32:42Z</time>
      </trkpt>
      <trkpt lat="49.20143" lon="-0.06372">
        <ele>7.7</ele>
        <time>2024-03-03T07:32:43Z</time>
      </trkpt>
      <trkpt lat="49.20138" lon="-0.06379">
        <ele>7.7</ele>
        <time>2024-03-03T07:32:44Z</time>
      </trkpt>
      <trkpt lat="49.20133" lon="-0.06387">
        <ele>7.7</ele>
        <time>2024-03-03T07:32:45Z</time>
      </trkpt>
      <trkpt lat="49.20128" lon="-0.06395">
        <ele>7.6</ele>
        <time>2024-03-03T07:32:46Z</time>
      </trkpt>
      <trkpt lat="49.20124" lon="-0.06403">
        <ele>7.6</ele>
        <time>2024-03-03T07:32:47Z</time>
      </trkpt>
      <trkpt lat="49.20121" lon="-0.06412">
        <ele>7.6</ele>
        <time>2024-03-03T07:32:48Z</time>
      </trkpt>
      <trkpt lat="49.20118" lon="-0.06421">
        <ele>7.6</ele>
        <time>2024-03-03T07:32:49Z</time>
      </trkpt>
      <trkpt lat="49.20115" lon="-0.06428">
        <ele>7.6</ele>
        <time>2024-03-03T07:32:50Z</time>
      </trkpt>
      <trkpt lat="49.2011" lon="-0.06437">
        <ele>7.6</ele>
        <time>2024-03-03T07:32:51Z</time>
      </trkpt>
      <trkpt lat="49.20104" lon="-0.06446">
        <ele>7.6</ele>
        <time>2024-03-03T07:32:52Z</time>
      </trkpt>
      <trkpt lat="49.20098" lon="-0.06453">
        <ele>7.5</ele>
        <time>2024-03-03T07:32:53Z</time>
      </trkpt>
      <trkpt lat="49.20092" lon="-0.0646">
        <ele>7.5</ele>
        <time>2024-03-03T07:32:54Z</time>
      </trkpt>
      <trkpt lat="49.20086" lon="-0.06465">
        <ele>7.4</ele>
        <time>2024-03-03T07:32:55Z</time>
      </trkpt>
      <trkpt lat="49.2008" lon="-0.06471">
        <ele>7.4</ele>
        <time>2024-03-03T07:32:56Z</time>
      </trkpt>
      <trkpt lat="49.20073" lon="-0.06476">
        <ele>7.4</ele>
        <time>2024-03-03T07:32:57Z</time>
      </trkpt>
      <trkpt lat="49.20067" lon="-0.06482">
        <ele>7.3</ele>
        <time>2024-03-03T07:32:58Z</time>
      </trkpt>
      <trkpt lat="49.20061" lon="-0.06488">
        <ele>7.3</ele>
        <time>2024-03-03T07:32:59Z</time>
      </trkpt>
      <trkpt lat="49.20055" lon="-0.06495">
        <ele>7.3</ele>
        <time>2024-03-03T07:33:00Z</time>
      </trkpt>
      <trkpt lat="49.2005" lon="-0.06501">
        <ele>7.3</ele>
        <time>2024-03-03T07:33:01Z</time>
      </trkpt>
      <trkpt lat="49.20044" lon="-0.06508">
        <ele>7.3</ele>
        <time>2024-03-03T07:33:02Z</time>
      </trkpt>
      <trkpt lat="49.20039" lon="-0.06515">
        <ele>7.3</ele>
        <time>2024-03-03T07:33:03Z</time>
      </trkpt>
      <trkpt lat="49.20033" lon="-0.06521">
        <ele>7.3</ele>
        <time>2024-03-03T07:33:04Z</time>
      </trkpt>
      <trkpt lat="49.20027" lon="-0.06528">
        <ele>7.3</ele>
        <time>2024-03-03T07:33:05Z</time>
      </trkpt>
      <trkpt lat="49.2002" lon="-0.06533">
        <ele>7.3</ele>
        <time>2024-03-03T07:33:06Z</time>
      </trkpt>
      <trkpt lat="49.20013" lon="-0.06539">
        <ele>7.3</ele>
        <time>2024-03-03T07:33:07Z</time>
      </trkpt>
      <trkpt lat="49.20006" lon="-0.06544">
        <ele>7.2</ele>
        <time>2024-03-03T07:33:08Z</time>
      </trkpt>
      <trkpt lat="49.19998" lon="-0.06548">
        <ele>7.2</ele>
        <time>2024-03-03T07:33:09Z</time>
      </trkpt>
      <trkpt lat="49.19991" lon="-0.0655">
        <ele>7.2</ele>
        <time>2024-03-03T07:33:10Z</time>
      </trkpt>
      <trkpt lat="49.19984" lon="-0.06553">
        <ele>7.2</ele>
        <time>2024-03-03T07:33:11Z</time>
      </trkpt>
      <trkpt lat="49.19977" lon="-0.06554">
        <ele>7.2</ele>
        <time>2024-03-03T07:33:12Z</time>
      </trkpt>
      <trkpt lat="49.1997" lon="-0.06555">
        <ele>7.2</ele>
        <time>2024-03-03T07:33:13Z</time>
      </trkpt>
      <trkpt lat="49.19963" lon="-0.06556">
        <ele>7.2</ele>
        <time>2024-03-03T07:33:14Z</time>
      </trkpt>
      <trkpt lat="49.19956" lon="-0.06556">
        <ele>7.2</ele>
        <time>2024-03-03T07:33:15Z</time>
      </trkpt>
      <trkpt lat="49.19949" lon="-0.06556">
        <ele>7.2</ele>
        <time>2024-03-03T07:33:16Z</time>
      </trkpt>
      <trkpt lat="49.19943" lon="-0.06557">
        <ele>7.2</ele>
        <time>2024-03-03T07:33:17Z</time>
      </trkpt>
      <trkpt lat="49.19936" lon="-0.06558">
        <ele>7.2</ele>
        <time>2024-03-03T07:33:18Z</time>
      </trkpt>
      <trkpt lat="49.19929" lon="-0.06558">
        <ele>7.2</ele>
        <time>2024-03-03T07:33:19Z</time>
      </trkpt>
      <trkpt lat="49.19922" lon="-0.06559">
        <ele>7.2</ele>
        <time>2024-03-03T07:33:20Z</time>
      </trkpt>
      <trkpt lat="49.19915" lon="-0.06559">
        <ele>7.2</ele>
        <time>2024-03-03T07:33:21Z</time>
      </trkpt>
      <trkpt lat="49.19909" lon="-0.06559">
        <ele>7.2</ele>
        <time>2024-03-03T07:33:22Z</time>
      </trkpt>
      <trkpt lat="49.19902" lon="-0.0656">
        <ele>7.2</ele>
        <time>2024-03-03T07:33:23Z</time>
      </trkpt>
      <trkpt lat="49.19896" lon="-0.0656">
        <ele>7.2</ele>
        <time>2024-03-03T07:33:24Z</time>
      </trkpt>
      <trkpt lat="49.19889" lon="-0.06559">
        <ele>7.2</ele>
        <time>2024-03-03T07:33:25Z</time>
      </trkpt>
      <trkpt lat="49.19882" lon="-0.06559">
        <ele>7.2</ele>
        <time>2024-03-03T07:33:26Z</time>
      </trkpt>
      <trkpt lat="49.19876" lon="-0.06558">
        <ele>7.2</ele>
        <time>2024-03-03T07:33:27Z</time>
      </trkpt>
      <trkpt lat="49.19869" lon="-0.06556">
        <ele>7.2</ele>
        <time>2024-03-03T07:33:28Z</time>
      </trkpt>
      <trkpt lat="49.19862" lon="-0.06554">
        <ele>7.2</ele>
        <time>2024-03-03T07:33:29Z</time>
      </trkpt>
      <trkpt lat="49.19856" lon="-0.06551">
        <ele>7.2</ele>
        <time>2024-03-03T07:33:30Z</time>
      </trkpt>
      <trkpt lat="49.19849" lon="-0.06548">
        <ele>7.2</ele>
        <time>2024-03-03T07:33:31Z</time>
      </trkpt>
      <trkpt lat="49.19843" lon="-0.06544">
        <ele>7.3</ele>
        <time>2024-03-03T07:33:32Z</time>
      </trkpt>
      <trkpt lat="49.19837" lon="-0.06541">
        <ele>7.3</ele>
        <time>2024-03-03T07:33:33Z</time>
      </trkpt>
      <trkpt lat="49.1983" lon="-0.06538">
        <ele>7.3</ele>
        <time>2024-03-03T07:33:34Z</time>
      </trkpt>
      <trkpt lat="49.19824" lon="-0.06535">
        <ele>7.4</ele>
        <time>2024-03-03T07:33:35Z</time>
      </trkpt>
      <trkpt lat="49.19818" lon="-0.06532">
        <ele>7.5</ele>
        <time>2024-03-03T07:33:36Z</time>
      </trkpt>
      <trkpt lat="49.19812" lon="-0.06529">
        <ele>7.5</ele>
        <time>2024-03-03T07:33:37Z</time>
      </trkpt>
      <trkpt lat="49.19806" lon="-0.06525">
        <ele>7.5</ele>
        <time>2024-03-03T07:33:38Z</time>
      </trkpt>
      <trkpt lat="49.198" lon="-0.06522">
        <ele>7.4</ele>
        <time>2024-03-03T07:33:39Z</time>
      </trkpt>
      <trkpt lat="49.19794" lon="-0.06518">
        <ele>7.4</ele>
        <time>2024-03-03T07:33:40Z</time>
      </trkpt>
      <trkpt lat="49.19788" lon="-0.06514">
        <ele>7.5</ele>
        <time>2024-03-03T07:33:41Z</time>
      </trkpt>
      <trkpt lat="49.19781" lon="-0.0651">
        <ele>7.5</ele>
        <time>2024-03-03T07:33:42Z</time>
      </trkpt>
      <trkpt lat="49.19776" lon="-0.06507">
        <ele>7.5</ele>
        <time>2024-03-03T07:33:43Z</time>
      </trkpt>
      <trkpt lat="49.19771" lon="-0.06504">
        <ele>7.5</ele>
        <time>2024-03-03T07:33:44Z</time>
      </trkpt>
      <trkpt lat="49.19765" lon="-0.06501">
        <ele>7.6</ele>
        <time>2024-03-03T07:33:45Z</time>
      </trkpt>
      <trkpt lat="49.19759" lon="-0.06497">
        <ele>7.6</ele>
        <time>2024-03-03T07:33:46Z</time>
      </trkpt>
      <trkpt lat="49.19754" lon="-0.06494">
        <ele>7.7</ele>
        <time>2024-03-03T07:33:47Z</time>
      </trkpt>
      <trkpt lat="49.19749" lon="-0.0649">
        <ele>7.7</ele>
        <time>2024-03-03T07:33:48Z</time>
      </trkpt>
      <trkpt lat="49.19745" lon="-0.06485">
        <ele>7.8</ele>
        <time>2024-03-03T07:33:49Z</time>
      </trkpt>
      <trkpt lat="49.19741" lon="-0.0648">
        <ele>7.8</ele>
        <time>2024-03-03T07:33:50Z</time>
      </trkpt>
      <trkpt lat="49.19737" lon="-0.06474">
        <ele>7.9</ele>
        <time>2024-03-03T07:33:51Z</time>
      </trkpt>
      <trkpt lat="49.19732" lon="-0.06467">
        <ele>8</ele>
        <time>2024-03-03T07:33:52Z</time>
      </trkpt>
      <trkpt lat="49.19729" lon="-0.06461">
        <ele>8</ele>
        <time>2024-03-03T07:33:53Z</time>
      </trkpt>
      <trkpt lat="49.19724" lon="-0.06452">
        <ele>8.1</ele>
        <time>2024-03-03T07:33:54Z</time>
      </trkpt>
      <trkpt lat="49.1972" lon="-0.06444">
        <ele>8.2</ele>
        <time>2024-03-03T07:33:55Z</time>
      </trkpt>
      <trkpt lat="49.19716" lon="-0.06435">
        <ele>8.2</ele>
        <time>2024-03-03T07:33:56Z</time>
      </trkpt>
      <trkpt lat="49.19713" lon="-0.06425">
        <ele>8.3</ele>
        <time>2024-03-03T07:33:57Z</time>
      </trkpt>
      <trkpt lat="49.19709" lon="-0.06417">
        <ele>8.3</ele>
        <time>2024-03-03T07:33:58Z</time>
      </trkpt>
      <trkpt lat="49.19706" lon="-0.06408">
        <ele>8.4</ele>
        <time>2024-03-03T07:33:59Z</time>
      </trkpt>
      <trkpt lat="49.19702" lon="-0.06398">
        <ele>8.4</ele>
        <time>2024-03-03T07:34:00Z</time>
      </trkpt>
      <trkpt lat="49.19697" lon="-0.06389">
        <ele>8.5</ele>
        <time>2024-03-03T07:34:01Z</time>
      </trkpt>
      <trkpt lat="49.19693" lon="-0.0638">
        <ele>8.6</ele>
        <time>2024-03-03T07:34:02Z</time>
      </trkpt>
      <trkpt lat="49.19687" lon="-0.06373">
        <ele>8.6</ele>
        <time>2024-03-03T07:34:03Z</time>
      </trkpt>
      <trkpt lat="49.19683" lon="-0.06366">
        <ele>8.7</ele>
        <time>2024-03-03T07:34:04Z</time>
      </trkpt>
      <trkpt lat="49.19677" lon="-0.06359">
        <ele>8.8</ele>
        <time>2024-03-03T07:34:05Z</time>
      </trkpt>
      <trkpt lat="49.19672" lon="-0.06353">
        <ele>8.8</ele>
        <time>2024-03-03T07:34:06Z</time>
      </trkpt>
      <trkpt lat="49.19666" lon="-0.06348">
        <ele>8.9</ele>
        <time>2024-03-03T07:34:07Z</time>
      </trkpt>
      <trkpt lat="49.19661" lon="-0.06344">
        <ele>9</ele>
        <time>2024-03-03T07:34:08Z</time>
      </trkpt>
      <trkpt lat="49.19655" lon="-0.06339">
        <ele>9</ele>
        <time>2024-03-03T07:34:09Z</time>
      </trkpt>
      <trkpt lat="49.1965" lon="-0.06334">
        <ele>9.1</ele>
        <time>2024-03-03T07:34:10Z</time>
      </trkpt>
      <trkpt lat="49.19644" lon="-0.06329">
        <ele>9.2</ele>
        <time>2024-03-03T07:34:11Z</time>
      </trkpt>
      <trkpt lat="49.19638" lon="-0.06324">
        <ele>9.2</ele>
        <time>2024-03-03T07:34:12Z</time>
      </trkpt>
      <trkpt lat="49.19632" lon="-0.06319">
        <ele>9.3</ele>
        <time>2024-03-03T07:34:13Z</time>
      </trkpt>
      <trkpt lat="49.19627" lon="-0.06314">
        <ele>9.4</ele>
        <time>2024-03-03T07:34:14Z</time>
      </trkpt>
      <trkpt lat="49.1962" lon="-0.06309">
        <ele>9.5</ele>
        <time>2024-03-03T07:34:15Z</time>
      </trkpt>
      <trkpt lat="49.19614" lon="-0.06305">
        <ele>9.5</ele>
        <time>2024-03-03T07:34:16Z</time>
      </trkpt>
      <trkpt lat="49.19608" lon="-0.063">
        <ele>9.6</ele>
        <time>2024-03-03T07:34:17Z</time>
      </trkpt>
      <trkpt lat="49.19602" lon="-0.06295">
        <ele>9.7</ele>
        <time>2024-03-03T07:34:18Z</time>
      </trkpt>
      <trkpt lat="49.19596" lon="-0.0629">
        <ele>9.8</ele>
        <time>2024-03-03T07:34:19Z</time>
      </trkpt>
      <trkpt lat="49.19589" lon="-0.06286">
        <ele>9.9</ele>
        <time>2024-03-03T07:34:20Z</time>
      </trkpt>
      <trkpt lat="49.19583" lon="-0.06281">
        <ele>10</ele>
        <time>2024-03-03T07:34:21Z</time>
      </trkpt>
      <trkpt lat="49.19578" lon="-0.06275">
        <ele>10.1</ele>
        <time>2024-03-03T07:34:22Z</time>
      </trkpt>
      <trkpt lat="49.19572" lon="-0.06269">
        <ele>10.2</ele>
        <time>2024-03-03T07:34:23Z</time>
      </trkpt>
      <trkpt lat="49.19566" lon="-0.06263">
        <ele>10.3</ele>
        <time>2024-03-03T07:34:24Z</time>
      </trkpt>
      <trkpt lat="49.19561" lon="-0.06257">
        <ele>10.4</ele>
        <time>2024-03-03T07:34:25Z</time>
      </trkpt>
      <trkpt lat="49.19556" lon="-0.06251">
        <ele>10.5</ele>
        <time>2024-03-03T07:34:26Z</time>
      </trkpt>
      <trkpt lat="49.19551" lon="-0.06244">
        <ele>10.6</ele>
        <time>2024-03-03T07:34:27Z</time>
      </trkpt>
      <trkpt lat="49.19547" lon="-0.06237">
        <ele>10.7</ele>
        <time>2024-03-03T07:34:28Z</time>
      </trkpt>
      <trkpt lat="49.19542" lon="-0.0623">
        <ele>10.8</ele>
        <time>2024-03-03T07:34:29Z</time>
      </trkpt>
      <trkpt lat="49.19539" lon="-0.06223">
        <ele>10.9</ele>
        <time>2024-03-03T07:34:30Z</time>
      </trkpt>
      <trkpt lat="49.19535" lon="-0.06216">
        <ele>11</ele>
        <time>2024-03-03T07:34:31Z</time>
      </trkpt>
      <trkpt lat="49.19532" lon="-0.0621">
        <ele>11.1</ele>
        <time>2024-03-03T07:34:32Z</time>
      </trkpt>
      <trkpt lat="49.19529" lon="-0.06203">
        <ele>11.2</ele>
        <time>2024-03-03T07:34:33Z</time>
      </trkpt>
      <trkpt lat="49.19526" lon="-0.06196">
        <ele>11.3</ele>
        <time>2024-03-03T07:34:34Z</time>
      </trkpt>
      <trkpt lat="49.19524" lon="-0.0619">
        <ele>11.3</ele>
        <time>2024-03-03T07:34:35Z</time>
      </trkpt>
      <trkpt lat="49.19522" lon="-0.06182">
        <ele>11.4</ele>
        <time>2024-03-03T07:34:36Z</time>
      </trkpt>
      <trkpt lat="49.19521" lon="-0.06173">
        <ele>11.5</ele>
        <time>2024-03-03T07:34:37Z</time>
      </trkpt>
      <trkpt lat="49.19519" lon="-0.06165">
        <ele>11.6</ele>
        <time>2024-03-03T07:34:38Z</time>
      </trkpt>
      <trkpt lat="49.19517" lon="-0.06158">
        <ele>11.7</ele>
        <time>2024-03-03T07:34:39Z</time>
      </trkpt>
      <trkpt lat="49.19516" lon="-0.06149">
        <ele>11.7</ele>
        <time>2024-03-03T07:34:40Z</time>
      </trkpt>
      <trkpt lat="49.19513" lon="-0.06139">
        <ele>11.8</ele>
        <time>2024-03-03T07:34:41Z</time>
      </trkpt>
      <trkpt lat="49.19511" lon="-0.0613">
        <ele>11.8</ele>
        <time>2024-03-03T07:34:42Z</time>
      </trkpt>
      <trkpt lat="49.19509" lon="-0.06119">
        <ele>11.9</ele>
        <time>2024-03-03T07:34:43Z</time>
      </trkpt>
      <trkpt lat="49.19508" lon="-0.06109">
        <ele>11.9</ele>
        <time>2024-03-03T07:34:44Z</time>
      </trkpt>
      <trkpt lat="49.19507" lon="-0.06097">
        <ele>12</ele>
        <time>2024-03-03T07:34:45Z</time>
      </trkpt>
      <trkpt lat="49.19505" lon="-0.06086">
        <ele>12.1</ele>
        <time>2024-03-03T07:34:46Z</time>
      </trkpt>
      <trkpt lat="49.19504" lon="-0.06075">
        <ele>12.2</ele>
        <time>2024-03-03T07:34:47Z</time>
      </trkpt>
      <trkpt lat="49.19503" lon="-0.06065">
        <ele>12.2</ele>
        <time>2024-03-03T07:34:48Z</time>
      </trkpt>
      <trkpt lat="49.19502" lon="-0.06055">
        <ele>12.3</ele>
        <time>2024-03-03T07:34:49Z</time>
      </trkpt>
      <trkpt lat="49.19501" lon="-0.06046">
        <ele>12.3</ele>
        <time>2024-03-03T07:34:50Z</time>
      </trkpt>
      <trkpt lat="49.195" lon="-0.06037">
        <ele>12.4</ele>
        <time>2024-03-03T07:34:51Z</time>
      </trkpt>
      <trkpt lat="49.19498" lon="-0.06027">
        <ele>12.4</ele>
        <time>2024-03-03T07:34:52Z</time>
      </trkpt>
      <trkpt lat="49.19497" lon="-0.06017">
        <ele>12.4</ele>
        <time>2024-03-03T07:34:53Z</time>
      </trkpt>
      <trkpt lat="49.19495" lon="-0.06007">
        <ele>12.5</ele>
        <time>2024-03-03T07:34:54Z</time>
      </trkpt>
      <trkpt lat="49.19494" lon="-0.05997">
        <ele>12.5</ele>
        <time>2024-03-03T07:34:55Z</time>
      </trkpt>
      <trkpt lat="49.19492" lon="-0.05987">
        <ele>12.5</ele>
        <time>2024-03-03T07:34:56Z</time>
      </trkpt>
      <trkpt lat="49.19491" lon="-0.05977">
        <ele>12.6</ele>
        <time>2024-03-03T07:34:57Z</time>
      </trkpt>
      <trkpt lat="49.19489" lon="-0.05968">
        <ele>12.6</ele>
        <time>2024-03-03T07:34:58Z</time>
      </trkpt>
      <trkpt lat="49.19488" lon="-0.05959">
        <ele>12.6</ele>
        <time>2024-03-03T07:34:59Z</time>
      </trkpt>
      <trkpt lat="49.19487" lon="-0.05949">
        <ele>12.7</ele>
        <time>2024-03-03T07:35:00Z</time>
      </trkpt>
      <trkpt lat="49.19487" lon="-0.05939">
        <ele>12.7</ele>
        <time>2024-03-03T07:35:01Z</time>
      </trkpt>
      <trkpt lat="49.19487" lon="-0.05928">
        <ele>12.7</ele>
        <time>2024-03-03T07:35:02Z</time>
      </trkpt>
      <trkpt lat="49.19487" lon="-0.05918">
        <ele>12.8</ele>
        <time>2024-03-03T07:35:03Z</time>
      </trkpt>
      <trkpt lat="49.19488" lon="-0.05908">
        <ele>12.8</ele>
        <time>2024-03-03T07:35:04Z</time>
      </trkpt>
      <trkpt lat="49.19489" lon="-0.05898">
        <ele>12.9</ele>
        <time>2024-03-03T07:35:05Z</time>
      </trkpt>
      <trkpt lat="49.1949" lon="-0.05888">
        <ele>12.9</ele>
        <time>2024-03-03T07:35:06Z</time>
      </trkpt>
      <trkpt lat="49.19491" lon="-0.05876">
        <ele>12.9</ele>
        <time>2024-03-03T07:35:07Z</time>
      </trkpt>
      <trkpt lat="49.19492" lon="-0.05865">
        <ele>12.9</ele>
        <time>2024-03-03T07:35:08Z</time>
      </trkpt>
      <trkpt lat="49.19493" lon="-0.05855">
        <ele>12.9</ele>
        <time>2024-03-03T07:35:09Z</time>
      </trkpt>
      <trkpt lat="49.19494" lon="-0.05845">
        <ele>13</ele>
        <time>2024-03-03T07:35:10Z</time>
      </trkpt>
      <trkpt lat="49.19495" lon="-0.05834">
        <ele>13</ele>
        <time>2024-03-03T07:35:11Z</time>
      </trkpt>
      <trkpt lat="49.19496" lon="-0.05825">
        <ele>13</ele>
        <time>2024-03-03T07:35:12Z</time>
      </trkpt>
      <trkpt lat="49.19496" lon="-0.05815">
        <ele>13</ele>
        <time>2024-03-03T07:35:13Z</time>
      </trkpt>
      <trkpt lat="49.19497" lon="-0.05805">
        <ele>13.1</ele>
        <time>2024-03-03T07:35:14Z</time>
      </trkpt>
      <trkpt lat="49.19499" lon="-0.05794">
        <ele>13.1</ele>
        <time>2024-03-03T07:35:15Z</time>
      </trkpt>
      <trkpt lat="49.195" lon="-0.05783">
        <ele>13.1</ele>
        <time>2024-03-03T07:35:16Z</time>
      </trkpt>
      <trkpt lat="49.19501" lon="-0.05772">
        <ele>13.2</ele>
        <time>2024-03-03T07:35:17Z</time>
      </trkpt>
      <trkpt lat="49.19503" lon="-0.05762">
        <ele>13.2</ele>
        <time>2024-03-03T07:35:18Z</time>
      </trkpt>
      <trkpt lat="49.19504" lon="-0.05752">
        <ele>13.2</ele>
        <time>2024-03-03T07:35:19Z</time>
      </trkpt>
      <trkpt lat="49.19506" lon="-0.05742">
        <ele>13.3</ele>
        <time>2024-03-03T07:35:20Z</time>
      </trkpt>
      <trkpt lat="49.19507" lon="-0.05732">
        <ele>13.4</ele>
        <time>2024-03-03T07:35:21Z</time>
      </trkpt>
      <trkpt lat="49.19508" lon="-0.05722">
        <ele>13.4</ele>
        <time>2024-03-03T07:35:22Z</time>
      </trkpt>
      <trkpt lat="49.19508" lon="-0.05712">
        <ele>13.5</ele>
        <time>2024-03-03T07:35:23Z</time>
      </trkpt>
      <trkpt lat="49.1951" lon="-0.05703">
        <ele>13.5</ele>
        <time>2024-03-03T07:35:24Z</time>
      </trkpt>
      <trkpt lat="49.19511" lon="-0.05694">
        <ele>13.6</ele>
        <time>2024-03-03T07:35:25Z</time>
      </trkpt>
      <trkpt lat="49.19512" lon="-0.05685">
        <ele>13.7</ele>
        <time>2024-03-03T07:35:26Z</time>
      </trkpt>
      <trkpt lat="49.19512" lon="-0.05676">
        <ele>13.7</ele>
        <time>2024-03-03T07:35:27Z</time>
      </trkpt>
      <trkpt lat="49.19513" lon="-0.05666">
        <ele>13.8</ele>
        <time>2024-03-03T07:35:28Z</time>
      </trkpt>
      <trkpt lat="49.19514" lon="-0.05656">
        <ele>14</ele>
        <time>2024-03-03T07:35:29Z</time>
      </trkpt>
      <trkpt lat="49.19515" lon="-0.05646">
        <ele>14.1</ele>
        <time>2024-03-03T07:35:30Z</time>
      </trkpt>
      <trkpt lat="49.19516" lon="-0.05636">
        <ele>14.2</ele>
        <time>2024-03-03T07:35:31Z</time>
      </trkpt>
      <trkpt lat="49.19517" lon="-0.05626">
        <ele>14.4</ele>
        <time>2024-03-03T07:35:32Z</time>
      </trkpt>
      <trkpt lat="49.19518" lon="-0.05616">
        <ele>14.5</ele>
        <time>2024-03-03T07:35:33Z</time>
      </trkpt>
      <trkpt lat="49.19518" lon="-0.05606">
        <ele>14.7</ele>
        <time>2024-03-03T07:35:34Z</time>
      </trkpt>
      <trkpt lat="49.19518" lon="-0.05596">
        <ele>14.8</ele>
        <time>2024-03-03T07:35:35Z</time>
      </trkpt>
      <trkpt lat="49.19518" lon="-0.05587">
        <ele>14.9</ele>
        <time>2024-03-03T07:35:36Z</time>
      </trkpt>
      <trkpt lat="49.19518" lon="-0.05578">
        <ele>15</ele>
        <time>2024-03-03T07:35:37Z</time>
      </trkpt>
      <trkpt lat="49.19517" lon="-0.05569">
        <ele>15.1</ele>
        <time>2024-03-03T07:35:38Z</time>
      </trkpt>
      <trkpt lat="49.19516" lon="-0.0556">
        <ele>15.2</ele>
        <time>2024-03-03T07:35:39Z</time>
      </trkpt>
      <trkpt lat="49.19515" lon="-0.05552">
        <ele>15.3</ele>
        <time>2024-03-03T07:35:40Z</time>
      </trkpt>
      <trkpt lat="49.19513" lon="-0.05543">
        <ele>15.4</ele>
        <time>2024-03-03T07:35:41Z</time>
      </trkpt>
      <trkpt lat="49.19512" lon="-0.05533">
        <ele>15.5</ele>
        <time>2024-03-03T07:35:42Z</time>
      </trkpt>
      <trkpt lat="49.19511" lon="-0.05524">
        <ele>15.6</ele>
        <time>2024-03-03T07:35:43Z</time>
      </trkpt>
      <trkpt lat="49.19509" lon="-0.05514">
        <ele>15.7</ele>
        <time>2024-03-03T07:35:44Z</time>
      </trkpt>
      <trkpt lat="49.19508" lon="-0.05504">
        <ele>15.9</ele>
        <time>2024-03-03T07:35:45Z</time>
      </trkpt>
      <trkpt lat="49.19506" lon="-0.05495">
        <ele>16</ele>
        <time>2024-03-03T07:35:46Z</time>
      </trkpt>
      <trkpt lat="49.19504" lon="-0.05486">
        <ele>16.1</ele>
        <time>2024-03-03T07:35:47Z</time>
      </trkpt>
      <trkpt lat="49.19503" lon="-0.05477">
        <ele>16.2</ele>
        <time>2024-03-03T07:35:48Z</time>
      </trkpt>
      <trkpt lat="49.19502" lon="-0.05468">
        <ele>16.4</ele>
        <time>2024-03-03T07:35:49Z</time>
      </trkpt>
      <trkpt lat="49.19501" lon="-0.05459">
        <ele>16.5</ele>
        <time>2024-03-03T07:35:50Z</time>
      </trkpt>
      <trkpt lat="49.19499" lon="-0.05449">
        <ele>16.7</ele>
        <time>2024-03-03T07:35:51Z</time>
      </trkpt>
      <trkpt lat="49.19499" lon="-0.0544">
        <ele>16.9</ele>
        <time>2024-03-03T07:35:52Z</time>
      </trkpt>
      <trkpt lat="49.19498" lon="-0.05431">
        <ele>17.1</ele>
        <time>2024-03-03T07:35:53Z</time>
      </trkpt>
      <trkpt lat="49.19498" lon="-0.05421">
        <ele>17.3</ele>
        <time>2024-03-03T07:35:54Z</time>
      </trkpt>
      <trkpt lat="49.19498" lon="-0.05412">
        <ele>17.4</ele>
        <time>2024-03-03T07:35:55Z</time>
      </trkpt>
      <trkpt lat="49.19498" lon="-0.05402">
        <ele>17.5</ele>
        <time>2024-03-03T07:35:56Z</time>
      </trkpt>
      <trkpt lat="49.19499" lon="-0.05393">
        <ele>17.6</ele>
        <time>2024-03-03T07:35:57Z</time>
      </trkpt>
      <trkpt lat="49.195" lon="-0.05382">
        <ele>17.7</ele>
        <time>2024-03-03T07:35:58Z</time>
      </trkpt>
      <trkpt lat="49.19501" lon="-0.05372">
        <ele>17.8</ele>
        <time>2024-03-03T07:35:59Z</time>
      </trkpt>
      <trkpt lat="49.19501" lon="-0.05363">
        <ele>17.9</ele>
        <time>2024-03-03T07:36:00Z</time>
      </trkpt>
      <trkpt lat="49.19502" lon="-0.05352">
        <ele>18</ele>
        <time>2024-03-03T07:36:01Z</time>
      </trkpt>
      <trkpt lat="49.19503" lon="-0.05342">
        <ele>18.1</ele>
        <time>2024-03-03T07:36:02Z</time>
      </trkpt>
      <trkpt lat="49.19504" lon="-0.05331">
        <ele>18.2</ele>
        <time>2024-03-03T07:36:03Z</time>
      </trkpt>
      <trkpt lat="49.19505" lon="-0.05321">
        <ele>18.3</ele>
        <time>2024-03-03T07:36:04Z</time>
      </trkpt>
      <trkpt lat="49.19505" lon="-0.05311">
        <ele>18.4</ele>
        <time>2024-03-03T07:36:05Z</time>
      </trkpt>
      <trkpt lat="49.19506" lon="-0.05301">
        <ele>18.5</ele>
        <time>2024-03-03T07:36:06Z</time>
      </trkpt>
      <trkpt lat="49.19506" lon="-0.05292">
        <ele>18.6</ele>
        <time>2024-03-03T07:36:07Z</time>
      </trkpt>
      <trkpt lat="49.19506" lon="-0.05282">
        <ele>18.7</ele>
        <time>2024-03-03T07:36:08Z</time>
      </trkpt>
      <trkpt lat="49.19507" lon="-0.05274">
        <ele>18.7</ele>
        <time>2024-03-03T07:36:09Z</time>
      </trkpt>
      <trkpt lat="49.19507" lon="-0.05265">
        <ele>18.8</ele>
        <time>2024-03-03T07:36:10Z</time>
      </trkpt>
      <trkpt lat="49.19507" lon="-0.05257">
        <ele>18.9</ele>
        <time>2024-03-03T07:36:11Z</time>
      </trkpt>
      <trkpt lat="49.19507" lon="-0.05248">
        <ele>19</ele>
        <time>2024-03-03T07:36:12Z</time>
      </trkpt>
      <trkpt lat="49.19507" lon="-0.05239">
        <ele>19.1</ele>
        <time>2024-03-03T07:36:13Z</time>
      </trkpt>
      <trkpt lat="49.19508" lon="-0.0523">
        <ele>19.2</ele>
        <time>2024-03-03T07:36:14Z</time>
      </trkpt>
      <trkpt lat="49.19508" lon="-0.0522">
        <ele>19.2</ele>
        <time>2024-03-03T07:36:15Z</time>
      </trkpt>
      <trkpt lat="49.19509" lon="-0.05211">
        <ele>19.2</ele>
        <time>2024-03-03T07:36:16Z</time>
      </trkpt>
      <trkpt lat="49.19509" lon="-0.05201">
        <ele>19.4</ele>
        <time>2024-03-03T07:36:17Z</time>
      </trkpt>
      <trkpt lat="49.19509" lon="-0.05192">
        <ele>19.5</ele>
        <time>2024-03-03T07:36:18Z</time>
      </trkpt>
      <trkpt lat="49.19511" lon="-0.05181">
        <ele>19.6</ele>
        <time>2024-03-03T07:36:19Z</time>
      </trkpt>
      <trkpt lat="49.19512" lon="-0.05171">
        <ele>19.8</ele>
        <time>2024-03-03T07:36:20Z</time>
      </trkpt>
      <trkpt lat="49.19513" lon="-0.0516">
        <ele>19.9</ele>
        <time>2024-03-03T07:36:21Z</time>
      </trkpt>
      <trkpt lat="49.19514" lon="-0.0515">
        <ele>20</ele>
        <time>2024-03-03T07:36:22Z</time>
      </trkpt>
      <trkpt lat="49.19515" lon="-0.0514">
        <ele>20.2</ele>
        <time>2024-03-03T07:36:23Z</time>
      </trkpt>
      <trkpt lat="49.19515" lon="-0.0513">
        <ele>20.4</ele>
        <time>2024-03-03T07:36:24Z</time>
      </trkpt>
      <trkpt lat="49.19516" lon="-0.05121">
        <ele>20.5</ele>
        <time>2024-03-03T07:36:25Z</time>
      </trkpt>
      <trkpt lat="49.19517" lon="-0.05111">
        <ele>20.7</ele>
        <time>2024-03-03T07:36:26Z</time>
      </trkpt>
      <trkpt lat="49.19518" lon="-0.05103">
        <ele>20.8</ele>
        <time>2024-03-03T07:36:27Z</time>
      </trkpt>
      <trkpt lat="49.19519" lon="-0.05093">
        <ele>21</ele>
        <time>2024-03-03T07:36:28Z</time>
      </trkpt>
      <trkpt lat="49.1952" lon="-0.05084">
        <ele>21.2</ele>
        <time>2024-03-03T07:36:29Z</time>
      </trkpt>
      <trkpt lat="49.1952" lon="-0.05074">
        <ele>21.3</ele>
        <time>2024-03-03T07:36:30Z</time>
      </trkpt>
      <trkpt lat="49.1952" lon="-0.05065">
        <ele>21.5</ele>
        <time>2024-03-03T07:36:31Z</time>
      </trkpt>
      <trkpt lat="49.1952" lon="-0.05056">
        <ele>21.7</ele>
        <time>2024-03-03T07:36:32Z</time>
      </trkpt>
      <trkpt lat="49.19519" lon="-0.05046">
        <ele>21.9</ele>
        <time>2024-03-03T07:36:33Z</time>
      </trkpt>
      <trkpt lat="49.19518" lon="-0.05038">
        <ele>22.1</ele>
        <time>2024-03-03T07:36:34Z</time>
      </trkpt>
      <trkpt lat="49.19517" lon="-0.0503">
        <ele>22.2</ele>
        <time>2024-03-03T07:36:35Z</time>
      </trkpt>
      <trkpt lat="49.19515" lon="-0.05021">
        <ele>22.4</ele>
        <time>2024-03-03T07:36:36Z</time>
      </trkpt>
      <trkpt lat="49.19514" lon="-0.05013">
        <ele>22.6</ele>
        <time>2024-03-03T07:36:37Z</time>
      </trkpt>
      <trkpt lat="49.19512" lon="-0.05005">
        <ele>22.8</ele>
        <time>2024-03-03T07:36:38Z</time>
      </trkpt>
      <trkpt lat="49.1951" lon="-0.04997">
        <ele>22.9</ele>
        <time>2024-03-03T07:36:39Z</time>
      </trkpt>
      <trkpt lat="49.19507" lon="-0.0499">
        <ele>23.1</ele>
        <time>2024-03-03T07:36:40Z</time>
      </trkpt>
      <trkpt lat="49.19504" lon="-0.04983">
        <ele>23.3</ele>
        <time>2024-03-03T07:36:41Z</time>
      </trkpt>
      <trkpt lat="49.19501" lon="-0.04976">
        <ele>23.5</ele>
        <time>2024-03-03T07:36:42Z</time>
      </trkpt>
      <trkpt lat="49.19498" lon="-0.04968">
        <ele>23.7</ele>
        <time>2024-03-03T07:36:43Z</time>
      </trkpt>
      <trkpt lat="49.19494" lon="-0.0496">
        <ele>23.8</ele>
        <time>2024-03-03T07:36:44Z</time>
      </trkpt>
      <trkpt lat="49.19491" lon="-0.04952">
        <ele>24</ele>
        <time>2024-03-03T07:36:45Z</time>
      </trkpt>
      <trkpt lat="49.19488" lon="-0.04945">
        <ele>24.2</ele>
        <time>2024-03-03T07:36:46Z</time>
      </trkpt>
      <trkpt lat="49.19486" lon="-0.04939">
        <ele>24.3</ele>
        <time>2024-03-03T07:36:47Z</time>
      </trkpt>
      <trkpt lat="49.19482" lon="-0.04932">
        <ele>24.5</ele>
        <time>2024-03-03T07:36:48Z</time>
      </trkpt>
      <trkpt lat="49.19479" lon="-0.04925">
        <ele>24.7</ele>
        <time>2024-03-03T07:36:49Z</time>
      </trkpt>
      <trkpt lat="49.19476" lon="-0.04918">
        <ele>24.9</ele>
        <time>2024-03-03T07:36:50Z</time>
      </trkpt>
      <trkpt lat="49.19473" lon="-0.0491">
        <ele>25.1</ele>
        <time>2024-03-03T07:36:51Z</time>
      </trkpt>
      <trkpt lat="49.19469" lon="-0.04904">
        <ele>25.3</ele>
        <time>2024-03-03T07:36:52Z</time>
      </trkpt>
      <trkpt lat="49.19466" lon="-0.04897">
        <ele>25.5</ele>
        <time>2024-03-03T07:36:53Z</time>
      </trkpt>
      <trkpt lat="49.19463" lon="-0.0489">
        <ele>25.7</ele>
        <time>2024-03-03T07:36:54Z</time>
      </trkpt>
      <trkpt lat="49.1946" lon="-0.04883">
        <ele>25.8</ele>
        <time>2024-03-03T07:36:55Z</time>
      </trkpt>
      <trkpt lat="49.19456" lon="-0.04876">
        <ele>26</ele>
        <time>2024-03-03T07:36:56Z</time>
      </trkpt>
      <trkpt lat="49.19452" lon="-0.04869">
        <ele>26.2</ele>
        <time>2024-03-03T07:36:57Z</time>
      </trkpt>
      <trkpt lat="49.19448" lon="-0.04861">
        <ele>26.4</ele>
        <time>2024-03-03T07:36:58Z</time>
      </trkpt>
      <trkpt lat="49.19445" lon="-0.04854">
        <ele>26.6</ele>
        <time>2024-03-03T07:36:59Z</time>
      </trkpt>
      <trkpt lat="49.19441" lon="-0.04847">
        <ele>26.7</ele>
        <time>2024-03-03T07:37:00Z</time>
      </trkpt>
      <trkpt lat="49.19438" lon="-0.0484">
        <ele>26.8</ele>
        <time>2024-03-03T07:37:01Z</time>
      </trkpt>
      <trkpt lat="49.19434" lon="-0.04833">
        <ele>26.9</ele>
        <time>2024-03-03T07:37:02Z</time>
      </trkpt>
      <trkpt lat="49.19431" lon="-0.04827">
        <ele>27</ele>
        <time>2024-03-03T07:37:03Z</time>
      </trkpt>
      <trkpt lat="49.19427" lon="-0.0482">
        <ele>27.1</ele>
        <time>2024-03-03T07:37:04Z</time>
      </trkpt>
      <trkpt lat="49.19424" lon="-0.04814">
        <ele>27.2</ele>
        <time>2024-03-03T07:37:05Z</time>
      </trkpt>
      <trkpt lat="49.19421" lon="-0.04807">
        <ele>27.3</ele>
        <time>2024-03-03T07:37:06Z</time>
      </trkpt>
      <trkpt lat="49.19418" lon="-0.04801">
        <ele>27.4</ele>
        <time>2024-03-03T07:37:07Z</time>
      </trkpt>
      <trkpt lat="49.19415" lon="-0.04794">
        <ele>27.5</ele>
        <time>2024-03-03T07:37:08Z</time>
      </trkpt>
      <trkpt lat="49.19412" lon="-0.04788">
        <ele>27.6</ele>
        <time>2024-03-03T07:37:09Z</time>
      </trkpt>
      <trkpt lat="49.19408" lon="-0.04781">
        <ele>27.6</ele>
        <time>2024-03-03T07:37:10Z</time>
      </trkpt>
      <trkpt lat="49.19405" lon="-0.04775">
        <ele>27.7</ele>
        <time>2024-03-03T07:37:11Z</time>
      </trkpt>
      <trkpt lat="49.19402" lon="-0.04769">
        <ele>27.7</ele>
        <time>2024-03-03T07:37:12Z</time>
      </trkpt>
      <trkpt lat="49.19398" lon="-0.04763">
        <ele>27.8</ele>
        <time>2024-03-03T07:37:13Z</time>
      </trkpt>
      <trkpt lat="49.19395" lon="-0.04757">
        <ele>27.8</ele>
        <time>2024-03-03T07:37:14Z</time>
      </trkpt>
      <trkpt lat="49.1939" lon="-0.04751">
        <ele>27.7</ele>
        <time>2024-03-03T07:37:15Z</time>
      </trkpt>
      <trkpt lat="49.19385" lon="-0.04746">
        <ele>27.5</ele>
        <time>2024-03-03T07:37:16Z</time>
      </trkpt>
      <trkpt lat="49.1938" lon="-0.04742">
        <ele>27.3</ele>
        <time>2024-03-03T07:37:17Z</time>
      </trkpt>
      <trkpt lat="49.19374" lon="-0.04739">
        <ele>27</ele>
        <time>2024-03-03T07:37:18Z</time>
      </trkpt>
      <trkpt lat="49.19368" lon="-0.04738">
        <ele>26.7</ele>
        <time>2024-03-03T07:37:19Z</time>
      </trkpt>
      <trkpt lat="49.19361" lon="-0.04736">
        <ele>26.4</ele>
        <time>2024-03-03T07:37:20Z</time>
      </trkpt>
      <trkpt lat="49.19353" lon="-0.04735">
        <ele>25.9</ele>
        <time>2024-03-03T07:37:21Z</time>
      </trkpt>
      <trkpt lat="49.19344" lon="-0.04735">
        <ele>25.3</ele>
        <time>2024-03-03T07:37:22Z</time>
      </trkpt>
      <trkpt lat="49.19335" lon="-0.04735">
        <ele>24.7</ele>
        <time>2024-03-03T07:37:23Z</time>
      </trkpt>
      <trkpt lat="49.19325" lon="-0.04734">
        <ele>24.1</ele>
        <time>2024-03-03T07:37:24Z</time>
      </trkpt>
      <trkpt lat="49.19315" lon="-0.04731">
        <ele>23.4</ele>
        <time>2024-03-03T07:37:25Z</time>
      </trkpt>
      <trkpt lat="49.19306" lon="-0.04728">
        <ele>22.8</ele>
        <time>2024-03-03T07:37:26Z</time>
      </trkpt>
      <trkpt lat="49.19296" lon="-0.04724">
        <ele>22.1</ele>
        <time>2024-03-03T07:37:27Z</time>
      </trkpt>
      <trkpt lat="49.19287" lon="-0.0472">
        <ele>21.5</ele>
        <time>2024-03-03T07:37:28Z</time>
      </trkpt>
      <trkpt lat="49.19278" lon="-0.04716">
        <ele>20.8</ele>
        <time>2024-03-03T07:37:29Z</time>
      </trkpt>
      <trkpt lat="49.19268" lon="-0.04712">
        <ele>20.1</ele>
        <time>2024-03-03T07:37:30Z</time>
      </trkpt>
      <trkpt lat="49.19258" lon="-0.04707">
        <ele>19.4</ele>
        <time>2024-03-03T07:37:31Z</time>
      </trkpt>
      <trkpt lat="49.19248" lon="-0.04702">
        <ele>18.5</ele>
        <time>2024-03-03T07:37:32Z</time>
      </trkpt>
      <trkpt lat="49.19238" lon="-0.04695">
        <ele>17.7</ele>
        <time>2024-03-03T07:37:33Z</time>
      </trkpt>
      <trkpt lat="49.19228" lon="-0.04687">
        <ele>17</ele>
        <time>2024-03-03T07:37:34Z</time>
      </trkpt>
      <trkpt lat="49.19217" lon="-0.04681">
        <ele>16.3</ele>
        <time>2024-03-03T07:37:35Z</time>
      </trkpt>
      <trkpt lat="49.19206" lon="-0.04674">
        <ele>15.7</ele>
        <time>2024-03-03T07:37:36Z</time>
      </trkpt>
      <trkpt lat="49.19197" lon="-0.04668">
        <ele>15.2</ele>
        <time>2024-03-03T07:37:37Z</time>
      </trkpt>
      <trkpt lat="49.19187" lon="-0.04662">
        <ele>14.7</ele>
        <time>2024-03-03T07:37:38Z</time>
      </trkpt>
      <trkpt lat="49.19178" lon="-0.04657">
        <ele>14.2</ele>
        <time>2024-03-03T07:37:39Z</time>
      </trkpt>
      <trkpt lat="49.19168" lon="-0.04654">
        <ele>13.8</ele>
        <time>2024-03-03T07:37:40Z</time>
      </trkpt>
      <trkpt lat="49.19157" lon="-0.04649">
        <ele>13.3</ele>
        <time>2024-03-03T07:37:41Z</time>
      </trkpt>
      <trkpt lat="49.19146" lon="-0.04646">
        <ele>12.8</ele>
        <time>2024-03-03T07:37:42Z</time>
      </trkpt>
      <trkpt lat="49.19136" lon="-0.04643">
        <ele>12.5</ele>
        <time>2024-03-03T07:37:43Z</time>
      </trkpt>
      <trkpt lat="49.19126" lon="-0.04641">
        <ele>12.3</ele>
        <time>2024-03-03T07:37:44Z</time>
      </trkpt>
      <trkpt lat="49.19117" lon="-0.04639">
        <ele>12.1</ele>
        <time>2024-03-03T07:37:45Z</time>
      </trkpt>
      <trkpt lat="49.19108" lon="-0.04637">
        <ele>12</ele>
        <time>2024-03-03T07:37:46Z</time>
      </trkpt>
      <trkpt lat="49.191" lon="-0.04635">
        <ele>11.9</ele>
        <time>2024-03-03T07:37:47Z</time>
      </trkpt>
      <trkpt lat="49.19092" lon="-0.04633">
        <ele>11.9</ele>
        <time>2024-03-03T07:37:48Z</time>
      </trkpt>
      <trkpt lat="49.19085" lon="-0.04631">
        <ele>11.9</ele>
        <time>2024-03-03T07:37:49Z</time>
      </trkpt>
      <trkpt lat="49.19078" lon="-0.0463">
        <ele>11.9</ele>
        <time>2024-03-03T07:37:50Z</time>
      </trkpt>
      <trkpt lat="49.19071" lon="-0.04629">
        <ele>11.9</ele>
        <time>2024-03-03T07:37:51Z</time>
      </trkpt>
      <trkpt lat="49.19066" lon="-0.04627">
        <ele>11.9</ele>
        <time>2024-03-03T07:37:52Z</time>
      </trkpt>
      <trkpt lat="49.19061" lon="-0.04625">
        <ele>11.9</ele>
        <time>2024-03-03T07:37:53Z</time>
      </trkpt>
      <trkpt lat="49.19057" lon="-0.04625">
        <ele>11.9</ele>
        <time>2024-03-03T07:37:54Z</time>
      </trkpt>
      <trkpt lat="49.19052" lon="-0.04625">
        <ele>11.9</ele>
        <time>2024-03-03T07:37:55Z</time>
      </trkpt>
      <trkpt lat="49.19047" lon="-0.04627">
        <ele>12</ele>
        <time>2024-03-03T07:37:56Z</time>
      </trkpt>
      <trkpt lat="49.19044" lon="-0.04633">
        <ele>12.2</ele>
        <time>2024-03-03T07:37:57Z</time>
      </trkpt>
      <trkpt lat="49.19042" lon="-0.04639">
        <ele>12.4</ele>
        <time>2024-03-03T07:37:58Z</time>
      </trkpt>
      <trkpt lat="49.1904" lon="-0.04646">
        <ele>12.6</ele>
        <time>2024-03-03T07:37:59Z</time>
      </trkpt>
      <trkpt lat="49.1904" lon="-0.04654">
        <ele>12.7</ele>
        <time>2024-03-03T07:38:00Z</time>
      </trkpt>
      <trkpt lat="49.19041" lon="-0.04661">
        <ele>12.7</ele>
        <time>2024-03-03T07:38:01Z</time>
      </trkpt>
      <trkpt lat="49.19042" lon="-0.04669">
        <ele>12.7</ele>
        <time>2024-03-03T07:38:02Z</time>
      </trkpt>
      <trkpt lat="49.19044" lon="-0.04677">
        <ele>12.8</ele>
        <time>2024-03-03T07:38:03Z</time>
      </trkpt>
      <trkpt lat="49.19045" lon="-0.04684">
        <ele>12.8</ele>
        <time>2024-03-03T07:38:04Z</time>
      </trkpt>
      <trkpt lat="49.19046" lon="-0.04692">
        <ele>12.9</ele>
        <time>2024-03-03T07:38:05Z</time>
      </trkpt>
      <trkpt lat="49.19047" lon="-0.04698">
        <ele>12.9</ele>
        <time>2024-03-03T07:38:06Z</time>
      </trkpt>
      <trkpt lat="49.19047" lon="-0.04706">
        <ele>13</ele>
        <time>2024-03-03T07:38:07Z</time>
      </trkpt>
      <trkpt lat="49.19045" lon="-0.04714">
        <ele>13.1</ele>
        <time>2024-03-03T07:38:08Z</time>
      </trkpt>
      <trkpt lat="49.19042" lon="-0.04722">
        <ele>13</ele>
        <time>2024-03-03T07:38:09Z</time>
      </trkpt>
      <trkpt lat="49.19037" lon="-0.0473">
        <ele>12.9</ele>
        <time>2024-03-03T07:38:10Z</time>
      </trkpt>
      <trkpt lat="49.19033" lon="-0.04736">
        <ele>12.9</ele>
        <time>2024-03-03T07:38:11Z</time>
      </trkpt>
      <trkpt lat="49.19027" lon="-0.04743">
        <ele>12.8</ele>
        <time>2024-03-03T07:38:12Z</time>
      </trkpt>
      <trkpt lat="49.19021" lon="-0.04747">
        <ele>12.7</ele>
        <time>2024-03-03T07:38:13Z</time>
      </trkpt>
      <trkpt lat="49.19013" lon="-0.0475">
        <ele>12.5</ele>
        <time>2024-03-03T07:38:14Z</time>
      </trkpt>
      <trkpt lat="49.19006" lon="-0.04752">
        <ele>12.4</ele>
        <time>2024-03-03T07:38:15Z</time>
      </trkpt>
      <trkpt lat="49.18999" lon="-0.04753">
        <ele>12.3</ele>
        <time>2024-03-03T07:38:16Z</time>
      </trkpt>
      <trkpt lat="49.18992" lon="-0.04754">
        <ele>12.2</ele>
        <time>2024-03-03T07:38:17Z</time>
      </trkpt>
      <trkpt lat="49.18985" lon="-0.04754">
        <ele>12</ele>
        <time>2024-03-03T07:38:18Z</time>
      </trkpt>
      <trkpt lat="49.18978" lon="-0.04754">
        <ele>11.9</ele>
        <time>2024-03-03T07:38:19Z</time>
      </trkpt>
      <trkpt lat="49.18971" lon="-0.04754">
        <ele>11.7</ele>
        <time>2024-03-03T07:38:20Z</time>
      </trkpt>
      <trkpt lat="49.18964" lon="-0.04754">
        <ele>11.6</ele>
        <time>2024-03-03T07:38:21Z</time>
      </trkpt>
      <trkpt lat="49.18956" lon="-0.04755">
        <ele>11.4</ele>
        <time>2024-03-03T07:38:22Z</time>
      </trkpt>
      <trkpt lat="49.18949" lon="-0.04755">
        <ele>11.3</ele>
        <time>2024-03-03T07:38:23Z</time>
      </trkpt>
      <trkpt lat="49.18941" lon="-0.04755">
        <ele>11.1</ele>
        <time>2024-03-03T07:38:24Z</time>
      </trkpt>
      <trkpt lat="49.18934" lon="-0.04756">
        <ele>11</ele>
        <time>2024-03-03T07:38:25Z</time>
      </trkpt>
      <trkpt lat="49.18927" lon="-0.04756">
        <ele>11</ele>
        <time>2024-03-03T07:38:26Z</time>
      </trkpt>
      <trkpt lat="49.1892" lon="-0.04756">
        <ele>10.9</ele>
        <time>2024-03-03T07:38:27Z</time>
      </trkpt>
      <trkpt lat="49.18913" lon="-0.04757">
        <ele>10.8</ele>
        <time>2024-03-03T07:38:28Z</time>
      </trkpt>
      <trkpt lat="49.18905" lon="-0.04758">
        <ele>10.8</ele>
        <time>2024-03-03T07:38:29Z</time>
      </trkpt>
      <trkpt lat="49.18898" lon="-0.04758">
        <ele>10.7</ele>
        <time>2024-03-03T07:38:30Z</time>
      </trkpt>
      <trkpt lat="49.18891" lon="-0.04759">
        <ele>10.6</ele>
        <time>2024-03-03T07:38:31Z</time>
      </trkpt>
      <trkpt lat="49.18884" lon="-0.04759">
        <ele>10.5</ele>
        <time>2024-03-03T07:38:32Z</time>
      </trkpt>
      <trkpt lat="49.18877" lon="-0.04758">
        <ele>10.4</ele>
        <time>2024-03-03T07:38:33Z</time>
      </trkpt>
      <trkpt lat="49.1887" lon="-0.04758">
        <ele>10.3</ele>
        <time>2024-03-03T07:38:34Z</time>
      </trkpt>
      <trkpt lat="49.18863" lon="-0.04758">
        <ele>10.3</ele>
        <time>2024-03-03T07:38:35Z</time>
      </trkpt>
      <trkpt lat="49.18857" lon="-0.04758">
        <ele>10.2</ele>
        <time>2024-03-03T07:38:36Z</time>
      </trkpt>
      <trkpt lat="49.1885" lon="-0.04759">
        <ele>10.2</ele>
        <time>2024-03-03T07:38:37Z</time>
      </trkpt>
      <trkpt lat="49.18844" lon="-0.04759">
        <ele>10.2</ele>
        <time>2024-03-03T07:38:38Z</time>
      </trkpt>
      <trkpt lat="49.18838" lon="-0.04759">
        <ele>10.1</ele>
        <time>2024-03-03T07:38:39Z</time>
      </trkpt>
      <trkpt lat="49.18832" lon="-0.04758">
        <ele>10.1</ele>
        <time>2024-03-03T07:38:40Z</time>
      </trkpt>
      <trkpt lat="49.18826" lon="-0.04754">
        <ele>10.1</ele>
        <time>2024-03-03T07:38:41Z</time>
      </trkpt>
      <trkpt lat="49.18821" lon="-0.04748">
        <ele>10.1</ele>
        <time>2024-03-03T07:38:42Z</time>
      </trkpt>
      <trkpt lat="49.18815" lon="-0.0474">
        <ele>10.1</ele>
        <time>2024-03-03T07:38:43Z</time>
      </trkpt>
      <trkpt lat="49.1881" lon="-0.04731">
        <ele>10.1</ele>
        <time>2024-03-03T07:38:44Z</time>
      </trkpt>
      <trkpt lat="49.18804" lon="-0.04723">
        <ele>10.2</ele>
        <time>2024-03-03T07:38:45Z</time>
      </trkpt>
      <trkpt lat="49.18799" lon="-0.04716">
        <ele>10.2</ele>
        <time>2024-03-03T07:38:46Z</time>
      </trkpt>
      <trkpt lat="49.18794" lon="-0.0471">
        <ele>10.2</ele>
        <time>2024-03-03T07:38:47Z</time>
      </trkpt>
      <trkpt lat="49.18787" lon="-0.04706">
        <ele>10.2</ele>
        <time>2024-03-03T07:38:48Z</time>
      </trkpt>
      <trkpt lat="49.1878" lon="-0.04702">
        <ele>10.2</ele>
        <time>2024-03-03T07:38:49Z</time>
      </trkpt>
      <trkpt lat="49.18774" lon="-0.04699">
        <ele>10.2</ele>
        <time>2024-03-03T07:38:50Z</time>
      </trkpt>
      <trkpt lat="49.18768" lon="-0.04694">
        <ele>10.2</ele>
        <time>2024-03-03T07:38:51Z</time>
      </trkpt>
      <trkpt lat="49.18763" lon="-0.0469">
        <ele>10.3</ele>
        <time>2024-03-03T07:38:52Z</time>
      </trkpt>
      <trkpt lat="49.18758" lon="-0.04687">
        <ele>10.3</ele>
        <time>2024-03-03T07:38:53Z</time>
      </trkpt>
      <trkpt lat="49.18752" lon="-0.04683">
        <ele>10.4</ele>
        <time>2024-03-03T07:38:54Z</time>
      </trkpt>
      <trkpt lat="49.18747" lon="-0.04681">
        <ele>10.4</ele>
        <time>2024-03-03T07:38:55Z</time>
      </trkpt>
      <trkpt lat="49.18743" lon="-0.04678">
        <ele>10.4</ele>
        <time>2024-03-03T07:38:56Z</time>
      </trkpt>
      <trkpt lat="49.18739" lon="-0.04673">
        <ele>10.5</ele>
        <time>2024-03-03T07:38:57Z</time>
      </trkpt>
      <trkpt lat="49.18736" lon="-0.04667">
        <ele>10.5</ele>
        <time>2024-03-03T07:38:58Z</time>
      </trkpt>
      <trkpt lat="49.18735" lon="-0.04661">
        <ele>10.5</ele>
        <time>2024-03-03T07:38:59Z</time>
      </trkpt>
      <trkpt lat="49.18735" lon="-0.04654">
        <ele>10.5</ele>
        <time>2024-03-03T07:39:00Z</time>
      </trkpt>
      <trkpt lat="49.18736" lon="-0.04647">
        <ele>10.4</ele>
        <time>2024-03-03T07:39:01Z</time>
      </trkpt>
      <trkpt lat="49.18737" lon="-0.0464">
        <ele>10.4</ele>
        <time>2024-03-03T07:39:02Z</time>
      </trkpt>
      <trkpt lat="49.18738" lon="-0.04634">
        <ele>10.4</ele>
        <time>2024-03-03T07:39:03Z</time>
      </trkpt>
      <trkpt lat="49.18739" lon="-0.04628">
        <ele>10.4</ele>
        <time>2024-03-03T07:39:04Z</time>
      </trkpt>
      <trkpt lat="49.18741" lon="-0.04621">
        <ele>10.4</ele>
        <time>2024-03-03T07:39:05Z</time>
      </trkpt>
      <trkpt lat="49.18743" lon="-0.04614">
        <ele>10.3</ele>
        <time>2024-03-03T07:39:06Z</time>
      </trkpt>
      <trkpt lat="49.18745" lon="-0.04608">
        <ele>10.3</ele>
        <time>2024-03-03T07:39:07Z</time>
      </trkpt>
      <trkpt lat="49.18747" lon="-0.04601">
        <ele>10.3</ele>
        <time>2024-03-03T07:39:08Z</time>
      </trkpt>
      <trkpt lat="49.18749" lon="-0.04594">
        <ele>10.3</ele>
        <time>2024-03-03T07:39:09Z</time>
      </trkpt>
      <trkpt lat="49.1875" lon="-0.04588">
        <ele>10.3</ele>
        <time>2024-03-03T07:39:10Z</time>
      </trkpt>
      <trkpt lat="49.18751" lon="-0.04583">
        <ele>10.3</ele>
        <time>2024-03-03T07:39:11Z</time>
      </trkpt>
      <trkpt lat="49.18748" lon="-0.04578">
        <ele>10.3</ele>
        <time>2024-03-03T07:39:12Z</time>
      </trkpt>
      <trkpt lat="49.18742" lon="-0.04575">
        <ele>10.3</ele>
        <time>2024-03-03T07:39:13Z</time>
      </trkpt>
      <trkpt lat="49.18734" lon="-0.04572">
        <ele>10.3</ele>
        <time>2024-03-03T07:39:14Z</time>
      </trkpt>
      <trkpt lat="49.18729" lon="-0.04568">
        <ele>10.3</ele>
        <time>2024-03-03T07:39:15Z</time>
      </trkpt>
      <trkpt lat="49.18724" lon="-0.04565">
        <ele>10.3</ele>
        <time>2024-03-03T07:39:16Z</time>
      </trkpt>
      <trkpt lat="49.18718" lon="-0.0456">
        <ele>10.4</ele>
        <time>2024-03-03T07:39:17Z</time>
      </trkpt>
      <trkpt lat="49.18712" lon="-0.04556">
        <ele>10.4</ele>
        <time>2024-03-03T07:39:18Z</time>
      </trkpt>
      <trkpt lat="49.18706" lon="-0.04551">
        <ele>10.4</ele>
        <time>2024-03-03T07:39:19Z</time>
      </trkpt>
      <trkpt lat="49.187" lon="-0.04546">
        <ele>10.4</ele>
        <time>2024-03-03T07:39:20Z</time>
      </trkpt>
      <trkpt lat="49.18694" lon="-0.04542">
        <ele>10.4</ele>
        <time>2024-03-03T07:39:21Z</time>
      </trkpt>
      <trkpt lat="49.18688" lon="-0.04537">
        <ele>10.5</ele>
        <time>2024-03-03T07:39:22Z</time>
      </trkpt>
      <trkpt lat="49.18683" lon="-0.04533">
        <ele>10.5</ele>
        <time>2024-03-03T07:39:23Z</time>
      </trkpt>
      <trkpt lat="49.18677" lon="-0.04528">
        <ele>10.5</ele>
        <time>2024-03-03T07:39:24Z</time>
      </trkpt>
      <trkpt lat="49.18671" lon="-0.04525">
        <ele>10.5</ele>
        <time>2024-03-03T07:39:25Z</time>
      </trkpt>
      <trkpt lat="49.18665" lon="-0.04521">
        <ele>10.6</ele>
        <time>2024-03-03T07:39:26Z</time>
      </trkpt>
      <trkpt lat="49.18659" lon="-0.04517">
        <ele>10.6</ele>
        <time>2024-03-03T07:39:27Z</time>
      </trkpt>
      <trkpt lat="49.18653" lon="-0.04513">
        <ele>10.6</ele>
        <time>2024-03-03T07:39:28Z</time>
      </trkpt>
      <trkpt lat="49.18646" lon="-0.0451">
        <ele>10.6</ele>
        <time>2024-03-03T07:39:29Z</time>
      </trkpt>
      <trkpt lat="49.1864" lon="-0.04508">
        <ele>10.6</ele>
        <time>2024-03-03T07:39:30Z</time>
      </trkpt>
      <trkpt lat="49.18634" lon="-0.04506">
        <ele>10.6</ele>
        <time>2024-03-03T07:39:31Z</time>
      </trkpt>
      <trkpt lat="49.18628" lon="-0.04505">
        <ele>10.6</ele>
        <time>2024-03-03T07:39:32Z</time>
      </trkpt>
      <trkpt lat="49.18622" lon="-0.04504">
        <ele>10.6</ele>
        <time>2024-03-03T07:39:33Z</time>
      </trkpt>
      <trkpt lat="49.18615" lon="-0.04501">
        <ele>10.7</ele>
        <time>2024-03-03T07:39:34Z</time>
      </trkpt>
      <trkpt lat="49.18609" lon="-0.04499">
        <ele>10.7</ele>
        <time>2024-03-03T07:39:35Z</time>
      </trkpt>
      <trkpt lat="49.18603" lon="-0.04497">
        <ele>10.7</ele>
        <time>2024-03-03T07:39:36Z</time>
      </trkpt>
      <trkpt lat="49.18596" lon="-0.04496">
        <ele>10.7</ele>
        <time>2024-03-03T07:39:37Z</time>
      </trkpt>
      <trkpt lat="49.1859" lon="-0.04495">
        <ele>10.7</ele>
        <time>2024-03-03T07:39:38Z</time>
      </trkpt>
      <trkpt lat="49.18583" lon="-0.04495">
        <ele>10.7</ele>
        <time>2024-03-03T07:39:39Z</time>
      </trkpt>
      <trkpt lat="49.18578" lon="-0.04494">
        <ele>10.6</ele>
        <time>2024-03-03T07:39:40Z</time>
      </trkpt>
      <trkpt lat="49.18572" lon="-0.04494">
        <ele>10.6</ele>
        <time>2024-03-03T07:39:41Z</time>
      </trkpt>
      <trkpt lat="49.18565" lon="-0.04493">
        <ele>10.6</ele>
        <time>2024-03-03T07:39:42Z</time>
      </trkpt>
      <trkpt lat="49.18557" lon="-0.04493">
        <ele>10.5</ele>
        <time>2024-03-03T07:39:43Z</time>
      </trkpt>
      <trkpt lat="49.18549" lon="-0.0449">
        <ele>10.5</ele>
        <time>2024-03-03T07:39:44Z</time>
      </trkpt>
      <trkpt lat="49.1854" lon="-0.04489">
        <ele>10.5</ele>
        <time>2024-03-03T07:39:45Z</time>
      </trkpt>
      <trkpt lat="49.18532" lon="-0.04487">
        <ele>10.5</ele>
        <time>2024-03-03T07:39:46Z</time>
      </trkpt>
      <trkpt lat="49.18523" lon="-0.04485">
        <ele>10.5</ele>
        <time>2024-03-03T07:39:47Z</time>
      </trkpt>
      <trkpt lat="49.18515" lon="-0.04482">
        <ele>10.5</ele>
        <time>2024-03-03T07:39:48Z</time>
      </trkpt>
      <trkpt lat="49.18507" lon="-0.0448">
        <ele>10.5</ele>
        <time>2024-03-03T07:39:49Z</time>
      </trkpt>
      <trkpt lat="49.185" lon="-0.04477">
        <ele>10.5</ele>
        <time>2024-03-03T07:39:50Z</time>
      </trkpt>
      <trkpt lat="49.18493" lon="-0.04474">
        <ele>10.4</ele>
        <time>2024-03-03T07:39:51Z</time>
      </trkpt>
      <trkpt lat="49.18485" lon="-0.04471">
        <ele>10.4</ele>
        <time>2024-03-03T07:39:52Z</time>
      </trkpt>
      <trkpt lat="49.18478" lon="-0.04469">
        <ele>10.3</ele>
        <time>2024-03-03T07:39:53Z</time>
      </trkpt>
      <trkpt lat="49.18471" lon="-0.04466">
        <ele>10.3</ele>
        <time>2024-03-03T07:39:54Z</time>
      </trkpt>
      <trkpt lat="49.18464" lon="-0.04463">
        <ele>10.3</ele>
        <time>2024-03-03T07:39:55Z</time>
      </trkpt>
      <trkpt lat="49.18457" lon="-0.04459">
        <ele>10.4</ele>
        <time>2024-03-03T07:39:56Z</time>
      </trkpt>
      <trkpt lat="49.18449" lon="-0.04456">
        <ele>10.5</ele>
        <time>2024-03-03T07:39:57Z</time>
      </trkpt>
      <trkpt lat="49.18443" lon="-0.04453">
        <ele>10.5</ele>
        <time>2024-03-03T07:39:58Z</time>
      </trkpt>
      <trkpt lat="49.18436" lon="-0.04451">
        <ele>10.5</ele>
        <time>2024-03-03T07:39:59Z</time>
      </trkpt>
      <trkpt lat="49.1843" lon="-0.0445">
        <ele>10.6</ele>
        <time>2024-03-03T07:40:00Z</time>
      </trkpt>
      <trkpt lat="49.18424" lon="-0.04449">
        <ele>10.6</ele>
        <time>2024-03-03T07:40:01Z</time>
      </trkpt>
      <trkpt lat="49.18418" lon="-0.04449">
        <ele>10.6</ele>
        <time>2024-03-03T07:40:02Z</time>
      </trkpt>
      <trkpt lat="49.18412" lon="-0.04447">
        <ele>10.6</ele>
        <time>2024-03-03T07:40:03Z</time>
      </trkpt>
      <trkpt lat="49.18405" lon="-0.04445">
        <ele>10.6</ele>
        <time>2024-03-03T07:40:04Z</time>
      </trkpt>
      <trkpt lat="49.18399" lon="-0.04442">
        <ele>10.5</ele>
        <time>2024-03-03T07:40:05Z</time>
      </trkpt>
      <trkpt lat="49.18392" lon="-0.0444">
        <ele>10.5</ele>
        <time>2024-03-03T07:40:06Z</time>
      </trkpt>
      <trkpt lat="49.18384" lon="-0.04437">
        <ele>10.5</ele>
        <time>2024-03-03T07:40:07Z</time>
      </trkpt>
      <trkpt lat="49.18376" lon="-0.04434">
        <ele>10.6</ele>
        <time>2024-03-03T07:40:08Z</time>
      </trkpt>
      <trkpt lat="49.18369" lon="-0.04431">
        <ele>10.6</ele>
        <time>2024-03-03T07:40:09Z</time>
      </trkpt>
      <trkpt lat="49.18362" lon="-0.04428">
        <ele>10.6</ele>
        <time>2024-03-03T07:40:10Z</time>
      </trkpt>
      <trkpt lat="49.18355" lon="-0.04426">
        <ele>10.6</ele>
        <time>2024-03-03T07:40:11Z</time>
      </trkpt>
      <trkpt lat="49.18348" lon="-0.04423">
        <ele>10.7</ele>
        <time>2024-03-03T07:40:12Z</time>
      </trkpt>
      <trkpt lat="49.18341" lon="-0.0442">
        <ele>10.8</ele>
        <time>2024-03-03T07:40:13Z</time>
      </trkpt>
      <trkpt lat="49.18334" lon="-0.04417">
        <ele>10.9</ele>
        <time>2024-03-03T07:40:14Z</time>
      </trkpt>
      <trkpt lat="49.18327" lon="-0.04414">
        <ele>10.9</ele>
        <time>2024-03-03T07:40:15Z</time>
      </trkpt>
      <trkpt lat="49.18321" lon="-0.04411">
        <ele>11</ele>
        <time>2024-03-03T07:40:16Z</time>
      </trkpt>
      <trkpt lat="49.18315" lon="-0.04409">
        <ele>11.1</ele>
        <time>2024-03-03T07:40:17Z</time>
      </trkpt>
      <trkpt lat="49.18308" lon="-0.04407">
        <ele>11.1</ele>
        <time>2024-03-03T07:40:18Z</time>
      </trkpt>
      <trkpt lat="49.18302" lon="-0.04404">
        <ele>11.2</ele>
        <time>2024-03-03T07:40:19Z</time>
      </trkpt>
      <trkpt lat="49.18296" lon="-0.04402">
        <ele>11.2</ele>
        <time>2024-03-03T07:40:20Z</time>
      </trkpt>
      <trkpt lat="49.18289" lon="-0.044">
        <ele>11.2</ele>
        <time>2024-03-03T07:40:21Z</time>
      </trkpt>
      <trkpt lat="49.18283" lon="-0.04398">
        <ele>11.2</ele>
        <time>2024-03-03T07:40:22Z</time>
      </trkpt>
      <trkpt lat="49.18275" lon="-0.04395">
        <ele>11.2</ele>
        <time>2024-03-03T07:40:23Z</time>
      </trkpt>
      <trkpt lat="49.18268" lon="-0.04393">
        <ele>11.2</ele>
        <time>2024-03-03T07:40:24Z</time>
      </trkpt>
      <trkpt lat="49.18261" lon="-0.04391">
        <ele>11.3</ele>
        <time>2024-03-03T07:40:25Z</time>
      </trkpt>
      <trkpt lat="49.18255" lon="-0.04388">
        <ele>11.3</ele>
        <time>2024-03-03T07:40:26Z</time>
      </trkpt>
      <trkpt lat="49.18248" lon="-0.04386">
        <ele>11.3</ele>
        <time>2024-03-03T07:40:27Z</time>
      </trkpt>
      <trkpt lat="49.18242" lon="-0.04383">
        <ele>11.4</ele>
        <time>2024-03-03T07:40:28Z</time>
      </trkpt>
      <trkpt lat="49.18236" lon="-0.0438">
        <ele>11.4</ele>
        <time>2024-03-03T07:40:29Z</time>
      </trkpt>
      <trkpt lat="49.18229" lon="-0.04378">
        <ele>11.4</ele>
        <time>2024-03-03T07:40:30Z</time>
      </trkpt>
      <trkpt lat="49.18222" lon="-0.04376">
        <ele>11.5</ele>
        <time>2024-03-03T07:40:31Z</time>
      </trkpt>
      <trkpt lat="49.18215" lon="-0.04374">
        <ele>11.5</ele>
        <time>2024-03-03T07:40:32Z</time>
      </trkpt>
      <trkpt lat="49.18208" lon="-0.04372">
        <ele>11.5</ele>
        <time>2024-03-03T07:40:33Z</time>
      </trkpt>
      <trkpt lat="49.18201" lon="-0.04369">
        <ele>11.6</ele>
        <time>2024-03-03T07:40:34Z</time>
      </trkpt>
      <trkpt lat="49.18195" lon="-0.04367">
        <ele>11.6</ele>
        <time>2024-03-03T07:40:35Z</time>
      </trkpt>
      <trkpt lat="49.18188" lon="-0.04365">
        <ele>11.6</ele>
        <time>2024-03-03T07:40:36Z</time>
      </trkpt>
      <trkpt lat="49.18181" lon="-0.04363">
        <ele>11.7</ele>
        <time>2024-03-03T07:40:37Z</time>
      </trkpt>
      <trkpt lat="49.18175" lon="-0.0436">
        <ele>11.7</ele>
        <time>2024-03-03T07:40:38Z</time>
      </trkpt>
      <trkpt lat="49.18169" lon="-0.04358">
        <ele>11.8</ele>
        <time>2024-03-03T07:40:39Z</time>
      </trkpt>
      <trkpt lat="49.18162" lon="-0.04355">
        <ele>11.8</ele>
        <time>2024-03-03T07:40:40Z</time>
      </trkpt>
      <trkpt lat="49.18155" lon="-0.04353">
        <ele>11.9</ele>
        <time>2024-03-03T07:40:41Z</time>
      </trkpt>
      <trkpt lat="49.18149" lon="-0.0435">
        <ele>11.9</ele>
        <time>2024-03-03T07:40:42Z</time>
      </trkpt>
      <trkpt lat="49.18142" lon="-0.04347">
        <ele>12</ele>
        <time>2024-03-03T07:40:43Z</time>
      </trkpt>
      <trkpt lat="49.18136" lon="-0.04345">
        <ele>12.1</ele>
        <time>2024-03-03T07:40:44Z</time>
      </trkpt>
      <trkpt lat="49.18129" lon="-0.04342">
        <ele>12.2</ele>
        <time>2024-03-03T07:40:45Z</time>
      </trkpt>
      <trkpt lat="49.18122" lon="-0.0434">
        <ele>12.3</ele>
        <time>2024-03-03T07:40:46Z</time>
      </trkpt>
      <trkpt lat="49.18116" lon="-0.04338">
        <ele>12.4</ele>
        <time>2024-03-03T07:40:47Z</time>
      </trkpt>
      <trkpt lat="49.18109" lon="-0.04336">
        <ele>12.5</ele>
        <time>2024-03-03T07:40:48Z</time>
      </trkpt>
      <trkpt lat="49.18103" lon="-0.04334">
        <ele>12.7</ele>
        <time>2024-03-03T07:40:49Z</time>
      </trkpt>
      <trkpt lat="49.18097" lon="-0.04331">
        <ele>12.8</ele>
        <time>2024-03-03T07:40:50Z</time>
      </trkpt>
      <trkpt lat="49.18091" lon="-0.04329">
        <ele>12.9</ele>
        <time>2024-03-03T07:40:51Z</time>
      </trkpt>
      <trkpt lat="49.18084" lon="-0.04327">
        <ele>13.1</ele>
        <time>2024-03-03T07:40:52Z</time>
      </trkpt>
      <trkpt lat="49.18078" lon="-0.04325">
        <ele>13.3</ele>
        <time>2024-03-03T07:40:53Z</time>
      </trkpt>
      <trkpt lat="49.18072" lon="-0.04322">
        <ele>13.5</ele>
        <time>2024-03-03T07:40:54Z</time>
      </trkpt>
      <trkpt lat="49.18066" lon="-0.04319">
        <ele>13.6</ele>
        <time>2024-03-03T07:40:55Z</time>
      </trkpt>
      <trkpt lat="49.1806" lon="-0.04317">
        <ele>13.8</ele>
        <time>2024-03-03T07:40:56Z</time>
      </trkpt>
      <trkpt lat="49.18054" lon="-0.04315">
        <ele>14</ele>
        <time>2024-03-03T07:40:57Z</time>
      </trkpt>
      <trkpt lat="49.18048" lon="-0.04312">
        <ele>14.1</ele>
        <time>2024-03-03T07:40:58Z</time>
      </trkpt>
      <trkpt lat="49.18042" lon="-0.0431">
        <ele>14.3</ele>
        <time>2024-03-03T07:40:59Z</time>
      </trkpt>
      <trkpt lat="49.18036" lon="-0.04308">
        <ele>14.5</ele>
        <time>2024-03-03T07:41:00Z</time>
      </trkpt>
      <trkpt lat="49.18029" lon="-0.04306">
        <ele>14.7</ele>
        <time>2024-03-03T07:41:01Z</time>
      </trkpt>
      <trkpt lat="49.18023" lon="-0.04303">
        <ele>15</ele>
        <time>2024-03-03T07:41:02Z</time>
      </trkpt>
      <trkpt lat="49.18018" lon="-0.04301">
        <ele>15.2</ele>
        <time>2024-03-03T07:41:03Z</time>
      </trkpt>
      <trkpt lat="49.18011" lon="-0.04299">
        <ele>15.4</ele>
        <time>2024-03-03T07:41:04Z</time>
      </trkpt>
      <trkpt lat="49.18005" lon="-0.04297">
        <ele>15.7</ele>
        <time>2024-03-03T07:41:05Z</time>
      </trkpt>
      <trkpt lat="49.17998" lon="-0.04295">
        <ele>15.9</ele>
        <time>2024-03-03T07:41:06Z</time>
      </trkpt>
      <trkpt lat="49.17992" lon="-0.04293">
        <ele>16.2</ele>
        <time>2024-03-03T07:41:07Z</time>
      </trkpt>
      <trkpt lat="49.17986" lon="-0.04291">
        <ele>16.4</ele>
        <time>2024-03-03T07:41:08Z</time>
      </trkpt>
      <trkpt lat="49.1798" lon="-0.0429">
        <ele>16.7</ele>
        <time>2024-03-03T07:41:09Z</time>
      </trkpt>
      <trkpt lat="49.17974" lon="-0.04288">
        <ele>16.9</ele>
        <time>2024-03-03T07:41:10Z</time>
      </trkpt>
      <trkpt lat="49.17968" lon="-0.04286">
        <ele>17.1</ele>
        <time>2024-03-03T07:41:11Z</time>
      </trkpt>
      <trkpt lat="49.17962" lon="-0.04284">
        <ele>17.4</ele>
        <time>2024-03-03T07:41:12Z</time>
      </trkpt>
      <trkpt lat="49.17956" lon="-0.04283">
        <ele>17.6</ele>
        <time>2024-03-03T07:41:13Z</time>
      </trkpt>
      <trkpt lat="49.1795" lon="-0.04282">
        <ele>17.8</ele>
        <time>2024-03-03T07:41:14Z</time>
      </trkpt>
      <trkpt lat="49.17944" lon="-0.04281">
        <ele>18</ele>
        <time>2024-03-03T07:41:15Z</time>
      </trkpt>
      <trkpt lat="49.17938" lon="-0.0428">
        <ele>18.2</ele>
        <time>2024-03-03T07:41:16Z</time>
      </trkpt>
      <trkpt lat="49.17932" lon="-0.04279">
        <ele>18.4</ele>
        <time>2024-03-03T07:41:17Z</time>
      </trkpt>
      <trkpt lat="49.17926" lon="-0.04277">
        <ele>18.6</ele>
        <time>2024-03-03T07:41:18Z</time>
      </trkpt>
      <trkpt lat="49.17919" lon="-0.04275">
        <ele>18.7</ele>
        <time>2024-03-03T07:41:19Z</time>
      </trkpt>
      <trkpt lat="49.17914" lon="-0.04273">
        <ele>18.9</ele>
        <time>2024-03-03T07:41:20Z</time>
      </trkpt>
      <trkpt lat="49.17908" lon="-0.04271">
        <ele>19</ele>
        <time>2024-03-03T07:41:21Z</time>
      </trkpt>
      <trkpt lat="49.17902" lon="-0.04268">
        <ele>19.2</ele>
        <time>2024-03-03T07:41:22Z</time>
      </trkpt>
      <trkpt lat="49.17896" lon="-0.04266">
        <ele>19.3</ele>
        <time>2024-03-03T07:41:23Z</time>
      </trkpt>
      <trkpt lat="49.17892" lon="-0.04264">
        <ele>19.4</ele>
        <time>2024-03-03T07:41:24Z</time>
      </trkpt>
      <trkpt lat="49.17887" lon="-0.04263">
        <ele>19.5</ele>
        <time>2024-03-03T07:41:25Z</time>
      </trkpt>
      <trkpt lat="49.17881" lon="-0.04262">
        <ele>19.6</ele>
        <time>2024-03-03T07:41:26Z</time>
      </trkpt>
      <trkpt lat="49.17877" lon="-0.04261">
        <ele>19.6</ele>
        <time>2024-03-03T07:41:27Z</time>
      </trkpt>
      <trkpt lat="49.17872" lon="-0.0426">
        <ele>19.7</ele>
        <time>2024-03-03T07:41:28Z</time>
      </trkpt>
      <trkpt lat="49.17868" lon="-0.04259">
        <ele>19.7</ele>
        <time>2024-03-03T07:41:29Z</time>
      </trkpt>
      <trkpt lat="49.17864" lon="-0.04257">
        <ele>19.7</ele>
        <time>2024-03-03T07:41:30Z</time>
      </trkpt>
      <trkpt lat="49.17859" lon="-0.04254">
        <ele>19.8</ele>
        <time>2024-03-03T07:41:31Z</time>
      </trkpt>
      <trkpt lat="49.17854" lon="-0.04251">
        <ele>19.8</ele>
        <time>2024-03-03T07:41:32Z</time>
      </trkpt>
      <trkpt lat="49.17849" lon="-0.04249">
        <ele>19.8</ele>
        <time>2024-03-03T07:41:33Z</time>
      </trkpt>
      <trkpt lat="49.17843" lon="-0.04246">
        <ele>19.9</ele>
        <time>2024-03-03T07:41:34Z</time>
      </trkpt>
      <trkpt lat="49.17837" lon="-0.04242">
        <ele>19.8</ele>
        <time>2024-03-03T07:41:35Z</time>
      </trkpt>
      <trkpt lat="49.17831" lon="-0.04237">
        <ele>19.8</ele>
        <time>2024-03-03T07:41:36Z</time>
      </trkpt>
      <trkpt lat="49.17825" lon="-0.04232">
        <ele>19.8</ele>
        <time>2024-03-03T07:41:37Z</time>
      </trkpt>
      <trkpt lat="49.1782" lon="-0.04227">
        <ele>19.7</ele>
        <time>2024-03-03T07:41:38Z</time>
      </trkpt>
      <trkpt lat="49.17815" lon="-0.04222">
        <ele>19.7</ele>
        <time>2024-03-03T07:41:39Z</time>
      </trkpt>
      <trkpt lat="49.17811" lon="-0.04217">
        <ele>19.7</ele>
        <time>2024-03-03T07:41:40Z</time>
      </trkpt>
      <trkpt lat="49.17807" lon="-0.04212">
        <ele>19.6</ele>
        <time>2024-03-03T07:41:41Z</time>
      </trkpt>
      <trkpt lat="49.17803" lon="-0.04208">
        <ele>19.5</ele>
        <time>2024-03-03T07:41:42Z</time>
      </trkpt>
      <trkpt lat="49.17798" lon="-0.04203">
        <ele>19.4</ele>
        <time>2024-03-03T07:41:43Z</time>
      </trkpt>
      <trkpt lat="49.17795" lon="-0.04196">
        <ele>19.3</ele>
        <time>2024-03-03T07:41:44Z</time>
      </trkpt>
      <trkpt lat="49.17792" lon="-0.04187">
        <ele>19.2</ele>
        <time>2024-03-03T07:41:45Z</time>
      </trkpt>
      <trkpt lat="49.17791" lon="-0.04176">
        <ele>18.6</ele>
        <time>2024-03-03T07:41:46Z</time>
      </trkpt>
      <trkpt lat="49.17793" lon="-0.04165">
        <ele>18.2</ele>
        <time>2024-03-03T07:41:47Z</time>
      </trkpt>
      <trkpt lat="49.17798" lon="-0.04156">
        <ele>17.8</ele>
        <time>2024-03-03T07:41:48Z</time>
      </trkpt>
      <trkpt lat="49.17802" lon="-0.04149">
        <ele>17.5</ele>
        <time>2024-03-03T07:41:49Z</time>
      </trkpt>
      <trkpt lat="49.17806" lon="-0.0414">
        <ele>17.2</ele>
        <time>2024-03-03T07:41:50Z</time>
      </trkpt>
      <trkpt lat="49.1781" lon="-0.04132">
        <ele>16.9</ele>
        <time>2024-03-03T07:41:51Z</time>
      </trkpt>
      <trkpt lat="49.17814" lon="-0.04124">
        <ele>16.6</ele>
        <time>2024-03-03T07:41:52Z</time>
      </trkpt>
      <trkpt lat="49.17818" lon="-0.04117">
        <ele>16.4</ele>
        <time>2024-03-03T07:41:53Z</time>
      </trkpt>
      <trkpt lat="49.17822" lon="-0.04109">
        <ele>16.3</ele>
        <time>2024-03-03T07:41:54Z</time>
      </trkpt>
      <trkpt lat="49.17825" lon="-0.04101">
        <ele>16.1</ele>
        <time>2024-03-03T07:41:55Z</time>
      </trkpt>
      <trkpt lat="49.17829" lon="-0.04092">
        <ele>16</ele>
        <time>2024-03-03T07:41:56Z</time>
      </trkpt>
      <trkpt lat="49.17831" lon="-0.04081">
        <ele>15.8</ele>
        <time>2024-03-03T07:41:57Z</time>
      </trkpt>
      <trkpt lat="49.17833" lon="-0.0407">
        <ele>15.7</ele>
        <time>2024-03-03T07:41:58Z</time>
      </trkpt>
      <trkpt lat="49.17833" lon="-0.04059">
        <ele>15.6</ele>
        <time>2024-03-03T07:41:59Z</time>
      </trkpt>
      <trkpt lat="49.17833" lon="-0.04047">
        <ele>15.6</ele>
        <time>2024-03-03T07:42:00Z</time>
      </trkpt>
      <trkpt lat="49.17833" lon="-0.04037">
        <ele>15.6</ele>
        <time>2024-03-03T07:42:01Z</time>
      </trkpt>
      <trkpt lat="49.17833" lon="-0.04027">
        <ele>15.5</ele>
        <time>2024-03-03T07:42:02Z</time>
      </trkpt>
      <trkpt lat="49.17833" lon="-0.04018">
        <ele>15.5</ele>
        <time>2024-03-03T07:42:03Z</time>
      </trkpt>
      <trkpt lat="49.17833" lon="-0.0401">
        <ele>15.5</ele>
        <time>2024-03-03T07:42:04Z</time>
      </trkpt>
      <trkpt lat="49.17835" lon="-0.04001">
        <ele>15.5</ele>
        <time>2024-03-03T07:42:05Z</time>
      </trkpt>
      <trkpt lat="49.17838" lon="-0.03992">
        <ele>15.4</ele>
        <time>2024-03-03T07:42:06Z</time>
      </trkpt>
      <trkpt lat="49.17843" lon="-0.03983">
        <ele>15.4</ele>
        <time>2024-03-03T07:42:07Z</time>
      </trkpt>
      <trkpt lat="49.17847" lon="-0.03974">
        <ele>15.4</ele>
        <time>2024-03-03T07:42:08Z</time>
      </trkpt>
      <trkpt lat="49.1785" lon="-0.03965">
        <ele>15.4</ele>
        <time>2024-03-03T07:42:09Z</time>
      </trkpt>
      <trkpt lat="49.17854" lon="-0.03956">
        <ele>15.4</ele>
        <time>2024-03-03T07:42:10Z</time>
      </trkpt>
      <trkpt lat="49.17858" lon="-0.03948">
        <ele>15.4</ele>
        <time>2024-03-03T07:42:11Z</time>
      </trkpt>
      <trkpt lat="49.17861" lon="-0.0394">
        <ele>15.5</ele>
        <time>2024-03-03T07:42:12Z</time>
      </trkpt>
      <trkpt lat="49.17864" lon="-0.03933">
        <ele>15.5</ele>
        <time>2024-03-03T07:42:13Z</time>
      </trkpt>
      <trkpt lat="49.17866" lon="-0.03926">
        <ele>15.5</ele>
        <time>2024-03-03T07:42:14Z</time>
      </trkpt>
      <trkpt lat="49.17869" lon="-0.03918">
        <ele>15.6</ele>
        <time>2024-03-03T07:42:15Z</time>
      </trkpt>
      <trkpt lat="49.17871" lon="-0.03909">
        <ele>15.7</ele>
        <time>2024-03-03T07:42:16Z</time>
      </trkpt>
      <trkpt lat="49.17873" lon="-0.039">
        <ele>15.7</ele>
        <time>2024-03-03T07:42:17Z</time>
      </trkpt>
      <trkpt lat="49.17875" lon="-0.03891">
        <ele>15.8</ele>
        <time>2024-03-03T07:42:18Z</time>
      </trkpt>
      <trkpt lat="49.17877" lon="-0.03883">
        <ele>15.9</ele>
        <time>2024-03-03T07:42:19Z</time>
      </trkpt>
      <trkpt lat="49.17879" lon="-0.03875">
        <ele>16</ele>
        <time>2024-03-03T07:42:20Z</time>
      </trkpt>
      <trkpt lat="49.17881" lon="-0.03866">
        <ele>16.1</ele>
        <time>2024-03-03T07:42:21Z</time>
      </trkpt>
      <trkpt lat="49.17884" lon="-0.03858">
        <ele>16.3</ele>
        <time>2024-03-03T07:42:22Z</time>
      </trkpt>
      <trkpt lat="49.17886" lon="-0.03849">
        <ele>16.4</ele>
        <time>2024-03-03T07:42:23Z</time>
      </trkpt>
      <trkpt lat="49.17889" lon="-0.0384">
        <ele>16.6</ele>
        <time>2024-03-03T07:42:24Z</time>
      </trkpt>
      <trkpt lat="49.17891" lon="-0.03832">
        <ele>16.8</ele>
        <time>2024-03-03T07:42:25Z</time>
      </trkpt>
      <trkpt lat="49.17894" lon="-0.03825">
        <ele>17</ele>
        <time>2024-03-03T07:42:26Z</time>
      </trkpt>
      <trkpt lat="49.17897" lon="-0.03818">
        <ele>17.1</ele>
        <time>2024-03-03T07:42:27Z</time>
      </trkpt>
      <trkpt lat="49.179" lon="-0.03811">
        <ele>17.3</ele>
        <time>2024-03-03T07:42:28Z</time>
      </trkpt>
      <trkpt lat="49.17903" lon="-0.03804">
        <ele>17.5</ele>
        <time>2024-03-03T07:42:29Z</time>
      </trkpt>
      <trkpt lat="49.17906" lon="-0.03797">
        <ele>17.7</ele>
        <time>2024-03-03T07:42:30Z</time>
      </trkpt>
      <trkpt lat="49.17909" lon="-0.03789">
        <ele>17.9</ele>
        <time>2024-03-03T07:42:31Z</time>
      </trkpt>
      <trkpt lat="49.17913" lon="-0.03782">
        <ele>18.1</ele>
        <time>2024-03-03T07:42:32Z</time>
      </trkpt>
      <trkpt lat="49.17917" lon="-0.03774">
        <ele>18.3</ele>
        <time>2024-03-03T07:42:33Z</time>
      </trkpt>
      <trkpt lat="49.1792" lon="-0.03768">
        <ele>18.5</ele>
        <time>2024-03-03T07:42:34Z</time>
      </trkpt>
      <trkpt lat="49.17923" lon="-0.03761">
        <ele>18.7</ele>
        <time>2024-03-03T07:42:35Z</time>
      </trkpt>
      <trkpt lat="49.17926" lon="-0.03755">
        <ele>19</ele>
        <time>2024-03-03T07:42:36Z</time>
      </trkpt>
      <trkpt lat="49.1793" lon="-0.03748">
        <ele>19.2</ele>
        <time>2024-03-03T07:42:37Z</time>
      </trkpt>
      <trkpt lat="49.17933" lon="-0.03741">
        <ele>19.4</ele>
        <time>2024-03-03T07:42:38Z</time>
      </trkpt>
      <trkpt lat="49.17936" lon="-0.03734">
        <ele>19.6</ele>
        <time>2024-03-03T07:42:39Z</time>
      </trkpt>
      <trkpt lat="49.17939" lon="-0.03728">
        <ele>19.8</ele>
        <time>2024-03-03T07:42:40Z</time>
      </trkpt>
      <trkpt lat="49.17943" lon="-0.0372">
        <ele>20.1</ele>
        <time>2024-03-03T07:42:41Z</time>
      </trkpt>
      <trkpt lat="49.17945" lon="-0.03714">
        <ele>20.3</ele>
        <time>2024-03-03T07:42:42Z</time>
      </trkpt>
      <trkpt lat="49.17947" lon="-0.03707">
        <ele>20.6</ele>
        <time>2024-03-03T07:42:43Z</time>
      </trkpt>
      <trkpt lat="49.1795" lon="-0.037">
        <ele>20.8</ele>
        <time>2024-03-03T07:42:44Z</time>
      </trkpt>
      <trkpt lat="49.17953" lon="-0.03692">
        <ele>21.1</ele>
        <time>2024-03-03T07:42:45Z</time>
      </trkpt>
      <trkpt lat="49.17956" lon="-0.03685">
        <ele>21.4</ele>
        <time>2024-03-03T07:42:46Z</time>
      </trkpt>
      <trkpt lat="49.17959" lon="-0.03679">
        <ele>21.7</ele>
        <time>2024-03-03T07:42:47Z</time>
      </trkpt>
      <trkpt lat="49.17962" lon="-0.03672">
        <ele>22</ele>
        <time>2024-03-03T07:42:48Z</time>
      </trkpt>
      <trkpt lat="49.17965" lon="-0.03666">
        <ele>22.4</ele>
        <time>2024-03-03T07:42:49Z</time>
      </trkpt>
      <trkpt lat="49.17967" lon="-0.03659">
        <ele>22.7</ele>
        <time>2024-03-03T07:42:50Z</time>
      </trkpt>
      <trkpt lat="49.17969" lon="-0.03652">
        <ele>23</ele>
        <time>2024-03-03T07:42:51Z</time>
      </trkpt>
      <trkpt lat="49.17972" lon="-0.03645">
        <ele>23.3</ele>
        <time>2024-03-03T07:42:52Z</time>
      </trkpt>
      <trkpt lat="49.17974" lon="-0.03639">
        <ele>23.6</ele>
        <time>2024-03-03T07:42:53Z</time>
      </trkpt>
      <trkpt lat="49.17976" lon="-0.03634">
        <ele>23.8</ele>
        <time>2024-03-03T07:42:54Z</time>
      </trkpt>
      <trkpt lat="49.17977" lon="-0.0363">
        <ele>24.1</ele>
        <time>2024-03-03T07:42:55Z</time>
      </trkpt>
      <trkpt lat="49.17978" lon="-0.03625">
        <ele>24.3</ele>
        <time>2024-03-03T07:42:56Z</time>
      </trkpt>
      <trkpt lat="49.1798" lon="-0.0362">
        <ele>24.6</ele>
        <time>2024-03-03T07:42:57Z</time>
      </trkpt>
      <trkpt lat="49.17981" lon="-0.03616">
        <ele>24.8</ele>
        <time>2024-03-03T07:42:58Z</time>
      </trkpt>
      <trkpt lat="49.17982" lon="-0.03611">
        <ele>25.1</ele>
        <time>2024-03-03T07:42:59Z</time>
      </trkpt>
      <trkpt lat="49.17983" lon="-0.03607">
        <ele>25.3</ele>
        <time>2024-03-03T07:43:00Z</time>
      </trkpt>
      <trkpt lat="49.17985" lon="-0.03602">
        <ele>25.6</ele>
        <time>2024-03-03T07:43:01Z</time>
      </trkpt>
      <trkpt lat="49.17985" lon="-0.03599">
        <ele>25.8</ele>
        <time>2024-03-03T07:43:02Z</time>
      </trkpt>
      <trkpt lat="49.17987" lon="-0.03595">
        <ele>26</ele>
        <time>2024-03-03T07:43:03Z</time>
      </trkpt>
      <trkpt lat="49.17987" lon="-0.03589">
        <ele>26.3</ele>
        <time>2024-03-03T07:43:04Z</time>
      </trkpt>
      <trkpt lat="49.17988" lon="-0.03584">
        <ele>26.6</ele>
        <time>2024-03-03T07:43:05Z</time>
      </trkpt>
      <trkpt lat="49.17989" lon="-0.03578">
        <ele>26.9</ele>
        <time>2024-03-03T07:43:06Z</time>
      </trkpt>
      <trkpt lat="49.1799" lon="-0.03571">
        <ele>27.3</ele>
        <time>2024-03-03T07:43:07Z</time>
      </trkpt>
      <trkpt lat="49.1799" lon="-0.03563">
        <ele>27.7</ele>
        <time>2024-03-03T07:43:08Z</time>
      </trkpt>
      <trkpt lat="49.17991" lon="-0.03557">
        <ele>27.9</ele>
        <time>2024-03-03T07:43:09Z</time>
      </trkpt>
      <trkpt lat="49.17992" lon="-0.0355">
        <ele>28.2</ele>
        <time>2024-03-03T07:43:10Z</time>
      </trkpt>
      <trkpt lat="49.17993" lon="-0.03542">
        <ele>28.5</ele>
        <time>2024-03-03T07:43:11Z</time>
      </trkpt>
      <trkpt lat="49.17993" lon="-0.03534">
        <ele>28.8</ele>
        <time>2024-03-03T07:43:12Z</time>
      </trkpt>
      <trkpt lat="49.17994" lon="-0.03525">
        <ele>29.1</ele>
        <time>2024-03-03T07:43:13Z</time>
      </trkpt>
      <trkpt lat="49.17995" lon="-0.03516">
        <ele>29.4</ele>
        <time>2024-03-03T07:43:14Z</time>
      </trkpt>
      <trkpt lat="49.17996" lon="-0.03508">
        <ele>29.7</ele>
        <time>2024-03-03T07:43:15Z</time>
      </trkpt>
      <trkpt lat="49.17998" lon="-0.03499">
        <ele>29.9</ele>
        <time>2024-03-03T07:43:16Z</time>
      </trkpt>
      <trkpt lat="49.18" lon="-0.03491">
        <ele>30.1</ele>
        <time>2024-03-03T07:43:17Z</time>
      </trkpt>
      <trkpt lat="49.18001" lon="-0.03482">
        <ele>30.2</ele>
        <time>2024-03-03T07:43:18Z</time>
      </trkpt>
      <trkpt lat="49.18002" lon="-0.03473">
        <ele>30.3</ele>
        <time>2024-03-03T07:43:19Z</time>
      </trkpt>
      <trkpt lat="49.18003" lon="-0.03464">
        <ele>30.4</ele>
        <time>2024-03-03T07:43:20Z</time>
      </trkpt>
      <trkpt lat="49.18004" lon="-0.03455">
        <ele>30.4</ele>
        <time>2024-03-03T07:43:21Z</time>
      </trkpt>
      <trkpt lat="49.18005" lon="-0.03446">
        <ele>30.5</ele>
        <time>2024-03-03T07:43:22Z</time>
      </trkpt>
      <trkpt lat="49.18005" lon="-0.03437">
        <ele>30.6</ele>
        <time>2024-03-03T07:43:23Z</time>
      </trkpt>
      <trkpt lat="49.18005" lon="-0.03427">
        <ele>30.6</ele>
        <time>2024-03-03T07:43:24Z</time>
      </trkpt>
      <trkpt lat="49.18005" lon="-0.03417">
        <ele>30.7</ele>
        <time>2024-03-03T07:43:25Z</time>
      </trkpt>
      <trkpt lat="49.18006" lon="-0.03407">
        <ele>30.7</ele>
        <time>2024-03-03T07:43:26Z</time>
      </trkpt>
      <trkpt lat="49.18007" lon="-0.03399">
        <ele>30.8</ele>
        <time>2024-03-03T07:43:27Z</time>
      </trkpt>
      <trkpt lat="49.18008" lon="-0.0339">
        <ele>30.8</ele>
        <time>2024-03-03T07:43:28Z</time>
      </trkpt>
      <trkpt lat="49.18008" lon="-0.03382">
        <ele>30.8</ele>
        <time>2024-03-03T07:43:29Z</time>
      </trkpt>
      <trkpt lat="49.18009" lon="-0.03373">
        <ele>30.8</ele>
        <time>2024-03-03T07:43:30Z</time>
      </trkpt>
      <trkpt lat="49.1801" lon="-0.03364">
        <ele>30.8</ele>
        <time>2024-03-03T07:43:31Z</time>
      </trkpt>
      <trkpt lat="49.1801" lon="-0.03356">
        <ele>30.8</ele>
        <time>2024-03-03T07:43:32Z</time>
      </trkpt>
      <trkpt lat="49.1801" lon="-0.03348">
        <ele>30.7</ele>
        <time>2024-03-03T07:43:33Z</time>
      </trkpt>
      <trkpt lat="49.18011" lon="-0.03339">
        <ele>30.7</ele>
        <time>2024-03-03T07:43:34Z</time>
      </trkpt>
      <trkpt lat="49.18011" lon="-0.0333">
        <ele>30.6</ele>
        <time>2024-03-03T07:43:35Z</time>
      </trkpt>
      <trkpt lat="49.18011" lon="-0.0332">
        <ele>30.6</ele>
        <time>2024-03-03T07:43:36Z</time>
      </trkpt>
      <trkpt lat="49.18011" lon="-0.0331">
        <ele>30.5</ele>
        <time>2024-03-03T07:43:37Z</time>
      </trkpt>
      <trkpt lat="49.18011" lon="-0.033">
        <ele>30.5</ele>
        <time>2024-03-03T07:43:38Z</time>
      </trkpt>
      <trkpt lat="49.18011" lon="-0.0329">
        <ele>30.5</ele>
        <time>2024-03-03T07:43:39Z</time>
      </trkpt>
      <trkpt lat="49.18012" lon="-0.03279">
        <ele>30.4</ele>
        <time>2024-03-03T07:43:40Z</time>
      </trkpt>
      <trkpt lat="49.18013" lon="-0.03268">
        <ele>30.4</ele>
        <time>2024-03-03T07:43:41Z</time>
      </trkpt>
      <trkpt lat="49.18014" lon="-0.03258">
        <ele>30.3</ele>
        <time>2024-03-03T07:43:42Z</time>
      </trkpt>
      <trkpt lat="49.18014" lon="-0.03249">
        <ele>30.3</ele>
        <time>2024-03-03T07:43:43Z</time>
      </trkpt>
      <trkpt lat="49.18016" lon="-0.0324">
        <ele>30.3</ele>
        <time>2024-03-03T07:43:44Z</time>
      </trkpt>
      <trkpt lat="49.18018" lon="-0.03231">
        <ele>30.2</ele>
        <time>2024-03-03T07:43:45Z</time>
      </trkpt>
      <trkpt lat="49.1802" lon="-0.03222">
        <ele>30.2</ele>
        <time>2024-03-03T07:43:46Z</time>
      </trkpt>
      <trkpt lat="49.18022" lon="-0.03212">
        <ele>30.2</ele>
        <time>2024-03-03T07:43:47Z</time>
      </trkpt>
      <trkpt lat="49.18023" lon="-0.03203">
        <ele>30.2</ele>
        <time>2024-03-03T07:43:48Z</time>
      </trkpt>
      <trkpt lat="49.18024" lon="-0.03192">
        <ele>30.2</ele>
        <time>2024-03-03T07:43:49Z</time>
      </trkpt>
      <trkpt lat="49.18026" lon="-0.03182">
        <ele>30.3</ele>
        <time>2024-03-03T07:43:50Z</time>
      </trkpt>
      <trkpt lat="49.18027" lon="-0.03172">
        <ele>30.3</ele>
        <time>2024-03-03T07:43:51Z</time>
      </trkpt>
      <trkpt lat="49.18028" lon="-0.03162">
        <ele>30.4</ele>
        <time>2024-03-03T07:43:52Z</time>
      </trkpt>
      <trkpt lat="49.18028" lon="-0.03153">
        <ele>30.4</ele>
        <time>2024-03-03T07:43:53Z</time>
      </trkpt>
      <trkpt lat="49.18029" lon="-0.03145">
        <ele>30.5</ele>
        <time>2024-03-03T07:43:54Z</time>
      </trkpt>
      <trkpt lat="49.1803" lon="-0.03136">
        <ele>30.6</ele>
        <time>2024-03-03T07:43:55Z</time>
      </trkpt>
      <trkpt lat="49.18031" lon="-0.03127">
        <ele>30.7</ele>
        <time>2024-03-03T07:43:56Z</time>
      </trkpt>
      <trkpt lat="49.18031" lon="-0.03118">
        <ele>30.9</ele>
        <time>2024-03-03T07:43:57Z</time>
      </trkpt>
      <trkpt lat="49.18031" lon="-0.03109">
        <ele>31</ele>
        <time>2024-03-03T07:43:58Z</time>
      </trkpt>
      <trkpt lat="49.1803" lon="-0.031">
        <ele>31.2</ele>
        <time>2024-03-03T07:43:59Z</time>
      </trkpt>
      <trkpt lat="49.18029" lon="-0.0309">
        <ele>31.4</ele>
        <time>2024-03-03T07:44:00Z</time>
      </trkpt>
      <trkpt lat="49.1803" lon="-0.03081">
        <ele>31.6</ele>
        <time>2024-03-03T07:44:01Z</time>
      </trkpt>
      <trkpt lat="49.1803" lon="-0.03073">
        <ele>31.8</ele>
        <time>2024-03-03T07:44:02Z</time>
      </trkpt>
      <trkpt lat="49.1803" lon="-0.03064">
        <ele>32</ele>
        <time>2024-03-03T07:44:03Z</time>
      </trkpt>
      <trkpt lat="49.1803" lon="-0.03055">
        <ele>32.1</ele>
        <time>2024-03-03T07:44:04Z</time>
      </trkpt>
      <trkpt lat="49.18029" lon="-0.03046">
        <ele>32.3</ele>
        <time>2024-03-03T07:44:05Z</time>
      </trkpt>
      <trkpt lat="49.18029" lon="-0.03036">
        <ele>32.4</ele>
        <time>2024-03-03T07:44:06Z</time>
      </trkpt>
      <trkpt lat="49.18029" lon="-0.03027">
        <ele>32.6</ele>
        <time>2024-03-03T07:44:07Z</time>
      </trkpt>
      <trkpt lat="49.18029" lon="-0.03018">
        <ele>32.7</ele>
        <time>2024-03-03T07:44:08Z</time>
      </trkpt>
      <trkpt lat="49.18029" lon="-0.0301">
        <ele>32.8</ele>
        <time>2024-03-03T07:44:09Z</time>
      </trkpt>
      <trkpt lat="49.18029" lon="-0.03002">
        <ele>32.9</ele>
        <time>2024-03-03T07:44:10Z</time>
      </trkpt>
      <trkpt lat="49.18029" lon="-0.02992">
        <ele>32.9</ele>
        <time>2024-03-03T07:44:11Z</time>
      </trkpt>
      <trkpt lat="49.18029" lon="-0.02983">
        <ele>33</ele>
        <time>2024-03-03T07:44:12Z</time>
      </trkpt>
      <trkpt lat="49.18029" lon="-0.02974">
        <ele>33</ele>
        <time>2024-03-03T07:44:13Z</time>
      </trkpt>
      <trkpt lat="49.18029" lon="-0.02964">
        <ele>32.9</ele>
        <time>2024-03-03T07:44:14Z</time>
      </trkpt>
      <trkpt lat="49.18029" lon="-0.02955">
        <ele>32.9</ele>
        <time>2024-03-03T07:44:15Z</time>
      </trkpt>
      <trkpt lat="49.18029" lon="-0.02946">
        <ele>32.9</ele>
        <time>2024-03-03T07:44:16Z</time>
      </trkpt>
      <trkpt lat="49.18029" lon="-0.02936">
        <ele>32.8</ele>
        <time>2024-03-03T07:44:17Z</time>
      </trkpt>
      <trkpt lat="49.18028" lon="-0.02926">
        <ele>32.8</ele>
        <time>2024-03-03T07:44:18Z</time>
      </trkpt>
      <trkpt lat="49.18027" lon="-0.02917">
        <ele>32.7</ele>
        <time>2024-03-03T07:44:19Z</time>
      </trkpt>
      <trkpt lat="49.18026" lon="-0.02907">
        <ele>32.6</ele>
        <time>2024-03-03T07:44:20Z</time>
      </trkpt>
      <trkpt lat="49.18025" lon="-0.02898">
        <ele>32.5</ele>
        <time>2024-03-03T07:44:21Z</time>
      </trkpt>
      <trkpt lat="49.18024" lon="-0.02888">
        <ele>32.4</ele>
        <time>2024-03-03T07:44:22Z</time>
      </trkpt>
      <trkpt lat="49.18024" lon="-0.02878">
        <ele>32.3</ele>
        <time>2024-03-03T07:44:23Z</time>
      </trkpt>
      <trkpt lat="49.18023" lon="-0.02869">
        <ele>32.2</ele>
        <time>2024-03-03T07:44:24Z</time>
      </trkpt>
      <trkpt lat="49.18022" lon="-0.02858">
        <ele>32.1</ele>
        <time>2024-03-03T07:44:25Z</time>
      </trkpt>
      <trkpt lat="49.18021" lon="-0.02846">
        <ele>31.9</ele>
        <time>2024-03-03T07:44:26Z</time>
      </trkpt>
      <trkpt lat="49.18021" lon="-0.02835">
        <ele>31.8</ele>
        <time>2024-03-03T07:44:27Z</time>
      </trkpt>
      <trkpt lat="49.1802" lon="-0.02824">
        <ele>31.6</ele>
        <time>2024-03-03T07:44:28Z</time>
      </trkpt>
      <trkpt lat="49.1802" lon="-0.02812">
        <ele>31.5</ele>
        <time>2024-03-03T07:44:29Z</time>
      </trkpt>
      <trkpt lat="49.18021" lon="-0.02801">
        <ele>31.3</ele>
        <time>2024-03-03T07:44:30Z</time>
      </trkpt>
      <trkpt lat="49.18021" lon="-0.0279">
        <ele>31.2</ele>
        <time>2024-03-03T07:44:31Z</time>
      </trkpt>
      <trkpt lat="49.18022" lon="-0.02779">
        <ele>31</ele>
        <time>2024-03-03T07:44:32Z</time>
      </trkpt>
      <trkpt lat="49.18023" lon="-0.02768">
        <ele>30.9</ele>
        <time>2024-03-03T07:44:33Z</time>
      </trkpt>
      <trkpt lat="49.18023" lon="-0.02756">
        <ele>30.8</ele>
        <time>2024-03-03T07:44:34Z</time>
      </trkpt>
      <trkpt lat="49.18024" lon="-0.02745">
        <ele>30.7</ele>
        <time>2024-03-03T07:44:35Z</time>
      </trkpt>
      <trkpt lat="49.18025" lon="-0.02734">
        <ele>30.7</ele>
        <time>2024-03-03T07:44:36Z</time>
      </trkpt>
      <trkpt lat="49.18026" lon="-0.02723">
        <ele>30.7</ele>
        <time>2024-03-03T07:44:37Z</time>
      </trkpt>
      <trkpt lat="49.18026" lon="-0.02714">
        <ele>30.7</ele>
        <time>2024-03-03T07:44:38Z</time>
      </trkpt>
      <trkpt lat="49.18026" lon="-0.02705">
        <ele>30.7</ele>
        <time>2024-03-03T07:44:39Z</time>
      </trkpt>
      <trkpt lat="49.18025" lon="-0.02695">
        <ele>30.7</ele>
        <time>2024-03-03T07:44:40Z</time>
      </trkpt>
      <trkpt lat="49.18025" lon="-0.02684">
        <ele>30.7</ele>
        <time>2024-03-03T07:44:41Z</time>
      </trkpt>
      <trkpt lat="49.18025" lon="-0.02674">
        <ele>30.6</ele>
        <time>2024-03-03T07:44:42Z</time>
      </trkpt>
      <trkpt lat="49.18025" lon="-0.02664">
        <ele>30.6</ele>
        <time>2024-03-03T07:44:43Z</time>
      </trkpt>
      <trkpt lat="49.18024" lon="-0.02655">
        <ele>30.6</ele>
        <time>2024-03-03T07:44:44Z</time>
      </trkpt>
      <trkpt lat="49.18023" lon="-0.02647">
        <ele>30.5</ele>
        <time>2024-03-03T07:44:45Z</time>
      </trkpt>
      <trkpt lat="49.18022" lon="-0.02639">
        <ele>30.5</ele>
        <time>2024-03-03T07:44:46Z</time>
      </trkpt>
      <trkpt lat="49.18021" lon="-0.0263">
        <ele>30.4</ele>
        <time>2024-03-03T07:44:47Z</time>
      </trkpt>
      <trkpt lat="49.18021" lon="-0.0262">
        <ele>30.3</ele>
        <time>2024-03-03T07:44:48Z</time>
      </trkpt>
      <trkpt lat="49.18021" lon="-0.0261">
        <ele>30.2</ele>
        <time>2024-03-03T07:44:49Z</time>
      </trkpt>
      <trkpt lat="49.18022" lon="-0.026">
        <ele>30.1</ele>
        <time>2024-03-03T07:44:50Z</time>
      </trkpt>
      <trkpt lat="49.18022" lon="-0.0259">
        <ele>30</ele>
        <time>2024-03-03T07:44:51Z</time>
      </trkpt>
      <trkpt lat="49.18022" lon="-0.02579">
        <ele>29.9</ele>
        <time>2024-03-03T07:44:52Z</time>
      </trkpt>
      <trkpt lat="49.18021" lon="-0.02568">
        <ele>29.7</ele>
        <time>2024-03-03T07:44:53Z</time>
      </trkpt>
      <trkpt lat="49.1802" lon="-0.02556">
        <ele>29.6</ele>
        <time>2024-03-03T07:44:54Z</time>
      </trkpt>
      <trkpt lat="49.18019" lon="-0.02546">
        <ele>29.5</ele>
        <time>2024-03-03T07:44:55Z</time>
      </trkpt>
      <trkpt lat="49.18018" lon="-0.02534">
        <ele>29.4</ele>
        <time>2024-03-03T07:44:56Z</time>
      </trkpt>
      <trkpt lat="49.18018" lon="-0.02522">
        <ele>29.3</ele>
        <time>2024-03-03T07:44:57Z</time>
      </trkpt>
      <trkpt lat="49.18019" lon="-0.02511">
        <ele>29.2</ele>
        <time>2024-03-03T07:44:58Z</time>
      </trkpt>
      <trkpt lat="49.18019" lon="-0.025">
        <ele>29.1</ele>
        <time>2024-03-03T07:44:59Z</time>
      </trkpt>
      <trkpt lat="49.1802" lon="-0.0249">
        <ele>29.1</ele>
        <time>2024-03-03T07:45:00Z</time>
      </trkpt>
      <trkpt lat="49.18021" lon="-0.02478">
        <ele>29.1</ele>
        <time>2024-03-03T07:45:01Z</time>
      </trkpt>
      <trkpt lat="49.18023" lon="-0.02465">
        <ele>29.1</ele>
        <time>2024-03-03T07:45:02Z</time>
      </trkpt>
      <trkpt lat="49.18024" lon="-0.02454">
        <ele>29.1</ele>
        <time>2024-03-03T07:45:03Z</time>
      </trkpt>
      <trkpt lat="49.18025" lon="-0.02443">
        <ele>29.2</ele>
        <time>2024-03-03T07:45:04Z</time>
      </trkpt>
      <trkpt lat="49.18026" lon="-0.02432">
        <ele>29.2</ele>
        <time>2024-03-03T07:45:05Z</time>
      </trkpt>
      <trkpt lat="49.18027" lon="-0.02422">
        <ele>29.3</ele>
        <time>2024-03-03T07:45:06Z</time>
      </trkpt>
      <trkpt lat="49.18028" lon="-0.02412">
        <ele>29.3</ele>
        <time>2024-03-03T07:45:07Z</time>
      </trkpt>
      <trkpt lat="49.18029" lon="-0.02403">
        <ele>29.4</ele>
        <time>2024-03-03T07:45:08Z</time>
      </trkpt>
      <trkpt lat="49.18029" lon="-0.02394">
        <ele>29.5</ele>
        <time>2024-03-03T07:45:09Z</time>
      </trkpt>
      <trkpt lat="49.18029" lon="-0.02385">
        <ele>29.6</ele>
        <time>2024-03-03T07:45:10Z</time>
      </trkpt>
      <trkpt lat="49.18028" lon="-0.02376">
        <ele>29.7</ele>
        <time>2024-03-03T07:45:11Z</time>
      </trkpt>
      <trkpt lat="49.18028" lon="-0.02368">
        <ele>29.8</ele>
        <time>2024-03-03T07:45:12Z</time>
      </trkpt>
      <trkpt lat="49.18028" lon="-0.02359">
        <ele>29.8</ele>
        <time>2024-03-03T07:45:13Z</time>
      </trkpt>
      <trkpt lat="49.18027" lon="-0.0235">
        <ele>29.9</ele>
        <time>2024-03-03T07:45:14Z</time>
      </trkpt>
      <trkpt lat="49.18026" lon="-0.02341">
        <ele>30</ele>
        <time>2024-03-03T07:45:15Z</time>
      </trkpt>
      <trkpt lat="49.18025" lon="-0.02333">
        <ele>30</ele>
        <time>2024-03-03T07:45:16Z</time>
      </trkpt>
      <trkpt lat="49.18023" lon="-0.02324">
        <ele>30.1</ele>
        <time>2024-03-03T07:45:17Z</time>
      </trkpt>
      <trkpt lat="49.18022" lon="-0.02315">
        <ele>30.2</ele>
        <time>2024-03-03T07:45:18Z</time>
      </trkpt>
      <trkpt lat="49.1802" lon="-0.02307">
        <ele>30.3</ele>
        <time>2024-03-03T07:45:19Z</time>
      </trkpt>
      <trkpt lat="49.18018" lon="-0.023">
        <ele>30.4</ele>
        <time>2024-03-03T07:45:20Z</time>
      </trkpt>
      <trkpt lat="49.18016" lon="-0.02292">
        <ele>30.5</ele>
        <time>2024-03-03T07:45:21Z</time>
      </trkpt>
      <trkpt lat="49.18013" lon="-0.02283">
        <ele>30.7</ele>
        <time>2024-03-03T07:45:22Z</time>
      </trkpt>
      <trkpt lat="49.18011" lon="-0.02274">
        <ele>30.9</ele>
        <time>2024-03-03T07:45:23Z</time>
      </trkpt>
      <trkpt lat="49.1801" lon="-0.02266">
        <ele>31</ele>
        <time>2024-03-03T07:45:24Z</time>
      </trkpt>
      <trkpt lat="49.18008" lon="-0.02258">
        <ele>31.1</ele>
        <time>2024-03-03T07:45:25Z</time>
      </trkpt>
      <trkpt lat="49.18007" lon="-0.02249">
        <ele>31.3</ele>
        <time>2024-03-03T07:45:26Z</time>
      </trkpt>
      <trkpt lat="49.18006" lon="-0.0224">
        <ele>31.5</ele>
        <time>2024-03-03T07:45:27Z</time>
      </trkpt>
      <trkpt lat="49.18005" lon="-0.02232">
        <ele>31.6</ele>
        <time>2024-03-03T07:45:28Z</time>
      </trkpt>
      <trkpt lat="49.18003" lon="-0.02222">
        <ele>31.7</ele>
        <time>2024-03-03T07:45:29Z</time>
      </trkpt>
      <trkpt lat="49.18003" lon="-0.02212">
        <ele>31.8</ele>
        <time>2024-03-03T07:45:30Z</time>
      </trkpt>
      <trkpt lat="49.18002" lon="-0.02201">
        <ele>31.9</ele>
        <time>2024-03-03T07:45:31Z</time>
      </trkpt>
      <trkpt lat="49.18001" lon="-0.02192">
        <ele>31.9</ele>
        <time>2024-03-03T07:45:32Z</time>
      </trkpt>
      <trkpt lat="49.18" lon="-0.02182">
        <ele>32</ele>
        <time>2024-03-03T07:45:33Z</time>
      </trkpt>
      <trkpt lat="49.17999" lon="-0.02172">
        <ele>32.1</ele>
        <time>2024-03-03T07:45:34Z</time>
      </trkpt>
      <trkpt lat="49.17999" lon="-0.02161">
        <ele>32.1</ele>
        <time>2024-03-03T07:45:35Z</time>
      </trkpt>
      <trkpt lat="49.17998" lon="-0.02151">
        <ele>32.1</ele>
        <time>2024-03-03T07:45:36Z</time>
      </trkpt>
      <trkpt lat="49.17997" lon="-0.02141">
        <ele>32.1</ele>
        <time>2024-03-03T07:45:37Z</time>
      </trkpt>
      <trkpt lat="49.17997" lon="-0.02132">
        <ele>32.1</ele>
        <time>2024-03-03T07:45:38Z</time>
      </trkpt>
      <trkpt lat="49.17997" lon="-0.02123">
        <ele>32.2</ele>
        <time>2024-03-03T07:45:39Z</time>
      </trkpt>
      <trkpt lat="49.17997" lon="-0.02114">
        <ele>32.2</ele>
        <time>2024-03-03T07:45:40Z</time>
      </trkpt>
      <trkpt lat="49.17997" lon="-0.02106">
        <ele>32.2</ele>
        <time>2024-03-03T07:45:41Z</time>
      </trkpt>
      <trkpt lat="49.17997" lon="-0.02097">
        <ele>32.3</ele>
        <time>2024-03-03T07:45:42Z</time>
      </trkpt>
      <trkpt lat="49.17996" lon="-0.02089">
        <ele>32.3</ele>
        <time>2024-03-03T07:45:43Z</time>
      </trkpt>
      <trkpt lat="49.17996" lon="-0.02081">
        <ele>32.4</ele>
        <time>2024-03-03T07:45:44Z</time>
      </trkpt>
      <trkpt lat="49.17997" lon="-0.02074">
        <ele>32.5</ele>
        <time>2024-03-03T07:45:45Z</time>
      </trkpt>
      <trkpt lat="49.17997" lon="-0.02066">
        <ele>32.6</ele>
        <time>2024-03-03T07:45:46Z</time>
      </trkpt>
      <trkpt lat="49.17998" lon="-0.0206">
        <ele>32.7</ele>
        <time>2024-03-03T07:45:47Z</time>
      </trkpt>
      <trkpt lat="49.17999" lon="-0.02054">
        <ele>32.7</ele>
        <time>2024-03-03T07:45:48Z</time>
      </trkpt>
      <trkpt lat="49.17999" lon="-0.02048">
        <ele>32.8</ele>
        <time>2024-03-03T07:45:49Z</time>
      </trkpt>
      <trkpt lat="49.17999" lon="-0.02042">
        <ele>32.8</ele>
        <time>2024-03-03T07:45:50Z</time>
      </trkpt>
      <trkpt lat="49.17999" lon="-0.02037">
        <ele>32.9</ele>
        <time>2024-03-03T07:45:51Z</time>
      </trkpt>
      <trkpt lat="49.17999" lon="-0.02032">
        <ele>32.9</ele>
        <time>2024-03-03T07:45:52Z</time>
      </trkpt>
      <trkpt lat="49.18" lon="-0.02025">
        <ele>32.9</ele>
        <time>2024-03-03T07:45:53Z</time>
      </trkpt>
      <trkpt lat="49.18001" lon="-0.02018">
        <ele>32.9</ele>
        <time>2024-03-03T07:45:54Z</time>
      </trkpt>
      <trkpt lat="49.18001" lon="-0.02012">
        <ele>32.9</ele>
        <time>2024-03-03T07:45:55Z</time>
      </trkpt>
      <trkpt lat="49.18001" lon="-0.02004">
        <ele>32.8</ele>
        <time>2024-03-03T07:45:56Z</time>
      </trkpt>
      <trkpt lat="49.18002" lon="-0.01997">
        <ele>32.8</ele>
        <time>2024-03-03T07:45:57Z</time>
      </trkpt>
      <trkpt lat="49.18002" lon="-0.0199">
        <ele>32.7</ele>
        <time>2024-03-03T07:45:58Z</time>
      </trkpt>
      <trkpt lat="49.18003" lon="-0.0198">
        <ele>32.5</ele>
        <time>2024-03-03T07:45:59Z</time>
      </trkpt>
      <trkpt lat="49.18004" lon="-0.0197">
        <ele>32.4</ele>
        <time>2024-03-03T07:46:00Z</time>
      </trkpt>
      <trkpt lat="49.18005" lon="-0.01959">
        <ele>32.2</ele>
        <time>2024-03-03T07:46:01Z</time>
      </trkpt>
      <trkpt lat="49.18007" lon="-0.01948">
        <ele>32</ele>
        <time>2024-03-03T07:46:02Z</time>
      </trkpt>
      <trkpt lat="49.18008" lon="-0.01938">
        <ele>31.8</ele>
        <time>2024-03-03T07:46:03Z</time>
      </trkpt>
      <trkpt lat="49.18009" lon="-0.01926">
        <ele>31.6</ele>
        <time>2024-03-03T07:46:04Z</time>
      </trkpt>
      <trkpt lat="49.18011" lon="-0.01914">
        <ele>31.4</ele>
        <time>2024-03-03T07:46:05Z</time>
      </trkpt>
      <trkpt lat="49.18013" lon="-0.019">
        <ele>31.3</ele>
        <time>2024-03-03T07:46:06Z</time>
      </trkpt>
      <trkpt lat="49.18014" lon="-0.01887">
        <ele>31.2</ele>
        <time>2024-03-03T07:46:07Z</time>
      </trkpt>
      <trkpt lat="49.18015" lon="-0.01874">
        <ele>31.1</ele>
        <time>2024-03-03T07:46:08Z</time>
      </trkpt>
      <trkpt lat="49.18016" lon="-0.01861">
        <ele>31.1</ele>
        <time>2024-03-03T07:46:09Z</time>
      </trkpt>
      <trkpt lat="49.18016" lon="-0.0185">
        <ele>31.1</ele>
        <time>2024-03-03T07:46:10Z</time>
      </trkpt>
      <trkpt lat="49.18015" lon="-0.01839">
        <ele>31.1</ele>
        <time>2024-03-03T07:46:11Z</time>
      </trkpt>
      <trkpt lat="49.18016" lon="-0.01828">
        <ele>31.1</ele>
        <time>2024-03-03T07:46:12Z</time>
      </trkpt>
      <trkpt lat="49.18017" lon="-0.01817">
        <ele>31.1</ele>
        <time>2024-03-03T07:46:13Z</time>
      </trkpt>
      <trkpt lat="49.18018" lon="-0.01805">
        <ele>31.2</ele>
        <time>2024-03-03T07:46:14Z</time>
      </trkpt>
      <trkpt lat="49.18019" lon="-0.01794">
        <ele>31.2</ele>
        <time>2024-03-03T07:46:15Z</time>
      </trkpt>
      <trkpt lat="49.18019" lon="-0.01783">
        <ele>31.3</ele>
        <time>2024-03-03T07:46:16Z</time>
      </trkpt>
      <trkpt lat="49.18019" lon="-0.01771">
        <ele>31.3</ele>
        <time>2024-03-03T07:46:17Z</time>
      </trkpt>
      <trkpt lat="49.18019" lon="-0.0176">
        <ele>31.4</ele>
        <time>2024-03-03T07:46:18Z</time>
      </trkpt>
      <trkpt lat="49.18019" lon="-0.01748">
        <ele>31.5</ele>
        <time>2024-03-03T07:46:19Z</time>
      </trkpt>
      <trkpt lat="49.18019" lon="-0.01736">
        <ele>31.6</ele>
        <time>2024-03-03T07:46:20Z</time>
      </trkpt>
      <trkpt lat="49.1802" lon="-0.01722">
        <ele>31.7</ele>
        <time>2024-03-03T07:46:21Z</time>
      </trkpt>
      <trkpt lat="49.1802" lon="-0.01709">
        <ele>31.8</ele>
        <time>2024-03-03T07:46:22Z</time>
      </trkpt>
      <trkpt lat="49.18022" lon="-0.01696">
        <ele>31.9</ele>
        <time>2024-03-03T07:46:23Z</time>
      </trkpt>
      <trkpt lat="49.18023" lon="-0.01685">
        <ele>32</ele>
        <time>2024-03-03T07:46:24Z</time>
      </trkpt>
      <trkpt lat="49.18023" lon="-0.01673">
        <ele>32.1</ele>
        <time>2024-03-03T07:46:25Z</time>
      </trkpt>
      <trkpt lat="49.18024" lon="-0.01661">
        <ele>32.3</ele>
        <time>2024-03-03T07:46:26Z</time>
      </trkpt>
      <trkpt lat="49.18025" lon="-0.0165">
        <ele>32.4</ele>
        <time>2024-03-03T07:46:27Z</time>
      </trkpt>
      <trkpt lat="49.18026" lon="-0.01639">
        <ele>32.6</ele>
        <time>2024-03-03T07:46:28Z</time>
      </trkpt>
      <trkpt lat="49.18027" lon="-0.01629">
        <ele>32.8</ele>
        <time>2024-03-03T07:46:29Z</time>
      </trkpt>
      <trkpt lat="49.18028" lon="-0.01619">
        <ele>33</ele>
        <time>2024-03-03T07:46:30Z</time>
      </trkpt>
      <trkpt lat="49.18029" lon="-0.0161">
        <ele>33.2</ele>
        <time>2024-03-03T07:46:31Z</time>
      </trkpt>
      <trkpt lat="49.1803" lon="-0.01601">
        <ele>33.4</ele>
        <time>2024-03-03T07:46:32Z</time>
      </trkpt>
      <trkpt lat="49.18031" lon="-0.01592">
        <ele>33.7</ele>
        <time>2024-03-03T07:46:33Z</time>
      </trkpt>
      <trkpt lat="49.18032" lon="-0.01584">
        <ele>33.9</ele>
        <time>2024-03-03T07:46:34Z</time>
      </trkpt>
      <trkpt lat="49.18032" lon="-0.01577">
        <ele>34.1</ele>
        <time>2024-03-03T07:46:35Z</time>
      </trkpt>
      <trkpt lat="49.18033" lon="-0.01571">
        <ele>34.3</ele>
        <time>2024-03-03T07:46:36Z</time>
      </trkpt>
      <trkpt lat="49.18034" lon="-0.01565">
        <ele>34.5</ele>
        <time>2024-03-03T07:46:37Z</time>
      </trkpt>
      <trkpt lat="49.18034" lon="-0.01559">
        <ele>34.8</ele>
        <time>2024-03-03T07:46:38Z</time>
      </trkpt>
      <trkpt lat="49.18034" lon="-0.01553">
        <ele>35</ele>
        <time>2024-03-03T07:46:39Z</time>
      </trkpt>
      <trkpt lat="49.18034" lon="-0.01547">
        <ele>35.2</ele>
        <time>2024-03-03T07:46:40Z</time>
      </trkpt>
      <trkpt lat="49.18035" lon="-0.01541">
        <ele>35.4</ele>
        <time>2024-03-03T07:46:41Z</time>
      </trkpt>
      <trkpt lat="49.18035" lon="-0.01535">
        <ele>35.6</ele>
        <time>2024-03-03T07:46:42Z</time>
      </trkpt>
      <trkpt lat="49.18036" lon="-0.01529">
        <ele>35.8</ele>
        <time>2024-03-03T07:46:43Z</time>
      </trkpt>
      <trkpt lat="49.18036" lon="-0.01522">
        <ele>36.1</ele>
        <time>2024-03-03T07:46:44Z</time>
      </trkpt>
      <trkpt lat="49.18037" lon="-0.01514">
        <ele>36.3</ele>
        <time>2024-03-03T07:46:45Z</time>
      </trkpt>
      <trkpt lat="49.18038" lon="-0.01505">
        <ele>36.6</ele>
        <time>2024-03-03T07:46:46Z</time>
      </trkpt>
      <trkpt lat="49.18038" lon="-0.01498">
        <ele>36.9</ele>
        <time>2024-03-03T07:46:47Z</time>
      </trkpt>
      <trkpt lat="49.18039" lon="-0.01492">
        <ele>37.1</ele>
        <time>2024-03-03T07:46:48Z</time>
      </trkpt>
      <trkpt lat="49.1804" lon="-0.01485">
        <ele>37.3</ele>
        <time>2024-03-03T07:46:49Z</time>
      </trkpt>
      <trkpt lat="49.1804" lon="-0.01479">
        <ele>37.5</ele>
        <time>2024-03-03T07:46:50Z</time>
      </trkpt>
      <trkpt lat="49.18041" lon="-0.01473">
        <ele>37.6</ele>
        <time>2024-03-03T07:46:51Z</time>
      </trkpt>
      <trkpt lat="49.18041" lon="-0.01467">
        <ele>37.8</ele>
        <time>2024-03-03T07:46:52Z</time>
      </trkpt>
      <trkpt lat="49.18042" lon="-0.0146">
        <ele>38</ele>
        <time>2024-03-03T07:46:53Z</time>
      </trkpt>
      <trkpt lat="49.18043" lon="-0.01454">
        <ele>38.1</ele>
        <time>2024-03-03T07:46:54Z</time>
      </trkpt>
      <trkpt lat="49.18044" lon="-0.01446">
        <ele>38.2</ele>
        <time>2024-03-03T07:46:55Z</time>
      </trkpt>
      <trkpt lat="49.18046" lon="-0.01434">
        <ele>38.4</ele>
        <time>2024-03-03T07:46:56Z</time>
      </trkpt>
      <trkpt lat="49.18049" lon="-0.01422">
        <ele>38.4</ele>
        <time>2024-03-03T07:46:57Z</time>
      </trkpt>
      <trkpt lat="49.18051" lon="-0.0141">
        <ele>38.3</ele>
        <time>2024-03-03T07:46:58Z</time>
      </trkpt>
      <trkpt lat="49.18054" lon="-0.01397">
        <ele>38.2</ele>
        <time>2024-03-03T07:46:59Z</time>
      </trkpt>
      <trkpt lat="49.18057" lon="-0.01384">
        <ele>38</ele>
        <time>2024-03-03T07:47:00Z</time>
      </trkpt>
      <trkpt lat="49.1806" lon="-0.0137">
        <ele>37.8</ele>
        <time>2024-03-03T07:47:01Z</time>
      </trkpt>
      <trkpt lat="49.18063" lon="-0.01356">
        <ele>37.5</ele>
        <time>2024-03-03T07:47:02Z</time>
      </trkpt>
      <trkpt lat="49.18066" lon="-0.01341">
        <ele>37.3</ele>
        <time>2024-03-03T07:47:03Z</time>
      </trkpt>
      <trkpt lat="49.18068" lon="-0.01325">
        <ele>37</ele>
        <time>2024-03-03T07:47:04Z</time>
      </trkpt>
      <trkpt lat="49.1807" lon="-0.0131">
        <ele>36.8</ele>
        <time>2024-03-03T07:47:05Z</time>
      </trkpt>
      <trkpt lat="49.18072" lon="-0.01295">
        <ele>36.5</ele>
        <time>2024-03-03T07:47:06Z</time>
      </trkpt>
      <trkpt lat="49.18074" lon="-0.01282">
        <ele>36.3</ele>
        <time>2024-03-03T07:47:07Z</time>
      </trkpt>
      <trkpt lat="49.18075" lon="-0.01268">
        <ele>36.1</ele>
        <time>2024-03-03T07:47:08Z</time>
      </trkpt>
      <trkpt lat="49.18076" lon="-0.01254">
        <ele>35.9</ele>
        <time>2024-03-03T07:47:09Z</time>
      </trkpt>
      <trkpt lat="49.18076" lon="-0.0124">
        <ele>35.7</ele>
        <time>2024-03-03T07:47:10Z</time>
      </trkpt>
      <trkpt lat="49.18076" lon="-0.01227">
        <ele>35.6</ele>
        <time>2024-03-03T07:47:11Z</time>
      </trkpt>
      <trkpt lat="49.18077" lon="-0.01214">
        <ele>35.4</ele>
        <time>2024-03-03T07:47:12Z</time>
      </trkpt>
      <trkpt lat="49.18077" lon="-0.01202">
        <ele>35.3</ele>
        <time>2024-03-03T07:47:13Z</time>
      </trkpt>
      <trkpt lat="49.18078" lon="-0.01189">
        <ele>35.1</ele>
        <time>2024-03-03T07:47:14Z</time>
      </trkpt>
      <trkpt lat="49.18078" lon="-0.01177">
        <ele>34.9</ele>
        <time>2024-03-03T07:47:15Z</time>
      </trkpt>
      <trkpt lat="49.18078" lon="-0.01165">
        <ele>34.8</ele>
        <time>2024-03-03T07:47:16Z</time>
      </trkpt>
      <trkpt lat="49.18078" lon="-0.01154">
        <ele>34.6</ele>
        <time>2024-03-03T07:47:17Z</time>
      </trkpt>
      <trkpt lat="49.18078" lon="-0.01143">
        <ele>34.5</ele>
        <time>2024-03-03T07:47:18Z</time>
      </trkpt>
      <trkpt lat="49.18078" lon="-0.01132">
        <ele>34.4</ele>
        <time>2024-03-03T07:47:19Z</time>
      </trkpt>
      <trkpt lat="49.18078" lon="-0.01121">
        <ele>34.3</ele>
        <time>2024-03-03T07:47:20Z</time>
      </trkpt>
      <trkpt lat="49.18079" lon="-0.01109">
        <ele>34.2</ele>
        <time>2024-03-03T07:47:21Z</time>
      </trkpt>
      <trkpt lat="49.18079" lon="-0.01098">
        <ele>34.1</ele>
        <time>2024-03-03T07:47:22Z</time>
      </trkpt>
      <trkpt lat="49.1808" lon="-0.01088">
        <ele>34</ele>
        <time>2024-03-03T07:47:23Z</time>
      </trkpt>
      <trkpt lat="49.1808" lon="-0.01079">
        <ele>34</ele>
        <time>2024-03-03T07:47:24Z</time>
      </trkpt>
      <trkpt lat="49.1808" lon="-0.01068">
        <ele>33.9</ele>
        <time>2024-03-03T07:47:25Z</time>
      </trkpt>
      <trkpt lat="49.1808" lon="-0.01058">
        <ele>33.9</ele>
        <time>2024-03-03T07:47:26Z</time>
      </trkpt>
      <trkpt lat="49.1808" lon="-0.01048">
        <ele>33.9</ele>
        <time>2024-03-03T07:47:27Z</time>
      </trkpt>
      <trkpt lat="49.18079" lon="-0.01038">
        <ele>33.9</ele>
        <time>2024-03-03T07:47:28Z</time>
      </trkpt>
      <trkpt lat="49.18078" lon="-0.01029">
        <ele>33.9</ele>
        <time>2024-03-03T07:47:29Z</time>
      </trkpt>
      <trkpt lat="49.18077" lon="-0.01019">
        <ele>33.9</ele>
        <time>2024-03-03T07:47:30Z</time>
      </trkpt>
      <trkpt lat="49.18077" lon="-0.01009">
        <ele>34</ele>
        <time>2024-03-03T07:47:31Z</time>
      </trkpt>
      <trkpt lat="49.18076" lon="-0.00999">
        <ele>34.1</ele>
        <time>2024-03-03T07:47:32Z</time>
      </trkpt>
      <trkpt lat="49.18075" lon="-0.00989">
        <ele>34.2</ele>
        <time>2024-03-03T07:47:33Z</time>
      </trkpt>
      <trkpt lat="49.18075" lon="-0.00978">
        <ele>34.4</ele>
        <time>2024-03-03T07:47:34Z</time>
      </trkpt>
      <trkpt lat="49.18075" lon="-0.00967">
        <ele>34.5</ele>
        <time>2024-03-03T07:47:35Z</time>
      </trkpt>
      <trkpt lat="49.18076" lon="-0.00956">
        <ele>34.7</ele>
        <time>2024-03-03T07:47:36Z</time>
      </trkpt>
      <trkpt lat="49.18076" lon="-0.00945">
        <ele>34.9</ele>
        <time>2024-03-03T07:47:37Z</time>
      </trkpt>
      <trkpt lat="49.18077" lon="-0.00935">
        <ele>35.2</ele>
        <time>2024-03-03T07:47:38Z</time>
      </trkpt>
      <trkpt lat="49.18078" lon="-0.00925">
        <ele>35.3</ele>
        <time>2024-03-03T07:47:39Z</time>
      </trkpt>
      <trkpt lat="49.18079" lon="-0.00915">
        <ele>35.5</ele>
        <time>2024-03-03T07:47:40Z</time>
      </trkpt>
      <trkpt lat="49.18081" lon="-0.00905">
        <ele>35.7</ele>
        <time>2024-03-03T07:47:41Z</time>
      </trkpt>
      <trkpt lat="49.18083" lon="-0.00896">
        <ele>35.9</ele>
        <time>2024-03-03T07:47:42Z</time>
      </trkpt>
      <trkpt lat="49.18084" lon="-0.00886">
        <ele>36.1</ele>
        <time>2024-03-03T07:47:43Z</time>
      </trkpt>
      <trkpt lat="49.18085" lon="-0.00876">
        <ele>36.3</ele>
        <time>2024-03-03T07:47:44Z</time>
      </trkpt>
      <trkpt lat="49.18087" lon="-0.00866">
        <ele>36.5</ele>
        <time>2024-03-03T07:47:45Z</time>
      </trkpt>
      <trkpt lat="49.18088" lon="-0.00857">
        <ele>36.6</ele>
        <time>2024-03-03T07:47:46Z</time>
      </trkpt>
      <trkpt lat="49.18089" lon="-0.00848">
        <ele>36.7</ele>
        <time>2024-03-03T07:47:47Z</time>
      </trkpt>
      <trkpt lat="49.18091" lon="-0.00838">
        <ele>36.8</ele>
        <time>2024-03-03T07:47:48Z</time>
      </trkpt>
      <trkpt lat="49.18092" lon="-0.00828">
        <ele>36.9</ele>
        <time>2024-03-03T07:47:49Z</time>
      </trkpt>
      <trkpt lat="49.18092" lon="-0.00817">
        <ele>37</ele>
        <time>2024-03-03T07:47:50Z</time>
      </trkpt>
      <trkpt lat="49.18094" lon="-0.00806">
        <ele>37.1</ele>
        <time>2024-03-03T07:47:51Z</time>
      </trkpt>
      <trkpt lat="49.18095" lon="-0.00796">
        <ele>37.1</ele>
        <time>2024-03-03T07:47:52Z</time>
      </trkpt>
      <trkpt lat="49.18096" lon="-0.00786">
        <ele>37.1</ele>
        <time>2024-03-03T07:47:53Z</time>
      </trkpt>
      <trkpt lat="49.18097" lon="-0.00776">
        <ele>37</ele>
        <time>2024-03-03T07:47:54Z</time>
      </trkpt>
      <trkpt lat="49.18098" lon="-0.00766">
        <ele>37</ele>
        <time>2024-03-03T07:47:55Z</time>
      </trkpt>
      <trkpt lat="49.18098" lon="-0.00755">
        <ele>36.9</ele>
        <time>2024-03-03T07:47:56Z</time>
      </trkpt>
      <trkpt lat="49.18099" lon="-0.00745">
        <ele>36.8</ele>
        <time>2024-03-03T07:47:57Z</time>
      </trkpt>
      <trkpt lat="49.181" lon="-0.00735">
        <ele>36.8</ele>
        <time>2024-03-03T07:47:58Z</time>
      </trkpt>
      <trkpt lat="49.181" lon="-0.00725">
        <ele>36.7</ele>
        <time>2024-03-03T07:47:59Z</time>
      </trkpt>
      <trkpt lat="49.181" lon="-0.00714">
        <ele>36.7</ele>
        <time>2024-03-03T07:48:00Z</time>
      </trkpt>
      <trkpt lat="49.181" lon="-0.00705">
        <ele>36.6</ele>
        <time>2024-03-03T07:48:01Z</time>
      </trkpt>
      <trkpt lat="49.18101" lon="-0.00696">
        <ele>36.5</ele>
        <time>2024-03-03T07:48:02Z</time>
      </trkpt>
      <trkpt lat="49.18101" lon="-0.00686">
        <ele>36.5</ele>
        <time>2024-03-03T07:48:03Z</time>
      </trkpt>
      <trkpt lat="49.18102" lon="-0.00675">
        <ele>36.4</ele>
        <time>2024-03-03T07:48:04Z</time>
      </trkpt>
      <trkpt lat="49.18104" lon="-0.00665">
        <ele>36.3</ele>
        <time>2024-03-03T07:48:05Z</time>
      </trkpt>
      <trkpt lat="49.18105" lon="-0.00654">
        <ele>36.1</ele>
        <time>2024-03-03T07:48:06Z</time>
      </trkpt>
      <trkpt lat="49.18106" lon="-0.00642">
        <ele>36</ele>
        <time>2024-03-03T07:48:07Z</time>
      </trkpt>
      <trkpt lat="49.18108" lon="-0.00631">
        <ele>35.8</ele>
        <time>2024-03-03T07:48:08Z</time>
      </trkpt>
      <trkpt lat="49.18109" lon="-0.0062">
        <ele>35.7</ele>
        <time>2024-03-03T07:48:09Z</time>
      </trkpt>
      <trkpt lat="49.18109" lon="-0.0061">
        <ele>35.6</ele>
        <time>2024-03-03T07:48:10Z</time>
      </trkpt>
      <trkpt lat="49.18109" lon="-0.006">
        <ele>35.5</ele>
        <time>2024-03-03T07:48:11Z</time>
      </trkpt>
      <trkpt lat="49.1811" lon="-0.00589">
        <ele>35.4</ele>
        <time>2024-03-03T07:48:12Z</time>
      </trkpt>
      <trkpt lat="49.1811" lon="-0.00578">
        <ele>35.3</ele>
        <time>2024-03-03T07:48:13Z</time>
      </trkpt>
      <trkpt lat="49.1811" lon="-0.00567">
        <ele>35.2</ele>
        <time>2024-03-03T07:48:14Z</time>
      </trkpt>
      <trkpt lat="49.1811" lon="-0.00557">
        <ele>35</ele>
        <time>2024-03-03T07:48:15Z</time>
      </trkpt>
      <trkpt lat="49.1811" lon="-0.00548">
        <ele>35</ele>
        <time>2024-03-03T07:48:16Z</time>
      </trkpt>
      <trkpt lat="49.1811" lon="-0.00539">
        <ele>34.9</ele>
        <time>2024-03-03T07:48:17Z</time>
      </trkpt>
      <trkpt lat="49.18109" lon="-0.00529">
        <ele>34.8</ele>
        <time>2024-03-03T07:48:18Z</time>
      </trkpt>
      <trkpt lat="49.18107" lon="-0.0052">
        <ele>34.7</ele>
        <time>2024-03-03T07:48:19Z</time>
      </trkpt>
      <trkpt lat="49.18106" lon="-0.00512">
        <ele>34.6</ele>
        <time>2024-03-03T07:48:20Z</time>
      </trkpt>
      <trkpt lat="49.18104" lon="-0.00505">
        <ele>34.6</ele>
        <time>2024-03-03T07:48:21Z</time>
      </trkpt>
      <trkpt lat="49.18103" lon="-0.00497">
        <ele>34.5</ele>
        <time>2024-03-03T07:48:22Z</time>
      </trkpt>
      <trkpt lat="49.18101" lon="-0.00488">
        <ele>34.4</ele>
        <time>2024-03-03T07:48:23Z</time>
      </trkpt>
      <trkpt lat="49.18099" lon="-0.00478">
        <ele>34.3</ele>
        <time>2024-03-03T07:48:24Z</time>
      </trkpt>
      <trkpt lat="49.18097" lon="-0.00469">
        <ele>34.3</ele>
        <time>2024-03-03T07:48:25Z</time>
      </trkpt>
      <trkpt lat="49.18094" lon="-0.00459">
        <ele>34.2</ele>
        <time>2024-03-03T07:48:26Z</time>
      </trkpt>
      <trkpt lat="49.18092" lon="-0.00449">
        <ele>34.2</ele>
        <time>2024-03-03T07:48:27Z</time>
      </trkpt>
      <trkpt lat="49.18089" lon="-0.00439">
        <ele>34.1</ele>
        <time>2024-03-03T07:48:28Z</time>
      </trkpt>
      <trkpt lat="49.18087" lon="-0.00429">
        <ele>34.1</ele>
        <time>2024-03-03T07:48:29Z</time>
      </trkpt>
      <trkpt lat="49.18085" lon="-0.0042">
        <ele>34.1</ele>
        <time>2024-03-03T07:48:30Z</time>
      </trkpt>
      <trkpt lat="49.18082" lon="-0.00411">
        <ele>34.1</ele>
        <time>2024-03-03T07:48:31Z</time>
      </trkpt>
      <trkpt lat="49.1808" lon="-0.00403">
        <ele>34</ele>
        <time>2024-03-03T07:48:32Z</time>
      </trkpt>
      <trkpt lat="49.18079" lon="-0.00395">
        <ele>34</ele>
        <time>2024-03-03T07:48:33Z</time>
      </trkpt>
      <trkpt lat="49.18077" lon="-0.00386">
        <ele>33.9</ele>
        <time>2024-03-03T07:48:34Z</time>
      </trkpt>
      <trkpt lat="49.18076" lon="-0.00376">
        <ele>33.9</ele>
        <time>2024-03-03T07:48:35Z</time>
      </trkpt>
      <trkpt lat="49.18074" lon="-0.00366">
        <ele>33.8</ele>
        <time>2024-03-03T07:48:36Z</time>
      </trkpt>
      <trkpt lat="49.18073" lon="-0.00355">
        <ele>33.7</ele>
        <time>2024-03-03T07:48:37Z</time>
      </trkpt>
      <trkpt lat="49.18071" lon="-0.00345">
        <ele>33.7</ele>
        <time>2024-03-03T07:48:38Z</time>
      </trkpt>
      <trkpt lat="49.18069" lon="-0.00336">
        <ele>33.6</ele>
        <time>2024-03-03T07:48:39Z</time>
      </trkpt>
      <trkpt lat="49.18068" lon="-0.00326">
        <ele>33.6</ele>
        <time>2024-03-03T07:48:40Z</time>
      </trkpt>
      <trkpt lat="49.18067" lon="-0.00316">
        <ele>33.5</ele>
        <time>2024-03-03T07:48:41Z</time>
      </trkpt>
      <trkpt lat="49.18066" lon="-0.00304">
        <ele>33.5</ele>
        <time>2024-03-03T07:48:42Z</time>
      </trkpt>
      <trkpt lat="49.18063" lon="-0.00292">
        <ele>33.4</ele>
        <time>2024-03-03T07:48:43Z</time>
      </trkpt>
      <trkpt lat="49.18061" lon="-0.0028">
        <ele>33.3</ele>
        <time>2024-03-03T07:48:44Z</time>
      </trkpt>
      <trkpt lat="49.18058" lon="-0.00269">
        <ele>33.3</ele>
        <time>2024-03-03T07:48:45Z</time>
      </trkpt>
      <trkpt lat="49.18056" lon="-0.00258">
        <ele>33.2</ele>
        <time>2024-03-03T07:48:46Z</time>
      </trkpt>
      <trkpt lat="49.18054" lon="-0.00246">
        <ele>33.2</ele>
        <time>2024-03-03T07:48:47Z</time>
      </trkpt>
      <trkpt lat="49.18051" lon="-0.00233">
        <ele>33.2</ele>
        <time>2024-03-03T07:48:48Z</time>
      </trkpt>
      <trkpt lat="49.18048" lon="-0.00222">
        <ele>33.2</ele>
        <time>2024-03-03T07:48:49Z</time>
      </trkpt>
      <trkpt lat="49.18045" lon="-0.00211">
        <ele>33.2</ele>
        <time>2024-03-03T07:48:50Z</time>
      </trkpt>
      <trkpt lat="49.18042" lon="-0.002">
        <ele>33.1</ele>
        <time>2024-03-03T07:48:51Z</time>
      </trkpt>
      <trkpt lat="49.18039" lon="-0.0019">
        <ele>33.1</ele>
        <time>2024-03-03T07:48:52Z</time>
      </trkpt>
      <trkpt lat="49.18036" lon="-0.00178">
        <ele>33</ele>
        <time>2024-03-03T07:48:53Z</time>
      </trkpt>
      <trkpt lat="49.18033" lon="-0.00167">
        <ele>32.9</ele>
        <time>2024-03-03T07:48:54Z</time>
      </trkpt>
      <trkpt lat="49.18029" lon="-0.00156">
        <ele>32.8</ele>
        <time>2024-03-03T07:48:55Z</time>
      </trkpt>
      <trkpt lat="49.18026" lon="-0.00145">
        <ele>32.7</ele>
        <time>2024-03-03T07:48:56Z</time>
      </trkpt>
      <trkpt lat="49.18023" lon="-0.00133">
        <ele>32.7</ele>
        <time>2024-03-03T07:48:57Z</time>
      </trkpt>
      <trkpt lat="49.18019" lon="-0.00123">
        <ele>32.7</ele>
        <time>2024-03-03T07:48:58Z</time>
      </trkpt>
      <trkpt lat="49.18016" lon="-0.00112">
        <ele>32.7</ele>
        <time>2024-03-03T07:48:59Z</time>
      </trkpt>
      <trkpt lat="49.18013" lon="-0.00101">
        <ele>32.7</ele>
        <time>2024-03-03T07:49:00Z</time>
      </trkpt>
      <trkpt lat="49.18011" lon="-0.0009">
        <ele>32.7</ele>
        <time>2024-03-03T07:49:01Z</time>
      </trkpt>
      <trkpt lat="49.18008" lon="-0.00079">
        <ele>32.7</ele>
        <time>2024-03-03T07:49:02Z</time>
      </trkpt>
      <trkpt lat="49.18005" lon="-0.00068">
        <ele>32.7</ele>
        <time>2024-03-03T07:49:03Z</time>
      </trkpt>
      <trkpt lat="49.18003" lon="-0.00058">
        <ele>32.7</ele>
        <time>2024-03-03T07:49:04Z</time>
      </trkpt>
      <trkpt lat="49.18001" lon="-0.00047">
        <ele>32.7</ele>
        <time>2024-03-03T07:49:05Z</time>
      </trkpt>
      <trkpt lat="49.18" lon="-0.00036">
        <ele>32.7</ele>
        <time>2024-03-03T07:49:06Z</time>
      </trkpt>
      <trkpt lat="49.17998" lon="-0.00024">
        <ele>32.7</ele>
        <time>2024-03-03T07:49:07Z</time>
      </trkpt>
      <trkpt lat="49.17998" lon="-0.00013">
        <ele>32.8</ele>
        <time>2024-03-03T07:49:08Z</time>
      </trkpt>
      <trkpt lat="49.17997" lon="-2.0E-5">
        <ele>32.8</ele>
        <time>2024-03-03T07:49:09Z</time>
      </trkpt>
      <trkpt lat="49.17997" lon="9.0E-5">
        <ele>32.8</ele>
        <time>2024-03-03T07:49:10Z</time>
      </trkpt>
      <trkpt lat="49.17997" lon="0.0002">
        <ele>32.8</ele>
        <time>2024-03-03T07:49:11Z</time>
      </trkpt>
      <trkpt lat="49.17997" lon="0.0003">
        <ele>32.8</ele>
        <time>2024-03-03T07:49:12Z</time>
      </trkpt>
      <trkpt lat="49.17997" lon="0.0004">
        <ele>32.8</ele>
        <time>2024-03-03T07:49:13Z</time>
      </trkpt>
      <trkpt lat="49.17997" lon="0.00051">
        <ele>32.8</ele>
        <time>2024-03-03T07:49:14Z</time>
      </trkpt>
      <trkpt lat="49.17997" lon="0.00061">
        <ele>32.8</ele>
        <time>2024-03-03T07:49:15Z</time>
      </trkpt>
      <trkpt lat="49.17997" lon="0.00071">
        <ele>32.8</ele>
        <time>2024-03-03T07:49:16Z</time>
      </trkpt>
      <trkpt lat="49.17998" lon="0.00082">
        <ele>32.7</ele>
        <time>2024-03-03T07:49:17Z</time>
      </trkpt>
      <trkpt lat="49.17999" lon="0.00092">
        <ele>32.7</ele>
        <time>2024-03-03T07:49:18Z</time>
      </trkpt>
      <trkpt lat="49.18" lon="0.00101">
        <ele>32.7</ele>
        <time>2024-03-03T07:49:19Z</time>
      </trkpt>
      <trkpt lat="49.18" lon="0.00111">
        <ele>32.7</ele>
        <time>2024-03-03T07:49:20Z</time>
      </trkpt>
      <trkpt lat="49.18001" lon="0.0012">
        <ele>32.7</ele>
        <time>2024-03-03T07:49:21Z</time>
      </trkpt>
      <trkpt lat="49.18002" lon="0.0013">
        <ele>32.7</ele>
        <time>2024-03-03T07:49:22Z</time>
      </trkpt>
      <trkpt lat="49.18003" lon="0.0014">
        <ele>32.7</ele>
        <time>2024-03-03T07:49:23Z</time>
      </trkpt>
      <trkpt lat="49.18004" lon="0.0015">
        <ele>32.6</ele>
        <time>2024-03-03T07:49:24Z</time>
      </trkpt>
      <trkpt lat="49.18005" lon="0.00158">
        <ele>32.6</ele>
        <time>2024-03-03T07:49:25Z</time>
      </trkpt>
      <trkpt lat="49.18007" lon="0.00167">
        <ele>32.6</ele>
        <time>2024-03-03T07:49:26Z</time>
      </trkpt>
      <trkpt lat="49.18009" lon="0.00176">
        <ele>32.5</ele>
        <time>2024-03-03T07:49:27Z</time>
      </trkpt>
      <trkpt lat="49.18011" lon="0.00186">
        <ele>32.5</ele>
        <time>2024-03-03T07:49:28Z</time>
      </trkpt>
      <trkpt lat="49.18013" lon="0.00195">
        <ele>32.5</ele>
        <time>2024-03-03T07:49:29Z</time>
      </trkpt>
      <trkpt lat="49.18015" lon="0.00204">
        <ele>32.4</ele>
        <time>2024-03-03T07:49:30Z</time>
      </trkpt>
      <trkpt lat="49.18017" lon="0.00215">
        <ele>32.4</ele>
        <time>2024-03-03T07:49:31Z</time>
      </trkpt>
      <trkpt lat="49.1802" lon="0.00226">
        <ele>32.3</ele>
        <time>2024-03-03T07:49:32Z</time>
      </trkpt>
      <trkpt lat="49.18022" lon="0.00238">
        <ele>32.2</ele>
        <time>2024-03-03T07:49:33Z</time>
      </trkpt>
      <trkpt lat="49.18024" lon="0.00249">
        <ele>32</ele>
        <time>2024-03-03T07:49:34Z</time>
      </trkpt>
      <trkpt lat="49.18027" lon="0.0026">
        <ele>31.9</ele>
        <time>2024-03-03T07:49:35Z</time>
      </trkpt>
      <trkpt lat="49.18028" lon="0.0027">
        <ele>31.8</ele>
        <time>2024-03-03T07:49:36Z</time>
      </trkpt>
      <trkpt lat="49.1803" lon="0.00281">
        <ele>31.7</ele>
        <time>2024-03-03T07:49:37Z</time>
      </trkpt>
      <trkpt lat="49.18032" lon="0.00291">
        <ele>31.5</ele>
        <time>2024-03-03T07:49:38Z</time>
      </trkpt>
      <trkpt lat="49.18033" lon="0.00303">
        <ele>31.4</ele>
        <time>2024-03-03T07:49:39Z</time>
      </trkpt>
      <trkpt lat="49.18036" lon="0.00314">
        <ele>31.3</ele>
        <time>2024-03-03T07:49:40Z</time>
      </trkpt>
      <trkpt lat="49.18038" lon="0.00324">
        <ele>31.3</ele>
        <time>2024-03-03T07:49:41Z</time>
      </trkpt>
      <trkpt lat="49.1804" lon="0.00335">
        <ele>31.3</ele>
        <time>2024-03-03T07:49:42Z</time>
      </trkpt>
      <trkpt lat="49.18043" lon="0.00345">
        <ele>31.3</ele>
        <time>2024-03-03T07:49:43Z</time>
      </trkpt>
      <trkpt lat="49.18045" lon="0.00356">
        <ele>31.3</ele>
        <time>2024-03-03T07:49:44Z</time>
      </trkpt>
      <trkpt lat="49.18047" lon="0.00367">
        <ele>31.3</ele>
        <time>2024-03-03T07:49:45Z</time>
      </trkpt>
      <trkpt lat="49.1805" lon="0.00377">
        <ele>31.3</ele>
        <time>2024-03-03T07:49:46Z</time>
      </trkpt>
      <trkpt lat="49.18052" lon="0.00386">
        <ele>31.3</ele>
        <time>2024-03-03T07:49:47Z</time>
      </trkpt>
      <trkpt lat="49.18054" lon="0.00397">
        <ele>31.3</ele>
        <time>2024-03-03T07:49:48Z</time>
      </trkpt>
      <trkpt lat="49.18057" lon="0.00407">
        <ele>31.4</ele>
        <time>2024-03-03T07:49:49Z</time>
      </trkpt>
      <trkpt lat="49.18059" lon="0.00416">
        <ele>31.4</ele>
        <time>2024-03-03T07:49:50Z</time>
      </trkpt>
      <trkpt lat="49.18062" lon="0.00427">
        <ele>31.5</ele>
        <time>2024-03-03T07:49:51Z</time>
      </trkpt>
      <trkpt lat="49.18065" lon="0.00437">
        <ele>31.5</ele>
        <time>2024-03-03T07:49:52Z</time>
      </trkpt>
      <trkpt lat="49.18067" lon="0.00446">
        <ele>31.6</ele>
        <time>2024-03-03T07:49:53Z</time>
      </trkpt>
      <trkpt lat="49.18069" lon="0.00455">
        <ele>31.6</ele>
        <time>2024-03-03T07:49:54Z</time>
      </trkpt>
      <trkpt lat="49.1807" lon="0.00463">
        <ele>31.7</ele>
        <time>2024-03-03T07:49:55Z</time>
      </trkpt>
      <trkpt lat="49.18072" lon="0.0047">
        <ele>31.8</ele>
        <time>2024-03-03T07:49:56Z</time>
      </trkpt>
      <trkpt lat="49.18073" lon="0.00479">
        <ele>31.8</ele>
        <time>2024-03-03T07:49:57Z</time>
      </trkpt>
      <trkpt lat="49.18074" lon="0.00487">
        <ele>31.8</ele>
        <time>2024-03-03T07:49:58Z</time>
      </trkpt>
      <trkpt lat="49.18075" lon="0.00495">
        <ele>31.8</ele>
        <time>2024-03-03T07:49:59Z</time>
      </trkpt>
      <trkpt lat="49.18076" lon="0.00504">
        <ele>31.8</ele>
        <time>2024-03-03T07:50:00Z</time>
      </trkpt>
      <trkpt lat="49.18078" lon="0.00513">
        <ele>31.8</ele>
        <time>2024-03-03T07:50:01Z</time>
      </trkpt>
      <trkpt lat="49.1808" lon="0.00523">
        <ele>31.9</ele>
        <time>2024-03-03T07:50:02Z</time>
      </trkpt>
      <trkpt lat="49.18082" lon="0.00533">
        <ele>31.9</ele>
        <time>2024-03-03T07:50:03Z</time>
      </trkpt>
      <trkpt lat="49.18083" lon="0.00542">
        <ele>31.9</ele>
        <time>2024-03-03T07:50:04Z</time>
      </trkpt>
      <trkpt lat="49.18085" lon="0.00551">
        <ele>32</ele>
        <time>2024-03-03T07:50:05Z</time>
      </trkpt>
      <trkpt lat="49.18086" lon="0.0056">
        <ele>32</ele>
        <time>2024-03-03T07:50:06Z</time>
      </trkpt>
      <trkpt lat="49.18088" lon="0.0057">
        <ele>32</ele>
        <time>2024-03-03T07:50:07Z</time>
      </trkpt>
      <trkpt lat="49.1809" lon="0.00579">
        <ele>32.1</ele>
        <time>2024-03-03T07:50:08Z</time>
      </trkpt>
      <trkpt lat="49.18091" lon="0.00588">
        <ele>32.1</ele>
        <time>2024-03-03T07:50:09Z</time>
      </trkpt>
      <trkpt lat="49.18093" lon="0.00597">
        <ele>32.2</ele>
        <time>2024-03-03T07:50:10Z</time>
      </trkpt>
      <trkpt lat="49.18094" lon="0.00606">
        <ele>32.2</ele>
        <time>2024-03-03T07:50:11Z</time>
      </trkpt>
      <trkpt lat="49.18096" lon="0.00616">
        <ele>32.2</ele>
        <time>2024-03-03T07:50:12Z</time>
      </trkpt>
      <trkpt lat="49.18097" lon="0.00626">
        <ele>32.2</ele>
        <time>2024-03-03T07:50:13Z</time>
      </trkpt>
      <trkpt lat="49.18098" lon="0.00635">
        <ele>32.2</ele>
        <time>2024-03-03T07:50:14Z</time>
      </trkpt>
      <trkpt lat="49.181" lon="0.00645">
        <ele>32.1</ele>
        <time>2024-03-03T07:50:15Z</time>
      </trkpt>
      <trkpt lat="49.181" lon="0.00654">
        <ele>32.1</ele>
        <time>2024-03-03T07:50:16Z</time>
      </trkpt>
      <trkpt lat="49.18101" lon="0.00662">
        <ele>32.1</ele>
        <time>2024-03-03T07:50:17Z</time>
      </trkpt>
      <trkpt lat="49.18101" lon="0.00671">
        <ele>32.1</ele>
        <time>2024-03-03T07:50:18Z</time>
      </trkpt>
      <trkpt lat="49.18101" lon="0.00679">
        <ele>32.1</ele>
        <time>2024-03-03T07:50:19Z</time>
      </trkpt>
      <trkpt lat="49.181" lon="0.00688">
        <ele>32.2</ele>
        <time>2024-03-03T07:50:20Z</time>
      </trkpt>
      <trkpt lat="49.181" lon="0.00697">
        <ele>32.2</ele>
        <time>2024-03-03T07:50:21Z</time>
      </trkpt>
      <trkpt lat="49.18099" lon="0.00707">
        <ele>32.2</ele>
        <time>2024-03-03T07:50:22Z</time>
      </trkpt>
      <trkpt lat="49.18098" lon="0.00717">
        <ele>32.2</ele>
        <time>2024-03-03T07:50:23Z</time>
      </trkpt>
      <trkpt lat="49.18097" lon="0.00728">
        <ele>32.2</ele>
        <time>2024-03-03T07:50:24Z</time>
      </trkpt>
      <trkpt lat="49.18096" lon="0.00737">
        <ele>32.3</ele>
        <time>2024-03-03T07:50:25Z</time>
      </trkpt>
      <trkpt lat="49.18094" lon="0.00746">
        <ele>32.3</ele>
        <time>2024-03-03T07:50:26Z</time>
      </trkpt>
      <trkpt lat="49.18093" lon="0.00755">
        <ele>32.4</ele>
        <time>2024-03-03T07:50:27Z</time>
      </trkpt>
      <trkpt lat="49.18091" lon="0.00764">
        <ele>32.4</ele>
        <time>2024-03-03T07:50:28Z</time>
      </trkpt>
      <trkpt lat="49.18089" lon="0.00772">
        <ele>32.5</ele>
        <time>2024-03-03T07:50:29Z</time>
      </trkpt>
      <trkpt lat="49.18086" lon="0.0078">
        <ele>32.6</ele>
        <time>2024-03-03T07:50:30Z</time>
      </trkpt>
      <trkpt lat="49.18084" lon="0.00788">
        <ele>32.7</ele>
        <time>2024-03-03T07:50:31Z</time>
      </trkpt>
      <trkpt lat="49.18081" lon="0.00796">
        <ele>32.8</ele>
        <time>2024-03-03T07:50:32Z</time>
      </trkpt>
      <trkpt lat="49.18078" lon="0.00802">
        <ele>32.9</ele>
        <time>2024-03-03T07:50:33Z</time>
      </trkpt>
      <trkpt lat="49.18076" lon="0.00809">
        <ele>33</ele>
        <time>2024-03-03T07:50:34Z</time>
      </trkpt>
      <trkpt lat="49.18074" lon="0.00817">
        <ele>33.2</ele>
        <time>2024-03-03T07:50:35Z</time>
      </trkpt>
      <trkpt lat="49.18072" lon="0.00824">
        <ele>33.2</ele>
        <time>2024-03-03T07:50:36Z</time>
      </trkpt>
      <trkpt lat="49.1807" lon="0.00832">
        <ele>33.3</ele>
        <time>2024-03-03T07:50:37Z</time>
      </trkpt>
      <trkpt lat="49.18068" lon="0.0084">
        <ele>33.3</ele>
        <time>2024-03-03T07:50:38Z</time>
      </trkpt>
      <trkpt lat="49.18066" lon="0.00849">
        <ele>33.4</ele>
        <time>2024-03-03T07:50:39Z</time>
      </trkpt>
      <trkpt lat="49.18065" lon="0.00859">
        <ele>33.4</ele>
        <time>2024-03-03T07:50:40Z</time>
      </trkpt>
      <trkpt lat="49.18064" lon="0.00869">
        <ele>33.5</ele>
        <time>2024-03-03T07:50:41Z</time>
      </trkpt>
      <trkpt lat="49.18064" lon="0.0088">
        <ele>33.5</ele>
        <time>2024-03-03T07:50:42Z</time>
      </trkpt>
      <trkpt lat="49.18065" lon="0.00893">
        <ele>33.6</ele>
        <time>2024-03-03T07:50:43Z</time>
      </trkpt>
      <trkpt lat="49.18066" lon="0.00905">
        <ele>33.7</ele>
        <time>2024-03-03T07:50:44Z</time>
      </trkpt>
      <trkpt lat="49.18068" lon="0.00916">
        <ele>33.7</ele>
        <time>2024-03-03T07:50:45Z</time>
      </trkpt>
      <trkpt lat="49.18069" lon="0.00926">
        <ele>33.7</ele>
        <time>2024-03-03T07:50:46Z</time>
      </trkpt>
      <trkpt lat="49.18071" lon="0.00936">
        <ele>33.8</ele>
        <time>2024-03-03T07:50:47Z</time>
      </trkpt>
      <trkpt lat="49.18073" lon="0.00946">
        <ele>33.8</ele>
        <time>2024-03-03T07:50:48Z</time>
      </trkpt>
      <trkpt lat="49.18075" lon="0.00956">
        <ele>33.9</ele>
        <time>2024-03-03T07:50:49Z</time>
      </trkpt>
      <trkpt lat="49.18077" lon="0.00966">
        <ele>33.9</ele>
        <time>2024-03-03T07:50:50Z</time>
      </trkpt>
      <trkpt lat="49.18077" lon="0.00975">
        <ele>34</ele>
        <time>2024-03-03T07:50:51Z</time>
      </trkpt>
      <trkpt lat="49.18078" lon="0.00985">
        <ele>34</ele>
        <time>2024-03-03T07:50:52Z</time>
      </trkpt>
      <trkpt lat="49.18079" lon="0.00993">
        <ele>34</ele>
        <time>2024-03-03T07:50:53Z</time>
      </trkpt>
      <trkpt lat="49.1808" lon="0.01002">
        <ele>34.1</ele>
        <time>2024-03-03T07:50:54Z</time>
      </trkpt>
      <trkpt lat="49.18081" lon="0.01012">
        <ele>34.1</ele>
        <time>2024-03-03T07:50:55Z</time>
      </trkpt>
      <trkpt lat="49.18081" lon="0.01023">
        <ele>34.1</ele>
        <time>2024-03-03T07:50:56Z</time>
      </trkpt>
      <trkpt lat="49.18081" lon="0.01033">
        <ele>34.2</ele>
        <time>2024-03-03T07:50:57Z</time>
      </trkpt>
      <trkpt lat="49.18081" lon="0.01044">
        <ele>34.2</ele>
        <time>2024-03-03T07:50:58Z</time>
      </trkpt>
      <trkpt lat="49.1808" lon="0.01054">
        <ele>34.3</ele>
        <time>2024-03-03T07:50:59Z</time>
      </trkpt>
      <trkpt lat="49.1808" lon="0.01064">
        <ele>34.3</ele>
        <time>2024-03-03T07:51:00Z</time>
      </trkpt>
      <trkpt lat="49.1808" lon="0.01073">
        <ele>34.3</ele>
        <time>2024-03-03T07:51:01Z</time>
      </trkpt>
      <trkpt lat="49.18079" lon="0.01082">
        <ele>34.4</ele>
        <time>2024-03-03T07:51:02Z</time>
      </trkpt>
      <trkpt lat="49.18079" lon="0.01092">
        <ele>34.4</ele>
        <time>2024-03-03T07:51:03Z</time>
      </trkpt>
      <trkpt lat="49.18079" lon="0.01102">
        <ele>34.5</ele>
        <time>2024-03-03T07:51:04Z</time>
      </trkpt>
      <trkpt lat="49.18079" lon="0.01112">
        <ele>34.5</ele>
        <time>2024-03-03T07:51:05Z</time>
      </trkpt>
      <trkpt lat="49.18079" lon="0.01122">
        <ele>34.6</ele>
        <time>2024-03-03T07:51:06Z</time>
      </trkpt>
      <trkpt lat="49.18078" lon="0.01132">
        <ele>34.6</ele>
        <time>2024-03-03T07:51:07Z</time>
      </trkpt>
      <trkpt lat="49.18077" lon="0.01144">
        <ele>34.6</ele>
        <time>2024-03-03T07:51:08Z</time>
      </trkpt>
      <trkpt lat="49.18077" lon="0.01155">
        <ele>34.7</ele>
        <time>2024-03-03T07:51:09Z</time>
      </trkpt>
      <trkpt lat="49.18076" lon="0.01167">
        <ele>34.7</ele>
        <time>2024-03-03T07:51:10Z</time>
      </trkpt>
      <trkpt lat="49.18076" lon="0.01177">
        <ele>34.7</ele>
        <time>2024-03-03T07:51:11Z</time>
      </trkpt>
      <trkpt lat="49.18076" lon="0.01188">
        <ele>34.7</ele>
        <time>2024-03-03T07:51:12Z</time>
      </trkpt>
      <trkpt lat="49.18075" lon="0.01199">
        <ele>34.7</ele>
        <time>2024-03-03T07:51:13Z</time>
      </trkpt>
      <trkpt lat="49.18075" lon="0.01211">
        <ele>34.6</ele>
        <time>2024-03-03T07:51:14Z</time>
      </trkpt>
      <trkpt lat="49.18075" lon="0.01222">
        <ele>34.5</ele>
        <time>2024-03-03T07:51:15Z</time>
      </trkpt>
      <trkpt lat="49.18075" lon="0.01234">
        <ele>34.5</ele>
        <time>2024-03-03T07:51:16Z</time>
      </trkpt>
      <trkpt lat="49.18075" lon="0.01246">
        <ele>34.4</ele>
        <time>2024-03-03T07:51:17Z</time>
      </trkpt>
      <trkpt lat="49.18075" lon="0.01258">
        <ele>34.3</ele>
        <time>2024-03-03T07:51:18Z</time>
      </trkpt>
      <trkpt lat="49.18075" lon="0.01271">
        <ele>34.2</ele>
        <time>2024-03-03T07:51:19Z</time>
      </trkpt>
      <trkpt lat="49.18077" lon="0.01282">
        <ele>34.1</ele>
        <time>2024-03-03T07:51:20Z</time>
      </trkpt>
      <trkpt lat="49.18078" lon="0.01293">
        <ele>34</ele>
        <time>2024-03-03T07:51:21Z</time>
      </trkpt>
      <trkpt lat="49.18079" lon="0.01304">
        <ele>34</ele>
        <time>2024-03-03T07:51:22Z</time>
      </trkpt>
      <trkpt lat="49.18081" lon="0.01315">
        <ele>33.9</ele>
        <time>2024-03-03T07:51:23Z</time>
      </trkpt>
      <trkpt lat="49.18082" lon="0.01326">
        <ele>33.8</ele>
        <time>2024-03-03T07:51:24Z</time>
      </trkpt>
      <trkpt lat="49.18083" lon="0.01337">
        <ele>33.8</ele>
        <time>2024-03-03T07:51:25Z</time>
      </trkpt>
      <trkpt lat="49.18085" lon="0.01349">
        <ele>33.7</ele>
        <time>2024-03-03T07:51:26Z</time>
      </trkpt>
      <trkpt lat="49.18088" lon="0.01359">
        <ele>33.6</ele>
        <time>2024-03-03T07:51:27Z</time>
      </trkpt>
      <trkpt lat="49.1809" lon="0.01369">
        <ele>33.5</ele>
        <time>2024-03-03T07:51:28Z</time>
      </trkpt>
      <trkpt lat="49.18092" lon="0.01378">
        <ele>33.4</ele>
        <time>2024-03-03T07:51:29Z</time>
      </trkpt>
      <trkpt lat="49.18094" lon="0.01387">
        <ele>33.4</ele>
        <time>2024-03-03T07:51:30Z</time>
      </trkpt>
      <trkpt lat="49.18096" lon="0.01396">
        <ele>33.3</ele>
        <time>2024-03-03T07:51:31Z</time>
      </trkpt>
      <trkpt lat="49.18098" lon="0.01405">
        <ele>33.2</ele>
        <time>2024-03-03T07:51:32Z</time>
      </trkpt>
      <trkpt lat="49.181" lon="0.01415">
        <ele>33.1</ele>
        <time>2024-03-03T07:51:33Z</time>
      </trkpt>
      <trkpt lat="49.18103" lon="0.01425">
        <ele>33</ele>
        <time>2024-03-03T07:51:34Z</time>
      </trkpt>
      <trkpt lat="49.18105" lon="0.01434">
        <ele>32.9</ele>
        <time>2024-03-03T07:51:35Z</time>
      </trkpt>
      <trkpt lat="49.18107" lon="0.01444">
        <ele>32.8</ele>
        <time>2024-03-03T07:51:36Z</time>
      </trkpt>
      <trkpt lat="49.1811" lon="0.01454">
        <ele>32.6</ele>
        <time>2024-03-03T07:51:37Z</time>
      </trkpt>
      <trkpt lat="49.18113" lon="0.01464">
        <ele>32.4</ele>
        <time>2024-03-03T07:51:38Z</time>
      </trkpt>
      <trkpt lat="49.18116" lon="0.01474">
        <ele>32.2</ele>
        <time>2024-03-03T07:51:39Z</time>
      </trkpt>
      <trkpt lat="49.18119" lon="0.01484">
        <ele>32.1</ele>
        <time>2024-03-03T07:51:40Z</time>
      </trkpt>
      <trkpt lat="49.18121" lon="0.01495">
        <ele>31.9</ele>
        <time>2024-03-03T07:51:41Z</time>
      </trkpt>
      <trkpt lat="49.18124" lon="0.01508">
        <ele>31.6</ele>
        <time>2024-03-03T07:51:42Z</time>
      </trkpt>
      <trkpt lat="49.18127" lon="0.0152">
        <ele>31.4</ele>
        <time>2024-03-03T07:51:43Z</time>
      </trkpt>
      <trkpt lat="49.18129" lon="0.0153">
        <ele>31.2</ele>
        <time>2024-03-03T07:51:44Z</time>
      </trkpt>
      <trkpt lat="49.18132" lon="0.01541">
        <ele>31</ele>
        <time>2024-03-03T07:51:45Z</time>
      </trkpt>
      <trkpt lat="49.18136" lon="0.01551">
        <ele>30.7</ele>
        <time>2024-03-03T07:51:46Z</time>
      </trkpt>
      <trkpt lat="49.18139" lon="0.01561">
        <ele>30.5</ele>
        <time>2024-03-03T07:51:47Z</time>
      </trkpt>
      <trkpt lat="49.18142" lon="0.01571">
        <ele>30.3</ele>
        <time>2024-03-03T07:51:48Z</time>
      </trkpt>
      <trkpt lat="49.18146" lon="0.01581">
        <ele>30.1</ele>
        <time>2024-03-03T07:51:49Z</time>
      </trkpt>
      <trkpt lat="49.1815" lon="0.0159">
        <ele>29.9</ele>
        <time>2024-03-03T07:51:50Z</time>
      </trkpt>
      <trkpt lat="49.18154" lon="0.016">
        <ele>29.8</ele>
        <time>2024-03-03T07:51:51Z</time>
      </trkpt>
      <trkpt lat="49.1816" lon="0.01609">
        <ele>29.7</ele>
        <time>2024-03-03T07:51:52Z</time>
      </trkpt>
      <trkpt lat="49.18165" lon="0.01618">
        <ele>29.7</ele>
        <time>2024-03-03T07:51:53Z</time>
      </trkpt>
      <trkpt lat="49.1817" lon="0.01626">
        <ele>29.7</ele>
        <time>2024-03-03T07:51:54Z</time>
      </trkpt>
      <trkpt lat="49.18177" lon="0.01634">
        <ele>29.6</ele>
        <time>2024-03-03T07:51:55Z</time>
      </trkpt>
      <trkpt lat="49.18183" lon="0.01642">
        <ele>29.6</ele>
        <time>2024-03-03T07:51:56Z</time>
      </trkpt>
      <trkpt lat="49.18189" lon="0.01649">
        <ele>29.6</ele>
        <time>2024-03-03T07:51:57Z</time>
      </trkpt>
      <trkpt lat="49.18194" lon="0.01656">
        <ele>29.6</ele>
        <time>2024-03-03T07:51:58Z</time>
      </trkpt>
      <trkpt lat="49.18199" lon="0.01663">
        <ele>29.6</ele>
        <time>2024-03-03T07:51:59Z</time>
      </trkpt>
      <trkpt lat="49.18204" lon="0.01671">
        <ele>29.6</ele>
        <time>2024-03-03T07:52:00Z</time>
      </trkpt>
      <trkpt lat="49.1821" lon="0.01679">
        <ele>29.7</ele>
        <time>2024-03-03T07:52:01Z</time>
      </trkpt>
      <trkpt lat="49.18216" lon="0.01687">
        <ele>29.7</ele>
        <time>2024-03-03T07:52:02Z</time>
      </trkpt>
      <trkpt lat="49.18221" lon="0.01695">
        <ele>29.8</ele>
        <time>2024-03-03T07:52:03Z</time>
      </trkpt>
      <trkpt lat="49.18225" lon="0.01703">
        <ele>29.9</ele>
        <time>2024-03-03T07:52:04Z</time>
      </trkpt>
      <trkpt lat="49.1823" lon="0.01713">
        <ele>30</ele>
        <time>2024-03-03T07:52:05Z</time>
      </trkpt>
      <trkpt lat="49.18233" lon="0.01722">
        <ele>30.1</ele>
        <time>2024-03-03T07:52:06Z</time>
      </trkpt>
      <trkpt lat="49.18236" lon="0.01733">
        <ele>30.2</ele>
        <time>2024-03-03T07:52:07Z</time>
      </trkpt>
      <trkpt lat="49.18239" lon="0.01743">
        <ele>30.4</ele>
        <time>2024-03-03T07:52:08Z</time>
      </trkpt>
      <trkpt lat="49.18241" lon="0.01753">
        <ele>30.5</ele>
        <time>2024-03-03T07:52:09Z</time>
      </trkpt>
      <trkpt lat="49.18242" lon="0.01763">
        <ele>30.6</ele>
        <time>2024-03-03T07:52:10Z</time>
      </trkpt>
      <trkpt lat="49.18243" lon="0.01773">
        <ele>30.6</ele>
        <time>2024-03-03T07:52:11Z</time>
      </trkpt>
      <trkpt lat="49.18244" lon="0.01784">
        <ele>30.7</ele>
        <time>2024-03-03T07:52:12Z</time>
      </trkpt>
      <trkpt lat="49.18245" lon="0.01794">
        <ele>30.7</ele>
        <time>2024-03-03T07:52:13Z</time>
      </trkpt>
      <trkpt lat="49.18246" lon="0.01805">
        <ele>30.8</ele>
        <time>2024-03-03T07:52:14Z</time>
      </trkpt>
      <trkpt lat="49.18247" lon="0.01814">
        <ele>30.9</ele>
        <time>2024-03-03T07:52:15Z</time>
      </trkpt>
      <trkpt lat="49.18248" lon="0.01825">
        <ele>30.9</ele>
        <time>2024-03-03T07:52:16Z</time>
      </trkpt>
      <trkpt lat="49.18249" lon="0.01835">
        <ele>31</ele>
        <time>2024-03-03T07:52:17Z</time>
      </trkpt>
      <trkpt lat="49.18249" lon="0.01844">
        <ele>31.1</ele>
        <time>2024-03-03T07:52:18Z</time>
      </trkpt>
      <trkpt lat="49.1825" lon="0.01854">
        <ele>31.1</ele>
        <time>2024-03-03T07:52:19Z</time>
      </trkpt>
      <trkpt lat="49.18251" lon="0.01864">
        <ele>31.1</ele>
        <time>2024-03-03T07:52:20Z</time>
      </trkpt>
      <trkpt lat="49.18252" lon="0.01874">
        <ele>31.2</ele>
        <time>2024-03-03T07:52:21Z</time>
      </trkpt>
      <trkpt lat="49.18252" lon="0.01883">
        <ele>31.2</ele>
        <time>2024-03-03T07:52:22Z</time>
      </trkpt>
      <trkpt lat="49.18253" lon="0.01893">
        <ele>31.3</ele>
        <time>2024-03-03T07:52:23Z</time>
      </trkpt>
      <trkpt lat="49.18253" lon="0.01904">
        <ele>31.4</ele>
        <time>2024-03-03T07:52:24Z</time>
      </trkpt>
      <trkpt lat="49.18252" lon="0.01914">
        <ele>31.5</ele>
        <time>2024-03-03T07:52:25Z</time>
      </trkpt>
      <trkpt lat="49.1825" lon="0.01922">
        <ele>31.6</ele>
        <time>2024-03-03T07:52:26Z</time>
      </trkpt>
      <trkpt lat="49.18247" lon="0.01931">
        <ele>31.6</ele>
        <time>2024-03-03T07:52:27Z</time>
      </trkpt>
      <trkpt lat="49.18244" lon="0.01939">
        <ele>31.7</ele>
        <time>2024-03-03T07:52:28Z</time>
      </trkpt>
      <trkpt lat="49.1824" lon="0.01946">
        <ele>31.8</ele>
        <time>2024-03-03T07:52:29Z</time>
      </trkpt>
      <trkpt lat="49.18237" lon="0.01953">
        <ele>31.9</ele>
        <time>2024-03-03T07:52:30Z</time>
      </trkpt>
      <trkpt lat="49.18233" lon="0.01959">
        <ele>32</ele>
        <time>2024-03-03T07:52:31Z</time>
      </trkpt>
      <trkpt lat="49.18229" lon="0.01965">
        <ele>32.2</ele>
        <time>2024-03-03T07:52:32Z</time>
      </trkpt>
      <trkpt lat="49.18225" lon="0.01972">
        <ele>32.3</ele>
        <time>2024-03-03T07:52:33Z</time>
      </trkpt>
      <trkpt lat="49.18223" lon="0.01979">
        <ele>32.4</ele>
        <time>2024-03-03T07:52:34Z</time>
      </trkpt>
      <trkpt lat="49.18221" lon="0.01987">
        <ele>32.6</ele>
        <time>2024-03-03T07:52:35Z</time>
      </trkpt>
      <trkpt lat="49.1822" lon="0.01996">
        <ele>32.7</ele>
        <time>2024-03-03T07:52:36Z</time>
      </trkpt>
      <trkpt lat="49.18219" lon="0.02005">
        <ele>32.8</ele>
        <time>2024-03-03T07:52:37Z</time>
      </trkpt>
      <trkpt lat="49.1822" lon="0.02014">
        <ele>32.9</ele>
        <time>2024-03-03T07:52:38Z</time>
      </trkpt>
      <trkpt lat="49.18221" lon="0.02022">
        <ele>33</ele>
        <time>2024-03-03T07:52:39Z</time>
      </trkpt>
      <trkpt lat="49.18223" lon="0.0203">
        <ele>33.1</ele>
        <time>2024-03-03T07:52:40Z</time>
      </trkpt>
      <trkpt lat="49.18225" lon="0.02038">
        <ele>33.2</ele>
        <time>2024-03-03T07:52:41Z</time>
      </trkpt>
      <trkpt lat="49.18227" lon="0.02047">
        <ele>33.3</ele>
        <time>2024-03-03T07:52:42Z</time>
      </trkpt>
      <trkpt lat="49.18229" lon="0.02056">
        <ele>33.4</ele>
        <time>2024-03-03T07:52:43Z</time>
      </trkpt>
      <trkpt lat="49.18231" lon="0.02065">
        <ele>33.4</ele>
        <time>2024-03-03T07:52:44Z</time>
      </trkpt>
      <trkpt lat="49.18232" lon="0.02073">
        <ele>33.5</ele>
        <time>2024-03-03T07:52:45Z</time>
      </trkpt>
      <trkpt lat="49.18233" lon="0.02082">
        <ele>33.6</ele>
        <time>2024-03-03T07:52:46Z</time>
      </trkpt>
      <trkpt lat="49.18235" lon="0.02092">
        <ele>33.6</ele>
        <time>2024-03-03T07:52:47Z</time>
      </trkpt>
      <trkpt lat="49.18236" lon="0.02101">
        <ele>33.7</ele>
        <time>2024-03-03T07:52:48Z</time>
      </trkpt>
      <trkpt lat="49.18237" lon="0.02111">
        <ele>33.7</ele>
        <time>2024-03-03T07:52:49Z</time>
      </trkpt>
      <trkpt lat="49.18238" lon="0.02119">
        <ele>33.8</ele>
        <time>2024-03-03T07:52:50Z</time>
      </trkpt>
      <trkpt lat="49.18238" lon="0.02129">
        <ele>33.8</ele>
        <time>2024-03-03T07:52:51Z</time>
      </trkpt>
      <trkpt lat="49.18238" lon="0.02139">
        <ele>33.8</ele>
        <time>2024-03-03T07:52:52Z</time>
      </trkpt>
      <trkpt lat="49.18239" lon="0.0215">
        <ele>33.8</ele>
        <time>2024-03-03T07:52:53Z</time>
      </trkpt>
      <trkpt lat="49.1824" lon="0.02161">
        <ele>33.8</ele>
        <time>2024-03-03T07:52:54Z</time>
      </trkpt>
      <trkpt lat="49.18241" lon="0.02171">
        <ele>33.8</ele>
        <time>2024-03-03T07:52:55Z</time>
      </trkpt>
      <trkpt lat="49.18241" lon="0.02183">
        <ele>33.7</ele>
        <time>2024-03-03T07:52:56Z</time>
      </trkpt>
      <trkpt lat="49.18241" lon="0.02193">
        <ele>33.7</ele>
        <time>2024-03-03T07:52:57Z</time>
      </trkpt>
      <trkpt lat="49.18241" lon="0.02204">
        <ele>33.6</ele>
        <time>2024-03-03T07:52:58Z</time>
      </trkpt>
      <trkpt lat="49.18239" lon="0.02214">
        <ele>33.6</ele>
        <time>2024-03-03T07:52:59Z</time>
      </trkpt>
      <trkpt lat="49.18239" lon="0.02224">
        <ele>33.5</ele>
        <time>2024-03-03T07:53:00Z</time>
      </trkpt>
      <trkpt lat="49.18238" lon="0.02234">
        <ele>33.4</ele>
        <time>2024-03-03T07:53:01Z</time>
      </trkpt>
      <trkpt lat="49.18237" lon="0.02244">
        <ele>33.3</ele>
        <time>2024-03-03T07:53:02Z</time>
      </trkpt>
      <trkpt lat="49.18237" lon="0.02254">
        <ele>33.1</ele>
        <time>2024-03-03T07:53:03Z</time>
      </trkpt>
      <trkpt lat="49.18237" lon="0.02265">
        <ele>33</ele>
        <time>2024-03-03T07:53:04Z</time>
      </trkpt>
      <trkpt lat="49.18239" lon="0.02276">
        <ele>32.8</ele>
        <time>2024-03-03T07:53:05Z</time>
      </trkpt>
      <trkpt lat="49.18241" lon="0.02286">
        <ele>32.7</ele>
        <time>2024-03-03T07:53:06Z</time>
      </trkpt>
      <trkpt lat="49.18243" lon="0.02296">
        <ele>32.5</ele>
        <time>2024-03-03T07:53:07Z</time>
      </trkpt>
      <trkpt lat="49.18247" lon="0.02306">
        <ele>32.2</ele>
        <time>2024-03-03T07:53:08Z</time>
      </trkpt>
      <trkpt lat="49.1825" lon="0.02316">
        <ele>32</ele>
        <time>2024-03-03T07:53:09Z</time>
      </trkpt>
      <trkpt lat="49.18254" lon="0.02326">
        <ele>31.8</ele>
        <time>2024-03-03T07:53:10Z</time>
      </trkpt>
      <trkpt lat="49.18258" lon="0.02335">
        <ele>31.5</ele>
        <time>2024-03-03T07:53:11Z</time>
      </trkpt>
      <trkpt lat="49.18262" lon="0.02345">
        <ele>31.3</ele>
        <time>2024-03-03T07:53:12Z</time>
      </trkpt>
      <trkpt lat="49.18265" lon="0.02356">
        <ele>31</ele>
        <time>2024-03-03T07:53:13Z</time>
      </trkpt>
      <trkpt lat="49.18268" lon="0.02368">
        <ele>30.7</ele>
        <time>2024-03-03T07:53:14Z</time>
      </trkpt>
      <trkpt lat="49.1827" lon="0.02379">
        <ele>30.3</ele>
        <time>2024-03-03T07:53:15Z</time>
      </trkpt>
      <trkpt lat="49.18271" lon="0.0239">
        <ele>30</ele>
        <time>2024-03-03T07:53:16Z</time>
      </trkpt>
      <trkpt lat="49.18273" lon="0.02402">
        <ele>29.7</ele>
        <time>2024-03-03T07:53:17Z</time>
      </trkpt>
      <trkpt lat="49.18274" lon="0.02414">
        <ele>29.3</ele>
        <time>2024-03-03T07:53:18Z</time>
      </trkpt>
      <trkpt lat="49.18275" lon="0.02427">
        <ele>29</ele>
        <time>2024-03-03T07:53:19Z</time>
      </trkpt>
      <trkpt lat="49.18276" lon="0.02439">
        <ele>28.7</ele>
        <time>2024-03-03T07:53:20Z</time>
      </trkpt>
      <trkpt lat="49.18277" lon="0.02451">
        <ele>28.5</ele>
        <time>2024-03-03T07:53:21Z</time>
      </trkpt>
      <trkpt lat="49.18279" lon="0.02464">
        <ele>28.3</ele>
        <time>2024-03-03T07:53:22Z</time>
      </trkpt>
      <trkpt lat="49.1828" lon="0.02476">
        <ele>28.1</ele>
        <time>2024-03-03T07:53:23Z</time>
      </trkpt>
      <trkpt lat="49.18281" lon="0.02489">
        <ele>28</ele>
        <time>2024-03-03T07:53:24Z</time>
      </trkpt>
      <trkpt lat="49.18282" lon="0.02502">
        <ele>27.8</ele>
        <time>2024-03-03T07:53:25Z</time>
      </trkpt>
      <trkpt lat="49.18283" lon="0.02514">
        <ele>27.7</ele>
        <time>2024-03-03T07:53:26Z</time>
      </trkpt>
      <trkpt lat="49.18283" lon="0.02526">
        <ele>27.6</ele>
        <time>2024-03-03T07:53:27Z</time>
      </trkpt>
      <trkpt lat="49.18284" lon="0.02537">
        <ele>27.5</ele>
        <time>2024-03-03T07:53:28Z</time>
      </trkpt>
      <trkpt lat="49.18285" lon="0.02548">
        <ele>27.4</ele>
        <time>2024-03-03T07:53:29Z</time>
      </trkpt>
      <trkpt lat="49.18285" lon="0.02559">
        <ele>27.3</ele>
        <time>2024-03-03T07:53:30Z</time>
      </trkpt>
      <trkpt lat="49.18285" lon="0.02569">
        <ele>27.3</ele>
        <time>2024-03-03T07:53:31Z</time>
      </trkpt>
      <trkpt lat="49.18284" lon="0.0258">
        <ele>27.2</ele>
        <time>2024-03-03T07:53:32Z</time>
      </trkpt>
      <trkpt lat="49.18284" lon="0.0259">
        <ele>27.2</ele>
        <time>2024-03-03T07:53:33Z</time>
      </trkpt>
      <trkpt lat="49.18284" lon="0.02601">
        <ele>27.1</ele>
        <time>2024-03-03T07:53:34Z</time>
      </trkpt>
      <trkpt lat="49.18285" lon="0.02612">
        <ele>27.1</ele>
        <time>2024-03-03T07:53:35Z</time>
      </trkpt>
      <trkpt lat="49.18287" lon="0.02622">
        <ele>27.1</ele>
        <time>2024-03-03T07:53:36Z</time>
      </trkpt>
      <trkpt lat="49.1829" lon="0.02633">
        <ele>27.1</ele>
        <time>2024-03-03T07:53:37Z</time>
      </trkpt>
      <trkpt lat="49.18293" lon="0.02643">
        <ele>27.2</ele>
        <time>2024-03-03T07:53:38Z</time>
      </trkpt>
      <trkpt lat="49.18297" lon="0.02653">
        <ele>27.2</ele>
        <time>2024-03-03T07:53:39Z</time>
      </trkpt>
      <trkpt lat="49.183" lon="0.02662">
        <ele>27.2</ele>
        <time>2024-03-03T07:53:40Z</time>
      </trkpt>
      <trkpt lat="49.18304" lon="0.02671">
        <ele>27.3</ele>
        <time>2024-03-03T07:53:41Z</time>
      </trkpt>
      <trkpt lat="49.18307" lon="0.02679">
        <ele>27.3</ele>
        <time>2024-03-03T07:53:42Z</time>
      </trkpt>
      <trkpt lat="49.18311" lon="0.02687">
        <ele>27.3</ele>
        <time>2024-03-03T07:53:43Z</time>
      </trkpt>
      <trkpt lat="49.18315" lon="0.02695">
        <ele>27.4</ele>
        <time>2024-03-03T07:53:44Z</time>
      </trkpt>
      <trkpt lat="49.18319" lon="0.02702">
        <ele>27.4</ele>
        <time>2024-03-03T07:53:45Z</time>
      </trkpt>
      <trkpt lat="49.18323" lon="0.02709">
        <ele>27.4</ele>
        <time>2024-03-03T07:53:46Z</time>
      </trkpt>
      <trkpt lat="49.18326" lon="0.02716">
        <ele>27.4</ele>
        <time>2024-03-03T07:53:47Z</time>
      </trkpt>
      <trkpt lat="49.18329" lon="0.02723">
        <ele>27.4</ele>
        <time>2024-03-03T07:53:48Z</time>
      </trkpt>
      <trkpt lat="49.18332" lon="0.02731">
        <ele>27.5</ele>
        <time>2024-03-03T07:53:49Z</time>
      </trkpt>
      <trkpt lat="49.18336" lon="0.02739">
        <ele>27.5</ele>
        <time>2024-03-03T07:53:50Z</time>
      </trkpt>
      <trkpt lat="49.18339" lon="0.02747">
        <ele>27.5</ele>
        <time>2024-03-03T07:53:51Z</time>
      </trkpt>
      <trkpt lat="49.18342" lon="0.02756">
        <ele>27.5</ele>
        <time>2024-03-03T07:53:52Z</time>
      </trkpt>
      <trkpt lat="49.18345" lon="0.02765">
        <ele>27.5</ele>
        <time>2024-03-03T07:53:53Z</time>
      </trkpt>
      <trkpt lat="49.18347" lon="0.02775">
        <ele>27.6</ele>
        <time>2024-03-03T07:53:54Z</time>
      </trkpt>
      <trkpt lat="49.18349" lon="0.02785">
        <ele>27.6</ele>
        <time>2024-03-03T07:53:55Z</time>
      </trkpt>
      <trkpt lat="49.18351" lon="0.02795">
        <ele>27.7</ele>
        <time>2024-03-03T07:53:56Z</time>
      </trkpt>
      <trkpt lat="49.18353" lon="0.02806">
        <ele>27.7</ele>
        <time>2024-03-03T07:53:57Z</time>
      </trkpt>
      <trkpt lat="49.18356" lon="0.02816">
        <ele>27.8</ele>
        <time>2024-03-03T07:53:58Z</time>
      </trkpt>
      <trkpt lat="49.18359" lon="0.02826">
        <ele>27.9</ele>
        <time>2024-03-03T07:53:59Z</time>
      </trkpt>
      <trkpt lat="49.18362" lon="0.02836">
        <ele>28</ele>
        <time>2024-03-03T07:54:00Z</time>
      </trkpt>
      <trkpt lat="49.18366" lon="0.02847">
        <ele>28</ele>
        <time>2024-03-03T07:54:01Z</time>
      </trkpt>
      <trkpt lat="49.1837" lon="0.02856">
        <ele>28.1</ele>
        <time>2024-03-03T07:54:02Z</time>
      </trkpt>
      <trkpt lat="49.18374" lon="0.02864">
        <ele>28.2</ele>
        <time>2024-03-03T07:54:03Z</time>
      </trkpt>
      <trkpt lat="49.18379" lon="0.02871">
        <ele>28.2</ele>
        <time>2024-03-03T07:54:04Z</time>
      </trkpt>
      <trkpt lat="49.18384" lon="0.02878">
        <ele>28.2</ele>
        <time>2024-03-03T07:54:05Z</time>
      </trkpt>
      <trkpt lat="49.1839" lon="0.02884">
        <ele>28.3</ele>
        <time>2024-03-03T07:54:06Z</time>
      </trkpt>
      <trkpt lat="49.18395" lon="0.0289">
        <ele>28.3</ele>
        <time>2024-03-03T07:54:07Z</time>
      </trkpt>
      <trkpt lat="49.18401" lon="0.02896">
        <ele>28.4</ele>
        <time>2024-03-03T07:54:08Z</time>
      </trkpt>
      <trkpt lat="49.18407" lon="0.02902">
        <ele>28.4</ele>
        <time>2024-03-03T07:54:09Z</time>
      </trkpt>
      <trkpt lat="49.18412" lon="0.02908">
        <ele>28.4</ele>
        <time>2024-03-03T07:54:10Z</time>
      </trkpt>
      <trkpt lat="49.18419" lon="0.02914">
        <ele>28.5</ele>
        <time>2024-03-03T07:54:11Z</time>
      </trkpt>
      <trkpt lat="49.18425" lon="0.0292">
        <ele>28.5</ele>
        <time>2024-03-03T07:54:12Z</time>
      </trkpt>
      <trkpt lat="49.18431" lon="0.02926">
        <ele>28.4</ele>
        <time>2024-03-03T07:54:13Z</time>
      </trkpt>
      <trkpt lat="49.18436" lon="0.02932">
        <ele>28.4</ele>
        <time>2024-03-03T07:54:14Z</time>
      </trkpt>
      <trkpt lat="49.18441" lon="0.02937">
        <ele>28.3</ele>
        <time>2024-03-03T07:54:15Z</time>
      </trkpt>
      <trkpt lat="49.18446" lon="0.02943">
        <ele>28.3</ele>
        <time>2024-03-03T07:54:16Z</time>
      </trkpt>
      <trkpt lat="49.18451" lon="0.02949">
        <ele>28.2</ele>
        <time>2024-03-03T07:54:17Z</time>
      </trkpt>
      <trkpt lat="49.18455" lon="0.02955">
        <ele>28.2</ele>
        <time>2024-03-03T07:54:18Z</time>
      </trkpt>
      <trkpt lat="49.18459" lon="0.02961">
        <ele>28.2</ele>
        <time>2024-03-03T07:54:19Z</time>
      </trkpt>
      <trkpt lat="49.18463" lon="0.02967">
        <ele>28.2</ele>
        <time>2024-03-03T07:54:20Z</time>
      </trkpt>
      <trkpt lat="49.18466" lon="0.02972">
        <ele>28.2</ele>
        <time>2024-03-03T07:54:21Z</time>
      </trkpt>
      <trkpt lat="49.18468" lon="0.02979">
        <ele>28.3</ele>
        <time>2024-03-03T07:54:22Z</time>
      </trkpt>
      <trkpt lat="49.18469" lon="0.02985">
        <ele>28.3</ele>
        <time>2024-03-03T07:54:23Z</time>
      </trkpt>
      <trkpt lat="49.18471" lon="0.02989">
        <ele>28.4</ele>
        <time>2024-03-03T07:54:24Z</time>
      </trkpt>
      <trkpt lat="49.18472" lon="0.02993">
        <ele>28.4</ele>
        <time>2024-03-03T07:54:25Z</time>
      </trkpt>
      <trkpt lat="49.18473" lon="0.02997">
        <ele>28.5</ele>
        <time>2024-03-03T07:54:26Z</time>
      </trkpt>
      <trkpt lat="49.18473" lon="0.02999">
        <ele>28.5</ele>
        <time>2024-03-03T07:54:27Z</time>
      </trkpt>
      <trkpt lat="49.18473" lon="0.03005">
        <ele>28.6</ele>
        <time>2024-03-03T07:54:28Z</time>
      </trkpt>
      <trkpt lat="49.18473" lon="0.03007">
        <ele>28.6</ele>
        <time>2024-03-03T07:54:29Z</time>
      </trkpt>
      <trkpt lat="49.18471" lon="0.03012">
        <ele>28.7</ele>
        <time>2024-03-03T07:54:30Z</time>
      </trkpt>
      <trkpt lat="49.18469" lon="0.03018">
        <ele>28.7</ele>
        <time>2024-03-03T07:54:31Z</time>
      </trkpt>
      <trkpt lat="49.18466" lon="0.03024">
        <ele>28.7</ele>
        <time>2024-03-03T07:54:32Z</time>
      </trkpt>
      <trkpt lat="49.18463" lon="0.03029">
        <ele>28.7</ele>
        <time>2024-03-03T07:54:33Z</time>
      </trkpt>
      <trkpt lat="49.1846" lon="0.03035">
        <ele>28.7</ele>
        <time>2024-03-03T07:54:34Z</time>
      </trkpt>
      <trkpt lat="49.18456" lon="0.03041">
        <ele>28.8</ele>
        <time>2024-03-03T07:54:35Z</time>
      </trkpt>
      <trkpt lat="49.18451" lon="0.03047">
        <ele>28.8</ele>
        <time>2024-03-03T07:54:36Z</time>
      </trkpt>
      <trkpt lat="49.18447" lon="0.03053">
        <ele>28.8</ele>
        <time>2024-03-03T07:54:37Z</time>
      </trkpt>
      <trkpt lat="49.18442" lon="0.03058">
        <ele>28.8</ele>
        <time>2024-03-03T07:54:38Z</time>
      </trkpt>
      <trkpt lat="49.18438" lon="0.03063">
        <ele>28.8</ele>
        <time>2024-03-03T07:54:39Z</time>
      </trkpt>
      <trkpt lat="49.18433" lon="0.03069">
        <ele>28.7</ele>
        <time>2024-03-03T07:54:40Z</time>
      </trkpt>
      <trkpt lat="49.18428" lon="0.03075">
        <ele>28.6</ele>
        <time>2024-03-03T07:54:41Z</time>
      </trkpt>
      <trkpt lat="49.18423" lon="0.03081">
        <ele>28.6</ele>
        <time>2024-03-03T07:54:42Z</time>
      </trkpt>
      <trkpt lat="49.18418" lon="0.03087">
        <ele>28.6</ele>
        <time>2024-03-03T07:54:43Z</time>
      </trkpt>
      <trkpt lat="49.18413" lon="0.03093">
        <ele>28.5</ele>
        <time>2024-03-03T07:54:44Z</time>
      </trkpt>
      <trkpt lat="49.18408" lon="0.03099">
        <ele>28.5</ele>
        <time>2024-03-03T07:54:45Z</time>
      </trkpt>
      <trkpt lat="49.18403" lon="0.03104">
        <ele>28.5</ele>
        <time>2024-03-03T07:54:46Z</time>
      </trkpt>
      <trkpt lat="49.18398" lon="0.03109">
        <ele>28.5</ele>
        <time>2024-03-03T07:54:47Z</time>
      </trkpt>
      <trkpt lat="49.18392" lon="0.03114">
        <ele>28.6</ele>
        <time>2024-03-03T07:54:48Z</time>
      </trkpt>
      <trkpt lat="49.18386" lon="0.03117">
        <ele>28.6</ele>
        <time>2024-03-03T07:54:49Z</time>
      </trkpt>
      <trkpt lat="49.1838" lon="0.03121">
        <ele>28.7</ele>
        <time>2024-03-03T07:54:50Z</time>
      </trkpt>
      <trkpt lat="49.18374" lon="0.03125">
        <ele>28.7</ele>
        <time>2024-03-03T07:54:51Z</time>
      </trkpt>
      <trkpt lat="49.18368" lon="0.03129">
        <ele>28.8</ele>
        <time>2024-03-03T07:54:52Z</time>
      </trkpt>
      <trkpt lat="49.18362" lon="0.03132">
        <ele>28.9</ele>
        <time>2024-03-03T07:54:53Z</time>
      </trkpt>
      <trkpt lat="49.18357" lon="0.03137">
        <ele>28.9</ele>
        <time>2024-03-03T07:54:54Z</time>
      </trkpt>
      <trkpt lat="49.18351" lon="0.03141">
        <ele>29</ele>
        <time>2024-03-03T07:54:55Z</time>
      </trkpt>
      <trkpt lat="49.18346" lon="0.03145">
        <ele>29.1</ele>
        <time>2024-03-03T07:54:56Z</time>
      </trkpt>
      <trkpt lat="49.1834" lon="0.03149">
        <ele>29.2</ele>
        <time>2024-03-03T07:54:57Z</time>
      </trkpt>
      <trkpt lat="49.18334" lon="0.03153">
        <ele>29.3</ele>
        <time>2024-03-03T07:54:58Z</time>
      </trkpt>
      <trkpt lat="49.18328" lon="0.03157">
        <ele>29.4</ele>
        <time>2024-03-03T07:54:59Z</time>
      </trkpt>
      <trkpt lat="49.18322" lon="0.03161">
        <ele>29.5</ele>
        <time>2024-03-03T07:55:00Z</time>
      </trkpt>
      <trkpt lat="49.18317" lon="0.03165">
        <ele>29.6</ele>
        <time>2024-03-03T07:55:01Z</time>
      </trkpt>
      <trkpt lat="49.18311" lon="0.03169">
        <ele>29.7</ele>
        <time>2024-03-03T07:55:02Z</time>
      </trkpt>
      <trkpt lat="49.18306" lon="0.03172">
        <ele>29.8</ele>
        <time>2024-03-03T07:55:03Z</time>
      </trkpt>
      <trkpt lat="49.183" lon="0.03176">
        <ele>29.9</ele>
        <time>2024-03-03T07:55:04Z</time>
      </trkpt>
      <trkpt lat="49.18294" lon="0.03179">
        <ele>30</ele>
        <time>2024-03-03T07:55:05Z</time>
      </trkpt>
      <trkpt lat="49.18289" lon="0.03183">
        <ele>30.2</ele>
        <time>2024-03-03T07:55:06Z</time>
      </trkpt>
      <trkpt lat="49.18283" lon="0.03187">
        <ele>30.3</ele>
        <time>2024-03-03T07:55:07Z</time>
      </trkpt>
      <trkpt lat="49.18277" lon="0.03191">
        <ele>30.4</ele>
        <time>2024-03-03T07:55:08Z</time>
      </trkpt>
      <trkpt lat="49.18271" lon="0.03195">
        <ele>30.5</ele>
        <time>2024-03-03T07:55:09Z</time>
      </trkpt>
      <trkpt lat="49.18266" lon="0.03199">
        <ele>30.6</ele>
        <time>2024-03-03T07:55:10Z</time>
      </trkpt>
      <trkpt lat="49.1826" lon="0.03203">
        <ele>30.8</ele>
        <time>2024-03-03T07:55:11Z</time>
      </trkpt>
      <trkpt lat="49.18254" lon="0.03207">
        <ele>30.9</ele>
        <time>2024-03-03T07:55:12Z</time>
      </trkpt>
      <trkpt lat="49.18248" lon="0.03211">
        <ele>31.1</ele>
        <time>2024-03-03T07:55:13Z</time>
      </trkpt>
      <trkpt lat="49.18242" lon="0.03215">
        <ele>31.2</ele>
        <time>2024-03-03T07:55:14Z</time>
      </trkpt>
      <trkpt lat="49.18236" lon="0.03219">
        <ele>31.4</ele>
        <time>2024-03-03T07:55:15Z</time>
      </trkpt>
      <trkpt lat="49.1823" lon="0.03222">
        <ele>31.6</ele>
        <time>2024-03-03T07:55:16Z</time>
      </trkpt>
      <trkpt lat="49.18225" lon="0.03226">
        <ele>31.7</ele>
        <time>2024-03-03T07:55:17Z</time>
      </trkpt>
      <trkpt lat="49.1822" lon="0.03229">
        <ele>31.9</ele>
        <time>2024-03-03T07:55:18Z</time>
      </trkpt>
      <trkpt lat="49.18215" lon="0.03232">
        <ele>32.1</ele>
        <time>2024-03-03T07:55:19Z</time>
      </trkpt>
      <trkpt lat="49.1821" lon="0.03236">
        <ele>32.3</ele>
        <time>2024-03-03T07:55:20Z</time>
      </trkpt>
      <trkpt lat="49.18205" lon="0.03239">
        <ele>32.6</ele>
        <time>2024-03-03T07:55:21Z</time>
      </trkpt>
      <trkpt lat="49.182" lon="0.03242">
        <ele>32.8</ele>
        <time>2024-03-03T07:55:22Z</time>
      </trkpt>
      <trkpt lat="49.18195" lon="0.03246">
        <ele>33.1</ele>
        <time>2024-03-03T07:55:23Z</time>
      </trkpt>
      <trkpt lat="49.18191" lon="0.03248">
        <ele>33.4</ele>
        <time>2024-03-03T07:55:24Z</time>
      </trkpt>
      <trkpt lat="49.18188" lon="0.0325">
        <ele>33.7</ele>
        <time>2024-03-03T07:55:25Z</time>
      </trkpt>
      <trkpt lat="49.18185" lon="0.03252">
        <ele>33.9</ele>
        <time>2024-03-03T07:55:26Z</time>
      </trkpt>
      <trkpt lat="49.18182" lon="0.03253">
        <ele>34.2</ele>
        <time>2024-03-03T07:55:27Z</time>
      </trkpt>
      <trkpt lat="49.18181" lon="0.03254">
        <ele>34.2</ele>
        <time>2024-03-03T07:55:28Z</time>
      </trkpt>
      <trkpt lat="49.18178" lon="0.03256">
        <ele>34.5</ele>
        <time>2024-03-03T07:55:29Z</time>
      </trkpt>
      <trkpt lat="49.18177" lon="0.03256">
        <ele>34.6</ele>
        <time>2024-03-03T07:55:30Z</time>
      </trkpt>
      <trkpt lat="49.18173" lon="0.03258">
        <ele>34.9</ele>
        <time>2024-03-03T07:55:31Z</time>
      </trkpt>
      <trkpt lat="49.18172" lon="0.03259">
        <ele>34.9</ele>
        <time>2024-03-03T07:55:32Z</time>
      </trkpt>
      <trkpt lat="49.18169" lon="0.03261">
        <ele>35.1</ele>
        <time>2024-03-03T07:55:33Z</time>
      </trkpt>
      <trkpt lat="49.18167" lon="0.03263">
        <ele>35.3</ele>
        <time>2024-03-03T07:55:34Z</time>
      </trkpt>
      <trkpt lat="49.18165" lon="0.03266">
        <ele>35.5</ele>
        <time>2024-03-03T07:55:35Z</time>
      </trkpt>
      <trkpt lat="49.18163" lon="0.03269">
        <ele>35.6</ele>
        <time>2024-03-03T07:55:36Z</time>
      </trkpt>
      <trkpt lat="49.1816" lon="0.03272">
        <ele>35.8</ele>
        <time>2024-03-03T07:55:37Z</time>
      </trkpt>
      <trkpt lat="49.18159" lon="0.03276">
        <ele>36</ele>
        <time>2024-03-03T07:55:38Z</time>
      </trkpt>
      <trkpt lat="49.18157" lon="0.0328">
        <ele>36.2</ele>
        <time>2024-03-03T07:55:39Z</time>
      </trkpt>
      <trkpt lat="49.18157" lon="0.03282">
        <ele>36.3</ele>
        <time>2024-03-03T07:55:40Z</time>
      </trkpt>
      <trkpt lat="49.18154" lon="0.03287">
        <ele>36.5</ele>
        <time>2024-03-03T07:55:41Z</time>
      </trkpt>
      <trkpt lat="49.18154" lon="0.03289">
        <ele>36.6</ele>
        <time>2024-03-03T07:55:42Z</time>
      </trkpt>
      <trkpt lat="49.18153" lon="0.03293">
        <ele>36.8</ele>
        <time>2024-03-03T07:55:43Z</time>
      </trkpt>
      <trkpt lat="49.18152" lon="0.03296">
        <ele>36.9</ele>
        <time>2024-03-03T07:55:44Z</time>
      </trkpt>
      <trkpt lat="49.18151" lon="0.03301">
        <ele>37.1</ele>
        <time>2024-03-03T07:55:45Z</time>
      </trkpt>
      <trkpt lat="49.1815" lon="0.03305">
        <ele>37.3</ele>
        <time>2024-03-03T07:55:46Z</time>
      </trkpt>
      <trkpt lat="49.18149" lon="0.03309">
        <ele>37.5</ele>
        <time>2024-03-03T07:55:47Z</time>
      </trkpt>
      <trkpt lat="49.18148" lon="0.03314">
        <ele>37.7</ele>
        <time>2024-03-03T07:55:48Z</time>
      </trkpt>
      <trkpt lat="49.18147" lon="0.03315">
        <ele>37.8</ele>
        <time>2024-03-03T07:55:49Z</time>
      </trkpt>
      <trkpt lat="49.18146" lon="0.03319">
        <ele>38</ele>
        <time>2024-03-03T07:55:50Z</time>
      </trkpt>
      <trkpt lat="49.18145" lon="0.03324">
        <ele>38.2</ele>
        <time>2024-03-03T07:55:51Z</time>
      </trkpt>
      <trkpt lat="49.18144" lon="0.03327">
        <ele>38.5</ele>
        <time>2024-03-03T07:55:52Z</time>
      </trkpt>
      <trkpt lat="49.18143" lon="0.03331">
        <ele>38.7</ele>
        <time>2024-03-03T07:55:53Z</time>
      </trkpt>
      <trkpt lat="49.18141" lon="0.03336">
        <ele>39</ele>
        <time>2024-03-03T07:55:54Z</time>
      </trkpt>
      <trkpt lat="49.18141" lon="0.03338">
        <ele>39.1</ele>
        <time>2024-03-03T07:55:55Z</time>
      </trkpt>
      <trkpt lat="49.18138" lon="0.03343">
        <ele>39.4</ele>
        <time>2024-03-03T07:55:56Z</time>
      </trkpt>
      <trkpt lat="49.18137" lon="0.03345">
        <ele>39.6</ele>
        <time>2024-03-03T07:55:57Z</time>
      </trkpt>
      <trkpt lat="49.18136" lon="0.03349">
        <ele>39.8</ele>
        <time>2024-03-03T07:55:58Z</time>
      </trkpt>
      <trkpt lat="49.18134" lon="0.03354">
        <ele>40.1</ele>
        <time>2024-03-03T07:55:59Z</time>
      </trkpt>
      <trkpt lat="49.18133" lon="0.03355">
        <ele>40.2</ele>
        <time>2024-03-03T07:56:00Z</time>
      </trkpt>
      <trkpt lat="49.18131" lon="0.0336">
        <ele>40.6</ele>
        <time>2024-03-03T07:56:01Z</time>
      </trkpt>
      <trkpt lat="49.1813" lon="0.03362">
        <ele>40.7</ele>
        <time>2024-03-03T07:56:02Z</time>
      </trkpt>
      <trkpt lat="49.18129" lon="0.03366">
        <ele>40.9</ele>
        <time>2024-03-03T07:56:03Z</time>
      </trkpt>
      <trkpt lat="49.18126" lon="0.03371">
        <ele>41.3</ele>
        <time>2024-03-03T07:56:04Z</time>
      </trkpt>
      <trkpt lat="49.18126" lon="0.03373">
        <ele>41.4</ele>
        <time>2024-03-03T07:56:05Z</time>
      </trkpt>
      <trkpt lat="49.18124" lon="0.03377">
        <ele>41.7</ele>
        <time>2024-03-03T07:56:06Z</time>
      </trkpt>
      <trkpt lat="49.18122" lon="0.03381">
        <ele>42</ele>
        <time>2024-03-03T07:56:07Z</time>
      </trkpt>
      <trkpt lat="49.1812" lon="0.03385">
        <ele>42.3</ele>
        <time>2024-03-03T07:56:08Z</time>
      </trkpt>
      <trkpt lat="49.18118" lon="0.0339">
        <ele>42.6</ele>
        <time>2024-03-03T07:56:09Z</time>
      </trkpt>
      <trkpt lat="49.18116" lon="0.03394">
        <ele>42.9</ele>
        <time>2024-03-03T07:56:10Z</time>
      </trkpt>
      <trkpt lat="49.18115" lon="0.03398">
        <ele>43.2</ele>
        <time>2024-03-03T07:56:11Z</time>
      </trkpt>
      <trkpt lat="49.18113" lon="0.03402">
        <ele>43.4</ele>
        <time>2024-03-03T07:56:12Z</time>
      </trkpt>
      <trkpt lat="49.18112" lon="0.03406">
        <ele>43.7</ele>
        <time>2024-03-03T07:56:13Z</time>
      </trkpt>
      <trkpt lat="49.1811" lon="0.0341">
        <ele>44</ele>
        <time>2024-03-03T07:56:14Z</time>
      </trkpt>
      <trkpt lat="49.18108" lon="0.03414">
        <ele>44.3</ele>
        <time>2024-03-03T07:56:15Z</time>
      </trkpt>
      <trkpt lat="49.18106" lon="0.03418">
        <ele>44.6</ele>
        <time>2024-03-03T07:56:16Z</time>
      </trkpt>
      <trkpt lat="49.18104" lon="0.03422">
        <ele>44.9</ele>
        <time>2024-03-03T07:56:17Z</time>
      </trkpt>
      <trkpt lat="49.18102" lon="0.03427">
        <ele>45.3</ele>
        <time>2024-03-03T07:56:18Z</time>
      </trkpt>
      <trkpt lat="49.18101" lon="0.03431">
        <ele>45.5</ele>
        <time>2024-03-03T07:56:19Z</time>
      </trkpt>
      <trkpt lat="49.18099" lon="0.03436">
        <ele>45.9</ele>
        <time>2024-03-03T07:56:20Z</time>
      </trkpt>
      <trkpt lat="49.18098" lon="0.03438">
        <ele>46</ele>
        <time>2024-03-03T07:56:21Z</time>
      </trkpt>
      <trkpt lat="49.18097" lon="0.03442">
        <ele>46.3</ele>
        <time>2024-03-03T07:56:22Z</time>
      </trkpt>
      <trkpt lat="49.18095" lon="0.03446">
        <ele>46.6</ele>
        <time>2024-03-03T07:56:23Z</time>
      </trkpt>
      <trkpt lat="49.18092" lon="0.0345">
        <ele>46.9</ele>
        <time>2024-03-03T07:56:24Z</time>
      </trkpt>
      <trkpt lat="49.18091" lon="0.03455">
        <ele>47.1</ele>
        <time>2024-03-03T07:56:25Z</time>
      </trkpt>
      <trkpt lat="49.18089" lon="0.0346">
        <ele>47.4</ele>
        <time>2024-03-03T07:56:26Z</time>
      </trkpt>
      <trkpt lat="49.18087" lon="0.03465">
        <ele>47.7</ele>
        <time>2024-03-03T07:56:27Z</time>
      </trkpt>
      <trkpt lat="49.18085" lon="0.0347">
        <ele>48</ele>
        <time>2024-03-03T07:56:28Z</time>
      </trkpt>
      <trkpt lat="49.18083" lon="0.03475">
        <ele>48.3</ele>
        <time>2024-03-03T07:56:29Z</time>
      </trkpt>
      <trkpt lat="49.18081" lon="0.0348">
        <ele>48.5</ele>
        <time>2024-03-03T07:56:30Z</time>
      </trkpt>
      <trkpt lat="49.18079" lon="0.03485">
        <ele>48.8</ele>
        <time>2024-03-03T07:56:31Z</time>
      </trkpt>
      <trkpt lat="49.18076" lon="0.03489">
        <ele>49.1</ele>
        <time>2024-03-03T07:56:32Z</time>
      </trkpt>
      <trkpt lat="49.18073" lon="0.03494">
        <ele>49.4</ele>
        <time>2024-03-03T07:56:33Z</time>
      </trkpt>
      <trkpt lat="49.1807" lon="0.03499">
        <ele>49.7</ele>
        <time>2024-03-03T07:56:34Z</time>
      </trkpt>
      <trkpt lat="49.18067" lon="0.03504">
        <ele>50</ele>
        <time>2024-03-03T07:56:35Z</time>
      </trkpt>
      <trkpt lat="49.18064" lon="0.0351">
        <ele>50.2</ele>
        <time>2024-03-03T07:56:36Z</time>
      </trkpt>
      <trkpt lat="49.1806" lon="0.03515">
        <ele>50.5</ele>
        <time>2024-03-03T07:56:37Z</time>
      </trkpt>
      <trkpt lat="49.18056" lon="0.03521">
        <ele>50.8</ele>
        <time>2024-03-03T07:56:38Z</time>
      </trkpt>
      <trkpt lat="49.18052" lon="0.03527">
        <ele>51</ele>
        <time>2024-03-03T07:56:39Z</time>
      </trkpt>
      <trkpt lat="49.18048" lon="0.03534">
        <ele>51.3</ele>
        <time>2024-03-03T07:56:40Z</time>
      </trkpt>
      <trkpt lat="49.18044" lon="0.0354">
        <ele>51.5</ele>
        <time>2024-03-03T07:56:41Z</time>
      </trkpt>
      <trkpt lat="49.1804" lon="0.03546">
        <ele>51.7</ele>
        <time>2024-03-03T07:56:42Z</time>
      </trkpt>
      <trkpt lat="49.18036" lon="0.0355">
        <ele>51.9</ele>
        <time>2024-03-03T07:56:43Z</time>
      </trkpt>
      <trkpt lat="49.18032" lon="0.03557">
        <ele>52.1</ele>
        <time>2024-03-03T07:56:44Z</time>
      </trkpt>
      <trkpt lat="49.18029" lon="0.03561">
        <ele>52.2</ele>
        <time>2024-03-03T07:56:45Z</time>
      </trkpt>
      <trkpt lat="49.18025" lon="0.03565">
        <ele>52.3</ele>
        <time>2024-03-03T07:56:46Z</time>
      </trkpt>
      <trkpt lat="49.18021" lon="0.03571">
        <ele>52.5</ele>
        <time>2024-03-03T07:56:47Z</time>
      </trkpt>
      <trkpt lat="49.18017" lon="0.03574">
        <ele>52.6</ele>
        <time>2024-03-03T07:56:48Z</time>
      </trkpt>
      <trkpt lat="49.18014" lon="0.03578">
        <ele>52.8</ele>
        <time>2024-03-03T07:56:49Z</time>
      </trkpt>
      <trkpt lat="49.1801" lon="0.03582">
        <ele>52.9</ele>
        <time>2024-03-03T07:56:50Z</time>
      </trkpt>
      <trkpt lat="49.18006" lon="0.03589">
        <ele>53.1</ele>
        <time>2024-03-03T07:56:51Z</time>
      </trkpt>
      <trkpt lat="49.18003" lon="0.03597">
        <ele>53.3</ele>
        <time>2024-03-03T07:56:52Z</time>
      </trkpt>
      <trkpt lat="49.17999" lon="0.03603">
        <ele>53.5</ele>
        <time>2024-03-03T07:56:53Z</time>
      </trkpt>
      <trkpt lat="49.17995" lon="0.0361">
        <ele>53.6</ele>
        <time>2024-03-03T07:56:54Z</time>
      </trkpt>
      <trkpt lat="49.17991" lon="0.03616">
        <ele>53.8</ele>
        <time>2024-03-03T07:56:55Z</time>
      </trkpt>
      <trkpt lat="49.17987" lon="0.03622">
        <ele>53.9</ele>
        <time>2024-03-03T07:56:56Z</time>
      </trkpt>
      <trkpt lat="49.17984" lon="0.03626">
        <ele>54.1</ele>
        <time>2024-03-03T07:56:57Z</time>
      </trkpt>
      <trkpt lat="49.1798" lon="0.03631">
        <ele>54.2</ele>
        <time>2024-03-03T07:56:58Z</time>
      </trkpt>
      <trkpt lat="49.17977" lon="0.03635">
        <ele>54.3</ele>
        <time>2024-03-03T07:56:59Z</time>
      </trkpt>
      <trkpt lat="49.17973" lon="0.03638">
        <ele>54.3</ele>
        <time>2024-03-03T07:57:00Z</time>
      </trkpt>
      <trkpt lat="49.1797" lon="0.03641">
        <ele>54.4</ele>
        <time>2024-03-03T07:57:01Z</time>
      </trkpt>
      <trkpt lat="49.17966" lon="0.03646">
        <ele>54.5</ele>
        <time>2024-03-03T07:57:02Z</time>
      </trkpt>
      <trkpt lat="49.17962" lon="0.03651">
        <ele>54.5</ele>
        <time>2024-03-03T07:57:03Z</time>
      </trkpt>
      <trkpt lat="49.17959" lon="0.03653">
        <ele>54.5</ele>
        <time>2024-03-03T07:57:04Z</time>
      </trkpt>
      <trkpt lat="49.17955" lon="0.03655">
        <ele>54.4</ele>
        <time>2024-03-03T07:57:05Z</time>
      </trkpt>
      <trkpt lat="49.17952" lon="0.03657">
        <ele>54.3</ele>
        <time>2024-03-03T07:57:06Z</time>
      </trkpt>
      <trkpt lat="49.17947" lon="0.0366">
        <ele>54.2</ele>
        <time>2024-03-03T07:57:07Z</time>
      </trkpt>
      <trkpt lat="49.17942" lon="0.03664">
        <ele>54.1</ele>
        <time>2024-03-03T07:57:08Z</time>
      </trkpt>
      <trkpt lat="49.17936" lon="0.03667">
        <ele>53.9</ele>
        <time>2024-03-03T07:57:09Z</time>
      </trkpt>
      <trkpt lat="49.17931" lon="0.03672">
        <ele>53.7</ele>
        <time>2024-03-03T07:57:10Z</time>
      </trkpt>
      <trkpt lat="49.17926" lon="0.03677">
        <ele>53.5</ele>
        <time>2024-03-03T07:57:11Z</time>
      </trkpt>
      <trkpt lat="49.17921" lon="0.03682">
        <ele>53.3</ele>
        <time>2024-03-03T07:57:12Z</time>
      </trkpt>
      <trkpt lat="49.17916" lon="0.03688">
        <ele>53</ele>
        <time>2024-03-03T07:57:13Z</time>
      </trkpt>
      <trkpt lat="49.1791" lon="0.03692">
        <ele>52.8</ele>
        <time>2024-03-03T07:57:14Z</time>
      </trkpt>
      <trkpt lat="49.17904" lon="0.03695">
        <ele>52.6</ele>
        <time>2024-03-03T07:57:15Z</time>
      </trkpt>
      <trkpt lat="49.17898" lon="0.03698">
        <ele>52.3</ele>
        <time>2024-03-03T07:57:16Z</time>
      </trkpt>
      <trkpt lat="49.17892" lon="0.03702">
        <ele>52.1</ele>
        <time>2024-03-03T07:57:17Z</time>
      </trkpt>
      <trkpt lat="49.17886" lon="0.03707">
        <ele>51.9</ele>
        <time>2024-03-03T07:57:18Z</time>
      </trkpt>
      <trkpt lat="49.1788" lon="0.03711">
        <ele>51.6</ele>
        <time>2024-03-03T07:57:19Z</time>
      </trkpt>
      <trkpt lat="49.17874" lon="0.03715">
        <ele>51.3</ele>
        <time>2024-03-03T07:57:20Z</time>
      </trkpt>
      <trkpt lat="49.17868" lon="0.0372">
        <ele>51</ele>
        <time>2024-03-03T07:57:21Z</time>
      </trkpt>
      <trkpt lat="49.17862" lon="0.03724">
        <ele>50.7</ele>
        <time>2024-03-03T07:57:22Z</time>
      </trkpt>
      <trkpt lat="49.17855" lon="0.03728">
        <ele>50.4</ele>
        <time>2024-03-03T07:57:23Z</time>
      </trkpt>
      <trkpt lat="49.17848" lon="0.03732">
        <ele>50</ele>
        <time>2024-03-03T07:57:24Z</time>
      </trkpt>
      <trkpt lat="49.1784" lon="0.03736">
        <ele>49.5</ele>
        <time>2024-03-03T07:57:25Z</time>
      </trkpt>
      <trkpt lat="49.17832" lon="0.03741">
        <ele>49.1</ele>
        <time>2024-03-03T07:57:26Z</time>
      </trkpt>
      <trkpt lat="49.17824" lon="0.03745">
        <ele>48.6</ele>
        <time>2024-03-03T07:57:27Z</time>
      </trkpt>
      <trkpt lat="49.17816" lon="0.03751">
        <ele>48.1</ele>
        <time>2024-03-03T07:57:28Z</time>
      </trkpt>
      <trkpt lat="49.17808" lon="0.03756">
        <ele>47.6</ele>
        <time>2024-03-03T07:57:29Z</time>
      </trkpt>
      <trkpt lat="49.17798" lon="0.0376">
        <ele>47.1</ele>
        <time>2024-03-03T07:57:30Z</time>
      </trkpt>
      <trkpt lat="49.17789" lon="0.03764">
        <ele>46.6</ele>
        <time>2024-03-03T07:57:31Z</time>
      </trkpt>
      <trkpt lat="49.1778" lon="0.03768">
        <ele>46.2</ele>
        <time>2024-03-03T07:57:32Z</time>
      </trkpt>
      <trkpt lat="49.1777" lon="0.03772">
        <ele>45.7</ele>
        <time>2024-03-03T07:57:33Z</time>
      </trkpt>
      <trkpt lat="49.1776" lon="0.03777">
        <ele>45.2</ele>
        <time>2024-03-03T07:57:34Z</time>
      </trkpt>
      <trkpt lat="49.17751" lon="0.03781">
        <ele>44.8</ele>
        <time>2024-03-03T07:57:35Z</time>
      </trkpt>
      <trkpt lat="49.17741" lon="0.03785">
        <ele>44.4</ele>
        <time>2024-03-03T07:57:36Z</time>
      </trkpt>
      <trkpt lat="49.17732" lon="0.03788">
        <ele>44</ele>
        <time>2024-03-03T07:57:37Z</time>
      </trkpt>
      <trkpt lat="49.17723" lon="0.03793">
        <ele>43.6</ele>
        <time>2024-03-03T07:57:38Z</time>
      </trkpt>
      <trkpt lat="49.17714" lon="0.03797">
        <ele>43.2</ele>
        <time>2024-03-03T07:57:39Z</time>
      </trkpt>
      <trkpt lat="49.17705" lon="0.03801">
        <ele>42.8</ele>
        <time>2024-03-03T07:57:40Z</time>
      </trkpt>
      <trkpt lat="49.17696" lon="0.03803">
        <ele>42.5</ele>
        <time>2024-03-03T07:57:41Z</time>
      </trkpt>
      <trkpt lat="49.17688" lon="0.03806">
        <ele>42.3</ele>
        <time>2024-03-03T07:57:42Z</time>
      </trkpt>
      <trkpt lat="49.1768" lon="0.03808">
        <ele>42.1</ele>
        <time>2024-03-03T07:57:43Z</time>
      </trkpt>
      <trkpt lat="49.17674" lon="0.03811">
        <ele>41.9</ele>
        <time>2024-03-03T07:57:44Z</time>
      </trkpt>
      <trkpt lat="49.17668" lon="0.03815">
        <ele>41.7</ele>
        <time>2024-03-03T07:57:45Z</time>
      </trkpt>
      <trkpt lat="49.17662" lon="0.03821">
        <ele>41.2</ele>
        <time>2024-03-03T07:57:46Z</time>
      </trkpt>
      <trkpt lat="49.17658" lon="0.03831">
        <ele>40.4</ele>
        <time>2024-03-03T07:57:47Z</time>
      </trkpt>
      <trkpt lat="49.17657" lon="0.03843">
        <ele>39.6</ele>
        <time>2024-03-03T07:57:48Z</time>
      </trkpt>
      <trkpt lat="49.17658" lon="0.03855">
        <ele>38.8</ele>
        <time>2024-03-03T07:57:49Z</time>
      </trkpt>
      <trkpt lat="49.1766" lon="0.03868">
        <ele>38</ele>
        <time>2024-03-03T07:57:50Z</time>
      </trkpt>
      <trkpt lat="49.17662" lon="0.03881">
        <ele>37.2</ele>
        <time>2024-03-03T07:57:51Z</time>
      </trkpt>
      <trkpt lat="49.17664" lon="0.03895">
        <ele>36.5</ele>
        <time>2024-03-03T07:57:52Z</time>
      </trkpt>
      <trkpt lat="49.17665" lon="0.0391">
        <ele>36</ele>
        <time>2024-03-03T07:57:53Z</time>
      </trkpt>
      <trkpt lat="49.17667" lon="0.03924">
        <ele>35.6</ele>
        <time>2024-03-03T07:57:54Z</time>
      </trkpt>
      <trkpt lat="49.17669" lon="0.03938">
        <ele>35.3</ele>
        <time>2024-03-03T07:57:55Z</time>
      </trkpt>
      <trkpt lat="49.1767" lon="0.0395">
        <ele>35.2</ele>
        <time>2024-03-03T07:57:56Z</time>
      </trkpt>
      <trkpt lat="49.17672" lon="0.03963">
        <ele>35.1</ele>
        <time>2024-03-03T07:57:57Z</time>
      </trkpt>
      <trkpt lat="49.17673" lon="0.03976">
        <ele>35</ele>
        <time>2024-03-03T07:57:58Z</time>
      </trkpt>
      <trkpt lat="49.17674" lon="0.0399">
        <ele>35.1</ele>
        <time>2024-03-03T07:57:59Z</time>
      </trkpt>
      <trkpt lat="49.17676" lon="0.04003">
        <ele>35.2</ele>
        <time>2024-03-03T07:58:00Z</time>
      </trkpt>
      <trkpt lat="49.17677" lon="0.04016">
        <ele>35.3</ele>
        <time>2024-03-03T07:58:01Z</time>
      </trkpt>
      <trkpt lat="49.17678" lon="0.04028">
        <ele>35.4</ele>
        <time>2024-03-03T07:58:02Z</time>
      </trkpt>
      <trkpt lat="49.17678" lon="0.04039">
        <ele>35.6</ele>
        <time>2024-03-03T07:58:03Z</time>
      </trkpt>
      <trkpt lat="49.17678" lon="0.04051">
        <ele>35.8</ele>
        <time>2024-03-03T07:58:04Z</time>
      </trkpt>
      <trkpt lat="49.17678" lon="0.04061">
        <ele>36</ele>
        <time>2024-03-03T07:58:05Z</time>
      </trkpt>
      <trkpt lat="49.17678" lon="0.04071">
        <ele>36.2</ele>
        <time>2024-03-03T07:58:06Z</time>
      </trkpt>
      <trkpt lat="49.17677" lon="0.04081">
        <ele>36.4</ele>
        <time>2024-03-03T07:58:07Z</time>
      </trkpt>
      <trkpt lat="49.17675" lon="0.04091">
        <ele>36.6</ele>
        <time>2024-03-03T07:58:08Z</time>
      </trkpt>
      <trkpt lat="49.17674" lon="0.041">
        <ele>36.8</ele>
        <time>2024-03-03T07:58:09Z</time>
      </trkpt>
      <trkpt lat="49.17673" lon="0.0411">
        <ele>37</ele>
        <time>2024-03-03T07:58:10Z</time>
      </trkpt>
      <trkpt lat="49.17672" lon="0.0412">
        <ele>37.2</ele>
        <time>2024-03-03T07:58:11Z</time>
      </trkpt>
      <trkpt lat="49.1767" lon="0.04129">
        <ele>37.4</ele>
        <time>2024-03-03T07:58:12Z</time>
      </trkpt>
      <trkpt lat="49.17668" lon="0.04139">
        <ele>37.7</ele>
        <time>2024-03-03T07:58:13Z</time>
      </trkpt>
      <trkpt lat="49.17667" lon="0.04148">
        <ele>37.9</ele>
        <time>2024-03-03T07:58:14Z</time>
      </trkpt>
      <trkpt lat="49.17665" lon="0.04157">
        <ele>38.1</ele>
        <time>2024-03-03T07:58:15Z</time>
      </trkpt>
      <trkpt lat="49.17662" lon="0.04166">
        <ele>38.2</ele>
        <time>2024-03-03T07:58:16Z</time>
      </trkpt>
      <trkpt lat="49.1766" lon="0.04175">
        <ele>38.4</ele>
        <time>2024-03-03T07:58:17Z</time>
      </trkpt>
      <trkpt lat="49.17657" lon="0.04183">
        <ele>38.6</ele>
        <time>2024-03-03T07:58:18Z</time>
      </trkpt>
      <trkpt lat="49.17654" lon="0.04193">
        <ele>38.8</ele>
        <time>2024-03-03T07:58:19Z</time>
      </trkpt>
      <trkpt lat="49.17651" lon="0.04202">
        <ele>38.9</ele>
        <time>2024-03-03T07:58:20Z</time>
      </trkpt>
      <trkpt lat="49.17647" lon="0.04211">
        <ele>39.1</ele>
        <time>2024-03-03T07:58:21Z</time>
      </trkpt>
      <trkpt lat="49.17644" lon="0.0422">
        <ele>39.2</ele>
        <time>2024-03-03T07:58:22Z</time>
      </trkpt>
      <trkpt lat="49.1764" lon="0.04229">
        <ele>39.4</ele>
        <time>2024-03-03T07:58:23Z</time>
      </trkpt>
      <trkpt lat="49.17636" lon="0.04237">
        <ele>39.5</ele>
        <time>2024-03-03T07:58:24Z</time>
      </trkpt>
      <trkpt lat="49.17633" lon="0.04246">
        <ele>39.6</ele>
        <time>2024-03-03T07:58:25Z</time>
      </trkpt>
      <trkpt lat="49.17628" lon="0.04253">
        <ele>39.8</ele>
        <time>2024-03-03T07:58:26Z</time>
      </trkpt>
      <trkpt lat="49.17624" lon="0.04261">
        <ele>39.9</ele>
        <time>2024-03-03T07:58:27Z</time>
      </trkpt>
      <trkpt lat="49.1762" lon="0.04269">
        <ele>40</ele>
        <time>2024-03-03T07:58:28Z</time>
      </trkpt>
      <trkpt lat="49.17616" lon="0.04277">
        <ele>40.1</ele>
        <time>2024-03-03T07:58:29Z</time>
      </trkpt>
      <trkpt lat="49.17612" lon="0.04284">
        <ele>40.2</ele>
        <time>2024-03-03T07:58:30Z</time>
      </trkpt>
      <trkpt lat="49.17607" lon="0.04292">
        <ele>40.3</ele>
        <time>2024-03-03T07:58:31Z</time>
      </trkpt>
      <trkpt lat="49.17603" lon="0.043">
        <ele>40.5</ele>
        <time>2024-03-03T07:58:32Z</time>
      </trkpt>
      <trkpt lat="49.17599" lon="0.04307">
        <ele>40.6</ele>
        <time>2024-03-03T07:58:33Z</time>
      </trkpt>
      <trkpt lat="49.17594" lon="0.04314">
        <ele>40.7</ele>
        <time>2024-03-03T07:58:34Z</time>
      </trkpt>
      <trkpt lat="49.17589" lon="0.0432">
        <ele>40.9</ele>
        <time>2024-03-03T07:58:35Z</time>
      </trkpt>
      <trkpt lat="49.17583" lon="0.04325">
        <ele>41</ele>
        <time>2024-03-03T07:58:36Z</time>
      </trkpt>
      <trkpt lat="49.17577" lon="0.04328">
        <ele>41.2</ele>
        <time>2024-03-03T07:58:37Z</time>
      </trkpt>
      <trkpt lat="49.1757" lon="0.0433">
        <ele>41.4</ele>
        <time>2024-03-03T07:58:38Z</time>
      </trkpt>
      <trkpt lat="49.17564" lon="0.04331">
        <ele>41.4</ele>
        <time>2024-03-03T07:58:39Z</time>
      </trkpt>
      <trkpt lat="49.17558" lon="0.04331">
        <ele>41.5</ele>
        <time>2024-03-03T07:58:40Z</time>
      </trkpt>
      <trkpt lat="49.17552" lon="0.0433">
        <ele>41.6</ele>
        <time>2024-03-03T07:58:41Z</time>
      </trkpt>
      <trkpt lat="49.17546" lon="0.04328">
        <ele>41.7</ele>
        <time>2024-03-03T07:58:42Z</time>
      </trkpt>
      <trkpt lat="49.1754" lon="0.04326">
        <ele>41.9</ele>
        <time>2024-03-03T07:58:43Z</time>
      </trkpt>
      <trkpt lat="49.17534" lon="0.04323">
        <ele>42</ele>
        <time>2024-03-03T07:58:44Z</time>
      </trkpt>
      <trkpt lat="49.17528" lon="0.04321">
        <ele>42.2</ele>
        <time>2024-03-03T07:58:45Z</time>
      </trkpt>
      <trkpt lat="49.17522" lon="0.04319">
        <ele>42.3</ele>
        <time>2024-03-03T07:58:46Z</time>
      </trkpt>
      <trkpt lat="49.17517" lon="0.04317">
        <ele>42.5</ele>
        <time>2024-03-03T07:58:47Z</time>
      </trkpt>
      <trkpt lat="49.17511" lon="0.04316">
        <ele>42.6</ele>
        <time>2024-03-03T07:58:48Z</time>
      </trkpt>
      <trkpt lat="49.17506" lon="0.04315">
        <ele>42.8</ele>
        <time>2024-03-03T07:58:49Z</time>
      </trkpt>
      <trkpt lat="49.175" lon="0.04313">
        <ele>42.9</ele>
        <time>2024-03-03T07:58:50Z</time>
      </trkpt>
      <trkpt lat="49.17495" lon="0.04312">
        <ele>43.1</ele>
        <time>2024-03-03T07:58:51Z</time>
      </trkpt>
      <trkpt lat="49.17489" lon="0.04311">
        <ele>43.3</ele>
        <time>2024-03-03T07:58:52Z</time>
      </trkpt>
      <trkpt lat="49.17484" lon="0.04311">
        <ele>43.4</ele>
        <time>2024-03-03T07:58:53Z</time>
      </trkpt>
      <trkpt lat="49.17479" lon="0.04311">
        <ele>43.6</ele>
        <time>2024-03-03T07:58:54Z</time>
      </trkpt>
      <trkpt lat="49.17474" lon="0.04311">
        <ele>43.7</ele>
        <time>2024-03-03T07:58:55Z</time>
      </trkpt>
      <trkpt lat="49.1747" lon="0.04313">
        <ele>43.9</ele>
        <time>2024-03-03T07:58:56Z</time>
      </trkpt>
      <trkpt lat="49.17465" lon="0.04315">
        <ele>44</ele>
        <time>2024-03-03T07:58:57Z</time>
      </trkpt>
      <trkpt lat="49.17461" lon="0.04317">
        <ele>44.1</ele>
        <time>2024-03-03T07:58:58Z</time>
      </trkpt>
      <trkpt lat="49.17457" lon="0.04319">
        <ele>44.3</ele>
        <time>2024-03-03T07:58:59Z</time>
      </trkpt>
      <trkpt lat="49.17452" lon="0.04322">
        <ele>44.5</ele>
        <time>2024-03-03T07:59:00Z</time>
      </trkpt>
      <trkpt lat="49.17447" lon="0.04325">
        <ele>44.6</ele>
        <time>2024-03-03T07:59:01Z</time>
      </trkpt>
      <trkpt lat="49.17442" lon="0.04329">
        <ele>44.9</ele>
        <time>2024-03-03T07:59:02Z</time>
      </trkpt>
      <trkpt lat="49.17437" lon="0.04334">
        <ele>45.1</ele>
        <time>2024-03-03T07:59:03Z</time>
      </trkpt>
      <trkpt lat="49.17432" lon="0.04339">
        <ele>45.3</ele>
        <time>2024-03-03T07:59:04Z</time>
      </trkpt>
      <trkpt lat="49.17427" lon="0.04343">
        <ele>45.5</ele>
        <time>2024-03-03T07:59:05Z</time>
      </trkpt>
      <trkpt lat="49.17423" lon="0.04348">
        <ele>45.7</ele>
        <time>2024-03-03T07:59:06Z</time>
      </trkpt>
      <trkpt lat="49.17419" lon="0.04352">
        <ele>45.9</ele>
        <time>2024-03-03T07:59:07Z</time>
      </trkpt>
      <trkpt lat="49.17415" lon="0.04356">
        <ele>46.1</ele>
        <time>2024-03-03T07:59:08Z</time>
      </trkpt>
      <trkpt lat="49.17411" lon="0.04358">
        <ele>46.2</ele>
        <time>2024-03-03T07:59:09Z</time>
      </trkpt>
      <trkpt lat="49.17408" lon="0.0436">
        <ele>46.4</ele>
        <time>2024-03-03T07:59:10Z</time>
      </trkpt>
      <trkpt lat="49.17404" lon="0.0436">
        <ele>46.5</ele>
        <time>2024-03-03T07:59:11Z</time>
      </trkpt>
      <trkpt lat="49.17401" lon="0.04362">
        <ele>46.7</ele>
        <time>2024-03-03T07:59:12Z</time>
      </trkpt>
      <trkpt lat="49.17398" lon="0.04363">
        <ele>46.9</ele>
        <time>2024-03-03T07:59:13Z</time>
      </trkpt>
      <trkpt lat="49.17393" lon="0.04367">
        <ele>47.1</ele>
        <time>2024-03-03T07:59:14Z</time>
      </trkpt>
      <trkpt lat="49.17388" lon="0.04371">
        <ele>47.4</ele>
        <time>2024-03-03T07:59:15Z</time>
      </trkpt>
      <trkpt lat="49.17383" lon="0.04374">
        <ele>47.6</ele>
        <time>2024-03-03T07:59:16Z</time>
      </trkpt>
      <trkpt lat="49.17378" lon="0.04378">
        <ele>47.9</ele>
        <time>2024-03-03T07:59:17Z</time>
      </trkpt>
      <trkpt lat="49.17372" lon="0.04382">
        <ele>48.2</ele>
        <time>2024-03-03T07:59:18Z</time>
      </trkpt>
      <trkpt lat="49.17367" lon="0.04385">
        <ele>48.4</ele>
        <time>2024-03-03T07:59:19Z</time>
      </trkpt>
      <trkpt lat="49.17362" lon="0.04389">
        <ele>48.7</ele>
        <time>2024-03-03T07:59:20Z</time>
      </trkpt>
      <trkpt lat="49.17357" lon="0.04394">
        <ele>49</ele>
        <time>2024-03-03T07:59:21Z</time>
      </trkpt>
      <trkpt lat="49.17353" lon="0.044">
        <ele>49.2</ele>
        <time>2024-03-03T07:59:22Z</time>
      </trkpt>
      <trkpt lat="49.1735" lon="0.04407">
        <ele>49.4</ele>
        <time>2024-03-03T07:59:23Z</time>
      </trkpt>
      <trkpt lat="49.17346" lon="0.04413">
        <ele>49.6</ele>
        <time>2024-03-03T07:59:24Z</time>
      </trkpt>
      <trkpt lat="49.17343" lon="0.0442">
        <ele>49.9</ele>
        <time>2024-03-03T07:59:25Z</time>
      </trkpt>
      <trkpt lat="49.1734" lon="0.04427">
        <ele>50.1</ele>
        <time>2024-03-03T07:59:26Z</time>
      </trkpt>
      <trkpt lat="49.17336" lon="0.04434">
        <ele>50.3</ele>
        <time>2024-03-03T07:59:27Z</time>
      </trkpt>
      <trkpt lat="49.17333" lon="0.0444">
        <ele>50.5</ele>
        <time>2024-03-03T07:59:28Z</time>
      </trkpt>
      <trkpt lat="49.1733" lon="0.04447">
        <ele>50.7</ele>
        <time>2024-03-03T07:59:29Z</time>
      </trkpt>
      <trkpt lat="49.17327" lon="0.04453">
        <ele>50.9</ele>
        <time>2024-03-03T07:59:30Z</time>
      </trkpt>
      <trkpt lat="49.17324" lon="0.04459">
        <ele>51</ele>
        <time>2024-03-03T07:59:31Z</time>
      </trkpt>
      <trkpt lat="49.17322" lon="0.04465">
        <ele>51.2</ele>
        <time>2024-03-03T07:59:32Z</time>
      </trkpt>
      <trkpt lat="49.1732" lon="0.0447">
        <ele>51.4</ele>
        <time>2024-03-03T07:59:33Z</time>
      </trkpt>
      <trkpt lat="49.17318" lon="0.04475">
        <ele>51.6</ele>
        <time>2024-03-03T07:59:34Z</time>
      </trkpt>
      <trkpt lat="49.17316" lon="0.04479">
        <ele>51.7</ele>
        <time>2024-03-03T07:59:35Z</time>
      </trkpt>
      <trkpt lat="49.17314" lon="0.04484">
        <ele>51.9</ele>
        <time>2024-03-03T07:59:36Z</time>
      </trkpt>
      <trkpt lat="49.17311" lon="0.0449">
        <ele>52.1</ele>
        <time>2024-03-03T07:59:37Z</time>
      </trkpt>
      <trkpt lat="49.17307" lon="0.04496">
        <ele>52.4</ele>
        <time>2024-03-03T07:59:38Z</time>
      </trkpt>
      <trkpt lat="49.17304" lon="0.045">
        <ele>52.6</ele>
        <time>2024-03-03T07:59:39Z</time>
      </trkpt>
      <trkpt lat="49.17302" lon="0.04504">
        <ele>52.8</ele>
        <time>2024-03-03T07:59:40Z</time>
      </trkpt>
      <trkpt lat="49.173" lon="0.04507">
        <ele>52.9</ele>
        <time>2024-03-03T07:59:41Z</time>
      </trkpt>
      <trkpt lat="49.17297" lon="0.04511">
        <ele>53.1</ele>
        <time>2024-03-03T07:59:42Z</time>
      </trkpt>
      <trkpt lat="49.17294" lon="0.04516">
        <ele>53.3</ele>
        <time>2024-03-03T07:59:43Z</time>
      </trkpt>
      <trkpt lat="49.17291" lon="0.04522">
        <ele>53.6</ele>
        <time>2024-03-03T07:59:44Z</time>
      </trkpt>
      <trkpt lat="49.17288" lon="0.04531">
        <ele>53.9</ele>
        <time>2024-03-03T07:59:45Z</time>
      </trkpt>
      <trkpt lat="49.17285" lon="0.04539">
        <ele>54.2</ele>
        <time>2024-03-03T07:59:46Z</time>
      </trkpt>
      <trkpt lat="49.17282" lon="0.04547">
        <ele>54.5</ele>
        <time>2024-03-03T07:59:47Z</time>
      </trkpt>
      <trkpt lat="49.17281" lon="0.04556">
        <ele>54.7</ele>
        <time>2024-03-03T07:59:48Z</time>
      </trkpt>
      <trkpt lat="49.17279" lon="0.04564">
        <ele>54.8</ele>
        <time>2024-03-03T07:59:49Z</time>
      </trkpt>
      <trkpt lat="49.17277" lon="0.04573">
        <ele>54.9</ele>
        <time>2024-03-03T07:59:50Z</time>
      </trkpt>
      <trkpt lat="49.17275" lon="0.04582">
        <ele>54.9</ele>
        <time>2024-03-03T07:59:51Z</time>
      </trkpt>
      <trkpt lat="49.17272" lon="0.04591">
        <ele>54.9</ele>
        <time>2024-03-03T07:59:52Z</time>
      </trkpt>
      <trkpt lat="49.1727" lon="0.04601">
        <ele>54.9</ele>
        <time>2024-03-03T07:59:53Z</time>
      </trkpt>
      <trkpt lat="49.17268" lon="0.04612">
        <ele>54.8</ele>
        <time>2024-03-03T07:59:54Z</time>
      </trkpt>
      <trkpt lat="49.17265" lon="0.04622">
        <ele>54.8</ele>
        <time>2024-03-03T07:59:55Z</time>
      </trkpt>
      <trkpt lat="49.17262" lon="0.04633">
        <ele>54.8</ele>
        <time>2024-03-03T07:59:56Z</time>
      </trkpt>
      <trkpt lat="49.17259" lon="0.04643">
        <ele>54.7</ele>
        <time>2024-03-03T07:59:57Z</time>
      </trkpt>
      <trkpt lat="49.17256" lon="0.04652">
        <ele>54.7</ele>
        <time>2024-03-03T07:59:58Z</time>
      </trkpt>
      <trkpt lat="49.17253" lon="0.04662">
        <ele>54.6</ele>
        <time>2024-03-03T07:59:59Z</time>
      </trkpt>
      <trkpt lat="49.17249" lon="0.0467">
        <ele>54.5</ele>
        <time>2024-03-03T08:00:00Z</time>
      </trkpt>
      <trkpt lat="49.17246" lon="0.0468">
        <ele>54.4</ele>
        <time>2024-03-03T08:00:01Z</time>
      </trkpt>
      <trkpt lat="49.17243" lon="0.0469">
        <ele>54.3</ele>
        <time>2024-03-03T08:00:02Z</time>
      </trkpt>
      <trkpt lat="49.17239" lon="0.047">
        <ele>54.2</ele>
        <time>2024-03-03T08:00:03Z</time>
      </trkpt>
      <trkpt lat="49.17236" lon="0.04709">
        <ele>54.1</ele>
        <time>2024-03-03T08:00:04Z</time>
      </trkpt>
      <trkpt lat="49.17233" lon="0.04719">
        <ele>54</ele>
        <time>2024-03-03T08:00:05Z</time>
      </trkpt>
      <trkpt lat="49.17231" lon="0.0473">
        <ele>53.8</ele>
        <time>2024-03-03T08:00:06Z</time>
      </trkpt>
      <trkpt lat="49.17228" lon="0.0474">
        <ele>53.7</ele>
        <time>2024-03-03T08:00:07Z</time>
      </trkpt>
      <trkpt lat="49.17225" lon="0.0475">
        <ele>53.5</ele>
        <time>2024-03-03T08:00:08Z</time>
      </trkpt>
      <trkpt lat="49.17222" lon="0.04761">
        <ele>53.4</ele>
        <time>2024-03-03T08:00:09Z</time>
      </trkpt>
      <trkpt lat="49.17219" lon="0.04771">
        <ele>53.2</ele>
        <time>2024-03-03T08:00:10Z</time>
      </trkpt>
      <trkpt lat="49.17215" lon="0.0478">
        <ele>53</ele>
        <time>2024-03-03T08:00:11Z</time>
      </trkpt>
      <trkpt lat="49.17212" lon="0.0479">
        <ele>52.8</ele>
        <time>2024-03-03T08:00:12Z</time>
      </trkpt>
      <trkpt lat="49.17209" lon="0.048">
        <ele>52.7</ele>
        <time>2024-03-03T08:00:13Z</time>
      </trkpt>
      <trkpt lat="49.17206" lon="0.04809">
        <ele>52.6</ele>
        <time>2024-03-03T08:00:14Z</time>
      </trkpt>
      <trkpt lat="49.17203" lon="0.0482">
        <ele>52.4</ele>
        <time>2024-03-03T08:00:15Z</time>
      </trkpt>
      <trkpt lat="49.172" lon="0.0483">
        <ele>52.3</ele>
        <time>2024-03-03T08:00:16Z</time>
      </trkpt>
      <trkpt lat="49.17198" lon="0.0484">
        <ele>52.1</ele>
        <time>2024-03-03T08:00:17Z</time>
      </trkpt>
      <trkpt lat="49.17195" lon="0.04849">
        <ele>52</ele>
        <time>2024-03-03T08:00:18Z</time>
      </trkpt>
      <trkpt lat="49.17192" lon="0.04859">
        <ele>51.9</ele>
        <time>2024-03-03T08:00:19Z</time>
      </trkpt>
      <trkpt lat="49.17189" lon="0.04869">
        <ele>51.8</ele>
        <time>2024-03-03T08:00:20Z</time>
      </trkpt>
      <trkpt lat="49.17186" lon="0.04879">
        <ele>51.7</ele>
        <time>2024-03-03T08:00:21Z</time>
      </trkpt>
      <trkpt lat="49.17184" lon="0.04888">
        <ele>51.7</ele>
        <time>2024-03-03T08:00:22Z</time>
      </trkpt>
      <trkpt lat="49.17182" lon="0.04897">
        <ele>51.7</ele>
        <time>2024-03-03T08:00:23Z</time>
      </trkpt>
      <trkpt lat="49.17179" lon="0.04906">
        <ele>51.7</ele>
        <time>2024-03-03T08:00:24Z</time>
      </trkpt>
      <trkpt lat="49.17177" lon="0.04915">
        <ele>51.7</ele>
        <time>2024-03-03T08:00:25Z</time>
      </trkpt>
      <trkpt lat="49.17174" lon="0.04924">
        <ele>51.7</ele>
        <time>2024-03-03T08:00:26Z</time>
      </trkpt>
      <trkpt lat="49.17171" lon="0.04932">
        <ele>51.8</ele>
        <time>2024-03-03T08:00:27Z</time>
      </trkpt>
      <trkpt lat="49.17168" lon="0.04942">
        <ele>51.8</ele>
        <time>2024-03-03T08:00:28Z</time>
      </trkpt>
      <trkpt lat="49.17165" lon="0.0495">
        <ele>51.9</ele>
        <time>2024-03-03T08:00:29Z</time>
      </trkpt>
      <trkpt lat="49.17162" lon="0.04958">
        <ele>52</ele>
        <time>2024-03-03T08:00:30Z</time>
      </trkpt>
      <trkpt lat="49.17159" lon="0.04967">
        <ele>52.2</ele>
        <time>2024-03-03T08:00:31Z</time>
      </trkpt>
      <trkpt lat="49.17156" lon="0.04975">
        <ele>52.4</ele>
        <time>2024-03-03T08:00:32Z</time>
      </trkpt>
      <trkpt lat="49.17153" lon="0.04983">
        <ele>52.5</ele>
        <time>2024-03-03T08:00:33Z</time>
      </trkpt>
      <trkpt lat="49.1715" lon="0.04991">
        <ele>52.7</ele>
        <time>2024-03-03T08:00:34Z</time>
      </trkpt>
      <trkpt lat="49.17147" lon="0.04999">
        <ele>53</ele>
        <time>2024-03-03T08:00:35Z</time>
      </trkpt>
      <trkpt lat="49.17144" lon="0.05008">
        <ele>53.2</ele>
        <time>2024-03-03T08:00:36Z</time>
      </trkpt>
      <trkpt lat="49.17141" lon="0.05015">
        <ele>53.6</ele>
        <time>2024-03-03T08:00:37Z</time>
      </trkpt>
      <trkpt lat="49.17139" lon="0.05023">
        <ele>53.9</ele>
        <time>2024-03-03T08:00:38Z</time>
      </trkpt>
      <trkpt lat="49.17135" lon="0.05031">
        <ele>54.2</ele>
        <time>2024-03-03T08:00:39Z</time>
      </trkpt>
      <trkpt lat="49.17133" lon="0.05038">
        <ele>54.6</ele>
        <time>2024-03-03T08:00:40Z</time>
      </trkpt>
      <trkpt lat="49.1713" lon="0.05045">
        <ele>54.9</ele>
        <time>2024-03-03T08:00:41Z</time>
      </trkpt>
      <trkpt lat="49.17127" lon="0.05052">
        <ele>55.2</ele>
        <time>2024-03-03T08:00:42Z</time>
      </trkpt>
      <trkpt lat="49.17125" lon="0.05058">
        <ele>55.5</ele>
        <time>2024-03-03T08:00:43Z</time>
      </trkpt>
      <trkpt lat="49.17122" lon="0.05064">
        <ele>55.7</ele>
        <time>2024-03-03T08:00:44Z</time>
      </trkpt>
      <trkpt lat="49.17119" lon="0.05068">
        <ele>56</ele>
        <time>2024-03-03T08:00:45Z</time>
      </trkpt>
      <trkpt lat="49.17116" lon="0.05074">
        <ele>56.2</ele>
        <time>2024-03-03T08:00:46Z</time>
      </trkpt>
      <trkpt lat="49.17112" lon="0.05079">
        <ele>56.4</ele>
        <time>2024-03-03T08:00:47Z</time>
      </trkpt>
      <trkpt lat="49.17109" lon="0.05085">
        <ele>56.6</ele>
        <time>2024-03-03T08:00:48Z</time>
      </trkpt>
      <trkpt lat="49.17106" lon="0.05091">
        <ele>56.8</ele>
        <time>2024-03-03T08:00:49Z</time>
      </trkpt>
      <trkpt lat="49.17104" lon="0.05098">
        <ele>57</ele>
        <time>2024-03-03T08:00:50Z</time>
      </trkpt>
      <trkpt lat="49.17101" lon="0.05105">
        <ele>57.1</ele>
        <time>2024-03-03T08:00:51Z</time>
      </trkpt>
      <trkpt lat="49.17099" lon="0.05113">
        <ele>57.2</ele>
        <time>2024-03-03T08:00:52Z</time>
      </trkpt>
      <trkpt lat="49.17096" lon="0.0512">
        <ele>57.3</ele>
        <time>2024-03-03T08:00:53Z</time>
      </trkpt>
      <trkpt lat="49.17094" lon="0.05128">
        <ele>57.4</ele>
        <time>2024-03-03T08:00:54Z</time>
      </trkpt>
      <trkpt lat="49.17091" lon="0.05137">
        <ele>57.5</ele>
        <time>2024-03-03T08:00:55Z</time>
      </trkpt>
      <trkpt lat="49.17089" lon="0.05146">
        <ele>57.5</ele>
        <time>2024-03-03T08:00:56Z</time>
      </trkpt>
      <trkpt lat="49.17087" lon="0.05155">
        <ele>57.5</ele>
        <time>2024-03-03T08:00:57Z</time>
      </trkpt>
      <trkpt lat="49.17085" lon="0.05164">
        <ele>57.5</ele>
        <time>2024-03-03T08:00:58Z</time>
      </trkpt>
      <trkpt lat="49.17083" lon="0.05171">
        <ele>57.4</ele>
        <time>2024-03-03T08:00:59Z</time>
      </trkpt>
      <trkpt lat="49.17081" lon="0.05179">
        <ele>57.2</ele>
        <time>2024-03-03T08:01:00Z</time>
      </trkpt>
      <trkpt lat="49.17078" lon="0.05185">
        <ele>57</ele>
        <time>2024-03-03T08:01:01Z</time>
      </trkpt>
      <trkpt lat="49.17077" lon="0.05193">
        <ele>56.6</ele>
        <time>2024-03-03T08:01:02Z</time>
      </trkpt>
      <trkpt lat="49.17077" lon="0.05204">
        <ele>56</ele>
        <time>2024-03-03T08:01:03Z</time>
      </trkpt>
      <trkpt lat="49.1708" lon="0.05215">
        <ele>55.2</ele>
        <time>2024-03-03T08:01:04Z</time>
      </trkpt>
      <trkpt lat="49.17086" lon="0.05224">
        <ele>54.2</ele>
        <time>2024-03-03T08:01:05Z</time>
      </trkpt>
      <trkpt lat="49.17093" lon="0.05231">
        <ele>53.1</ele>
        <time>2024-03-03T08:01:06Z</time>
      </trkpt>
      <trkpt lat="49.171" lon="0.05235">
        <ele>52.1</ele>
        <time>2024-03-03T08:01:07Z</time>
      </trkpt>
      <trkpt lat="49.17108" lon="0.05238">
        <ele>51</ele>
        <time>2024-03-03T08:01:08Z</time>
      </trkpt>
      <trkpt lat="49.17117" lon="0.05239">
        <ele>49.9</ele>
        <time>2024-03-03T08:01:09Z</time>
      </trkpt>
      <trkpt lat="49.17126" lon="0.05241">
        <ele>48.8</ele>
        <time>2024-03-03T08:01:10Z</time>
      </trkpt>
      <trkpt lat="49.17135" lon="0.05243">
        <ele>48</ele>
        <time>2024-03-03T08:01:11Z</time>
      </trkpt>
      <trkpt lat="49.17144" lon="0.05245">
        <ele>47.3</ele>
        <time>2024-03-03T08:01:12Z</time>
      </trkpt>
      <trkpt lat="49.17152" lon="0.05247">
        <ele>46.8</ele>
        <time>2024-03-03T08:01:13Z</time>
      </trkpt>
      <trkpt lat="49.17161" lon="0.05248">
        <ele>46.6</ele>
        <time>2024-03-03T08:01:14Z</time>
      </trkpt>
      <trkpt lat="49.17169" lon="0.05249">
        <ele>46.5</ele>
        <time>2024-03-03T08:01:15Z</time>
      </trkpt>
      <trkpt lat="49.17176" lon="0.0525">
        <ele>46.4</ele>
        <time>2024-03-03T08:01:16Z</time>
      </trkpt>
      <trkpt lat="49.17182" lon="0.05252">
        <ele>46.4</ele>
        <time>2024-03-03T08:01:17Z</time>
      </trkpt>
      <trkpt lat="49.17187" lon="0.05255">
        <ele>46.3</ele>
        <time>2024-03-03T08:01:18Z</time>
      </trkpt>
      <trkpt lat="49.17192" lon="0.05262">
        <ele>46.3</ele>
        <time>2024-03-03T08:01:19Z</time>
      </trkpt>
      <trkpt lat="49.17196" lon="0.05271">
        <ele>46.3</ele>
        <time>2024-03-03T08:01:20Z</time>
      </trkpt>
      <trkpt lat="49.17198" lon="0.05282">
        <ele>46.3</ele>
        <time>2024-03-03T08:01:21Z</time>
      </trkpt>
      <trkpt lat="49.172" lon="0.05293">
        <ele>46.4</ele>
        <time>2024-03-03T08:01:22Z</time>
      </trkpt>
      <trkpt lat="49.17202" lon="0.05304">
        <ele>46.5</ele>
        <time>2024-03-03T08:01:23Z</time>
      </trkpt>
      <trkpt lat="49.17204" lon="0.05315">
        <ele>46.7</ele>
        <time>2024-03-03T08:01:24Z</time>
      </trkpt>
      <trkpt lat="49.17206" lon="0.05326">
        <ele>46.9</ele>
        <time>2024-03-03T08:01:25Z</time>
      </trkpt>
      <trkpt lat="49.17208" lon="0.05335">
        <ele>47.2</ele>
        <time>2024-03-03T08:01:26Z</time>
      </trkpt>
      <trkpt lat="49.1721" lon="0.05344">
        <ele>47.5</ele>
        <time>2024-03-03T08:01:27Z</time>
      </trkpt>
      <trkpt lat="49.17211" lon="0.05353">
        <ele>47.8</ele>
        <time>2024-03-03T08:01:28Z</time>
      </trkpt>
      <trkpt lat="49.17212" lon="0.05363">
        <ele>48.1</ele>
        <time>2024-03-03T08:01:29Z</time>
      </trkpt>
      <trkpt lat="49.17214" lon="0.05371">
        <ele>48.4</ele>
        <time>2024-03-03T08:01:30Z</time>
      </trkpt>
      <trkpt lat="49.17214" lon="0.0538">
        <ele>48.7</ele>
        <time>2024-03-03T08:01:31Z</time>
      </trkpt>
      <trkpt lat="49.17214" lon="0.05388">
        <ele>48.9</ele>
        <time>2024-03-03T08:01:32Z</time>
      </trkpt>
      <trkpt lat="49.17213" lon="0.05396">
        <ele>49.1</ele>
        <time>2024-03-03T08:01:33Z</time>
      </trkpt>
      <trkpt lat="49.17211" lon="0.05404">
        <ele>49.3</ele>
        <time>2024-03-03T08:01:34Z</time>
      </trkpt>
      <trkpt lat="49.17209" lon="0.05412">
        <ele>49.5</ele>
        <time>2024-03-03T08:01:35Z</time>
      </trkpt>
      <trkpt lat="49.17207" lon="0.0542">
        <ele>49.7</ele>
        <time>2024-03-03T08:01:36Z</time>
      </trkpt>
      <trkpt lat="49.17205" lon="0.05428">
        <ele>49.9</ele>
        <time>2024-03-03T08:01:37Z</time>
      </trkpt>
      <trkpt lat="49.17203" lon="0.05436">
        <ele>50.1</ele>
        <time>2024-03-03T08:01:38Z</time>
      </trkpt>
      <trkpt lat="49.17201" lon="0.05444">
        <ele>50.3</ele>
        <time>2024-03-03T08:01:39Z</time>
      </trkpt>
      <trkpt lat="49.17198" lon="0.05453">
        <ele>50.6</ele>
        <time>2024-03-03T08:01:40Z</time>
      </trkpt>
      <trkpt lat="49.17196" lon="0.05461">
        <ele>50.8</ele>
        <time>2024-03-03T08:01:41Z</time>
      </trkpt>
      <trkpt lat="49.17194" lon="0.05469">
        <ele>51</ele>
        <time>2024-03-03T08:01:42Z</time>
      </trkpt>
      <trkpt lat="49.17192" lon="0.05477">
        <ele>51.3</ele>
        <time>2024-03-03T08:01:43Z</time>
      </trkpt>
      <trkpt lat="49.1719" lon="0.05484">
        <ele>51.5</ele>
        <time>2024-03-03T08:01:44Z</time>
      </trkpt>
      <trkpt lat="49.17188" lon="0.05492">
        <ele>51.7</ele>
        <time>2024-03-03T08:01:45Z</time>
      </trkpt>
      <trkpt lat="49.17186" lon="0.05499">
        <ele>52</ele>
        <time>2024-03-03T08:01:46Z</time>
      </trkpt>
      <trkpt lat="49.17184" lon="0.05506">
        <ele>52.2</ele>
        <time>2024-03-03T08:01:47Z</time>
      </trkpt>
      <trkpt lat="49.17182" lon="0.05513">
        <ele>52.5</ele>
        <time>2024-03-03T08:01:48Z</time>
      </trkpt>
      <trkpt lat="49.1718" lon="0.05519">
        <ele>52.7</ele>
        <time>2024-03-03T08:01:49Z</time>
      </trkpt>
      <trkpt lat="49.17178" lon="0.05526">
        <ele>52.9</ele>
        <time>2024-03-03T08:01:50Z</time>
      </trkpt>
      <trkpt lat="49.17178" lon="0.05533">
        <ele>53.2</ele>
        <time>2024-03-03T08:01:51Z</time>
      </trkpt>
      <trkpt lat="49.1718" lon="0.05542">
        <ele>53.4</ele>
        <time>2024-03-03T08:01:52Z</time>
      </trkpt>
      <trkpt lat="49.1718" lon="0.0555">
        <ele>53.6</ele>
        <time>2024-03-03T08:01:53Z</time>
      </trkpt>
      <trkpt lat="49.17181" lon="0.05558">
        <ele>53.5</ele>
        <time>2024-03-03T08:01:54Z</time>
      </trkpt>
      <trkpt lat="49.17181" lon="0.05566">
        <ele>53.5</ele>
        <time>2024-03-03T08:01:55Z</time>
      </trkpt>
      <trkpt lat="49.1718" lon="0.05574">
        <ele>53.4</ele>
        <time>2024-03-03T08:01:56Z</time>
      </trkpt>
      <trkpt lat="49.17179" lon="0.05582">
        <ele>53.3</ele>
        <time>2024-03-03T08:01:57Z</time>
      </trkpt>
      <trkpt lat="49.17177" lon="0.0559">
        <ele>53.2</ele>
        <time>2024-03-03T08:01:58Z</time>
      </trkpt>
      <trkpt lat="49.17175" lon="0.05599">
        <ele>53</ele>
        <time>2024-03-03T08:01:59Z</time>
      </trkpt>
      <trkpt lat="49.17172" lon="0.05608">
        <ele>52.8</ele>
        <time>2024-03-03T08:02:00Z</time>
      </trkpt>
      <trkpt lat="49.17169" lon="0.05618">
        <ele>52.6</ele>
        <time>2024-03-03T08:02:01Z</time>
      </trkpt>
      <trkpt lat="49.17166" lon="0.05627">
        <ele>52.4</ele>
        <time>2024-03-03T08:02:02Z</time>
      </trkpt>
      <trkpt lat="49.17164" lon="0.05637">
        <ele>52.2</ele>
        <time>2024-03-03T08:02:03Z</time>
      </trkpt>
      <trkpt lat="49.17161" lon="0.05646">
        <ele>52</ele>
        <time>2024-03-03T08:02:04Z</time>
      </trkpt>
      <trkpt lat="49.17158" lon="0.05656">
        <ele>51.9</ele>
        <time>2024-03-03T08:02:05Z</time>
      </trkpt>
      <trkpt lat="49.17156" lon="0.05665">
        <ele>51.8</ele>
        <time>2024-03-03T08:02:06Z</time>
      </trkpt>
      <trkpt lat="49.17153" lon="0.05674">
        <ele>51.6</ele>
        <time>2024-03-03T08:02:07Z</time>
      </trkpt>
      <trkpt lat="49.1715" lon="0.05683">
        <ele>51.5</ele>
        <time>2024-03-03T08:02:08Z</time>
      </trkpt>
      <trkpt lat="49.17147" lon="0.05692">
        <ele>51.4</ele>
        <time>2024-03-03T08:02:09Z</time>
      </trkpt>
      <trkpt lat="49.17144" lon="0.05701">
        <ele>51.3</ele>
        <time>2024-03-03T08:02:10Z</time>
      </trkpt>
      <trkpt lat="49.17141" lon="0.0571">
        <ele>51.1</ele>
        <time>2024-03-03T08:02:11Z</time>
      </trkpt>
      <trkpt lat="49.17139" lon="0.05719">
        <ele>51</ele>
        <time>2024-03-03T08:02:12Z</time>
      </trkpt>
      <trkpt lat="49.17136" lon="0.05729">
        <ele>50.9</ele>
        <time>2024-03-03T08:02:13Z</time>
      </trkpt>
      <trkpt lat="49.17133" lon="0.05738">
        <ele>50.9</ele>
        <time>2024-03-03T08:02:14Z</time>
      </trkpt>
      <trkpt lat="49.17131" lon="0.05747">
        <ele>50.9</ele>
        <time>2024-03-03T08:02:15Z</time>
      </trkpt>
      <trkpt lat="49.17128" lon="0.05756">
        <ele>50.9</ele>
        <time>2024-03-03T08:02:16Z</time>
      </trkpt>
      <trkpt lat="49.17125" lon="0.05765">
        <ele>50.9</ele>
        <time>2024-03-03T08:02:17Z</time>
      </trkpt>
      <trkpt lat="49.17122" lon="0.05773">
        <ele>51</ele>
        <time>2024-03-03T08:02:18Z</time>
      </trkpt>
      <trkpt lat="49.17119" lon="0.05781">
        <ele>51.2</ele>
        <time>2024-03-03T08:02:19Z</time>
      </trkpt>
      <trkpt lat="49.17116" lon="0.05789">
        <ele>51.4</ele>
        <time>2024-03-03T08:02:20Z</time>
      </trkpt>
      <trkpt lat="49.17113" lon="0.05796">
        <ele>51.7</ele>
        <time>2024-03-03T08:02:21Z</time>
      </trkpt>
      <trkpt lat="49.17111" lon="0.05804">
        <ele>52</ele>
        <time>2024-03-03T08:02:22Z</time>
      </trkpt>
      <trkpt lat="49.1711" lon="0.05811">
        <ele>52.3</ele>
        <time>2024-03-03T08:02:23Z</time>
      </trkpt>
      <trkpt lat="49.17109" lon="0.05817">
        <ele>52.6</ele>
        <time>2024-03-03T08:02:24Z</time>
      </trkpt>
      <trkpt lat="49.1711" lon="0.05824">
        <ele>52.8</ele>
        <time>2024-03-03T08:02:25Z</time>
      </trkpt>
      <trkpt lat="49.17112" lon="0.0583">
        <ele>53.1</ele>
        <time>2024-03-03T08:02:26Z</time>
      </trkpt>
      <trkpt lat="49.17115" lon="0.05836">
        <ele>53.3</ele>
        <time>2024-03-03T08:02:27Z</time>
      </trkpt>
      <trkpt lat="49.17117" lon="0.05844">
        <ele>53.6</ele>
        <time>2024-03-03T08:02:28Z</time>
      </trkpt>
      <trkpt lat="49.1712" lon="0.0585">
        <ele>53.8</ele>
        <time>2024-03-03T08:02:29Z</time>
      </trkpt>
      <trkpt lat="49.17123" lon="0.05855">
        <ele>54.1</ele>
        <time>2024-03-03T08:02:30Z</time>
      </trkpt>
      <trkpt lat="49.17125" lon="0.05861">
        <ele>54.4</ele>
        <time>2024-03-03T08:02:31Z</time>
      </trkpt>
      <trkpt lat="49.17128" lon="0.05866">
        <ele>54.7</ele>
        <time>2024-03-03T08:02:32Z</time>
      </trkpt>
      <trkpt lat="49.17131" lon="0.05872">
        <ele>55.1</ele>
        <time>2024-03-03T08:02:33Z</time>
      </trkpt>
      <trkpt lat="49.17134" lon="0.05877">
        <ele>55.5</ele>
        <time>2024-03-03T08:02:34Z</time>
      </trkpt>
      <trkpt lat="49.17136" lon="0.05883">
        <ele>56</ele>
        <time>2024-03-03T08:02:35Z</time>
      </trkpt>
      <trkpt lat="49.17139" lon="0.05888">
        <ele>56.5</ele>
        <time>2024-03-03T08:02:36Z</time>
      </trkpt>
      <trkpt lat="49.17141" lon="0.05894">
        <ele>57</ele>
        <time>2024-03-03T08:02:37Z</time>
      </trkpt>
      <trkpt lat="49.17143" lon="0.05898">
        <ele>57.4</ele>
        <time>2024-03-03T08:02:38Z</time>
      </trkpt>
      <trkpt lat="49.17144" lon="0.05903">
        <ele>57.8</ele>
        <time>2024-03-03T08:02:39Z</time>
      </trkpt>
      <trkpt lat="49.17145" lon="0.05908">
        <ele>58.2</ele>
        <time>2024-03-03T08:02:40Z</time>
      </trkpt>
      <trkpt lat="49.17147" lon="0.05912">
        <ele>58.6</ele>
        <time>2024-03-03T08:02:41Z</time>
      </trkpt>
      <trkpt lat="49.17148" lon="0.05917">
        <ele>59.1</ele>
        <time>2024-03-03T08:02:42Z</time>
      </trkpt>
      <trkpt lat="49.17149" lon="0.05922">
        <ele>59.5</ele>
        <time>2024-03-03T08:02:43Z</time>
      </trkpt>
      <trkpt lat="49.1715" lon="0.05926">
        <ele>59.9</ele>
        <time>2024-03-03T08:02:44Z</time>
      </trkpt>
      <trkpt lat="49.17151" lon="0.0593">
        <ele>60.3</ele>
        <time>2024-03-03T08:02:45Z</time>
      </trkpt>
      <trkpt lat="49.17152" lon="0.05935">
        <ele>60.8</ele>
        <time>2024-03-03T08:02:46Z</time>
      </trkpt>
      <trkpt lat="49.17153" lon="0.05939">
        <ele>61.2</ele>
        <time>2024-03-03T08:02:47Z</time>
      </trkpt>
      <trkpt lat="49.17154" lon="0.05944">
        <ele>61.6</ele>
        <time>2024-03-03T08:02:48Z</time>
      </trkpt>
      <trkpt lat="49.17156" lon="0.05948">
        <ele>62.1</ele>
        <time>2024-03-03T08:02:49Z</time>
      </trkpt>
      <trkpt lat="49.17157" lon="0.05952">
        <ele>62.5</ele>
        <time>2024-03-03T08:02:50Z</time>
      </trkpt>
      <trkpt lat="49.17158" lon="0.05956">
        <ele>62.9</ele>
        <time>2024-03-03T08:02:51Z</time>
      </trkpt>
      <trkpt lat="49.17159" lon="0.0596">
        <ele>63.3</ele>
        <time>2024-03-03T08:02:52Z</time>
      </trkpt>
      <trkpt lat="49.1716" lon="0.05966">
        <ele>63.8</ele>
        <time>2024-03-03T08:02:53Z</time>
      </trkpt>
      <trkpt lat="49.1716" lon="0.05968">
        <ele>63.9</ele>
        <time>2024-03-03T08:02:54Z</time>
      </trkpt>
      <trkpt lat="49.17161" lon="0.05973">
        <ele>64.4</ele>
        <time>2024-03-03T08:02:55Z</time>
      </trkpt>
      <trkpt lat="49.17162" lon="0.05976">
        <ele>64.6</ele>
        <time>2024-03-03T08:02:56Z</time>
      </trkpt>
      <trkpt lat="49.17161" lon="0.0598">
        <ele>64.6</ele>
        <time>2024-03-03T08:02:57Z</time>
      </trkpt>
      <trkpt lat="49.1716" lon="0.05984">
        <ele>64.5</ele>
        <time>2024-03-03T08:02:58Z</time>
      </trkpt>
      <trkpt lat="49.17158" lon="0.05989">
        <ele>64.5</ele>
        <time>2024-03-03T08:02:59Z</time>
      </trkpt>
      <trkpt lat="49.17156" lon="0.05994">
        <ele>64.5</ele>
        <time>2024-03-03T08:03:00Z</time>
      </trkpt>
      <trkpt lat="49.17154" lon="0.06">
        <ele>64.4</ele>
        <time>2024-03-03T08:03:01Z</time>
      </trkpt>
      <trkpt lat="49.17151" lon="0.06007">
        <ele>64.4</ele>
        <time>2024-03-03T08:03:02Z</time>
      </trkpt>
      <trkpt lat="49.17148" lon="0.06014">
        <ele>64.3</ele>
        <time>2024-03-03T08:03:03Z</time>
      </trkpt>
      <trkpt lat="49.17145" lon="0.06022">
        <ele>64.2</ele>
        <time>2024-03-03T08:03:04Z</time>
      </trkpt>
      <trkpt lat="49.17142" lon="0.0603">
        <ele>64.2</ele>
        <time>2024-03-03T08:03:05Z</time>
      </trkpt>
      <trkpt lat="49.17139" lon="0.06039">
        <ele>64.1</ele>
        <time>2024-03-03T08:03:06Z</time>
      </trkpt>
      <trkpt lat="49.17136" lon="0.06047">
        <ele>64.1</ele>
        <time>2024-03-03T08:03:07Z</time>
      </trkpt>
      <trkpt lat="49.17133" lon="0.06055">
        <ele>64.1</ele>
        <time>2024-03-03T08:03:08Z</time>
      </trkpt>
      <trkpt lat="49.1713" lon="0.06063">
        <ele>64</ele>
        <time>2024-03-03T08:03:09Z</time>
      </trkpt>
      <trkpt lat="49.17127" lon="0.06071">
        <ele>64</ele>
        <time>2024-03-03T08:03:10Z</time>
      </trkpt>
      <trkpt lat="49.17124" lon="0.0608">
        <ele>63.9</ele>
        <time>2024-03-03T08:03:11Z</time>
      </trkpt>
      <trkpt lat="49.17122" lon="0.06088">
        <ele>63.9</ele>
        <time>2024-03-03T08:03:12Z</time>
      </trkpt>
      <trkpt lat="49.17119" lon="0.06097">
        <ele>63.8</ele>
        <time>2024-03-03T08:03:13Z</time>
      </trkpt>
      <trkpt lat="49.17116" lon="0.06106">
        <ele>63.7</ele>
        <time>2024-03-03T08:03:14Z</time>
      </trkpt>
      <trkpt lat="49.17114" lon="0.06114">
        <ele>63.7</ele>
        <time>2024-03-03T08:03:15Z</time>
      </trkpt>
      <trkpt lat="49.17111" lon="0.06122">
        <ele>63.6</ele>
        <time>2024-03-03T08:03:16Z</time>
      </trkpt>
      <trkpt lat="49.17108" lon="0.06131">
        <ele>63.6</ele>
        <time>2024-03-03T08:03:17Z</time>
      </trkpt>
      <trkpt lat="49.17105" lon="0.06139">
        <ele>63.5</ele>
        <time>2024-03-03T08:03:18Z</time>
      </trkpt>
      <trkpt lat="49.17103" lon="0.06148">
        <ele>63.5</ele>
        <time>2024-03-03T08:03:19Z</time>
      </trkpt>
      <trkpt lat="49.17101" lon="0.06157">
        <ele>63.5</ele>
        <time>2024-03-03T08:03:20Z</time>
      </trkpt>
      <trkpt lat="49.17099" lon="0.06166">
        <ele>63.5</ele>
        <time>2024-03-03T08:03:21Z</time>
      </trkpt>
      <trkpt lat="49.17097" lon="0.06174">
        <ele>63.6</ele>
        <time>2024-03-03T08:03:22Z</time>
      </trkpt>
      <trkpt lat="49.17096" lon="0.06183">
        <ele>63.6</ele>
        <time>2024-03-03T08:03:23Z</time>
      </trkpt>
      <trkpt lat="49.17095" lon="0.06192">
        <ele>63.7</ele>
        <time>2024-03-03T08:03:24Z</time>
      </trkpt>
      <trkpt lat="49.17094" lon="0.062">
        <ele>63.8</ele>
        <time>2024-03-03T08:03:25Z</time>
      </trkpt>
      <trkpt lat="49.17093" lon="0.06209">
        <ele>63.8</ele>
        <time>2024-03-03T08:03:26Z</time>
      </trkpt>
      <trkpt lat="49.17092" lon="0.06217">
        <ele>63.9</ele>
        <time>2024-03-03T08:03:27Z</time>
      </trkpt>
      <trkpt lat="49.17092" lon="0.06225">
        <ele>64</ele>
        <time>2024-03-03T08:03:28Z</time>
      </trkpt>
      <trkpt lat="49.17092" lon="0.06234">
        <ele>64.1</ele>
        <time>2024-03-03T08:03:29Z</time>
      </trkpt>
      <trkpt lat="49.17091" lon="0.06243">
        <ele>64.2</ele>
        <time>2024-03-03T08:03:30Z</time>
      </trkpt>
      <trkpt lat="49.17091" lon="0.06251">
        <ele>64.2</ele>
        <time>2024-03-03T08:03:31Z</time>
      </trkpt>
      <trkpt lat="49.17091" lon="0.0626">
        <ele>64.3</ele>
        <time>2024-03-03T08:03:32Z</time>
      </trkpt>
      <trkpt lat="49.1709" lon="0.06269">
        <ele>64.4</ele>
        <time>2024-03-03T08:03:33Z</time>
      </trkpt>
      <trkpt lat="49.17089" lon="0.06278">
        <ele>64.6</ele>
        <time>2024-03-03T08:03:34Z</time>
      </trkpt>
      <trkpt lat="49.17088" lon="0.06287">
        <ele>64.7</ele>
        <time>2024-03-03T08:03:35Z</time>
      </trkpt>
      <trkpt lat="49.17087" lon="0.06296">
        <ele>64.8</ele>
        <time>2024-03-03T08:03:36Z</time>
      </trkpt>
      <trkpt lat="49.17086" lon="0.06305">
        <ele>64.9</ele>
        <time>2024-03-03T08:03:37Z</time>
      </trkpt>
      <trkpt lat="49.17085" lon="0.06314">
        <ele>65</ele>
        <time>2024-03-03T08:03:38Z</time>
      </trkpt>
      <trkpt lat="49.17084" lon="0.06323">
        <ele>65.1</ele>
        <time>2024-03-03T08:03:39Z</time>
      </trkpt>
      <trkpt lat="49.17082" lon="0.06331">
        <ele>65.3</ele>
        <time>2024-03-03T08:03:40Z</time>
      </trkpt>
      <trkpt lat="49.17081" lon="0.06339">
        <ele>65.3</ele>
        <time>2024-03-03T08:03:41Z</time>
      </trkpt>
      <trkpt lat="49.1708" lon="0.06348">
        <ele>65.4</ele>
        <time>2024-03-03T08:03:42Z</time>
      </trkpt>
      <trkpt lat="49.17079" lon="0.06357">
        <ele>65.5</ele>
        <time>2024-03-03T08:03:43Z</time>
      </trkpt>
      <trkpt lat="49.17078" lon="0.06365">
        <ele>65.5</ele>
        <time>2024-03-03T08:03:44Z</time>
      </trkpt>
      <trkpt lat="49.17077" lon="0.06374">
        <ele>65.5</ele>
        <time>2024-03-03T08:03:45Z</time>
      </trkpt>
      <trkpt lat="49.17077" lon="0.06383">
        <ele>65.5</ele>
        <time>2024-03-03T08:03:46Z</time>
      </trkpt>
      <trkpt lat="49.17076" lon="0.06392">
        <ele>65.5</ele>
        <time>2024-03-03T08:03:47Z</time>
      </trkpt>
      <trkpt lat="49.17075" lon="0.06401">
        <ele>65.5</ele>
        <time>2024-03-03T08:03:48Z</time>
      </trkpt>
      <trkpt lat="49.17074" lon="0.0641">
        <ele>65.4</ele>
        <time>2024-03-03T08:03:49Z</time>
      </trkpt>
      <trkpt lat="49.17073" lon="0.06418">
        <ele>65.4</ele>
        <time>2024-03-03T08:03:50Z</time>
      </trkpt>
      <trkpt lat="49.17072" lon="0.06426">
        <ele>65.4</ele>
        <time>2024-03-03T08:03:51Z</time>
      </trkpt>
      <trkpt lat="49.17071" lon="0.06434">
        <ele>65.3</ele>
        <time>2024-03-03T08:03:52Z</time>
      </trkpt>
      <trkpt lat="49.1707" lon="0.06443">
        <ele>65.2</ele>
        <time>2024-03-03T08:03:53Z</time>
      </trkpt>
      <trkpt lat="49.1707" lon="0.06452">
        <ele>65.1</ele>
        <time>2024-03-03T08:03:54Z</time>
      </trkpt>
      <trkpt lat="49.1707" lon="0.06461">
        <ele>65</ele>
        <time>2024-03-03T08:03:55Z</time>
      </trkpt>
      <trkpt lat="49.17069" lon="0.0647">
        <ele>64.9</ele>
        <time>2024-03-03T08:03:56Z</time>
      </trkpt>
      <trkpt lat="49.17068" lon="0.06479">
        <ele>64.7</ele>
        <time>2024-03-03T08:03:57Z</time>
      </trkpt>
      <trkpt lat="49.17067" lon="0.06488">
        <ele>64.5</ele>
        <time>2024-03-03T08:03:58Z</time>
      </trkpt>
      <trkpt lat="49.17067" lon="0.06497">
        <ele>64.3</ele>
        <time>2024-03-03T08:03:59Z</time>
      </trkpt>
      <trkpt lat="49.17065" lon="0.06506">
        <ele>64</ele>
        <time>2024-03-03T08:04:00Z</time>
      </trkpt>
      <trkpt lat="49.17064" lon="0.06516">
        <ele>63.7</ele>
        <time>2024-03-03T08:04:01Z</time>
      </trkpt>
      <trkpt lat="49.17063" lon="0.06527">
        <ele>63.4</ele>
        <time>2024-03-03T08:04:02Z</time>
      </trkpt>
      <trkpt lat="49.17062" lon="0.06538">
        <ele>63.1</ele>
        <time>2024-03-03T08:04:03Z</time>
      </trkpt>
      <trkpt lat="49.17061" lon="0.06549">
        <ele>62.9</ele>
        <time>2024-03-03T08:04:04Z</time>
      </trkpt>
      <trkpt lat="49.17061" lon="0.0656">
        <ele>62.6</ele>
        <time>2024-03-03T08:04:05Z</time>
      </trkpt>
      <trkpt lat="49.17061" lon="0.06572">
        <ele>62.4</ele>
        <time>2024-03-03T08:04:06Z</time>
      </trkpt>
      <trkpt lat="49.17061" lon="0.06584">
        <ele>62.2</ele>
        <time>2024-03-03T08:04:07Z</time>
      </trkpt>
      <trkpt lat="49.17061" lon="0.06596">
        <ele>62.1</ele>
        <time>2024-03-03T08:04:08Z</time>
      </trkpt>
      <trkpt lat="49.17062" lon="0.06608">
        <ele>62</ele>
        <time>2024-03-03T08:04:09Z</time>
      </trkpt>
      <trkpt lat="49.17062" lon="0.06619">
        <ele>62</ele>
        <time>2024-03-03T08:04:10Z</time>
      </trkpt>
      <trkpt lat="49.17063" lon="0.0663">
        <ele>62</ele>
        <time>2024-03-03T08:04:11Z</time>
      </trkpt>
      <trkpt lat="49.17064" lon="0.06641">
        <ele>62</ele>
        <time>2024-03-03T08:04:12Z</time>
      </trkpt>
      <trkpt lat="49.17064" lon="0.06652">
        <ele>62.1</ele>
        <time>2024-03-03T08:04:13Z</time>
      </trkpt>
      <trkpt lat="49.17064" lon="0.06663">
        <ele>62.1</ele>
        <time>2024-03-03T08:04:14Z</time>
      </trkpt>
      <trkpt lat="49.17063" lon="0.06674">
        <ele>62.2</ele>
        <time>2024-03-03T08:04:15Z</time>
      </trkpt>
      <trkpt lat="49.17062" lon="0.06684">
        <ele>62.5</ele>
        <time>2024-03-03T08:04:16Z</time>
      </trkpt>
      <trkpt lat="49.17061" lon="0.06693">
        <ele>62.7</ele>
        <time>2024-03-03T08:04:17Z</time>
      </trkpt>
      <trkpt lat="49.17059" lon="0.06702">
        <ele>63</ele>
        <time>2024-03-03T08:04:18Z</time>
      </trkpt>
      <trkpt lat="49.17058" lon="0.06711">
        <ele>63.3</ele>
        <time>2024-03-03T08:04:19Z</time>
      </trkpt>
      <trkpt lat="49.17055" lon="0.06719">
        <ele>63.7</ele>
        <time>2024-03-03T08:04:20Z</time>
      </trkpt>
      <trkpt lat="49.17053" lon="0.06726">
        <ele>64</ele>
        <time>2024-03-03T08:04:21Z</time>
      </trkpt>
      <trkpt lat="49.1705" lon="0.06733">
        <ele>64.3</ele>
        <time>2024-03-03T08:04:22Z</time>
      </trkpt>
      <trkpt lat="49.17048" lon="0.0674">
        <ele>64.7</ele>
        <time>2024-03-03T08:04:23Z</time>
      </trkpt>
      <trkpt lat="49.17046" lon="0.06747">
        <ele>65</ele>
        <time>2024-03-03T08:04:24Z</time>
      </trkpt>
      <trkpt lat="49.17044" lon="0.06754">
        <ele>65.3</ele>
        <time>2024-03-03T08:04:25Z</time>
      </trkpt>
      <trkpt lat="49.17043" lon="0.06761">
        <ele>65.6</ele>
        <time>2024-03-03T08:04:26Z</time>
      </trkpt>
      <trkpt lat="49.17041" lon="0.06768">
        <ele>65.9</ele>
        <time>2024-03-03T08:04:27Z</time>
      </trkpt>
      <trkpt lat="49.1704" lon="0.06775">
        <ele>66.2</ele>
        <time>2024-03-03T08:04:28Z</time>
      </trkpt>
      <trkpt lat="49.17039" lon="0.06782">
        <ele>66.5</ele>
        <time>2024-03-03T08:04:29Z</time>
      </trkpt>
      <trkpt lat="49.17038" lon="0.0679">
        <ele>66.8</ele>
        <time>2024-03-03T08:04:30Z</time>
      </trkpt>
      <trkpt lat="49.17037" lon="0.06797">
        <ele>67.1</ele>
        <time>2024-03-03T08:04:31Z</time>
      </trkpt>
      <trkpt lat="49.17036" lon="0.06804">
        <ele>67.4</ele>
        <time>2024-03-03T08:04:32Z</time>
      </trkpt>
      <trkpt lat="49.17035" lon="0.06811">
        <ele>67.7</ele>
        <time>2024-03-03T08:04:33Z</time>
      </trkpt>
      <trkpt lat="49.17035" lon="0.06817">
        <ele>68</ele>
        <time>2024-03-03T08:04:34Z</time>
      </trkpt>
      <trkpt lat="49.17035" lon="0.06824">
        <ele>68.2</ele>
        <time>2024-03-03T08:04:35Z</time>
      </trkpt>
      <trkpt lat="49.17034" lon="0.0683">
        <ele>68.5</ele>
        <time>2024-03-03T08:04:36Z</time>
      </trkpt>
      <trkpt lat="49.17034" lon="0.06837">
        <ele>68.7</ele>
        <time>2024-03-03T08:04:37Z</time>
      </trkpt>
      <trkpt lat="49.17034" lon="0.06843">
        <ele>68.9</ele>
        <time>2024-03-03T08:04:38Z</time>
      </trkpt>
      <trkpt lat="49.17034" lon="0.0685">
        <ele>69.2</ele>
        <time>2024-03-03T08:04:39Z</time>
      </trkpt>
      <trkpt lat="49.17034" lon="0.06857">
        <ele>69.4</ele>
        <time>2024-03-03T08:04:40Z</time>
      </trkpt>
      <trkpt lat="49.17034" lon="0.06864">
        <ele>69.6</ele>
        <time>2024-03-03T08:04:41Z</time>
      </trkpt>
      <trkpt lat="49.17034" lon="0.06871">
        <ele>69.9</ele>
        <time>2024-03-03T08:04:42Z</time>
      </trkpt>
      <trkpt lat="49.17034" lon="0.06878">
        <ele>70.1</ele>
        <time>2024-03-03T08:04:43Z</time>
      </trkpt>
      <trkpt lat="49.17034" lon="0.06886">
        <ele>70.3</ele>
        <time>2024-03-03T08:04:44Z</time>
      </trkpt>
      <trkpt lat="49.17034" lon="0.06893">
        <ele>70.4</ele>
        <time>2024-03-03T08:04:45Z</time>
      </trkpt>
      <trkpt lat="49.17033" lon="0.06901">
        <ele>70.6</ele>
        <time>2024-03-03T08:04:46Z</time>
      </trkpt>
      <trkpt lat="49.17033" lon="0.06909">
        <ele>70.8</ele>
        <time>2024-03-03T08:04:47Z</time>
      </trkpt>
      <trkpt lat="49.17033" lon="0.06918">
        <ele>70.9</ele>
        <time>2024-03-03T08:04:48Z</time>
      </trkpt>
      <trkpt lat="49.17033" lon="0.06927">
        <ele>71.1</ele>
        <time>2024-03-03T08:04:49Z</time>
      </trkpt>
      <trkpt lat="49.17033" lon="0.06936">
        <ele>71.2</ele>
        <time>2024-03-03T08:04:50Z</time>
      </trkpt>
      <trkpt lat="49.17033" lon="0.06944">
        <ele>71.4</ele>
        <time>2024-03-03T08:04:51Z</time>
      </trkpt>
      <trkpt lat="49.17034" lon="0.06952">
        <ele>71.5</ele>
        <time>2024-03-03T08:04:52Z</time>
      </trkpt>
      <trkpt lat="49.17034" lon="0.0696">
        <ele>71.6</ele>
        <time>2024-03-03T08:04:53Z</time>
      </trkpt>
      <trkpt lat="49.17034" lon="0.06969">
        <ele>71.7</ele>
        <time>2024-03-03T08:04:54Z</time>
      </trkpt>
      <trkpt lat="49.17034" lon="0.06976">
        <ele>71.9</ele>
        <time>2024-03-03T08:04:55Z</time>
      </trkpt>
      <trkpt lat="49.17033" lon="0.06984">
        <ele>72</ele>
        <time>2024-03-03T08:04:56Z</time>
      </trkpt>
      <trkpt lat="49.17033" lon="0.06992">
        <ele>72.1</ele>
        <time>2024-03-03T08:04:57Z</time>
      </trkpt>
      <trkpt lat="49.17033" lon="0.07">
        <ele>72.1</ele>
        <time>2024-03-03T08:04:58Z</time>
      </trkpt>
      <trkpt lat="49.17033" lon="0.07008">
        <ele>72.2</ele>
        <time>2024-03-03T08:04:59Z</time>
      </trkpt>
      <trkpt lat="49.17033" lon="0.07016">
        <ele>72.3</ele>
        <time>2024-03-03T08:05:00Z</time>
      </trkpt>
      <trkpt lat="49.17033" lon="0.07023">
        <ele>72.4</ele>
        <time>2024-03-03T08:05:01Z</time>
      </trkpt>
      <trkpt lat="49.17033" lon="0.07031">
        <ele>72.4</ele>
        <time>2024-03-03T08:05:02Z</time>
      </trkpt>
      <trkpt lat="49.17033" lon="0.07039">
        <ele>72.4</ele>
        <time>2024-03-03T08:05:03Z</time>
      </trkpt>
      <trkpt lat="49.17033" lon="0.07047">
        <ele>72.5</ele>
        <time>2024-03-03T08:05:04Z</time>
      </trkpt>
      <trkpt lat="49.17033" lon="0.07056">
        <ele>72.5</ele>
        <time>2024-03-03T08:05:05Z</time>
      </trkpt>
      <trkpt lat="49.17033" lon="0.07064">
        <ele>72.6</ele>
        <time>2024-03-03T08:05:06Z</time>
      </trkpt>
      <trkpt lat="49.17033" lon="0.07073">
        <ele>72.6</ele>
        <time>2024-03-03T08:05:07Z</time>
      </trkpt>
      <trkpt lat="49.17033" lon="0.07081">
        <ele>72.6</ele>
        <time>2024-03-03T08:05:08Z</time>
      </trkpt>
      <trkpt lat="49.17032" lon="0.07089">
        <ele>72.7</ele>
        <time>2024-03-03T08:05:09Z</time>
      </trkpt>
      <trkpt lat="49.17032" lon="0.07097">
        <ele>72.7</ele>
        <time>2024-03-03T08:05:10Z</time>
      </trkpt>
      <trkpt lat="49.17033" lon="0.07105">
        <ele>72.8</ele>
        <time>2024-03-03T08:05:11Z</time>
      </trkpt>
      <trkpt lat="49.17032" lon="0.07112">
        <ele>72.8</ele>
        <time>2024-03-03T08:05:12Z</time>
      </trkpt>
      <trkpt lat="49.17032" lon="0.0712">
        <ele>72.8</ele>
        <time>2024-03-03T08:05:13Z</time>
      </trkpt>
      <trkpt lat="49.17031" lon="0.07128">
        <ele>72.9</ele>
        <time>2024-03-03T08:05:14Z</time>
      </trkpt>
      <trkpt lat="49.17032" lon="0.07136">
        <ele>72.9</ele>
        <time>2024-03-03T08:05:15Z</time>
      </trkpt>
      <trkpt lat="49.17032" lon="0.07143">
        <ele>72.9</ele>
        <time>2024-03-03T08:05:16Z</time>
      </trkpt>
      <trkpt lat="49.17032" lon="0.07151">
        <ele>73</ele>
        <time>2024-03-03T08:05:17Z</time>
      </trkpt>
      <trkpt lat="49.17032" lon="0.0716">
        <ele>73</ele>
        <time>2024-03-03T08:05:18Z</time>
      </trkpt>
      <trkpt lat="49.17031" lon="0.07167">
        <ele>73.1</ele>
        <time>2024-03-03T08:05:19Z</time>
      </trkpt>
      <trkpt lat="49.17031" lon="0.07174">
        <ele>73.1</ele>
        <time>2024-03-03T08:05:20Z</time>
      </trkpt>
      <trkpt lat="49.1703" lon="0.0718">
        <ele>73.1</ele>
        <time>2024-03-03T08:05:21Z</time>
      </trkpt>
      <trkpt lat="49.1703" lon="0.07185">
        <ele>73.2</ele>
        <time>2024-03-03T08:05:22Z</time>
      </trkpt>
      <trkpt lat="49.17029" lon="0.07189">
        <ele>73.2</ele>
        <time>2024-03-03T08:05:23Z</time>
      </trkpt>
      <trkpt lat="49.17028" lon="0.07194">
        <ele>73.3</ele>
        <time>2024-03-03T08:05:24Z</time>
      </trkpt>
      <trkpt lat="49.17028" lon="0.07196">
        <ele>73.3</ele>
        <time>2024-03-03T08:05:25Z</time>
      </trkpt>
      <trkpt lat="49.17026" lon="0.07202">
        <ele>73.3</ele>
        <time>2024-03-03T08:05:26Z</time>
      </trkpt>
      <trkpt lat="49.17026" lon="0.07204">
        <ele>73.4</ele>
        <time>2024-03-03T08:05:27Z</time>
      </trkpt>
      <trkpt lat="49.17026" lon="0.07208">
        <ele>73.4</ele>
        <time>2024-03-03T08:05:28Z</time>
      </trkpt>
      <trkpt lat="49.17025" lon="0.07213">
        <ele>73.4</ele>
        <time>2024-03-03T08:05:29Z</time>
      </trkpt>
      <trkpt lat="49.17024" lon="0.07217">
        <ele>73.5</ele>
        <time>2024-03-03T08:05:30Z</time>
      </trkpt>
      <trkpt lat="49.17023" lon="0.07222">
        <ele>73.5</ele>
        <time>2024-03-03T08:05:31Z</time>
      </trkpt>
      <trkpt lat="49.17022" lon="0.07228">
        <ele>73.5</ele>
        <time>2024-03-03T08:05:32Z</time>
      </trkpt>
      <trkpt lat="49.17021" lon="0.07235">
        <ele>73.5</ele>
        <time>2024-03-03T08:05:33Z</time>
      </trkpt>
      <trkpt lat="49.17021" lon="0.07242">
        <ele>73.5</ele>
        <time>2024-03-03T08:05:34Z</time>
      </trkpt>
      <trkpt lat="49.1702" lon="0.07248">
        <ele>73.5</ele>
        <time>2024-03-03T08:05:35Z</time>
      </trkpt>
      <trkpt lat="49.1702" lon="0.07255">
        <ele>73.5</ele>
        <time>2024-03-03T08:05:36Z</time>
      </trkpt>
      <trkpt lat="49.1702" lon="0.07263">
        <ele>73.5</ele>
        <time>2024-03-03T08:05:37Z</time>
      </trkpt>
      <trkpt lat="49.17019" lon="0.07271">
        <ele>73.5</ele>
        <time>2024-03-03T08:05:38Z</time>
      </trkpt>
      <trkpt lat="49.17019" lon="0.07279">
        <ele>73.5</ele>
        <time>2024-03-03T08:05:39Z</time>
      </trkpt>
      <trkpt lat="49.17019" lon="0.07287">
        <ele>73.5</ele>
        <time>2024-03-03T08:05:40Z</time>
      </trkpt>
      <trkpt lat="49.17019" lon="0.07294">
        <ele>73.5</ele>
        <time>2024-03-03T08:05:41Z</time>
      </trkpt>
      <trkpt lat="49.17019" lon="0.07302">
        <ele>73.5</ele>
        <time>2024-03-03T08:05:42Z</time>
      </trkpt>
      <trkpt lat="49.17019" lon="0.0731">
        <ele>73.5</ele>
        <time>2024-03-03T08:05:43Z</time>
      </trkpt>
      <trkpt lat="49.1702" lon="0.07317">
        <ele>73.5</ele>
        <time>2024-03-03T08:05:44Z</time>
      </trkpt>
      <trkpt lat="49.1702" lon="0.07324">
        <ele>73.5</ele>
        <time>2024-03-03T08:05:45Z</time>
      </trkpt>
      <trkpt lat="49.1702" lon="0.07332">
        <ele>73.4</ele>
        <time>2024-03-03T08:05:46Z</time>
      </trkpt>
      <trkpt lat="49.1702" lon="0.07341">
        <ele>73.4</ele>
        <time>2024-03-03T08:05:47Z</time>
      </trkpt>
      <trkpt lat="49.17019" lon="0.07349">
        <ele>73.4</ele>
        <time>2024-03-03T08:05:48Z</time>
      </trkpt>
      <trkpt lat="49.17019" lon="0.07358">
        <ele>73.3</ele>
        <time>2024-03-03T08:05:49Z</time>
      </trkpt>
      <trkpt lat="49.17019" lon="0.07369">
        <ele>73.3</ele>
        <time>2024-03-03T08:05:50Z</time>
      </trkpt>
      <trkpt lat="49.1702" lon="0.07378">
        <ele>73.3</ele>
        <time>2024-03-03T08:05:51Z</time>
      </trkpt>
      <trkpt lat="49.1702" lon="0.07388">
        <ele>73.3</ele>
        <time>2024-03-03T08:05:52Z</time>
      </trkpt>
      <trkpt lat="49.17021" lon="0.07401">
        <ele>73.2</ele>
        <time>2024-03-03T08:05:53Z</time>
      </trkpt>
      <trkpt lat="49.17023" lon="0.07414">
        <ele>73.2</ele>
        <time>2024-03-03T08:05:54Z</time>
      </trkpt>
      <trkpt lat="49.17024" lon="0.07428">
        <ele>73.2</ele>
        <time>2024-03-03T08:05:55Z</time>
      </trkpt>
      <trkpt lat="49.17025" lon="0.07442">
        <ele>73.2</ele>
        <time>2024-03-03T08:05:56Z</time>
      </trkpt>
      <trkpt lat="49.17027" lon="0.07454">
        <ele>73.1</ele>
        <time>2024-03-03T08:05:57Z</time>
      </trkpt>
      <trkpt lat="49.17029" lon="0.07467">
        <ele>73.1</ele>
        <time>2024-03-03T08:05:58Z</time>
      </trkpt>
      <trkpt lat="49.17031" lon="0.0748">
        <ele>73</ele>
        <time>2024-03-03T08:05:59Z</time>
      </trkpt>
      <trkpt lat="49.17032" lon="0.07493">
        <ele>73</ele>
        <time>2024-03-03T08:06:00Z</time>
      </trkpt>
      <trkpt lat="49.17034" lon="0.07506">
        <ele>72.9</ele>
        <time>2024-03-03T08:06:01Z</time>
      </trkpt>
      <trkpt lat="49.17036" lon="0.07518">
        <ele>72.9</ele>
        <time>2024-03-03T08:06:02Z</time>
      </trkpt>
      <trkpt lat="49.17038" lon="0.07532">
        <ele>72.8</ele>
        <time>2024-03-03T08:06:03Z</time>
      </trkpt>
      <trkpt lat="49.1704" lon="0.07545">
        <ele>72.7</ele>
        <time>2024-03-03T08:06:04Z</time>
      </trkpt>
      <trkpt lat="49.17042" lon="0.07558">
        <ele>72.6</ele>
        <time>2024-03-03T08:06:05Z</time>
      </trkpt>
      <trkpt lat="49.17044" lon="0.0757">
        <ele>72.5</ele>
        <time>2024-03-03T08:06:06Z</time>
      </trkpt>
      <trkpt lat="49.17047" lon="0.07583">
        <ele>72.4</ele>
        <time>2024-03-03T08:06:07Z</time>
      </trkpt>
      <trkpt lat="49.17049" lon="0.07595">
        <ele>72.3</ele>
        <time>2024-03-03T08:06:08Z</time>
      </trkpt>
      <trkpt lat="49.17052" lon="0.07608">
        <ele>72.2</ele>
        <time>2024-03-03T08:06:09Z</time>
      </trkpt>
      <trkpt lat="49.17054" lon="0.0762">
        <ele>72.1</ele>
        <time>2024-03-03T08:06:10Z</time>
      </trkpt>
      <trkpt lat="49.17057" lon="0.07631">
        <ele>72</ele>
        <time>2024-03-03T08:06:11Z</time>
      </trkpt>
      <trkpt lat="49.1706" lon="0.07641">
        <ele>71.9</ele>
        <time>2024-03-03T08:06:12Z</time>
      </trkpt>
      <trkpt lat="49.17063" lon="0.07653">
        <ele>71.8</ele>
        <time>2024-03-03T08:06:13Z</time>
      </trkpt>
      <trkpt lat="49.17066" lon="0.07664">
        <ele>71.6</ele>
        <time>2024-03-03T08:06:14Z</time>
      </trkpt>
      <trkpt lat="49.17069" lon="0.07676">
        <ele>71.5</ele>
        <time>2024-03-03T08:06:15Z</time>
      </trkpt>
      <trkpt lat="49.17072" lon="0.07686">
        <ele>71.4</ele>
        <time>2024-03-03T08:06:16Z</time>
      </trkpt>
      <trkpt lat="49.17074" lon="0.07697">
        <ele>71.3</ele>
        <time>2024-03-03T08:06:17Z</time>
      </trkpt>
      <trkpt lat="49.17077" lon="0.07709">
        <ele>71.2</ele>
        <time>2024-03-03T08:06:18Z</time>
      </trkpt>
      <trkpt lat="49.17079" lon="0.0772">
        <ele>71.1</ele>
        <time>2024-03-03T08:06:19Z</time>
      </trkpt>
      <trkpt lat="49.17082" lon="0.07731">
        <ele>71</ele>
        <time>2024-03-03T08:06:20Z</time>
      </trkpt>
      <trkpt lat="49.17084" lon="0.07742">
        <ele>71</ele>
        <time>2024-03-03T08:06:21Z</time>
      </trkpt>
      <trkpt lat="49.17087" lon="0.07753">
        <ele>70.9</ele>
        <time>2024-03-03T08:06:22Z</time>
      </trkpt>
      <trkpt lat="49.1709" lon="0.07763">
        <ele>70.8</ele>
        <time>2024-03-03T08:06:23Z</time>
      </trkpt>
      <trkpt lat="49.17092" lon="0.07774">
        <ele>70.7</ele>
        <time>2024-03-03T08:06:24Z</time>
      </trkpt>
      <trkpt lat="49.17095" lon="0.07785">
        <ele>70.6</ele>
        <time>2024-03-03T08:06:25Z</time>
      </trkpt>
      <trkpt lat="49.17097" lon="0.07795">
        <ele>70.5</ele>
        <time>2024-03-03T08:06:26Z</time>
      </trkpt>
      <trkpt lat="49.17099" lon="0.07806">
        <ele>70.5</ele>
        <time>2024-03-03T08:06:27Z</time>
      </trkpt>
      <trkpt lat="49.17101" lon="0.07817">
        <ele>70.4</ele>
        <time>2024-03-03T08:06:28Z</time>
      </trkpt>
      <trkpt lat="49.17103" lon="0.07829">
        <ele>70.4</ele>
        <time>2024-03-03T08:06:29Z</time>
      </trkpt>
      <trkpt lat="49.17104" lon="0.0784">
        <ele>70.3</ele>
        <time>2024-03-03T08:06:30Z</time>
      </trkpt>
      <trkpt lat="49.17105" lon="0.0785">
        <ele>70.3</ele>
        <time>2024-03-03T08:06:31Z</time>
      </trkpt>
      <trkpt lat="49.17107" lon="0.0786">
        <ele>70.3</ele>
        <time>2024-03-03T08:06:32Z</time>
      </trkpt>
      <trkpt lat="49.17109" lon="0.07869">
        <ele>70.3</ele>
        <time>2024-03-03T08:06:33Z</time>
      </trkpt>
      <trkpt lat="49.1711" lon="0.07879">
        <ele>70.3</ele>
        <time>2024-03-03T08:06:34Z</time>
      </trkpt>
      <trkpt lat="49.17111" lon="0.07889">
        <ele>70.3</ele>
        <time>2024-03-03T08:06:35Z</time>
      </trkpt>
      <trkpt lat="49.17112" lon="0.07899">
        <ele>70.3</ele>
        <time>2024-03-03T08:06:36Z</time>
      </trkpt>
      <trkpt lat="49.17112" lon="0.07909">
        <ele>70.3</ele>
        <time>2024-03-03T08:06:37Z</time>
      </trkpt>
      <trkpt lat="49.17113" lon="0.0792">
        <ele>70.3</ele>
        <time>2024-03-03T08:06:38Z</time>
      </trkpt>
      <trkpt lat="49.17114" lon="0.0793">
        <ele>70.3</ele>
        <time>2024-03-03T08:06:39Z</time>
      </trkpt>
      <trkpt lat="49.17115" lon="0.0794">
        <ele>70.4</ele>
        <time>2024-03-03T08:06:40Z</time>
      </trkpt>
      <trkpt lat="49.17116" lon="0.07951">
        <ele>70.4</ele>
        <time>2024-03-03T08:06:41Z</time>
      </trkpt>
      <trkpt lat="49.17117" lon="0.0796">
        <ele>70.5</ele>
        <time>2024-03-03T08:06:42Z</time>
      </trkpt>
      <trkpt lat="49.17118" lon="0.07969">
        <ele>70.6</ele>
        <time>2024-03-03T08:06:43Z</time>
      </trkpt>
      <trkpt lat="49.17119" lon="0.07977">
        <ele>70.6</ele>
        <time>2024-03-03T08:06:44Z</time>
      </trkpt>
      <trkpt lat="49.1712" lon="0.07985">
        <ele>70.7</ele>
        <time>2024-03-03T08:06:45Z</time>
      </trkpt>
      <trkpt lat="49.17121" lon="0.07993">
        <ele>70.7</ele>
        <time>2024-03-03T08:06:46Z</time>
      </trkpt>
      <trkpt lat="49.17121" lon="0.08002">
        <ele>70.8</ele>
        <time>2024-03-03T08:06:47Z</time>
      </trkpt>
      <trkpt lat="49.17122" lon="0.08009">
        <ele>70.9</ele>
        <time>2024-03-03T08:06:48Z</time>
      </trkpt>
      <trkpt lat="49.17124" lon="0.08018">
        <ele>70.9</ele>
        <time>2024-03-03T08:06:49Z</time>
      </trkpt>
      <trkpt lat="49.17125" lon="0.08026">
        <ele>71</ele>
        <time>2024-03-03T08:06:50Z</time>
      </trkpt>
      <trkpt lat="49.17126" lon="0.08034">
        <ele>71</ele>
        <time>2024-03-03T08:06:51Z</time>
      </trkpt>
      <trkpt lat="49.17128" lon="0.08044">
        <ele>71.1</ele>
        <time>2024-03-03T08:06:52Z</time>
      </trkpt>
      <trkpt lat="49.1713" lon="0.08052">
        <ele>71.1</ele>
        <time>2024-03-03T08:06:53Z</time>
      </trkpt>
      <trkpt lat="49.17133" lon="0.08063">
        <ele>71.2</ele>
        <time>2024-03-03T08:06:54Z</time>
      </trkpt>
      <trkpt lat="49.17135" lon="0.08073">
        <ele>71.3</ele>
        <time>2024-03-03T08:06:55Z</time>
      </trkpt>
      <trkpt lat="49.17137" lon="0.08083">
        <ele>71.4</ele>
        <time>2024-03-03T08:06:56Z</time>
      </trkpt>
      <trkpt lat="49.1714" lon="0.08092">
        <ele>71.5</ele>
        <time>2024-03-03T08:06:57Z</time>
      </trkpt>
      <trkpt lat="49.17142" lon="0.08102">
        <ele>71.5</ele>
        <time>2024-03-03T08:06:58Z</time>
      </trkpt>
      <trkpt lat="49.17143" lon="0.08111">
        <ele>71.6</ele>
        <time>2024-03-03T08:06:59Z</time>
      </trkpt>
      <trkpt lat="49.17145" lon="0.08121">
        <ele>71.7</ele>
        <time>2024-03-03T08:07:00Z</time>
      </trkpt>
      <trkpt lat="49.17147" lon="0.08131">
        <ele>71.7</ele>
        <time>2024-03-03T08:07:01Z</time>
      </trkpt>
      <trkpt lat="49.1715" lon="0.0814">
        <ele>71.8</ele>
        <time>2024-03-03T08:07:02Z</time>
      </trkpt>
      <trkpt lat="49.17152" lon="0.0815">
        <ele>71.9</ele>
        <time>2024-03-03T08:07:03Z</time>
      </trkpt>
      <trkpt lat="49.17155" lon="0.0816">
        <ele>71.9</ele>
        <time>2024-03-03T08:07:04Z</time>
      </trkpt>
      <trkpt lat="49.17157" lon="0.0817">
        <ele>72</ele>
        <time>2024-03-03T08:07:05Z</time>
      </trkpt>
      <trkpt lat="49.1716" lon="0.08178">
        <ele>72</ele>
        <time>2024-03-03T08:07:06Z</time>
      </trkpt>
      <trkpt lat="49.17162" lon="0.08187">
        <ele>72</ele>
        <time>2024-03-03T08:07:07Z</time>
      </trkpt>
      <trkpt lat="49.17164" lon="0.08195">
        <ele>72.1</ele>
        <time>2024-03-03T08:07:08Z</time>
      </trkpt>
      <trkpt lat="49.17166" lon="0.08205">
        <ele>72.1</ele>
        <time>2024-03-03T08:07:09Z</time>
      </trkpt>
      <trkpt lat="49.17168" lon="0.08214">
        <ele>72.2</ele>
        <time>2024-03-03T08:07:10Z</time>
      </trkpt>
      <trkpt lat="49.17171" lon="0.08222">
        <ele>72.2</ele>
        <time>2024-03-03T08:07:11Z</time>
      </trkpt>
      <trkpt lat="49.17174" lon="0.08231">
        <ele>72.3</ele>
        <time>2024-03-03T08:07:12Z</time>
      </trkpt>
      <trkpt lat="49.17177" lon="0.08241">
        <ele>72.3</ele>
        <time>2024-03-03T08:07:13Z</time>
      </trkpt>
      <trkpt lat="49.1718" lon="0.0825">
        <ele>72.4</ele>
        <time>2024-03-03T08:07:14Z</time>
      </trkpt>
      <trkpt lat="49.17183" lon="0.08259">
        <ele>72.5</ele>
        <time>2024-03-03T08:07:15Z</time>
      </trkpt>
      <trkpt lat="49.17186" lon="0.08268">
        <ele>72.6</ele>
        <time>2024-03-03T08:07:16Z</time>
      </trkpt>
      <trkpt lat="49.17188" lon="0.08277">
        <ele>72.7</ele>
        <time>2024-03-03T08:07:17Z</time>
      </trkpt>
      <trkpt lat="49.17191" lon="0.08284">
        <ele>72.8</ele>
        <time>2024-03-03T08:07:18Z</time>
      </trkpt>
      <trkpt lat="49.17194" lon="0.08292">
        <ele>72.9</ele>
        <time>2024-03-03T08:07:19Z</time>
      </trkpt>
      <trkpt lat="49.17197" lon="0.08299">
        <ele>73</ele>
        <time>2024-03-03T08:07:20Z</time>
      </trkpt>
      <trkpt lat="49.172" lon="0.08306">
        <ele>73.1</ele>
        <time>2024-03-03T08:07:21Z</time>
      </trkpt>
      <trkpt lat="49.17203" lon="0.08313">
        <ele>73.1</ele>
        <time>2024-03-03T08:07:22Z</time>
      </trkpt>
      <trkpt lat="49.17207" lon="0.08321">
        <ele>73.2</ele>
        <time>2024-03-03T08:07:23Z</time>
      </trkpt>
      <trkpt lat="49.1721" lon="0.08329">
        <ele>73.3</ele>
        <time>2024-03-03T08:07:24Z</time>
      </trkpt>
      <trkpt lat="49.17214" lon="0.08337">
        <ele>73.4</ele>
        <time>2024-03-03T08:07:25Z</time>
      </trkpt>
      <trkpt lat="49.17218" lon="0.08345">
        <ele>73.5</ele>
        <time>2024-03-03T08:07:26Z</time>
      </trkpt>
      <trkpt lat="49.17222" lon="0.08354">
        <ele>73.6</ele>
        <time>2024-03-03T08:07:27Z</time>
      </trkpt>
      <trkpt lat="49.17225" lon="0.08363">
        <ele>73.7</ele>
        <time>2024-03-03T08:07:28Z</time>
      </trkpt>
      <trkpt lat="49.17228" lon="0.08371">
        <ele>73.8</ele>
        <time>2024-03-03T08:07:29Z</time>
      </trkpt>
      <trkpt lat="49.17232" lon="0.0838">
        <ele>73.9</ele>
        <time>2024-03-03T08:07:30Z</time>
      </trkpt>
      <trkpt lat="49.17234" lon="0.08388">
        <ele>74</ele>
        <time>2024-03-03T08:07:31Z</time>
      </trkpt>
      <trkpt lat="49.17236" lon="0.08396">
        <ele>74.1</ele>
        <time>2024-03-03T08:07:32Z</time>
      </trkpt>
      <trkpt lat="49.17239" lon="0.08404">
        <ele>74.2</ele>
        <time>2024-03-03T08:07:33Z</time>
      </trkpt>
      <trkpt lat="49.17242" lon="0.08413">
        <ele>74.4</ele>
        <time>2024-03-03T08:07:34Z</time>
      </trkpt>
      <trkpt lat="49.17244" lon="0.08422">
        <ele>74.5</ele>
        <time>2024-03-03T08:07:35Z</time>
      </trkpt>
      <trkpt lat="49.17247" lon="0.0843">
        <ele>74.6</ele>
        <time>2024-03-03T08:07:36Z</time>
      </trkpt>
      <trkpt lat="49.17249" lon="0.08439">
        <ele>74.8</ele>
        <time>2024-03-03T08:07:37Z</time>
      </trkpt>
      <trkpt lat="49.17251" lon="0.08447">
        <ele>74.9</ele>
        <time>2024-03-03T08:07:38Z</time>
      </trkpt>
      <trkpt lat="49.17253" lon="0.08454">
        <ele>75</ele>
        <time>2024-03-03T08:07:39Z</time>
      </trkpt>
      <trkpt lat="49.17254" lon="0.08461">
        <ele>75</ele>
        <time>2024-03-03T08:07:40Z</time>
      </trkpt>
      <trkpt lat="49.17255" lon="0.08468">
        <ele>75.1</ele>
        <time>2024-03-03T08:07:41Z</time>
      </trkpt>
      <trkpt lat="49.17257" lon="0.08476">
        <ele>75.2</ele>
        <time>2024-03-03T08:07:42Z</time>
      </trkpt>
      <trkpt lat="49.17259" lon="0.08486">
        <ele>75.2</ele>
        <time>2024-03-03T08:07:43Z</time>
      </trkpt>
      <trkpt lat="49.17261" lon="0.08496">
        <ele>75.3</ele>
        <time>2024-03-03T08:07:44Z</time>
      </trkpt>
      <trkpt lat="49.17263" lon="0.08506">
        <ele>75.3</ele>
        <time>2024-03-03T08:07:45Z</time>
      </trkpt>
      <trkpt lat="49.17264" lon="0.08517">
        <ele>75.4</ele>
        <time>2024-03-03T08:07:46Z</time>
      </trkpt>
      <trkpt lat="49.17266" lon="0.08527">
        <ele>75.4</ele>
        <time>2024-03-03T08:07:47Z</time>
      </trkpt>
      <trkpt lat="49.17268" lon="0.08537">
        <ele>75.4</ele>
        <time>2024-03-03T08:07:48Z</time>
      </trkpt>
      <trkpt lat="49.17269" lon="0.08547">
        <ele>75.5</ele>
        <time>2024-03-03T08:07:49Z</time>
      </trkpt>
      <trkpt lat="49.1727" lon="0.08557">
        <ele>75.5</ele>
        <time>2024-03-03T08:07:50Z</time>
      </trkpt>
      <trkpt lat="49.17272" lon="0.08566">
        <ele>75.6</ele>
        <time>2024-03-03T08:07:51Z</time>
      </trkpt>
      <trkpt lat="49.17273" lon="0.08576">
        <ele>75.6</ele>
        <time>2024-03-03T08:07:52Z</time>
      </trkpt>
      <trkpt lat="49.17274" lon="0.08585">
        <ele>75.7</ele>
        <time>2024-03-03T08:07:53Z</time>
      </trkpt>
      <trkpt lat="49.17276" lon="0.08594">
        <ele>75.7</ele>
        <time>2024-03-03T08:07:54Z</time>
      </trkpt>
      <trkpt lat="49.17277" lon="0.08604">
        <ele>75.8</ele>
        <time>2024-03-03T08:07:55Z</time>
      </trkpt>
      <trkpt lat="49.17278" lon="0.08613">
        <ele>75.8</ele>
        <time>2024-03-03T08:07:56Z</time>
      </trkpt>
      <trkpt lat="49.1728" lon="0.08622">
        <ele>75.9</ele>
        <time>2024-03-03T08:07:57Z</time>
      </trkpt>
      <trkpt lat="49.17282" lon="0.08631">
        <ele>75.9</ele>
        <time>2024-03-03T08:07:58Z</time>
      </trkpt>
      <trkpt lat="49.17284" lon="0.08641">
        <ele>76</ele>
        <time>2024-03-03T08:07:59Z</time>
      </trkpt>
      <trkpt lat="49.17287" lon="0.08652">
        <ele>76.1</ele>
        <time>2024-03-03T08:08:00Z</time>
      </trkpt>
      <trkpt lat="49.17289" lon="0.08661">
        <ele>76.1</ele>
        <time>2024-03-03T08:08:01Z</time>
      </trkpt>
      <trkpt lat="49.17291" lon="0.0867">
        <ele>76.2</ele>
        <time>2024-03-03T08:08:02Z</time>
      </trkpt>
      <trkpt lat="49.17293" lon="0.08679">
        <ele>76.2</ele>
        <time>2024-03-03T08:08:03Z</time>
      </trkpt>
      <trkpt lat="49.17295" lon="0.08689">
        <ele>76.3</ele>
        <time>2024-03-03T08:08:04Z</time>
      </trkpt>
      <trkpt lat="49.17298" lon="0.08698">
        <ele>76.4</ele>
        <time>2024-03-03T08:08:05Z</time>
      </trkpt>
      <trkpt lat="49.17301" lon="0.08707">
        <ele>76.5</ele>
        <time>2024-03-03T08:08:06Z</time>
      </trkpt>
      <trkpt lat="49.17304" lon="0.08715">
        <ele>76.5</ele>
        <time>2024-03-03T08:08:07Z</time>
      </trkpt>
      <trkpt lat="49.17305" lon="0.08721">
        <ele>76.6</ele>
        <time>2024-03-03T08:08:08Z</time>
      </trkpt>
      <trkpt lat="49.17307" lon="0.08727">
        <ele>76.6</ele>
        <time>2024-03-03T08:08:09Z</time>
      </trkpt>
      <trkpt lat="49.17309" lon="0.08733">
        <ele>76.7</ele>
        <time>2024-03-03T08:08:10Z</time>
      </trkpt>
      <trkpt lat="49.17311" lon="0.0874">
        <ele>76.7</ele>
        <time>2024-03-03T08:08:11Z</time>
      </trkpt>
      <trkpt lat="49.17312" lon="0.08746">
        <ele>76.8</ele>
        <time>2024-03-03T08:08:12Z</time>
      </trkpt>
      <trkpt lat="49.17313" lon="0.08753">
        <ele>76.9</ele>
        <time>2024-03-03T08:08:13Z</time>
      </trkpt>
      <trkpt lat="49.17315" lon="0.08761">
        <ele>76.9</ele>
        <time>2024-03-03T08:08:14Z</time>
      </trkpt>
      <trkpt lat="49.17318" lon="0.0877">
        <ele>77</ele>
        <time>2024-03-03T08:08:15Z</time>
      </trkpt>
      <trkpt lat="49.17319" lon="0.08777">
        <ele>77.1</ele>
        <time>2024-03-03T08:08:16Z</time>
      </trkpt>
      <trkpt lat="49.17322" lon="0.08784">
        <ele>77.2</ele>
        <time>2024-03-03T08:08:17Z</time>
      </trkpt>
      <trkpt lat="49.17324" lon="0.08792">
        <ele>77.3</ele>
        <time>2024-03-03T08:08:18Z</time>
      </trkpt>
      <trkpt lat="49.17327" lon="0.08799">
        <ele>77.4</ele>
        <time>2024-03-03T08:08:19Z</time>
      </trkpt>
      <trkpt lat="49.1733" lon="0.08807">
        <ele>77.5</ele>
        <time>2024-03-03T08:08:20Z</time>
      </trkpt>
      <trkpt lat="49.17332" lon="0.08815">
        <ele>77.6</ele>
        <time>2024-03-03T08:08:21Z</time>
      </trkpt>
      <trkpt lat="49.17334" lon="0.08823">
        <ele>77.7</ele>
        <time>2024-03-03T08:08:22Z</time>
      </trkpt>
      <trkpt lat="49.17336" lon="0.0883">
        <ele>77.7</ele>
        <time>2024-03-03T08:08:23Z</time>
      </trkpt>
      <trkpt lat="49.17339" lon="0.08837">
        <ele>77.8</ele>
        <time>2024-03-03T08:08:24Z</time>
      </trkpt>
      <trkpt lat="49.17341" lon="0.08844">
        <ele>77.9</ele>
        <time>2024-03-03T08:08:25Z</time>
      </trkpt>
      <trkpt lat="49.17343" lon="0.08851">
        <ele>78</ele>
        <time>2024-03-03T08:08:26Z</time>
      </trkpt>
      <trkpt lat="49.17345" lon="0.08858">
        <ele>78.2</ele>
        <time>2024-03-03T08:08:27Z</time>
      </trkpt>
      <trkpt lat="49.17347" lon="0.08865">
        <ele>78.3</ele>
        <time>2024-03-03T08:08:28Z</time>
      </trkpt>
      <trkpt lat="49.17349" lon="0.0887">
        <ele>78.4</ele>
        <time>2024-03-03T08:08:29Z</time>
      </trkpt>
      <trkpt lat="49.17351" lon="0.08874">
        <ele>78.5</ele>
        <time>2024-03-03T08:08:30Z</time>
      </trkpt>
      <trkpt lat="49.17353" lon="0.08879">
        <ele>78.6</ele>
        <time>2024-03-03T08:08:31Z</time>
      </trkpt>
      <trkpt lat="49.17353" lon="0.0888">
        <ele>78.7</ele>
        <time>2024-03-03T08:08:32Z</time>
      </trkpt>
      <trkpt lat="49.17354" lon="0.08884">
        <ele>78.8</ele>
        <time>2024-03-03T08:08:33Z</time>
      </trkpt>
      <trkpt lat="49.17355" lon="0.08886">
        <ele>78.8</ele>
        <time>2024-03-03T08:08:34Z</time>
      </trkpt>
      <trkpt lat="49.17355" lon="0.08888">
        <ele>78.9</ele>
        <time>2024-03-03T08:08:35Z</time>
      </trkpt>
      <trkpt lat="49.17355" lon="0.0889">
        <ele>79</ele>
        <time>2024-03-03T08:08:36Z</time>
      </trkpt>
      <trkpt lat="49.17355" lon="0.08892">
        <ele>79</ele>
        <time>2024-03-03T08:08:37Z</time>
      </trkpt>
      <trkpt lat="49.17354" lon="0.08894">
        <ele>79.1</ele>
        <time>2024-03-03T08:08:38Z</time>
      </trkpt>
      <trkpt lat="49.17352" lon="0.08899">
        <ele>79.4</ele>
        <time>2024-03-03T08:08:39Z</time>
      </trkpt>
      <trkpt lat="49.1735" lon="0.089">
        <ele>79.5</ele>
        <time>2024-03-03T08:08:40Z</time>
      </trkpt>
      <trkpt lat="49.17347" lon="0.08904">
        <ele>79.7</ele>
        <time>2024-03-03T08:08:41Z</time>
      </trkpt>
      <trkpt lat="49.17344" lon="0.08907">
        <ele>79.9</ele>
        <time>2024-03-03T08:08:42Z</time>
      </trkpt>
      <trkpt lat="49.1734" lon="0.08912">
        <ele>79.6</ele>
        <time>2024-03-03T08:08:43Z</time>
      </trkpt>
      <trkpt lat="49.17337" lon="0.08919">
        <ele>79.2</ele>
        <time>2024-03-03T08:08:44Z</time>
      </trkpt>
      <trkpt lat="49.17333" lon="0.08926">
        <ele>78.7</ele>
        <time>2024-03-03T08:08:45Z</time>
      </trkpt>
      <trkpt lat="49.17329" lon="0.08932">
        <ele>78.3</ele>
        <time>2024-03-03T08:08:46Z</time>
      </trkpt>
      <trkpt lat="49.17324" lon="0.08938">
        <ele>77.8</ele>
        <time>2024-03-03T08:08:47Z</time>
      </trkpt>
      <trkpt lat="49.1732" lon="0.08944">
        <ele>77.3</ele>
        <time>2024-03-03T08:08:48Z</time>
      </trkpt>
      <trkpt lat="49.17315" lon="0.08951">
        <ele>76.9</ele>
        <time>2024-03-03T08:08:49Z</time>
      </trkpt>
      <trkpt lat="49.17311" lon="0.08959">
        <ele>76.4</ele>
        <time>2024-03-03T08:08:50Z</time>
      </trkpt>
      <trkpt lat="49.17307" lon="0.08967">
        <ele>75.9</ele>
        <time>2024-03-03T08:08:51Z</time>
      </trkpt>
      <trkpt lat="49.17302" lon="0.08975">
        <ele>75.6</ele>
        <time>2024-03-03T08:08:52Z</time>
      </trkpt>
      <trkpt lat="49.17297" lon="0.08981">
        <ele>75.3</ele>
        <time>2024-03-03T08:08:53Z</time>
      </trkpt>
      <trkpt lat="49.17292" lon="0.08987">
        <ele>75.1</ele>
        <time>2024-03-03T08:08:54Z</time>
      </trkpt>
      <trkpt lat="49.17287" lon="0.08993">
        <ele>74.9</ele>
        <time>2024-03-03T08:08:55Z</time>
      </trkpt>
      <trkpt lat="49.17283" lon="0.08999">
        <ele>74.8</ele>
        <time>2024-03-03T08:08:56Z</time>
      </trkpt>
      <trkpt lat="49.17279" lon="0.09005">
        <ele>74.7</ele>
        <time>2024-03-03T08:08:57Z</time>
      </trkpt>
      <trkpt lat="49.17274" lon="0.09009">
        <ele>74.7</ele>
        <time>2024-03-03T08:08:58Z</time>
      </trkpt>
      <trkpt lat="49.1727" lon="0.09013">
        <ele>74.6</ele>
        <time>2024-03-03T08:08:59Z</time>
      </trkpt>
      <trkpt lat="49.17265" lon="0.09018">
        <ele>74.7</ele>
        <time>2024-03-03T08:09:00Z</time>
      </trkpt>
      <trkpt lat="49.17259" lon="0.09022">
        <ele>74.7</ele>
        <time>2024-03-03T08:09:01Z</time>
      </trkpt>
      <trkpt lat="49.17255" lon="0.09027">
        <ele>74.8</ele>
        <time>2024-03-03T08:09:02Z</time>
      </trkpt>
      <trkpt lat="49.1725" lon="0.09032">
        <ele>74.8</ele>
        <time>2024-03-03T08:09:03Z</time>
      </trkpt>
      <trkpt lat="49.17245" lon="0.09036">
        <ele>74.9</ele>
        <time>2024-03-03T08:09:04Z</time>
      </trkpt>
      <trkpt lat="49.1724" lon="0.09042">
        <ele>75</ele>
        <time>2024-03-03T08:09:05Z</time>
      </trkpt>
      <trkpt lat="49.17235" lon="0.09047">
        <ele>75.1</ele>
        <time>2024-03-03T08:09:06Z</time>
      </trkpt>
      <trkpt lat="49.1723" lon="0.09053">
        <ele>75.3</ele>
        <time>2024-03-03T08:09:07Z</time>
      </trkpt>
      <trkpt lat="49.17225" lon="0.09058">
        <ele>75.4</ele>
        <time>2024-03-03T08:09:08Z</time>
      </trkpt>
      <trkpt lat="49.17221" lon="0.09064">
        <ele>75.5</ele>
        <time>2024-03-03T08:09:09Z</time>
      </trkpt>
      <trkpt lat="49.17216" lon="0.0907">
        <ele>75.6</ele>
        <time>2024-03-03T08:09:10Z</time>
      </trkpt>
      <trkpt lat="49.17211" lon="0.09074">
        <ele>75.8</ele>
        <time>2024-03-03T08:09:11Z</time>
      </trkpt>
      <trkpt lat="49.17204" lon="0.09079">
        <ele>75.9</ele>
        <time>2024-03-03T08:09:12Z</time>
      </trkpt>
      <trkpt lat="49.17198" lon="0.09085">
        <ele>76.1</ele>
        <time>2024-03-03T08:09:13Z</time>
      </trkpt>
      <trkpt lat="49.17191" lon="0.09091">
        <ele>76.3</ele>
        <time>2024-03-03T08:09:14Z</time>
      </trkpt>
      <trkpt lat="49.17186" lon="0.09097">
        <ele>76.5</ele>
        <time>2024-03-03T08:09:15Z</time>
      </trkpt>
      <trkpt lat="49.1718" lon="0.09104">
        <ele>76.7</ele>
        <time>2024-03-03T08:09:16Z</time>
      </trkpt>
      <trkpt lat="49.17175" lon="0.09111">
        <ele>76.9</ele>
        <time>2024-03-03T08:09:17Z</time>
      </trkpt>
      <trkpt lat="49.1717" lon="0.09118">
        <ele>77.1</ele>
        <time>2024-03-03T08:09:18Z</time>
      </trkpt>
      <trkpt lat="49.17165" lon="0.09124">
        <ele>77.4</ele>
        <time>2024-03-03T08:09:19Z</time>
      </trkpt>
      <trkpt lat="49.1716" lon="0.0913">
        <ele>77.6</ele>
        <time>2024-03-03T08:09:20Z</time>
      </trkpt>
      <trkpt lat="49.17154" lon="0.09137">
        <ele>77.8</ele>
        <time>2024-03-03T08:09:21Z</time>
      </trkpt>
      <trkpt lat="49.17149" lon="0.09144">
        <ele>78.1</ele>
        <time>2024-03-03T08:09:22Z</time>
      </trkpt>
      <trkpt lat="49.17144" lon="0.09151">
        <ele>78.3</ele>
        <time>2024-03-03T08:09:23Z</time>
      </trkpt>
      <trkpt lat="49.1714" lon="0.09157">
        <ele>78.5</ele>
        <time>2024-03-03T08:09:24Z</time>
      </trkpt>
      <trkpt lat="49.17135" lon="0.09162">
        <ele>78.7</ele>
        <time>2024-03-03T08:09:25Z</time>
      </trkpt>
      <trkpt lat="49.1713" lon="0.09169">
        <ele>78.9</ele>
        <time>2024-03-03T08:09:26Z</time>
      </trkpt>
      <trkpt lat="49.17124" lon="0.09176">
        <ele>79.1</ele>
        <time>2024-03-03T08:09:27Z</time>
      </trkpt>
      <trkpt lat="49.17119" lon="0.09182">
        <ele>79.3</ele>
        <time>2024-03-03T08:09:28Z</time>
      </trkpt>
      <trkpt lat="49.17113" lon="0.09189">
        <ele>79.5</ele>
        <time>2024-03-03T08:09:29Z</time>
      </trkpt>
      <trkpt lat="49.17107" lon="0.09196">
        <ele>79.7</ele>
        <time>2024-03-03T08:09:30Z</time>
      </trkpt>
      <trkpt lat="49.17101" lon="0.09202">
        <ele>79.9</ele>
        <time>2024-03-03T08:09:31Z</time>
      </trkpt>
      <trkpt lat="49.17096" lon="0.09208">
        <ele>80.1</ele>
        <time>2024-03-03T08:09:32Z</time>
      </trkpt>
      <trkpt lat="49.17092" lon="0.09214">
        <ele>80.3</ele>
        <time>2024-03-03T08:09:33Z</time>
      </trkpt>
      <trkpt lat="49.17087" lon="0.09219">
        <ele>80.5</ele>
        <time>2024-03-03T08:09:34Z</time>
      </trkpt>
      <trkpt lat="49.17082" lon="0.09224">
        <ele>80.6</ele>
        <time>2024-03-03T08:09:35Z</time>
      </trkpt>
      <trkpt lat="49.17078" lon="0.09229">
        <ele>80.7</ele>
        <time>2024-03-03T08:09:36Z</time>
      </trkpt>
      <trkpt lat="49.17073" lon="0.09233">
        <ele>80.8</ele>
        <time>2024-03-03T08:09:37Z</time>
      </trkpt>
      <trkpt lat="49.1707" lon="0.09236">
        <ele>80.9</ele>
        <time>2024-03-03T08:09:38Z</time>
      </trkpt>
      <trkpt lat="49.17066" lon="0.09238">
        <ele>81</ele>
        <time>2024-03-03T08:09:39Z</time>
      </trkpt>
      <trkpt lat="49.17061" lon="0.09241">
        <ele>81.1</ele>
        <time>2024-03-03T08:09:40Z</time>
      </trkpt>
      <trkpt lat="49.17056" lon="0.09244">
        <ele>81.2</ele>
        <time>2024-03-03T08:09:41Z</time>
      </trkpt>
      <trkpt lat="49.17051" lon="0.09248">
        <ele>81.3</ele>
        <time>2024-03-03T08:09:42Z</time>
      </trkpt>
      <trkpt lat="49.17046" lon="0.09254">
        <ele>81.4</ele>
        <time>2024-03-03T08:09:43Z</time>
      </trkpt>
      <trkpt lat="49.17041" lon="0.0926">
        <ele>81.5</ele>
        <time>2024-03-03T08:09:44Z</time>
      </trkpt>
      <trkpt lat="49.17036" lon="0.09265">
        <ele>81.6</ele>
        <time>2024-03-03T08:09:45Z</time>
      </trkpt>
      <trkpt lat="49.17032" lon="0.09269">
        <ele>81.7</ele>
        <time>2024-03-03T08:09:46Z</time>
      </trkpt>
      <trkpt lat="49.17027" lon="0.09273">
        <ele>81.9</ele>
        <time>2024-03-03T08:09:47Z</time>
      </trkpt>
      <trkpt lat="49.17024" lon="0.09277">
        <ele>82</ele>
        <time>2024-03-03T08:09:48Z</time>
      </trkpt>
      <trkpt lat="49.17019" lon="0.0928">
        <ele>82.2</ele>
        <time>2024-03-03T08:09:49Z</time>
      </trkpt>
      <trkpt lat="49.17015" lon="0.09284">
        <ele>82.4</ele>
        <time>2024-03-03T08:09:50Z</time>
      </trkpt>
      <trkpt lat="49.17011" lon="0.09287">
        <ele>82.5</ele>
        <time>2024-03-03T08:09:51Z</time>
      </trkpt>
      <trkpt lat="49.17007" lon="0.0929">
        <ele>82.7</ele>
        <time>2024-03-03T08:09:52Z</time>
      </trkpt>
      <trkpt lat="49.17003" lon="0.09295">
        <ele>82.8</ele>
        <time>2024-03-03T08:09:53Z</time>
      </trkpt>
      <trkpt lat="49.16999" lon="0.09297">
        <ele>82.9</ele>
        <time>2024-03-03T08:09:54Z</time>
      </trkpt>
      <trkpt lat="49.16995" lon="0.09301">
        <ele>83</ele>
        <time>2024-03-03T08:09:55Z</time>
      </trkpt>
      <trkpt lat="49.16991" lon="0.09304">
        <ele>83.1</ele>
        <time>2024-03-03T08:09:56Z</time>
      </trkpt>
      <trkpt lat="49.16988" lon="0.09306">
        <ele>83.2</ele>
        <time>2024-03-03T08:09:57Z</time>
      </trkpt>
      <trkpt lat="49.16983" lon="0.09309">
        <ele>83.3</ele>
        <time>2024-03-03T08:09:58Z</time>
      </trkpt>
      <trkpt lat="49.16978" lon="0.09313">
        <ele>83.3</ele>
        <time>2024-03-03T08:09:59Z</time>
      </trkpt>
      <trkpt lat="49.16974" lon="0.09317">
        <ele>83.4</ele>
        <time>2024-03-03T08:10:00Z</time>
      </trkpt>
      <trkpt lat="49.16971" lon="0.0932">
        <ele>83.5</ele>
        <time>2024-03-03T08:10:01Z</time>
      </trkpt>
      <trkpt lat="49.16968" lon="0.09323">
        <ele>83.5</ele>
        <time>2024-03-03T08:10:02Z</time>
      </trkpt>
      <trkpt lat="49.16965" lon="0.09325">
        <ele>83.6</ele>
        <time>2024-03-03T08:10:03Z</time>
      </trkpt>
      <trkpt lat="49.16962" lon="0.09327">
        <ele>83.6</ele>
        <time>2024-03-03T08:10:04Z</time>
      </trkpt>
      <trkpt lat="49.16959" lon="0.09329">
        <ele>83.7</ele>
        <time>2024-03-03T08:10:05Z</time>
      </trkpt>
      <trkpt lat="49.16955" lon="0.09331">
        <ele>83.7</ele>
        <time>2024-03-03T08:10:06Z</time>
      </trkpt>
      <trkpt lat="49.16951" lon="0.09335">
        <ele>83.8</ele>
        <time>2024-03-03T08:10:07Z</time>
      </trkpt>
      <trkpt lat="49.16947" lon="0.09339">
        <ele>83.8</ele>
        <time>2024-03-03T08:10:08Z</time>
      </trkpt>
      <trkpt lat="49.16942" lon="0.09345">
        <ele>83.9</ele>
        <time>2024-03-03T08:10:09Z</time>
      </trkpt>
      <trkpt lat="49.16936" lon="0.09351">
        <ele>83.9</ele>
        <time>2024-03-03T08:10:10Z</time>
      </trkpt>
      <trkpt lat="49.16931" lon="0.09356">
        <ele>84</ele>
        <time>2024-03-03T08:10:11Z</time>
      </trkpt>
      <trkpt lat="49.16926" lon="0.09362">
        <ele>84</ele>
        <time>2024-03-03T08:10:12Z</time>
      </trkpt>
      <trkpt lat="49.1692" lon="0.09367">
        <ele>84</ele>
        <time>2024-03-03T08:10:13Z</time>
      </trkpt>
      <trkpt lat="49.16916" lon="0.09373">
        <ele>84.1</ele>
        <time>2024-03-03T08:10:14Z</time>
      </trkpt>
      <trkpt lat="49.16911" lon="0.09377">
        <ele>84.2</ele>
        <time>2024-03-03T08:10:15Z</time>
      </trkpt>
      <trkpt lat="49.16906" lon="0.09383">
        <ele>84.3</ele>
        <time>2024-03-03T08:10:16Z</time>
      </trkpt>
      <trkpt lat="49.16901" lon="0.09388">
        <ele>84.4</ele>
        <time>2024-03-03T08:10:17Z</time>
      </trkpt>
      <trkpt lat="49.16897" lon="0.09394">
        <ele>84.5</ele>
        <time>2024-03-03T08:10:18Z</time>
      </trkpt>
      <trkpt lat="49.16893" lon="0.09399">
        <ele>84.6</ele>
        <time>2024-03-03T08:10:19Z</time>
      </trkpt>
      <trkpt lat="49.1689" lon="0.09403">
        <ele>84.7</ele>
        <time>2024-03-03T08:10:20Z</time>
      </trkpt>
      <trkpt lat="49.16886" lon="0.09407">
        <ele>84.7</ele>
        <time>2024-03-03T08:10:21Z</time>
      </trkpt>
      <trkpt lat="49.16883" lon="0.0941">
        <ele>84.8</ele>
        <time>2024-03-03T08:10:22Z</time>
      </trkpt>
      <trkpt lat="49.1688" lon="0.09413">
        <ele>84.9</ele>
        <time>2024-03-03T08:10:23Z</time>
      </trkpt>
      <trkpt lat="49.16877" lon="0.09416">
        <ele>84.9</ele>
        <time>2024-03-03T08:10:24Z</time>
      </trkpt>
      <trkpt lat="49.16874" lon="0.0942">
        <ele>85</ele>
        <time>2024-03-03T08:10:25Z</time>
      </trkpt>
      <trkpt lat="49.1687" lon="0.09423">
        <ele>85.1</ele>
        <time>2024-03-03T08:10:26Z</time>
      </trkpt>
      <trkpt lat="49.16863" lon="0.09427">
        <ele>85.2</ele>
        <time>2024-03-03T08:10:27Z</time>
      </trkpt>
      <trkpt lat="49.16857" lon="0.09431">
        <ele>85.4</ele>
        <time>2024-03-03T08:10:28Z</time>
      </trkpt>
      <trkpt lat="49.16851" lon="0.09434">
        <ele>85.5</ele>
        <time>2024-03-03T08:10:29Z</time>
      </trkpt>
      <trkpt lat="49.16846" lon="0.09435">
        <ele>85.6</ele>
        <time>2024-03-03T08:10:30Z</time>
      </trkpt>
      <trkpt lat="49.1684" lon="0.09435">
        <ele>85.7</ele>
        <time>2024-03-03T08:10:31Z</time>
      </trkpt>
      <trkpt lat="49.16833" lon="0.09436">
        <ele>85.8</ele>
        <time>2024-03-03T08:10:32Z</time>
      </trkpt>
      <trkpt lat="49.16826" lon="0.09436">
        <ele>85.8</ele>
        <time>2024-03-03T08:10:33Z</time>
      </trkpt>
      <trkpt lat="49.16818" lon="0.09437">
        <ele>85.9</ele>
        <time>2024-03-03T08:10:34Z</time>
      </trkpt>
      <trkpt lat="49.1681" lon="0.09437">
        <ele>86</ele>
        <time>2024-03-03T08:10:35Z</time>
      </trkpt>
      <trkpt lat="49.16804" lon="0.09439">
        <ele>86</ele>
        <time>2024-03-03T08:10:36Z</time>
      </trkpt>
      <trkpt lat="49.16796" lon="0.09441">
        <ele>86</ele>
        <time>2024-03-03T08:10:37Z</time>
      </trkpt>
      <trkpt lat="49.16789" lon="0.09442">
        <ele>86</ele>
        <time>2024-03-03T08:10:38Z</time>
      </trkpt>
      <trkpt lat="49.16781" lon="0.09443">
        <ele>86</ele>
        <time>2024-03-03T08:10:39Z</time>
      </trkpt>
      <trkpt lat="49.16774" lon="0.09444">
        <ele>86.1</ele>
        <time>2024-03-03T08:10:40Z</time>
      </trkpt>
      <trkpt lat="49.16767" lon="0.09444">
        <ele>86.1</ele>
        <time>2024-03-03T08:10:41Z</time>
      </trkpt>
      <trkpt lat="49.1676" lon="0.09444">
        <ele>86.3</ele>
        <time>2024-03-03T08:10:42Z</time>
      </trkpt>
      <trkpt lat="49.16753" lon="0.09444">
        <ele>86.4</ele>
        <time>2024-03-03T08:10:43Z</time>
      </trkpt>
      <trkpt lat="49.16746" lon="0.09443">
        <ele>86.6</ele>
        <time>2024-03-03T08:10:44Z</time>
      </trkpt>
      <trkpt lat="49.16739" lon="0.09443">
        <ele>86.7</ele>
        <time>2024-03-03T08:10:45Z</time>
      </trkpt>
      <trkpt lat="49.16733" lon="0.09442">
        <ele>86.9</ele>
        <time>2024-03-03T08:10:46Z</time>
      </trkpt>
      <trkpt lat="49.16727" lon="0.09442">
        <ele>87.1</ele>
        <time>2024-03-03T08:10:47Z</time>
      </trkpt>
      <trkpt lat="49.16721" lon="0.09442">
        <ele>87.3</ele>
        <time>2024-03-03T08:10:48Z</time>
      </trkpt>
      <trkpt lat="49.16715" lon="0.09442">
        <ele>87.4</ele>
        <time>2024-03-03T08:10:49Z</time>
      </trkpt>
      <trkpt lat="49.1671" lon="0.09442">
        <ele>87.6</ele>
        <time>2024-03-03T08:10:50Z</time>
      </trkpt>
      <trkpt lat="49.16703" lon="0.09442">
        <ele>87.8</ele>
        <time>2024-03-03T08:10:51Z</time>
      </trkpt>
      <trkpt lat="49.16697" lon="0.09442">
        <ele>88</ele>
        <time>2024-03-03T08:10:52Z</time>
      </trkpt>
      <trkpt lat="49.16691" lon="0.09443">
        <ele>88.2</ele>
        <time>2024-03-03T08:10:53Z</time>
      </trkpt>
      <trkpt lat="49.16685" lon="0.09445">
        <ele>88.4</ele>
        <time>2024-03-03T08:10:54Z</time>
      </trkpt>
      <trkpt lat="49.16679" lon="0.09446">
        <ele>88.6</ele>
        <time>2024-03-03T08:10:55Z</time>
      </trkpt>
      <trkpt lat="49.16673" lon="0.09447">
        <ele>88.8</ele>
        <time>2024-03-03T08:10:56Z</time>
      </trkpt>
      <trkpt lat="49.16667" lon="0.09448">
        <ele>89</ele>
        <time>2024-03-03T08:10:57Z</time>
      </trkpt>
      <trkpt lat="49.16662" lon="0.0945">
        <ele>89.1</ele>
        <time>2024-03-03T08:10:58Z</time>
      </trkpt>
      <trkpt lat="49.16657" lon="0.09451">
        <ele>89.3</ele>
        <time>2024-03-03T08:10:59Z</time>
      </trkpt>
      <trkpt lat="49.16652" lon="0.09453">
        <ele>89.4</ele>
        <time>2024-03-03T08:11:00Z</time>
      </trkpt>
      <trkpt lat="49.16647" lon="0.09456">
        <ele>89.6</ele>
        <time>2024-03-03T08:11:01Z</time>
      </trkpt>
      <trkpt lat="49.16642" lon="0.09458">
        <ele>89.8</ele>
        <time>2024-03-03T08:11:02Z</time>
      </trkpt>
      <trkpt lat="49.16636" lon="0.0946">
        <ele>90</ele>
        <time>2024-03-03T08:11:03Z</time>
      </trkpt>
      <trkpt lat="49.16631" lon="0.09462">
        <ele>90.2</ele>
        <time>2024-03-03T08:11:04Z</time>
      </trkpt>
      <trkpt lat="49.16626" lon="0.09464">
        <ele>90.5</ele>
        <time>2024-03-03T08:11:05Z</time>
      </trkpt>
      <trkpt lat="49.1662" lon="0.09467">
        <ele>90.7</ele>
        <time>2024-03-03T08:11:06Z</time>
      </trkpt>
      <trkpt lat="49.16615" lon="0.09468">
        <ele>91</ele>
        <time>2024-03-03T08:11:07Z</time>
      </trkpt>
      <trkpt lat="49.16609" lon="0.0947">
        <ele>91.2</ele>
        <time>2024-03-03T08:11:08Z</time>
      </trkpt>
      <trkpt lat="49.16604" lon="0.09472">
        <ele>91.5</ele>
        <time>2024-03-03T08:11:09Z</time>
      </trkpt>
      <trkpt lat="49.16599" lon="0.09474">
        <ele>91.7</ele>
        <time>2024-03-03T08:11:10Z</time>
      </trkpt>
      <trkpt lat="49.16594" lon="0.09475">
        <ele>92</ele>
        <time>2024-03-03T08:11:11Z</time>
      </trkpt>
      <trkpt lat="49.16589" lon="0.09477">
        <ele>92.2</ele>
        <time>2024-03-03T08:11:12Z</time>
      </trkpt>
      <trkpt lat="49.16584" lon="0.09477">
        <ele>92.5</ele>
        <time>2024-03-03T08:11:13Z</time>
      </trkpt>
      <trkpt lat="49.16579" lon="0.09477">
        <ele>92.8</ele>
        <time>2024-03-03T08:11:14Z</time>
      </trkpt>
      <trkpt lat="49.16575" lon="0.09479">
        <ele>93</ele>
        <time>2024-03-03T08:11:15Z</time>
      </trkpt>
      <trkpt lat="49.1657" lon="0.09481">
        <ele>93.3</ele>
        <time>2024-03-03T08:11:16Z</time>
      </trkpt>
      <trkpt lat="49.16566" lon="0.09483">
        <ele>93.6</ele>
        <time>2024-03-03T08:11:17Z</time>
      </trkpt>
      <trkpt lat="49.16562" lon="0.09486">
        <ele>93.9</ele>
        <time>2024-03-03T08:11:18Z</time>
      </trkpt>
      <trkpt lat="49.16557" lon="0.09489">
        <ele>94.2</ele>
        <time>2024-03-03T08:11:19Z</time>
      </trkpt>
      <trkpt lat="49.16552" lon="0.09492">
        <ele>94.5</ele>
        <time>2024-03-03T08:11:20Z</time>
      </trkpt>
      <trkpt lat="49.16548" lon="0.09495">
        <ele>94.8</ele>
        <time>2024-03-03T08:11:21Z</time>
      </trkpt>
      <trkpt lat="49.16543" lon="0.09498">
        <ele>95.1</ele>
        <time>2024-03-03T08:11:22Z</time>
      </trkpt>
      <trkpt lat="49.16538" lon="0.09501">
        <ele>95.3</ele>
        <time>2024-03-03T08:11:23Z</time>
      </trkpt>
      <trkpt lat="49.16534" lon="0.09503">
        <ele>95.6</ele>
        <time>2024-03-03T08:11:24Z</time>
      </trkpt>
      <trkpt lat="49.1653" lon="0.09505">
        <ele>95.9</ele>
        <time>2024-03-03T08:11:25Z</time>
      </trkpt>
      <trkpt lat="49.16525" lon="0.09507">
        <ele>96.1</ele>
        <time>2024-03-03T08:11:26Z</time>
      </trkpt>
      <trkpt lat="49.16522" lon="0.09508">
        <ele>96.4</ele>
        <time>2024-03-03T08:11:27Z</time>
      </trkpt>
      <trkpt lat="49.16518" lon="0.0951">
        <ele>96.6</ele>
        <time>2024-03-03T08:11:28Z</time>
      </trkpt>
      <trkpt lat="49.16514" lon="0.09511">
        <ele>96.8</ele>
        <time>2024-03-03T08:11:29Z</time>
      </trkpt>
      <trkpt lat="49.16509" lon="0.09513">
        <ele>97</ele>
        <time>2024-03-03T08:11:30Z</time>
      </trkpt>
      <trkpt lat="49.16506" lon="0.09515">
        <ele>97.2</ele>
        <time>2024-03-03T08:11:31Z</time>
      </trkpt>
      <trkpt lat="49.16501" lon="0.09518">
        <ele>97.4</ele>
        <time>2024-03-03T08:11:32Z</time>
      </trkpt>
      <trkpt lat="49.16496" lon="0.09522">
        <ele>97.7</ele>
        <time>2024-03-03T08:11:33Z</time>
      </trkpt>
      <trkpt lat="49.16491" lon="0.09526">
        <ele>97.9</ele>
        <time>2024-03-03T08:11:34Z</time>
      </trkpt>
      <trkpt lat="49.16486" lon="0.09532">
        <ele>98.2</ele>
        <time>2024-03-03T08:11:35Z</time>
      </trkpt>
      <trkpt lat="49.1648" lon="0.09537">
        <ele>98.4</ele>
        <time>2024-03-03T08:11:36Z</time>
      </trkpt>
      <trkpt lat="49.16476" lon="0.09542">
        <ele>98.7</ele>
        <time>2024-03-03T08:11:37Z</time>
      </trkpt>
      <trkpt lat="49.1647" lon="0.09547">
        <ele>98.9</ele>
        <time>2024-03-03T08:11:38Z</time>
      </trkpt>
      <trkpt lat="49.16465" lon="0.09551">
        <ele>99.1</ele>
        <time>2024-03-03T08:11:39Z</time>
      </trkpt>
      <trkpt lat="49.1646" lon="0.09555">
        <ele>99.3</ele>
        <time>2024-03-03T08:11:40Z</time>
      </trkpt>
      <trkpt lat="49.16455" lon="0.09559">
        <ele>99.5</ele>
        <time>2024-03-03T08:11:41Z</time>
      </trkpt>
      <trkpt lat="49.1645" lon="0.09563">
        <ele>99.7</ele>
        <time>2024-03-03T08:11:42Z</time>
      </trkpt>
      <trkpt lat="49.16445" lon="0.09568">
        <ele>99.9</ele>
        <time>2024-03-03T08:11:43Z</time>
      </trkpt>
      <trkpt lat="49.1644" lon="0.09572">
        <ele>100</ele>
        <time>2024-03-03T08:11:44Z</time>
      </trkpt>
      <trkpt lat="49.16435" lon="0.09577">
        <ele>100.1</ele>
        <time>2024-03-03T08:11:45Z</time>
      </trkpt>
      <trkpt lat="49.1643" lon="0.09581">
        <ele>100.1</ele>
        <time>2024-03-03T08:11:46Z</time>
      </trkpt>
      <trkpt lat="49.16425" lon="0.09586">
        <ele>100.1</ele>
        <time>2024-03-03T08:11:47Z</time>
      </trkpt>
      <trkpt lat="49.1642" lon="0.09591">
        <ele>100.1</ele>
        <time>2024-03-03T08:11:48Z</time>
      </trkpt>
      <trkpt lat="49.16416" lon="0.09596">
        <ele>100.1</ele>
        <time>2024-03-03T08:11:49Z</time>
      </trkpt>
      <trkpt lat="49.16411" lon="0.09601">
        <ele>100</ele>
        <time>2024-03-03T08:11:50Z</time>
      </trkpt>
      <trkpt lat="49.16406" lon="0.09605">
        <ele>99.9</ele>
        <time>2024-03-03T08:11:51Z</time>
      </trkpt>
      <trkpt lat="49.164" lon="0.0961">
        <ele>99.8</ele>
        <time>2024-03-03T08:11:52Z</time>
      </trkpt>
      <trkpt lat="49.16395" lon="0.09616">
        <ele>99.7</ele>
        <time>2024-03-03T08:11:53Z</time>
      </trkpt>
      <trkpt lat="49.16391" lon="0.09622">
        <ele>99.7</ele>
        <time>2024-03-03T08:11:54Z</time>
      </trkpt>
      <trkpt lat="49.16385" lon="0.09628">
        <ele>99.6</ele>
        <time>2024-03-03T08:11:55Z</time>
      </trkpt>
      <trkpt lat="49.1638" lon="0.09636">
        <ele>99.6</ele>
        <time>2024-03-03T08:11:56Z</time>
      </trkpt>
      <trkpt lat="49.16375" lon="0.09641">
        <ele>99.6</ele>
        <time>2024-03-03T08:11:57Z</time>
      </trkpt>
      <trkpt lat="49.1637" lon="0.09647">
        <ele>99.7</ele>
        <time>2024-03-03T08:11:58Z</time>
      </trkpt>
      <trkpt lat="49.16365" lon="0.09653">
        <ele>99.7</ele>
        <time>2024-03-03T08:11:59Z</time>
      </trkpt>
      <trkpt lat="49.1636" lon="0.09658">
        <ele>99.6</ele>
        <time>2024-03-03T08:12:00Z</time>
      </trkpt>
      <trkpt lat="49.16355" lon="0.09663">
        <ele>99.6</ele>
        <time>2024-03-03T08:12:01Z</time>
      </trkpt>
      <trkpt lat="49.1635" lon="0.09668">
        <ele>99.6</ele>
        <time>2024-03-03T08:12:02Z</time>
      </trkpt>
      <trkpt lat="49.16346" lon="0.09675">
        <ele>99.6</ele>
        <time>2024-03-03T08:12:03Z</time>
      </trkpt>
      <trkpt lat="49.16342" lon="0.09681">
        <ele>99.6</ele>
        <time>2024-03-03T08:12:04Z</time>
      </trkpt>
      <trkpt lat="49.16338" lon="0.09687">
        <ele>99.7</ele>
        <time>2024-03-03T08:12:05Z</time>
      </trkpt>
      <trkpt lat="49.16334" lon="0.09693">
        <ele>99.8</ele>
        <time>2024-03-03T08:12:06Z</time>
      </trkpt>
      <trkpt lat="49.16331" lon="0.09699">
        <ele>99.8</ele>
        <time>2024-03-03T08:12:07Z</time>
      </trkpt>
      <trkpt lat="49.16328" lon="0.09706">
        <ele>100</ele>
        <time>2024-03-03T08:12:08Z</time>
      </trkpt>
      <trkpt lat="49.16324" lon="0.09713">
        <ele>100.1</ele>
        <time>2024-03-03T08:12:09Z</time>
      </trkpt>
      <trkpt lat="49.1632" lon="0.0972">
        <ele>100.2</ele>
        <time>2024-03-03T08:12:10Z</time>
      </trkpt>
      <trkpt lat="49.16317" lon="0.09726">
        <ele>100.4</ele>
        <time>2024-03-03T08:12:11Z</time>
      </trkpt>
      <trkpt lat="49.16314" lon="0.09732">
        <ele>100.5</ele>
        <time>2024-03-03T08:12:12Z</time>
      </trkpt>
      <trkpt lat="49.16311" lon="0.09738">
        <ele>100.6</ele>
        <time>2024-03-03T08:12:13Z</time>
      </trkpt>
      <trkpt lat="49.16307" lon="0.09743">
        <ele>100.8</ele>
        <time>2024-03-03T08:12:14Z</time>
      </trkpt>
      <trkpt lat="49.16303" lon="0.09749">
        <ele>100.9</ele>
        <time>2024-03-03T08:12:15Z</time>
      </trkpt>
      <trkpt lat="49.163" lon="0.09756">
        <ele>101</ele>
        <time>2024-03-03T08:12:16Z</time>
      </trkpt>
      <trkpt lat="49.16297" lon="0.09764">
        <ele>101.1</ele>
        <time>2024-03-03T08:12:17Z</time>
      </trkpt>
      <trkpt lat="49.16293" lon="0.09771">
        <ele>101.2</ele>
        <time>2024-03-03T08:12:18Z</time>
      </trkpt>
      <trkpt lat="49.1629" lon="0.09778">
        <ele>101.3</ele>
        <time>2024-03-03T08:12:19Z</time>
      </trkpt>
      <trkpt lat="49.16287" lon="0.09784">
        <ele>101.4</ele>
        <time>2024-03-03T08:12:20Z</time>
      </trkpt>
      <trkpt lat="49.16283" lon="0.0979">
        <ele>101.5</ele>
        <time>2024-03-03T08:12:21Z</time>
      </trkpt>
      <trkpt lat="49.16279" lon="0.09796">
        <ele>101.7</ele>
        <time>2024-03-03T08:12:22Z</time>
      </trkpt>
      <trkpt lat="49.16275" lon="0.09803">
        <ele>101.8</ele>
        <time>2024-03-03T08:12:23Z</time>
      </trkpt>
      <trkpt lat="49.1627" lon="0.09809">
        <ele>102</ele>
        <time>2024-03-03T08:12:24Z</time>
      </trkpt>
      <trkpt lat="49.16266" lon="0.09816">
        <ele>102.1</ele>
        <time>2024-03-03T08:12:25Z</time>
      </trkpt>
      <trkpt lat="49.16262" lon="0.09823">
        <ele>102.3</ele>
        <time>2024-03-03T08:12:26Z</time>
      </trkpt>
      <trkpt lat="49.16258" lon="0.09829">
        <ele>102.4</ele>
        <time>2024-03-03T08:12:27Z</time>
      </trkpt>
      <trkpt lat="49.16254" lon="0.09835">
        <ele>102.5</ele>
        <time>2024-03-03T08:12:28Z</time>
      </trkpt>
      <trkpt lat="49.1625" lon="0.0984">
        <ele>102.6</ele>
        <time>2024-03-03T08:12:29Z</time>
      </trkpt>
      <trkpt lat="49.16246" lon="0.09845">
        <ele>102.7</ele>
        <time>2024-03-03T08:12:30Z</time>
      </trkpt>
      <trkpt lat="49.16241" lon="0.09851">
        <ele>102.9</ele>
        <time>2024-03-03T08:12:31Z</time>
      </trkpt>
      <trkpt lat="49.16237" lon="0.09857">
        <ele>102.9</ele>
        <time>2024-03-03T08:12:32Z</time>
      </trkpt>
      <trkpt lat="49.16233" lon="0.09862">
        <ele>103</ele>
        <time>2024-03-03T08:12:33Z</time>
      </trkpt>
      <trkpt lat="49.16228" lon="0.09867">
        <ele>103.1</ele>
        <time>2024-03-03T08:12:34Z</time>
      </trkpt>
      <trkpt lat="49.16224" lon="0.09873">
        <ele>103.1</ele>
        <time>2024-03-03T08:12:35Z</time>
      </trkpt>
      <trkpt lat="49.16218" lon="0.09878">
        <ele>103.2</ele>
        <time>2024-03-03T08:12:36Z</time>
      </trkpt>
      <trkpt lat="49.16213" lon="0.09883">
        <ele>103.2</ele>
        <time>2024-03-03T08:12:37Z</time>
      </trkpt>
      <trkpt lat="49.16207" lon="0.09889">
        <ele>103.2</ele>
        <time>2024-03-03T08:12:38Z</time>
      </trkpt>
      <trkpt lat="49.16203" lon="0.09895">
        <ele>103.2</ele>
        <time>2024-03-03T08:12:39Z</time>
      </trkpt>
      <trkpt lat="49.16198" lon="0.09903">
        <ele>103.3</ele>
        <time>2024-03-03T08:12:40Z</time>
      </trkpt>
      <trkpt lat="49.16194" lon="0.09912">
        <ele>103.3</ele>
        <time>2024-03-03T08:12:41Z</time>
      </trkpt>
      <trkpt lat="49.16189" lon="0.0992">
        <ele>103.3</ele>
        <time>2024-03-03T08:12:42Z</time>
      </trkpt>
      <trkpt lat="49.16185" lon="0.09927">
        <ele>103.3</ele>
        <time>2024-03-03T08:12:43Z</time>
      </trkpt>
      <trkpt lat="49.1618" lon="0.09934">
        <ele>103.3</ele>
        <time>2024-03-03T08:12:44Z</time>
      </trkpt>
      <trkpt lat="49.16176" lon="0.09942">
        <ele>103.4</ele>
        <time>2024-03-03T08:12:45Z</time>
      </trkpt>
      <trkpt lat="49.16172" lon="0.0995">
        <ele>103.4</ele>
        <time>2024-03-03T08:12:46Z</time>
      </trkpt>
      <trkpt lat="49.16169" lon="0.09958">
        <ele>103.5</ele>
        <time>2024-03-03T08:12:47Z</time>
      </trkpt>
      <trkpt lat="49.16165" lon="0.09966">
        <ele>103.5</ele>
        <time>2024-03-03T08:12:48Z</time>
      </trkpt>
      <trkpt lat="49.16162" lon="0.09974">
        <ele>103.6</ele>
        <time>2024-03-03T08:12:49Z</time>
      </trkpt>
      <trkpt lat="49.16159" lon="0.09981">
        <ele>103.7</ele>
        <time>2024-03-03T08:12:50Z</time>
      </trkpt>
      <trkpt lat="49.16155" lon="0.0999">
        <ele>103.8</ele>
        <time>2024-03-03T08:12:51Z</time>
      </trkpt>
      <trkpt lat="49.16152" lon="0.09998">
        <ele>103.9</ele>
        <time>2024-03-03T08:12:52Z</time>
      </trkpt>
      <trkpt lat="49.16149" lon="0.10007">
        <ele>104</ele>
        <time>2024-03-03T08:12:53Z</time>
      </trkpt>
      <trkpt lat="49.16146" lon="0.10016">
        <ele>104</ele>
        <time>2024-03-03T08:12:54Z</time>
      </trkpt>
      <trkpt lat="49.16143" lon="0.10024">
        <ele>104.1</ele>
        <time>2024-03-03T08:12:55Z</time>
      </trkpt>
      <trkpt lat="49.16139" lon="0.10032">
        <ele>104.1</ele>
        <time>2024-03-03T08:12:56Z</time>
      </trkpt>
      <trkpt lat="49.16136" lon="0.1004">
        <ele>104.2</ele>
        <time>2024-03-03T08:12:57Z</time>
      </trkpt>
      <trkpt lat="49.16132" lon="0.10048">
        <ele>104.2</ele>
        <time>2024-03-03T08:12:58Z</time>
      </trkpt>
      <trkpt lat="49.16129" lon="0.10056">
        <ele>104.2</ele>
        <time>2024-03-03T08:12:59Z</time>
      </trkpt>
      <trkpt lat="49.16127" lon="0.10064">
        <ele>104.3</ele>
        <time>2024-03-03T08:13:00Z</time>
      </trkpt>
      <trkpt lat="49.16124" lon="0.10073">
        <ele>104.3</ele>
        <time>2024-03-03T08:13:01Z</time>
      </trkpt>
      <trkpt lat="49.16121" lon="0.10081">
        <ele>104.4</ele>
        <time>2024-03-03T08:13:02Z</time>
      </trkpt>
      <trkpt lat="49.16119" lon="0.10089">
        <ele>104.5</ele>
        <time>2024-03-03T08:13:03Z</time>
      </trkpt>
      <trkpt lat="49.16116" lon="0.10098">
        <ele>104.5</ele>
        <time>2024-03-03T08:13:04Z</time>
      </trkpt>
      <trkpt lat="49.16114" lon="0.10107">
        <ele>104.6</ele>
        <time>2024-03-03T08:13:05Z</time>
      </trkpt>
      <trkpt lat="49.16111" lon="0.10115">
        <ele>104.6</ele>
        <time>2024-03-03T08:13:06Z</time>
      </trkpt>
      <trkpt lat="49.16109" lon="0.10123">
        <ele>104.7</ele>
        <time>2024-03-03T08:13:07Z</time>
      </trkpt>
      <trkpt lat="49.16107" lon="0.10131">
        <ele>104.8</ele>
        <time>2024-03-03T08:13:08Z</time>
      </trkpt>
      <trkpt lat="49.16103" lon="0.10139">
        <ele>104.9</ele>
        <time>2024-03-03T08:13:09Z</time>
      </trkpt>
      <trkpt lat="49.16099" lon="0.10146">
        <ele>105</ele>
        <time>2024-03-03T08:13:10Z</time>
      </trkpt>
      <trkpt lat="49.16096" lon="0.10153">
        <ele>105.1</ele>
        <time>2024-03-03T08:13:11Z</time>
      </trkpt>
      <trkpt lat="49.16092" lon="0.10161">
        <ele>105.2</ele>
        <time>2024-03-03T08:13:12Z</time>
      </trkpt>
      <trkpt lat="49.16088" lon="0.10168">
        <ele>105.3</ele>
        <time>2024-03-03T08:13:13Z</time>
      </trkpt>
      <trkpt lat="49.16084" lon="0.10176">
        <ele>105.4</ele>
        <time>2024-03-03T08:13:14Z</time>
      </trkpt>
      <trkpt lat="49.16081" lon="0.10183">
        <ele>105.4</ele>
        <time>2024-03-03T08:13:15Z</time>
      </trkpt>
      <trkpt lat="49.16077" lon="0.1019">
        <ele>105.5</ele>
        <time>2024-03-03T08:13:16Z</time>
      </trkpt>
      <trkpt lat="49.16072" lon="0.10196">
        <ele>105.5</ele>
        <time>2024-03-03T08:13:17Z</time>
      </trkpt>
      <trkpt lat="49.16068" lon="0.10203">
        <ele>105.4</ele>
        <time>2024-03-03T08:13:18Z</time>
      </trkpt>
      <trkpt lat="49.16063" lon="0.10209">
        <ele>105.2</ele>
        <time>2024-03-03T08:13:19Z</time>
      </trkpt>
      <trkpt lat="49.16058" lon="0.10215">
        <ele>105.1</ele>
        <time>2024-03-03T08:13:20Z</time>
      </trkpt>
      <trkpt lat="49.16052" lon="0.10221">
        <ele>105</ele>
        <time>2024-03-03T08:13:21Z</time>
      </trkpt>
      <trkpt lat="49.16047" lon="0.10228">
        <ele>104.9</ele>
        <time>2024-03-03T08:13:22Z</time>
      </trkpt>
      <trkpt lat="49.16041" lon="0.10234">
        <ele>104.7</ele>
        <time>2024-03-03T08:13:23Z</time>
      </trkpt>
      <trkpt lat="49.16036" lon="0.1024">
        <ele>104.6</ele>
        <time>2024-03-03T08:13:24Z</time>
      </trkpt>
      <trkpt lat="49.1603" lon="0.10247">
        <ele>104.6</ele>
        <time>2024-03-03T08:13:25Z</time>
      </trkpt>
      <trkpt lat="49.16024" lon="0.10254">
        <ele>104.5</ele>
        <time>2024-03-03T08:13:26Z</time>
      </trkpt>
      <trkpt lat="49.16019" lon="0.1026">
        <ele>104.5</ele>
        <time>2024-03-03T08:13:27Z</time>
      </trkpt>
      <trkpt lat="49.16013" lon="0.10266">
        <ele>104.5</ele>
        <time>2024-03-03T08:13:28Z</time>
      </trkpt>
      <trkpt lat="49.16007" lon="0.10271">
        <ele>104.5</ele>
        <time>2024-03-03T08:13:29Z</time>
      </trkpt>
      <trkpt lat="49.16001" lon="0.10277">
        <ele>104.6</ele>
        <time>2024-03-03T08:13:30Z</time>
      </trkpt>
      <trkpt lat="49.15995" lon="0.10282">
        <ele>104.6</ele>
        <time>2024-03-03T08:13:31Z</time>
      </trkpt>
      <trkpt lat="49.1599" lon="0.10287">
        <ele>104.7</ele>
        <time>2024-03-03T08:13:32Z</time>
      </trkpt>
      <trkpt lat="49.15984" lon="0.10292">
        <ele>104.8</ele>
        <time>2024-03-03T08:13:33Z</time>
      </trkpt>
      <trkpt lat="49.15979" lon="0.10297">
        <ele>104.9</ele>
        <time>2024-03-03T08:13:34Z</time>
      </trkpt>
      <trkpt lat="49.15974" lon="0.10302">
        <ele>105</ele>
        <time>2024-03-03T08:13:35Z</time>
      </trkpt>
      <trkpt lat="49.15968" lon="0.10308">
        <ele>105.1</ele>
        <time>2024-03-03T08:13:36Z</time>
      </trkpt>
      <trkpt lat="49.15963" lon="0.10313">
        <ele>105.3</ele>
        <time>2024-03-03T08:13:37Z</time>
      </trkpt>
      <trkpt lat="49.15958" lon="0.10318">
        <ele>105.5</ele>
        <time>2024-03-03T08:13:38Z</time>
      </trkpt>
      <trkpt lat="49.15954" lon="0.10323">
        <ele>105.7</ele>
        <time>2024-03-03T08:13:39Z</time>
      </trkpt>
      <trkpt lat="49.15949" lon="0.10328">
        <ele>106</ele>
        <time>2024-03-03T08:13:40Z</time>
      </trkpt>
      <trkpt lat="49.15944" lon="0.10333">
        <ele>106.2</ele>
        <time>2024-03-03T08:13:41Z</time>
      </trkpt>
      <trkpt lat="49.1594" lon="0.10337">
        <ele>106.5</ele>
        <time>2024-03-03T08:13:42Z</time>
      </trkpt>
      <trkpt lat="49.15935" lon="0.10341">
        <ele>106.7</ele>
        <time>2024-03-03T08:13:43Z</time>
      </trkpt>
      <trkpt lat="49.15931" lon="0.10346">
        <ele>107</ele>
        <time>2024-03-03T08:13:44Z</time>
      </trkpt>
      <trkpt lat="49.15927" lon="0.10351">
        <ele>107.3</ele>
        <time>2024-03-03T08:13:45Z</time>
      </trkpt>
      <trkpt lat="49.15923" lon="0.10355">
        <ele>107.6</ele>
        <time>2024-03-03T08:13:46Z</time>
      </trkpt>
      <trkpt lat="49.15919" lon="0.1036">
        <ele>107.8</ele>
        <time>2024-03-03T08:13:47Z</time>
      </trkpt>
      <trkpt lat="49.15915" lon="0.10365">
        <ele>108.2</ele>
        <time>2024-03-03T08:13:48Z</time>
      </trkpt>
      <trkpt lat="49.15911" lon="0.1037">
        <ele>108.5</ele>
        <time>2024-03-03T08:13:49Z</time>
      </trkpt>
      <trkpt lat="49.15907" lon="0.10374">
        <ele>108.8</ele>
        <time>2024-03-03T08:13:50Z</time>
      </trkpt>
      <trkpt lat="49.15903" lon="0.10378">
        <ele>109.1</ele>
        <time>2024-03-03T08:13:51Z</time>
      </trkpt>
      <trkpt lat="49.15899" lon="0.10383">
        <ele>109.4</ele>
        <time>2024-03-03T08:13:52Z</time>
      </trkpt>
      <trkpt lat="49.15895" lon="0.10388">
        <ele>109.7</ele>
        <time>2024-03-03T08:13:53Z</time>
      </trkpt>
      <trkpt lat="49.15891" lon="0.10392">
        <ele>110</ele>
        <time>2024-03-03T08:13:54Z</time>
      </trkpt>
      <trkpt lat="49.15887" lon="0.10397">
        <ele>110.2</ele>
        <time>2024-03-03T08:13:55Z</time>
      </trkpt>
      <trkpt lat="49.15883" lon="0.10402">
        <ele>110.5</ele>
        <time>2024-03-03T08:13:56Z</time>
      </trkpt>
      <trkpt lat="49.15879" lon="0.10406">
        <ele>110.8</ele>
        <time>2024-03-03T08:13:57Z</time>
      </trkpt>
      <trkpt lat="49.15876" lon="0.1041">
        <ele>111</ele>
        <time>2024-03-03T08:13:58Z</time>
      </trkpt>
      <trkpt lat="49.15872" lon="0.10414">
        <ele>111.3</ele>
        <time>2024-03-03T08:13:59Z</time>
      </trkpt>
      <trkpt lat="49.15868" lon="0.10419">
        <ele>111.6</ele>
        <time>2024-03-03T08:14:00Z</time>
      </trkpt>
      <trkpt lat="49.15864" lon="0.10422">
        <ele>111.8</ele>
        <time>2024-03-03T08:14:01Z</time>
      </trkpt>
      <trkpt lat="49.1586" lon="0.10427">
        <ele>112.1</ele>
        <time>2024-03-03T08:14:02Z</time>
      </trkpt>
      <trkpt lat="49.15856" lon="0.10431">
        <ele>112.4</ele>
        <time>2024-03-03T08:14:03Z</time>
      </trkpt>
      <trkpt lat="49.15852" lon="0.10435">
        <ele>112.6</ele>
        <time>2024-03-03T08:14:04Z</time>
      </trkpt>
      <trkpt lat="49.15848" lon="0.1044">
        <ele>112.9</ele>
        <time>2024-03-03T08:14:05Z</time>
      </trkpt>
      <trkpt lat="49.15844" lon="0.10444">
        <ele>113.1</ele>
        <time>2024-03-03T08:14:06Z</time>
      </trkpt>
      <trkpt lat="49.1584" lon="0.10448">
        <ele>113.4</ele>
        <time>2024-03-03T08:14:07Z</time>
      </trkpt>
      <trkpt lat="49.15836" lon="0.10451">
        <ele>113.7</ele>
        <time>2024-03-03T08:14:08Z</time>
      </trkpt>
      <trkpt lat="49.15832" lon="0.10456">
        <ele>114</ele>
        <time>2024-03-03T08:14:09Z</time>
      </trkpt>
      <trkpt lat="49.15828" lon="0.10459">
        <ele>114.3</ele>
        <time>2024-03-03T08:14:10Z</time>
      </trkpt>
      <trkpt lat="49.15824" lon="0.10463">
        <ele>114.5</ele>
        <time>2024-03-03T08:14:11Z</time>
      </trkpt>
      <trkpt lat="49.15821" lon="0.10466">
        <ele>114.7</ele>
        <time>2024-03-03T08:14:12Z</time>
      </trkpt>
      <trkpt lat="49.15818" lon="0.10468">
        <ele>114.9</ele>
        <time>2024-03-03T08:14:13Z</time>
      </trkpt>
      <trkpt lat="49.15814" lon="0.10471">
        <ele>115.1</ele>
        <time>2024-03-03T08:14:14Z</time>
      </trkpt>
      <trkpt lat="49.1581" lon="0.10473">
        <ele>115.3</ele>
        <time>2024-03-03T08:14:15Z</time>
      </trkpt>
      <trkpt lat="49.15806" lon="0.10476">
        <ele>115.6</ele>
        <time>2024-03-03T08:14:16Z</time>
      </trkpt>
      <trkpt lat="49.15803" lon="0.10478">
        <ele>115.8</ele>
        <time>2024-03-03T08:14:17Z</time>
      </trkpt>
      <trkpt lat="49.15799" lon="0.10483">
        <ele>116</ele>
        <time>2024-03-03T08:14:18Z</time>
      </trkpt>
      <trkpt lat="49.15796" lon="0.10487">
        <ele>116.2</ele>
        <time>2024-03-03T08:14:19Z</time>
      </trkpt>
      <trkpt lat="49.15792" lon="0.10491">
        <ele>116.5</ele>
        <time>2024-03-03T08:14:20Z</time>
      </trkpt>
      <trkpt lat="49.15788" lon="0.10495">
        <ele>116.8</ele>
        <time>2024-03-03T08:14:21Z</time>
      </trkpt>
      <trkpt lat="49.15784" lon="0.105">
        <ele>117</ele>
        <time>2024-03-03T08:14:22Z</time>
      </trkpt>
      <trkpt lat="49.1578" lon="0.10505">
        <ele>117.3</ele>
        <time>2024-03-03T08:14:23Z</time>
      </trkpt>
      <trkpt lat="49.15776" lon="0.10509">
        <ele>117.6</ele>
        <time>2024-03-03T08:14:24Z</time>
      </trkpt>
      <trkpt lat="49.15773" lon="0.10514">
        <ele>117.8</ele>
        <time>2024-03-03T08:14:25Z</time>
      </trkpt>
      <trkpt lat="49.15769" lon="0.10519">
        <ele>118</ele>
        <time>2024-03-03T08:14:26Z</time>
      </trkpt>
      <trkpt lat="49.15765" lon="0.10523">
        <ele>118.3</ele>
        <time>2024-03-03T08:14:27Z</time>
      </trkpt>
      <trkpt lat="49.15762" lon="0.10527">
        <ele>118.5</ele>
        <time>2024-03-03T08:14:28Z</time>
      </trkpt>
      <trkpt lat="49.15758" lon="0.10531">
        <ele>118.7</ele>
        <time>2024-03-03T08:14:29Z</time>
      </trkpt>
      <trkpt lat="49.15754" lon="0.10535">
        <ele>119</ele>
        <time>2024-03-03T08:14:30Z</time>
      </trkpt>
      <trkpt lat="49.15751" lon="0.10539">
        <ele>119.2</ele>
        <time>2024-03-03T08:14:31Z</time>
      </trkpt>
      <trkpt lat="49.15748" lon="0.10544">
        <ele>119.3</ele>
        <time>2024-03-03T08:14:32Z</time>
      </trkpt>
      <trkpt lat="49.15745" lon="0.10548">
        <ele>119.5</ele>
        <time>2024-03-03T08:14:33Z</time>
      </trkpt>
      <trkpt lat="49.15741" lon="0.10553">
        <ele>119.7</ele>
        <time>2024-03-03T08:14:34Z</time>
      </trkpt>
      <trkpt lat="49.15737" lon="0.10557">
        <ele>119.8</ele>
        <time>2024-03-03T08:14:35Z</time>
      </trkpt>
      <trkpt lat="49.15734" lon="0.10562">
        <ele>120</ele>
        <time>2024-03-03T08:14:36Z</time>
      </trkpt>
      <trkpt lat="49.15731" lon="0.10566">
        <ele>120.1</ele>
        <time>2024-03-03T08:14:37Z</time>
      </trkpt>
      <trkpt lat="49.15728" lon="0.1057">
        <ele>120.2</ele>
        <time>2024-03-03T08:14:38Z</time>
      </trkpt>
      <trkpt lat="49.15725" lon="0.10574">
        <ele>120.3</ele>
        <time>2024-03-03T08:14:39Z</time>
      </trkpt>
      <trkpt lat="49.15722" lon="0.10579">
        <ele>120.4</ele>
        <time>2024-03-03T08:14:40Z</time>
      </trkpt>
      <trkpt lat="49.15718" lon="0.10584">
        <ele>120.4</ele>
        <time>2024-03-03T08:14:41Z</time>
      </trkpt>
      <trkpt lat="49.15714" lon="0.1059">
        <ele>120.5</ele>
        <time>2024-03-03T08:14:42Z</time>
      </trkpt>
      <trkpt lat="49.1571" lon="0.10596">
        <ele>120.6</ele>
        <time>2024-03-03T08:14:43Z</time>
      </trkpt>
      <trkpt lat="49.15706" lon="0.10602">
        <ele>120.7</ele>
        <time>2024-03-03T08:14:44Z</time>
      </trkpt>
      <trkpt lat="49.15701" lon="0.10608">
        <ele>120.8</ele>
        <time>2024-03-03T08:14:45Z</time>
      </trkpt>
      <trkpt lat="49.15698" lon="0.10614">
        <ele>120.8</ele>
        <time>2024-03-03T08:14:46Z</time>
      </trkpt>
      <trkpt lat="49.15694" lon="0.1062">
        <ele>120.9</ele>
        <time>2024-03-03T08:14:47Z</time>
      </trkpt>
      <trkpt lat="49.1569" lon="0.10625">
        <ele>121</ele>
        <time>2024-03-03T08:14:48Z</time>
      </trkpt>
      <trkpt lat="49.15687" lon="0.1063">
        <ele>121</ele>
        <time>2024-03-03T08:14:49Z</time>
      </trkpt>
      <trkpt lat="49.15683" lon="0.10636">
        <ele>121.1</ele>
        <time>2024-03-03T08:14:50Z</time>
      </trkpt>
      <trkpt lat="49.1568" lon="0.10641">
        <ele>121.1</ele>
        <time>2024-03-03T08:14:51Z</time>
      </trkpt>
      <trkpt lat="49.15676" lon="0.10647">
        <ele>121.1</ele>
        <time>2024-03-03T08:14:52Z</time>
      </trkpt>
      <trkpt lat="49.15673" lon="0.10652">
        <ele>121.2</ele>
        <time>2024-03-03T08:14:53Z</time>
      </trkpt>
      <trkpt lat="49.15668" lon="0.10656">
        <ele>121.2</ele>
        <time>2024-03-03T08:14:54Z</time>
      </trkpt>
      <trkpt lat="49.15664" lon="0.10661">
        <ele>121.2</ele>
        <time>2024-03-03T08:14:55Z</time>
      </trkpt>
      <trkpt lat="49.1566" lon="0.10667">
        <ele>121.2</ele>
        <time>2024-03-03T08:14:56Z</time>
      </trkpt>
      <trkpt lat="49.15655" lon="0.10672">
        <ele>121.2</ele>
        <time>2024-03-03T08:14:57Z</time>
      </trkpt>
      <trkpt lat="49.15651" lon="0.10678">
        <ele>121.2</ele>
        <time>2024-03-03T08:14:58Z</time>
      </trkpt>
      <trkpt lat="49.15647" lon="0.10684">
        <ele>121.2</ele>
        <time>2024-03-03T08:14:59Z</time>
      </trkpt>
      <trkpt lat="49.15643" lon="0.10691">
        <ele>121.2</ele>
        <time>2024-03-03T08:15:00Z</time>
      </trkpt>
      <trkpt lat="49.15639" lon="0.10698">
        <ele>121.2</ele>
        <time>2024-03-03T08:15:01Z</time>
      </trkpt>
      <trkpt lat="49.15635" lon="0.10705">
        <ele>121.3</ele>
        <time>2024-03-03T08:15:02Z</time>
      </trkpt>
      <trkpt lat="49.15631" lon="0.10712">
        <ele>121.3</ele>
        <time>2024-03-03T08:15:03Z</time>
      </trkpt>
      <trkpt lat="49.15628" lon="0.10718">
        <ele>121.4</ele>
        <time>2024-03-03T08:15:04Z</time>
      </trkpt>
      <trkpt lat="49.15624" lon="0.10725">
        <ele>121.4</ele>
        <time>2024-03-03T08:15:05Z</time>
      </trkpt>
      <trkpt lat="49.1562" lon="0.10731">
        <ele>121.5</ele>
        <time>2024-03-03T08:15:06Z</time>
      </trkpt>
      <trkpt lat="49.15617" lon="0.10737">
        <ele>121.5</ele>
        <time>2024-03-03T08:15:07Z</time>
      </trkpt>
      <trkpt lat="49.15612" lon="0.10743">
        <ele>121.6</ele>
        <time>2024-03-03T08:15:08Z</time>
      </trkpt>
      <trkpt lat="49.15608" lon="0.1075">
        <ele>121.6</ele>
        <time>2024-03-03T08:15:09Z</time>
      </trkpt>
      <trkpt lat="49.15605" lon="0.10755">
        <ele>121.6</ele>
        <time>2024-03-03T08:15:10Z</time>
      </trkpt>
      <trkpt lat="49.156" lon="0.10761">
        <ele>121.7</ele>
        <time>2024-03-03T08:15:11Z</time>
      </trkpt>
      <trkpt lat="49.15596" lon="0.10767">
        <ele>121.7</ele>
        <time>2024-03-03T08:15:12Z</time>
      </trkpt>
      <trkpt lat="49.15592" lon="0.10774">
        <ele>121.7</ele>
        <time>2024-03-03T08:15:13Z</time>
      </trkpt>
      <trkpt lat="49.15589" lon="0.10781">
        <ele>121.8</ele>
        <time>2024-03-03T08:15:14Z</time>
      </trkpt>
      <trkpt lat="49.15584" lon="0.10787">
        <ele>121.8</ele>
        <time>2024-03-03T08:15:15Z</time>
      </trkpt>
      <trkpt lat="49.1558" lon="0.10793">
        <ele>121.8</ele>
        <time>2024-03-03T08:15:16Z</time>
      </trkpt>
      <trkpt lat="49.15576" lon="0.10799">
        <ele>121.8</ele>
        <time>2024-03-03T08:15:17Z</time>
      </trkpt>
      <trkpt lat="49.15572" lon="0.10805">
        <ele>121.9</ele>
        <time>2024-03-03T08:15:18Z</time>
      </trkpt>
      <trkpt lat="49.15568" lon="0.10811">
        <ele>121.9</ele>
        <time>2024-03-03T08:15:19Z</time>
      </trkpt>
      <trkpt lat="49.15565" lon="0.10818">
        <ele>121.9</ele>
        <time>2024-03-03T08:15:20Z</time>
      </trkpt>
      <trkpt lat="49.15561" lon="0.10825">
        <ele>122</ele>
        <time>2024-03-03T08:15:21Z</time>
      </trkpt>
      <trkpt lat="49.15557" lon="0.10831">
        <ele>122.1</ele>
        <time>2024-03-03T08:15:22Z</time>
      </trkpt>
      <trkpt lat="49.15553" lon="0.10837">
        <ele>122.2</ele>
        <time>2024-03-03T08:15:23Z</time>
      </trkpt>
      <trkpt lat="49.15549" lon="0.10843">
        <ele>122.2</ele>
        <time>2024-03-03T08:15:24Z</time>
      </trkpt>
      <trkpt lat="49.15545" lon="0.10849">
        <ele>122.3</ele>
        <time>2024-03-03T08:15:25Z</time>
      </trkpt>
      <trkpt lat="49.15542" lon="0.10855">
        <ele>122.4</ele>
        <time>2024-03-03T08:15:26Z</time>
      </trkpt>
      <trkpt lat="49.15538" lon="0.10862">
        <ele>122.5</ele>
        <time>2024-03-03T08:15:27Z</time>
      </trkpt>
      <trkpt lat="49.15534" lon="0.10868">
        <ele>122.6</ele>
        <time>2024-03-03T08:15:28Z</time>
      </trkpt>
      <trkpt lat="49.15531" lon="0.10874">
        <ele>122.7</ele>
        <time>2024-03-03T08:15:29Z</time>
      </trkpt>
      <trkpt lat="49.15527" lon="0.10881">
        <ele>122.8</ele>
        <time>2024-03-03T08:15:30Z</time>
      </trkpt>
      <trkpt lat="49.15524" lon="0.10887">
        <ele>122.9</ele>
        <time>2024-03-03T08:15:31Z</time>
      </trkpt>
      <trkpt lat="49.1552" lon="0.10893">
        <ele>123</ele>
        <time>2024-03-03T08:15:32Z</time>
      </trkpt>
      <trkpt lat="49.15516" lon="0.10899">
        <ele>123.1</ele>
        <time>2024-03-03T08:15:33Z</time>
      </trkpt>
      <trkpt lat="49.15512" lon="0.10904">
        <ele>123.2</ele>
        <time>2024-03-03T08:15:34Z</time>
      </trkpt>
      <trkpt lat="49.15508" lon="0.1091">
        <ele>123.3</ele>
        <time>2024-03-03T08:15:35Z</time>
      </trkpt>
      <trkpt lat="49.15504" lon="0.10916">
        <ele>123.4</ele>
        <time>2024-03-03T08:15:36Z</time>
      </trkpt>
      <trkpt lat="49.15501" lon="0.10922">
        <ele>123.5</ele>
        <time>2024-03-03T08:15:37Z</time>
      </trkpt>
      <trkpt lat="49.15497" lon="0.10928">
        <ele>123.6</ele>
        <time>2024-03-03T08:15:38Z</time>
      </trkpt>
      <trkpt lat="49.15492" lon="0.10933">
        <ele>123.6</ele>
        <time>2024-03-03T08:15:39Z</time>
      </trkpt>
      <trkpt lat="49.15488" lon="0.10939">
        <ele>123.6</ele>
        <time>2024-03-03T08:15:40Z</time>
      </trkpt>
      <trkpt lat="49.15484" lon="0.10944">
        <ele>123.6</ele>
        <time>2024-03-03T08:15:41Z</time>
      </trkpt>
      <trkpt lat="49.15479" lon="0.10949">
        <ele>123.6</ele>
        <time>2024-03-03T08:15:42Z</time>
      </trkpt>
      <trkpt lat="49.15475" lon="0.10955">
        <ele>123.7</ele>
        <time>2024-03-03T08:15:43Z</time>
      </trkpt>
      <trkpt lat="49.15472" lon="0.1096">
        <ele>123.8</ele>
        <time>2024-03-03T08:15:44Z</time>
      </trkpt>
      <trkpt lat="49.15468" lon="0.10965">
        <ele>123.9</ele>
        <time>2024-03-03T08:15:45Z</time>
      </trkpt>
      <trkpt lat="49.15466" lon="0.10969">
        <ele>124</ele>
        <time>2024-03-03T08:15:46Z</time>
      </trkpt>
      <trkpt lat="49.15463" lon="0.10972">
        <ele>124.1</ele>
        <time>2024-03-03T08:15:47Z</time>
      </trkpt>
      <trkpt lat="49.1546" lon="0.10975">
        <ele>124.2</ele>
        <time>2024-03-03T08:15:48Z</time>
      </trkpt>
      <trkpt lat="49.15457" lon="0.10978">
        <ele>124.2</ele>
        <time>2024-03-03T08:15:49Z</time>
      </trkpt>
      <trkpt lat="49.15454" lon="0.1098">
        <ele>124.3</ele>
        <time>2024-03-03T08:15:50Z</time>
      </trkpt>
      <trkpt lat="49.15451" lon="0.10983">
        <ele>124.4</ele>
        <time>2024-03-03T08:15:51Z</time>
      </trkpt>
      <trkpt lat="49.15447" lon="0.10989">
        <ele>124.4</ele>
        <time>2024-03-03T08:15:52Z</time>
      </trkpt>
      <trkpt lat="49.15444" lon="0.10996">
        <ele>124.5</ele>
        <time>2024-03-03T08:15:53Z</time>
      </trkpt>
      <trkpt lat="49.1544" lon="0.11001">
        <ele>124.5</ele>
        <time>2024-03-03T08:15:54Z</time>
      </trkpt>
      <trkpt lat="49.15437" lon="0.11008">
        <ele>124.5</ele>
        <time>2024-03-03T08:15:55Z</time>
      </trkpt>
      <trkpt lat="49.15433" lon="0.11015">
        <ele>124.5</ele>
        <time>2024-03-03T08:15:56Z</time>
      </trkpt>
      <trkpt lat="49.1543" lon="0.11022">
        <ele>124.5</ele>
        <time>2024-03-03T08:15:57Z</time>
      </trkpt>
      <trkpt lat="49.15426" lon="0.11029">
        <ele>124.5</ele>
        <time>2024-03-03T08:15:58Z</time>
      </trkpt>
      <trkpt lat="49.15422" lon="0.11037">
        <ele>124.5</ele>
        <time>2024-03-03T08:15:59Z</time>
      </trkpt>
      <trkpt lat="49.15418" lon="0.11043">
        <ele>124.5</ele>
        <time>2024-03-03T08:16:00Z</time>
      </trkpt>
      <trkpt lat="49.15413" lon="0.11049">
        <ele>124.4</ele>
        <time>2024-03-03T08:16:01Z</time>
      </trkpt>
      <trkpt lat="49.15409" lon="0.11055">
        <ele>124.3</ele>
        <time>2024-03-03T08:16:02Z</time>
      </trkpt>
      <trkpt lat="49.15406" lon="0.11062">
        <ele>124.3</ele>
        <time>2024-03-03T08:16:03Z</time>
      </trkpt>
      <trkpt lat="49.15402" lon="0.11068">
        <ele>124.2</ele>
        <time>2024-03-03T08:16:04Z</time>
      </trkpt>
      <trkpt lat="49.15399" lon="0.11075">
        <ele>124.2</ele>
        <time>2024-03-03T08:16:05Z</time>
      </trkpt>
      <trkpt lat="49.15396" lon="0.11079">
        <ele>124.1</ele>
        <time>2024-03-03T08:16:06Z</time>
      </trkpt>
      <trkpt lat="49.15391" lon="0.11086">
        <ele>124</ele>
        <time>2024-03-03T08:16:07Z</time>
      </trkpt>
      <trkpt lat="49.15388" lon="0.11093">
        <ele>124</ele>
        <time>2024-03-03T08:16:08Z</time>
      </trkpt>
      <trkpt lat="49.15384" lon="0.111">
        <ele>123.9</ele>
        <time>2024-03-03T08:16:09Z</time>
      </trkpt>
      <trkpt lat="49.1538" lon="0.11107">
        <ele>123.8</ele>
        <time>2024-03-03T08:16:10Z</time>
      </trkpt>
      <trkpt lat="49.15376" lon="0.11113">
        <ele>123.8</ele>
        <time>2024-03-03T08:16:11Z</time>
      </trkpt>
      <trkpt lat="49.15372" lon="0.11118">
        <ele>123.8</ele>
        <time>2024-03-03T08:16:12Z</time>
      </trkpt>
      <trkpt lat="49.15368" lon="0.11124">
        <ele>123.7</ele>
        <time>2024-03-03T08:16:13Z</time>
      </trkpt>
      <trkpt lat="49.15364" lon="0.11128">
        <ele>123.7</ele>
        <time>2024-03-03T08:16:14Z</time>
      </trkpt>
      <trkpt lat="49.15361" lon="0.11132">
        <ele>123.7</ele>
        <time>2024-03-03T08:16:15Z</time>
      </trkpt>
      <trkpt lat="49.15355" lon="0.11137">
        <ele>123.7</ele>
        <time>2024-03-03T08:16:16Z</time>
      </trkpt>
      <trkpt lat="49.15351" lon="0.11142">
        <ele>123.8</ele>
        <time>2024-03-03T08:16:17Z</time>
      </trkpt>
      <trkpt lat="49.15347" lon="0.11146">
        <ele>123.9</ele>
        <time>2024-03-03T08:16:18Z</time>
      </trkpt>
      <trkpt lat="49.15343" lon="0.1115">
        <ele>124</ele>
        <time>2024-03-03T08:16:19Z</time>
      </trkpt>
      <trkpt lat="49.15339" lon="0.11154">
        <ele>124.2</ele>
        <time>2024-03-03T08:16:20Z</time>
      </trkpt>
      <trkpt lat="49.15336" lon="0.11158">
        <ele>124.3</ele>
        <time>2024-03-03T08:16:21Z</time>
      </trkpt>
      <trkpt lat="49.15333" lon="0.11161">
        <ele>124.5</ele>
        <time>2024-03-03T08:16:22Z</time>
      </trkpt>
      <trkpt lat="49.1533" lon="0.11164">
        <ele>124.6</ele>
        <time>2024-03-03T08:16:23Z</time>
      </trkpt>
      <trkpt lat="49.15327" lon="0.11168">
        <ele>124.8</ele>
        <time>2024-03-03T08:16:24Z</time>
      </trkpt>
      <trkpt lat="49.15323" lon="0.11171">
        <ele>125</ele>
        <time>2024-03-03T08:16:25Z</time>
      </trkpt>
      <trkpt lat="49.15319" lon="0.11174">
        <ele>125.2</ele>
        <time>2024-03-03T08:16:26Z</time>
      </trkpt>
      <trkpt lat="49.15316" lon="0.11178">
        <ele>125.5</ele>
        <time>2024-03-03T08:16:27Z</time>
      </trkpt>
      <trkpt lat="49.15313" lon="0.11182">
        <ele>125.7</ele>
        <time>2024-03-03T08:16:28Z</time>
      </trkpt>
      <trkpt lat="49.1531" lon="0.11186">
        <ele>125.9</ele>
        <time>2024-03-03T08:16:29Z</time>
      </trkpt>
      <trkpt lat="49.15307" lon="0.1119">
        <ele>126.1</ele>
        <time>2024-03-03T08:16:30Z</time>
      </trkpt>
      <trkpt lat="49.15303" lon="0.11195">
        <ele>126.4</ele>
        <time>2024-03-03T08:16:31Z</time>
      </trkpt>
      <trkpt lat="49.153" lon="0.11198">
        <ele>126.6</ele>
        <time>2024-03-03T08:16:32Z</time>
      </trkpt>
      <trkpt lat="49.15296" lon="0.11203">
        <ele>126.9</ele>
        <time>2024-03-03T08:16:33Z</time>
      </trkpt>
      <trkpt lat="49.15292" lon="0.11208">
        <ele>127.2</ele>
        <time>2024-03-03T08:16:34Z</time>
      </trkpt>
      <trkpt lat="49.15288" lon="0.11212">
        <ele>127.4</ele>
        <time>2024-03-03T08:16:35Z</time>
      </trkpt>
      <trkpt lat="49.15284" lon="0.11216">
        <ele>127.7</ele>
        <time>2024-03-03T08:16:36Z</time>
      </trkpt>
      <trkpt lat="49.15279" lon="0.11219">
        <ele>127.9</ele>
        <time>2024-03-03T08:16:37Z</time>
      </trkpt>
      <trkpt lat="49.15275" lon="0.11223">
        <ele>128.1</ele>
        <time>2024-03-03T08:16:38Z</time>
      </trkpt>
      <trkpt lat="49.15269" lon="0.11229">
        <ele>128.5</ele>
        <time>2024-03-03T08:16:39Z</time>
      </trkpt>
      <trkpt lat="49.15263" lon="0.11235">
        <ele>128.8</ele>
        <time>2024-03-03T08:16:40Z</time>
      </trkpt>
      <trkpt lat="49.15258" lon="0.11241">
        <ele>129</ele>
        <time>2024-03-03T08:16:41Z</time>
      </trkpt>
      <trkpt lat="49.15253" lon="0.11247">
        <ele>129.3</ele>
        <time>2024-03-03T08:16:42Z</time>
      </trkpt>
      <trkpt lat="49.15248" lon="0.11253">
        <ele>129.6</ele>
        <time>2024-03-03T08:16:43Z</time>
      </trkpt>
      <trkpt lat="49.15243" lon="0.11258">
        <ele>129.9</ele>
        <time>2024-03-03T08:16:44Z</time>
      </trkpt>
      <trkpt lat="49.15238" lon="0.11264">
        <ele>130.2</ele>
        <time>2024-03-03T08:16:45Z</time>
      </trkpt>
      <trkpt lat="49.15233" lon="0.11269">
        <ele>130.4</ele>
        <time>2024-03-03T08:16:46Z</time>
      </trkpt>
      <trkpt lat="49.15229" lon="0.11275">
        <ele>130.6</ele>
        <time>2024-03-03T08:16:47Z</time>
      </trkpt>
      <trkpt lat="49.15225" lon="0.11281">
        <ele>130.8</ele>
        <time>2024-03-03T08:16:48Z</time>
      </trkpt>
      <trkpt lat="49.15221" lon="0.11286">
        <ele>131</ele>
        <time>2024-03-03T08:16:49Z</time>
      </trkpt>
      <trkpt lat="49.15217" lon="0.1129">
        <ele>131.2</ele>
        <time>2024-03-03T08:16:50Z</time>
      </trkpt>
      <trkpt lat="49.15213" lon="0.11297">
        <ele>131.4</ele>
        <time>2024-03-03T08:16:51Z</time>
      </trkpt>
      <trkpt lat="49.15208" lon="0.11302">
        <ele>131.6</ele>
        <time>2024-03-03T08:16:52Z</time>
      </trkpt>
      <trkpt lat="49.15204" lon="0.11307">
        <ele>131.8</ele>
        <time>2024-03-03T08:16:53Z</time>
      </trkpt>
      <trkpt lat="49.152" lon="0.11311">
        <ele>132</ele>
        <time>2024-03-03T08:16:54Z</time>
      </trkpt>
      <trkpt lat="49.15195" lon="0.11317">
        <ele>132.2</ele>
        <time>2024-03-03T08:16:55Z</time>
      </trkpt>
      <trkpt lat="49.15191" lon="0.11323">
        <ele>132.4</ele>
        <time>2024-03-03T08:16:56Z</time>
      </trkpt>
      <trkpt lat="49.15188" lon="0.11328">
        <ele>132.6</ele>
        <time>2024-03-03T08:16:57Z</time>
      </trkpt>
      <trkpt lat="49.15184" lon="0.11332">
        <ele>132.8</ele>
        <time>2024-03-03T08:16:58Z</time>
      </trkpt>
      <trkpt lat="49.15179" lon="0.11337">
        <ele>133</ele>
        <time>2024-03-03T08:16:59Z</time>
      </trkpt>
      <trkpt lat="49.15174" lon="0.11344">
        <ele>133.2</ele>
        <time>2024-03-03T08:17:00Z</time>
      </trkpt>
      <trkpt lat="49.15169" lon="0.11352">
        <ele>133.5</ele>
        <time>2024-03-03T08:17:01Z</time>
      </trkpt>
      <trkpt lat="49.15166" lon="0.11357">
        <ele>133.7</ele>
        <time>2024-03-03T08:17:02Z</time>
      </trkpt>
      <trkpt lat="49.15162" lon="0.11361">
        <ele>133.8</ele>
        <time>2024-03-03T08:17:03Z</time>
      </trkpt>
      <trkpt lat="49.15158" lon="0.11364">
        <ele>134</ele>
        <time>2024-03-03T08:17:04Z</time>
      </trkpt>
      <trkpt lat="49.15154" lon="0.11367">
        <ele>134.1</ele>
        <time>2024-03-03T08:17:05Z</time>
      </trkpt>
      <trkpt lat="49.15149" lon="0.11372">
        <ele>134.3</ele>
        <time>2024-03-03T08:17:06Z</time>
      </trkpt>
      <trkpt lat="49.15144" lon="0.11379">
        <ele>134.5</ele>
        <time>2024-03-03T08:17:07Z</time>
      </trkpt>
      <trkpt lat="49.1514" lon="0.11386">
        <ele>134.6</ele>
        <time>2024-03-03T08:17:08Z</time>
      </trkpt>
      <trkpt lat="49.15137" lon="0.11393">
        <ele>134.8</ele>
        <time>2024-03-03T08:17:09Z</time>
      </trkpt>
      <trkpt lat="49.15133" lon="0.114">
        <ele>134.9</ele>
        <time>2024-03-03T08:17:10Z</time>
      </trkpt>
      <trkpt lat="49.1513" lon="0.11405">
        <ele>135</ele>
        <time>2024-03-03T08:17:11Z</time>
      </trkpt>
      <trkpt lat="49.15127" lon="0.11409">
        <ele>135.1</ele>
        <time>2024-03-03T08:17:12Z</time>
      </trkpt>
      <trkpt lat="49.15124" lon="0.11414">
        <ele>135.1</ele>
        <time>2024-03-03T08:17:13Z</time>
      </trkpt>
      <trkpt lat="49.1512" lon="0.11419">
        <ele>135.2</ele>
        <time>2024-03-03T08:17:14Z</time>
      </trkpt>
      <trkpt lat="49.15116" lon="0.11426">
        <ele>135.2</ele>
        <time>2024-03-03T08:17:15Z</time>
      </trkpt>
      <trkpt lat="49.15111" lon="0.11435">
        <ele>135.3</ele>
        <time>2024-03-03T08:17:16Z</time>
      </trkpt>
      <trkpt lat="49.15107" lon="0.11443">
        <ele>135.4</ele>
        <time>2024-03-03T08:17:17Z</time>
      </trkpt>
      <trkpt lat="49.15102" lon="0.11453">
        <ele>135.5</ele>
        <time>2024-03-03T08:17:18Z</time>
      </trkpt>
      <trkpt lat="49.15098" lon="0.11464">
        <ele>135.6</ele>
        <time>2024-03-03T08:17:19Z</time>
      </trkpt>
      <trkpt lat="49.15094" lon="0.11474">
        <ele>135.6</ele>
        <time>2024-03-03T08:17:20Z</time>
      </trkpt>
      <trkpt lat="49.15091" lon="0.11483">
        <ele>135.7</ele>
        <time>2024-03-03T08:17:21Z</time>
      </trkpt>
      <trkpt lat="49.15087" lon="0.11494">
        <ele>135.7</ele>
        <time>2024-03-03T08:17:22Z</time>
      </trkpt>
      <trkpt lat="49.15083" lon="0.11504">
        <ele>135.8</ele>
        <time>2024-03-03T08:17:23Z</time>
      </trkpt>
      <trkpt lat="49.15079" lon="0.11514">
        <ele>135.9</ele>
        <time>2024-03-03T08:17:24Z</time>
      </trkpt>
      <trkpt lat="49.15076" lon="0.11525">
        <ele>136</ele>
        <time>2024-03-03T08:17:25Z</time>
      </trkpt>
      <trkpt lat="49.15073" lon="0.11535">
        <ele>136.1</ele>
        <time>2024-03-03T08:17:26Z</time>
      </trkpt>
      <trkpt lat="49.15069" lon="0.11543">
        <ele>136.2</ele>
        <time>2024-03-03T08:17:27Z</time>
      </trkpt>
      <trkpt lat="49.15067" lon="0.11552">
        <ele>136.3</ele>
        <time>2024-03-03T08:17:28Z</time>
      </trkpt>
      <trkpt lat="49.15064" lon="0.11561">
        <ele>136.4</ele>
        <time>2024-03-03T08:17:29Z</time>
      </trkpt>
      <trkpt lat="49.15061" lon="0.11569">
        <ele>136.5</ele>
        <time>2024-03-03T08:17:30Z</time>
      </trkpt>
      <trkpt lat="49.15059" lon="0.11578">
        <ele>136.6</ele>
        <time>2024-03-03T08:17:31Z</time>
      </trkpt>
      <trkpt lat="49.15055" lon="0.11586">
        <ele>136.7</ele>
        <time>2024-03-03T08:17:32Z</time>
      </trkpt>
      <trkpt lat="49.15051" lon="0.11594">
        <ele>136.8</ele>
        <time>2024-03-03T08:17:33Z</time>
      </trkpt>
      <trkpt lat="49.15048" lon="0.11602">
        <ele>136.9</ele>
        <time>2024-03-03T08:17:34Z</time>
      </trkpt>
      <trkpt lat="49.15045" lon="0.11609">
        <ele>136.9</ele>
        <time>2024-03-03T08:17:35Z</time>
      </trkpt>
      <trkpt lat="49.15042" lon="0.11616">
        <ele>137</ele>
        <time>2024-03-03T08:17:36Z</time>
      </trkpt>
      <trkpt lat="49.15038" lon="0.11623">
        <ele>137.1</ele>
        <time>2024-03-03T08:17:37Z</time>
      </trkpt>
      <trkpt lat="49.15035" lon="0.11631">
        <ele>137.1</ele>
        <time>2024-03-03T08:17:38Z</time>
      </trkpt>
      <trkpt lat="49.15033" lon="0.11639">
        <ele>137.2</ele>
        <time>2024-03-03T08:17:39Z</time>
      </trkpt>
      <trkpt lat="49.1503" lon="0.11645">
        <ele>137.3</ele>
        <time>2024-03-03T08:17:40Z</time>
      </trkpt>
      <trkpt lat="49.15028" lon="0.11649">
        <ele>137.4</ele>
        <time>2024-03-03T08:17:41Z</time>
      </trkpt>
      <trkpt lat="49.15025" lon="0.11654">
        <ele>137.4</ele>
        <time>2024-03-03T08:17:42Z</time>
      </trkpt>
      <trkpt lat="49.15023" lon="0.1166">
        <ele>137.5</ele>
        <time>2024-03-03T08:17:43Z</time>
      </trkpt>
      <trkpt lat="49.15018" lon="0.11666">
        <ele>137.6</ele>
        <time>2024-03-03T08:17:44Z</time>
      </trkpt>
      <trkpt lat="49.15015" lon="0.11673">
        <ele>137.7</ele>
        <time>2024-03-03T08:17:45Z</time>
      </trkpt>
      <trkpt lat="49.15012" lon="0.1168">
        <ele>137.8</ele>
        <time>2024-03-03T08:17:46Z</time>
      </trkpt>
      <trkpt lat="49.1501" lon="0.11687">
        <ele>137.9</ele>
        <time>2024-03-03T08:17:47Z</time>
      </trkpt>
      <trkpt lat="49.15007" lon="0.11694">
        <ele>138</ele>
        <time>2024-03-03T08:17:48Z</time>
      </trkpt>
      <trkpt lat="49.15005" lon="0.11698">
        <ele>138</ele>
        <time>2024-03-03T08:17:49Z</time>
      </trkpt>
      <trkpt lat="49.15001" lon="0.11701">
        <ele>138.1</ele>
        <time>2024-03-03T08:17:50Z</time>
      </trkpt>
      <trkpt lat="49.14997" lon="0.11706">
        <ele>138.2</ele>
        <time>2024-03-03T08:17:51Z</time>
      </trkpt>
      <trkpt lat="49.14993" lon="0.11709">
        <ele>138.3</ele>
        <time>2024-03-03T08:17:52Z</time>
      </trkpt>
      <trkpt lat="49.14988" lon="0.11714">
        <ele>138.4</ele>
        <time>2024-03-03T08:17:53Z</time>
      </trkpt>
      <trkpt lat="49.14982" lon="0.11719">
        <ele>138.5</ele>
        <time>2024-03-03T08:17:54Z</time>
      </trkpt>
      <trkpt lat="49.14977" lon="0.11725">
        <ele>138.2</ele>
        <time>2024-03-03T08:17:55Z</time>
      </trkpt>
      <trkpt lat="49.14972" lon="0.1173">
        <ele>137.6</ele>
        <time>2024-03-03T08:17:56Z</time>
      </trkpt>
      <trkpt lat="49.14967" lon="0.11735">
        <ele>137.8</ele>
        <time>2024-03-03T08:17:57Z</time>
      </trkpt>
      <trkpt lat="49.14964" lon="0.11738">
        <ele>138</ele>
        <time>2024-03-03T08:17:58Z</time>
      </trkpt>
      <trkpt lat="49.14962" lon="0.11741">
        <ele>138.1</ele>
        <time>2024-03-03T08:17:59Z</time>
      </trkpt>
      <trkpt lat="49.14959" lon="0.11744">
        <ele>138.3</ele>
        <time>2024-03-03T08:18:00Z</time>
      </trkpt>
      <trkpt lat="49.14956" lon="0.11747">
        <ele>138.4</ele>
        <time>2024-03-03T08:18:01Z</time>
      </trkpt>
      <trkpt lat="49.14953" lon="0.11751">
        <ele>138.6</ele>
        <time>2024-03-03T08:18:02Z</time>
      </trkpt>
      <trkpt lat="49.1495" lon="0.11755">
        <ele>138.8</ele>
        <time>2024-03-03T08:18:03Z</time>
      </trkpt>
      <trkpt lat="49.14947" lon="0.1176">
        <ele>139</ele>
        <time>2024-03-03T08:18:04Z</time>
      </trkpt>
      <trkpt lat="49.14944" lon="0.11765">
        <ele>139.2</ele>
        <time>2024-03-03T08:18:05Z</time>
      </trkpt>
      <trkpt lat="49.1494" lon="0.11772">
        <ele>139.6</ele>
        <time>2024-03-03T08:18:06Z</time>
      </trkpt>
      <trkpt lat="49.14936" lon="0.1178">
        <ele>139.9</ele>
        <time>2024-03-03T08:18:07Z</time>
      </trkpt>
      <trkpt lat="49.14932" lon="0.11785">
        <ele>140.2</ele>
        <time>2024-03-03T08:18:08Z</time>
      </trkpt>
      <trkpt lat="49.1493" lon="0.1179">
        <ele>140.4</ele>
        <time>2024-03-03T08:18:09Z</time>
      </trkpt>
      <trkpt lat="49.14928" lon="0.11795">
        <ele>140.7</ele>
        <time>2024-03-03T08:18:10Z</time>
      </trkpt>
      <trkpt lat="49.14926" lon="0.118">
        <ele>140.9</ele>
        <time>2024-03-03T08:18:11Z</time>
      </trkpt>
      <trkpt lat="49.14923" lon="0.11806">
        <ele>141.2</ele>
        <time>2024-03-03T08:18:12Z</time>
      </trkpt>
      <trkpt lat="49.1492" lon="0.11811">
        <ele>141.4</ele>
        <time>2024-03-03T08:18:13Z</time>
      </trkpt>
      <trkpt lat="49.14916" lon="0.11816">
        <ele>141.7</ele>
        <time>2024-03-03T08:18:14Z</time>
      </trkpt>
      <trkpt lat="49.14913" lon="0.11823">
        <ele>142</ele>
        <time>2024-03-03T08:18:15Z</time>
      </trkpt>
      <trkpt lat="49.14909" lon="0.11832">
        <ele>142.4</ele>
        <time>2024-03-03T08:18:16Z</time>
      </trkpt>
      <trkpt lat="49.14905" lon="0.11841">
        <ele>142.8</ele>
        <time>2024-03-03T08:18:17Z</time>
      </trkpt>
      <trkpt lat="49.14902" lon="0.1185">
        <ele>143.2</ele>
        <time>2024-03-03T08:18:18Z</time>
      </trkpt>
      <trkpt lat="49.14899" lon="0.11859">
        <ele>143.6</ele>
        <time>2024-03-03T08:18:19Z</time>
      </trkpt>
      <trkpt lat="49.14898" lon="0.11868">
        <ele>143.9</ele>
        <time>2024-03-03T08:18:20Z</time>
      </trkpt>
      <trkpt lat="49.14896" lon="0.11878">
        <ele>144.2</ele>
        <time>2024-03-03T08:18:21Z</time>
      </trkpt>
      <trkpt lat="49.14894" lon="0.11886">
        <ele>144.6</ele>
        <time>2024-03-03T08:18:22Z</time>
      </trkpt>
      <trkpt lat="49.14892" lon="0.11895">
        <ele>144.9</ele>
        <time>2024-03-03T08:18:23Z</time>
      </trkpt>
      <trkpt lat="49.14891" lon="0.11903">
        <ele>145.3</ele>
        <time>2024-03-03T08:18:24Z</time>
      </trkpt>
      <trkpt lat="49.14889" lon="0.11912">
        <ele>145.6</ele>
        <time>2024-03-03T08:18:25Z</time>
      </trkpt>
      <trkpt lat="49.14887" lon="0.1192">
        <ele>145.9</ele>
        <time>2024-03-03T08:18:26Z</time>
      </trkpt>
      <trkpt lat="49.14886" lon="0.11927">
        <ele>146.2</ele>
        <time>2024-03-03T08:18:27Z</time>
      </trkpt>
      <trkpt lat="49.14884" lon="0.11933">
        <ele>146.4</ele>
        <time>2024-03-03T08:18:28Z</time>
      </trkpt>
      <trkpt lat="49.14883" lon="0.1194">
        <ele>146.7</ele>
        <time>2024-03-03T08:18:29Z</time>
      </trkpt>
      <trkpt lat="49.14881" lon="0.11947">
        <ele>147</ele>
        <time>2024-03-03T08:18:30Z</time>
      </trkpt>
      <trkpt lat="49.1488" lon="0.11954">
        <ele>147.2</ele>
        <time>2024-03-03T08:18:31Z</time>
      </trkpt>
      <trkpt lat="49.14879" lon="0.1196">
        <ele>147.5</ele>
        <time>2024-03-03T08:18:32Z</time>
      </trkpt>
      <trkpt lat="49.14878" lon="0.11966">
        <ele>147.7</ele>
        <time>2024-03-03T08:18:33Z</time>
      </trkpt>
      <trkpt lat="49.14876" lon="0.11972">
        <ele>147.9</ele>
        <time>2024-03-03T08:18:34Z</time>
      </trkpt>
      <trkpt lat="49.14875" lon="0.11978">
        <ele>148.1</ele>
        <time>2024-03-03T08:18:35Z</time>
      </trkpt>
      <trkpt lat="49.14874" lon="0.11985">
        <ele>148.4</ele>
        <time>2024-03-03T08:18:36Z</time>
      </trkpt>
      <trkpt lat="49.14872" lon="0.11992">
        <ele>148.7</ele>
        <time>2024-03-03T08:18:37Z</time>
      </trkpt>
      <trkpt lat="49.14871" lon="0.11999">
        <ele>148.9</ele>
        <time>2024-03-03T08:18:38Z</time>
      </trkpt>
      <trkpt lat="49.14869" lon="0.12006">
        <ele>149.2</ele>
        <time>2024-03-03T08:18:39Z</time>
      </trkpt>
      <trkpt lat="49.14868" lon="0.12012">
        <ele>149.4</ele>
        <time>2024-03-03T08:18:40Z</time>
      </trkpt>
      <trkpt lat="49.14867" lon="0.12018">
        <ele>149.7</ele>
        <time>2024-03-03T08:18:41Z</time>
      </trkpt>
      <trkpt lat="49.14866" lon="0.12024">
        <ele>149.9</ele>
        <time>2024-03-03T08:18:42Z</time>
      </trkpt>
      <trkpt lat="49.14865" lon="0.1203">
        <ele>150.1</ele>
        <time>2024-03-03T08:18:43Z</time>
      </trkpt>
      <trkpt lat="49.14863" lon="0.12037">
        <ele>150.4</ele>
        <time>2024-03-03T08:18:44Z</time>
      </trkpt>
      <trkpt lat="49.14862" lon="0.12043">
        <ele>150.6</ele>
        <time>2024-03-03T08:18:45Z</time>
      </trkpt>
      <trkpt lat="49.14861" lon="0.12049">
        <ele>150.9</ele>
        <time>2024-03-03T08:18:46Z</time>
      </trkpt>
      <trkpt lat="49.1486" lon="0.12055">
        <ele>151.2</ele>
        <time>2024-03-03T08:18:47Z</time>
      </trkpt>
      <trkpt lat="49.14858" lon="0.12061">
        <ele>151.4</ele>
        <time>2024-03-03T08:18:48Z</time>
      </trkpt>
      <trkpt lat="49.14857" lon="0.12068">
        <ele>151.7</ele>
        <time>2024-03-03T08:18:49Z</time>
      </trkpt>
      <trkpt lat="49.14855" lon="0.12074">
        <ele>152</ele>
        <time>2024-03-03T08:18:50Z</time>
      </trkpt>
      <trkpt lat="49.14854" lon="0.1208">
        <ele>152.2</ele>
        <time>2024-03-03T08:18:51Z</time>
      </trkpt>
      <trkpt lat="49.14853" lon="0.12086">
        <ele>152.4</ele>
        <time>2024-03-03T08:18:52Z</time>
      </trkpt>
      <trkpt lat="49.14852" lon="0.12093">
        <ele>152.7</ele>
        <time>2024-03-03T08:18:53Z</time>
      </trkpt>
      <trkpt lat="49.14851" lon="0.12099">
        <ele>152.9</ele>
        <time>2024-03-03T08:18:54Z</time>
      </trkpt>
      <trkpt lat="49.14849" lon="0.12105">
        <ele>153.2</ele>
        <time>2024-03-03T08:18:55Z</time>
      </trkpt>
      <trkpt lat="49.14847" lon="0.1211">
        <ele>153.4</ele>
        <time>2024-03-03T08:18:56Z</time>
      </trkpt>
      <trkpt lat="49.14845" lon="0.12115">
        <ele>153.6</ele>
        <time>2024-03-03T08:18:57Z</time>
      </trkpt>
      <trkpt lat="49.14843" lon="0.12121">
        <ele>153.8</ele>
        <time>2024-03-03T08:18:58Z</time>
      </trkpt>
      <trkpt lat="49.14841" lon="0.12127">
        <ele>154.1</ele>
        <time>2024-03-03T08:18:59Z</time>
      </trkpt>
      <trkpt lat="49.14839" lon="0.12132">
        <ele>154.3</ele>
        <time>2024-03-03T08:19:00Z</time>
      </trkpt>
      <trkpt lat="49.14837" lon="0.12137">
        <ele>154.5</ele>
        <time>2024-03-03T08:19:01Z</time>
      </trkpt>
      <trkpt lat="49.14834" lon="0.12141">
        <ele>154.7</ele>
        <time>2024-03-03T08:19:02Z</time>
      </trkpt>
      <trkpt lat="49.14833" lon="0.12146">
        <ele>154.9</ele>
        <time>2024-03-03T08:19:03Z</time>
      </trkpt>
      <trkpt lat="49.14831" lon="0.1215">
        <ele>155</ele>
        <time>2024-03-03T08:19:04Z</time>
      </trkpt>
      <trkpt lat="49.14829" lon="0.12154">
        <ele>155.2</ele>
        <time>2024-03-03T08:19:05Z</time>
      </trkpt>
      <trkpt lat="49.14828" lon="0.12158">
        <ele>155.3</ele>
        <time>2024-03-03T08:19:06Z</time>
      </trkpt>
      <trkpt lat="49.14826" lon="0.12161">
        <ele>155.5</ele>
        <time>2024-03-03T08:19:07Z</time>
      </trkpt>
      <trkpt lat="49.14824" lon="0.12165">
        <ele>155.6</ele>
        <time>2024-03-03T08:19:08Z</time>
      </trkpt>
      <trkpt lat="49.1482" lon="0.12168">
        <ele>155.8</ele>
        <time>2024-03-03T08:19:09Z</time>
      </trkpt>
      <trkpt lat="49.14816" lon="0.12173">
        <ele>155.8</ele>
        <time>2024-03-03T08:19:10Z</time>
      </trkpt>
      <trkpt lat="49.14813" lon="0.12177">
        <ele>155.9</ele>
        <time>2024-03-03T08:19:11Z</time>
      </trkpt>
      <trkpt lat="49.14809" lon="0.12182">
        <ele>156.1</ele>
        <time>2024-03-03T08:19:12Z</time>
      </trkpt>
      <trkpt lat="49.14805" lon="0.12187">
        <ele>156.4</ele>
        <time>2024-03-03T08:19:13Z</time>
      </trkpt>
      <trkpt lat="49.14801" lon="0.12191">
        <ele>156.7</ele>
        <time>2024-03-03T08:19:14Z</time>
      </trkpt>
      <trkpt lat="49.14797" lon="0.12196">
        <ele>156.9</ele>
        <time>2024-03-03T08:19:15Z</time>
      </trkpt>
      <trkpt lat="49.14793" lon="0.122">
        <ele>157.1</ele>
        <time>2024-03-03T08:19:16Z</time>
      </trkpt>
      <trkpt lat="49.14789" lon="0.12204">
        <ele>157.2</ele>
        <time>2024-03-03T08:19:17Z</time>
      </trkpt>
      <trkpt lat="49.14786" lon="0.12207">
        <ele>157.4</ele>
        <time>2024-03-03T08:19:18Z</time>
      </trkpt>
      <trkpt lat="49.14782" lon="0.1221">
        <ele>157.6</ele>
        <time>2024-03-03T08:19:19Z</time>
      </trkpt>
      <trkpt lat="49.14778" lon="0.12213">
        <ele>157.8</ele>
        <time>2024-03-03T08:19:20Z</time>
      </trkpt>
      <trkpt lat="49.14774" lon="0.12217">
        <ele>158</ele>
        <time>2024-03-03T08:19:21Z</time>
      </trkpt>
      <trkpt lat="49.14769" lon="0.1222">
        <ele>158.2</ele>
        <time>2024-03-03T08:19:22Z</time>
      </trkpt>
      <trkpt lat="49.14765" lon="0.12223">
        <ele>158.3</ele>
        <time>2024-03-03T08:19:23Z</time>
      </trkpt>
      <trkpt lat="49.14762" lon="0.12226">
        <ele>158.5</ele>
        <time>2024-03-03T08:19:24Z</time>
      </trkpt>
      <trkpt lat="49.14758" lon="0.12228">
        <ele>158.7</ele>
        <time>2024-03-03T08:19:25Z</time>
      </trkpt>
      <trkpt lat="49.14754" lon="0.12231">
        <ele>158.9</ele>
        <time>2024-03-03T08:19:26Z</time>
      </trkpt>
      <trkpt lat="49.14749" lon="0.12234">
        <ele>159.1</ele>
        <time>2024-03-03T08:19:27Z</time>
      </trkpt>
      <trkpt lat="49.14745" lon="0.12236">
        <ele>159.2</ele>
        <time>2024-03-03T08:19:28Z</time>
      </trkpt>
      <trkpt lat="49.14741" lon="0.12238">
        <ele>159.4</ele>
        <time>2024-03-03T08:19:29Z</time>
      </trkpt>
      <trkpt lat="49.14737" lon="0.1224">
        <ele>159.6</ele>
        <time>2024-03-03T08:19:30Z</time>
      </trkpt>
      <trkpt lat="49.14733" lon="0.12242">
        <ele>159.8</ele>
        <time>2024-03-03T08:19:31Z</time>
      </trkpt>
      <trkpt lat="49.14729" lon="0.12245">
        <ele>159.9</ele>
        <time>2024-03-03T08:19:32Z</time>
      </trkpt>
      <trkpt lat="49.14724" lon="0.12247">
        <ele>160.1</ele>
        <time>2024-03-03T08:19:33Z</time>
      </trkpt>
      <trkpt lat="49.1472" lon="0.1225">
        <ele>160.3</ele>
        <time>2024-03-03T08:19:34Z</time>
      </trkpt>
      <trkpt lat="49.14716" lon="0.12252">
        <ele>160.5</ele>
        <time>2024-03-03T08:19:35Z</time>
      </trkpt>
      <trkpt lat="49.14712" lon="0.12254">
        <ele>160.7</ele>
        <time>2024-03-03T08:19:36Z</time>
      </trkpt>
      <trkpt lat="49.14708" lon="0.12257">
        <ele>160.8</ele>
        <time>2024-03-03T08:19:37Z</time>
      </trkpt>
      <trkpt lat="49.14703" lon="0.12259">
        <ele>161</ele>
        <time>2024-03-03T08:19:38Z</time>
      </trkpt>
      <trkpt lat="49.14699" lon="0.12262">
        <ele>161.2</ele>
        <time>2024-03-03T08:19:39Z</time>
      </trkpt>
      <trkpt lat="49.14694" lon="0.12264">
        <ele>161.4</ele>
        <time>2024-03-03T08:19:40Z</time>
      </trkpt>
      <trkpt lat="49.1469" lon="0.12266">
        <ele>161.5</ele>
        <time>2024-03-03T08:19:41Z</time>
      </trkpt>
      <trkpt lat="49.14685" lon="0.12269">
        <ele>161.7</ele>
        <time>2024-03-03T08:19:42Z</time>
      </trkpt>
      <trkpt lat="49.14681" lon="0.12273">
        <ele>161.8</ele>
        <time>2024-03-03T08:19:43Z</time>
      </trkpt>
      <trkpt lat="49.14676" lon="0.12276">
        <ele>161.9</ele>
        <time>2024-03-03T08:19:44Z</time>
      </trkpt>
      <trkpt lat="49.14672" lon="0.12279">
        <ele>162.1</ele>
        <time>2024-03-03T08:19:45Z</time>
      </trkpt>
      <trkpt lat="49.14667" lon="0.12283">
        <ele>162.2</ele>
        <time>2024-03-03T08:19:46Z</time>
      </trkpt>
      <trkpt lat="49.14662" lon="0.12285">
        <ele>162.3</ele>
        <time>2024-03-03T08:19:47Z</time>
      </trkpt>
      <trkpt lat="49.14657" lon="0.12287">
        <ele>162.4</ele>
        <time>2024-03-03T08:19:48Z</time>
      </trkpt>
      <trkpt lat="49.14653" lon="0.1229">
        <ele>162.5</ele>
        <time>2024-03-03T08:19:49Z</time>
      </trkpt>
      <trkpt lat="49.14648" lon="0.12293">
        <ele>162.5</ele>
        <time>2024-03-03T08:19:50Z</time>
      </trkpt>
      <trkpt lat="49.14643" lon="0.12297">
        <ele>162.6</ele>
        <time>2024-03-03T08:19:51Z</time>
      </trkpt>
      <trkpt lat="49.14637" lon="0.12301">
        <ele>162.7</ele>
        <time>2024-03-03T08:19:52Z</time>
      </trkpt>
      <trkpt lat="49.14632" lon="0.12304">
        <ele>162.7</ele>
        <time>2024-03-03T08:19:53Z</time>
      </trkpt>
      <trkpt lat="49.14627" lon="0.12308">
        <ele>162.8</ele>
        <time>2024-03-03T08:19:54Z</time>
      </trkpt>
      <trkpt lat="49.14621" lon="0.12311">
        <ele>162.8</ele>
        <time>2024-03-03T08:19:55Z</time>
      </trkpt>
      <trkpt lat="49.14615" lon="0.12315">
        <ele>162.9</ele>
        <time>2024-03-03T08:19:56Z</time>
      </trkpt>
      <trkpt lat="49.1461" lon="0.12318">
        <ele>162.9</ele>
        <time>2024-03-03T08:19:57Z</time>
      </trkpt>
      <trkpt lat="49.14604" lon="0.12322">
        <ele>163</ele>
        <time>2024-03-03T08:19:58Z</time>
      </trkpt>
      <trkpt lat="49.14599" lon="0.12325">
        <ele>163</ele>
        <time>2024-03-03T08:19:59Z</time>
      </trkpt>
      <trkpt lat="49.14592" lon="0.12328">
        <ele>163.1</ele>
        <time>2024-03-03T08:20:00Z</time>
      </trkpt>
      <trkpt lat="49.14586" lon="0.12331">
        <ele>163.1</ele>
        <time>2024-03-03T08:20:01Z</time>
      </trkpt>
      <trkpt lat="49.1458" lon="0.12334">
        <ele>163.2</ele>
        <time>2024-03-03T08:20:02Z</time>
      </trkpt>
      <trkpt lat="49.14575" lon="0.12337">
        <ele>163.3</ele>
        <time>2024-03-03T08:20:03Z</time>
      </trkpt>
      <trkpt lat="49.14569" lon="0.1234">
        <ele>163.3</ele>
        <time>2024-03-03T08:20:04Z</time>
      </trkpt>
      <trkpt lat="49.14564" lon="0.12343">
        <ele>163.3</ele>
        <time>2024-03-03T08:20:05Z</time>
      </trkpt>
      <trkpt lat="49.14559" lon="0.12346">
        <ele>163.4</ele>
        <time>2024-03-03T08:20:06Z</time>
      </trkpt>
      <trkpt lat="49.14554" lon="0.12348">
        <ele>163.4</ele>
        <time>2024-03-03T08:20:07Z</time>
      </trkpt>
      <trkpt lat="49.14548" lon="0.12351">
        <ele>163.5</ele>
        <time>2024-03-03T08:20:08Z</time>
      </trkpt>
      <trkpt lat="49.14543" lon="0.12353">
        <ele>163.5</ele>
        <time>2024-03-03T08:20:09Z</time>
      </trkpt>
      <trkpt lat="49.14538" lon="0.12356">
        <ele>163.6</ele>
        <time>2024-03-03T08:20:10Z</time>
      </trkpt>
      <trkpt lat="49.14533" lon="0.12359">
        <ele>163.6</ele>
        <time>2024-03-03T08:20:11Z</time>
      </trkpt>
      <trkpt lat="49.14528" lon="0.12362">
        <ele>163.7</ele>
        <time>2024-03-03T08:20:12Z</time>
      </trkpt>
      <trkpt lat="49.14523" lon="0.12365">
        <ele>163.7</ele>
        <time>2024-03-03T08:20:13Z</time>
      </trkpt>
      <trkpt lat="49.14518" lon="0.12368">
        <ele>163.7</ele>
        <time>2024-03-03T08:20:14Z</time>
      </trkpt>
      <trkpt lat="49.14512" lon="0.1237">
        <ele>163.7</ele>
        <time>2024-03-03T08:20:15Z</time>
      </trkpt>
      <trkpt lat="49.14506" lon="0.12374">
        <ele>163.7</ele>
        <time>2024-03-03T08:20:16Z</time>
      </trkpt>
      <trkpt lat="49.14501" lon="0.12377">
        <ele>163.8</ele>
        <time>2024-03-03T08:20:17Z</time>
      </trkpt>
      <trkpt lat="49.14495" lon="0.1238">
        <ele>163.8</ele>
        <time>2024-03-03T08:20:18Z</time>
      </trkpt>
      <trkpt lat="49.14489" lon="0.12383">
        <ele>163.8</ele>
        <time>2024-03-03T08:20:19Z</time>
      </trkpt>
      <trkpt lat="49.14484" lon="0.12387">
        <ele>163.9</ele>
        <time>2024-03-03T08:20:20Z</time>
      </trkpt>
      <trkpt lat="49.14478" lon="0.12391">
        <ele>163.9</ele>
        <time>2024-03-03T08:20:21Z</time>
      </trkpt>
      <trkpt lat="49.14472" lon="0.12394">
        <ele>164</ele>
        <time>2024-03-03T08:20:22Z</time>
      </trkpt>
      <trkpt lat="49.14467" lon="0.12398">
        <ele>164</ele>
        <time>2024-03-03T08:20:23Z</time>
      </trkpt>
      <trkpt lat="49.14461" lon="0.12401">
        <ele>164.1</ele>
        <time>2024-03-03T08:20:24Z</time>
      </trkpt>
      <trkpt lat="49.14456" lon="0.12405">
        <ele>164.1</ele>
        <time>2024-03-03T08:20:25Z</time>
      </trkpt>
      <trkpt lat="49.1445" lon="0.12408">
        <ele>164.1</ele>
        <time>2024-03-03T08:20:26Z</time>
      </trkpt>
      <trkpt lat="49.14444" lon="0.12411">
        <ele>164.1</ele>
        <time>2024-03-03T08:20:27Z</time>
      </trkpt>
      <trkpt lat="49.14438" lon="0.12413">
        <ele>164.1</ele>
        <time>2024-03-03T08:20:28Z</time>
      </trkpt>
      <trkpt lat="49.14433" lon="0.12416">
        <ele>164.1</ele>
        <time>2024-03-03T08:20:29Z</time>
      </trkpt>
      <trkpt lat="49.14427" lon="0.1242">
        <ele>164.1</ele>
        <time>2024-03-03T08:20:30Z</time>
      </trkpt>
      <trkpt lat="49.14422" lon="0.12423">
        <ele>164.1</ele>
        <time>2024-03-03T08:20:31Z</time>
      </trkpt>
      <trkpt lat="49.14416" lon="0.12426">
        <ele>164.1</ele>
        <time>2024-03-03T08:20:32Z</time>
      </trkpt>
      <trkpt lat="49.1441" lon="0.12428">
        <ele>164.1</ele>
        <time>2024-03-03T08:20:33Z</time>
      </trkpt>
      <trkpt lat="49.14404" lon="0.12431">
        <ele>164.1</ele>
        <time>2024-03-03T08:20:34Z</time>
      </trkpt>
      <trkpt lat="49.14398" lon="0.12434">
        <ele>164.2</ele>
        <time>2024-03-03T08:20:35Z</time>
      </trkpt>
      <trkpt lat="49.14393" lon="0.12438">
        <ele>164.2</ele>
        <time>2024-03-03T08:20:36Z</time>
      </trkpt>
      <trkpt lat="49.14387" lon="0.12441">
        <ele>164.2</ele>
        <time>2024-03-03T08:20:37Z</time>
      </trkpt>
      <trkpt lat="49.14382" lon="0.12444">
        <ele>164.3</ele>
        <time>2024-03-03T08:20:38Z</time>
      </trkpt>
      <trkpt lat="49.14376" lon="0.12447">
        <ele>164.3</ele>
        <time>2024-03-03T08:20:39Z</time>
      </trkpt>
      <trkpt lat="49.1437" lon="0.12451">
        <ele>164.4</ele>
        <time>2024-03-03T08:20:40Z</time>
      </trkpt>
      <trkpt lat="49.14364" lon="0.12454">
        <ele>164.4</ele>
        <time>2024-03-03T08:20:41Z</time>
      </trkpt>
      <trkpt lat="49.14359" lon="0.12457">
        <ele>164.4</ele>
        <time>2024-03-03T08:20:42Z</time>
      </trkpt>
      <trkpt lat="49.14354" lon="0.12459">
        <ele>164.5</ele>
        <time>2024-03-03T08:20:43Z</time>
      </trkpt>
      <trkpt lat="49.14348" lon="0.1246">
        <ele>164.6</ele>
        <time>2024-03-03T08:20:44Z</time>
      </trkpt>
      <trkpt lat="49.14344" lon="0.12462">
        <ele>164.6</ele>
        <time>2024-03-03T08:20:45Z</time>
      </trkpt>
      <trkpt lat="49.14339" lon="0.12464">
        <ele>164.7</ele>
        <time>2024-03-03T08:20:46Z</time>
      </trkpt>
      <trkpt lat="49.14335" lon="0.12465">
        <ele>164.7</ele>
        <time>2024-03-03T08:20:47Z</time>
      </trkpt>
      <trkpt lat="49.1433" lon="0.12467">
        <ele>164.8</ele>
        <time>2024-03-03T08:20:48Z</time>
      </trkpt>
      <trkpt lat="49.14326" lon="0.12469">
        <ele>164.9</ele>
        <time>2024-03-03T08:20:49Z</time>
      </trkpt>
      <trkpt lat="49.14321" lon="0.12472">
        <ele>165</ele>
        <time>2024-03-03T08:20:50Z</time>
      </trkpt>
      <trkpt lat="49.14316" lon="0.12475">
        <ele>165.1</ele>
        <time>2024-03-03T08:20:51Z</time>
      </trkpt>
      <trkpt lat="49.1431" lon="0.12478">
        <ele>165.2</ele>
        <time>2024-03-03T08:20:52Z</time>
      </trkpt>
      <trkpt lat="49.14305" lon="0.12481">
        <ele>165.3</ele>
        <time>2024-03-03T08:20:53Z</time>
      </trkpt>
      <trkpt lat="49.14299" lon="0.12483">
        <ele>165.4</ele>
        <time>2024-03-03T08:20:54Z</time>
      </trkpt>
      <trkpt lat="49.14294" lon="0.12486">
        <ele>165.5</ele>
        <time>2024-03-03T08:20:55Z</time>
      </trkpt>
      <trkpt lat="49.14288" lon="0.12489">
        <ele>165.7</ele>
        <time>2024-03-03T08:20:56Z</time>
      </trkpt>
      <trkpt lat="49.14282" lon="0.12491">
        <ele>165.9</ele>
        <time>2024-03-03T08:20:57Z</time>
      </trkpt>
      <trkpt lat="49.14277" lon="0.12494">
        <ele>166.1</ele>
        <time>2024-03-03T08:20:58Z</time>
      </trkpt>
      <trkpt lat="49.14272" lon="0.12496">
        <ele>166.2</ele>
        <time>2024-03-03T08:20:59Z</time>
      </trkpt>
      <trkpt lat="49.14266" lon="0.12499">
        <ele>166.4</ele>
        <time>2024-03-03T08:21:00Z</time>
      </trkpt>
      <trkpt lat="49.14261" lon="0.12503">
        <ele>166.5</ele>
        <time>2024-03-03T08:21:01Z</time>
      </trkpt>
      <trkpt lat="49.14256" lon="0.12507">
        <ele>166.7</ele>
        <time>2024-03-03T08:21:02Z</time>
      </trkpt>
      <trkpt lat="49.14251" lon="0.12511">
        <ele>166.8</ele>
        <time>2024-03-03T08:21:03Z</time>
      </trkpt>
      <trkpt lat="49.14246" lon="0.12515">
        <ele>167</ele>
        <time>2024-03-03T08:21:04Z</time>
      </trkpt>
      <trkpt lat="49.14241" lon="0.12518">
        <ele>167.2</ele>
        <time>2024-03-03T08:21:05Z</time>
      </trkpt>
      <trkpt lat="49.14236" lon="0.12521">
        <ele>167.3</ele>
        <time>2024-03-03T08:21:06Z</time>
      </trkpt>
      <trkpt lat="49.1423" lon="0.12523">
        <ele>167.4</ele>
        <time>2024-03-03T08:21:07Z</time>
      </trkpt>
      <trkpt lat="49.14225" lon="0.12526">
        <ele>167.6</ele>
        <time>2024-03-03T08:21:08Z</time>
      </trkpt>
      <trkpt lat="49.1422" lon="0.12528">
        <ele>167.7</ele>
        <time>2024-03-03T08:21:09Z</time>
      </trkpt>
      <trkpt lat="49.14214" lon="0.12532">
        <ele>167.8</ele>
        <time>2024-03-03T08:21:10Z</time>
      </trkpt>
      <trkpt lat="49.14209" lon="0.12535">
        <ele>168</ele>
        <time>2024-03-03T08:21:11Z</time>
      </trkpt>
      <trkpt lat="49.14203" lon="0.12538">
        <ele>168.1</ele>
        <time>2024-03-03T08:21:12Z</time>
      </trkpt>
      <trkpt lat="49.14197" lon="0.12541">
        <ele>168.3</ele>
        <time>2024-03-03T08:21:13Z</time>
      </trkpt>
      <trkpt lat="49.14192" lon="0.12545">
        <ele>168.4</ele>
        <time>2024-03-03T08:21:14Z</time>
      </trkpt>
      <trkpt lat="49.14186" lon="0.12549">
        <ele>168.6</ele>
        <time>2024-03-03T08:21:15Z</time>
      </trkpt>
      <trkpt lat="49.14181" lon="0.12552">
        <ele>168.7</ele>
        <time>2024-03-03T08:21:16Z</time>
      </trkpt>
      <trkpt lat="49.14176" lon="0.12555">
        <ele>168.9</ele>
        <time>2024-03-03T08:21:17Z</time>
      </trkpt>
      <trkpt lat="49.1417" lon="0.12558">
        <ele>169.1</ele>
        <time>2024-03-03T08:21:18Z</time>
      </trkpt>
      <trkpt lat="49.14165" lon="0.12561">
        <ele>169.2</ele>
        <time>2024-03-03T08:21:19Z</time>
      </trkpt>
      <trkpt lat="49.1416" lon="0.12565">
        <ele>169.4</ele>
        <time>2024-03-03T08:21:20Z</time>
      </trkpt>
      <trkpt lat="49.14155" lon="0.12568">
        <ele>169.5</ele>
        <time>2024-03-03T08:21:21Z</time>
      </trkpt>
      <trkpt lat="49.1415" lon="0.12571">
        <ele>169.7</ele>
        <time>2024-03-03T08:21:22Z</time>
      </trkpt>
      <trkpt lat="49.14144" lon="0.12575">
        <ele>169.8</ele>
        <time>2024-03-03T08:21:23Z</time>
      </trkpt>
      <trkpt lat="49.14139" lon="0.12578">
        <ele>170</ele>
        <time>2024-03-03T08:21:24Z</time>
      </trkpt>
      <trkpt lat="49.14133" lon="0.12581">
        <ele>170.1</ele>
        <time>2024-03-03T08:21:25Z</time>
      </trkpt>
      <trkpt lat="49.14128" lon="0.12584">
        <ele>170.2</ele>
        <time>2024-03-03T08:21:26Z</time>
      </trkpt>
      <trkpt lat="49.14123" lon="0.12588">
        <ele>170.4</ele>
        <time>2024-03-03T08:21:27Z</time>
      </trkpt>
      <trkpt lat="49.14117" lon="0.12591">
        <ele>170.5</ele>
        <time>2024-03-03T08:21:28Z</time>
      </trkpt>
      <trkpt lat="49.14111" lon="0.12594">
        <ele>170.6</ele>
        <time>2024-03-03T08:21:29Z</time>
      </trkpt>
      <trkpt lat="49.14106" lon="0.12598">
        <ele>170.8</ele>
        <time>2024-03-03T08:21:30Z</time>
      </trkpt>
      <trkpt lat="49.141" lon="0.12601">
        <ele>170.9</ele>
        <time>2024-03-03T08:21:31Z</time>
      </trkpt>
      <trkpt lat="49.14095" lon="0.12604">
        <ele>171</ele>
        <time>2024-03-03T08:21:32Z</time>
      </trkpt>
      <trkpt lat="49.14089" lon="0.12606">
        <ele>171.1</ele>
        <time>2024-03-03T08:21:33Z</time>
      </trkpt>
      <trkpt lat="49.14084" lon="0.1261">
        <ele>171.2</ele>
        <time>2024-03-03T08:21:34Z</time>
      </trkpt>
      <trkpt lat="49.14078" lon="0.12613">
        <ele>171.3</ele>
        <time>2024-03-03T08:21:35Z</time>
      </trkpt>
      <trkpt lat="49.14073" lon="0.12616">
        <ele>171.4</ele>
        <time>2024-03-03T08:21:36Z</time>
      </trkpt>
      <trkpt lat="49.14067" lon="0.12619">
        <ele>171.5</ele>
        <time>2024-03-03T08:21:37Z</time>
      </trkpt>
      <trkpt lat="49.14062" lon="0.12622">
        <ele>171.5</ele>
        <time>2024-03-03T08:21:38Z</time>
      </trkpt>
      <trkpt lat="49.14057" lon="0.12625">
        <ele>171.6</ele>
        <time>2024-03-03T08:21:39Z</time>
      </trkpt>
      <trkpt lat="49.14052" lon="0.12628">
        <ele>171.6</ele>
        <time>2024-03-03T08:21:40Z</time>
      </trkpt>
      <trkpt lat="49.14046" lon="0.12631">
        <ele>171.7</ele>
        <time>2024-03-03T08:21:41Z</time>
      </trkpt>
      <trkpt lat="49.1404" lon="0.12634">
        <ele>171.7</ele>
        <time>2024-03-03T08:21:42Z</time>
      </trkpt>
      <trkpt lat="49.14035" lon="0.12637">
        <ele>171.7</ele>
        <time>2024-03-03T08:21:43Z</time>
      </trkpt>
      <trkpt lat="49.1403" lon="0.12639">
        <ele>171.7</ele>
        <time>2024-03-03T08:21:44Z</time>
      </trkpt>
      <trkpt lat="49.14025" lon="0.12643">
        <ele>171.7</ele>
        <time>2024-03-03T08:21:45Z</time>
      </trkpt>
      <trkpt lat="49.1402" lon="0.12646">
        <ele>171.7</ele>
        <time>2024-03-03T08:21:46Z</time>
      </trkpt>
      <trkpt lat="49.14015" lon="0.12648">
        <ele>171.7</ele>
        <time>2024-03-03T08:21:47Z</time>
      </trkpt>
      <trkpt lat="49.1401" lon="0.12651">
        <ele>171.7</ele>
        <time>2024-03-03T08:21:48Z</time>
      </trkpt>
      <trkpt lat="49.14005" lon="0.12653">
        <ele>171.7</ele>
        <time>2024-03-03T08:21:49Z</time>
      </trkpt>
      <trkpt lat="49.14001" lon="0.12656">
        <ele>171.7</ele>
        <time>2024-03-03T08:21:50Z</time>
      </trkpt>
      <trkpt lat="49.13995" lon="0.12658">
        <ele>171.6</ele>
        <time>2024-03-03T08:21:51Z</time>
      </trkpt>
      <trkpt lat="49.1399" lon="0.12661">
        <ele>171.6</ele>
        <time>2024-03-03T08:21:52Z</time>
      </trkpt>
      <trkpt lat="49.13985" lon="0.12664">
        <ele>171.5</ele>
        <time>2024-03-03T08:21:53Z</time>
      </trkpt>
      <trkpt lat="49.1398" lon="0.12666">
        <ele>171.5</ele>
        <time>2024-03-03T08:21:54Z</time>
      </trkpt>
      <trkpt lat="49.13976" lon="0.12669">
        <ele>171.4</ele>
        <time>2024-03-03T08:21:55Z</time>
      </trkpt>
      <trkpt lat="49.1397" lon="0.12672">
        <ele>171.4</ele>
        <time>2024-03-03T08:21:56Z</time>
      </trkpt>
      <trkpt lat="49.13965" lon="0.12676">
        <ele>171.3</ele>
        <time>2024-03-03T08:21:57Z</time>
      </trkpt>
      <trkpt lat="49.13959" lon="0.12678">
        <ele>171.3</ele>
        <time>2024-03-03T08:21:58Z</time>
      </trkpt>
      <trkpt lat="49.13955" lon="0.12681">
        <ele>171.2</ele>
        <time>2024-03-03T08:21:59Z</time>
      </trkpt>
      <trkpt lat="49.13949" lon="0.12684">
        <ele>171.1</ele>
        <time>2024-03-03T08:22:00Z</time>
      </trkpt>
      <trkpt lat="49.13945" lon="0.12688">
        <ele>171.1</ele>
        <time>2024-03-03T08:22:01Z</time>
      </trkpt>
      <trkpt lat="49.1394" lon="0.12691">
        <ele>171</ele>
        <time>2024-03-03T08:22:02Z</time>
      </trkpt>
      <trkpt lat="49.13935" lon="0.12695">
        <ele>170.9</ele>
        <time>2024-03-03T08:22:03Z</time>
      </trkpt>
      <trkpt lat="49.13929" lon="0.12698">
        <ele>170.8</ele>
        <time>2024-03-03T08:22:04Z</time>
      </trkpt>
      <trkpt lat="49.13923" lon="0.12701">
        <ele>170.6</ele>
        <time>2024-03-03T08:22:05Z</time>
      </trkpt>
      <trkpt lat="49.13917" lon="0.12704">
        <ele>170.5</ele>
        <time>2024-03-03T08:22:06Z</time>
      </trkpt>
      <trkpt lat="49.13912" lon="0.12708">
        <ele>170.4</ele>
        <time>2024-03-03T08:22:07Z</time>
      </trkpt>
      <trkpt lat="49.13905" lon="0.12713">
        <ele>170.2</ele>
        <time>2024-03-03T08:22:08Z</time>
      </trkpt>
      <trkpt lat="49.13898" lon="0.12718">
        <ele>170.1</ele>
        <time>2024-03-03T08:22:09Z</time>
      </trkpt>
      <trkpt lat="49.13892" lon="0.12721">
        <ele>169.9</ele>
        <time>2024-03-03T08:22:10Z</time>
      </trkpt>
      <trkpt lat="49.13886" lon="0.12725">
        <ele>169.8</ele>
        <time>2024-03-03T08:22:11Z</time>
      </trkpt>
      <trkpt lat="49.13879" lon="0.12729">
        <ele>169.6</ele>
        <time>2024-03-03T08:22:12Z</time>
      </trkpt>
      <trkpt lat="49.13871" lon="0.12734">
        <ele>169.4</ele>
        <time>2024-03-03T08:22:13Z</time>
      </trkpt>
      <trkpt lat="49.13863" lon="0.12738">
        <ele>169.1</ele>
        <time>2024-03-03T08:22:14Z</time>
      </trkpt>
      <trkpt lat="49.13855" lon="0.12743">
        <ele>168.9</ele>
        <time>2024-03-03T08:22:15Z</time>
      </trkpt>
      <trkpt lat="49.13848" lon="0.12747">
        <ele>168.8</ele>
        <time>2024-03-03T08:22:16Z</time>
      </trkpt>
      <trkpt lat="49.1384" lon="0.12752">
        <ele>168.6</ele>
        <time>2024-03-03T08:22:17Z</time>
      </trkpt>
      <trkpt lat="49.13832" lon="0.12756">
        <ele>168.4</ele>
        <time>2024-03-03T08:22:18Z</time>
      </trkpt>
      <trkpt lat="49.13825" lon="0.12759">
        <ele>168.2</ele>
        <time>2024-03-03T08:22:19Z</time>
      </trkpt>
      <trkpt lat="49.13816" lon="0.12763">
        <ele>168.1</ele>
        <time>2024-03-03T08:22:20Z</time>
      </trkpt>
      <trkpt lat="49.13808" lon="0.12768">
        <ele>167.8</ele>
        <time>2024-03-03T08:22:21Z</time>
      </trkpt>
      <trkpt lat="49.13799" lon="0.12772">
        <ele>167.5</ele>
        <time>2024-03-03T08:22:22Z</time>
      </trkpt>
      <trkpt lat="49.13791" lon="0.12778">
        <ele>167.1</ele>
        <time>2024-03-03T08:22:23Z</time>
      </trkpt>
      <trkpt lat="49.13781" lon="0.12783">
        <ele>166.8</ele>
        <time>2024-03-03T08:22:24Z</time>
      </trkpt>
      <trkpt lat="49.13771" lon="0.12789">
        <ele>166.5</ele>
        <time>2024-03-03T08:22:25Z</time>
      </trkpt>
      <trkpt lat="49.13761" lon="0.12794">
        <ele>166.3</ele>
        <time>2024-03-03T08:22:26Z</time>
      </trkpt>
      <trkpt lat="49.13751" lon="0.128">
        <ele>166.1</ele>
        <time>2024-03-03T08:22:27Z</time>
      </trkpt>
      <trkpt lat="49.13741" lon="0.12805">
        <ele>166</ele>
        <time>2024-03-03T08:22:28Z</time>
      </trkpt>
      <trkpt lat="49.13731" lon="0.12809">
        <ele>165.9</ele>
        <time>2024-03-03T08:22:29Z</time>
      </trkpt>
      <trkpt lat="49.13723" lon="0.12814">
        <ele>165.8</ele>
        <time>2024-03-03T08:22:30Z</time>
      </trkpt>
      <trkpt lat="49.13715" lon="0.12819">
        <ele>165.8</ele>
        <time>2024-03-03T08:22:31Z</time>
      </trkpt>
      <trkpt lat="49.13707" lon="0.12824">
        <ele>165.9</ele>
        <time>2024-03-03T08:22:32Z</time>
      </trkpt>
      <trkpt lat="49.137" lon="0.12827">
        <ele>166</ele>
        <time>2024-03-03T08:22:33Z</time>
      </trkpt>
      <trkpt lat="49.13695" lon="0.12828">
        <ele>166.2</ele>
        <time>2024-03-03T08:22:34Z</time>
      </trkpt>
      <trkpt lat="49.13691" lon="0.12828">
        <ele>166.3</ele>
        <time>2024-03-03T08:22:35Z</time>
      </trkpt>
      <trkpt lat="49.13688" lon="0.12827">
        <ele>166.4</ele>
        <time>2024-03-03T08:22:36Z</time>
      </trkpt>
      <trkpt lat="49.13687" lon="0.12827">
        <ele>166.4</ele>
        <time>2024-03-03T08:22:37Z</time>
      </trkpt>
      <trkpt lat="49.13683" lon="0.12828">
        <ele>166.5</ele>
        <time>2024-03-03T08:22:38Z</time>
      </trkpt>
      <trkpt lat="49.13682" lon="0.12829">
        <ele>166.6</ele>
        <time>2024-03-03T08:22:39Z</time>
      </trkpt>
      <trkpt lat="49.13679" lon="0.12831">
        <ele>166.6</ele>
        <time>2024-03-03T08:22:40Z</time>
      </trkpt>
      <trkpt lat="49.13674" lon="0.12836">
        <ele>166.7</ele>
        <time>2024-03-03T08:22:41Z</time>
      </trkpt>
      <trkpt lat="49.13671" lon="0.12843">
        <ele>166.8</ele>
        <time>2024-03-03T08:22:42Z</time>
      </trkpt>
      <trkpt lat="49.13669" lon="0.12851">
        <ele>166.8</ele>
        <time>2024-03-03T08:22:43Z</time>
      </trkpt>
      <trkpt lat="49.13667" lon="0.1286">
        <ele>166.8</ele>
        <time>2024-03-03T08:22:44Z</time>
      </trkpt>
      <trkpt lat="49.13665" lon="0.12868">
        <ele>166.8</ele>
        <time>2024-03-03T08:22:45Z</time>
      </trkpt>
      <trkpt lat="49.13664" lon="0.12876">
        <ele>166.9</ele>
        <time>2024-03-03T08:22:46Z</time>
      </trkpt>
      <trkpt lat="49.13663" lon="0.12885">
        <ele>166.9</ele>
        <time>2024-03-03T08:22:47Z</time>
      </trkpt>
      <trkpt lat="49.13662" lon="0.12893">
        <ele>167</ele>
        <time>2024-03-03T08:22:48Z</time>
      </trkpt>
      <trkpt lat="49.13661" lon="0.12901">
        <ele>167.1</ele>
        <time>2024-03-03T08:22:49Z</time>
      </trkpt>
      <trkpt lat="49.1366" lon="0.12908">
        <ele>167.2</ele>
        <time>2024-03-03T08:22:50Z</time>
      </trkpt>
      <trkpt lat="49.13659" lon="0.12916">
        <ele>167.4</ele>
        <time>2024-03-03T08:22:51Z</time>
      </trkpt>
      <trkpt lat="49.13658" lon="0.12924">
        <ele>167.5</ele>
        <time>2024-03-03T08:22:52Z</time>
      </trkpt>
      <trkpt lat="49.13657" lon="0.12931">
        <ele>167.6</ele>
        <time>2024-03-03T08:22:53Z</time>
      </trkpt>
      <trkpt lat="49.13656" lon="0.12939">
        <ele>167.8</ele>
        <time>2024-03-03T08:22:54Z</time>
      </trkpt>
      <trkpt lat="49.13655" lon="0.12947">
        <ele>167.9</ele>
        <time>2024-03-03T08:22:55Z</time>
      </trkpt>
      <trkpt lat="49.13654" lon="0.12954">
        <ele>168.1</ele>
        <time>2024-03-03T08:22:56Z</time>
      </trkpt>
      <trkpt lat="49.13653" lon="0.12961">
        <ele>168.2</ele>
        <time>2024-03-03T08:22:57Z</time>
      </trkpt>
      <trkpt lat="49.13653" lon="0.12967">
        <ele>168.3</ele>
        <time>2024-03-03T08:22:58Z</time>
      </trkpt>
      <trkpt lat="49.13652" lon="0.12974">
        <ele>168.4</ele>
        <time>2024-03-03T08:22:59Z</time>
      </trkpt>
      <trkpt lat="49.13651" lon="0.12979">
        <ele>168.4</ele>
        <time>2024-03-03T08:23:00Z</time>
      </trkpt>
      <trkpt lat="49.13651" lon="0.12984">
        <ele>168.5</ele>
        <time>2024-03-03T08:23:01Z</time>
      </trkpt>
      <trkpt lat="49.1365" lon="0.1299">
        <ele>168.5</ele>
        <time>2024-03-03T08:23:02Z</time>
      </trkpt>
      <trkpt lat="49.13649" lon="0.12996">
        <ele>168.6</ele>
        <time>2024-03-03T08:23:03Z</time>
      </trkpt>
      <trkpt lat="49.13649" lon="0.13002">
        <ele>168.6</ele>
        <time>2024-03-03T08:23:04Z</time>
      </trkpt>
      <trkpt lat="49.13647" lon="0.13006">
        <ele>168.7</ele>
        <time>2024-03-03T08:23:05Z</time>
      </trkpt>
      <trkpt lat="49.13645" lon="0.1301">
        <ele>168.7</ele>
        <time>2024-03-03T08:23:06Z</time>
      </trkpt>
      <trkpt lat="49.13641" lon="0.13012">
        <ele>168.7</ele>
        <time>2024-03-03T08:23:07Z</time>
      </trkpt>
      <trkpt lat="49.13637" lon="0.13012">
        <ele>168.6</ele>
        <time>2024-03-03T08:23:08Z</time>
      </trkpt>
      <trkpt lat="49.13633" lon="0.1301">
        <ele>168.6</ele>
        <time>2024-03-03T08:23:09Z</time>
      </trkpt>
      <trkpt lat="49.13629" lon="0.13006">
        <ele>168.5</ele>
        <time>2024-03-03T08:23:10Z</time>
      </trkpt>
      <trkpt lat="49.13625" lon="0.13001">
        <ele>168.4</ele>
        <time>2024-03-03T08:23:11Z</time>
      </trkpt>
      <trkpt lat="49.13621" lon="0.12996">
        <ele>168.3</ele>
        <time>2024-03-03T08:23:12Z</time>
      </trkpt>
      <trkpt lat="49.13617" lon="0.12991">
        <ele>168.2</ele>
        <time>2024-03-03T08:23:13Z</time>
      </trkpt>
      <trkpt lat="49.13613" lon="0.12985">
        <ele>168.1</ele>
        <time>2024-03-03T08:23:14Z</time>
      </trkpt>
      <trkpt lat="49.13609" lon="0.1298">
        <ele>168</ele>
        <time>2024-03-03T08:23:15Z</time>
      </trkpt>
      <trkpt lat="49.13605" lon="0.12974">
        <ele>167.9</ele>
        <time>2024-03-03T08:23:16Z</time>
      </trkpt>
      <trkpt lat="49.13601" lon="0.12969">
        <ele>167.8</ele>
        <time>2024-03-03T08:23:17Z</time>
      </trkpt>
      <trkpt lat="49.13598" lon="0.12963">
        <ele>167.7</ele>
        <time>2024-03-03T08:23:18Z</time>
      </trkpt>
      <trkpt lat="49.13595" lon="0.12959">
        <ele>167.6</ele>
        <time>2024-03-03T08:23:19Z</time>
      </trkpt>
      <trkpt lat="49.13592" lon="0.12954">
        <ele>167.5</ele>
        <time>2024-03-03T08:23:20Z</time>
      </trkpt>
      <trkpt lat="49.1359" lon="0.12951">
        <ele>167.5</ele>
        <time>2024-03-03T08:23:21Z</time>
      </trkpt>
      <trkpt lat="49.13589" lon="0.12947">
        <ele>167.4</ele>
        <time>2024-03-03T08:23:22Z</time>
      </trkpt>
      <trkpt lat="49.13587" lon="0.12942">
        <ele>167.3</ele>
        <time>2024-03-03T08:23:23Z</time>
      </trkpt>
      <trkpt lat="49.13587" lon="0.12941">
        <ele>167.3</ele>
        <time>2024-03-03T08:23:24Z</time>
      </trkpt>
      <trkpt lat="49.13586" lon="0.12939">
        <ele>167.3</ele>
        <time>2024-03-03T08:23:25Z</time>
      </trkpt>
      <trkpt lat="49.13586" lon="0.12937">
        <ele>167.3</ele>
        <time>2024-03-03T08:23:26Z</time>
      </trkpt>
      <trkpt lat="49.13586" lon="0.12936">
        <ele>167.3</ele>
        <time>2024-03-03T08:23:27Z</time>
      </trkpt>
      <trkpt lat="49.13585" lon="0.12936">
        <ele>167.2</ele>
        <time>2024-03-03T08:23:28Z</time>
      </trkpt>
      <trkpt lat="49.13583" lon="0.12938">
        <ele>167.2</ele>
        <time>2024-03-03T08:23:29Z</time>
      </trkpt>
      <trkpt lat="49.13583" lon="0.1294">
        <ele>167.3</ele>
        <time>2024-03-03T08:23:30Z</time>
      </trkpt>
      <trkpt lat="49.13584" lon="0.12941">
        <ele>167.3</ele>
        <time>2024-03-03T08:23:31Z</time>
      </trkpt>
      <trkpt lat="49.13585" lon="0.12942">
        <ele>167.3</ele>
        <time>2024-03-03T08:23:32Z</time>
      </trkpt>
      <trkpt lat="49.13585" lon="0.12943">
        <ele>167.3</ele>
        <time>2024-03-03T08:23:33Z</time>
      </trkpt>
      <trkpt lat="49.13585" lon="0.12943">
        <ele>167.3</ele>
        <time>2024-03-03T08:23:34Z</time>
      </trkpt>
      <trkpt lat="49.13584" lon="0.12943">
        <ele>167.3</ele>
        <time>2024-03-03T08:23:35Z</time>
      </trkpt>
      <trkpt lat="49.13584" lon="0.12943">
        <ele>167.3</ele>
        <time>2024-03-03T08:23:36Z</time>
      </trkpt>
      <trkpt lat="49.13584" lon="0.12943">
        <ele>167.3</ele>
        <time>2024-03-03T08:23:37Z</time>
      </trkpt>
      <trkpt lat="49.13584" lon="0.12943">
        <ele>167.3</ele>
        <time>2024-03-03T08:23:38Z</time>
      </trkpt>
      <trkpt lat="49.13584" lon="0.12943">
        <ele>167.3</ele>
        <time>2024-03-03T08:23:39Z</time>
      </trkpt>
      <trkpt lat="49.13584" lon="0.12943">
        <ele>167.3</ele>
        <time>2024-03-03T08:23:40Z</time>
      </trkpt>
      <trkpt lat="49.13584" lon="0.12943">
        <ele>167.3</ele>
        <time>2024-03-03T08:23:41Z</time>
      </trkpt>
      <trkpt lat="49.13584" lon="0.12943">
        <ele>167.3</ele>
        <time>2024-03-03T08:23:42Z</time>
      </trkpt>
      <trkpt lat="49.13584" lon="0.12943">
        <ele>167.3</ele>
        <time>2024-03-03T08:23:43Z</time>
      </trkpt>
      <trkpt lat="49.13584" lon="0.12943">
        <ele>167.3</ele>
        <time>2024-03-03T08:23:44Z</time>
      </trkpt>
      <trkpt lat="49.13584" lon="0.12943">
        <ele>167.3</ele>
        <time>2024-03-03T08:23:45Z</time>
      </trkpt>
      <trkpt lat="49.13584" lon="0.12943">
        <ele>167.3</ele>
        <time>2024-03-03T08:23:46Z</time>
      </trkpt>
      <trkpt lat="49.13584" lon="0.12943">
        <ele>167.3</ele>
        <time>2024-03-03T08:23:47Z</time>
      </trkpt>
      <trkpt lat="49.13584" lon="0.12943">
        <ele>167.3</ele>
        <time>2024-03-03T08:23:48Z</time>
      </trkpt>
      <trkpt lat="49.13584" lon="0.12944">
        <ele>167.3</ele>
        <time>2024-03-03T08:23:49Z</time>
      </trkpt>
      <trkpt lat="49.13584" lon="0.12945">
        <ele>167.4</ele>
        <time>2024-03-03T08:23:50Z</time>
      </trkpt>
      <trkpt lat="49.13584" lon="0.12945">
        <ele>167.4</ele>
        <time>2024-03-03T08:23:51Z</time>
      </trkpt>
      <trkpt lat="49.13584" lon="0.12945">
        <ele>167.4</ele>
        <time>2024-03-03T08:23:52Z</time>
      </trkpt>
      <trkpt lat="49.13584" lon="0.12945">
        <ele>167.4</ele>
        <time>2024-03-03T08:23:53Z</time>
      </trkpt>
      <trkpt lat="49.13585" lon="0.12946">
        <ele>167.4</ele>
        <time>2024-03-03T08:23:54Z</time>
      </trkpt>
      <trkpt lat="49.13585" lon="0.12947">
        <ele>167.4</ele>
        <time>2024-03-03T08:23:55Z</time>
      </trkpt>
      <trkpt lat="49.13587" lon="0.1295">
        <ele>167.4</ele>
        <time>2024-03-03T08:23:56Z</time>
      </trkpt>
      <trkpt lat="49.13587" lon="0.12951">
        <ele>167.4</ele>
        <time>2024-03-03T08:23:57Z</time>
      </trkpt>
      <trkpt lat="49.13588" lon="0.12952">
        <ele>167.5</ele>
        <time>2024-03-03T08:23:58Z</time>
      </trkpt>
      <trkpt lat="49.13589" lon="0.12954">
        <ele>167.5</ele>
        <time>2024-03-03T08:23:59Z</time>
      </trkpt>
      <trkpt lat="49.1359" lon="0.12956">
        <ele>167.5</ele>
        <time>2024-03-03T08:24:00Z</time>
      </trkpt>
      <trkpt lat="49.13592" lon="0.12961">
        <ele>167.6</ele>
        <time>2024-03-03T08:24:01Z</time>
      </trkpt>
      <trkpt lat="49.13593" lon="0.12962">
        <ele>167.6</ele>
        <time>2024-03-03T08:24:02Z</time>
      </trkpt>
      <trkpt lat="49.13595" lon="0.12965">
        <ele>167.6</ele>
        <time>2024-03-03T08:24:03Z</time>
      </trkpt>
      <trkpt lat="49.13598" lon="0.12969">
        <ele>167.7</ele>
        <time>2024-03-03T08:24:04Z</time>
      </trkpt>
      <trkpt lat="49.136" lon="0.12972">
        <ele>167.7</ele>
        <time>2024-03-03T08:24:05Z</time>
      </trkpt>
      <trkpt lat="49.13602" lon="0.12975">
        <ele>167.8</ele>
        <time>2024-03-03T08:24:06Z</time>
      </trkpt>
      <trkpt lat="49.13605" lon="0.12978">
        <ele>167.9</ele>
        <time>2024-03-03T08:24:07Z</time>
      </trkpt>
      <trkpt lat="49.13607" lon="0.12982">
        <ele>167.9</ele>
        <time>2024-03-03T08:24:08Z</time>
      </trkpt>
      <trkpt lat="49.1361" lon="0.12986">
        <ele>168</ele>
        <time>2024-03-03T08:24:09Z</time>
      </trkpt>
      <trkpt lat="49.13612" lon="0.1299">
        <ele>168</ele>
        <time>2024-03-03T08:24:10Z</time>
      </trkpt>
      <trkpt lat="49.13614" lon="0.12994">
        <ele>168.1</ele>
        <time>2024-03-03T08:24:11Z</time>
      </trkpt>
      <trkpt lat="49.13617" lon="0.12998">
        <ele>168.2</ele>
        <time>2024-03-03T08:24:12Z</time>
      </trkpt>
      <trkpt lat="49.13619" lon="0.13002">
        <ele>168.2</ele>
        <time>2024-03-03T08:24:13Z</time>
      </trkpt>
      <trkpt lat="49.13621" lon="0.13006">
        <ele>168.3</ele>
        <time>2024-03-03T08:24:14Z</time>
      </trkpt>
      <trkpt lat="49.13625" lon="0.13011">
        <ele>168.3</ele>
        <time>2024-03-03T08:24:15Z</time>
      </trkpt>
      <trkpt lat="49.13629" lon="0.13015">
        <ele>168.4</ele>
        <time>2024-03-03T08:24:16Z</time>
      </trkpt>
      <trkpt lat="49.13632" lon="0.1302">
        <ele>168.5</ele>
        <time>2024-03-03T08:24:17Z</time>
      </trkpt>
      <trkpt lat="49.13636" lon="0.13024">
        <ele>168.6</ele>
        <time>2024-03-03T08:24:18Z</time>
      </trkpt>
      <trkpt lat="49.13639" lon="0.13029">
        <ele>168.8</ele>
        <time>2024-03-03T08:24:19Z</time>
      </trkpt>
      <trkpt lat="49.1364" lon="0.13036">
        <ele>168.8</ele>
        <time>2024-03-03T08:24:20Z</time>
      </trkpt>
      <trkpt lat="49.1364" lon="0.13044">
        <ele>168.8</ele>
        <time>2024-03-03T08:24:21Z</time>
      </trkpt>
      <trkpt lat="49.13639" lon="0.13052">
        <ele>168.9</ele>
        <time>2024-03-03T08:24:22Z</time>
      </trkpt>
      <trkpt lat="49.13637" lon="0.13062">
        <ele>168.9</ele>
        <time>2024-03-03T08:24:23Z</time>
      </trkpt>
      <trkpt lat="49.13634" lon="0.13071">
        <ele>168.9</ele>
        <time>2024-03-03T08:24:24Z</time>
      </trkpt>
      <trkpt lat="49.13632" lon="0.13079">
        <ele>169</ele>
        <time>2024-03-03T08:24:25Z</time>
      </trkpt>
      <trkpt lat="49.1363" lon="0.13088">
        <ele>169</ele>
        <time>2024-03-03T08:24:26Z</time>
      </trkpt>
      <trkpt lat="49.13628" lon="0.13098">
        <ele>169</ele>
        <time>2024-03-03T08:24:27Z</time>
      </trkpt>
      <trkpt lat="49.13626" lon="0.13107">
        <ele>169</ele>
        <time>2024-03-03T08:24:28Z</time>
      </trkpt>
      <trkpt lat="49.13624" lon="0.13115">
        <ele>169</ele>
        <time>2024-03-03T08:24:29Z</time>
      </trkpt>
      <trkpt lat="49.13622" lon="0.13124">
        <ele>169</ele>
        <time>2024-03-03T08:24:30Z</time>
      </trkpt>
      <trkpt lat="49.1362" lon="0.13132">
        <ele>169</ele>
        <time>2024-03-03T08:24:31Z</time>
      </trkpt>
      <trkpt lat="49.13618" lon="0.13141">
        <ele>169</ele>
        <time>2024-03-03T08:24:32Z</time>
      </trkpt>
      <trkpt lat="49.13616" lon="0.13149">
        <ele>169</ele>
        <time>2024-03-03T08:24:33Z</time>
      </trkpt>
      <trkpt lat="49.13614" lon="0.13156">
        <ele>169</ele>
        <time>2024-03-03T08:24:34Z</time>
      </trkpt>
      <trkpt lat="49.13612" lon="0.13164">
        <ele>169</ele>
        <time>2024-03-03T08:24:35Z</time>
      </trkpt>
      <trkpt lat="49.1361" lon="0.13173">
        <ele>168.9</ele>
        <time>2024-03-03T08:24:36Z</time>
      </trkpt>
      <trkpt lat="49.13608" lon="0.13181">
        <ele>168.9</ele>
        <time>2024-03-03T08:24:37Z</time>
      </trkpt>
      <trkpt lat="49.13605" lon="0.1319">
        <ele>168.9</ele>
        <time>2024-03-03T08:24:38Z</time>
      </trkpt>
      <trkpt lat="49.13603" lon="0.132">
        <ele>168.9</ele>
        <time>2024-03-03T08:24:39Z</time>
      </trkpt>
      <trkpt lat="49.13601" lon="0.1321">
        <ele>168.9</ele>
        <time>2024-03-03T08:24:40Z</time>
      </trkpt>
      <trkpt lat="49.13599" lon="0.13222">
        <ele>168.9</ele>
        <time>2024-03-03T08:24:41Z</time>
      </trkpt>
      <trkpt lat="49.13597" lon="0.1323">
        <ele>168.8</ele>
        <time>2024-03-03T08:24:42Z</time>
      </trkpt>
      <trkpt lat="49.13594" lon="0.13238">
        <ele>168.8</ele>
        <time>2024-03-03T08:24:43Z</time>
      </trkpt>
      <trkpt lat="49.13592" lon="0.13247">
        <ele>168.7</ele>
        <time>2024-03-03T08:24:44Z</time>
      </trkpt>
      <trkpt lat="49.1359" lon="0.13256">
        <ele>168.7</ele>
        <time>2024-03-03T08:24:45Z</time>
      </trkpt>
      <trkpt lat="49.13587" lon="0.13266">
        <ele>168.7</ele>
        <time>2024-03-03T08:24:46Z</time>
      </trkpt>
      <trkpt lat="49.13585" lon="0.13276">
        <ele>168.7</ele>
        <time>2024-03-03T08:24:47Z</time>
      </trkpt>
      <trkpt lat="49.13583" lon="0.13285">
        <ele>168.7</ele>
        <time>2024-03-03T08:24:48Z</time>
      </trkpt>
      <trkpt lat="49.13581" lon="0.13294">
        <ele>168.7</ele>
        <time>2024-03-03T08:24:49Z</time>
      </trkpt>
      <trkpt lat="49.13579" lon="0.13302">
        <ele>168.7</ele>
        <time>2024-03-03T08:24:50Z</time>
      </trkpt>
      <trkpt lat="49.13577" lon="0.13311">
        <ele>168.8</ele>
        <time>2024-03-03T08:24:51Z</time>
      </trkpt>
      <trkpt lat="49.13576" lon="0.1332">
        <ele>168.8</ele>
        <time>2024-03-03T08:24:52Z</time>
      </trkpt>
      <trkpt lat="49.13574" lon="0.13329">
        <ele>168.9</ele>
        <time>2024-03-03T08:24:53Z</time>
      </trkpt>
      <trkpt lat="49.13573" lon="0.13337">
        <ele>168.9</ele>
        <time>2024-03-03T08:24:54Z</time>
      </trkpt>
      <trkpt lat="49.13572" lon="0.13345">
        <ele>169</ele>
        <time>2024-03-03T08:24:55Z</time>
      </trkpt>
      <trkpt lat="49.13571" lon="0.13352">
        <ele>169.1</ele>
        <time>2024-03-03T08:24:56Z</time>
      </trkpt>
      <trkpt lat="49.1357" lon="0.13358">
        <ele>169.1</ele>
        <time>2024-03-03T08:24:57Z</time>
      </trkpt>
      <trkpt lat="49.13568" lon="0.13364">
        <ele>169.2</ele>
        <time>2024-03-03T08:24:58Z</time>
      </trkpt>
      <trkpt lat="49.13565" lon="0.13369">
        <ele>169.2</ele>
        <time>2024-03-03T08:24:59Z</time>
      </trkpt>
      <trkpt lat="49.13561" lon="0.13373">
        <ele>169.2</ele>
        <time>2024-03-03T08:25:00Z</time>
      </trkpt>
      <trkpt lat="49.13556" lon="0.13376">
        <ele>169.2</ele>
        <time>2024-03-03T08:25:01Z</time>
      </trkpt>
      <trkpt lat="49.1355" lon="0.13378">
        <ele>169.2</ele>
        <time>2024-03-03T08:25:02Z</time>
      </trkpt>
      <trkpt lat="49.13545" lon="0.13381">
        <ele>169.1</ele>
        <time>2024-03-03T08:25:03Z</time>
      </trkpt>
      <trkpt lat="49.13541" lon="0.13386">
        <ele>169.1</ele>
        <time>2024-03-03T08:25:04Z</time>
      </trkpt>
      <trkpt lat="49.13537" lon="0.13393">
        <ele>169.1</ele>
        <time>2024-03-03T08:25:05Z</time>
      </trkpt>
      <trkpt lat="49.13534" lon="0.13401">
        <ele>169</ele>
        <time>2024-03-03T08:25:06Z</time>
      </trkpt>
      <trkpt lat="49.13531" lon="0.1341">
        <ele>169</ele>
        <time>2024-03-03T08:25:07Z</time>
      </trkpt>
      <trkpt lat="49.13529" lon="0.13419">
        <ele>169</ele>
        <time>2024-03-03T08:25:08Z</time>
      </trkpt>
      <trkpt lat="49.13526" lon="0.13427">
        <ele>169</ele>
        <time>2024-03-03T08:25:09Z</time>
      </trkpt>
      <trkpt lat="49.13524" lon="0.13436">
        <ele>169</ele>
        <time>2024-03-03T08:25:10Z</time>
      </trkpt>
      <trkpt lat="49.13521" lon="0.13445">
        <ele>168.9</ele>
        <time>2024-03-03T08:25:11Z</time>
      </trkpt>
      <trkpt lat="49.13518" lon="0.13453">
        <ele>168.9</ele>
        <time>2024-03-03T08:25:12Z</time>
      </trkpt>
      <trkpt lat="49.13514" lon="0.13462">
        <ele>168.9</ele>
        <time>2024-03-03T08:25:13Z</time>
      </trkpt>
      <trkpt lat="49.13511" lon="0.1347">
        <ele>168.9</ele>
        <time>2024-03-03T08:25:14Z</time>
      </trkpt>
      <trkpt lat="49.13507" lon="0.13479">
        <ele>168.8</ele>
        <time>2024-03-03T08:25:15Z</time>
      </trkpt>
      <trkpt lat="49.13504" lon="0.13488">
        <ele>168.8</ele>
        <time>2024-03-03T08:25:16Z</time>
      </trkpt>
      <trkpt lat="49.13501" lon="0.13497">
        <ele>168.8</ele>
        <time>2024-03-03T08:25:17Z</time>
      </trkpt>
      <trkpt lat="49.13498" lon="0.13506">
        <ele>168.7</ele>
        <time>2024-03-03T08:25:18Z</time>
      </trkpt>
      <trkpt lat="49.13495" lon="0.13514">
        <ele>168.6</ele>
        <time>2024-03-03T08:25:19Z</time>
      </trkpt>
      <trkpt lat="49.13491" lon="0.13522">
        <ele>168.6</ele>
        <time>2024-03-03T08:25:20Z</time>
      </trkpt>
      <trkpt lat="49.13489" lon="0.13531">
        <ele>168.5</ele>
        <time>2024-03-03T08:25:21Z</time>
      </trkpt>
      <trkpt lat="49.13485" lon="0.13539">
        <ele>168.4</ele>
        <time>2024-03-03T08:25:22Z</time>
      </trkpt>
      <trkpt lat="49.13482" lon="0.13547">
        <ele>168.3</ele>
        <time>2024-03-03T08:25:23Z</time>
      </trkpt>
      <trkpt lat="49.13479" lon="0.13556">
        <ele>168.2</ele>
        <time>2024-03-03T08:25:24Z</time>
      </trkpt>
      <trkpt lat="49.13476" lon="0.13564">
        <ele>168</ele>
        <time>2024-03-03T08:25:25Z</time>
      </trkpt>
      <trkpt lat="49.13473" lon="0.13572">
        <ele>167.8</ele>
        <time>2024-03-03T08:25:26Z</time>
      </trkpt>
      <trkpt lat="49.1347" lon="0.13578">
        <ele>167.6</ele>
        <time>2024-03-03T08:25:27Z</time>
      </trkpt>
      <trkpt lat="49.13468" lon="0.13584">
        <ele>167.4</ele>
        <time>2024-03-03T08:25:28Z</time>
      </trkpt>
      <trkpt lat="49.13465" lon="0.13591">
        <ele>167.1</ele>
        <time>2024-03-03T08:25:29Z</time>
      </trkpt>
      <trkpt lat="49.13463" lon="0.13595">
        <ele>166.9</ele>
        <time>2024-03-03T08:25:30Z</time>
      </trkpt>
      <trkpt lat="49.13461" lon="0.13599">
        <ele>166.7</ele>
        <time>2024-03-03T08:25:31Z</time>
      </trkpt>
      <trkpt lat="49.1346" lon="0.13603">
        <ele>166.6</ele>
        <time>2024-03-03T08:25:32Z</time>
      </trkpt>
      <trkpt lat="49.13458" lon="0.13607">
        <ele>166.3</ele>
        <time>2024-03-03T08:25:33Z</time>
      </trkpt>
      <trkpt lat="49.13456" lon="0.13611">
        <ele>166.1</ele>
        <time>2024-03-03T08:25:34Z</time>
      </trkpt>
      <trkpt lat="49.13454" lon="0.13615">
        <ele>165.9</ele>
        <time>2024-03-03T08:25:35Z</time>
      </trkpt>
      <trkpt lat="49.13452" lon="0.13619">
        <ele>165.7</ele>
        <time>2024-03-03T08:25:36Z</time>
      </trkpt>
      <trkpt lat="49.1345" lon="0.13623">
        <ele>165.5</ele>
        <time>2024-03-03T08:25:37Z</time>
      </trkpt>
      <trkpt lat="49.13447" lon="0.13626">
        <ele>165.3</ele>
        <time>2024-03-03T08:25:38Z</time>
      </trkpt>
      <trkpt lat="49.13445" lon="0.1363">
        <ele>165.1</ele>
        <time>2024-03-03T08:25:39Z</time>
      </trkpt>
      <trkpt lat="49.13444" lon="0.13632">
        <ele>165</ele>
        <time>2024-03-03T08:25:40Z</time>
      </trkpt>
      <trkpt lat="49.13443" lon="0.13636">
        <ele>164.8</ele>
        <time>2024-03-03T08:25:41Z</time>
      </trkpt>
      <trkpt lat="49.13443" lon="0.13638">
        <ele>164.7</ele>
        <time>2024-03-03T08:25:42Z</time>
      </trkpt>
      <trkpt lat="49.13441" lon="0.13643">
        <ele>164.5</ele>
        <time>2024-03-03T08:25:43Z</time>
      </trkpt>
      <trkpt lat="49.1344" lon="0.13645">
        <ele>164.4</ele>
        <time>2024-03-03T08:25:44Z</time>
      </trkpt>
      <trkpt lat="49.13438" lon="0.13649">
        <ele>164.1</ele>
        <time>2024-03-03T08:25:45Z</time>
      </trkpt>
      <trkpt lat="49.13435" lon="0.13653">
        <ele>163.9</ele>
        <time>2024-03-03T08:25:46Z</time>
      </trkpt>
      <trkpt lat="49.13433" lon="0.13657">
        <ele>163.6</ele>
        <time>2024-03-03T08:25:47Z</time>
      </trkpt>
      <trkpt lat="49.13432" lon="0.1366">
        <ele>163.4</ele>
        <time>2024-03-03T08:25:48Z</time>
      </trkpt>
      <trkpt lat="49.13429" lon="0.13664">
        <ele>163.1</ele>
        <time>2024-03-03T08:25:49Z</time>
      </trkpt>
      <trkpt lat="49.13428" lon="0.13666">
        <ele>163.1</ele>
        <time>2024-03-03T08:25:50Z</time>
      </trkpt>
      <trkpt lat="49.13426" lon="0.13669">
        <ele>162.8</ele>
        <time>2024-03-03T08:25:51Z</time>
      </trkpt>
      <trkpt lat="49.13425" lon="0.13671">
        <ele>162.7</ele>
        <time>2024-03-03T08:25:52Z</time>
      </trkpt>
      <trkpt lat="49.13423" lon="0.13675">
        <ele>162.5</ele>
        <time>2024-03-03T08:25:53Z</time>
      </trkpt>
      <trkpt lat="49.13423" lon="0.13677">
        <ele>162.4</ele>
        <time>2024-03-03T08:25:54Z</time>
      </trkpt>
      <trkpt lat="49.13421" lon="0.13682">
        <ele>162.1</ele>
        <time>2024-03-03T08:25:55Z</time>
      </trkpt>
      <trkpt lat="49.13421" lon="0.13684">
        <ele>162</ele>
        <time>2024-03-03T08:25:56Z</time>
      </trkpt>
      <trkpt lat="49.13418" lon="0.13689">
        <ele>161.7</ele>
        <time>2024-03-03T08:25:57Z</time>
      </trkpt>
      <trkpt lat="49.13416" lon="0.13695">
        <ele>161.4</ele>
        <time>2024-03-03T08:25:58Z</time>
      </trkpt>
      <trkpt lat="49.13413" lon="0.13701">
        <ele>161</ele>
        <time>2024-03-03T08:25:59Z</time>
      </trkpt>
      <trkpt lat="49.13409" lon="0.13707">
        <ele>160.8</ele>
        <time>2024-03-03T08:26:00Z</time>
      </trkpt>
      <trkpt lat="49.13406" lon="0.13713">
        <ele>160.5</ele>
        <time>2024-03-03T08:26:01Z</time>
      </trkpt>
      <trkpt lat="49.13403" lon="0.13719">
        <ele>160.3</ele>
        <time>2024-03-03T08:26:02Z</time>
      </trkpt>
      <trkpt lat="49.13399" lon="0.13729">
        <ele>160.1</ele>
        <time>2024-03-03T08:26:03Z</time>
      </trkpt>
      <trkpt lat="49.13396" lon="0.13738">
        <ele>159.9</ele>
        <time>2024-03-03T08:26:04Z</time>
      </trkpt>
      <trkpt lat="49.13394" lon="0.13747">
        <ele>159.7</ele>
        <time>2024-03-03T08:26:05Z</time>
      </trkpt>
      <trkpt lat="49.13392" lon="0.13757">
        <ele>159.5</ele>
        <time>2024-03-03T08:26:06Z</time>
      </trkpt>
      <trkpt lat="49.13389" lon="0.13767">
        <ele>159.4</ele>
        <time>2024-03-03T08:26:07Z</time>
      </trkpt>
      <trkpt lat="49.13386" lon="0.13778">
        <ele>159.3</ele>
        <time>2024-03-03T08:26:08Z</time>
      </trkpt>
      <trkpt lat="49.13381" lon="0.1379">
        <ele>159.2</ele>
        <time>2024-03-03T08:26:09Z</time>
      </trkpt>
      <trkpt lat="49.13377" lon="0.13801">
        <ele>159.2</ele>
        <time>2024-03-03T08:26:10Z</time>
      </trkpt>
      <trkpt lat="49.13373" lon="0.13811">
        <ele>159.2</ele>
        <time>2024-03-03T08:26:11Z</time>
      </trkpt>
      <trkpt lat="49.1337" lon="0.1382">
        <ele>159.3</ele>
        <time>2024-03-03T08:26:12Z</time>
      </trkpt>
      <trkpt lat="49.13367" lon="0.13829">
        <ele>159.4</ele>
        <time>2024-03-03T08:26:13Z</time>
      </trkpt>
      <trkpt lat="49.13365" lon="0.13837">
        <ele>159.5</ele>
        <time>2024-03-03T08:26:14Z</time>
      </trkpt>
      <trkpt lat="49.13362" lon="0.13846">
        <ele>159.7</ele>
        <time>2024-03-03T08:26:15Z</time>
      </trkpt>
      <trkpt lat="49.1336" lon="0.13854">
        <ele>159.9</ele>
        <time>2024-03-03T08:26:16Z</time>
      </trkpt>
      <trkpt lat="49.13357" lon="0.13861">
        <ele>160.1</ele>
        <time>2024-03-03T08:26:17Z</time>
      </trkpt>
      <trkpt lat="49.13354" lon="0.13868">
        <ele>160.4</ele>
        <time>2024-03-03T08:26:18Z</time>
      </trkpt>
      <trkpt lat="49.13352" lon="0.13876">
        <ele>160.6</ele>
        <time>2024-03-03T08:26:19Z</time>
      </trkpt>
      <trkpt lat="49.1335" lon="0.13884">
        <ele>160.9</ele>
        <time>2024-03-03T08:26:20Z</time>
      </trkpt>
      <trkpt lat="49.13348" lon="0.13891">
        <ele>161.2</ele>
        <time>2024-03-03T08:26:21Z</time>
      </trkpt>
      <trkpt lat="49.13346" lon="0.13897">
        <ele>161.4</ele>
        <time>2024-03-03T08:26:22Z</time>
      </trkpt>
      <trkpt lat="49.13345" lon="0.13903">
        <ele>161.7</ele>
        <time>2024-03-03T08:26:23Z</time>
      </trkpt>
      <trkpt lat="49.13343" lon="0.13909">
        <ele>161.9</ele>
        <time>2024-03-03T08:26:24Z</time>
      </trkpt>
      <trkpt lat="49.13341" lon="0.13914">
        <ele>162.2</ele>
        <time>2024-03-03T08:26:25Z</time>
      </trkpt>
      <trkpt lat="49.1334" lon="0.13919">
        <ele>162.4</ele>
        <time>2024-03-03T08:26:26Z</time>
      </trkpt>
      <trkpt lat="49.13339" lon="0.13923">
        <ele>162.7</ele>
        <time>2024-03-03T08:26:27Z</time>
      </trkpt>
      <trkpt lat="49.13337" lon="0.13928">
        <ele>162.9</ele>
        <time>2024-03-03T08:26:28Z</time>
      </trkpt>
      <trkpt lat="49.13336" lon="0.13933">
        <ele>163.2</ele>
        <time>2024-03-03T08:26:29Z</time>
      </trkpt>
      <trkpt lat="49.13335" lon="0.13939">
        <ele>163.6</ele>
        <time>2024-03-03T08:26:30Z</time>
      </trkpt>
      <trkpt lat="49.13333" lon="0.13945">
        <ele>163.9</ele>
        <time>2024-03-03T08:26:31Z</time>
      </trkpt>
      <trkpt lat="49.13332" lon="0.1395">
        <ele>164.2</ele>
        <time>2024-03-03T08:26:32Z</time>
      </trkpt>
      <trkpt lat="49.13331" lon="0.13955">
        <ele>164.5</ele>
        <time>2024-03-03T08:26:33Z</time>
      </trkpt>
      <trkpt lat="49.1333" lon="0.1396">
        <ele>164.9</ele>
        <time>2024-03-03T08:26:34Z</time>
      </trkpt>
      <trkpt lat="49.13328" lon="0.13964">
        <ele>165.2</ele>
        <time>2024-03-03T08:26:35Z</time>
      </trkpt>
      <trkpt lat="49.13326" lon="0.1397">
        <ele>165.6</ele>
        <time>2024-03-03T08:26:36Z</time>
      </trkpt>
      <trkpt lat="49.13324" lon="0.13975">
        <ele>166</ele>
        <time>2024-03-03T08:26:37Z</time>
      </trkpt>
      <trkpt lat="49.13321" lon="0.1398">
        <ele>166.3</ele>
        <time>2024-03-03T08:26:38Z</time>
      </trkpt>
      <trkpt lat="49.13319" lon="0.13984">
        <ele>166.7</ele>
        <time>2024-03-03T08:26:39Z</time>
      </trkpt>
      <trkpt lat="49.13317" lon="0.13989">
        <ele>167</ele>
        <time>2024-03-03T08:26:40Z</time>
      </trkpt>
      <trkpt lat="49.13315" lon="0.13995">
        <ele>167.4</ele>
        <time>2024-03-03T08:26:41Z</time>
      </trkpt>
      <trkpt lat="49.13312" lon="0.14">
        <ele>167.7</ele>
        <time>2024-03-03T08:26:42Z</time>
      </trkpt>
      <trkpt lat="49.1331" lon="0.14006">
        <ele>168.1</ele>
        <time>2024-03-03T08:26:43Z</time>
      </trkpt>
      <trkpt lat="49.13308" lon="0.14012">
        <ele>168.5</ele>
        <time>2024-03-03T08:26:44Z</time>
      </trkpt>
      <trkpt lat="49.13304" lon="0.14017">
        <ele>168.8</ele>
        <time>2024-03-03T08:26:45Z</time>
      </trkpt>
      <trkpt lat="49.133" lon="0.14023">
        <ele>169.2</ele>
        <time>2024-03-03T08:26:46Z</time>
      </trkpt>
      <trkpt lat="49.13298" lon="0.14031">
        <ele>169.5</ele>
        <time>2024-03-03T08:26:47Z</time>
      </trkpt>
      <trkpt lat="49.13295" lon="0.1404">
        <ele>169.8</ele>
        <time>2024-03-03T08:26:48Z</time>
      </trkpt>
      <trkpt lat="49.13292" lon="0.14047">
        <ele>170.1</ele>
        <time>2024-03-03T08:26:49Z</time>
      </trkpt>
      <trkpt lat="49.13289" lon="0.14054">
        <ele>170.3</ele>
        <time>2024-03-03T08:26:50Z</time>
      </trkpt>
      <trkpt lat="49.13286" lon="0.14062">
        <ele>170.5</ele>
        <time>2024-03-03T08:26:51Z</time>
      </trkpt>
      <trkpt lat="49.13282" lon="0.1407">
        <ele>170.7</ele>
        <time>2024-03-03T08:26:52Z</time>
      </trkpt>
      <trkpt lat="49.13278" lon="0.14077">
        <ele>170.9</ele>
        <time>2024-03-03T08:26:53Z</time>
      </trkpt>
      <trkpt lat="49.13273" lon="0.14085">
        <ele>171</ele>
        <time>2024-03-03T08:26:54Z</time>
      </trkpt>
      <trkpt lat="49.13268" lon="0.14094">
        <ele>171.1</ele>
        <time>2024-03-03T08:26:55Z</time>
      </trkpt>
      <trkpt lat="49.13263" lon="0.14102">
        <ele>171.1</ele>
        <time>2024-03-03T08:26:56Z</time>
      </trkpt>
      <trkpt lat="49.13258" lon="0.1411">
        <ele>171.1</ele>
        <time>2024-03-03T08:26:57Z</time>
      </trkpt>
      <trkpt lat="49.13253" lon="0.14118">
        <ele>171</ele>
        <time>2024-03-03T08:26:58Z</time>
      </trkpt>
      <trkpt lat="49.13249" lon="0.14126">
        <ele>171</ele>
        <time>2024-03-03T08:26:59Z</time>
      </trkpt>
      <trkpt lat="49.13245" lon="0.14134">
        <ele>170.9</ele>
        <time>2024-03-03T08:27:00Z</time>
      </trkpt>
      <trkpt lat="49.13241" lon="0.14141">
        <ele>170.8</ele>
        <time>2024-03-03T08:27:01Z</time>
      </trkpt>
      <trkpt lat="49.13238" lon="0.14148">
        <ele>170.7</ele>
        <time>2024-03-03T08:27:02Z</time>
      </trkpt>
      <trkpt lat="49.13233" lon="0.14155">
        <ele>170.6</ele>
        <time>2024-03-03T08:27:03Z</time>
      </trkpt>
      <trkpt lat="49.13229" lon="0.14161">
        <ele>170.5</ele>
        <time>2024-03-03T08:27:04Z</time>
      </trkpt>
      <trkpt lat="49.13224" lon="0.14168">
        <ele>170.4</ele>
        <time>2024-03-03T08:27:05Z</time>
      </trkpt>
      <trkpt lat="49.13219" lon="0.14176">
        <ele>170.3</ele>
        <time>2024-03-03T08:27:06Z</time>
      </trkpt>
      <trkpt lat="49.13214" lon="0.14184">
        <ele>170.1</ele>
        <time>2024-03-03T08:27:07Z</time>
      </trkpt>
      <trkpt lat="49.13209" lon="0.14191">
        <ele>169.9</ele>
        <time>2024-03-03T08:27:08Z</time>
      </trkpt>
      <trkpt lat="49.13204" lon="0.14198">
        <ele>169.7</ele>
        <time>2024-03-03T08:27:09Z</time>
      </trkpt>
      <trkpt lat="49.13198" lon="0.14204">
        <ele>169.6</ele>
        <time>2024-03-03T08:27:10Z</time>
      </trkpt>
      <trkpt lat="49.13192" lon="0.14209">
        <ele>169.5</ele>
        <time>2024-03-03T08:27:11Z</time>
      </trkpt>
      <trkpt lat="49.13185" lon="0.14211">
        <ele>169.4</ele>
        <time>2024-03-03T08:27:12Z</time>
      </trkpt>
      <trkpt lat="49.13178" lon="0.1421">
        <ele>169.4</ele>
        <time>2024-03-03T08:27:13Z</time>
      </trkpt>
      <trkpt lat="49.13173" lon="0.14209">
        <ele>169.4</ele>
        <time>2024-03-03T08:27:14Z</time>
      </trkpt>
      <trkpt lat="49.13169" lon="0.14207">
        <ele>169.4</ele>
        <time>2024-03-03T08:27:15Z</time>
      </trkpt>
      <trkpt lat="49.13166" lon="0.14206">
        <ele>169.4</ele>
        <time>2024-03-03T08:27:16Z</time>
      </trkpt>
      <trkpt lat="49.13165" lon="0.14206">
        <ele>169.4</ele>
        <time>2024-03-03T08:27:17Z</time>
      </trkpt>
      <trkpt lat="49.13163" lon="0.14205">
        <ele>169.5</ele>
        <time>2024-03-03T08:27:18Z</time>
      </trkpt>
      <trkpt lat="49.13162" lon="0.14206">
        <ele>169.5</ele>
        <time>2024-03-03T08:27:19Z</time>
      </trkpt>
      <trkpt lat="49.1316" lon="0.14207">
        <ele>169.5</ele>
        <time>2024-03-03T08:27:20Z</time>
      </trkpt>
      <trkpt lat="49.13159" lon="0.14208">
        <ele>169.5</ele>
        <time>2024-03-03T08:27:21Z</time>
      </trkpt>
      <trkpt lat="49.13158" lon="0.1421">
        <ele>169.5</ele>
        <time>2024-03-03T08:27:22Z</time>
      </trkpt>
      <trkpt lat="49.13157" lon="0.14212">
        <ele>169.5</ele>
        <time>2024-03-03T08:27:23Z</time>
      </trkpt>
      <trkpt lat="49.13155" lon="0.14215">
        <ele>169.5</ele>
        <time>2024-03-03T08:27:24Z</time>
      </trkpt>
      <trkpt lat="49.13154" lon="0.14216">
        <ele>169.5</ele>
        <time>2024-03-03T08:27:25Z</time>
      </trkpt>
      <trkpt lat="49.13154" lon="0.14221">
        <ele>169.5</ele>
        <time>2024-03-03T08:27:26Z</time>
      </trkpt>
      <trkpt lat="49.13153" lon="0.14223">
        <ele>169.5</ele>
        <time>2024-03-03T08:27:27Z</time>
      </trkpt>
      <trkpt lat="49.13152" lon="0.14228">
        <ele>169.5</ele>
        <time>2024-03-03T08:27:28Z</time>
      </trkpt>
      <trkpt lat="49.13152" lon="0.14229">
        <ele>169.5</ele>
        <time>2024-03-03T08:27:29Z</time>
      </trkpt>
      <trkpt lat="49.1315" lon="0.14234">
        <ele>169.5</ele>
        <time>2024-03-03T08:27:30Z</time>
      </trkpt>
      <trkpt lat="49.1315" lon="0.14236">
        <ele>169.5</ele>
        <time>2024-03-03T08:27:31Z</time>
      </trkpt>
      <trkpt lat="49.13149" lon="0.1424">
        <ele>169.5</ele>
        <time>2024-03-03T08:27:32Z</time>
      </trkpt>
      <trkpt lat="49.13148" lon="0.14244">
        <ele>169.5</ele>
        <time>2024-03-03T08:27:33Z</time>
      </trkpt>
      <trkpt lat="49.13147" lon="0.14248">
        <ele>169.5</ele>
        <time>2024-03-03T08:27:34Z</time>
      </trkpt>
      <trkpt lat="49.13147" lon="0.14253">
        <ele>169.6</ele>
        <time>2024-03-03T08:27:35Z</time>
      </trkpt>
      <trkpt lat="49.13147" lon="0.14258">
        <ele>169.6</ele>
        <time>2024-03-03T08:27:36Z</time>
      </trkpt>
      <trkpt lat="49.13148" lon="0.1426">
        <ele>169.7</ele>
        <time>2024-03-03T08:27:37Z</time>
      </trkpt>
      <trkpt lat="49.13149" lon="0.14264">
        <ele>169.7</ele>
        <time>2024-03-03T08:27:38Z</time>
      </trkpt>
      <trkpt lat="49.1315" lon="0.14268">
        <ele>169.8</ele>
        <time>2024-03-03T08:27:39Z</time>
      </trkpt>
      <trkpt lat="49.13152" lon="0.14273">
        <ele>170</ele>
        <time>2024-03-03T08:27:40Z</time>
      </trkpt>
      <trkpt lat="49.13153" lon="0.14275">
        <ele>170.1</ele>
        <time>2024-03-03T08:27:41Z</time>
      </trkpt>
      <trkpt lat="49.13154" lon="0.1428">
        <ele>170.2</ele>
        <time>2024-03-03T08:27:42Z</time>
      </trkpt>
      <trkpt lat="49.13155" lon="0.14284">
        <ele>170.4</ele>
        <time>2024-03-03T08:27:43Z</time>
      </trkpt>
      <trkpt lat="49.13157" lon="0.14287">
        <ele>170.6</ele>
        <time>2024-03-03T08:27:44Z</time>
      </trkpt>
      <trkpt lat="49.13159" lon="0.14291">
        <ele>170.8</ele>
        <time>2024-03-03T08:27:45Z</time>
      </trkpt>
      <trkpt lat="49.13162" lon="0.14295">
        <ele>171.1</ele>
        <time>2024-03-03T08:27:46Z</time>
      </trkpt>
      <trkpt lat="49.13163" lon="0.14296">
        <ele>171.2</ele>
        <time>2024-03-03T08:27:47Z</time>
      </trkpt>
      <trkpt lat="49.13165" lon="0.14298">
        <ele>171.4</ele>
        <time>2024-03-03T08:27:48Z</time>
      </trkpt>
      <trkpt lat="49.13169" lon="0.14301">
        <ele>171.8</ele>
        <time>2024-03-03T08:27:49Z</time>
      </trkpt>
      <trkpt lat="49.13174" lon="0.14305">
        <ele>172.2</ele>
        <time>2024-03-03T08:27:50Z</time>
      </trkpt>
      <trkpt lat="49.13178" lon="0.14311">
        <ele>172.5</ele>
        <time>2024-03-03T08:27:51Z</time>
      </trkpt>
      <trkpt lat="49.13183" lon="0.14318">
        <ele>172.8</ele>
        <time>2024-03-03T08:27:52Z</time>
      </trkpt>
      <trkpt lat="49.13189" lon="0.14326">
        <ele>173</ele>
        <time>2024-03-03T08:27:53Z</time>
      </trkpt>
      <trkpt lat="49.13193" lon="0.14335">
        <ele>173</ele>
        <time>2024-03-03T08:27:54Z</time>
      </trkpt>
      <trkpt lat="49.13195" lon="0.14343">
        <ele>173</ele>
        <time>2024-03-03T08:27:55Z</time>
      </trkpt>
      <trkpt lat="49.13197" lon="0.14351">
        <ele>173.1</ele>
        <time>2024-03-03T08:27:56Z</time>
      </trkpt>
      <trkpt lat="49.13199" lon="0.1436">
        <ele>173.1</ele>
        <time>2024-03-03T08:27:57Z</time>
      </trkpt>
      <trkpt lat="49.132" lon="0.14368">
        <ele>173.1</ele>
        <time>2024-03-03T08:27:58Z</time>
      </trkpt>
      <trkpt lat="49.13202" lon="0.14377">
        <ele>173.1</ele>
        <time>2024-03-03T08:27:59Z</time>
      </trkpt>
      <trkpt lat="49.13204" lon="0.14387">
        <ele>173.1</ele>
        <time>2024-03-03T08:28:00Z</time>
      </trkpt>
      <trkpt lat="49.13205" lon="0.14397">
        <ele>173</ele>
        <time>2024-03-03T08:28:01Z</time>
      </trkpt>
      <trkpt lat="49.13207" lon="0.14407">
        <ele>173</ele>
        <time>2024-03-03T08:28:02Z</time>
      </trkpt>
      <trkpt lat="49.13208" lon="0.14417">
        <ele>173.1</ele>
        <time>2024-03-03T08:28:03Z</time>
      </trkpt>
      <trkpt lat="49.13209" lon="0.14425">
        <ele>173.1</ele>
        <time>2024-03-03T08:28:04Z</time>
      </trkpt>
      <trkpt lat="49.13209" lon="0.14433">
        <ele>173.3</ele>
        <time>2024-03-03T08:28:05Z</time>
      </trkpt>
      <trkpt lat="49.1321" lon="0.1444">
        <ele>173.4</ele>
        <time>2024-03-03T08:28:06Z</time>
      </trkpt>
      <trkpt lat="49.1321" lon="0.14448">
        <ele>173.5</ele>
        <time>2024-03-03T08:28:07Z</time>
      </trkpt>
      <trkpt lat="49.13211" lon="0.14456">
        <ele>173.7</ele>
        <time>2024-03-03T08:28:08Z</time>
      </trkpt>
      <trkpt lat="49.13211" lon="0.14463">
        <ele>173.8</ele>
        <time>2024-03-03T08:28:09Z</time>
      </trkpt>
      <trkpt lat="49.13212" lon="0.14472">
        <ele>174</ele>
        <time>2024-03-03T08:28:10Z</time>
      </trkpt>
      <trkpt lat="49.13213" lon="0.14479">
        <ele>174.1</ele>
        <time>2024-03-03T08:28:11Z</time>
      </trkpt>
      <trkpt lat="49.13213" lon="0.14486">
        <ele>174.1</ele>
        <time>2024-03-03T08:28:12Z</time>
      </trkpt>
      <trkpt lat="49.13213" lon="0.14494">
        <ele>174.2</ele>
        <time>2024-03-03T08:28:13Z</time>
      </trkpt>
      <trkpt lat="49.13212" lon="0.14503">
        <ele>174.3</ele>
        <time>2024-03-03T08:28:14Z</time>
      </trkpt>
      <trkpt lat="49.13212" lon="0.14512">
        <ele>174.3</ele>
        <time>2024-03-03T08:28:15Z</time>
      </trkpt>
      <trkpt lat="49.13212" lon="0.14522">
        <ele>174.4</ele>
        <time>2024-03-03T08:28:16Z</time>
      </trkpt>
      <trkpt lat="49.13211" lon="0.1453">
        <ele>174.5</ele>
        <time>2024-03-03T08:28:17Z</time>
      </trkpt>
      <trkpt lat="49.13211" lon="0.14539">
        <ele>174.6</ele>
        <time>2024-03-03T08:28:18Z</time>
      </trkpt>
      <trkpt lat="49.13211" lon="0.14548">
        <ele>174.7</ele>
        <time>2024-03-03T08:28:19Z</time>
      </trkpt>
      <trkpt lat="49.13211" lon="0.14557">
        <ele>174.8</ele>
        <time>2024-03-03T08:28:20Z</time>
      </trkpt>
      <trkpt lat="49.1321" lon="0.14565">
        <ele>175</ele>
        <time>2024-03-03T08:28:21Z</time>
      </trkpt>
      <trkpt lat="49.13211" lon="0.14574">
        <ele>175.1</ele>
        <time>2024-03-03T08:28:22Z</time>
      </trkpt>
      <trkpt lat="49.13211" lon="0.14583">
        <ele>175.3</ele>
        <time>2024-03-03T08:28:23Z</time>
      </trkpt>
      <trkpt lat="49.13211" lon="0.14592">
        <ele>175.4</ele>
        <time>2024-03-03T08:28:24Z</time>
      </trkpt>
      <trkpt lat="49.13211" lon="0.14602">
        <ele>175.6</ele>
        <time>2024-03-03T08:28:25Z</time>
      </trkpt>
      <trkpt lat="49.13211" lon="0.14611">
        <ele>175.7</ele>
        <time>2024-03-03T08:28:26Z</time>
      </trkpt>
      <trkpt lat="49.13212" lon="0.1462">
        <ele>175.9</ele>
        <time>2024-03-03T08:28:27Z</time>
      </trkpt>
      <trkpt lat="49.13212" lon="0.14629">
        <ele>176</ele>
        <time>2024-03-03T08:28:28Z</time>
      </trkpt>
      <trkpt lat="49.13213" lon="0.14638">
        <ele>176.1</ele>
        <time>2024-03-03T08:28:29Z</time>
      </trkpt>
      <trkpt lat="49.13213" lon="0.14647">
        <ele>176.3</ele>
        <time>2024-03-03T08:28:30Z</time>
      </trkpt>
      <trkpt lat="49.13213" lon="0.14656">
        <ele>176.4</ele>
        <time>2024-03-03T08:28:31Z</time>
      </trkpt>
      <trkpt lat="49.13213" lon="0.14664">
        <ele>176.5</ele>
        <time>2024-03-03T08:28:32Z</time>
      </trkpt>
      <trkpt lat="49.13213" lon="0.1467">
        <ele>176.5</ele>
        <time>2024-03-03T08:28:33Z</time>
      </trkpt>
      <trkpt lat="49.13214" lon="0.14675">
        <ele>176.6</ele>
        <time>2024-03-03T08:28:34Z</time>
      </trkpt>
      <trkpt lat="49.13214" lon="0.14681">
        <ele>176.7</ele>
        <time>2024-03-03T08:28:35Z</time>
      </trkpt>
      <trkpt lat="49.13214" lon="0.14687">
        <ele>176.7</ele>
        <time>2024-03-03T08:28:36Z</time>
      </trkpt>
      <trkpt lat="49.13214" lon="0.14693">
        <ele>176.8</ele>
        <time>2024-03-03T08:28:37Z</time>
      </trkpt>
      <trkpt lat="49.13213" lon="0.14702">
        <ele>176.8</ele>
        <time>2024-03-03T08:28:38Z</time>
      </trkpt>
      <trkpt lat="49.13213" lon="0.14712">
        <ele>176.9</ele>
        <time>2024-03-03T08:28:39Z</time>
      </trkpt>
      <trkpt lat="49.13213" lon="0.14721">
        <ele>176.9</ele>
        <time>2024-03-03T08:28:40Z</time>
      </trkpt>
      <trkpt lat="49.13214" lon="0.14731">
        <ele>176.8</ele>
        <time>2024-03-03T08:28:41Z</time>
      </trkpt>
      <trkpt lat="49.13214" lon="0.1474">
        <ele>176.8</ele>
        <time>2024-03-03T08:28:42Z</time>
      </trkpt>
      <trkpt lat="49.13214" lon="0.14749">
        <ele>176.7</ele>
        <time>2024-03-03T08:28:43Z</time>
      </trkpt>
      <trkpt lat="49.13214" lon="0.14757">
        <ele>176.7</ele>
        <time>2024-03-03T08:28:44Z</time>
      </trkpt>
      <trkpt lat="49.13214" lon="0.14766">
        <ele>176.7</ele>
        <time>2024-03-03T08:28:45Z</time>
      </trkpt>
      <trkpt lat="49.13214" lon="0.14775">
        <ele>176.6</ele>
        <time>2024-03-03T08:28:46Z</time>
      </trkpt>
      <trkpt lat="49.13214" lon="0.14783">
        <ele>176.6</ele>
        <time>2024-03-03T08:28:47Z</time>
      </trkpt>
      <trkpt lat="49.13213" lon="0.14791">
        <ele>176.6</ele>
        <time>2024-03-03T08:28:48Z</time>
      </trkpt>
      <trkpt lat="49.13214" lon="0.14799">
        <ele>176.6</ele>
        <time>2024-03-03T08:28:49Z</time>
      </trkpt>
      <trkpt lat="49.13214" lon="0.14803">
        <ele>176.6</ele>
        <time>2024-03-03T08:28:50Z</time>
      </trkpt>
      <trkpt lat="49.13214" lon="0.14808">
        <ele>176.6</ele>
        <time>2024-03-03T08:28:51Z</time>
      </trkpt>
      <trkpt lat="49.13215" lon="0.1481">
        <ele>176.6</ele>
        <time>2024-03-03T08:28:52Z</time>
      </trkpt>
      <trkpt lat="49.13214" lon="0.14812">
        <ele>176.6</ele>
        <time>2024-03-03T08:28:53Z</time>
      </trkpt>
      <trkpt lat="49.13214" lon="0.14814">
        <ele>176.7</ele>
        <time>2024-03-03T08:28:54Z</time>
      </trkpt>
      <trkpt lat="49.13213" lon="0.14818">
        <ele>176.7</ele>
        <time>2024-03-03T08:28:55Z</time>
      </trkpt>
      <trkpt lat="49.13212" lon="0.14819">
        <ele>176.6</ele>
        <time>2024-03-03T08:28:56Z</time>
      </trkpt>
      <trkpt lat="49.13208" lon="0.14821">
        <ele>176.6</ele>
        <time>2024-03-03T08:28:57Z</time>
      </trkpt>
      <trkpt lat="49.13207" lon="0.14821">
        <ele>176.6</ele>
        <time>2024-03-03T08:28:58Z</time>
      </trkpt>
      <trkpt lat="49.13203" lon="0.14822">
        <ele>176.5</ele>
        <time>2024-03-03T08:28:59Z</time>
      </trkpt>
      <trkpt lat="49.13199" lon="0.14823">
        <ele>176.5</ele>
        <time>2024-03-03T08:29:00Z</time>
      </trkpt>
      <trkpt lat="49.13194" lon="0.14824">
        <ele>176.4</ele>
        <time>2024-03-03T08:29:01Z</time>
      </trkpt>
      <trkpt lat="49.13189" lon="0.14825">
        <ele>176.4</ele>
        <time>2024-03-03T08:29:02Z</time>
      </trkpt>
      <trkpt lat="49.13184" lon="0.14824">
        <ele>176.4</ele>
        <time>2024-03-03T08:29:03Z</time>
      </trkpt>
      <trkpt lat="49.13179" lon="0.14824">
        <ele>176.4</ele>
        <time>2024-03-03T08:29:04Z</time>
      </trkpt>
      <trkpt lat="49.13174" lon="0.14825">
        <ele>176.4</ele>
        <time>2024-03-03T08:29:05Z</time>
      </trkpt>
      <trkpt lat="49.13169" lon="0.14825">
        <ele>176.4</ele>
        <time>2024-03-03T08:29:06Z</time>
      </trkpt>
      <trkpt lat="49.13164" lon="0.14826">
        <ele>176.3</ele>
        <time>2024-03-03T08:29:07Z</time>
      </trkpt>
      <trkpt lat="49.13158" lon="0.14826">
        <ele>176.3</ele>
        <time>2024-03-03T08:29:08Z</time>
      </trkpt>
      <trkpt lat="49.13152" lon="0.14826">
        <ele>176.3</ele>
        <time>2024-03-03T08:29:09Z</time>
      </trkpt>
      <trkpt lat="49.13147" lon="0.14824">
        <ele>176.3</ele>
        <time>2024-03-03T08:29:10Z</time>
      </trkpt>
      <trkpt lat="49.13141" lon="0.14823">
        <ele>176.2</ele>
        <time>2024-03-03T08:29:11Z</time>
      </trkpt>
      <trkpt lat="49.13136" lon="0.14822">
        <ele>176.2</ele>
        <time>2024-03-03T08:29:12Z</time>
      </trkpt>
      <trkpt lat="49.13131" lon="0.14821">
        <ele>176.2</ele>
        <time>2024-03-03T08:29:13Z</time>
      </trkpt>
      <trkpt lat="49.13125" lon="0.14821">
        <ele>176.1</ele>
        <time>2024-03-03T08:29:14Z</time>
      </trkpt>
      <trkpt lat="49.13119" lon="0.1482">
        <ele>176.1</ele>
        <time>2024-03-03T08:29:15Z</time>
      </trkpt>
      <trkpt lat="49.13113" lon="0.1482">
        <ele>176</ele>
        <time>2024-03-03T08:29:16Z</time>
      </trkpt>
      <trkpt lat="49.13106" lon="0.1482">
        <ele>176</ele>
        <time>2024-03-03T08:29:17Z</time>
      </trkpt>
      <trkpt lat="49.13099" lon="0.14819">
        <ele>175.9</ele>
        <time>2024-03-03T08:29:18Z</time>
      </trkpt>
      <trkpt lat="49.13091" lon="0.14819">
        <ele>175.9</ele>
        <time>2024-03-03T08:29:19Z</time>
      </trkpt>
      <trkpt lat="49.13085" lon="0.14819">
        <ele>175.8</ele>
        <time>2024-03-03T08:29:20Z</time>
      </trkpt>
      <trkpt lat="49.13078" lon="0.14819">
        <ele>175.8</ele>
        <time>2024-03-03T08:29:21Z</time>
      </trkpt>
      <trkpt lat="49.13071" lon="0.14818">
        <ele>175.7</ele>
        <time>2024-03-03T08:29:22Z</time>
      </trkpt>
      <trkpt lat="49.13065" lon="0.14817">
        <ele>175.7</ele>
        <time>2024-03-03T08:29:23Z</time>
      </trkpt>
      <trkpt lat="49.13059" lon="0.14815">
        <ele>175.6</ele>
        <time>2024-03-03T08:29:24Z</time>
      </trkpt>
      <trkpt lat="49.13052" lon="0.14812">
        <ele>175.5</ele>
        <time>2024-03-03T08:29:25Z</time>
      </trkpt>
      <trkpt lat="49.13046" lon="0.14809">
        <ele>175.5</ele>
        <time>2024-03-03T08:29:26Z</time>
      </trkpt>
      <trkpt lat="49.1304" lon="0.14804">
        <ele>175.5</ele>
        <time>2024-03-03T08:29:27Z</time>
      </trkpt>
      <trkpt lat="49.13035" lon="0.14798">
        <ele>175.4</ele>
        <time>2024-03-03T08:29:28Z</time>
      </trkpt>
      <trkpt lat="49.1303" lon="0.14791">
        <ele>175.4</ele>
        <time>2024-03-03T08:29:29Z</time>
      </trkpt>
      <trkpt lat="49.13025" lon="0.14784">
        <ele>175.4</ele>
        <time>2024-03-03T08:29:30Z</time>
      </trkpt>
      <trkpt lat="49.13021" lon="0.14777">
        <ele>175.4</ele>
        <time>2024-03-03T08:29:31Z</time>
      </trkpt>
      <trkpt lat="49.13016" lon="0.1477">
        <ele>175.4</ele>
        <time>2024-03-03T08:29:32Z</time>
      </trkpt>
      <trkpt lat="49.13012" lon="0.14763">
        <ele>175.4</ele>
        <time>2024-03-03T08:29:33Z</time>
      </trkpt>
      <trkpt lat="49.13007" lon="0.14756">
        <ele>175.4</ele>
        <time>2024-03-03T08:29:34Z</time>
      </trkpt>
      <trkpt lat="49.13002" lon="0.14748">
        <ele>175.4</ele>
        <time>2024-03-03T08:29:35Z</time>
      </trkpt>
      <trkpt lat="49.12998" lon="0.14741">
        <ele>175.4</ele>
        <time>2024-03-03T08:29:36Z</time>
      </trkpt>
      <trkpt lat="49.12993" lon="0.14734">
        <ele>175.4</ele>
        <time>2024-03-03T08:29:37Z</time>
      </trkpt>
      <trkpt lat="49.12989" lon="0.14728">
        <ele>175.4</ele>
        <time>2024-03-03T08:29:38Z</time>
      </trkpt>
      <trkpt lat="49.12985" lon="0.1472">
        <ele>175.4</ele>
        <time>2024-03-03T08:29:39Z</time>
      </trkpt>
      <trkpt lat="49.1298" lon="0.14713">
        <ele>175.5</ele>
        <time>2024-03-03T08:29:40Z</time>
      </trkpt>
      <trkpt lat="49.12975" lon="0.14705">
        <ele>175.5</ele>
        <time>2024-03-03T08:29:41Z</time>
      </trkpt>
      <trkpt lat="49.12971" lon="0.14698">
        <ele>175.5</ele>
        <time>2024-03-03T08:29:42Z</time>
      </trkpt>
      <trkpt lat="49.12967" lon="0.1469">
        <ele>175.6</ele>
        <time>2024-03-03T08:29:43Z</time>
      </trkpt>
      <trkpt lat="49.12964" lon="0.14684">
        <ele>175.6</ele>
        <time>2024-03-03T08:29:44Z</time>
      </trkpt>
      <trkpt lat="49.12961" lon="0.14677">
        <ele>175.6</ele>
        <time>2024-03-03T08:29:45Z</time>
      </trkpt>
      <trkpt lat="49.12958" lon="0.1467">
        <ele>175.7</ele>
        <time>2024-03-03T08:29:46Z</time>
      </trkpt>
      <trkpt lat="49.12954" lon="0.14663">
        <ele>175.7</ele>
        <time>2024-03-03T08:29:47Z</time>
      </trkpt>
      <trkpt lat="49.1295" lon="0.14655">
        <ele>175.7</ele>
        <time>2024-03-03T08:29:48Z</time>
      </trkpt>
      <trkpt lat="49.12946" lon="0.14646">
        <ele>175.7</ele>
        <time>2024-03-03T08:29:49Z</time>
      </trkpt>
      <trkpt lat="49.12942" lon="0.14638">
        <ele>175.8</ele>
        <time>2024-03-03T08:29:50Z</time>
      </trkpt>
      <trkpt lat="49.12937" lon="0.1463">
        <ele>175.8</ele>
        <time>2024-03-03T08:29:51Z</time>
      </trkpt>
      <trkpt lat="49.12932" lon="0.14622">
        <ele>175.8</ele>
        <time>2024-03-03T08:29:52Z</time>
      </trkpt>
      <trkpt lat="49.12927" lon="0.14614">
        <ele>175.8</ele>
        <time>2024-03-03T08:29:53Z</time>
      </trkpt>
      <trkpt lat="49.12923" lon="0.14606">
        <ele>175.9</ele>
        <time>2024-03-03T08:29:54Z</time>
      </trkpt>
      <trkpt lat="49.12919" lon="0.14598">
        <ele>175.9</ele>
        <time>2024-03-03T08:29:55Z</time>
      </trkpt>
      <trkpt lat="49.12915" lon="0.14591">
        <ele>175.9</ele>
        <time>2024-03-03T08:29:56Z</time>
      </trkpt>
      <trkpt lat="49.12911" lon="0.14583">
        <ele>175.9</ele>
        <time>2024-03-03T08:29:57Z</time>
      </trkpt>
      <trkpt lat="49.12907" lon="0.14575">
        <ele>175.9</ele>
        <time>2024-03-03T08:29:58Z</time>
      </trkpt>
      <trkpt lat="49.12903" lon="0.14567">
        <ele>175.9</ele>
        <time>2024-03-03T08:29:59Z</time>
      </trkpt>
      <trkpt lat="49.12899" lon="0.14561">
        <ele>176</ele>
        <time>2024-03-03T08:30:00Z</time>
      </trkpt>
      <trkpt lat="49.12895" lon="0.14555">
        <ele>176</ele>
        <time>2024-03-03T08:30:01Z</time>
      </trkpt>
      <trkpt lat="49.12891" lon="0.14548">
        <ele>176</ele>
        <time>2024-03-03T08:30:02Z</time>
      </trkpt>
      <trkpt lat="49.12886" lon="0.14541">
        <ele>176</ele>
        <time>2024-03-03T08:30:03Z</time>
      </trkpt>
      <trkpt lat="49.12882" lon="0.14534">
        <ele>176</ele>
        <time>2024-03-03T08:30:04Z</time>
      </trkpt>
      <trkpt lat="49.12877" lon="0.14528">
        <ele>176</ele>
        <time>2024-03-03T08:30:05Z</time>
      </trkpt>
      <trkpt lat="49.12871" lon="0.14521">
        <ele>175.9</ele>
        <time>2024-03-03T08:30:06Z</time>
      </trkpt>
      <trkpt lat="49.12865" lon="0.14514">
        <ele>175.9</ele>
        <time>2024-03-03T08:30:07Z</time>
      </trkpt>
      <trkpt lat="49.1286" lon="0.14508">
        <ele>175.9</ele>
        <time>2024-03-03T08:30:08Z</time>
      </trkpt>
      <trkpt lat="49.12854" lon="0.14502">
        <ele>175.9</ele>
        <time>2024-03-03T08:30:09Z</time>
      </trkpt>
      <trkpt lat="49.12847" lon="0.14497">
        <ele>175.8</ele>
        <time>2024-03-03T08:30:10Z</time>
      </trkpt>
      <trkpt lat="49.1284" lon="0.14493">
        <ele>175.8</ele>
        <time>2024-03-03T08:30:11Z</time>
      </trkpt>
      <trkpt lat="49.12832" lon="0.14488">
        <ele>175.8</ele>
        <time>2024-03-03T08:30:12Z</time>
      </trkpt>
      <trkpt lat="49.12825" lon="0.14484">
        <ele>175.8</ele>
        <time>2024-03-03T08:30:13Z</time>
      </trkpt>
      <trkpt lat="49.12819" lon="0.1448">
        <ele>175.8</ele>
        <time>2024-03-03T08:30:14Z</time>
      </trkpt>
      <trkpt lat="49.12812" lon="0.14477">
        <ele>175.7</ele>
        <time>2024-03-03T08:30:15Z</time>
      </trkpt>
      <trkpt lat="49.12805" lon="0.14473">
        <ele>175.7</ele>
        <time>2024-03-03T08:30:16Z</time>
      </trkpt>
      <trkpt lat="49.12799" lon="0.14469">
        <ele>175.7</ele>
        <time>2024-03-03T08:30:17Z</time>
      </trkpt>
      <trkpt lat="49.12793" lon="0.14465">
        <ele>175.7</ele>
        <time>2024-03-03T08:30:18Z</time>
      </trkpt>
      <trkpt lat="49.12786" lon="0.14461">
        <ele>175.7</ele>
        <time>2024-03-03T08:30:19Z</time>
      </trkpt>
      <trkpt lat="49.1278" lon="0.14457">
        <ele>175.7</ele>
        <time>2024-03-03T08:30:20Z</time>
      </trkpt>
      <trkpt lat="49.12773" lon="0.14452">
        <ele>175.7</ele>
        <time>2024-03-03T08:30:21Z</time>
      </trkpt>
      <trkpt lat="49.12767" lon="0.14447">
        <ele>175.7</ele>
        <time>2024-03-03T08:30:22Z</time>
      </trkpt>
      <trkpt lat="49.12761" lon="0.14441">
        <ele>175.7</ele>
        <time>2024-03-03T08:30:23Z</time>
      </trkpt>
      <trkpt lat="49.12755" lon="0.14436">
        <ele>175.7</ele>
        <time>2024-03-03T08:30:24Z</time>
      </trkpt>
      <trkpt lat="49.12749" lon="0.14431">
        <ele>175.7</ele>
        <time>2024-03-03T08:30:25Z</time>
      </trkpt>
      <trkpt lat="49.12744" lon="0.14426">
        <ele>175.7</ele>
        <time>2024-03-03T08:30:26Z</time>
      </trkpt>
      <trkpt lat="49.12739" lon="0.1442">
        <ele>175.7</ele>
        <time>2024-03-03T08:30:27Z</time>
      </trkpt>
      <trkpt lat="49.12734" lon="0.14413">
        <ele>175.7</ele>
        <time>2024-03-03T08:30:28Z</time>
      </trkpt>
      <trkpt lat="49.1273" lon="0.14406">
        <ele>175.7</ele>
        <time>2024-03-03T08:30:29Z</time>
      </trkpt>
      <trkpt lat="49.12726" lon="0.14398">
        <ele>175.7</ele>
        <time>2024-03-03T08:30:30Z</time>
      </trkpt>
      <trkpt lat="49.12722" lon="0.14391">
        <ele>175.6</ele>
        <time>2024-03-03T08:30:31Z</time>
      </trkpt>
      <trkpt lat="49.12717" lon="0.14385">
        <ele>175.6</ele>
        <time>2024-03-03T08:30:32Z</time>
      </trkpt>
      <trkpt lat="49.12713" lon="0.14378">
        <ele>175.6</ele>
        <time>2024-03-03T08:30:33Z</time>
      </trkpt>
      <trkpt lat="49.12708" lon="0.14371">
        <ele>175.6</ele>
        <time>2024-03-03T08:30:34Z</time>
      </trkpt>
      <trkpt lat="49.12704" lon="0.14365">
        <ele>175.6</ele>
        <time>2024-03-03T08:30:35Z</time>
      </trkpt>
      <trkpt lat="49.12698" lon="0.14359">
        <ele>175.6</ele>
        <time>2024-03-03T08:30:36Z</time>
      </trkpt>
      <trkpt lat="49.12693" lon="0.14352">
        <ele>175.6</ele>
        <time>2024-03-03T08:30:37Z</time>
      </trkpt>
      <trkpt lat="49.12687" lon="0.14345">
        <ele>175.6</ele>
        <time>2024-03-03T08:30:38Z</time>
      </trkpt>
      <trkpt lat="49.12681" lon="0.14338">
        <ele>175.6</ele>
        <time>2024-03-03T08:30:39Z</time>
      </trkpt>
      <trkpt lat="49.12676" lon="0.14331">
        <ele>175.6</ele>
        <time>2024-03-03T08:30:40Z</time>
      </trkpt>
      <trkpt lat="49.1267" lon="0.14324">
        <ele>175.5</ele>
        <time>2024-03-03T08:30:41Z</time>
      </trkpt>
      <trkpt lat="49.12665" lon="0.14317">
        <ele>175.5</ele>
        <time>2024-03-03T08:30:42Z</time>
      </trkpt>
      <trkpt lat="49.1266" lon="0.1431">
        <ele>175.5</ele>
        <time>2024-03-03T08:30:43Z</time>
      </trkpt>
      <trkpt lat="49.12654" lon="0.14304">
        <ele>175.5</ele>
        <time>2024-03-03T08:30:44Z</time>
      </trkpt>
      <trkpt lat="49.12648" lon="0.14298">
        <ele>175.5</ele>
        <time>2024-03-03T08:30:45Z</time>
      </trkpt>
      <trkpt lat="49.12643" lon="0.14292">
        <ele>175.5</ele>
        <time>2024-03-03T08:30:46Z</time>
      </trkpt>
      <trkpt lat="49.12637" lon="0.14286">
        <ele>175.5</ele>
        <time>2024-03-03T08:30:47Z</time>
      </trkpt>
      <trkpt lat="49.12631" lon="0.1428">
        <ele>175.5</ele>
        <time>2024-03-03T08:30:48Z</time>
      </trkpt>
      <trkpt lat="49.12626" lon="0.14274">
        <ele>175.4</ele>
        <time>2024-03-03T08:30:49Z</time>
      </trkpt>
      <trkpt lat="49.1262" lon="0.14268">
        <ele>175.4</ele>
        <time>2024-03-03T08:30:50Z</time>
      </trkpt>
      <trkpt lat="49.12614" lon="0.14261">
        <ele>175.4</ele>
        <time>2024-03-03T08:30:51Z</time>
      </trkpt>
      <trkpt lat="49.12609" lon="0.14255">
        <ele>175.4</ele>
        <time>2024-03-03T08:30:52Z</time>
      </trkpt>
      <trkpt lat="49.12603" lon="0.14248">
        <ele>175.4</ele>
        <time>2024-03-03T08:30:53Z</time>
      </trkpt>
      <trkpt lat="49.12597" lon="0.14242">
        <ele>175.4</ele>
        <time>2024-03-03T08:30:54Z</time>
      </trkpt>
      <trkpt lat="49.12591" lon="0.14236">
        <ele>175.3</ele>
        <time>2024-03-03T08:30:55Z</time>
      </trkpt>
      <trkpt lat="49.12585" lon="0.1423">
        <ele>175.3</ele>
        <time>2024-03-03T08:30:56Z</time>
      </trkpt>
      <trkpt lat="49.1258" lon="0.14224">
        <ele>175.3</ele>
        <time>2024-03-03T08:30:57Z</time>
      </trkpt>
      <trkpt lat="49.12574" lon="0.14218">
        <ele>175.2</ele>
        <time>2024-03-03T08:30:58Z</time>
      </trkpt>
      <trkpt lat="49.12568" lon="0.14211">
        <ele>175.2</ele>
        <time>2024-03-03T08:30:59Z</time>
      </trkpt>
      <trkpt lat="49.12562" lon="0.14204">
        <ele>175.2</ele>
        <time>2024-03-03T08:31:00Z</time>
      </trkpt>
      <trkpt lat="49.12557" lon="0.14197">
        <ele>175.2</ele>
        <time>2024-03-03T08:31:01Z</time>
      </trkpt>
      <trkpt lat="49.12551" lon="0.14191">
        <ele>175.2</ele>
        <time>2024-03-03T08:31:02Z</time>
      </trkpt>
      <trkpt lat="49.12546" lon="0.14184">
        <ele>175.2</ele>
        <time>2024-03-03T08:31:03Z</time>
      </trkpt>
      <trkpt lat="49.1254" lon="0.14177">
        <ele>175.2</ele>
        <time>2024-03-03T08:31:04Z</time>
      </trkpt>
      <trkpt lat="49.12534" lon="0.1417">
        <ele>175.2</ele>
        <time>2024-03-03T08:31:05Z</time>
      </trkpt>
      <trkpt lat="49.12529" lon="0.14164">
        <ele>175.2</ele>
        <time>2024-03-03T08:31:06Z</time>
      </trkpt>
      <trkpt lat="49.12523" lon="0.14158">
        <ele>175.2</ele>
        <time>2024-03-03T08:31:07Z</time>
      </trkpt>
      <trkpt lat="49.12518" lon="0.14151">
        <ele>175.2</ele>
        <time>2024-03-03T08:31:08Z</time>
      </trkpt>
      <trkpt lat="49.12512" lon="0.14144">
        <ele>175.2</ele>
        <time>2024-03-03T08:31:09Z</time>
      </trkpt>
      <trkpt lat="49.12507" lon="0.14137">
        <ele>175.2</ele>
        <time>2024-03-03T08:31:10Z</time>
      </trkpt>
      <trkpt lat="49.12501" lon="0.1413">
        <ele>175.2</ele>
        <time>2024-03-03T08:31:11Z</time>
      </trkpt>
      <trkpt lat="49.12496" lon="0.14124">
        <ele>175.2</ele>
        <time>2024-03-03T08:31:12Z</time>
      </trkpt>
      <trkpt lat="49.1249" lon="0.14117">
        <ele>175.2</ele>
        <time>2024-03-03T08:31:13Z</time>
      </trkpt>
      <trkpt lat="49.12484" lon="0.1411">
        <ele>175.2</ele>
        <time>2024-03-03T08:31:14Z</time>
      </trkpt>
      <trkpt lat="49.12479" lon="0.14104">
        <ele>175.1</ele>
        <time>2024-03-03T08:31:15Z</time>
      </trkpt>
      <trkpt lat="49.12473" lon="0.14096">
        <ele>175.1</ele>
        <time>2024-03-03T08:31:16Z</time>
      </trkpt>
      <trkpt lat="49.12468" lon="0.1409">
        <ele>175.1</ele>
        <time>2024-03-03T08:31:17Z</time>
      </trkpt>
      <trkpt lat="49.12463" lon="0.14083">
        <ele>175</ele>
        <time>2024-03-03T08:31:18Z</time>
      </trkpt>
      <trkpt lat="49.12458" lon="0.14076">
        <ele>174.9</ele>
        <time>2024-03-03T08:31:19Z</time>
      </trkpt>
      <trkpt lat="49.12452" lon="0.14069">
        <ele>174.9</ele>
        <time>2024-03-03T08:31:20Z</time>
      </trkpt>
      <trkpt lat="49.12447" lon="0.14062">
        <ele>174.8</ele>
        <time>2024-03-03T08:31:21Z</time>
      </trkpt>
      <trkpt lat="49.12442" lon="0.14054">
        <ele>174.8</ele>
        <time>2024-03-03T08:31:22Z</time>
      </trkpt>
      <trkpt lat="49.12436" lon="0.14047">
        <ele>174.7</ele>
        <time>2024-03-03T08:31:23Z</time>
      </trkpt>
      <trkpt lat="49.12431" lon="0.1404">
        <ele>174.6</ele>
        <time>2024-03-03T08:31:24Z</time>
      </trkpt>
      <trkpt lat="49.12426" lon="0.14032">
        <ele>174.5</ele>
        <time>2024-03-03T08:31:25Z</time>
      </trkpt>
      <trkpt lat="49.1242" lon="0.14024">
        <ele>174.4</ele>
        <time>2024-03-03T08:31:26Z</time>
      </trkpt>
      <trkpt lat="49.12414" lon="0.14017">
        <ele>174.3</ele>
        <time>2024-03-03T08:31:27Z</time>
      </trkpt>
      <trkpt lat="49.12409" lon="0.1401">
        <ele>174.1</ele>
        <time>2024-03-03T08:31:28Z</time>
      </trkpt>
      <trkpt lat="49.12403" lon="0.14003">
        <ele>174</ele>
        <time>2024-03-03T08:31:29Z</time>
      </trkpt>
      <trkpt lat="49.12397" lon="0.13996">
        <ele>173.8</ele>
        <time>2024-03-03T08:31:30Z</time>
      </trkpt>
      <trkpt lat="49.12391" lon="0.13989">
        <ele>173.7</ele>
        <time>2024-03-03T08:31:31Z</time>
      </trkpt>
      <trkpt lat="49.12385" lon="0.13982">
        <ele>173.5</ele>
        <time>2024-03-03T08:31:32Z</time>
      </trkpt>
      <trkpt lat="49.12378" lon="0.13975">
        <ele>173.4</ele>
        <time>2024-03-03T08:31:33Z</time>
      </trkpt>
      <trkpt lat="49.12372" lon="0.13967">
        <ele>173.2</ele>
        <time>2024-03-03T08:31:34Z</time>
      </trkpt>
      <trkpt lat="49.12366" lon="0.13959">
        <ele>173.1</ele>
        <time>2024-03-03T08:31:35Z</time>
      </trkpt>
      <trkpt lat="49.1236" lon="0.13952">
        <ele>173</ele>
        <time>2024-03-03T08:31:36Z</time>
      </trkpt>
      <trkpt lat="49.12354" lon="0.13944">
        <ele>172.9</ele>
        <time>2024-03-03T08:31:37Z</time>
      </trkpt>
      <trkpt lat="49.12348" lon="0.13936">
        <ele>172.8</ele>
        <time>2024-03-03T08:31:38Z</time>
      </trkpt>
      <trkpt lat="49.12343" lon="0.13928">
        <ele>172.7</ele>
        <time>2024-03-03T08:31:39Z</time>
      </trkpt>
      <trkpt lat="49.12338" lon="0.1392">
        <ele>172.6</ele>
        <time>2024-03-03T08:31:40Z</time>
      </trkpt>
      <trkpt lat="49.12333" lon="0.13911">
        <ele>172.5</ele>
        <time>2024-03-03T08:31:41Z</time>
      </trkpt>
      <trkpt lat="49.12329" lon="0.13902">
        <ele>172.5</ele>
        <time>2024-03-03T08:31:42Z</time>
      </trkpt>
      <trkpt lat="49.12324" lon="0.13893">
        <ele>172.4</ele>
        <time>2024-03-03T08:31:43Z</time>
      </trkpt>
      <trkpt lat="49.1232" lon="0.13883">
        <ele>172.4</ele>
        <time>2024-03-03T08:31:44Z</time>
      </trkpt>
      <trkpt lat="49.12315" lon="0.13874">
        <ele>172.3</ele>
        <time>2024-03-03T08:31:45Z</time>
      </trkpt>
      <trkpt lat="49.1231" lon="0.13865">
        <ele>172.3</ele>
        <time>2024-03-03T08:31:46Z</time>
      </trkpt>
      <trkpt lat="49.12305" lon="0.13856">
        <ele>172.2</ele>
        <time>2024-03-03T08:31:47Z</time>
      </trkpt>
      <trkpt lat="49.123" lon="0.13848">
        <ele>172.1</ele>
        <time>2024-03-03T08:31:48Z</time>
      </trkpt>
      <trkpt lat="49.12295" lon="0.13839">
        <ele>172.1</ele>
        <time>2024-03-03T08:31:49Z</time>
      </trkpt>
      <trkpt lat="49.12291" lon="0.13831">
        <ele>172</ele>
        <time>2024-03-03T08:31:50Z</time>
      </trkpt>
      <trkpt lat="49.12286" lon="0.13822">
        <ele>172</ele>
        <time>2024-03-03T08:31:51Z</time>
      </trkpt>
      <trkpt lat="49.12281" lon="0.13814">
        <ele>172</ele>
        <time>2024-03-03T08:31:52Z</time>
      </trkpt>
      <trkpt lat="49.12275" lon="0.13807">
        <ele>172</ele>
        <time>2024-03-03T08:31:53Z</time>
      </trkpt>
      <trkpt lat="49.1227" lon="0.13801">
        <ele>171.9</ele>
        <time>2024-03-03T08:31:54Z</time>
      </trkpt>
      <trkpt lat="49.12264" lon="0.13795">
        <ele>171.9</ele>
        <time>2024-03-03T08:31:55Z</time>
      </trkpt>
      <trkpt lat="49.12257" lon="0.1379">
        <ele>171.9</ele>
        <time>2024-03-03T08:31:56Z</time>
      </trkpt>
      <trkpt lat="49.1225" lon="0.13786">
        <ele>171.9</ele>
        <time>2024-03-03T08:31:57Z</time>
      </trkpt>
      <trkpt lat="49.12243" lon="0.13783">
        <ele>171.9</ele>
        <time>2024-03-03T08:31:58Z</time>
      </trkpt>
      <trkpt lat="49.12236" lon="0.13781">
        <ele>171.9</ele>
        <time>2024-03-03T08:31:59Z</time>
      </trkpt>
      <trkpt lat="49.12229" lon="0.1378">
        <ele>171.9</ele>
        <time>2024-03-03T08:32:00Z</time>
      </trkpt>
      <trkpt lat="49.12222" lon="0.13778">
        <ele>171.9</ele>
        <time>2024-03-03T08:32:01Z</time>
      </trkpt>
      <trkpt lat="49.12215" lon="0.13777">
        <ele>171.9</ele>
        <time>2024-03-03T08:32:02Z</time>
      </trkpt>
      <trkpt lat="49.12208" lon="0.13776">
        <ele>171.9</ele>
        <time>2024-03-03T08:32:03Z</time>
      </trkpt>
      <trkpt lat="49.12201" lon="0.13776">
        <ele>171.9</ele>
        <time>2024-03-03T08:32:04Z</time>
      </trkpt>
      <trkpt lat="49.12193" lon="0.13775">
        <ele>171.8</ele>
        <time>2024-03-03T08:32:05Z</time>
      </trkpt>
      <trkpt lat="49.12186" lon="0.13774">
        <ele>171.8</ele>
        <time>2024-03-03T08:32:06Z</time>
      </trkpt>
      <trkpt lat="49.12178" lon="0.13773">
        <ele>171.8</ele>
        <time>2024-03-03T08:32:07Z</time>
      </trkpt>
      <trkpt lat="49.12171" lon="0.13771">
        <ele>171.8</ele>
        <time>2024-03-03T08:32:08Z</time>
      </trkpt>
      <trkpt lat="49.12164" lon="0.1377">
        <ele>171.8</ele>
        <time>2024-03-03T08:32:09Z</time>
      </trkpt>
      <trkpt lat="49.12156" lon="0.13768">
        <ele>171.8</ele>
        <time>2024-03-03T08:32:10Z</time>
      </trkpt>
      <trkpt lat="49.12149" lon="0.13767">
        <ele>171.8</ele>
        <time>2024-03-03T08:32:11Z</time>
      </trkpt>
      <trkpt lat="49.12143" lon="0.13766">
        <ele>171.8</ele>
        <time>2024-03-03T08:32:12Z</time>
      </trkpt>
      <trkpt lat="49.12136" lon="0.13765">
        <ele>171.8</ele>
        <time>2024-03-03T08:32:13Z</time>
      </trkpt>
      <trkpt lat="49.12128" lon="0.13765">
        <ele>171.8</ele>
        <time>2024-03-03T08:32:14Z</time>
      </trkpt>
      <trkpt lat="49.12121" lon="0.13766">
        <ele>171.9</ele>
        <time>2024-03-03T08:32:15Z</time>
      </trkpt>
      <trkpt lat="49.12113" lon="0.13767">
        <ele>172</ele>
        <time>2024-03-03T08:32:16Z</time>
      </trkpt>
      <trkpt lat="49.12106" lon="0.13769">
        <ele>172.1</ele>
        <time>2024-03-03T08:32:17Z</time>
      </trkpt>
      <trkpt lat="49.121" lon="0.13771">
        <ele>172.1</ele>
        <time>2024-03-03T08:32:18Z</time>
      </trkpt>
      <trkpt lat="49.12093" lon="0.13774">
        <ele>172.2</ele>
        <time>2024-03-03T08:32:19Z</time>
      </trkpt>
      <trkpt lat="49.12087" lon="0.13776">
        <ele>172.3</ele>
        <time>2024-03-03T08:32:20Z</time>
      </trkpt>
      <trkpt lat="49.1208" lon="0.13779">
        <ele>172.4</ele>
        <time>2024-03-03T08:32:21Z</time>
      </trkpt>
      <trkpt lat="49.12074" lon="0.13782">
        <ele>172.5</ele>
        <time>2024-03-03T08:32:22Z</time>
      </trkpt>
      <trkpt lat="49.12067" lon="0.13784">
        <ele>172.5</ele>
        <time>2024-03-03T08:32:23Z</time>
      </trkpt>
      <trkpt lat="49.1206" lon="0.13787">
        <ele>172.6</ele>
        <time>2024-03-03T08:32:24Z</time>
      </trkpt>
      <trkpt lat="49.12054" lon="0.1379">
        <ele>172.6</ele>
        <time>2024-03-03T08:32:25Z</time>
      </trkpt>
      <trkpt lat="49.12048" lon="0.13793">
        <ele>172.7</ele>
        <time>2024-03-03T08:32:26Z</time>
      </trkpt>
      <trkpt lat="49.12042" lon="0.13797">
        <ele>172.7</ele>
        <time>2024-03-03T08:32:27Z</time>
      </trkpt>
      <trkpt lat="49.12035" lon="0.13801">
        <ele>172.8</ele>
        <time>2024-03-03T08:32:28Z</time>
      </trkpt>
      <trkpt lat="49.12028" lon="0.13805">
        <ele>172.9</ele>
        <time>2024-03-03T08:32:29Z</time>
      </trkpt>
      <trkpt lat="49.1202" lon="0.13809">
        <ele>172.9</ele>
        <time>2024-03-03T08:32:30Z</time>
      </trkpt>
      <trkpt lat="49.12013" lon="0.13812">
        <ele>173</ele>
        <time>2024-03-03T08:32:31Z</time>
      </trkpt>
      <trkpt lat="49.12007" lon="0.13815">
        <ele>173.2</ele>
        <time>2024-03-03T08:32:32Z</time>
      </trkpt>
      <trkpt lat="49.12" lon="0.13816">
        <ele>173.3</ele>
        <time>2024-03-03T08:32:33Z</time>
      </trkpt>
      <trkpt lat="49.11994" lon="0.13818">
        <ele>173.4</ele>
        <time>2024-03-03T08:32:34Z</time>
      </trkpt>
      <trkpt lat="49.11988" lon="0.13819">
        <ele>173.5</ele>
        <time>2024-03-03T08:32:35Z</time>
      </trkpt>
      <trkpt lat="49.11982" lon="0.1382">
        <ele>173.6</ele>
        <time>2024-03-03T08:32:36Z</time>
      </trkpt>
      <trkpt lat="49.11976" lon="0.1382">
        <ele>173.7</ele>
        <time>2024-03-03T08:32:37Z</time>
      </trkpt>
      <trkpt lat="49.1197" lon="0.1382">
        <ele>173.8</ele>
        <time>2024-03-03T08:32:38Z</time>
      </trkpt>
      <trkpt lat="49.11964" lon="0.1382">
        <ele>173.9</ele>
        <time>2024-03-03T08:32:39Z</time>
      </trkpt>
      <trkpt lat="49.11957" lon="0.13819">
        <ele>174</ele>
        <time>2024-03-03T08:32:40Z</time>
      </trkpt>
      <trkpt lat="49.1195" lon="0.13818">
        <ele>174.1</ele>
        <time>2024-03-03T08:32:41Z</time>
      </trkpt>
      <trkpt lat="49.11944" lon="0.13818">
        <ele>174.1</ele>
        <time>2024-03-03T08:32:42Z</time>
      </trkpt>
      <trkpt lat="49.11937" lon="0.13817">
        <ele>174.3</ele>
        <time>2024-03-03T08:32:43Z</time>
      </trkpt>
      <trkpt lat="49.1193" lon="0.13816">
        <ele>174.4</ele>
        <time>2024-03-03T08:32:44Z</time>
      </trkpt>
      <trkpt lat="49.11923" lon="0.13816">
        <ele>174.5</ele>
        <time>2024-03-03T08:32:45Z</time>
      </trkpt>
      <trkpt lat="49.11917" lon="0.13815">
        <ele>174.6</ele>
        <time>2024-03-03T08:32:46Z</time>
      </trkpt>
      <trkpt lat="49.1191" lon="0.13814">
        <ele>174.7</ele>
        <time>2024-03-03T08:32:47Z</time>
      </trkpt>
      <trkpt lat="49.11904" lon="0.13813">
        <ele>174.8</ele>
        <time>2024-03-03T08:32:48Z</time>
      </trkpt>
      <trkpt lat="49.11898" lon="0.13812">
        <ele>174.9</ele>
        <time>2024-03-03T08:32:49Z</time>
      </trkpt>
      <trkpt lat="49.11891" lon="0.13812">
        <ele>175</ele>
        <time>2024-03-03T08:32:50Z</time>
      </trkpt>
      <trkpt lat="49.11885" lon="0.13812">
        <ele>175.1</ele>
        <time>2024-03-03T08:32:51Z</time>
      </trkpt>
      <trkpt lat="49.11878" lon="0.13813">
        <ele>175.1</ele>
        <time>2024-03-03T08:32:52Z</time>
      </trkpt>
      <trkpt lat="49.11872" lon="0.13814">
        <ele>175.2</ele>
        <time>2024-03-03T08:32:53Z</time>
      </trkpt>
      <trkpt lat="49.11865" lon="0.13815">
        <ele>175.2</ele>
        <time>2024-03-03T08:32:54Z</time>
      </trkpt>
      <trkpt lat="49.11859" lon="0.13817">
        <ele>175.2</ele>
        <time>2024-03-03T08:32:55Z</time>
      </trkpt>
      <trkpt lat="49.11852" lon="0.13818">
        <ele>175.3</ele>
        <time>2024-03-03T08:32:56Z</time>
      </trkpt>
      <trkpt lat="49.11845" lon="0.13821">
        <ele>175.3</ele>
        <time>2024-03-03T08:32:57Z</time>
      </trkpt>
      <trkpt lat="49.11839" lon="0.13823">
        <ele>175.4</ele>
        <time>2024-03-03T08:32:58Z</time>
      </trkpt>
      <trkpt lat="49.11833" lon="0.13824">
        <ele>175.4</ele>
        <time>2024-03-03T08:32:59Z</time>
      </trkpt>
      <trkpt lat="49.11827" lon="0.13826">
        <ele>175.4</ele>
        <time>2024-03-03T08:33:00Z</time>
      </trkpt>
      <trkpt lat="49.11819" lon="0.13827">
        <ele>175.4</ele>
        <time>2024-03-03T08:33:01Z</time>
      </trkpt>
      <trkpt lat="49.11813" lon="0.13828">
        <ele>175.4</ele>
        <time>2024-03-03T08:33:02Z</time>
      </trkpt>
      <trkpt lat="49.11806" lon="0.13829">
        <ele>175.4</ele>
        <time>2024-03-03T08:33:03Z</time>
      </trkpt>
      <trkpt lat="49.118" lon="0.13829">
        <ele>175.4</ele>
        <time>2024-03-03T08:33:04Z</time>
      </trkpt>
      <trkpt lat="49.11794" lon="0.13829">
        <ele>175.4</ele>
        <time>2024-03-03T08:33:05Z</time>
      </trkpt>
      <trkpt lat="49.11788" lon="0.13831">
        <ele>175.4</ele>
        <time>2024-03-03T08:33:06Z</time>
      </trkpt>
      <trkpt lat="49.11781" lon="0.13833">
        <ele>175.3</ele>
        <time>2024-03-03T08:33:07Z</time>
      </trkpt>
      <trkpt lat="49.11775" lon="0.13835">
        <ele>175.3</ele>
        <time>2024-03-03T08:33:08Z</time>
      </trkpt>
      <trkpt lat="49.11768" lon="0.13836">
        <ele>175.2</ele>
        <time>2024-03-03T08:33:09Z</time>
      </trkpt>
      <trkpt lat="49.11762" lon="0.13837">
        <ele>175.1</ele>
        <time>2024-03-03T08:33:10Z</time>
      </trkpt>
      <trkpt lat="49.11756" lon="0.1384">
        <ele>175</ele>
        <time>2024-03-03T08:33:11Z</time>
      </trkpt>
      <trkpt lat="49.11749" lon="0.13841">
        <ele>175</ele>
        <time>2024-03-03T08:33:12Z</time>
      </trkpt>
      <trkpt lat="49.11742" lon="0.13843">
        <ele>174.9</ele>
        <time>2024-03-03T08:33:13Z</time>
      </trkpt>
      <trkpt lat="49.11735" lon="0.13845">
        <ele>174.8</ele>
        <time>2024-03-03T08:33:14Z</time>
      </trkpt>
      <trkpt lat="49.11728" lon="0.13848">
        <ele>174.7</ele>
        <time>2024-03-03T08:33:15Z</time>
      </trkpt>
      <trkpt lat="49.11721" lon="0.1385">
        <ele>174.6</ele>
        <time>2024-03-03T08:33:16Z</time>
      </trkpt>
      <trkpt lat="49.11714" lon="0.13852">
        <ele>174.5</ele>
        <time>2024-03-03T08:33:17Z</time>
      </trkpt>
      <trkpt lat="49.11707" lon="0.13853">
        <ele>174.4</ele>
        <time>2024-03-03T08:33:18Z</time>
      </trkpt>
      <trkpt lat="49.11699" lon="0.13855">
        <ele>174.3</ele>
        <time>2024-03-03T08:33:19Z</time>
      </trkpt>
      <trkpt lat="49.11691" lon="0.13857">
        <ele>174.2</ele>
        <time>2024-03-03T08:33:20Z</time>
      </trkpt>
      <trkpt lat="49.11683" lon="0.1386">
        <ele>174.2</ele>
        <time>2024-03-03T08:33:21Z</time>
      </trkpt>
      <trkpt lat="49.11676" lon="0.13862">
        <ele>174.1</ele>
        <time>2024-03-03T08:33:22Z</time>
      </trkpt>
      <trkpt lat="49.11669" lon="0.13864">
        <ele>174.1</ele>
        <time>2024-03-03T08:33:23Z</time>
      </trkpt>
      <trkpt lat="49.11662" lon="0.13866">
        <ele>174.2</ele>
        <time>2024-03-03T08:33:24Z</time>
      </trkpt>
      <trkpt lat="49.11654" lon="0.13868">
        <ele>174.2</ele>
        <time>2024-03-03T08:33:25Z</time>
      </trkpt>
      <trkpt lat="49.11647" lon="0.1387">
        <ele>174.3</ele>
        <time>2024-03-03T08:33:26Z</time>
      </trkpt>
      <trkpt lat="49.11639" lon="0.13871">
        <ele>174.2</ele>
        <time>2024-03-03T08:33:27Z</time>
      </trkpt>
      <trkpt lat="49.11632" lon="0.13873">
        <ele>174.1</ele>
        <time>2024-03-03T08:33:28Z</time>
      </trkpt>
      <trkpt lat="49.11626" lon="0.13875">
        <ele>174</ele>
        <time>2024-03-03T08:33:29Z</time>
      </trkpt>
      <trkpt lat="49.11618" lon="0.13877">
        <ele>174</ele>
        <time>2024-03-03T08:33:30Z</time>
      </trkpt>
      <trkpt lat="49.11611" lon="0.13879">
        <ele>173.9</ele>
        <time>2024-03-03T08:33:31Z</time>
      </trkpt>
      <trkpt lat="49.11603" lon="0.13882">
        <ele>173.9</ele>
        <time>2024-03-03T08:33:32Z</time>
      </trkpt>
      <trkpt lat="49.11595" lon="0.13885">
        <ele>173.8</ele>
        <time>2024-03-03T08:33:33Z</time>
      </trkpt>
      <trkpt lat="49.11587" lon="0.13887">
        <ele>173.8</ele>
        <time>2024-03-03T08:33:34Z</time>
      </trkpt>
      <trkpt lat="49.11579" lon="0.13889">
        <ele>173.7</ele>
        <time>2024-03-03T08:33:35Z</time>
      </trkpt>
      <trkpt lat="49.11573" lon="0.1389">
        <ele>173.7</ele>
        <time>2024-03-03T08:33:36Z</time>
      </trkpt>
      <trkpt lat="49.11567" lon="0.13891">
        <ele>173.6</ele>
        <time>2024-03-03T08:33:37Z</time>
      </trkpt>
      <trkpt lat="49.1156" lon="0.13891">
        <ele>173.6</ele>
        <time>2024-03-03T08:33:38Z</time>
      </trkpt>
      <trkpt lat="49.11552" lon="0.13891">
        <ele>173.5</ele>
        <time>2024-03-03T08:33:39Z</time>
      </trkpt>
      <trkpt lat="49.11546" lon="0.13892">
        <ele>173.4</ele>
        <time>2024-03-03T08:33:40Z</time>
      </trkpt>
      <trkpt lat="49.1154" lon="0.13892">
        <ele>173.3</ele>
        <time>2024-03-03T08:33:41Z</time>
      </trkpt>
      <trkpt lat="49.11533" lon="0.13892">
        <ele>173.2</ele>
        <time>2024-03-03T08:33:42Z</time>
      </trkpt>
      <trkpt lat="49.11527" lon="0.13891">
        <ele>173.1</ele>
        <time>2024-03-03T08:33:43Z</time>
      </trkpt>
      <trkpt lat="49.1152" lon="0.1389">
        <ele>173</ele>
        <time>2024-03-03T08:33:44Z</time>
      </trkpt>
      <trkpt lat="49.11513" lon="0.13888">
        <ele>173</ele>
        <time>2024-03-03T08:33:45Z</time>
      </trkpt>
      <trkpt lat="49.11508" lon="0.13886">
        <ele>172.9</ele>
        <time>2024-03-03T08:33:46Z</time>
      </trkpt>
      <trkpt lat="49.11501" lon="0.13883">
        <ele>172.8</ele>
        <time>2024-03-03T08:33:47Z</time>
      </trkpt>
      <trkpt lat="49.11492" lon="0.13879">
        <ele>172.7</ele>
        <time>2024-03-03T08:33:48Z</time>
      </trkpt>
      <trkpt lat="49.11481" lon="0.13876">
        <ele>172.5</ele>
        <time>2024-03-03T08:33:49Z</time>
      </trkpt>
      <trkpt lat="49.1147" lon="0.13874">
        <ele>172.4</ele>
        <time>2024-03-03T08:33:50Z</time>
      </trkpt>
      <trkpt lat="49.11459" lon="0.13871">
        <ele>172.3</ele>
        <time>2024-03-03T08:33:51Z</time>
      </trkpt>
      <trkpt lat="49.11449" lon="0.13868">
        <ele>172.3</ele>
        <time>2024-03-03T08:33:52Z</time>
      </trkpt>
      <trkpt lat="49.1144" lon="0.13866">
        <ele>172.2</ele>
        <time>2024-03-03T08:33:53Z</time>
      </trkpt>
      <trkpt lat="49.1143" lon="0.13863">
        <ele>172.2</ele>
        <time>2024-03-03T08:33:54Z</time>
      </trkpt>
      <trkpt lat="49.11421" lon="0.1386">
        <ele>172.2</ele>
        <time>2024-03-03T08:33:55Z</time>
      </trkpt>
      <trkpt lat="49.11413" lon="0.13857">
        <ele>172.1</ele>
        <time>2024-03-03T08:33:56Z</time>
      </trkpt>
      <trkpt lat="49.11404" lon="0.13855">
        <ele>172</ele>
        <time>2024-03-03T08:33:57Z</time>
      </trkpt>
      <trkpt lat="49.11395" lon="0.13852">
        <ele>171.9</ele>
        <time>2024-03-03T08:33:58Z</time>
      </trkpt>
      <trkpt lat="49.11387" lon="0.13849">
        <ele>171.9</ele>
        <time>2024-03-03T08:33:59Z</time>
      </trkpt>
      <trkpt lat="49.1138" lon="0.13846">
        <ele>171.8</ele>
        <time>2024-03-03T08:34:00Z</time>
      </trkpt>
      <trkpt lat="49.11372" lon="0.13844">
        <ele>171.7</ele>
        <time>2024-03-03T08:34:01Z</time>
      </trkpt>
      <trkpt lat="49.11366" lon="0.13842">
        <ele>171.7</ele>
        <time>2024-03-03T08:34:02Z</time>
      </trkpt>
      <trkpt lat="49.1136" lon="0.1384">
        <ele>171.6</ele>
        <time>2024-03-03T08:34:03Z</time>
      </trkpt>
      <trkpt lat="49.11355" lon="0.13837">
        <ele>171.5</ele>
        <time>2024-03-03T08:34:04Z</time>
      </trkpt>
      <trkpt lat="49.1135" lon="0.13834">
        <ele>171.5</ele>
        <time>2024-03-03T08:34:05Z</time>
      </trkpt>
      <trkpt lat="49.11344" lon="0.13831">
        <ele>171.4</ele>
        <time>2024-03-03T08:34:06Z</time>
      </trkpt>
      <trkpt lat="49.11337" lon="0.13827">
        <ele>171.3</ele>
        <time>2024-03-03T08:34:07Z</time>
      </trkpt>
      <trkpt lat="49.1133" lon="0.13823">
        <ele>171.2</ele>
        <time>2024-03-03T08:34:08Z</time>
      </trkpt>
      <trkpt lat="49.11323" lon="0.13819">
        <ele>171.1</ele>
        <time>2024-03-03T08:34:09Z</time>
      </trkpt>
      <trkpt lat="49.11313" lon="0.13814">
        <ele>171.1</ele>
        <time>2024-03-03T08:34:10Z</time>
      </trkpt>
      <trkpt lat="49.11304" lon="0.13809">
        <ele>171</ele>
        <time>2024-03-03T08:34:11Z</time>
      </trkpt>
      <trkpt lat="49.11296" lon="0.13804">
        <ele>171</ele>
        <time>2024-03-03T08:34:12Z</time>
      </trkpt>
      <trkpt lat="49.11287" lon="0.13801">
        <ele>171</ele>
        <time>2024-03-03T08:34:13Z</time>
      </trkpt>
      <trkpt lat="49.1128" lon="0.13797">
        <ele>171</ele>
        <time>2024-03-03T08:34:14Z</time>
      </trkpt>
      <trkpt lat="49.11272" lon="0.13793">
        <ele>171</ele>
        <time>2024-03-03T08:34:15Z</time>
      </trkpt>
      <trkpt lat="49.11264" lon="0.13789">
        <ele>171</ele>
        <time>2024-03-03T08:34:16Z</time>
      </trkpt>
      <trkpt lat="49.11256" lon="0.13786">
        <ele>171</ele>
        <time>2024-03-03T08:34:17Z</time>
      </trkpt>
      <trkpt lat="49.11248" lon="0.13782">
        <ele>171</ele>
        <time>2024-03-03T08:34:18Z</time>
      </trkpt>
      <trkpt lat="49.11241" lon="0.13778">
        <ele>171</ele>
        <time>2024-03-03T08:34:19Z</time>
      </trkpt>
      <trkpt lat="49.11233" lon="0.13774">
        <ele>171</ele>
        <time>2024-03-03T08:34:20Z</time>
      </trkpt>
      <trkpt lat="49.11225" lon="0.13771">
        <ele>171</ele>
        <time>2024-03-03T08:34:21Z</time>
      </trkpt>
      <trkpt lat="49.11218" lon="0.13767">
        <ele>171</ele>
        <time>2024-03-03T08:34:22Z</time>
      </trkpt>
      <trkpt lat="49.1121" lon="0.13763">
        <ele>171</ele>
        <time>2024-03-03T08:34:23Z</time>
      </trkpt>
      <trkpt lat="49.11202" lon="0.13759">
        <ele>171</ele>
        <time>2024-03-03T08:34:24Z</time>
      </trkpt>
      <trkpt lat="49.11195" lon="0.13755">
        <ele>171</ele>
        <time>2024-03-03T08:34:25Z</time>
      </trkpt>
      <trkpt lat="49.11189" lon="0.13751">
        <ele>171</ele>
        <time>2024-03-03T08:34:26Z</time>
      </trkpt>
      <trkpt lat="49.11183" lon="0.13747">
        <ele>171.1</ele>
        <time>2024-03-03T08:34:27Z</time>
      </trkpt>
      <trkpt lat="49.11176" lon="0.13743">
        <ele>171.1</ele>
        <time>2024-03-03T08:34:28Z</time>
      </trkpt>
      <trkpt lat="49.11169" lon="0.13739">
        <ele>171.1</ele>
        <time>2024-03-03T08:34:29Z</time>
      </trkpt>
      <trkpt lat="49.11161" lon="0.13735">
        <ele>171</ele>
        <time>2024-03-03T08:34:30Z</time>
      </trkpt>
      <trkpt lat="49.11154" lon="0.13731">
        <ele>170.9</ele>
        <time>2024-03-03T08:34:31Z</time>
      </trkpt>
      <trkpt lat="49.11146" lon="0.13727">
        <ele>170.9</ele>
        <time>2024-03-03T08:34:32Z</time>
      </trkpt>
      <trkpt lat="49.11139" lon="0.13723">
        <ele>170.9</ele>
        <time>2024-03-03T08:34:33Z</time>
      </trkpt>
      <trkpt lat="49.11132" lon="0.13719">
        <ele>170.9</ele>
        <time>2024-03-03T08:34:34Z</time>
      </trkpt>
      <trkpt lat="49.11125" lon="0.13715">
        <ele>170.9</ele>
        <time>2024-03-03T08:34:35Z</time>
      </trkpt>
      <trkpt lat="49.11119" lon="0.13711">
        <ele>170.9</ele>
        <time>2024-03-03T08:34:36Z</time>
      </trkpt>
      <trkpt lat="49.11113" lon="0.13707">
        <ele>170.9</ele>
        <time>2024-03-03T08:34:37Z</time>
      </trkpt>
      <trkpt lat="49.11107" lon="0.13703">
        <ele>170.8</ele>
        <time>2024-03-03T08:34:38Z</time>
      </trkpt>
      <trkpt lat="49.11101" lon="0.13699">
        <ele>170.8</ele>
        <time>2024-03-03T08:34:39Z</time>
      </trkpt>
      <trkpt lat="49.11094" lon="0.13696">
        <ele>170.8</ele>
        <time>2024-03-03T08:34:40Z</time>
      </trkpt>
      <trkpt lat="49.11086" lon="0.13693">
        <ele>170.8</ele>
        <time>2024-03-03T08:34:41Z</time>
      </trkpt>
      <trkpt lat="49.11079" lon="0.13691">
        <ele>170.8</ele>
        <time>2024-03-03T08:34:42Z</time>
      </trkpt>
      <trkpt lat="49.11071" lon="0.13688">
        <ele>170.9</ele>
        <time>2024-03-03T08:34:43Z</time>
      </trkpt>
      <trkpt lat="49.11064" lon="0.13686">
        <ele>170.9</ele>
        <time>2024-03-03T08:34:44Z</time>
      </trkpt>
      <trkpt lat="49.11056" lon="0.13685">
        <ele>170.9</ele>
        <time>2024-03-03T08:34:45Z</time>
      </trkpt>
      <trkpt lat="49.11048" lon="0.13684">
        <ele>171</ele>
        <time>2024-03-03T08:34:46Z</time>
      </trkpt>
      <trkpt lat="49.11041" lon="0.13684">
        <ele>171</ele>
        <time>2024-03-03T08:34:47Z</time>
      </trkpt>
      <trkpt lat="49.11034" lon="0.13684">
        <ele>171</ele>
        <time>2024-03-03T08:34:48Z</time>
      </trkpt>
      <trkpt lat="49.11027" lon="0.13684">
        <ele>171.1</ele>
        <time>2024-03-03T08:34:49Z</time>
      </trkpt>
      <trkpt lat="49.1102" lon="0.13685">
        <ele>171.1</ele>
        <time>2024-03-03T08:34:50Z</time>
      </trkpt>
      <trkpt lat="49.11014" lon="0.13685">
        <ele>171.1</ele>
        <time>2024-03-03T08:34:51Z</time>
      </trkpt>
      <trkpt lat="49.11007" lon="0.13686">
        <ele>171.1</ele>
        <time>2024-03-03T08:34:52Z</time>
      </trkpt>
      <trkpt lat="49.11" lon="0.13687">
        <ele>171.1</ele>
        <time>2024-03-03T08:34:53Z</time>
      </trkpt>
      <trkpt lat="49.10993" lon="0.13689">
        <ele>171.1</ele>
        <time>2024-03-03T08:34:54Z</time>
      </trkpt>
      <trkpt lat="49.10986" lon="0.1369">
        <ele>171.2</ele>
        <time>2024-03-03T08:34:55Z</time>
      </trkpt>
      <trkpt lat="49.10979" lon="0.13692">
        <ele>171.2</ele>
        <time>2024-03-03T08:34:56Z</time>
      </trkpt>
      <trkpt lat="49.10972" lon="0.13694">
        <ele>171.3</ele>
        <time>2024-03-03T08:34:57Z</time>
      </trkpt>
      <trkpt lat="49.10965" lon="0.13697">
        <ele>171.3</ele>
        <time>2024-03-03T08:34:58Z</time>
      </trkpt>
      <trkpt lat="49.10958" lon="0.137">
        <ele>171.4</ele>
        <time>2024-03-03T08:34:59Z</time>
      </trkpt>
      <trkpt lat="49.10951" lon="0.13704">
        <ele>171.5</ele>
        <time>2024-03-03T08:35:00Z</time>
      </trkpt>
      <trkpt lat="49.10944" lon="0.13709">
        <ele>171.5</ele>
        <time>2024-03-03T08:35:01Z</time>
      </trkpt>
      <trkpt lat="49.10938" lon="0.13714">
        <ele>171.6</ele>
        <time>2024-03-03T08:35:02Z</time>
      </trkpt>
      <trkpt lat="49.10932" lon="0.13719">
        <ele>171.7</ele>
        <time>2024-03-03T08:35:03Z</time>
      </trkpt>
      <trkpt lat="49.10926" lon="0.13724">
        <ele>171.7</ele>
        <time>2024-03-03T08:35:04Z</time>
      </trkpt>
      <trkpt lat="49.1092" lon="0.1373">
        <ele>171.8</ele>
        <time>2024-03-03T08:35:05Z</time>
      </trkpt>
      <trkpt lat="49.10914" lon="0.13735">
        <ele>171.9</ele>
        <time>2024-03-03T08:35:06Z</time>
      </trkpt>
      <trkpt lat="49.10908" lon="0.13741">
        <ele>171.9</ele>
        <time>2024-03-03T08:35:07Z</time>
      </trkpt>
      <trkpt lat="49.10903" lon="0.13747">
        <ele>172</ele>
        <time>2024-03-03T08:35:08Z</time>
      </trkpt>
      <trkpt lat="49.10897" lon="0.13753">
        <ele>172</ele>
        <time>2024-03-03T08:35:09Z</time>
      </trkpt>
      <trkpt lat="49.10891" lon="0.13759">
        <ele>172.1</ele>
        <time>2024-03-03T08:35:10Z</time>
      </trkpt>
      <trkpt lat="49.10885" lon="0.13766">
        <ele>172.2</ele>
        <time>2024-03-03T08:35:11Z</time>
      </trkpt>
      <trkpt lat="49.1088" lon="0.13773">
        <ele>172.2</ele>
        <time>2024-03-03T08:35:12Z</time>
      </trkpt>
      <trkpt lat="49.10874" lon="0.1378">
        <ele>172.3</ele>
        <time>2024-03-03T08:35:13Z</time>
      </trkpt>
      <trkpt lat="49.10869" lon="0.13786">
        <ele>172.3</ele>
        <time>2024-03-03T08:35:14Z</time>
      </trkpt>
      <trkpt lat="49.10864" lon="0.13793">
        <ele>172.4</ele>
        <time>2024-03-03T08:35:15Z</time>
      </trkpt>
      <trkpt lat="49.10859" lon="0.13799">
        <ele>172.5</ele>
        <time>2024-03-03T08:35:16Z</time>
      </trkpt>
      <trkpt lat="49.10855" lon="0.13805">
        <ele>172.5</ele>
        <time>2024-03-03T08:35:17Z</time>
      </trkpt>
      <trkpt lat="49.1085" lon="0.13811">
        <ele>172.5</ele>
        <time>2024-03-03T08:35:18Z</time>
      </trkpt>
      <trkpt lat="49.10844" lon="0.13818">
        <ele>172.6</ele>
        <time>2024-03-03T08:35:19Z</time>
      </trkpt>
      <trkpt lat="49.10839" lon="0.13825">
        <ele>172.6</ele>
        <time>2024-03-03T08:35:20Z</time>
      </trkpt>
      <trkpt lat="49.10833" lon="0.13831">
        <ele>172.6</ele>
        <time>2024-03-03T08:35:21Z</time>
      </trkpt>
      <trkpt lat="49.10827" lon="0.13838">
        <ele>172.6</ele>
        <time>2024-03-03T08:35:22Z</time>
      </trkpt>
      <trkpt lat="49.10821" lon="0.13845">
        <ele>172.7</ele>
        <time>2024-03-03T08:35:23Z</time>
      </trkpt>
      <trkpt lat="49.10816" lon="0.13852">
        <ele>172.7</ele>
        <time>2024-03-03T08:35:24Z</time>
      </trkpt>
      <trkpt lat="49.1081" lon="0.13858">
        <ele>172.7</ele>
        <time>2024-03-03T08:35:25Z</time>
      </trkpt>
      <trkpt lat="49.10804" lon="0.13864">
        <ele>172.7</ele>
        <time>2024-03-03T08:35:26Z</time>
      </trkpt>
      <trkpt lat="49.10798" lon="0.1387">
        <ele>172.7</ele>
        <time>2024-03-03T08:35:27Z</time>
      </trkpt>
      <trkpt lat="49.10791" lon="0.13874">
        <ele>172.6</ele>
        <time>2024-03-03T08:35:28Z</time>
      </trkpt>
      <trkpt lat="49.10784" lon="0.13878">
        <ele>172.6</ele>
        <time>2024-03-03T08:35:29Z</time>
      </trkpt>
      <trkpt lat="49.10776" lon="0.13883">
        <ele>172.6</ele>
        <time>2024-03-03T08:35:30Z</time>
      </trkpt>
      <trkpt lat="49.10769" lon="0.13887">
        <ele>172.6</ele>
        <time>2024-03-03T08:35:31Z</time>
      </trkpt>
      <trkpt lat="49.10763" lon="0.1389">
        <ele>172.6</ele>
        <time>2024-03-03T08:35:32Z</time>
      </trkpt>
      <trkpt lat="49.10756" lon="0.13893">
        <ele>172.6</ele>
        <time>2024-03-03T08:35:33Z</time>
      </trkpt>
      <trkpt lat="49.1075" lon="0.13896">
        <ele>172.6</ele>
        <time>2024-03-03T08:35:34Z</time>
      </trkpt>
      <trkpt lat="49.10744" lon="0.13898">
        <ele>172.6</ele>
        <time>2024-03-03T08:35:35Z</time>
      </trkpt>
      <trkpt lat="49.10737" lon="0.139">
        <ele>172.6</ele>
        <time>2024-03-03T08:35:36Z</time>
      </trkpt>
      <trkpt lat="49.1073" lon="0.13903">
        <ele>172.6</ele>
        <time>2024-03-03T08:35:37Z</time>
      </trkpt>
      <trkpt lat="49.10723" lon="0.13905">
        <ele>172.6</ele>
        <time>2024-03-03T08:35:38Z</time>
      </trkpt>
      <trkpt lat="49.10717" lon="0.13908">
        <ele>172.6</ele>
        <time>2024-03-03T08:35:39Z</time>
      </trkpt>
      <trkpt lat="49.1071" lon="0.13911">
        <ele>172.5</ele>
        <time>2024-03-03T08:35:40Z</time>
      </trkpt>
      <trkpt lat="49.10703" lon="0.13915">
        <ele>172.5</ele>
        <time>2024-03-03T08:35:41Z</time>
      </trkpt>
      <trkpt lat="49.10695" lon="0.13919">
        <ele>172.4</ele>
        <time>2024-03-03T08:35:42Z</time>
      </trkpt>
      <trkpt lat="49.10689" lon="0.13923">
        <ele>172.3</ele>
        <time>2024-03-03T08:35:43Z</time>
      </trkpt>
      <trkpt lat="49.10682" lon="0.13927">
        <ele>172.3</ele>
        <time>2024-03-03T08:35:44Z</time>
      </trkpt>
      <trkpt lat="49.10675" lon="0.1393">
        <ele>172.2</ele>
        <time>2024-03-03T08:35:45Z</time>
      </trkpt>
      <trkpt lat="49.10669" lon="0.13935">
        <ele>172.2</ele>
        <time>2024-03-03T08:35:46Z</time>
      </trkpt>
      <trkpt lat="49.10662" lon="0.1394">
        <ele>172.1</ele>
        <time>2024-03-03T08:35:47Z</time>
      </trkpt>
      <trkpt lat="49.10656" lon="0.13945">
        <ele>172.1</ele>
        <time>2024-03-03T08:35:48Z</time>
      </trkpt>
      <trkpt lat="49.10649" lon="0.13951">
        <ele>172</ele>
        <time>2024-03-03T08:35:49Z</time>
      </trkpt>
      <trkpt lat="49.10642" lon="0.13957">
        <ele>172</ele>
        <time>2024-03-03T08:35:50Z</time>
      </trkpt>
      <trkpt lat="49.10635" lon="0.13962">
        <ele>172</ele>
        <time>2024-03-03T08:35:51Z</time>
      </trkpt>
      <trkpt lat="49.10628" lon="0.13968">
        <ele>171.9</ele>
        <time>2024-03-03T08:35:52Z</time>
      </trkpt>
      <trkpt lat="49.10622" lon="0.13975">
        <ele>171.9</ele>
        <time>2024-03-03T08:35:53Z</time>
      </trkpt>
      <trkpt lat="49.10615" lon="0.13981">
        <ele>171.9</ele>
        <time>2024-03-03T08:35:54Z</time>
      </trkpt>
      <trkpt lat="49.10609" lon="0.13987">
        <ele>171.9</ele>
        <time>2024-03-03T08:35:55Z</time>
      </trkpt>
      <trkpt lat="49.10603" lon="0.13993">
        <ele>171.9</ele>
        <time>2024-03-03T08:35:56Z</time>
      </trkpt>
      <trkpt lat="49.10597" lon="0.13999">
        <ele>171.9</ele>
        <time>2024-03-03T08:35:57Z</time>
      </trkpt>
      <trkpt lat="49.10592" lon="0.14005">
        <ele>171.9</ele>
        <time>2024-03-03T08:35:58Z</time>
      </trkpt>
      <trkpt lat="49.10587" lon="0.14012">
        <ele>171.9</ele>
        <time>2024-03-03T08:35:59Z</time>
      </trkpt>
      <trkpt lat="49.10582" lon="0.14019">
        <ele>171.9</ele>
        <time>2024-03-03T08:36:00Z</time>
      </trkpt>
      <trkpt lat="49.10577" lon="0.14026">
        <ele>171.9</ele>
        <time>2024-03-03T08:36:01Z</time>
      </trkpt>
      <trkpt lat="49.10572" lon="0.14033">
        <ele>171.9</ele>
        <time>2024-03-03T08:36:02Z</time>
      </trkpt>
      <trkpt lat="49.10567" lon="0.14039">
        <ele>171.9</ele>
        <time>2024-03-03T08:36:03Z</time>
      </trkpt>
      <trkpt lat="49.10562" lon="0.14047">
        <ele>172</ele>
        <time>2024-03-03T08:36:04Z</time>
      </trkpt>
      <trkpt lat="49.10557" lon="0.14053">
        <ele>172</ele>
        <time>2024-03-03T08:36:05Z</time>
      </trkpt>
      <trkpt lat="49.10553" lon="0.14059">
        <ele>172.1</ele>
        <time>2024-03-03T08:36:06Z</time>
      </trkpt>
      <trkpt lat="49.10549" lon="0.14065">
        <ele>172.2</ele>
        <time>2024-03-03T08:36:07Z</time>
      </trkpt>
      <trkpt lat="49.10544" lon="0.14071">
        <ele>172.4</ele>
        <time>2024-03-03T08:36:08Z</time>
      </trkpt>
      <trkpt lat="49.10541" lon="0.14077">
        <ele>172.5</ele>
        <time>2024-03-03T08:36:09Z</time>
      </trkpt>
      <trkpt lat="49.10537" lon="0.14082">
        <ele>172.7</ele>
        <time>2024-03-03T08:36:10Z</time>
      </trkpt>
      <trkpt lat="49.10534" lon="0.14086">
        <ele>172.8</ele>
        <time>2024-03-03T08:36:11Z</time>
      </trkpt>
      <trkpt lat="49.10532" lon="0.1409">
        <ele>172.9</ele>
        <time>2024-03-03T08:36:12Z</time>
      </trkpt>
      <trkpt lat="49.10531" lon="0.14091">
        <ele>172.9</ele>
        <time>2024-03-03T08:36:13Z</time>
      </trkpt>
      <trkpt lat="49.10528" lon="0.14092">
        <ele>173</ele>
        <time>2024-03-03T08:36:14Z</time>
      </trkpt>
      <trkpt lat="49.10527" lon="0.14093">
        <ele>173</ele>
        <time>2024-03-03T08:36:15Z</time>
      </trkpt>
      <trkpt lat="49.10524" lon="0.14095">
        <ele>173</ele>
        <time>2024-03-03T08:36:16Z</time>
      </trkpt>
      <trkpt lat="49.10521" lon="0.14097">
        <ele>172.9</ele>
        <time>2024-03-03T08:36:17Z</time>
      </trkpt>
      <trkpt lat="49.10517" lon="0.14102">
        <ele>172.8</ele>
        <time>2024-03-03T08:36:18Z</time>
      </trkpt>
      <trkpt lat="49.10512" lon="0.14106">
        <ele>172.6</ele>
        <time>2024-03-03T08:36:19Z</time>
      </trkpt>
      <trkpt lat="49.10508" lon="0.1411">
        <ele>172.5</ele>
        <time>2024-03-03T08:36:20Z</time>
      </trkpt>
      <trkpt lat="49.10503" lon="0.14115">
        <ele>172.3</ele>
        <time>2024-03-03T08:36:21Z</time>
      </trkpt>
      <trkpt lat="49.10497" lon="0.14118">
        <ele>172.2</ele>
        <time>2024-03-03T08:36:22Z</time>
      </trkpt>
      <trkpt lat="49.10492" lon="0.14121">
        <ele>172.1</ele>
        <time>2024-03-03T08:36:23Z</time>
      </trkpt>
      <trkpt lat="49.10485" lon="0.14122">
        <ele>172</ele>
        <time>2024-03-03T08:36:24Z</time>
      </trkpt>
      <trkpt lat="49.10478" lon="0.14124">
        <ele>172</ele>
        <time>2024-03-03T08:36:25Z</time>
      </trkpt>
      <trkpt lat="49.10471" lon="0.14125">
        <ele>171.9</ele>
        <time>2024-03-03T08:36:26Z</time>
      </trkpt>
      <trkpt lat="49.10465" lon="0.14126">
        <ele>171.8</ele>
        <time>2024-03-03T08:36:27Z</time>
      </trkpt>
      <trkpt lat="49.10458" lon="0.14127">
        <ele>171.8</ele>
        <time>2024-03-03T08:36:28Z</time>
      </trkpt>
      <trkpt lat="49.10451" lon="0.14128">
        <ele>171.7</ele>
        <time>2024-03-03T08:36:29Z</time>
      </trkpt>
      <trkpt lat="49.10444" lon="0.14128">
        <ele>171.6</ele>
        <time>2024-03-03T08:36:30Z</time>
      </trkpt>
      <trkpt lat="49.10437" lon="0.14129">
        <ele>171.6</ele>
        <time>2024-03-03T08:36:31Z</time>
      </trkpt>
      <trkpt lat="49.1043" lon="0.1413">
        <ele>171.5</ele>
        <time>2024-03-03T08:36:32Z</time>
      </trkpt>
      <trkpt lat="49.10422" lon="0.14131">
        <ele>171.4</ele>
        <time>2024-03-03T08:36:33Z</time>
      </trkpt>
      <trkpt lat="49.10415" lon="0.14131">
        <ele>171.2</ele>
        <time>2024-03-03T08:36:34Z</time>
      </trkpt>
      <trkpt lat="49.10407" lon="0.14132">
        <ele>171.1</ele>
        <time>2024-03-03T08:36:35Z</time>
      </trkpt>
      <trkpt lat="49.104" lon="0.14133">
        <ele>171</ele>
        <time>2024-03-03T08:36:36Z</time>
      </trkpt>
      <trkpt lat="49.10393" lon="0.14134">
        <ele>170.8</ele>
        <time>2024-03-03T08:36:37Z</time>
      </trkpt>
      <trkpt lat="49.10386" lon="0.14135">
        <ele>170.7</ele>
        <time>2024-03-03T08:36:38Z</time>
      </trkpt>
      <trkpt lat="49.10378" lon="0.14137">
        <ele>170.6</ele>
        <time>2024-03-03T08:36:39Z</time>
      </trkpt>
      <trkpt lat="49.10371" lon="0.14139">
        <ele>170.5</ele>
        <time>2024-03-03T08:36:40Z</time>
      </trkpt>
      <trkpt lat="49.10364" lon="0.14141">
        <ele>170.4</ele>
        <time>2024-03-03T08:36:41Z</time>
      </trkpt>
      <trkpt lat="49.10356" lon="0.14143">
        <ele>170.3</ele>
        <time>2024-03-03T08:36:42Z</time>
      </trkpt>
      <trkpt lat="49.10348" lon="0.14144">
        <ele>170.3</ele>
        <time>2024-03-03T08:36:43Z</time>
      </trkpt>
      <trkpt lat="49.10341" lon="0.14145">
        <ele>170.2</ele>
        <time>2024-03-03T08:36:44Z</time>
      </trkpt>
      <trkpt lat="49.10334" lon="0.14146">
        <ele>170.2</ele>
        <time>2024-03-03T08:36:45Z</time>
      </trkpt>
      <trkpt lat="49.10326" lon="0.14147">
        <ele>170.1</ele>
        <time>2024-03-03T08:36:46Z</time>
      </trkpt>
      <trkpt lat="49.10319" lon="0.14149">
        <ele>170.1</ele>
        <time>2024-03-03T08:36:47Z</time>
      </trkpt>
      <trkpt lat="49.10312" lon="0.14151">
        <ele>170.1</ele>
        <time>2024-03-03T08:36:48Z</time>
      </trkpt>
      <trkpt lat="49.10305" lon="0.14152">
        <ele>170.1</ele>
        <time>2024-03-03T08:36:49Z</time>
      </trkpt>
      <trkpt lat="49.10298" lon="0.14153">
        <ele>170.1</ele>
        <time>2024-03-03T08:36:50Z</time>
      </trkpt>
      <trkpt lat="49.10291" lon="0.14155">
        <ele>170.1</ele>
        <time>2024-03-03T08:36:51Z</time>
      </trkpt>
      <trkpt lat="49.10284" lon="0.14157">
        <ele>170.1</ele>
        <time>2024-03-03T08:36:52Z</time>
      </trkpt>
      <trkpt lat="49.10277" lon="0.14159">
        <ele>170</ele>
        <time>2024-03-03T08:36:53Z</time>
      </trkpt>
      <trkpt lat="49.10269" lon="0.14162">
        <ele>170</ele>
        <time>2024-03-03T08:36:54Z</time>
      </trkpt>
      <trkpt lat="49.10262" lon="0.14164">
        <ele>170</ele>
        <time>2024-03-03T08:36:55Z</time>
      </trkpt>
      <trkpt lat="49.10255" lon="0.14167">
        <ele>170</ele>
        <time>2024-03-03T08:36:56Z</time>
      </trkpt>
      <trkpt lat="49.10248" lon="0.1417">
        <ele>170</ele>
        <time>2024-03-03T08:36:57Z</time>
      </trkpt>
      <trkpt lat="49.10241" lon="0.14174">
        <ele>170</ele>
        <time>2024-03-03T08:36:58Z</time>
      </trkpt>
      <trkpt lat="49.10234" lon="0.14178">
        <ele>170</ele>
        <time>2024-03-03T08:36:59Z</time>
      </trkpt>
      <trkpt lat="49.10227" lon="0.14181">
        <ele>170</ele>
        <time>2024-03-03T08:37:00Z</time>
      </trkpt>
      <trkpt lat="49.1022" lon="0.14184">
        <ele>170</ele>
        <time>2024-03-03T08:37:01Z</time>
      </trkpt>
      <trkpt lat="49.10213" lon="0.14187">
        <ele>170</ele>
        <time>2024-03-03T08:37:02Z</time>
      </trkpt>
      <trkpt lat="49.10205" lon="0.1419">
        <ele>170</ele>
        <time>2024-03-03T08:37:03Z</time>
      </trkpt>
      <trkpt lat="49.10198" lon="0.14193">
        <ele>170</ele>
        <time>2024-03-03T08:37:04Z</time>
      </trkpt>
      <trkpt lat="49.10191" lon="0.14197">
        <ele>170</ele>
        <time>2024-03-03T08:37:05Z</time>
      </trkpt>
      <trkpt lat="49.10184" lon="0.142">
        <ele>170</ele>
        <time>2024-03-03T08:37:06Z</time>
      </trkpt>
      <trkpt lat="49.10177" lon="0.14204">
        <ele>169.9</ele>
        <time>2024-03-03T08:37:07Z</time>
      </trkpt>
      <trkpt lat="49.1017" lon="0.14207">
        <ele>169.9</ele>
        <time>2024-03-03T08:37:08Z</time>
      </trkpt>
      <trkpt lat="49.10163" lon="0.1421">
        <ele>169.9</ele>
        <time>2024-03-03T08:37:09Z</time>
      </trkpt>
      <trkpt lat="49.10156" lon="0.14213">
        <ele>169.9</ele>
        <time>2024-03-03T08:37:10Z</time>
      </trkpt>
      <trkpt lat="49.10149" lon="0.14216">
        <ele>169.9</ele>
        <time>2024-03-03T08:37:11Z</time>
      </trkpt>
      <trkpt lat="49.10141" lon="0.1422">
        <ele>169.9</ele>
        <time>2024-03-03T08:37:12Z</time>
      </trkpt>
      <trkpt lat="49.10134" lon="0.14224">
        <ele>169.9</ele>
        <time>2024-03-03T08:37:13Z</time>
      </trkpt>
      <trkpt lat="49.10127" lon="0.14227">
        <ele>169.9</ele>
        <time>2024-03-03T08:37:14Z</time>
      </trkpt>
      <trkpt lat="49.10121" lon="0.14231">
        <ele>169.9</ele>
        <time>2024-03-03T08:37:15Z</time>
      </trkpt>
      <trkpt lat="49.10114" lon="0.14234">
        <ele>169.9</ele>
        <time>2024-03-03T08:37:16Z</time>
      </trkpt>
      <trkpt lat="49.10107" lon="0.14238">
        <ele>169.9</ele>
        <time>2024-03-03T08:37:17Z</time>
      </trkpt>
      <trkpt lat="49.10099" lon="0.14241">
        <ele>169.9</ele>
        <time>2024-03-03T08:37:18Z</time>
      </trkpt>
      <trkpt lat="49.10092" lon="0.14244">
        <ele>169.9</ele>
        <time>2024-03-03T08:37:19Z</time>
      </trkpt>
      <trkpt lat="49.10085" lon="0.14247">
        <ele>169.9</ele>
        <time>2024-03-03T08:37:20Z</time>
      </trkpt>
      <trkpt lat="49.10077" lon="0.14249">
        <ele>169.8</ele>
        <time>2024-03-03T08:37:21Z</time>
      </trkpt>
      <trkpt lat="49.1007" lon="0.14251">
        <ele>169.8</ele>
        <time>2024-03-03T08:37:22Z</time>
      </trkpt>
      <trkpt lat="49.10063" lon="0.14253">
        <ele>169.6</ele>
        <time>2024-03-03T08:37:23Z</time>
      </trkpt>
      <trkpt lat="49.10056" lon="0.14255">
        <ele>169.5</ele>
        <time>2024-03-03T08:37:24Z</time>
      </trkpt>
      <trkpt lat="49.10048" lon="0.14257">
        <ele>169.4</ele>
        <time>2024-03-03T08:37:25Z</time>
      </trkpt>
      <trkpt lat="49.1004" lon="0.14259">
        <ele>169.2</ele>
        <time>2024-03-03T08:37:26Z</time>
      </trkpt>
      <trkpt lat="49.10033" lon="0.14261">
        <ele>169.1</ele>
        <time>2024-03-03T08:37:27Z</time>
      </trkpt>
      <trkpt lat="49.10026" lon="0.14262">
        <ele>169</ele>
        <time>2024-03-03T08:37:28Z</time>
      </trkpt>
      <trkpt lat="49.10019" lon="0.14264">
        <ele>168.8</ele>
        <time>2024-03-03T08:37:29Z</time>
      </trkpt>
      <trkpt lat="49.10013" lon="0.14266">
        <ele>168.7</ele>
        <time>2024-03-03T08:37:30Z</time>
      </trkpt>
      <trkpt lat="49.10006" lon="0.14268">
        <ele>168.5</ele>
        <time>2024-03-03T08:37:31Z</time>
      </trkpt>
      <trkpt lat="49.09998" lon="0.14271">
        <ele>168.4</ele>
        <time>2024-03-03T08:37:32Z</time>
      </trkpt>
      <trkpt lat="49.09991" lon="0.14273">
        <ele>168.2</ele>
        <time>2024-03-03T08:37:33Z</time>
      </trkpt>
      <trkpt lat="49.09984" lon="0.14275">
        <ele>168</ele>
        <time>2024-03-03T08:37:34Z</time>
      </trkpt>
      <trkpt lat="49.09976" lon="0.14278">
        <ele>167.9</ele>
        <time>2024-03-03T08:37:35Z</time>
      </trkpt>
      <trkpt lat="49.09967" lon="0.14279">
        <ele>167.7</ele>
        <time>2024-03-03T08:37:36Z</time>
      </trkpt>
      <trkpt lat="49.09959" lon="0.14281">
        <ele>167.5</ele>
        <time>2024-03-03T08:37:37Z</time>
      </trkpt>
      <trkpt lat="49.09952" lon="0.14284">
        <ele>167.4</ele>
        <time>2024-03-03T08:37:38Z</time>
      </trkpt>
      <trkpt lat="49.09944" lon="0.14287">
        <ele>167.2</ele>
        <time>2024-03-03T08:37:39Z</time>
      </trkpt>
      <trkpt lat="49.09936" lon="0.1429">
        <ele>167.1</ele>
        <time>2024-03-03T08:37:40Z</time>
      </trkpt>
      <trkpt lat="49.09928" lon="0.14293">
        <ele>167</ele>
        <time>2024-03-03T08:37:41Z</time>
      </trkpt>
      <trkpt lat="49.09921" lon="0.14295">
        <ele>166.8</ele>
        <time>2024-03-03T08:37:42Z</time>
      </trkpt>
      <trkpt lat="49.09913" lon="0.14298">
        <ele>166.7</ele>
        <time>2024-03-03T08:37:43Z</time>
      </trkpt>
      <trkpt lat="49.09906" lon="0.143">
        <ele>166.6</ele>
        <time>2024-03-03T08:37:44Z</time>
      </trkpt>
      <trkpt lat="49.09898" lon="0.14302">
        <ele>166.5</ele>
        <time>2024-03-03T08:37:45Z</time>
      </trkpt>
      <trkpt lat="49.0989" lon="0.14305">
        <ele>166.5</ele>
        <time>2024-03-03T08:37:46Z</time>
      </trkpt>
      <trkpt lat="49.09882" lon="0.14308">
        <ele>166.4</ele>
        <time>2024-03-03T08:37:47Z</time>
      </trkpt>
      <trkpt lat="49.09875" lon="0.14311">
        <ele>166.4</ele>
        <time>2024-03-03T08:37:48Z</time>
      </trkpt>
      <trkpt lat="49.09868" lon="0.14313">
        <ele>166.3</ele>
        <time>2024-03-03T08:37:49Z</time>
      </trkpt>
      <trkpt lat="49.09861" lon="0.14315">
        <ele>166.3</ele>
        <time>2024-03-03T08:37:50Z</time>
      </trkpt>
      <trkpt lat="49.09855" lon="0.14318">
        <ele>166.4</ele>
        <time>2024-03-03T08:37:51Z</time>
      </trkpt>
      <trkpt lat="49.09847" lon="0.1432">
        <ele>166.4</ele>
        <time>2024-03-03T08:37:52Z</time>
      </trkpt>
      <trkpt lat="49.0984" lon="0.14323">
        <ele>166.5</ele>
        <time>2024-03-03T08:37:53Z</time>
      </trkpt>
      <trkpt lat="49.09833" lon="0.14325">
        <ele>166.5</ele>
        <time>2024-03-03T08:37:54Z</time>
      </trkpt>
      <trkpt lat="49.09827" lon="0.14328">
        <ele>166.6</ele>
        <time>2024-03-03T08:37:55Z</time>
      </trkpt>
      <trkpt lat="49.0982" lon="0.14331">
        <ele>166.6</ele>
        <time>2024-03-03T08:37:56Z</time>
      </trkpt>
      <trkpt lat="49.09814" lon="0.14335">
        <ele>166.7</ele>
        <time>2024-03-03T08:37:57Z</time>
      </trkpt>
      <trkpt lat="49.09808" lon="0.14339">
        <ele>166.7</ele>
        <time>2024-03-03T08:37:58Z</time>
      </trkpt>
      <trkpt lat="49.09801" lon="0.14345">
        <ele>166.8</ele>
        <time>2024-03-03T08:37:59Z</time>
      </trkpt>
      <trkpt lat="49.09795" lon="0.1435">
        <ele>166.9</ele>
        <time>2024-03-03T08:38:00Z</time>
      </trkpt>
      <trkpt lat="49.09789" lon="0.14357">
        <ele>166.9</ele>
        <time>2024-03-03T08:38:01Z</time>
      </trkpt>
      <trkpt lat="49.09783" lon="0.14363">
        <ele>167</ele>
        <time>2024-03-03T08:38:02Z</time>
      </trkpt>
      <trkpt lat="49.09777" lon="0.14369">
        <ele>167.1</ele>
        <time>2024-03-03T08:38:03Z</time>
      </trkpt>
      <trkpt lat="49.09772" lon="0.14375">
        <ele>167.1</ele>
        <time>2024-03-03T08:38:04Z</time>
      </trkpt>
      <trkpt lat="49.09766" lon="0.14382">
        <ele>167.1</ele>
        <time>2024-03-03T08:38:05Z</time>
      </trkpt>
      <trkpt lat="49.0976" lon="0.14389">
        <ele>167.1</ele>
        <time>2024-03-03T08:38:06Z</time>
      </trkpt>
      <trkpt lat="49.09754" lon="0.14396">
        <ele>167.2</ele>
        <time>2024-03-03T08:38:07Z</time>
      </trkpt>
      <trkpt lat="49.09748" lon="0.14403">
        <ele>167.3</ele>
        <time>2024-03-03T08:38:08Z</time>
      </trkpt>
      <trkpt lat="49.09742" lon="0.1441">
        <ele>167.4</ele>
        <time>2024-03-03T08:38:09Z</time>
      </trkpt>
      <trkpt lat="49.09737" lon="0.14417">
        <ele>167.5</ele>
        <time>2024-03-03T08:38:10Z</time>
      </trkpt>
      <trkpt lat="49.09732" lon="0.14424">
        <ele>167.6</ele>
        <time>2024-03-03T08:38:11Z</time>
      </trkpt>
      <trkpt lat="49.09726" lon="0.1443">
        <ele>167.8</ele>
        <time>2024-03-03T08:38:12Z</time>
      </trkpt>
      <trkpt lat="49.0972" lon="0.14437">
        <ele>167.9</ele>
        <time>2024-03-03T08:38:13Z</time>
      </trkpt>
      <trkpt lat="49.09714" lon="0.14444">
        <ele>168</ele>
        <time>2024-03-03T08:38:14Z</time>
      </trkpt>
      <trkpt lat="49.09709" lon="0.1445">
        <ele>168.2</ele>
        <time>2024-03-03T08:38:15Z</time>
      </trkpt>
      <trkpt lat="49.09704" lon="0.14456">
        <ele>168.3</ele>
        <time>2024-03-03T08:38:16Z</time>
      </trkpt>
      <trkpt lat="49.09698" lon="0.14462">
        <ele>168.4</ele>
        <time>2024-03-03T08:38:17Z</time>
      </trkpt>
      <trkpt lat="49.09692" lon="0.14468">
        <ele>168.5</ele>
        <time>2024-03-03T08:38:18Z</time>
      </trkpt>
      <trkpt lat="49.09687" lon="0.14475">
        <ele>168.6</ele>
        <time>2024-03-03T08:38:19Z</time>
      </trkpt>
      <trkpt lat="49.09681" lon="0.1448">
        <ele>168.7</ele>
        <time>2024-03-03T08:38:20Z</time>
      </trkpt>
      <trkpt lat="49.09674" lon="0.14485">
        <ele>168.9</ele>
        <time>2024-03-03T08:38:21Z</time>
      </trkpt>
      <trkpt lat="49.09668" lon="0.1449">
        <ele>168.9</ele>
        <time>2024-03-03T08:38:22Z</time>
      </trkpt>
      <trkpt lat="49.09661" lon="0.14495">
        <ele>169</ele>
        <time>2024-03-03T08:38:23Z</time>
      </trkpt>
      <trkpt lat="49.09655" lon="0.14499">
        <ele>169.1</ele>
        <time>2024-03-03T08:38:24Z</time>
      </trkpt>
      <trkpt lat="49.09648" lon="0.14504">
        <ele>169.2</ele>
        <time>2024-03-03T08:38:25Z</time>
      </trkpt>
      <trkpt lat="49.09642" lon="0.14508">
        <ele>169.3</ele>
        <time>2024-03-03T08:38:26Z</time>
      </trkpt>
      <trkpt lat="49.09635" lon="0.14512">
        <ele>169.4</ele>
        <time>2024-03-03T08:38:27Z</time>
      </trkpt>
      <trkpt lat="49.09629" lon="0.14516">
        <ele>169.4</ele>
        <time>2024-03-03T08:38:28Z</time>
      </trkpt>
      <trkpt lat="49.09622" lon="0.1452">
        <ele>169.5</ele>
        <time>2024-03-03T08:38:29Z</time>
      </trkpt>
      <trkpt lat="49.09616" lon="0.14524">
        <ele>169.6</ele>
        <time>2024-03-03T08:38:30Z</time>
      </trkpt>
      <trkpt lat="49.09609" lon="0.14528">
        <ele>169.7</ele>
        <time>2024-03-03T08:38:31Z</time>
      </trkpt>
      <trkpt lat="49.09602" lon="0.14531">
        <ele>169.7</ele>
        <time>2024-03-03T08:38:32Z</time>
      </trkpt>
      <trkpt lat="49.09596" lon="0.14534">
        <ele>169.8</ele>
        <time>2024-03-03T08:38:33Z</time>
      </trkpt>
      <trkpt lat="49.0959" lon="0.14536">
        <ele>169.9</ele>
        <time>2024-03-03T08:38:34Z</time>
      </trkpt>
      <trkpt lat="49.09583" lon="0.14539">
        <ele>170</ele>
        <time>2024-03-03T08:38:35Z</time>
      </trkpt>
      <trkpt lat="49.09577" lon="0.14542">
        <ele>170</ele>
        <time>2024-03-03T08:38:36Z</time>
      </trkpt>
      <trkpt lat="49.09571" lon="0.14544">
        <ele>170.1</ele>
        <time>2024-03-03T08:38:37Z</time>
      </trkpt>
      <trkpt lat="49.09565" lon="0.14547">
        <ele>170.2</ele>
        <time>2024-03-03T08:38:38Z</time>
      </trkpt>
      <trkpt lat="49.0956" lon="0.14549">
        <ele>170.2</ele>
        <time>2024-03-03T08:38:39Z</time>
      </trkpt>
      <trkpt lat="49.09554" lon="0.1455">
        <ele>170.3</ele>
        <time>2024-03-03T08:38:40Z</time>
      </trkpt>
      <trkpt lat="49.09549" lon="0.14551">
        <ele>170.4</ele>
        <time>2024-03-03T08:38:41Z</time>
      </trkpt>
      <trkpt lat="49.09544" lon="0.14552">
        <ele>170.4</ele>
        <time>2024-03-03T08:38:42Z</time>
      </trkpt>
      <trkpt lat="49.09539" lon="0.14553">
        <ele>170.5</ele>
        <time>2024-03-03T08:38:43Z</time>
      </trkpt>
      <trkpt lat="49.09533" lon="0.14555">
        <ele>170.6</ele>
        <time>2024-03-03T08:38:44Z</time>
      </trkpt>
      <trkpt lat="49.09528" lon="0.14556">
        <ele>170.7</ele>
        <time>2024-03-03T08:38:45Z</time>
      </trkpt>
      <trkpt lat="49.09522" lon="0.14556">
        <ele>170.7</ele>
        <time>2024-03-03T08:38:46Z</time>
      </trkpt>
      <trkpt lat="49.09515" lon="0.14557">
        <ele>170.8</ele>
        <time>2024-03-03T08:38:47Z</time>
      </trkpt>
      <trkpt lat="49.09508" lon="0.14559">
        <ele>170.9</ele>
        <time>2024-03-03T08:38:48Z</time>
      </trkpt>
      <trkpt lat="49.09501" lon="0.14559">
        <ele>171</ele>
        <time>2024-03-03T08:38:49Z</time>
      </trkpt>
      <trkpt lat="49.09494" lon="0.1456">
        <ele>171.1</ele>
        <time>2024-03-03T08:38:50Z</time>
      </trkpt>
      <trkpt lat="49.09487" lon="0.14561">
        <ele>171.2</ele>
        <time>2024-03-03T08:38:51Z</time>
      </trkpt>
      <trkpt lat="49.09481" lon="0.14562">
        <ele>171.2</ele>
        <time>2024-03-03T08:38:52Z</time>
      </trkpt>
      <trkpt lat="49.09474" lon="0.14562">
        <ele>171.3</ele>
        <time>2024-03-03T08:38:53Z</time>
      </trkpt>
      <trkpt lat="49.09468" lon="0.14562">
        <ele>171.3</ele>
        <time>2024-03-03T08:38:54Z</time>
      </trkpt>
      <trkpt lat="49.09461" lon="0.14563">
        <ele>171.4</ele>
        <time>2024-03-03T08:38:55Z</time>
      </trkpt>
      <trkpt lat="49.09454" lon="0.14563">
        <ele>171.4</ele>
        <time>2024-03-03T08:38:56Z</time>
      </trkpt>
      <trkpt lat="49.09447" lon="0.14563">
        <ele>171.4</ele>
        <time>2024-03-03T08:38:57Z</time>
      </trkpt>
      <trkpt lat="49.0944" lon="0.14563">
        <ele>171.4</ele>
        <time>2024-03-03T08:38:58Z</time>
      </trkpt>
      <trkpt lat="49.09432" lon="0.14563">
        <ele>171.4</ele>
        <time>2024-03-03T08:38:59Z</time>
      </trkpt>
      <trkpt lat="49.09425" lon="0.14564">
        <ele>171.4</ele>
        <time>2024-03-03T08:39:00Z</time>
      </trkpt>
      <trkpt lat="49.09419" lon="0.14564">
        <ele>171.4</ele>
        <time>2024-03-03T08:39:01Z</time>
      </trkpt>
      <trkpt lat="49.09412" lon="0.14565">
        <ele>171.4</ele>
        <time>2024-03-03T08:39:02Z</time>
      </trkpt>
      <trkpt lat="49.09406" lon="0.14566">
        <ele>171.3</ele>
        <time>2024-03-03T08:39:03Z</time>
      </trkpt>
      <trkpt lat="49.09399" lon="0.14566">
        <ele>171.3</ele>
        <time>2024-03-03T08:39:04Z</time>
      </trkpt>
      <trkpt lat="49.09392" lon="0.14565">
        <ele>171.3</ele>
        <time>2024-03-03T08:39:05Z</time>
      </trkpt>
      <trkpt lat="49.09385" lon="0.14564">
        <ele>171.3</ele>
        <time>2024-03-03T08:39:06Z</time>
      </trkpt>
      <trkpt lat="49.09378" lon="0.14563">
        <ele>171.3</ele>
        <time>2024-03-03T08:39:07Z</time>
      </trkpt>
      <trkpt lat="49.09371" lon="0.14562">
        <ele>171.4</ele>
        <time>2024-03-03T08:39:08Z</time>
      </trkpt>
      <trkpt lat="49.09364" lon="0.14561">
        <ele>171.4</ele>
        <time>2024-03-03T08:39:09Z</time>
      </trkpt>
      <trkpt lat="49.09356" lon="0.1456">
        <ele>171.4</ele>
        <time>2024-03-03T08:39:10Z</time>
      </trkpt>
      <trkpt lat="49.09348" lon="0.14559">
        <ele>171.4</ele>
        <time>2024-03-03T08:39:11Z</time>
      </trkpt>
      <trkpt lat="49.09341" lon="0.1456">
        <ele>171.4</ele>
        <time>2024-03-03T08:39:12Z</time>
      </trkpt>
      <trkpt lat="49.09334" lon="0.14561">
        <ele>171.4</ele>
        <time>2024-03-03T08:39:13Z</time>
      </trkpt>
      <trkpt lat="49.09326" lon="0.14562">
        <ele>171.3</ele>
        <time>2024-03-03T08:39:14Z</time>
      </trkpt>
      <trkpt lat="49.09319" lon="0.14563">
        <ele>171.3</ele>
        <time>2024-03-03T08:39:15Z</time>
      </trkpt>
      <trkpt lat="49.09312" lon="0.14564">
        <ele>171.3</ele>
        <time>2024-03-03T08:39:16Z</time>
      </trkpt>
      <trkpt lat="49.09305" lon="0.14566">
        <ele>171.3</ele>
        <time>2024-03-03T08:39:17Z</time>
      </trkpt>
      <trkpt lat="49.09297" lon="0.14568">
        <ele>171.3</ele>
        <time>2024-03-03T08:39:18Z</time>
      </trkpt>
      <trkpt lat="49.09289" lon="0.1457">
        <ele>171.3</ele>
        <time>2024-03-03T08:39:19Z</time>
      </trkpt>
      <trkpt lat="49.09282" lon="0.14573">
        <ele>171.3</ele>
        <time>2024-03-03T08:39:20Z</time>
      </trkpt>
      <trkpt lat="49.09275" lon="0.14575">
        <ele>171.4</ele>
        <time>2024-03-03T08:39:21Z</time>
      </trkpt>
      <trkpt lat="49.09268" lon="0.14578">
        <ele>171.4</ele>
        <time>2024-03-03T08:39:22Z</time>
      </trkpt>
      <trkpt lat="49.09262" lon="0.1458">
        <ele>171.4</ele>
        <time>2024-03-03T08:39:23Z</time>
      </trkpt>
      <trkpt lat="49.09255" lon="0.14582">
        <ele>171.5</ele>
        <time>2024-03-03T08:39:24Z</time>
      </trkpt>
      <trkpt lat="49.09248" lon="0.14583">
        <ele>171.5</ele>
        <time>2024-03-03T08:39:25Z</time>
      </trkpt>
      <trkpt lat="49.09241" lon="0.14586">
        <ele>171.6</ele>
        <time>2024-03-03T08:39:26Z</time>
      </trkpt>
      <trkpt lat="49.09235" lon="0.14588">
        <ele>171.6</ele>
        <time>2024-03-03T08:39:27Z</time>
      </trkpt>
      <trkpt lat="49.09229" lon="0.1459">
        <ele>171.7</ele>
        <time>2024-03-03T08:39:28Z</time>
      </trkpt>
      <trkpt lat="49.09223" lon="0.14592">
        <ele>171.7</ele>
        <time>2024-03-03T08:39:29Z</time>
      </trkpt>
      <trkpt lat="49.09216" lon="0.14594">
        <ele>171.8</ele>
        <time>2024-03-03T08:39:30Z</time>
      </trkpt>
      <trkpt lat="49.0921" lon="0.14595">
        <ele>171.8</ele>
        <time>2024-03-03T08:39:31Z</time>
      </trkpt>
      <trkpt lat="49.09204" lon="0.14598">
        <ele>171.8</ele>
        <time>2024-03-03T08:39:32Z</time>
      </trkpt>
      <trkpt lat="49.09198" lon="0.14601">
        <ele>171.9</ele>
        <time>2024-03-03T08:39:33Z</time>
      </trkpt>
      <trkpt lat="49.09192" lon="0.14604">
        <ele>171.9</ele>
        <time>2024-03-03T08:39:34Z</time>
      </trkpt>
      <trkpt lat="49.09185" lon="0.14607">
        <ele>172</ele>
        <time>2024-03-03T08:39:35Z</time>
      </trkpt>
      <trkpt lat="49.09179" lon="0.1461">
        <ele>172.1</ele>
        <time>2024-03-03T08:39:36Z</time>
      </trkpt>
      <trkpt lat="49.09171" lon="0.14613">
        <ele>172.1</ele>
        <time>2024-03-03T08:39:37Z</time>
      </trkpt>
      <trkpt lat="49.09164" lon="0.14617">
        <ele>172.2</ele>
        <time>2024-03-03T08:39:38Z</time>
      </trkpt>
      <trkpt lat="49.09158" lon="0.1462">
        <ele>172.2</ele>
        <time>2024-03-03T08:39:39Z</time>
      </trkpt>
      <trkpt lat="49.09151" lon="0.14625">
        <ele>172.3</ele>
        <time>2024-03-03T08:39:40Z</time>
      </trkpt>
      <trkpt lat="49.09144" lon="0.1463">
        <ele>172.3</ele>
        <time>2024-03-03T08:39:41Z</time>
      </trkpt>
      <trkpt lat="49.09137" lon="0.14635">
        <ele>172.4</ele>
        <time>2024-03-03T08:39:42Z</time>
      </trkpt>
      <trkpt lat="49.09131" lon="0.14639">
        <ele>172.4</ele>
        <time>2024-03-03T08:39:43Z</time>
      </trkpt>
      <trkpt lat="49.09124" lon="0.14643">
        <ele>172.4</ele>
        <time>2024-03-03T08:39:44Z</time>
      </trkpt>
      <trkpt lat="49.09117" lon="0.14647">
        <ele>172.5</ele>
        <time>2024-03-03T08:39:45Z</time>
      </trkpt>
      <trkpt lat="49.09111" lon="0.14652">
        <ele>172.5</ele>
        <time>2024-03-03T08:39:46Z</time>
      </trkpt>
      <trkpt lat="49.09104" lon="0.14657">
        <ele>172.5</ele>
        <time>2024-03-03T08:39:47Z</time>
      </trkpt>
      <trkpt lat="49.09098" lon="0.14661">
        <ele>172.5</ele>
        <time>2024-03-03T08:39:48Z</time>
      </trkpt>
      <trkpt lat="49.09091" lon="0.14666">
        <ele>172.5</ele>
        <time>2024-03-03T08:39:49Z</time>
      </trkpt>
      <trkpt lat="49.09084" lon="0.14671">
        <ele>172.5</ele>
        <time>2024-03-03T08:39:50Z</time>
      </trkpt>
      <trkpt lat="49.09077" lon="0.14676">
        <ele>172.5</ele>
        <time>2024-03-03T08:39:51Z</time>
      </trkpt>
      <trkpt lat="49.0907" lon="0.14681">
        <ele>172.4</ele>
        <time>2024-03-03T08:39:52Z</time>
      </trkpt>
      <trkpt lat="49.09064" lon="0.14685">
        <ele>172.4</ele>
        <time>2024-03-03T08:39:53Z</time>
      </trkpt>
      <trkpt lat="49.09059" lon="0.1469">
        <ele>172.4</ele>
        <time>2024-03-03T08:39:54Z</time>
      </trkpt>
      <trkpt lat="49.09053" lon="0.14693">
        <ele>172.4</ele>
        <time>2024-03-03T08:39:55Z</time>
      </trkpt>
      <trkpt lat="49.09048" lon="0.14696">
        <ele>172.4</ele>
        <time>2024-03-03T08:39:56Z</time>
      </trkpt>
      <trkpt lat="49.09042" lon="0.14699">
        <ele>172.4</ele>
        <time>2024-03-03T08:39:57Z</time>
      </trkpt>
      <trkpt lat="49.09036" lon="0.14702">
        <ele>172.4</ele>
        <time>2024-03-03T08:39:58Z</time>
      </trkpt>
      <trkpt lat="49.0903" lon="0.14706">
        <ele>172.4</ele>
        <time>2024-03-03T08:39:59Z</time>
      </trkpt>
      <trkpt lat="49.09024" lon="0.14709">
        <ele>172.4</ele>
        <time>2024-03-03T08:40:00Z</time>
      </trkpt>
      <trkpt lat="49.09018" lon="0.14714">
        <ele>172.4</ele>
        <time>2024-03-03T08:40:01Z</time>
      </trkpt>
      <trkpt lat="49.09011" lon="0.14719">
        <ele>172.4</ele>
        <time>2024-03-03T08:40:02Z</time>
      </trkpt>
      <trkpt lat="49.09004" lon="0.14724">
        <ele>172.4</ele>
        <time>2024-03-03T08:40:03Z</time>
      </trkpt>
      <trkpt lat="49.08996" lon="0.14729">
        <ele>172.3</ele>
        <time>2024-03-03T08:40:04Z</time>
      </trkpt>
      <trkpt lat="49.08989" lon="0.14734">
        <ele>172.3</ele>
        <time>2024-03-03T08:40:05Z</time>
      </trkpt>
      <trkpt lat="49.08982" lon="0.14739">
        <ele>172.3</ele>
        <time>2024-03-03T08:40:06Z</time>
      </trkpt>
      <trkpt lat="49.08976" lon="0.14744">
        <ele>172.3</ele>
        <time>2024-03-03T08:40:07Z</time>
      </trkpt>
      <trkpt lat="49.0897" lon="0.14749">
        <ele>172.3</ele>
        <time>2024-03-03T08:40:08Z</time>
      </trkpt>
      <trkpt lat="49.08963" lon="0.14753">
        <ele>172.2</ele>
        <time>2024-03-03T08:40:09Z</time>
      </trkpt>
      <trkpt lat="49.08957" lon="0.14757">
        <ele>172.2</ele>
        <time>2024-03-03T08:40:10Z</time>
      </trkpt>
      <trkpt lat="49.08952" lon="0.14761">
        <ele>172.2</ele>
        <time>2024-03-03T08:40:11Z</time>
      </trkpt>
      <trkpt lat="49.08947" lon="0.14764">
        <ele>172.2</ele>
        <time>2024-03-03T08:40:12Z</time>
      </trkpt>
      <trkpt lat="49.08943" lon="0.14767">
        <ele>172.2</ele>
        <time>2024-03-03T08:40:13Z</time>
      </trkpt>
      <trkpt lat="49.08937" lon="0.14771">
        <ele>172.1</ele>
        <time>2024-03-03T08:40:14Z</time>
      </trkpt>
      <trkpt lat="49.08932" lon="0.14774">
        <ele>172.1</ele>
        <time>2024-03-03T08:40:15Z</time>
      </trkpt>
      <trkpt lat="49.08926" lon="0.14777">
        <ele>172</ele>
        <time>2024-03-03T08:40:16Z</time>
      </trkpt>
      <trkpt lat="49.08921" lon="0.1478">
        <ele>171.9</ele>
        <time>2024-03-03T08:40:17Z</time>
      </trkpt>
      <trkpt lat="49.08916" lon="0.14783">
        <ele>171.8</ele>
        <time>2024-03-03T08:40:18Z</time>
      </trkpt>
      <trkpt lat="49.08911" lon="0.14787">
        <ele>171.6</ele>
        <time>2024-03-03T08:40:19Z</time>
      </trkpt>
      <trkpt lat="49.08905" lon="0.14793">
        <ele>171.5</ele>
        <time>2024-03-03T08:40:20Z</time>
      </trkpt>
      <trkpt lat="49.08899" lon="0.14797">
        <ele>171.4</ele>
        <time>2024-03-03T08:40:21Z</time>
      </trkpt>
      <trkpt lat="49.08892" lon="0.14801">
        <ele>171.3</ele>
        <time>2024-03-03T08:40:22Z</time>
      </trkpt>
      <trkpt lat="49.08885" lon="0.14804">
        <ele>171.2</ele>
        <time>2024-03-03T08:40:23Z</time>
      </trkpt>
      <trkpt lat="49.08879" lon="0.14808">
        <ele>171.1</ele>
        <time>2024-03-03T08:40:24Z</time>
      </trkpt>
      <trkpt lat="49.08872" lon="0.14813">
        <ele>171</ele>
        <time>2024-03-03T08:40:25Z</time>
      </trkpt>
      <trkpt lat="49.08865" lon="0.14818">
        <ele>170.9</ele>
        <time>2024-03-03T08:40:26Z</time>
      </trkpt>
      <trkpt lat="49.08857" lon="0.14823">
        <ele>170.7</ele>
        <time>2024-03-03T08:40:27Z</time>
      </trkpt>
      <trkpt lat="49.0885" lon="0.14828">
        <ele>170.6</ele>
        <time>2024-03-03T08:40:28Z</time>
      </trkpt>
      <trkpt lat="49.08842" lon="0.14833">
        <ele>170.5</ele>
        <time>2024-03-03T08:40:29Z</time>
      </trkpt>
      <trkpt lat="49.08834" lon="0.14839">
        <ele>170.4</ele>
        <time>2024-03-03T08:40:30Z</time>
      </trkpt>
      <trkpt lat="49.08826" lon="0.14844">
        <ele>170.3</ele>
        <time>2024-03-03T08:40:31Z</time>
      </trkpt>
      <trkpt lat="49.08816" lon="0.14852">
        <ele>170.2</ele>
        <time>2024-03-03T08:40:32Z</time>
      </trkpt>
      <trkpt lat="49.08805" lon="0.14862">
        <ele>170.1</ele>
        <time>2024-03-03T08:40:33Z</time>
      </trkpt>
      <trkpt lat="49.08792" lon="0.14873">
        <ele>169.9</ele>
        <time>2024-03-03T08:40:34Z</time>
      </trkpt>
      <trkpt lat="49.08782" lon="0.1488">
        <ele>169.8</ele>
        <time>2024-03-03T08:40:35Z</time>
      </trkpt>
      <trkpt lat="49.08773" lon="0.14887">
        <ele>169.7</ele>
        <time>2024-03-03T08:40:36Z</time>
      </trkpt>
      <trkpt lat="49.08764" lon="0.14894">
        <ele>169.6</ele>
        <time>2024-03-03T08:40:37Z</time>
      </trkpt>
      <trkpt lat="49.08756" lon="0.149">
        <ele>169.5</ele>
        <time>2024-03-03T08:40:38Z</time>
      </trkpt>
      <trkpt lat="49.08749" lon="0.14906">
        <ele>169.5</ele>
        <time>2024-03-03T08:40:39Z</time>
      </trkpt>
      <trkpt lat="49.08741" lon="0.14912">
        <ele>169.4</ele>
        <time>2024-03-03T08:40:40Z</time>
      </trkpt>
      <trkpt lat="49.08733" lon="0.14917">
        <ele>169.3</ele>
        <time>2024-03-03T08:40:41Z</time>
      </trkpt>
      <trkpt lat="49.08726" lon="0.14922">
        <ele>169.2</ele>
        <time>2024-03-03T08:40:42Z</time>
      </trkpt>
      <trkpt lat="49.08718" lon="0.14928">
        <ele>169.2</ele>
        <time>2024-03-03T08:40:43Z</time>
      </trkpt>
      <trkpt lat="49.08711" lon="0.14935">
        <ele>169.1</ele>
        <time>2024-03-03T08:40:44Z</time>
      </trkpt>
      <trkpt lat="49.08704" lon="0.14942">
        <ele>169</ele>
        <time>2024-03-03T08:40:45Z</time>
      </trkpt>
      <trkpt lat="49.08697" lon="0.14949">
        <ele>169</ele>
        <time>2024-03-03T08:40:46Z</time>
      </trkpt>
      <trkpt lat="49.0869" lon="0.14954">
        <ele>168.9</ele>
        <time>2024-03-03T08:40:47Z</time>
      </trkpt>
      <trkpt lat="49.08683" lon="0.1496">
        <ele>168.8</ele>
        <time>2024-03-03T08:40:48Z</time>
      </trkpt>
      <trkpt lat="49.08676" lon="0.14966">
        <ele>168.7</ele>
        <time>2024-03-03T08:40:49Z</time>
      </trkpt>
      <trkpt lat="49.08669" lon="0.14972">
        <ele>168.6</ele>
        <time>2024-03-03T08:40:50Z</time>
      </trkpt>
      <trkpt lat="49.08663" lon="0.14978">
        <ele>168.5</ele>
        <time>2024-03-03T08:40:51Z</time>
      </trkpt>
      <trkpt lat="49.08656" lon="0.14985">
        <ele>168.4</ele>
        <time>2024-03-03T08:40:52Z</time>
      </trkpt>
      <trkpt lat="49.08649" lon="0.14991">
        <ele>168.2</ele>
        <time>2024-03-03T08:40:53Z</time>
      </trkpt>
      <trkpt lat="49.08642" lon="0.14998">
        <ele>168.1</ele>
        <time>2024-03-03T08:40:54Z</time>
      </trkpt>
      <trkpt lat="49.08635" lon="0.15004">
        <ele>168</ele>
        <time>2024-03-03T08:40:55Z</time>
      </trkpt>
      <trkpt lat="49.08629" lon="0.15009">
        <ele>167.8</ele>
        <time>2024-03-03T08:40:56Z</time>
      </trkpt>
      <trkpt lat="49.08622" lon="0.15014">
        <ele>167.6</ele>
        <time>2024-03-03T08:40:57Z</time>
      </trkpt>
      <trkpt lat="49.08614" lon="0.1502">
        <ele>167.5</ele>
        <time>2024-03-03T08:40:58Z</time>
      </trkpt>
      <trkpt lat="49.08607" lon="0.15027">
        <ele>167.3</ele>
        <time>2024-03-03T08:40:59Z</time>
      </trkpt>
      <trkpt lat="49.086" lon="0.15033">
        <ele>167.2</ele>
        <time>2024-03-03T08:41:00Z</time>
      </trkpt>
      <trkpt lat="49.08592" lon="0.1504">
        <ele>167.1</ele>
        <time>2024-03-03T08:41:01Z</time>
      </trkpt>
      <trkpt lat="49.08585" lon="0.15048">
        <ele>167</ele>
        <time>2024-03-03T08:41:02Z</time>
      </trkpt>
      <trkpt lat="49.08578" lon="0.15055">
        <ele>166.9</ele>
        <time>2024-03-03T08:41:03Z</time>
      </trkpt>
      <trkpt lat="49.08571" lon="0.15062">
        <ele>166.8</ele>
        <time>2024-03-03T08:41:04Z</time>
      </trkpt>
      <trkpt lat="49.08563" lon="0.15069">
        <ele>166.8</ele>
        <time>2024-03-03T08:41:05Z</time>
      </trkpt>
      <trkpt lat="49.08556" lon="0.15074">
        <ele>166.7</ele>
        <time>2024-03-03T08:41:06Z</time>
      </trkpt>
      <trkpt lat="49.08549" lon="0.15079">
        <ele>166.7</ele>
        <time>2024-03-03T08:41:07Z</time>
      </trkpt>
      <trkpt lat="49.08542" lon="0.15084">
        <ele>166.6</ele>
        <time>2024-03-03T08:41:08Z</time>
      </trkpt>
      <trkpt lat="49.08535" lon="0.15088">
        <ele>166.6</ele>
        <time>2024-03-03T08:41:09Z</time>
      </trkpt>
      <trkpt lat="49.08527" lon="0.15093">
        <ele>166.6</ele>
        <time>2024-03-03T08:41:10Z</time>
      </trkpt>
      <trkpt lat="49.0852" lon="0.15097">
        <ele>166.6</ele>
        <time>2024-03-03T08:41:11Z</time>
      </trkpt>
      <trkpt lat="49.08513" lon="0.151">
        <ele>166.7</ele>
        <time>2024-03-03T08:41:12Z</time>
      </trkpt>
      <trkpt lat="49.08506" lon="0.15104">
        <ele>166.7</ele>
        <time>2024-03-03T08:41:13Z</time>
      </trkpt>
      <trkpt lat="49.08499" lon="0.15107">
        <ele>166.7</ele>
        <time>2024-03-03T08:41:14Z</time>
      </trkpt>
      <trkpt lat="49.08491" lon="0.15111">
        <ele>166.7</ele>
        <time>2024-03-03T08:41:15Z</time>
      </trkpt>
      <trkpt lat="49.08484" lon="0.15114">
        <ele>166.7</ele>
        <time>2024-03-03T08:41:16Z</time>
      </trkpt>
      <trkpt lat="49.08478" lon="0.15118">
        <ele>166.8</ele>
        <time>2024-03-03T08:41:17Z</time>
      </trkpt>
      <trkpt lat="49.0847" lon="0.15122">
        <ele>166.8</ele>
        <time>2024-03-03T08:41:18Z</time>
      </trkpt>
      <trkpt lat="49.08463" lon="0.15125">
        <ele>166.8</ele>
        <time>2024-03-03T08:41:19Z</time>
      </trkpt>
      <trkpt lat="49.08456" lon="0.15128">
        <ele>166.8</ele>
        <time>2024-03-03T08:41:20Z</time>
      </trkpt>
      <trkpt lat="49.0845" lon="0.15131">
        <ele>166.9</ele>
        <time>2024-03-03T08:41:21Z</time>
      </trkpt>
      <trkpt lat="49.08444" lon="0.15133">
        <ele>166.9</ele>
        <time>2024-03-03T08:41:22Z</time>
      </trkpt>
      <trkpt lat="49.08438" lon="0.15136">
        <ele>167</ele>
        <time>2024-03-03T08:41:23Z</time>
      </trkpt>
      <trkpt lat="49.08432" lon="0.15138">
        <ele>167</ele>
        <time>2024-03-03T08:41:24Z</time>
      </trkpt>
      <trkpt lat="49.08426" lon="0.1514">
        <ele>167.1</ele>
        <time>2024-03-03T08:41:25Z</time>
      </trkpt>
      <trkpt lat="49.0842" lon="0.15142">
        <ele>167.1</ele>
        <time>2024-03-03T08:41:26Z</time>
      </trkpt>
      <trkpt lat="49.08414" lon="0.15145">
        <ele>167.2</ele>
        <time>2024-03-03T08:41:27Z</time>
      </trkpt>
      <trkpt lat="49.08408" lon="0.15146">
        <ele>167.2</ele>
        <time>2024-03-03T08:41:28Z</time>
      </trkpt>
      <trkpt lat="49.08402" lon="0.15149">
        <ele>167.3</ele>
        <time>2024-03-03T08:41:29Z</time>
      </trkpt>
      <trkpt lat="49.08396" lon="0.15151">
        <ele>167.3</ele>
        <time>2024-03-03T08:41:30Z</time>
      </trkpt>
      <trkpt lat="49.0839" lon="0.15154">
        <ele>167.4</ele>
        <time>2024-03-03T08:41:31Z</time>
      </trkpt>
      <trkpt lat="49.08384" lon="0.15156">
        <ele>167.4</ele>
        <time>2024-03-03T08:41:32Z</time>
      </trkpt>
      <trkpt lat="49.08378" lon="0.15159">
        <ele>167.5</ele>
        <time>2024-03-03T08:41:33Z</time>
      </trkpt>
      <trkpt lat="49.08372" lon="0.15161">
        <ele>167.5</ele>
        <time>2024-03-03T08:41:34Z</time>
      </trkpt>
      <trkpt lat="49.08366" lon="0.15163">
        <ele>167.6</ele>
        <time>2024-03-03T08:41:35Z</time>
      </trkpt>
      <trkpt lat="49.08361" lon="0.15165">
        <ele>167.6</ele>
        <time>2024-03-03T08:41:36Z</time>
      </trkpt>
      <trkpt lat="49.08356" lon="0.15165">
        <ele>167.6</ele>
        <time>2024-03-03T08:41:37Z</time>
      </trkpt>
      <trkpt lat="49.08351" lon="0.15167">
        <ele>167.7</ele>
        <time>2024-03-03T08:41:38Z</time>
      </trkpt>
      <trkpt lat="49.08345" lon="0.15169">
        <ele>167.7</ele>
        <time>2024-03-03T08:41:39Z</time>
      </trkpt>
      <trkpt lat="49.0834" lon="0.1517">
        <ele>167.7</ele>
        <time>2024-03-03T08:41:40Z</time>
      </trkpt>
      <trkpt lat="49.08334" lon="0.15172">
        <ele>167.8</ele>
        <time>2024-03-03T08:41:41Z</time>
      </trkpt>
      <trkpt lat="49.08329" lon="0.15173">
        <ele>167.8</ele>
        <time>2024-03-03T08:41:42Z</time>
      </trkpt>
      <trkpt lat="49.08323" lon="0.15175">
        <ele>167.8</ele>
        <time>2024-03-03T08:41:43Z</time>
      </trkpt>
      <trkpt lat="49.08317" lon="0.15178">
        <ele>167.8</ele>
        <time>2024-03-03T08:41:44Z</time>
      </trkpt>
      <trkpt lat="49.0831" lon="0.15181">
        <ele>167.8</ele>
        <time>2024-03-03T08:41:45Z</time>
      </trkpt>
      <trkpt lat="49.08303" lon="0.15184">
        <ele>167.8</ele>
        <time>2024-03-03T08:41:46Z</time>
      </trkpt>
      <trkpt lat="49.08296" lon="0.15188">
        <ele>167.8</ele>
        <time>2024-03-03T08:41:47Z</time>
      </trkpt>
      <trkpt lat="49.08288" lon="0.15192">
        <ele>167.8</ele>
        <time>2024-03-03T08:41:48Z</time>
      </trkpt>
      <trkpt lat="49.0828" lon="0.15198">
        <ele>167.9</ele>
        <time>2024-03-03T08:41:49Z</time>
      </trkpt>
      <trkpt lat="49.08272" lon="0.15202">
        <ele>167.9</ele>
        <time>2024-03-03T08:41:50Z</time>
      </trkpt>
      <trkpt lat="49.08264" lon="0.15207">
        <ele>167.9</ele>
        <time>2024-03-03T08:41:51Z</time>
      </trkpt>
      <trkpt lat="49.08257" lon="0.15211">
        <ele>167.9</ele>
        <time>2024-03-03T08:41:52Z</time>
      </trkpt>
      <trkpt lat="49.08249" lon="0.15215">
        <ele>167.9</ele>
        <time>2024-03-03T08:41:53Z</time>
      </trkpt>
      <trkpt lat="49.08242" lon="0.15219">
        <ele>167.9</ele>
        <time>2024-03-03T08:41:54Z</time>
      </trkpt>
      <trkpt lat="49.08235" lon="0.15222">
        <ele>168</ele>
        <time>2024-03-03T08:41:55Z</time>
      </trkpt>
      <trkpt lat="49.08228" lon="0.15226">
        <ele>168</ele>
        <time>2024-03-03T08:41:56Z</time>
      </trkpt>
      <trkpt lat="49.08221" lon="0.1523">
        <ele>168</ele>
        <time>2024-03-03T08:41:57Z</time>
      </trkpt>
      <trkpt lat="49.08214" lon="0.15236">
        <ele>168</ele>
        <time>2024-03-03T08:41:58Z</time>
      </trkpt>
      <trkpt lat="49.08206" lon="0.15242">
        <ele>168</ele>
        <time>2024-03-03T08:41:59Z</time>
      </trkpt>
      <trkpt lat="49.08199" lon="0.15248">
        <ele>168</ele>
        <time>2024-03-03T08:42:00Z</time>
      </trkpt>
      <trkpt lat="49.0819" lon="0.15255">
        <ele>167.9</ele>
        <time>2024-03-03T08:42:01Z</time>
      </trkpt>
      <trkpt lat="49.08181" lon="0.15262">
        <ele>167.9</ele>
        <time>2024-03-03T08:42:02Z</time>
      </trkpt>
      <trkpt lat="49.08173" lon="0.15267">
        <ele>168</ele>
        <time>2024-03-03T08:42:03Z</time>
      </trkpt>
      <trkpt lat="49.08164" lon="0.15273">
        <ele>168</ele>
        <time>2024-03-03T08:42:04Z</time>
      </trkpt>
      <trkpt lat="49.08156" lon="0.15279">
        <ele>168</ele>
        <time>2024-03-03T08:42:05Z</time>
      </trkpt>
      <trkpt lat="49.08147" lon="0.15286">
        <ele>168</ele>
        <time>2024-03-03T08:42:06Z</time>
      </trkpt>
      <trkpt lat="49.08139" lon="0.15291">
        <ele>168</ele>
        <time>2024-03-03T08:42:07Z</time>
      </trkpt>
      <trkpt lat="49.08132" lon="0.15296">
        <ele>168.1</ele>
        <time>2024-03-03T08:42:08Z</time>
      </trkpt>
      <trkpt lat="49.08124" lon="0.15302">
        <ele>168.1</ele>
        <time>2024-03-03T08:42:09Z</time>
      </trkpt>
      <trkpt lat="49.08117" lon="0.15308">
        <ele>168.1</ele>
        <time>2024-03-03T08:42:10Z</time>
      </trkpt>
      <trkpt lat="49.08111" lon="0.15313">
        <ele>168.1</ele>
        <time>2024-03-03T08:42:11Z</time>
      </trkpt>
      <trkpt lat="49.08105" lon="0.15319">
        <ele>168.1</ele>
        <time>2024-03-03T08:42:12Z</time>
      </trkpt>
      <trkpt lat="49.08098" lon="0.15325">
        <ele>168.1</ele>
        <time>2024-03-03T08:42:13Z</time>
      </trkpt>
      <trkpt lat="49.08092" lon="0.15333">
        <ele>168.1</ele>
        <time>2024-03-03T08:42:14Z</time>
      </trkpt>
      <trkpt lat="49.08086" lon="0.15341">
        <ele>168.1</ele>
        <time>2024-03-03T08:42:15Z</time>
      </trkpt>
      <trkpt lat="49.0808" lon="0.15348">
        <ele>168.1</ele>
        <time>2024-03-03T08:42:16Z</time>
      </trkpt>
      <trkpt lat="49.08074" lon="0.15355">
        <ele>168.1</ele>
        <time>2024-03-03T08:42:17Z</time>
      </trkpt>
      <trkpt lat="49.08067" lon="0.15362">
        <ele>168.1</ele>
        <time>2024-03-03T08:42:18Z</time>
      </trkpt>
      <trkpt lat="49.08061" lon="0.15368">
        <ele>168</ele>
        <time>2024-03-03T08:42:19Z</time>
      </trkpt>
      <trkpt lat="49.08055" lon="0.15375">
        <ele>168.1</ele>
        <time>2024-03-03T08:42:20Z</time>
      </trkpt>
      <trkpt lat="49.08049" lon="0.15381">
        <ele>168.1</ele>
        <time>2024-03-03T08:42:21Z</time>
      </trkpt>
      <trkpt lat="49.08043" lon="0.15389">
        <ele>168.1</ele>
        <time>2024-03-03T08:42:22Z</time>
      </trkpt>
      <trkpt lat="49.08038" lon="0.15396">
        <ele>168.1</ele>
        <time>2024-03-03T08:42:23Z</time>
      </trkpt>
      <trkpt lat="49.08032" lon="0.15404">
        <ele>168.1</ele>
        <time>2024-03-03T08:42:24Z</time>
      </trkpt>
      <trkpt lat="49.08026" lon="0.15412">
        <ele>168.1</ele>
        <time>2024-03-03T08:42:25Z</time>
      </trkpt>
      <trkpt lat="49.08021" lon="0.15422">
        <ele>168.1</ele>
        <time>2024-03-03T08:42:26Z</time>
      </trkpt>
      <trkpt lat="49.08016" lon="0.15431">
        <ele>168.1</ele>
        <time>2024-03-03T08:42:27Z</time>
      </trkpt>
      <trkpt lat="49.08011" lon="0.1544">
        <ele>168.2</ele>
        <time>2024-03-03T08:42:28Z</time>
      </trkpt>
      <trkpt lat="49.08006" lon="0.15448">
        <ele>168.2</ele>
        <time>2024-03-03T08:42:29Z</time>
      </trkpt>
      <trkpt lat="49.08001" lon="0.15457">
        <ele>168.3</ele>
        <time>2024-03-03T08:42:30Z</time>
      </trkpt>
      <trkpt lat="49.07996" lon="0.15466">
        <ele>168.3</ele>
        <time>2024-03-03T08:42:31Z</time>
      </trkpt>
      <trkpt lat="49.07991" lon="0.15475">
        <ele>168.4</ele>
        <time>2024-03-03T08:42:32Z</time>
      </trkpt>
      <trkpt lat="49.07987" lon="0.15484">
        <ele>168.5</ele>
        <time>2024-03-03T08:42:33Z</time>
      </trkpt>
      <trkpt lat="49.07982" lon="0.15493">
        <ele>168.5</ele>
        <time>2024-03-03T08:42:34Z</time>
      </trkpt>
      <trkpt lat="49.07978" lon="0.15501">
        <ele>168.6</ele>
        <time>2024-03-03T08:42:35Z</time>
      </trkpt>
      <trkpt lat="49.07973" lon="0.15509">
        <ele>168.6</ele>
        <time>2024-03-03T08:42:36Z</time>
      </trkpt>
      <trkpt lat="49.07969" lon="0.15517">
        <ele>168.6</ele>
        <time>2024-03-03T08:42:37Z</time>
      </trkpt>
      <trkpt lat="49.07964" lon="0.15526">
        <ele>168.6</ele>
        <time>2024-03-03T08:42:38Z</time>
      </trkpt>
      <trkpt lat="49.0796" lon="0.15535">
        <ele>168.7</ele>
        <time>2024-03-03T08:42:39Z</time>
      </trkpt>
      <trkpt lat="49.07955" lon="0.15544">
        <ele>168.7</ele>
        <time>2024-03-03T08:42:40Z</time>
      </trkpt>
      <trkpt lat="49.0795" lon="0.15552">
        <ele>168.7</ele>
        <time>2024-03-03T08:42:41Z</time>
      </trkpt>
      <trkpt lat="49.07946" lon="0.15561">
        <ele>168.7</ele>
        <time>2024-03-03T08:42:42Z</time>
      </trkpt>
      <trkpt lat="49.07941" lon="0.1557">
        <ele>168.8</ele>
        <time>2024-03-03T08:42:43Z</time>
      </trkpt>
      <trkpt lat="49.07936" lon="0.15579">
        <ele>168.8</ele>
        <time>2024-03-03T08:42:44Z</time>
      </trkpt>
      <trkpt lat="49.07931" lon="0.15587">
        <ele>168.8</ele>
        <time>2024-03-03T08:42:45Z</time>
      </trkpt>
      <trkpt lat="49.07926" lon="0.15595">
        <ele>168.8</ele>
        <time>2024-03-03T08:42:46Z</time>
      </trkpt>
      <trkpt lat="49.07921" lon="0.15603">
        <ele>168.8</ele>
        <time>2024-03-03T08:42:47Z</time>
      </trkpt>
      <trkpt lat="49.07916" lon="0.15611">
        <ele>168.8</ele>
        <time>2024-03-03T08:42:48Z</time>
      </trkpt>
      <trkpt lat="49.07912" lon="0.1562">
        <ele>168.8</ele>
        <time>2024-03-03T08:42:49Z</time>
      </trkpt>
      <trkpt lat="49.07907" lon="0.15628">
        <ele>168.9</ele>
        <time>2024-03-03T08:42:50Z</time>
      </trkpt>
      <trkpt lat="49.07902" lon="0.15636">
        <ele>168.9</ele>
        <time>2024-03-03T08:42:51Z</time>
      </trkpt>
      <trkpt lat="49.07898" lon="0.15645">
        <ele>168.9</ele>
        <time>2024-03-03T08:42:52Z</time>
      </trkpt>
      <trkpt lat="49.07893" lon="0.15653">
        <ele>169</ele>
        <time>2024-03-03T08:42:53Z</time>
      </trkpt>
      <trkpt lat="49.07889" lon="0.1566">
        <ele>169</ele>
        <time>2024-03-03T08:42:54Z</time>
      </trkpt>
      <trkpt lat="49.07885" lon="0.15667">
        <ele>169</ele>
        <time>2024-03-03T08:42:55Z</time>
      </trkpt>
      <trkpt lat="49.07881" lon="0.15675">
        <ele>169.1</ele>
        <time>2024-03-03T08:42:56Z</time>
      </trkpt>
      <trkpt lat="49.07877" lon="0.15682">
        <ele>169.1</ele>
        <time>2024-03-03T08:42:57Z</time>
      </trkpt>
      <trkpt lat="49.07873" lon="0.15689">
        <ele>169.2</ele>
        <time>2024-03-03T08:42:58Z</time>
      </trkpt>
      <trkpt lat="49.07869" lon="0.15696">
        <ele>169.2</ele>
        <time>2024-03-03T08:42:59Z</time>
      </trkpt>
      <trkpt lat="49.07866" lon="0.15703">
        <ele>169.3</ele>
        <time>2024-03-03T08:43:00Z</time>
      </trkpt>
      <trkpt lat="49.07862" lon="0.1571">
        <ele>169.4</ele>
        <time>2024-03-03T08:43:01Z</time>
      </trkpt>
      <trkpt lat="49.07859" lon="0.15718">
        <ele>169.4</ele>
        <time>2024-03-03T08:43:02Z</time>
      </trkpt>
      <trkpt lat="49.07855" lon="0.15725">
        <ele>169.5</ele>
        <time>2024-03-03T08:43:03Z</time>
      </trkpt>
      <trkpt lat="49.07851" lon="0.15731">
        <ele>169.6</ele>
        <time>2024-03-03T08:43:04Z</time>
      </trkpt>
      <trkpt lat="49.07847" lon="0.15737">
        <ele>169.7</ele>
        <time>2024-03-03T08:43:05Z</time>
      </trkpt>
      <trkpt lat="49.07843" lon="0.15745">
        <ele>169.8</ele>
        <time>2024-03-03T08:43:06Z</time>
      </trkpt>
      <trkpt lat="49.07839" lon="0.15753">
        <ele>169.9</ele>
        <time>2024-03-03T08:43:07Z</time>
      </trkpt>
      <trkpt lat="49.07835" lon="0.15762">
        <ele>170</ele>
        <time>2024-03-03T08:43:08Z</time>
      </trkpt>
      <trkpt lat="49.07831" lon="0.15771">
        <ele>170.1</ele>
        <time>2024-03-03T08:43:09Z</time>
      </trkpt>
      <trkpt lat="49.07826" lon="0.15779">
        <ele>170.2</ele>
        <time>2024-03-03T08:43:10Z</time>
      </trkpt>
      <trkpt lat="49.07822" lon="0.15788">
        <ele>170.3</ele>
        <time>2024-03-03T08:43:11Z</time>
      </trkpt>
      <trkpt lat="49.07818" lon="0.15797">
        <ele>170.4</ele>
        <time>2024-03-03T08:43:12Z</time>
      </trkpt>
      <trkpt lat="49.07813" lon="0.15805">
        <ele>170.4</ele>
        <time>2024-03-03T08:43:13Z</time>
      </trkpt>
      <trkpt lat="49.07809" lon="0.15814">
        <ele>170.5</ele>
        <time>2024-03-03T08:43:14Z</time>
      </trkpt>
      <trkpt lat="49.07805" lon="0.15822">
        <ele>170.6</ele>
        <time>2024-03-03T08:43:15Z</time>
      </trkpt>
      <trkpt lat="49.078" lon="0.1583">
        <ele>170.6</ele>
        <time>2024-03-03T08:43:16Z</time>
      </trkpt>
      <trkpt lat="49.07795" lon="0.15837">
        <ele>170.7</ele>
        <time>2024-03-03T08:43:17Z</time>
      </trkpt>
      <trkpt lat="49.07789" lon="0.15843">
        <ele>170.7</ele>
        <time>2024-03-03T08:43:18Z</time>
      </trkpt>
      <trkpt lat="49.07784" lon="0.1585">
        <ele>170.7</ele>
        <time>2024-03-03T08:43:19Z</time>
      </trkpt>
      <trkpt lat="49.07779" lon="0.15856">
        <ele>170.8</ele>
        <time>2024-03-03T08:43:20Z</time>
      </trkpt>
      <trkpt lat="49.07775" lon="0.15862">
        <ele>170.8</ele>
        <time>2024-03-03T08:43:21Z</time>
      </trkpt>
      <trkpt lat="49.0777" lon="0.15869">
        <ele>170.8</ele>
        <time>2024-03-03T08:43:22Z</time>
      </trkpt>
      <trkpt lat="49.07764" lon="0.15876">
        <ele>170.8</ele>
        <time>2024-03-03T08:43:23Z</time>
      </trkpt>
      <trkpt lat="49.07758" lon="0.15885">
        <ele>170.8</ele>
        <time>2024-03-03T08:43:24Z</time>
      </trkpt>
      <trkpt lat="49.07753" lon="0.15894">
        <ele>170.8</ele>
        <time>2024-03-03T08:43:25Z</time>
      </trkpt>
      <trkpt lat="49.07747" lon="0.15903">
        <ele>170.7</ele>
        <time>2024-03-03T08:43:26Z</time>
      </trkpt>
      <trkpt lat="49.07741" lon="0.15912">
        <ele>170.6</ele>
        <time>2024-03-03T08:43:27Z</time>
      </trkpt>
      <trkpt lat="49.07735" lon="0.15921">
        <ele>170.5</ele>
        <time>2024-03-03T08:43:28Z</time>
      </trkpt>
      <trkpt lat="49.0773" lon="0.1593">
        <ele>170.4</ele>
        <time>2024-03-03T08:43:29Z</time>
      </trkpt>
      <trkpt lat="49.07725" lon="0.15939">
        <ele>170.3</ele>
        <time>2024-03-03T08:43:30Z</time>
      </trkpt>
      <trkpt lat="49.07719" lon="0.15949">
        <ele>170.2</ele>
        <time>2024-03-03T08:43:31Z</time>
      </trkpt>
      <trkpt lat="49.07714" lon="0.15959">
        <ele>170.1</ele>
        <time>2024-03-03T08:43:32Z</time>
      </trkpt>
      <trkpt lat="49.07708" lon="0.15968">
        <ele>170</ele>
        <time>2024-03-03T08:43:33Z</time>
      </trkpt>
      <trkpt lat="49.07702" lon="0.15977">
        <ele>170</ele>
        <time>2024-03-03T08:43:34Z</time>
      </trkpt>
      <trkpt lat="49.07696" lon="0.15985">
        <ele>169.9</ele>
        <time>2024-03-03T08:43:35Z</time>
      </trkpt>
      <trkpt lat="49.07691" lon="0.15993">
        <ele>169.8</ele>
        <time>2024-03-03T08:43:36Z</time>
      </trkpt>
      <trkpt lat="49.07686" lon="0.16001">
        <ele>169.8</ele>
        <time>2024-03-03T08:43:37Z</time>
      </trkpt>
      <trkpt lat="49.07681" lon="0.16008">
        <ele>169.7</ele>
        <time>2024-03-03T08:43:38Z</time>
      </trkpt>
      <trkpt lat="49.07677" lon="0.16016">
        <ele>169.6</ele>
        <time>2024-03-03T08:43:39Z</time>
      </trkpt>
      <trkpt lat="49.07672" lon="0.16024">
        <ele>169.5</ele>
        <time>2024-03-03T08:43:40Z</time>
      </trkpt>
      <trkpt lat="49.07666" lon="0.16032">
        <ele>169.4</ele>
        <time>2024-03-03T08:43:41Z</time>
      </trkpt>
      <trkpt lat="49.07661" lon="0.1604">
        <ele>169.3</ele>
        <time>2024-03-03T08:43:42Z</time>
      </trkpt>
      <trkpt lat="49.07656" lon="0.16049">
        <ele>169.2</ele>
        <time>2024-03-03T08:43:43Z</time>
      </trkpt>
      <trkpt lat="49.07651" lon="0.16058">
        <ele>169.1</ele>
        <time>2024-03-03T08:43:44Z</time>
      </trkpt>
      <trkpt lat="49.07645" lon="0.16066">
        <ele>168.9</ele>
        <time>2024-03-03T08:43:45Z</time>
      </trkpt>
      <trkpt lat="49.07639" lon="0.16075">
        <ele>168.8</ele>
        <time>2024-03-03T08:43:46Z</time>
      </trkpt>
      <trkpt lat="49.07634" lon="0.16083">
        <ele>168.7</ele>
        <time>2024-03-03T08:43:47Z</time>
      </trkpt>
      <trkpt lat="49.07628" lon="0.1609">
        <ele>168.6</ele>
        <time>2024-03-03T08:43:48Z</time>
      </trkpt>
      <trkpt lat="49.07622" lon="0.16098">
        <ele>168.5</ele>
        <time>2024-03-03T08:43:49Z</time>
      </trkpt>
      <trkpt lat="49.07617" lon="0.16106">
        <ele>168.4</ele>
        <time>2024-03-03T08:43:50Z</time>
      </trkpt>
      <trkpt lat="49.07611" lon="0.16113">
        <ele>168.4</ele>
        <time>2024-03-03T08:43:51Z</time>
      </trkpt>
      <trkpt lat="49.07604" lon="0.16121">
        <ele>168.3</ele>
        <time>2024-03-03T08:43:52Z</time>
      </trkpt>
      <trkpt lat="49.07597" lon="0.16128">
        <ele>168.2</ele>
        <time>2024-03-03T08:43:53Z</time>
      </trkpt>
      <trkpt lat="49.0759" lon="0.16137">
        <ele>168.2</ele>
        <time>2024-03-03T08:43:54Z</time>
      </trkpt>
      <trkpt lat="49.07582" lon="0.16146">
        <ele>168.1</ele>
        <time>2024-03-03T08:43:55Z</time>
      </trkpt>
      <trkpt lat="49.07575" lon="0.16154">
        <ele>168</ele>
        <time>2024-03-03T08:43:56Z</time>
      </trkpt>
      <trkpt lat="49.07569" lon="0.16162">
        <ele>168</ele>
        <time>2024-03-03T08:43:57Z</time>
      </trkpt>
      <trkpt lat="49.07563" lon="0.1617">
        <ele>168</ele>
        <time>2024-03-03T08:43:58Z</time>
      </trkpt>
      <trkpt lat="49.07556" lon="0.16178">
        <ele>168</ele>
        <time>2024-03-03T08:43:59Z</time>
      </trkpt>
      <trkpt lat="49.0755" lon="0.16186">
        <ele>168</ele>
        <time>2024-03-03T08:44:00Z</time>
      </trkpt>
      <trkpt lat="49.07543" lon="0.16194">
        <ele>168.1</ele>
        <time>2024-03-03T08:44:01Z</time>
      </trkpt>
      <trkpt lat="49.07537" lon="0.16202">
        <ele>168.1</ele>
        <time>2024-03-03T08:44:02Z</time>
      </trkpt>
      <trkpt lat="49.07531" lon="0.1621">
        <ele>168.1</ele>
        <time>2024-03-03T08:44:03Z</time>
      </trkpt>
      <trkpt lat="49.07525" lon="0.16217">
        <ele>168.2</ele>
        <time>2024-03-03T08:44:04Z</time>
      </trkpt>
      <trkpt lat="49.0752" lon="0.16223">
        <ele>168.2</ele>
        <time>2024-03-03T08:44:05Z</time>
      </trkpt>
      <trkpt lat="49.07515" lon="0.16229">
        <ele>168.2</ele>
        <time>2024-03-03T08:44:06Z</time>
      </trkpt>
      <trkpt lat="49.07509" lon="0.16236">
        <ele>168.3</ele>
        <time>2024-03-03T08:44:07Z</time>
      </trkpt>
      <trkpt lat="49.07504" lon="0.16243">
        <ele>168.3</ele>
        <time>2024-03-03T08:44:08Z</time>
      </trkpt>
      <trkpt lat="49.07498" lon="0.16251">
        <ele>168.3</ele>
        <time>2024-03-03T08:44:09Z</time>
      </trkpt>
      <trkpt lat="49.07492" lon="0.16259">
        <ele>168.3</ele>
        <time>2024-03-03T08:44:10Z</time>
      </trkpt>
      <trkpt lat="49.07486" lon="0.16267">
        <ele>168.3</ele>
        <time>2024-03-03T08:44:11Z</time>
      </trkpt>
      <trkpt lat="49.07479" lon="0.16276">
        <ele>168.4</ele>
        <time>2024-03-03T08:44:12Z</time>
      </trkpt>
      <trkpt lat="49.07473" lon="0.16284">
        <ele>168.4</ele>
        <time>2024-03-03T08:44:13Z</time>
      </trkpt>
      <trkpt lat="49.07468" lon="0.16291">
        <ele>168.4</ele>
        <time>2024-03-03T08:44:14Z</time>
      </trkpt>
      <trkpt lat="49.07462" lon="0.16299">
        <ele>168.5</ele>
        <time>2024-03-03T08:44:15Z</time>
      </trkpt>
      <trkpt lat="49.07457" lon="0.16306">
        <ele>168.5</ele>
        <time>2024-03-03T08:44:16Z</time>
      </trkpt>
      <trkpt lat="49.07451" lon="0.16313">
        <ele>168.5</ele>
        <time>2024-03-03T08:44:17Z</time>
      </trkpt>
      <trkpt lat="49.07446" lon="0.1632">
        <ele>168.5</ele>
        <time>2024-03-03T08:44:18Z</time>
      </trkpt>
      <trkpt lat="49.07441" lon="0.16326">
        <ele>168.5</ele>
        <time>2024-03-03T08:44:19Z</time>
      </trkpt>
      <trkpt lat="49.07435" lon="0.16332">
        <ele>168.5</ele>
        <time>2024-03-03T08:44:20Z</time>
      </trkpt>
      <trkpt lat="49.07429" lon="0.16338">
        <ele>168.5</ele>
        <time>2024-03-03T08:44:21Z</time>
      </trkpt>
      <trkpt lat="49.07422" lon="0.16344">
        <ele>168.5</ele>
        <time>2024-03-03T08:44:22Z</time>
      </trkpt>
      <trkpt lat="49.07416" lon="0.1635">
        <ele>168.5</ele>
        <time>2024-03-03T08:44:23Z</time>
      </trkpt>
      <trkpt lat="49.0741" lon="0.16356">
        <ele>168.6</ele>
        <time>2024-03-03T08:44:24Z</time>
      </trkpt>
      <trkpt lat="49.07404" lon="0.16363">
        <ele>168.6</ele>
        <time>2024-03-03T08:44:25Z</time>
      </trkpt>
      <trkpt lat="49.07398" lon="0.1637">
        <ele>168.7</ele>
        <time>2024-03-03T08:44:26Z</time>
      </trkpt>
      <trkpt lat="49.07392" lon="0.16377">
        <ele>168.8</ele>
        <time>2024-03-03T08:44:27Z</time>
      </trkpt>
      <trkpt lat="49.07386" lon="0.16384">
        <ele>168.9</ele>
        <time>2024-03-03T08:44:28Z</time>
      </trkpt>
      <trkpt lat="49.0738" lon="0.16392">
        <ele>169</ele>
        <time>2024-03-03T08:44:29Z</time>
      </trkpt>
      <trkpt lat="49.07374" lon="0.16399">
        <ele>169.1</ele>
        <time>2024-03-03T08:44:30Z</time>
      </trkpt>
      <trkpt lat="49.07368" lon="0.16406">
        <ele>169.2</ele>
        <time>2024-03-03T08:44:31Z</time>
      </trkpt>
      <trkpt lat="49.07362" lon="0.16413">
        <ele>169.3</ele>
        <time>2024-03-03T08:44:32Z</time>
      </trkpt>
      <trkpt lat="49.07357" lon="0.16421">
        <ele>169.4</ele>
        <time>2024-03-03T08:44:33Z</time>
      </trkpt>
      <trkpt lat="49.07351" lon="0.16429">
        <ele>169.5</ele>
        <time>2024-03-03T08:44:34Z</time>
      </trkpt>
      <trkpt lat="49.07346" lon="0.16436">
        <ele>169.6</ele>
        <time>2024-03-03T08:44:35Z</time>
      </trkpt>
      <trkpt lat="49.07341" lon="0.16442">
        <ele>169.8</ele>
        <time>2024-03-03T08:44:36Z</time>
      </trkpt>
      <trkpt lat="49.07335" lon="0.16448">
        <ele>169.9</ele>
        <time>2024-03-03T08:44:37Z</time>
      </trkpt>
      <trkpt lat="49.0733" lon="0.16453">
        <ele>170</ele>
        <time>2024-03-03T08:44:38Z</time>
      </trkpt>
      <trkpt lat="49.07324" lon="0.1646">
        <ele>170.1</ele>
        <time>2024-03-03T08:44:39Z</time>
      </trkpt>
      <trkpt lat="49.07319" lon="0.16466">
        <ele>170.3</ele>
        <time>2024-03-03T08:44:40Z</time>
      </trkpt>
      <trkpt lat="49.07314" lon="0.16472">
        <ele>170.4</ele>
        <time>2024-03-03T08:44:41Z</time>
      </trkpt>
      <trkpt lat="49.07309" lon="0.16479">
        <ele>170.6</ele>
        <time>2024-03-03T08:44:42Z</time>
      </trkpt>
      <trkpt lat="49.07303" lon="0.16485">
        <ele>170.7</ele>
        <time>2024-03-03T08:44:43Z</time>
      </trkpt>
      <trkpt lat="49.07298" lon="0.16492">
        <ele>170.8</ele>
        <time>2024-03-03T08:44:44Z</time>
      </trkpt>
      <trkpt lat="49.07292" lon="0.16498">
        <ele>171</ele>
        <time>2024-03-03T08:44:45Z</time>
      </trkpt>
      <trkpt lat="49.07286" lon="0.16503">
        <ele>171.1</ele>
        <time>2024-03-03T08:44:46Z</time>
      </trkpt>
      <trkpt lat="49.0728" lon="0.16508">
        <ele>171.2</ele>
        <time>2024-03-03T08:44:47Z</time>
      </trkpt>
      <trkpt lat="49.07275" lon="0.16512">
        <ele>171.4</ele>
        <time>2024-03-03T08:44:48Z</time>
      </trkpt>
      <trkpt lat="49.07269" lon="0.16517">
        <ele>171.5</ele>
        <time>2024-03-03T08:44:49Z</time>
      </trkpt>
      <trkpt lat="49.07264" lon="0.16521">
        <ele>171.6</ele>
        <time>2024-03-03T08:44:50Z</time>
      </trkpt>
      <trkpt lat="49.07258" lon="0.16526">
        <ele>171.7</ele>
        <time>2024-03-03T08:44:51Z</time>
      </trkpt>
      <trkpt lat="49.07252" lon="0.1653">
        <ele>171.8</ele>
        <time>2024-03-03T08:44:52Z</time>
      </trkpt>
      <trkpt lat="49.07247" lon="0.16535">
        <ele>171.9</ele>
        <time>2024-03-03T08:44:53Z</time>
      </trkpt>
      <trkpt lat="49.0724" lon="0.16539">
        <ele>172</ele>
        <time>2024-03-03T08:44:54Z</time>
      </trkpt>
      <trkpt lat="49.07234" lon="0.16543">
        <ele>172</ele>
        <time>2024-03-03T08:44:55Z</time>
      </trkpt>
      <trkpt lat="49.07228" lon="0.16547">
        <ele>172</ele>
        <time>2024-03-03T08:44:56Z</time>
      </trkpt>
      <trkpt lat="49.07222" lon="0.16551">
        <ele>172.1</ele>
        <time>2024-03-03T08:44:57Z</time>
      </trkpt>
      <trkpt lat="49.07216" lon="0.16556">
        <ele>172.1</ele>
        <time>2024-03-03T08:44:58Z</time>
      </trkpt>
      <trkpt lat="49.0721" lon="0.1656">
        <ele>172.1</ele>
        <time>2024-03-03T08:44:59Z</time>
      </trkpt>
      <trkpt lat="49.07204" lon="0.16564">
        <ele>172.2</ele>
        <time>2024-03-03T08:45:00Z</time>
      </trkpt>
      <trkpt lat="49.07199" lon="0.16569">
        <ele>172.2</ele>
        <time>2024-03-03T08:45:01Z</time>
      </trkpt>
      <trkpt lat="49.07193" lon="0.16573">
        <ele>172.3</ele>
        <time>2024-03-03T08:45:02Z</time>
      </trkpt>
      <trkpt lat="49.07187" lon="0.16578">
        <ele>172.3</ele>
        <time>2024-03-03T08:45:03Z</time>
      </trkpt>
      <trkpt lat="49.07182" lon="0.16582">
        <ele>172.3</ele>
        <time>2024-03-03T08:45:04Z</time>
      </trkpt>
      <trkpt lat="49.07176" lon="0.16586">
        <ele>172.4</ele>
        <time>2024-03-03T08:45:05Z</time>
      </trkpt>
      <trkpt lat="49.0717" lon="0.16591">
        <ele>172.4</ele>
        <time>2024-03-03T08:45:06Z</time>
      </trkpt>
      <trkpt lat="49.07163" lon="0.16596">
        <ele>172.4</ele>
        <time>2024-03-03T08:45:07Z</time>
      </trkpt>
      <trkpt lat="49.07156" lon="0.16604">
        <ele>172.4</ele>
        <time>2024-03-03T08:45:08Z</time>
      </trkpt>
      <trkpt lat="49.07148" lon="0.16613">
        <ele>172.4</ele>
        <time>2024-03-03T08:45:09Z</time>
      </trkpt>
      <trkpt lat="49.07141" lon="0.16622">
        <ele>172.4</ele>
        <time>2024-03-03T08:45:10Z</time>
      </trkpt>
      <trkpt lat="49.07135" lon="0.16633">
        <ele>172.4</ele>
        <time>2024-03-03T08:45:11Z</time>
      </trkpt>
      <trkpt lat="49.07129" lon="0.16643">
        <ele>172.4</ele>
        <time>2024-03-03T08:45:12Z</time>
      </trkpt>
      <trkpt lat="49.07123" lon="0.16655">
        <ele>172.5</ele>
        <time>2024-03-03T08:45:13Z</time>
      </trkpt>
      <trkpt lat="49.07118" lon="0.16666">
        <ele>172.4</ele>
        <time>2024-03-03T08:45:14Z</time>
      </trkpt>
      <trkpt lat="49.07113" lon="0.16678">
        <ele>172.4</ele>
        <time>2024-03-03T08:45:15Z</time>
      </trkpt>
      <trkpt lat="49.07108" lon="0.16689">
        <ele>172.5</ele>
        <time>2024-03-03T08:45:16Z</time>
      </trkpt>
      <trkpt lat="49.07105" lon="0.167">
        <ele>172.5</ele>
        <time>2024-03-03T08:45:17Z</time>
      </trkpt>
      <trkpt lat="49.07101" lon="0.16712">
        <ele>172.6</ele>
        <time>2024-03-03T08:45:18Z</time>
      </trkpt>
      <trkpt lat="49.07098" lon="0.16724">
        <ele>172.7</ele>
        <time>2024-03-03T08:45:19Z</time>
      </trkpt>
      <trkpt lat="49.07094" lon="0.16735">
        <ele>172.7</ele>
        <time>2024-03-03T08:45:20Z</time>
      </trkpt>
      <trkpt lat="49.07091" lon="0.16747">
        <ele>172.8</ele>
        <time>2024-03-03T08:45:21Z</time>
      </trkpt>
      <trkpt lat="49.07088" lon="0.16758">
        <ele>172.9</ele>
        <time>2024-03-03T08:45:22Z</time>
      </trkpt>
      <trkpt lat="49.07085" lon="0.1677">
        <ele>173</ele>
        <time>2024-03-03T08:45:23Z</time>
      </trkpt>
      <trkpt lat="49.07082" lon="0.16781">
        <ele>173.1</ele>
        <time>2024-03-03T08:45:24Z</time>
      </trkpt>
      <trkpt lat="49.0708" lon="0.16793">
        <ele>173.2</ele>
        <time>2024-03-03T08:45:25Z</time>
      </trkpt>
      <trkpt lat="49.07077" lon="0.16804">
        <ele>173.3</ele>
        <time>2024-03-03T08:45:26Z</time>
      </trkpt>
      <trkpt lat="49.07075" lon="0.16815">
        <ele>173.4</ele>
        <time>2024-03-03T08:45:27Z</time>
      </trkpt>
      <trkpt lat="49.07073" lon="0.16826">
        <ele>173.5</ele>
        <time>2024-03-03T08:45:28Z</time>
      </trkpt>
      <trkpt lat="49.07071" lon="0.16837">
        <ele>173.6</ele>
        <time>2024-03-03T08:45:29Z</time>
      </trkpt>
      <trkpt lat="49.0707" lon="0.16848">
        <ele>173.8</ele>
        <time>2024-03-03T08:45:30Z</time>
      </trkpt>
      <trkpt lat="49.07068" lon="0.16859">
        <ele>173.9</ele>
        <time>2024-03-03T08:45:31Z</time>
      </trkpt>
      <trkpt lat="49.07066" lon="0.1687">
        <ele>174</ele>
        <time>2024-03-03T08:45:32Z</time>
      </trkpt>
      <trkpt lat="49.07064" lon="0.16881">
        <ele>174.1</ele>
        <time>2024-03-03T08:45:33Z</time>
      </trkpt>
      <trkpt lat="49.07062" lon="0.16891">
        <ele>174.1</ele>
        <time>2024-03-03T08:45:34Z</time>
      </trkpt>
      <trkpt lat="49.07059" lon="0.16902">
        <ele>174.3</ele>
        <time>2024-03-03T08:45:35Z</time>
      </trkpt>
      <trkpt lat="49.07057" lon="0.16913">
        <ele>174.4</ele>
        <time>2024-03-03T08:45:36Z</time>
      </trkpt>
      <trkpt lat="49.07055" lon="0.16924">
        <ele>174.5</ele>
        <time>2024-03-03T08:45:37Z</time>
      </trkpt>
      <trkpt lat="49.07052" lon="0.16934">
        <ele>174.6</ele>
        <time>2024-03-03T08:45:38Z</time>
      </trkpt>
      <trkpt lat="49.07049" lon="0.16944">
        <ele>174.7</ele>
        <time>2024-03-03T08:45:39Z</time>
      </trkpt>
      <trkpt lat="49.07046" lon="0.16954">
        <ele>174.8</ele>
        <time>2024-03-03T08:45:40Z</time>
      </trkpt>
      <trkpt lat="49.07042" lon="0.16963">
        <ele>175</ele>
        <time>2024-03-03T08:45:41Z</time>
      </trkpt>
      <trkpt lat="49.07039" lon="0.16973">
        <ele>175.1</ele>
        <time>2024-03-03T08:45:42Z</time>
      </trkpt>
      <trkpt lat="49.07035" lon="0.16982">
        <ele>175.2</ele>
        <time>2024-03-03T08:45:43Z</time>
      </trkpt>
      <trkpt lat="49.07031" lon="0.16992">
        <ele>175.3</ele>
        <time>2024-03-03T08:45:44Z</time>
      </trkpt>
      <trkpt lat="49.07027" lon="0.17002">
        <ele>175.4</ele>
        <time>2024-03-03T08:45:45Z</time>
      </trkpt>
      <trkpt lat="49.07023" lon="0.17011">
        <ele>175.5</ele>
        <time>2024-03-03T08:45:46Z</time>
      </trkpt>
      <trkpt lat="49.07019" lon="0.17021">
        <ele>175.6</ele>
        <time>2024-03-03T08:45:47Z</time>
      </trkpt>
      <trkpt lat="49.07015" lon="0.1703">
        <ele>175.7</ele>
        <time>2024-03-03T08:45:48Z</time>
      </trkpt>
      <trkpt lat="49.0701" lon="0.17039">
        <ele>175.8</ele>
        <time>2024-03-03T08:45:49Z</time>
      </trkpt>
      <trkpt lat="49.07006" lon="0.17048">
        <ele>175.8</ele>
        <time>2024-03-03T08:45:50Z</time>
      </trkpt>
      <trkpt lat="49.07002" lon="0.17058">
        <ele>175.9</ele>
        <time>2024-03-03T08:45:51Z</time>
      </trkpt>
      <trkpt lat="49.06998" lon="0.17068">
        <ele>176</ele>
        <time>2024-03-03T08:45:52Z</time>
      </trkpt>
      <trkpt lat="49.06994" lon="0.17078">
        <ele>176.1</ele>
        <time>2024-03-03T08:45:53Z</time>
      </trkpt>
      <trkpt lat="49.0699" lon="0.17087">
        <ele>176.1</ele>
        <time>2024-03-03T08:45:54Z</time>
      </trkpt>
      <trkpt lat="49.06985" lon="0.17097">
        <ele>176.2</ele>
        <time>2024-03-03T08:45:55Z</time>
      </trkpt>
      <trkpt lat="49.06981" lon="0.17106">
        <ele>176.3</ele>
        <time>2024-03-03T08:45:56Z</time>
      </trkpt>
      <trkpt lat="49.06977" lon="0.17116">
        <ele>176.4</ele>
        <time>2024-03-03T08:45:57Z</time>
      </trkpt>
      <trkpt lat="49.06973" lon="0.17125">
        <ele>176.5</ele>
        <time>2024-03-03T08:45:58Z</time>
      </trkpt>
      <trkpt lat="49.06969" lon="0.17135">
        <ele>176.7</ele>
        <time>2024-03-03T08:45:59Z</time>
      </trkpt>
      <trkpt lat="49.06965" lon="0.17144">
        <ele>176.8</ele>
        <time>2024-03-03T08:46:00Z</time>
      </trkpt>
      <trkpt lat="49.06961" lon="0.17153">
        <ele>176.9</ele>
        <time>2024-03-03T08:46:01Z</time>
      </trkpt>
      <trkpt lat="49.06957" lon="0.17163">
        <ele>177.1</ele>
        <time>2024-03-03T08:46:02Z</time>
      </trkpt>
      <trkpt lat="49.06952" lon="0.17172">
        <ele>177.2</ele>
        <time>2024-03-03T08:46:03Z</time>
      </trkpt>
      <trkpt lat="49.06948" lon="0.17181">
        <ele>177.3</ele>
        <time>2024-03-03T08:46:04Z</time>
      </trkpt>
      <trkpt lat="49.06944" lon="0.1719">
        <ele>177.5</ele>
        <time>2024-03-03T08:46:05Z</time>
      </trkpt>
      <trkpt lat="49.06941" lon="0.17198">
        <ele>177.5</ele>
        <time>2024-03-03T08:46:06Z</time>
      </trkpt>
      <trkpt lat="49.06937" lon="0.17206">
        <ele>177.6</ele>
        <time>2024-03-03T08:46:07Z</time>
      </trkpt>
      <trkpt lat="49.06934" lon="0.17214">
        <ele>177.7</ele>
        <time>2024-03-03T08:46:08Z</time>
      </trkpt>
      <trkpt lat="49.0693" lon="0.17222">
        <ele>177.8</ele>
        <time>2024-03-03T08:46:09Z</time>
      </trkpt>
      <trkpt lat="49.06927" lon="0.1723">
        <ele>177.8</ele>
        <time>2024-03-03T08:46:10Z</time>
      </trkpt>
      <trkpt lat="49.06924" lon="0.17237">
        <ele>177.9</ele>
        <time>2024-03-03T08:46:11Z</time>
      </trkpt>
      <trkpt lat="49.0692" lon="0.17246">
        <ele>177.9</ele>
        <time>2024-03-03T08:46:12Z</time>
      </trkpt>
      <trkpt lat="49.06915" lon="0.17254">
        <ele>177.9</ele>
        <time>2024-03-03T08:46:13Z</time>
      </trkpt>
      <trkpt lat="49.0691" lon="0.17264">
        <ele>177.9</ele>
        <time>2024-03-03T08:46:14Z</time>
      </trkpt>
      <trkpt lat="49.06905" lon="0.17275">
        <ele>177.9</ele>
        <time>2024-03-03T08:46:15Z</time>
      </trkpt>
      <trkpt lat="49.069" lon="0.17286">
        <ele>177.9</ele>
        <time>2024-03-03T08:46:16Z</time>
      </trkpt>
      <trkpt lat="49.06895" lon="0.17297">
        <ele>177.9</ele>
        <time>2024-03-03T08:46:17Z</time>
      </trkpt>
      <trkpt lat="49.0689" lon="0.17307">
        <ele>177.9</ele>
        <time>2024-03-03T08:46:18Z</time>
      </trkpt>
      <trkpt lat="49.06885" lon="0.17317">
        <ele>177.9</ele>
        <time>2024-03-03T08:46:19Z</time>
      </trkpt>
      <trkpt lat="49.0688" lon="0.17327">
        <ele>177.9</ele>
        <time>2024-03-03T08:46:20Z</time>
      </trkpt>
      <trkpt lat="49.06875" lon="0.17336">
        <ele>177.8</ele>
        <time>2024-03-03T08:46:21Z</time>
      </trkpt>
      <trkpt lat="49.0687" lon="0.17345">
        <ele>177.8</ele>
        <time>2024-03-03T08:46:22Z</time>
      </trkpt>
      <trkpt lat="49.06864" lon="0.17354">
        <ele>177.8</ele>
        <time>2024-03-03T08:46:23Z</time>
      </trkpt>
      <trkpt lat="49.06858" lon="0.17363">
        <ele>177.7</ele>
        <time>2024-03-03T08:46:24Z</time>
      </trkpt>
      <trkpt lat="49.06853" lon="0.17372">
        <ele>177.7</ele>
        <time>2024-03-03T08:46:25Z</time>
      </trkpt>
      <trkpt lat="49.06847" lon="0.1738">
        <ele>177.7</ele>
        <time>2024-03-03T08:46:26Z</time>
      </trkpt>
      <trkpt lat="49.06842" lon="0.17388">
        <ele>177.7</ele>
        <time>2024-03-03T08:46:27Z</time>
      </trkpt>
      <trkpt lat="49.06836" lon="0.17395">
        <ele>177.6</ele>
        <time>2024-03-03T08:46:28Z</time>
      </trkpt>
      <trkpt lat="49.0683" lon="0.17403">
        <ele>177.6</ele>
        <time>2024-03-03T08:46:29Z</time>
      </trkpt>
      <trkpt lat="49.06824" lon="0.17411">
        <ele>177.6</ele>
        <time>2024-03-03T08:46:30Z</time>
      </trkpt>
      <trkpt lat="49.06819" lon="0.17418">
        <ele>177.6</ele>
        <time>2024-03-03T08:46:31Z</time>
      </trkpt>
      <trkpt lat="49.06813" lon="0.17426">
        <ele>177.6</ele>
        <time>2024-03-03T08:46:32Z</time>
      </trkpt>
      <trkpt lat="49.06807" lon="0.17434">
        <ele>177.6</ele>
        <time>2024-03-03T08:46:33Z</time>
      </trkpt>
      <trkpt lat="49.06801" lon="0.17442">
        <ele>177.6</ele>
        <time>2024-03-03T08:46:34Z</time>
      </trkpt>
      <trkpt lat="49.06796" lon="0.17451">
        <ele>177.6</ele>
        <time>2024-03-03T08:46:35Z</time>
      </trkpt>
      <trkpt lat="49.06791" lon="0.1746">
        <ele>177.6</ele>
        <time>2024-03-03T08:46:36Z</time>
      </trkpt>
      <trkpt lat="49.06787" lon="0.17469">
        <ele>177.6</ele>
        <time>2024-03-03T08:46:37Z</time>
      </trkpt>
      <trkpt lat="49.06782" lon="0.17478">
        <ele>177.7</ele>
        <time>2024-03-03T08:46:38Z</time>
      </trkpt>
      <trkpt lat="49.06778" lon="0.17487">
        <ele>177.7</ele>
        <time>2024-03-03T08:46:39Z</time>
      </trkpt>
      <trkpt lat="49.06773" lon="0.17498">
        <ele>177.7</ele>
        <time>2024-03-03T08:46:40Z</time>
      </trkpt>
      <trkpt lat="49.06769" lon="0.17508">
        <ele>177.8</ele>
        <time>2024-03-03T08:46:41Z</time>
      </trkpt>
      <trkpt lat="49.06764" lon="0.17519">
        <ele>177.8</ele>
        <time>2024-03-03T08:46:42Z</time>
      </trkpt>
      <trkpt lat="49.0676" lon="0.17529">
        <ele>177.9</ele>
        <time>2024-03-03T08:46:43Z</time>
      </trkpt>
      <trkpt lat="49.06755" lon="0.17539">
        <ele>177.9</ele>
        <time>2024-03-03T08:46:44Z</time>
      </trkpt>
      <trkpt lat="49.0675" lon="0.17549">
        <ele>178</ele>
        <time>2024-03-03T08:46:45Z</time>
      </trkpt>
      <trkpt lat="49.06745" lon="0.17558">
        <ele>178.1</ele>
        <time>2024-03-03T08:46:46Z</time>
      </trkpt>
      <trkpt lat="49.06741" lon="0.17568">
        <ele>178.1</ele>
        <time>2024-03-03T08:46:47Z</time>
      </trkpt>
      <trkpt lat="49.06736" lon="0.17578">
        <ele>178.1</ele>
        <time>2024-03-03T08:46:48Z</time>
      </trkpt>
      <trkpt lat="49.06731" lon="0.17588">
        <ele>178.2</ele>
        <time>2024-03-03T08:46:49Z</time>
      </trkpt>
      <trkpt lat="49.06726" lon="0.17597">
        <ele>178.2</ele>
        <time>2024-03-03T08:46:50Z</time>
      </trkpt>
      <trkpt lat="49.06722" lon="0.17607">
        <ele>178.3</ele>
        <time>2024-03-03T08:46:51Z</time>
      </trkpt>
      <trkpt lat="49.06718" lon="0.17617">
        <ele>178.3</ele>
        <time>2024-03-03T08:46:52Z</time>
      </trkpt>
      <trkpt lat="49.06713" lon="0.17627">
        <ele>178.4</ele>
        <time>2024-03-03T08:46:53Z</time>
      </trkpt>
      <trkpt lat="49.06709" lon="0.17636">
        <ele>178.4</ele>
        <time>2024-03-03T08:46:54Z</time>
      </trkpt>
      <trkpt lat="49.06704" lon="0.17646">
        <ele>178.5</ele>
        <time>2024-03-03T08:46:55Z</time>
      </trkpt>
      <trkpt lat="49.067" lon="0.17656">
        <ele>178.5</ele>
        <time>2024-03-03T08:46:56Z</time>
      </trkpt>
      <trkpt lat="49.06696" lon="0.17666">
        <ele>178.5</ele>
        <time>2024-03-03T08:46:57Z</time>
      </trkpt>
      <trkpt lat="49.06692" lon="0.17676">
        <ele>178.5</ele>
        <time>2024-03-03T08:46:58Z</time>
      </trkpt>
      <trkpt lat="49.06688" lon="0.17686">
        <ele>178.5</ele>
        <time>2024-03-03T08:46:59Z</time>
      </trkpt>
      <trkpt lat="49.06684" lon="0.17696">
        <ele>178.5</ele>
        <time>2024-03-03T08:47:00Z</time>
      </trkpt>
      <trkpt lat="49.06679" lon="0.17706">
        <ele>178.5</ele>
        <time>2024-03-03T08:47:01Z</time>
      </trkpt>
      <trkpt lat="49.06675" lon="0.17716">
        <ele>178.5</ele>
        <time>2024-03-03T08:47:02Z</time>
      </trkpt>
      <trkpt lat="49.06671" lon="0.17726">
        <ele>178.5</ele>
        <time>2024-03-03T08:47:03Z</time>
      </trkpt>
      <trkpt lat="49.06668" lon="0.17737">
        <ele>178.5</ele>
        <time>2024-03-03T08:47:04Z</time>
      </trkpt>
      <trkpt lat="49.06664" lon="0.17749">
        <ele>178.5</ele>
        <time>2024-03-03T08:47:05Z</time>
      </trkpt>
      <trkpt lat="49.06661" lon="0.17759">
        <ele>178.5</ele>
        <time>2024-03-03T08:47:06Z</time>
      </trkpt>
      <trkpt lat="49.06658" lon="0.1777">
        <ele>178.5</ele>
        <time>2024-03-03T08:47:07Z</time>
      </trkpt>
      <trkpt lat="49.06655" lon="0.1778">
        <ele>178.5</ele>
        <time>2024-03-03T08:47:08Z</time>
      </trkpt>
      <trkpt lat="49.06652" lon="0.17791">
        <ele>178.5</ele>
        <time>2024-03-03T08:47:09Z</time>
      </trkpt>
      <trkpt lat="49.06649" lon="0.17802">
        <ele>178.4</ele>
        <time>2024-03-03T08:47:10Z</time>
      </trkpt>
      <trkpt lat="49.06647" lon="0.17812">
        <ele>178.4</ele>
        <time>2024-03-03T08:47:11Z</time>
      </trkpt>
      <trkpt lat="49.06644" lon="0.17822">
        <ele>178.4</ele>
        <time>2024-03-03T08:47:12Z</time>
      </trkpt>
      <trkpt lat="49.0664" lon="0.17832">
        <ele>178.4</ele>
        <time>2024-03-03T08:47:13Z</time>
      </trkpt>
      <trkpt lat="49.06637" lon="0.17841">
        <ele>178.4</ele>
        <time>2024-03-03T08:47:14Z</time>
      </trkpt>
      <trkpt lat="49.06633" lon="0.17851">
        <ele>178.4</ele>
        <time>2024-03-03T08:47:15Z</time>
      </trkpt>
      <trkpt lat="49.06629" lon="0.17861">
        <ele>178.4</ele>
        <time>2024-03-03T08:47:16Z</time>
      </trkpt>
      <trkpt lat="49.06626" lon="0.17871">
        <ele>178.3</ele>
        <time>2024-03-03T08:47:17Z</time>
      </trkpt>
      <trkpt lat="49.06622" lon="0.17881">
        <ele>178.3</ele>
        <time>2024-03-03T08:47:18Z</time>
      </trkpt>
      <trkpt lat="49.06619" lon="0.17891">
        <ele>178.3</ele>
        <time>2024-03-03T08:47:19Z</time>
      </trkpt>
      <trkpt lat="49.06614" lon="0.179">
        <ele>178.3</ele>
        <time>2024-03-03T08:47:20Z</time>
      </trkpt>
      <trkpt lat="49.06609" lon="0.17909">
        <ele>178.2</ele>
        <time>2024-03-03T08:47:21Z</time>
      </trkpt>
      <trkpt lat="49.06604" lon="0.17918">
        <ele>178.1</ele>
        <time>2024-03-03T08:47:22Z</time>
      </trkpt>
      <trkpt lat="49.066" lon="0.17929">
        <ele>178.1</ele>
        <time>2024-03-03T08:47:23Z</time>
      </trkpt>
      <trkpt lat="49.06595" lon="0.1794">
        <ele>178</ele>
        <time>2024-03-03T08:47:24Z</time>
      </trkpt>
      <trkpt lat="49.06591" lon="0.17951">
        <ele>178</ele>
        <time>2024-03-03T08:47:25Z</time>
      </trkpt>
      <trkpt lat="49.06586" lon="0.17962">
        <ele>178</ele>
        <time>2024-03-03T08:47:26Z</time>
      </trkpt>
      <trkpt lat="49.06581" lon="0.17973">
        <ele>178</ele>
        <time>2024-03-03T08:47:27Z</time>
      </trkpt>
      <trkpt lat="49.06576" lon="0.17983">
        <ele>178</ele>
        <time>2024-03-03T08:47:28Z</time>
      </trkpt>
      <trkpt lat="49.0657" lon="0.17992">
        <ele>177.9</ele>
        <time>2024-03-03T08:47:29Z</time>
      </trkpt>
      <trkpt lat="49.06564" lon="0.18001">
        <ele>178</ele>
        <time>2024-03-03T08:47:30Z</time>
      </trkpt>
      <trkpt lat="49.06557" lon="0.18009">
        <ele>178</ele>
        <time>2024-03-03T08:47:31Z</time>
      </trkpt>
      <trkpt lat="49.06551" lon="0.18016">
        <ele>178.1</ele>
        <time>2024-03-03T08:47:32Z</time>
      </trkpt>
      <trkpt lat="49.06544" lon="0.18024">
        <ele>178.1</ele>
        <time>2024-03-03T08:47:33Z</time>
      </trkpt>
      <trkpt lat="49.06537" lon="0.18033">
        <ele>178.2</ele>
        <time>2024-03-03T08:47:34Z</time>
      </trkpt>
      <trkpt lat="49.0653" lon="0.1804">
        <ele>178.2</ele>
        <time>2024-03-03T08:47:35Z</time>
      </trkpt>
      <trkpt lat="49.06523" lon="0.18047">
        <ele>178.3</ele>
        <time>2024-03-03T08:47:36Z</time>
      </trkpt>
      <trkpt lat="49.06516" lon="0.18054">
        <ele>178.4</ele>
        <time>2024-03-03T08:47:37Z</time>
      </trkpt>
      <trkpt lat="49.06509" lon="0.18059">
        <ele>178.5</ele>
        <time>2024-03-03T08:47:38Z</time>
      </trkpt>
      <trkpt lat="49.06502" lon="0.18064">
        <ele>178.6</ele>
        <time>2024-03-03T08:47:39Z</time>
      </trkpt>
      <trkpt lat="49.06495" lon="0.18069">
        <ele>178.7</ele>
        <time>2024-03-03T08:47:40Z</time>
      </trkpt>
      <trkpt lat="49.06488" lon="0.18074">
        <ele>178.8</ele>
        <time>2024-03-03T08:47:41Z</time>
      </trkpt>
      <trkpt lat="49.06481" lon="0.1808">
        <ele>178.9</ele>
        <time>2024-03-03T08:47:42Z</time>
      </trkpt>
      <trkpt lat="49.06475" lon="0.18085">
        <ele>178.9</ele>
        <time>2024-03-03T08:47:43Z</time>
      </trkpt>
      <trkpt lat="49.06469" lon="0.18091">
        <ele>179</ele>
        <time>2024-03-03T08:47:44Z</time>
      </trkpt>
      <trkpt lat="49.06463" lon="0.18095">
        <ele>179</ele>
        <time>2024-03-03T08:47:45Z</time>
      </trkpt>
      <trkpt lat="49.06456" lon="0.18101">
        <ele>179</ele>
        <time>2024-03-03T08:47:46Z</time>
      </trkpt>
      <trkpt lat="49.0645" lon="0.18106">
        <ele>179</ele>
        <time>2024-03-03T08:47:47Z</time>
      </trkpt>
      <trkpt lat="49.06444" lon="0.18112">
        <ele>179</ele>
        <time>2024-03-03T08:47:48Z</time>
      </trkpt>
      <trkpt lat="49.06438" lon="0.18117">
        <ele>179</ele>
        <time>2024-03-03T08:47:49Z</time>
      </trkpt>
      <trkpt lat="49.06431" lon="0.18122">
        <ele>179</ele>
        <time>2024-03-03T08:47:50Z</time>
      </trkpt>
      <trkpt lat="49.06426" lon="0.18127">
        <ele>178.9</ele>
        <time>2024-03-03T08:47:51Z</time>
      </trkpt>
      <trkpt lat="49.0642" lon="0.18134">
        <ele>178.9</ele>
        <time>2024-03-03T08:47:52Z</time>
      </trkpt>
      <trkpt lat="49.06415" lon="0.18141">
        <ele>178.9</ele>
        <time>2024-03-03T08:47:53Z</time>
      </trkpt>
      <trkpt lat="49.06409" lon="0.18149">
        <ele>178.8</ele>
        <time>2024-03-03T08:47:54Z</time>
      </trkpt>
      <trkpt lat="49.06403" lon="0.18156">
        <ele>178.7</ele>
        <time>2024-03-03T08:47:55Z</time>
      </trkpt>
      <trkpt lat="49.06396" lon="0.18163">
        <ele>178.5</ele>
        <time>2024-03-03T08:47:56Z</time>
      </trkpt>
      <trkpt lat="49.06391" lon="0.18169">
        <ele>178.4</ele>
        <time>2024-03-03T08:47:57Z</time>
      </trkpt>
      <trkpt lat="49.06384" lon="0.18176">
        <ele>178.4</ele>
        <time>2024-03-03T08:47:58Z</time>
      </trkpt>
      <trkpt lat="49.06378" lon="0.18182">
        <ele>178.3</ele>
        <time>2024-03-03T08:47:59Z</time>
      </trkpt>
      <trkpt lat="49.06372" lon="0.18188">
        <ele>178.2</ele>
        <time>2024-03-03T08:48:00Z</time>
      </trkpt>
      <trkpt lat="49.06366" lon="0.18195">
        <ele>178.1</ele>
        <time>2024-03-03T08:48:01Z</time>
      </trkpt>
      <trkpt lat="49.0636" lon="0.18201">
        <ele>178</ele>
        <time>2024-03-03T08:48:02Z</time>
      </trkpt>
      <trkpt lat="49.06354" lon="0.18208">
        <ele>177.8</ele>
        <time>2024-03-03T08:48:03Z</time>
      </trkpt>
      <trkpt lat="49.06349" lon="0.18214">
        <ele>177.7</ele>
        <time>2024-03-03T08:48:04Z</time>
      </trkpt>
      <trkpt lat="49.06343" lon="0.18221">
        <ele>177.6</ele>
        <time>2024-03-03T08:48:05Z</time>
      </trkpt>
      <trkpt lat="49.06338" lon="0.18227">
        <ele>177.6</ele>
        <time>2024-03-03T08:48:06Z</time>
      </trkpt>
      <trkpt lat="49.06332" lon="0.18235">
        <ele>177.5</ele>
        <time>2024-03-03T08:48:07Z</time>
      </trkpt>
      <trkpt lat="49.06327" lon="0.18242">
        <ele>177.4</ele>
        <time>2024-03-03T08:48:08Z</time>
      </trkpt>
      <trkpt lat="49.06322" lon="0.18249">
        <ele>177.3</ele>
        <time>2024-03-03T08:48:09Z</time>
      </trkpt>
      <trkpt lat="49.06317" lon="0.18254">
        <ele>177.3</ele>
        <time>2024-03-03T08:48:10Z</time>
      </trkpt>
      <trkpt lat="49.06313" lon="0.1826">
        <ele>177.2</ele>
        <time>2024-03-03T08:48:11Z</time>
      </trkpt>
      <trkpt lat="49.06308" lon="0.18267">
        <ele>177.1</ele>
        <time>2024-03-03T08:48:12Z</time>
      </trkpt>
      <trkpt lat="49.06304" lon="0.18274">
        <ele>177.1</ele>
        <time>2024-03-03T08:48:13Z</time>
      </trkpt>
      <trkpt lat="49.063" lon="0.18279">
        <ele>177.1</ele>
        <time>2024-03-03T08:48:14Z</time>
      </trkpt>
      <trkpt lat="49.06295" lon="0.18284">
        <ele>177.1</ele>
        <time>2024-03-03T08:48:15Z</time>
      </trkpt>
      <trkpt lat="49.06291" lon="0.18289">
        <ele>177.1</ele>
        <time>2024-03-03T08:48:16Z</time>
      </trkpt>
      <trkpt lat="49.06287" lon="0.18294">
        <ele>177</ele>
        <time>2024-03-03T08:48:17Z</time>
      </trkpt>
      <trkpt lat="49.06283" lon="0.18299">
        <ele>177</ele>
        <time>2024-03-03T08:48:18Z</time>
      </trkpt>
      <trkpt lat="49.0628" lon="0.18304">
        <ele>177</ele>
        <time>2024-03-03T08:48:19Z</time>
      </trkpt>
      <trkpt lat="49.06277" lon="0.18309">
        <ele>177.1</ele>
        <time>2024-03-03T08:48:20Z</time>
      </trkpt>
      <trkpt lat="49.06275" lon="0.18313">
        <ele>177.1</ele>
        <time>2024-03-03T08:48:21Z</time>
      </trkpt>
      <trkpt lat="49.06272" lon="0.18316">
        <ele>177.1</ele>
        <time>2024-03-03T08:48:22Z</time>
      </trkpt>
      <trkpt lat="49.0627" lon="0.18319">
        <ele>177.1</ele>
        <time>2024-03-03T08:48:23Z</time>
      </trkpt>
      <trkpt lat="49.06268" lon="0.18322">
        <ele>177.2</ele>
        <time>2024-03-03T08:48:24Z</time>
      </trkpt>
      <trkpt lat="49.06265" lon="0.18326">
        <ele>177.2</ele>
        <time>2024-03-03T08:48:25Z</time>
      </trkpt>
      <trkpt lat="49.06265" lon="0.18327">
        <ele>177.2</ele>
        <time>2024-03-03T08:48:26Z</time>
      </trkpt>
      <trkpt lat="49.06263" lon="0.18329">
        <ele>177.3</ele>
        <time>2024-03-03T08:48:27Z</time>
      </trkpt>
      <trkpt lat="49.06262" lon="0.1833">
        <ele>177.3</ele>
        <time>2024-03-03T08:48:28Z</time>
      </trkpt>
      <trkpt lat="49.06262" lon="0.18331">
        <ele>177.3</ele>
        <time>2024-03-03T08:48:29Z</time>
      </trkpt>
      <trkpt lat="49.06262" lon="0.18331">
        <ele>177.3</ele>
        <time>2024-03-03T08:48:30Z</time>
      </trkpt>
      <trkpt lat="49.06262" lon="0.18331">
        <ele>177.3</ele>
        <time>2024-03-03T08:48:31Z</time>
      </trkpt>
      <trkpt lat="49.06262" lon="0.18331">
        <ele>177.3</ele>
        <time>2024-03-03T08:48:32Z</time>
      </trkpt>
      <trkpt lat="49.06262" lon="0.18331">
        <ele>177.3</ele>
        <time>2024-03-03T08:48:33Z</time>
      </trkpt>
      <trkpt lat="49.06262" lon="0.18331">
        <ele>177.3</ele>
        <time>2024-03-03T08:48:34Z</time>
      </trkpt>
      <trkpt lat="49.06262" lon="0.18331">
        <ele>177.3</ele>
        <time>2024-03-03T08:48:35Z</time>
      </trkpt>
      <trkpt lat="49.06262" lon="0.18331">
        <ele>177.3</ele>
        <time>2024-03-03T08:48:36Z</time>
      </trkpt>
      <trkpt lat="49.06262" lon="0.18332">
        <ele>177.3</ele>
        <time>2024-03-03T08:48:37Z</time>
      </trkpt>
      <trkpt lat="49.06262" lon="0.18332">
        <ele>177.3</ele>
        <time>2024-03-03T08:48:38Z</time>
      </trkpt>
      <trkpt lat="49.06262" lon="0.18332">
        <ele>177.3</ele>
        <time>2024-03-03T08:48:39Z</time>
      </trkpt>
      <trkpt lat="49.06262" lon="0.18332">
        <ele>177.3</ele>
        <time>2024-03-03T08:48:40Z</time>
      </trkpt>
      <trkpt lat="49.06262" lon="0.18332">
        <ele>177.4</ele>
        <time>2024-03-03T08:48:41Z</time>
      </trkpt>
      <trkpt lat="49.06262" lon="0.18332">
        <ele>177.4</ele>
        <time>2024-03-03T08:48:42Z</time>
      </trkpt>
      <trkpt lat="49.06261" lon="0.18332">
        <ele>177.4</ele>
        <time>2024-03-03T08:48:43Z</time>
      </trkpt>
      <trkpt lat="49.06261" lon="0.18332">
        <ele>177.4</ele>
        <time>2024-03-03T08:48:44Z</time>
      </trkpt>
      <trkpt lat="49.06261" lon="0.18332">
        <ele>177.4</ele>
        <time>2024-03-03T08:48:45Z</time>
      </trkpt>
      <trkpt lat="49.06261" lon="0.18332">
        <ele>177.4</ele>
        <time>2024-03-03T08:48:46Z</time>
      </trkpt>
      <trkpt lat="49.06261" lon="0.18332">
        <ele>177.4</ele>
        <time>2024-03-03T08:48:47Z</time>
      </trkpt>
      <trkpt lat="49.06261" lon="0.18332">
        <ele>177.4</ele>
        <time>2024-03-03T08:48:48Z</time>
      </trkpt>
      <trkpt lat="49.06261" lon="0.18333">
        <ele>177.4</ele>
        <time>2024-03-03T08:48:49Z</time>
      </trkpt>
      <trkpt lat="49.06261" lon="0.18333">
        <ele>177.4</ele>
        <time>2024-03-03T08:48:50Z</time>
      </trkpt>
      <trkpt lat="49.06261" lon="0.18333">
        <ele>177.4</ele>
        <time>2024-03-03T08:48:51Z</time>
      </trkpt>
      <trkpt lat="49.06261" lon="0.18333">
        <ele>177.4</ele>
        <time>2024-03-03T08:48:52Z</time>
      </trkpt>
      <trkpt lat="49.06261" lon="0.18333">
        <ele>177.4</ele>
        <time>2024-03-03T08:48:53Z</time>
      </trkpt>
      <trkpt lat="49.06261" lon="0.18333">
        <ele>177.4</ele>
        <time>2024-03-03T08:48:54Z</time>
      </trkpt>
      <trkpt lat="49.06261" lon="0.18333">
        <ele>177.4</ele>
        <time>2024-03-03T08:48:55Z</time>
      </trkpt>
      <trkpt lat="49.06261" lon="0.18333">
        <ele>177.4</ele>
        <time>2024-03-03T08:48:56Z</time>
      </trkpt>
      <trkpt lat="49.06261" lon="0.18333">
        <ele>177.4</ele>
        <time>2024-03-03T08:48:57Z</time>
      </trkpt>
      <trkpt lat="49.06261" lon="0.18333">
        <ele>177.4</ele>
        <time>2024-03-03T08:48:58Z</time>
      </trkpt>
      <trkpt lat="49.06261" lon="0.18333">
        <ele>177.4</ele>
        <time>2024-03-03T08:48:59Z</time>
      </trkpt>
      <trkpt lat="49.06261" lon="0.18333">
        <ele>177.4</ele>
        <time>2024-03-03T08:49:00Z</time>
      </trkpt>
      <trkpt lat="49.06261" lon="0.18334">
        <ele>177.4</ele>
        <time>2024-03-03T08:49:01Z</time>
      </trkpt>
      <trkpt lat="49.06261" lon="0.18334">
        <ele>177.4</ele>
        <time>2024-03-03T08:49:02Z</time>
      </trkpt>
      <trkpt lat="49.06261" lon="0.18334">
        <ele>177.4</ele>
        <time>2024-03-03T08:49:03Z</time>
      </trkpt>
      <trkpt lat="49.06261" lon="0.18334">
        <ele>177.4</ele>
        <time>2024-03-03T08:49:04Z</time>
      </trkpt>
      <trkpt lat="49.06261" lon="0.18334">
        <ele>177.4</ele>
        <time>2024-03-03T08:49:05Z</time>
      </trkpt>
      <trkpt lat="49.06261" lon="0.18334">
        <ele>177.4</ele>
        <time>2024-03-03T08:49:06Z</time>
      </trkpt>
      <trkpt lat="49.06261" lon="0.18334">
        <ele>177.4</ele>
        <time>2024-03-03T08:49:07Z</time>
      </trkpt>
      <trkpt lat="49.06261" lon="0.18334">
        <ele>177.4</ele>
        <time>2024-03-03T08:49:08Z</time>
      </trkpt>
      <trkpt lat="49.06261" lon="0.18334">
        <ele>177.4</ele>
        <time>2024-03-03T08:49:09Z</time>
      </trkpt>
      <trkpt lat="49.06261" lon="0.18334">
        <ele>177.4</ele>
        <time>2024-03-03T08:49:10Z</time>
      </trkpt>
      <trkpt lat="49.06261" lon="0.18334">
        <ele>177.4</ele>
        <time>2024-03-03T08:49:11Z</time>
      </trkpt>
      <trkpt lat="49.06261" lon="0.18334">
        <ele>177.4</ele>
        <time>2024-03-03T08:49:12Z</time>
      </trkpt>
      <trkpt lat="49.06261" lon="0.18335">
        <ele>177.4</ele>
        <time>2024-03-03T08:49:13Z</time>
      </trkpt>
      <trkpt lat="49.06261" lon="0.18335">
        <ele>177.4</ele>
        <time>2024-03-03T08:49:14Z</time>
      </trkpt>
      <trkpt lat="49.06261" lon="0.18335">
        <ele>177.4</ele>
        <time>2024-03-03T08:49:15Z</time>
      </trkpt>
      <trkpt lat="49.06261" lon="0.18335">
        <ele>177.4</ele>
        <time>2024-03-03T08:49:16Z</time>
      </trkpt>
      <trkpt lat="49.06261" lon="0.18335">
        <ele>177.4</ele>
        <time>2024-03-03T08:49:17Z</time>
      </trkpt>
      <trkpt lat="49.06261" lon="0.18335">
        <ele>177.4</ele>
        <time>2024-03-03T08:49:18Z</time>
      </trkpt>
      <trkpt lat="49.06261" lon="0.18335">
        <ele>177.4</ele>
        <time>2024-03-03T08:49:19Z</time>
      </trkpt>
      <trkpt lat="49.06261" lon="0.18335">
        <ele>177.4</ele>
        <time>2024-03-03T08:49:20Z</time>
      </trkpt>
      <trkpt lat="49.06261" lon="0.18335">
        <ele>177.4</ele>
        <time>2024-03-03T08:49:21Z</time>
      </trkpt>
      <trkpt lat="49.06261" lon="0.18335">
        <ele>177.4</ele>
        <time>2024-03-03T08:49:22Z</time>
      </trkpt>
      <trkpt lat="49.06261" lon="0.18335">
        <ele>177.4</ele>
        <time>2024-03-03T08:49:23Z</time>
      </trkpt>
      <trkpt lat="49.06261" lon="0.18335">
        <ele>177.4</ele>
        <time>2024-03-03T08:49:24Z</time>
      </trkpt>
      <trkpt lat="49.0626" lon="0.18337">
        <ele>177.5</ele>
        <time>2024-03-03T08:49:25Z</time>
      </trkpt>
      <trkpt lat="49.0626" lon="0.18337">
        <ele>177.5</ele>
        <time>2024-03-03T08:49:26Z</time>
      </trkpt>
      <trkpt lat="49.0626" lon="0.18338">
        <ele>177.5</ele>
        <time>2024-03-03T08:49:27Z</time>
      </trkpt>
      <trkpt lat="49.0626" lon="0.18338">
        <ele>177.5</ele>
        <time>2024-03-03T08:49:28Z</time>
      </trkpt>
      <trkpt lat="49.0626" lon="0.18338">
        <ele>177.5</ele>
        <time>2024-03-03T08:49:29Z</time>
      </trkpt>
      <trkpt lat="49.0626" lon="0.18338">
        <ele>177.5</ele>
        <time>2024-03-03T08:49:30Z</time>
      </trkpt>
      <trkpt lat="49.0626" lon="0.18338">
        <ele>177.5</ele>
        <time>2024-03-03T08:49:31Z</time>
      </trkpt>
      <trkpt lat="49.0626" lon="0.18338">
        <ele>177.5</ele>
        <time>2024-03-03T08:49:32Z</time>
      </trkpt>
      <trkpt lat="49.0626" lon="0.18338">
        <ele>177.5</ele>
        <time>2024-03-03T08:49:33Z</time>
      </trkpt>
      <trkpt lat="49.0626" lon="0.18338">
        <ele>177.5</ele>
        <time>2024-03-03T08:49:34Z</time>
      </trkpt>
      <trkpt lat="49.0626" lon="0.18338">
        <ele>177.5</ele>
        <time>2024-03-03T08:49:35Z</time>
      </trkpt>
      <trkpt lat="49.0626" lon="0.18338">
        <ele>177.5</ele>
        <time>2024-03-03T08:49:36Z</time>
      </trkpt>
      <trkpt lat="49.0626" lon="0.18338">
        <ele>177.5</ele>
        <time>2024-03-03T08:49:37Z</time>
      </trkpt>
      <trkpt lat="49.0626" lon="0.18338">
        <ele>177.5</ele>
        <time>2024-03-03T08:49:38Z</time>
      </trkpt>
      <trkpt lat="49.0626" lon="0.18338">
        <ele>177.5</ele>
        <time>2024-03-03T08:49:39Z</time>
      </trkpt>
      <trkpt lat="49.0626" lon="0.18338">
        <ele>177.5</ele>
        <time>2024-03-03T08:49:40Z</time>
      </trkpt>
      <trkpt lat="49.0626" lon="0.18338">
        <ele>177.5</ele>
        <time>2024-03-03T08:49:41Z</time>
      </trkpt>
      <trkpt lat="49.0626" lon="0.18338">
        <ele>177.5</ele>
        <time>2024-03-03T08:49:42Z</time>
      </trkpt>
      <trkpt lat="49.0626" lon="0.18338">
        <ele>177.5</ele>
        <time>2024-03-03T08:49:43Z</time>
      </trkpt>
      <trkpt lat="49.0626" lon="0.18338">
        <ele>177.5</ele>
        <time>2024-03-03T08:49:44Z</time>
      </trkpt>
      <trkpt lat="49.0626" lon="0.18338">
        <ele>177.5</ele>
        <time>2024-03-03T08:49:45Z</time>
      </trkpt>
      <trkpt lat="49.0626" lon="0.18338">
        <ele>177.5</ele>
        <time>2024-03-03T08:49:46Z</time>
      </trkpt>
      <trkpt lat="49.0626" lon="0.18338">
        <ele>177.5</ele>
        <time>2024-03-03T08:49:47Z</time>
      </trkpt>
      <trkpt lat="49.0626" lon="0.18338">
        <ele>177.5</ele>
        <time>2024-03-03T08:49:48Z</time>
      </trkpt>
      <trkpt lat="49.0626" lon="0.18338">
        <ele>177.5</ele>
        <time>2024-03-03T08:49:49Z</time>
      </trkpt>
      <trkpt lat="49.0626" lon="0.18338">
        <ele>177.5</ele>
        <time>2024-03-03T08:49:50Z</time>
      </trkpt>
      <trkpt lat="49.0626" lon="0.18338">
        <ele>177.5</ele>
        <time>2024-03-03T08:49:51Z</time>
      </trkpt>
      <trkpt lat="49.0626" lon="0.18338">
        <ele>177.5</ele>
        <time>2024-03-03T08:49:52Z</time>
      </trkpt>
      <trkpt lat="49.0626" lon="0.18338">
        <ele>177.5</ele>
        <time>2024-03-03T08:49:53Z</time>
      </trkpt>
      <trkpt lat="49.0626" lon="0.18338">
        <ele>177.5</ele>
        <time>2024-03-03T08:49:54Z</time>
      </trkpt>
      <trkpt lat="49.0626" lon="0.18338">
        <ele>177.5</ele>
        <time>2024-03-03T08:49:55Z</time>
      </trkpt>
      <trkpt lat="49.0626" lon="0.18338">
        <ele>177.5</ele>
        <time>2024-03-03T08:49:56Z</time>
      </trkpt>
      <trkpt lat="49.0626" lon="0.18338">
        <ele>177.5</ele>
        <time>2024-03-03T08:49:57Z</time>
      </trkpt>
      <trkpt lat="49.0626" lon="0.18338">
        <ele>177.5</ele>
        <time>2024-03-03T08:49:58Z</time>
      </trkpt>
      <trkpt lat="49.0626" lon="0.18338">
        <ele>177.5</ele>
        <time>2024-03-03T08:49:59Z</time>
      </trkpt>
      <trkpt lat="49.0626" lon="0.18338">
        <ele>177.5</ele>
        <time>2024-03-03T08:50:00Z</time>
      </trkpt>
      <trkpt lat="49.0626" lon="0.18338">
        <ele>177.5</ele>
        <time>2024-03-03T08:50:01Z</time>
      </trkpt>
      <trkpt lat="49.0626" lon="0.18338">
        <ele>177.5</ele>
        <time>2024-03-03T08:50:02Z</time>
      </trkpt>
      <trkpt lat="49.0626" lon="0.18338">
        <ele>177.5</ele>
        <time>2024-03-03T08:50:03Z</time>
      </trkpt>
      <trkpt lat="49.0626" lon="0.18338">
        <ele>177.5</ele>
        <time>2024-03-03T08:50:04Z</time>
      </trkpt>
      <trkpt lat="49.0626" lon="0.18338">
        <ele>177.5</ele>
        <time>2024-03-03T08:50:05Z</time>
      </trkpt>
      <trkpt lat="49.0626" lon="0.18338">
        <ele>177.5</ele>
        <time>2024-03-03T08:50:06Z</time>
      </trkpt>
      <trkpt lat="49.0626" lon="0.18338">
        <ele>177.5</ele>
        <time>2024-03-03T08:50:07Z</time>
      </trkpt>
      <trkpt lat="49.0626" lon="0.18338">
        <ele>177.5</ele>
        <time>2024-03-03T08:50:08Z</time>
      </trkpt>
      <trkpt lat="49.0626" lon="0.18338">
        <ele>177.5</ele>
        <time>2024-03-03T08:50:09Z</time>
      </trkpt>
      <trkpt lat="49.0626" lon="0.18338">
        <ele>177.5</ele>
        <time>2024-03-03T08:50:10Z</time>
      </trkpt>
      <trkpt lat="49.06259" lon="0.18338">
        <ele>177.5</ele>
        <time>2024-03-03T08:50:11Z</time>
      </trkpt>
      <trkpt lat="49.06259" lon="0.18338">
        <ele>177.5</ele>
        <time>2024-03-03T08:50:12Z</time>
      </trkpt>
      <trkpt lat="49.06259" lon="0.18338">
        <ele>177.5</ele>
        <time>2024-03-03T08:50:13Z</time>
      </trkpt>
      <trkpt lat="49.06259" lon="0.18338">
        <ele>177.5</ele>
        <time>2024-03-03T08:50:14Z</time>
      </trkpt>
      <trkpt lat="49.06259" lon="0.18338">
        <ele>177.5</ele>
        <time>2024-03-03T08:50:15Z</time>
      </trkpt>
      <trkpt lat="49.06259" lon="0.18338">
        <ele>177.5</ele>
        <time>2024-03-03T08:50:16Z</time>
      </trkpt>
      <trkpt lat="49.06258" lon="0.18338">
        <ele>177.5</ele>
        <time>2024-03-03T08:50:17Z</time>
      </trkpt>
      <trkpt lat="49.06258" lon="0.18338">
        <ele>177.6</ele>
        <time>2024-03-03T08:50:18Z</time>
      </trkpt>
      <trkpt lat="49.06257" lon="0.18338">
        <ele>177.6</ele>
        <time>2024-03-03T08:50:19Z</time>
      </trkpt>
      <trkpt lat="49.06257" lon="0.18338">
        <ele>177.6</ele>
        <time>2024-03-03T08:50:20Z</time>
      </trkpt>
      <trkpt lat="49.06257" lon="0.18339">
        <ele>177.6</ele>
        <time>2024-03-03T08:50:21Z</time>
      </trkpt>
      <trkpt lat="49.06256" lon="0.18339">
        <ele>177.6</ele>
        <time>2024-03-03T08:50:22Z</time>
      </trkpt>
      <trkpt lat="49.06256" lon="0.18339">
        <ele>177.6</ele>
        <time>2024-03-03T08:50:23Z</time>
      </trkpt>
      <trkpt lat="49.06257" lon="0.18339">
        <ele>177.6</ele>
        <time>2024-03-03T08:50:24Z</time>
      </trkpt>
      <trkpt lat="49.06257" lon="0.18339">
        <ele>177.6</ele>
        <time>2024-03-03T08:50:25Z</time>
      </trkpt>
      <trkpt lat="49.06257" lon="0.18339">
        <ele>177.6</ele>
        <time>2024-03-03T08:50:26Z</time>
      </trkpt>
      <trkpt lat="49.06257" lon="0.18339">
        <ele>177.6</ele>
        <time>2024-03-03T08:50:27Z</time>
      </trkpt>
      <trkpt lat="49.06257" lon="0.18339">
        <ele>177.6</ele>
        <time>2024-03-03T08:50:28Z</time>
      </trkpt>
      <trkpt lat="49.06257" lon="0.18339">
        <ele>177.6</ele>
        <time>2024-03-03T08:50:29Z</time>
      </trkpt>
      <trkpt lat="49.06257" lon="0.18339">
        <ele>177.6</ele>
        <time>2024-03-03T08:50:30Z</time>
      </trkpt>
      <trkpt lat="49.06257" lon="0.18339">
        <ele>177.6</ele>
        <time>2024-03-03T08:50:31Z</time>
      </trkpt>
      <trkpt lat="49.06257" lon="0.18339">
        <ele>177.6</ele>
        <time>2024-03-03T08:50:32Z</time>
      </trkpt>
      <trkpt lat="49.06257" lon="0.18339">
        <ele>177.6</ele>
        <time>2024-03-03T08:50:33Z</time>
      </trkpt>
      <trkpt lat="49.06257" lon="0.18339">
        <ele>177.6</ele>
        <time>2024-03-03T08:50:34Z</time>
      </trkpt>
      <trkpt lat="49.06257" lon="0.18339">
        <ele>177.6</ele>
        <time>2024-03-03T08:50:35Z</time>
      </trkpt>
      <trkpt lat="49.06257" lon="0.18339">
        <ele>177.6</ele>
        <time>2024-03-03T08:50:36Z</time>
      </trkpt>
      <trkpt lat="49.06257" lon="0.18339">
        <ele>177.6</ele>
        <time>2024-03-03T08:50:37Z</time>
      </trkpt>
      <trkpt lat="49.06257" lon="0.18339">
        <ele>177.6</ele>
        <time>2024-03-03T08:50:38Z</time>
      </trkpt>
      <trkpt lat="49.06257" lon="0.18339">
        <ele>177.6</ele>
        <time>2024-03-03T08:50:39Z</time>
      </trkpt>
      <trkpt lat="49.06257" lon="0.18339">
        <ele>177.6</ele>
        <time>2024-03-03T08:50:40Z</time>
      </trkpt>
      <trkpt lat="49.06257" lon="0.18339">
        <ele>177.6</ele>
        <time>2024-03-03T08:50:41Z</time>
      </trkpt>
      <trkpt lat="49.06257" lon="0.18339">
        <ele>177.6</ele>
        <time>2024-03-03T08:50:42Z</time>
      </trkpt>
      <trkpt lat="49.06257" lon="0.18339">
        <ele>177.6</ele>
        <time>2024-03-03T08:50:43Z</time>
      </trkpt>
      <trkpt lat="49.06257" lon="0.18339">
        <ele>177.6</ele>
        <time>2024-03-03T08:50:44Z</time>
      </trkpt>
      <trkpt lat="49.06257" lon="0.18339">
        <ele>177.6</ele>
        <time>2024-03-03T08:50:45Z</time>
      </trkpt>
      <trkpt lat="49.06257" lon="0.18339">
        <ele>177.6</ele>
        <time>2024-03-03T08:50:46Z</time>
      </trkpt>
      <trkpt lat="49.06257" lon="0.18339">
        <ele>177.6</ele>
        <time>2024-03-03T08:50:47Z</time>
      </trkpt>
      <trkpt lat="49.06257" lon="0.18339">
        <ele>177.6</ele>
        <time>2024-03-03T08:50:48Z</time>
      </trkpt>
      <trkpt lat="49.06257" lon="0.18339">
        <ele>177.6</ele>
        <time>2024-03-03T08:50:49Z</time>
      </trkpt>
      <trkpt lat="49.06257" lon="0.18339">
        <ele>177.6</ele>
        <time>2024-03-03T08:50:50Z</time>
      </trkpt>
      <trkpt lat="49.06257" lon="0.18339">
        <ele>177.6</ele>
        <time>2024-03-03T08:50:51Z</time>
      </trkpt>
      <trkpt lat="49.06257" lon="0.18339">
        <ele>177.6</ele>
        <time>2024-03-03T08:50:52Z</time>
      </trkpt>
      <trkpt lat="49.06257" lon="0.18339">
        <ele>177.6</ele>
        <time>2024-03-03T08:50:53Z</time>
      </trkpt>
      <trkpt lat="49.06257" lon="0.18339">
        <ele>177.6</ele>
        <time>2024-03-03T08:50:54Z</time>
      </trkpt>
      <trkpt lat="49.06257" lon="0.18339">
        <ele>177.6</ele>
        <time>2024-03-03T08:50:55Z</time>
      </trkpt>
      <trkpt lat="49.06257" lon="0.18339">
        <ele>177.6</ele>
        <time>2024-03-03T08:50:56Z</time>
      </trkpt>
      <trkpt lat="49.06257" lon="0.18339">
        <ele>177.6</ele>
        <time>2024-03-03T08:50:57Z</time>
      </trkpt>
      <trkpt lat="49.06257" lon="0.18339">
        <ele>177.6</ele>
        <time>2024-03-03T08:50:58Z</time>
      </trkpt>
      <trkpt lat="49.06257" lon="0.18339">
        <ele>177.6</ele>
        <time>2024-03-03T08:50:59Z</time>
      </trkpt>
      <trkpt lat="49.06257" lon="0.18339">
        <ele>177.6</ele>
        <time>2024-03-03T08:51:00Z</time>
      </trkpt>
      <trkpt lat="49.06257" lon="0.18339">
        <ele>177.6</ele>
        <time>2024-03-03T08:51:01Z</time>
      </trkpt>
      <trkpt lat="49.06257" lon="0.18339">
        <ele>177.6</ele>
        <time>2024-03-03T08:51:02Z</time>
      </trkpt>
      <trkpt lat="49.06257" lon="0.18339">
        <ele>177.6</ele>
        <time>2024-03-03T08:51:03Z</time>
      </trkpt>
      <trkpt lat="49.06257" lon="0.18339">
        <ele>177.6</ele>
        <time>2024-03-03T08:51:04Z</time>
      </trkpt>
      <trkpt lat="49.06256" lon="0.1834">
        <ele>177.6</ele>
        <time>2024-03-03T08:51:05Z</time>
      </trkpt>
      <trkpt lat="49.06256" lon="0.18341">
        <ele>177.7</ele>
        <time>2024-03-03T08:51:06Z</time>
      </trkpt>
      <trkpt lat="49.06256" lon="0.18341">
        <ele>177.7</ele>
        <time>2024-03-03T08:51:07Z</time>
      </trkpt>
      <trkpt lat="49.06256" lon="0.18341">
        <ele>177.7</ele>
        <time>2024-03-03T08:51:08Z</time>
      </trkpt>
      <trkpt lat="49.06256" lon="0.18341">
        <ele>177.7</ele>
        <time>2024-03-03T08:51:09Z</time>
      </trkpt>
      <trkpt lat="49.06256" lon="0.18341">
        <ele>177.7</ele>
        <time>2024-03-03T08:51:10Z</time>
      </trkpt>
      <trkpt lat="49.06256" lon="0.18341">
        <ele>177.7</ele>
        <time>2024-03-03T08:51:11Z</time>
      </trkpt>
      <trkpt lat="49.06256" lon="0.18341">
        <ele>177.7</ele>
        <time>2024-03-03T08:51:12Z</time>
      </trkpt>
      <trkpt lat="49.06256" lon="0.18341">
        <ele>177.7</ele>
        <time>2024-03-03T08:51:13Z</time>
      </trkpt>
      <trkpt lat="49.06256" lon="0.18341">
        <ele>177.7</ele>
        <time>2024-03-03T08:51:14Z</time>
      </trkpt>
      <trkpt lat="49.06256" lon="0.18341">
        <ele>177.7</ele>
        <time>2024-03-03T08:51:15Z</time>
      </trkpt>
      <trkpt lat="49.06256" lon="0.18341">
        <ele>177.7</ele>
        <time>2024-03-03T08:51:16Z</time>
      </trkpt>
      <trkpt lat="49.06256" lon="0.18341">
        <ele>177.7</ele>
        <time>2024-03-03T08:51:17Z</time>
      </trkpt>
      <trkpt lat="49.06256" lon="0.18341">
        <ele>177.7</ele>
        <time>2024-03-03T08:51:18Z</time>
      </trkpt>
      <trkpt lat="49.06256" lon="0.18341">
        <ele>177.7</ele>
        <time>2024-03-03T08:51:19Z</time>
      </trkpt>
      <trkpt lat="49.06256" lon="0.18341">
        <ele>177.7</ele>
        <time>2024-03-03T08:51:20Z</time>
      </trkpt>
      <trkpt lat="49.06256" lon="0.18341">
        <ele>177.7</ele>
        <time>2024-03-03T08:51:21Z</time>
      </trkpt>
      <trkpt lat="49.06256" lon="0.18341">
        <ele>177.7</ele>
        <time>2024-03-03T08:51:22Z</time>
      </trkpt>
      <trkpt lat="49.06256" lon="0.18341">
        <ele>177.7</ele>
        <time>2024-03-03T08:51:23Z</time>
      </trkpt>
      <trkpt lat="49.06256" lon="0.18341">
        <ele>177.7</ele>
        <time>2024-03-03T08:51:24Z</time>
      </trkpt>
      <trkpt lat="49.06256" lon="0.18341">
        <ele>177.7</ele>
        <time>2024-03-03T08:51:25Z</time>
      </trkpt>
      <trkpt lat="49.06256" lon="0.18342">
        <ele>177.7</ele>
        <time>2024-03-03T08:51:26Z</time>
      </trkpt>
      <trkpt lat="49.06257" lon="0.18342">
        <ele>177.7</ele>
        <time>2024-03-03T08:51:27Z</time>
      </trkpt>
      <trkpt lat="49.06257" lon="0.18343">
        <ele>177.7</ele>
        <time>2024-03-03T08:51:28Z</time>
      </trkpt>
      <trkpt lat="49.06257" lon="0.18343">
        <ele>177.7</ele>
        <time>2024-03-03T08:51:29Z</time>
      </trkpt>
      <trkpt lat="49.06257" lon="0.18343">
        <ele>177.7</ele>
        <time>2024-03-03T08:51:30Z</time>
      </trkpt>
      <trkpt lat="49.06257" lon="0.18343">
        <ele>177.7</ele>
        <time>2024-03-03T08:51:31Z</time>
      </trkpt>
      <trkpt lat="49.06257" lon="0.18343">
        <ele>177.7</ele>
        <time>2024-03-03T08:51:32Z</time>
      </trkpt>
      <trkpt lat="49.06257" lon="0.18343">
        <ele>177.7</ele>
        <time>2024-03-03T08:51:33Z</time>
      </trkpt>
      <trkpt lat="49.06257" lon="0.18343">
        <ele>177.7</ele>
        <time>2024-03-03T08:51:34Z</time>
      </trkpt>
      <trkpt lat="49.06257" lon="0.18343">
        <ele>177.7</ele>
        <time>2024-03-03T08:51:35Z</time>
      </trkpt>
      <trkpt lat="49.06257" lon="0.18343">
        <ele>177.7</ele>
        <time>2024-03-03T08:51:36Z</time>
      </trkpt>
      <trkpt lat="49.06257" lon="0.18343">
        <ele>177.7</ele>
        <time>2024-03-03T08:51:37Z</time>
      </trkpt>
      <trkpt lat="49.06256" lon="0.18342">
        <ele>177.7</ele>
        <time>2024-03-03T08:51:38Z</time>
      </trkpt>
      <trkpt lat="49.06256" lon="0.18342">
        <ele>177.7</ele>
        <time>2024-03-03T08:51:39Z</time>
      </trkpt>
      <trkpt lat="49.06256" lon="0.18342">
        <ele>177.7</ele>
        <time>2024-03-03T08:51:40Z</time>
      </trkpt>
      <trkpt lat="49.06255" lon="0.18342">
        <ele>177.8</ele>
        <time>2024-03-03T08:51:41Z</time>
      </trkpt>
      <trkpt lat="49.06255" lon="0.18342">
        <ele>177.8</ele>
        <time>2024-03-03T08:51:42Z</time>
      </trkpt>
      <trkpt lat="49.06255" lon="0.18342">
        <ele>177.8</ele>
        <time>2024-03-03T08:51:43Z</time>
      </trkpt>
      <trkpt lat="49.06255" lon="0.18342">
        <ele>177.8</ele>
        <time>2024-03-03T08:51:44Z</time>
      </trkpt>
      <trkpt lat="49.06255" lon="0.18342">
        <ele>177.8</ele>
        <time>2024-03-03T08:51:45Z</time>
      </trkpt>
      <trkpt lat="49.06255" lon="0.18342">
        <ele>177.8</ele>
        <time>2024-03-03T08:51:46Z</time>
      </trkpt>
      <trkpt lat="49.06255" lon="0.18342">
        <ele>177.8</ele>
        <time>2024-03-03T08:51:47Z</time>
      </trkpt>
      <trkpt lat="49.06255" lon="0.18342">
        <ele>177.8</ele>
        <time>2024-03-03T08:51:48Z</time>
      </trkpt>
      <trkpt lat="49.06255" lon="0.18342">
        <ele>177.8</ele>
        <time>2024-03-03T08:51:49Z</time>
      </trkpt>
      <trkpt lat="49.06255" lon="0.18342">
        <ele>177.8</ele>
        <time>2024-03-03T08:51:50Z</time>
      </trkpt>
      <trkpt lat="49.06255" lon="0.18342">
        <ele>177.8</ele>
        <time>2024-03-03T08:51:51Z</time>
      </trkpt>
      <trkpt lat="49.06255" lon="0.18343">
        <ele>177.8</ele>
        <time>2024-03-03T08:51:52Z</time>
      </trkpt>
      <trkpt lat="49.06255" lon="0.18343">
        <ele>177.8</ele>
        <time>2024-03-03T08:51:53Z</time>
      </trkpt>
      <trkpt lat="49.06254" lon="0.18344">
        <ele>177.8</ele>
        <time>2024-03-03T08:51:54Z</time>
      </trkpt>
      <trkpt lat="49.06254" lon="0.18344">
        <ele>177.8</ele>
        <time>2024-03-03T08:51:55Z</time>
      </trkpt>
      <trkpt lat="49.06253" lon="0.18346">
        <ele>177.9</ele>
        <time>2024-03-03T08:51:56Z</time>
      </trkpt>
      <trkpt lat="49.06252" lon="0.18347">
        <ele>177.9</ele>
        <time>2024-03-03T08:51:57Z</time>
      </trkpt>
      <trkpt lat="49.06252" lon="0.18348">
        <ele>177.9</ele>
        <time>2024-03-03T08:51:58Z</time>
      </trkpt>
      <trkpt lat="49.06251" lon="0.18349">
        <ele>177.9</ele>
        <time>2024-03-03T08:51:59Z</time>
      </trkpt>
      <trkpt lat="49.0625" lon="0.18353">
        <ele>178</ele>
        <time>2024-03-03T08:52:00Z</time>
      </trkpt>
      <trkpt lat="49.06249" lon="0.18354">
        <ele>178</ele>
        <time>2024-03-03T08:52:01Z</time>
      </trkpt>
      <trkpt lat="49.06246" lon="0.18356">
        <ele>178.1</ele>
        <time>2024-03-03T08:52:02Z</time>
      </trkpt>
      <trkpt lat="49.06245" lon="0.18356">
        <ele>178.1</ele>
        <time>2024-03-03T08:52:03Z</time>
      </trkpt>
      <trkpt lat="49.06242" lon="0.18356">
        <ele>178</ele>
        <time>2024-03-03T08:52:04Z</time>
      </trkpt>
      <trkpt lat="49.06241" lon="0.18356">
        <ele>178</ele>
        <time>2024-03-03T08:52:05Z</time>
      </trkpt>
      <trkpt lat="49.06237" lon="0.18355">
        <ele>178</ele>
        <time>2024-03-03T08:52:06Z</time>
      </trkpt>
      <trkpt lat="49.06236" lon="0.18355">
        <ele>178</ele>
        <time>2024-03-03T08:52:07Z</time>
      </trkpt>
      <trkpt lat="49.06233" lon="0.18354">
        <ele>177.9</ele>
        <time>2024-03-03T08:52:08Z</time>
      </trkpt>
      <trkpt lat="49.0623" lon="0.18352">
        <ele>177.9</ele>
        <time>2024-03-03T08:52:09Z</time>
      </trkpt>
      <trkpt lat="49.06227" lon="0.18351">
        <ele>177.9</ele>
        <time>2024-03-03T08:52:10Z</time>
      </trkpt>
      <trkpt lat="49.06224" lon="0.1835">
        <ele>177.8</ele>
        <time>2024-03-03T08:52:11Z</time>
      </trkpt>
      <trkpt lat="49.06221" lon="0.18349">
        <ele>177.8</ele>
        <time>2024-03-03T08:52:12Z</time>
      </trkpt>
      <trkpt lat="49.06217" lon="0.18348">
        <ele>177.8</ele>
        <time>2024-03-03T08:52:13Z</time>
      </trkpt>
      <trkpt lat="49.06212" lon="0.18346">
        <ele>177.7</ele>
        <time>2024-03-03T08:52:14Z</time>
      </trkpt>
      <trkpt lat="49.06207" lon="0.18344">
        <ele>177.7</ele>
        <time>2024-03-03T08:52:15Z</time>
      </trkpt>
      <trkpt lat="49.06203" lon="0.18341">
        <ele>177.6</ele>
        <time>2024-03-03T08:52:16Z</time>
      </trkpt>
      <trkpt lat="49.06198" lon="0.1834">
        <ele>177.6</ele>
        <time>2024-03-03T08:52:17Z</time>
      </trkpt>
      <trkpt lat="49.06193" lon="0.18337">
        <ele>177.5</ele>
        <time>2024-03-03T08:52:18Z</time>
      </trkpt>
      <trkpt lat="49.06189" lon="0.18335">
        <ele>177.5</ele>
        <time>2024-03-03T08:52:19Z</time>
      </trkpt>
      <trkpt lat="49.06184" lon="0.18332">
        <ele>177.4</ele>
        <time>2024-03-03T08:52:20Z</time>
      </trkpt>
      <trkpt lat="49.0618" lon="0.1833">
        <ele>177.3</ele>
        <time>2024-03-03T08:52:21Z</time>
      </trkpt>
      <trkpt lat="49.06175" lon="0.18328">
        <ele>177.3</ele>
        <time>2024-03-03T08:52:22Z</time>
      </trkpt>
      <trkpt lat="49.06169" lon="0.18325">
        <ele>177.3</ele>
        <time>2024-03-03T08:52:23Z</time>
      </trkpt>
      <trkpt lat="49.06164" lon="0.18323">
        <ele>177.2</ele>
        <time>2024-03-03T08:52:24Z</time>
      </trkpt>
      <trkpt lat="49.06159" lon="0.1832">
        <ele>177.2</ele>
        <time>2024-03-03T08:52:25Z</time>
      </trkpt>
      <trkpt lat="49.06153" lon="0.18318">
        <ele>177.1</ele>
        <time>2024-03-03T08:52:26Z</time>
      </trkpt>
      <trkpt lat="49.06148" lon="0.18315">
        <ele>177</ele>
        <time>2024-03-03T08:52:27Z</time>
      </trkpt>
      <trkpt lat="49.06143" lon="0.18311">
        <ele>177</ele>
        <time>2024-03-03T08:52:28Z</time>
      </trkpt>
      <trkpt lat="49.06139" lon="0.18308">
        <ele>176.9</ele>
        <time>2024-03-03T08:52:29Z</time>
      </trkpt>
      <trkpt lat="49.06134" lon="0.18305">
        <ele>176.9</ele>
        <time>2024-03-03T08:52:30Z</time>
      </trkpt>
      <trkpt lat="49.0613" lon="0.18302">
        <ele>176.8</ele>
        <time>2024-03-03T08:52:31Z</time>
      </trkpt>
      <trkpt lat="49.06125" lon="0.18299">
        <ele>176.8</ele>
        <time>2024-03-03T08:52:32Z</time>
      </trkpt>
      <trkpt lat="49.06121" lon="0.18296">
        <ele>176.7</ele>
        <time>2024-03-03T08:52:33Z</time>
      </trkpt>
      <trkpt lat="49.06116" lon="0.18293">
        <ele>176.6</ele>
        <time>2024-03-03T08:52:34Z</time>
      </trkpt>
      <trkpt lat="49.0611" lon="0.18291">
        <ele>176.5</ele>
        <time>2024-03-03T08:52:35Z</time>
      </trkpt>
      <trkpt lat="49.06104" lon="0.18289">
        <ele>176.4</ele>
        <time>2024-03-03T08:52:36Z</time>
      </trkpt>
      <trkpt lat="49.06099" lon="0.18286">
        <ele>176.3</ele>
        <time>2024-03-03T08:52:37Z</time>
      </trkpt>
      <trkpt lat="49.06093" lon="0.18283">
        <ele>176.2</ele>
        <time>2024-03-03T08:52:38Z</time>
      </trkpt>
      <trkpt lat="49.06088" lon="0.18279">
        <ele>176.1</ele>
        <time>2024-03-03T08:52:39Z</time>
      </trkpt>
      <trkpt lat="49.06082" lon="0.18275">
        <ele>176</ele>
        <time>2024-03-03T08:52:40Z</time>
      </trkpt>
      <trkpt lat="49.06075" lon="0.18271">
        <ele>175.9</ele>
        <time>2024-03-03T08:52:41Z</time>
      </trkpt>
      <trkpt lat="49.06068" lon="0.18267">
        <ele>175.8</ele>
        <time>2024-03-03T08:52:42Z</time>
      </trkpt>
      <trkpt lat="49.06061" lon="0.18263">
        <ele>175.6</ele>
        <time>2024-03-03T08:52:43Z</time>
      </trkpt>
      <trkpt lat="49.06055" lon="0.18259">
        <ele>175.5</ele>
        <time>2024-03-03T08:52:44Z</time>
      </trkpt>
      <trkpt lat="49.06048" lon="0.18256">
        <ele>175.3</ele>
        <time>2024-03-03T08:52:45Z</time>
      </trkpt>
      <trkpt lat="49.0604" lon="0.18253">
        <ele>175.2</ele>
        <time>2024-03-03T08:52:46Z</time>
      </trkpt>
      <trkpt lat="49.06032" lon="0.18249">
        <ele>175.1</ele>
        <time>2024-03-03T08:52:47Z</time>
      </trkpt>
      <trkpt lat="49.06025" lon="0.18245">
        <ele>175</ele>
        <time>2024-03-03T08:52:48Z</time>
      </trkpt>
      <trkpt lat="49.06017" lon="0.18242">
        <ele>174.8</ele>
        <time>2024-03-03T08:52:49Z</time>
      </trkpt>
      <trkpt lat="49.06009" lon="0.18238">
        <ele>174.7</ele>
        <time>2024-03-03T08:52:50Z</time>
      </trkpt>
      <trkpt lat="49.06001" lon="0.18234">
        <ele>174.5</ele>
        <time>2024-03-03T08:52:51Z</time>
      </trkpt>
      <trkpt lat="49.05992" lon="0.18231">
        <ele>174.3</ele>
        <time>2024-03-03T08:52:52Z</time>
      </trkpt>
      <trkpt lat="49.05983" lon="0.18227">
        <ele>174.2</ele>
        <time>2024-03-03T08:52:53Z</time>
      </trkpt>
      <trkpt lat="49.05974" lon="0.18224">
        <ele>174</ele>
        <time>2024-03-03T08:52:54Z</time>
      </trkpt>
      <trkpt lat="49.05965" lon="0.1822">
        <ele>173.8</ele>
        <time>2024-03-03T08:52:55Z</time>
      </trkpt>
      <trkpt lat="49.05955" lon="0.18216">
        <ele>173.6</ele>
        <time>2024-03-03T08:52:56Z</time>
      </trkpt>
      <trkpt lat="49.05945" lon="0.18212">
        <ele>173.4</ele>
        <time>2024-03-03T08:52:57Z</time>
      </trkpt>
      <trkpt lat="49.05936" lon="0.18208">
        <ele>173.3</ele>
        <time>2024-03-03T08:52:58Z</time>
      </trkpt>
      <trkpt lat="49.05926" lon="0.18204">
        <ele>173.1</ele>
        <time>2024-03-03T08:52:59Z</time>
      </trkpt>
      <trkpt lat="49.05917" lon="0.182">
        <ele>172.9</ele>
        <time>2024-03-03T08:53:00Z</time>
      </trkpt>
      <trkpt lat="49.05908" lon="0.18197">
        <ele>172.8</ele>
        <time>2024-03-03T08:53:01Z</time>
      </trkpt>
      <trkpt lat="49.05898" lon="0.18193">
        <ele>172.6</ele>
        <time>2024-03-03T08:53:02Z</time>
      </trkpt>
      <trkpt lat="49.05889" lon="0.18189">
        <ele>172.5</ele>
        <time>2024-03-03T08:53:03Z</time>
      </trkpt>
      <trkpt lat="49.0588" lon="0.18185">
        <ele>172.4</ele>
        <time>2024-03-03T08:53:04Z</time>
      </trkpt>
      <trkpt lat="49.05872" lon="0.18181">
        <ele>172.3</ele>
        <time>2024-03-03T08:53:05Z</time>
      </trkpt>
      <trkpt lat="49.05863" lon="0.18177">
        <ele>172.2</ele>
        <time>2024-03-03T08:53:06Z</time>
      </trkpt>
      <trkpt lat="49.05854" lon="0.18173">
        <ele>172</ele>
        <time>2024-03-03T08:53:07Z</time>
      </trkpt>
      <trkpt lat="49.05846" lon="0.18169">
        <ele>171.9</ele>
        <time>2024-03-03T08:53:08Z</time>
      </trkpt>
      <trkpt lat="49.05837" lon="0.18165">
        <ele>171.8</ele>
        <time>2024-03-03T08:53:09Z</time>
      </trkpt>
      <trkpt lat="49.05829" lon="0.1816">
        <ele>171.6</ele>
        <time>2024-03-03T08:53:10Z</time>
      </trkpt>
      <trkpt lat="49.05821" lon="0.18156">
        <ele>171.5</ele>
        <time>2024-03-03T08:53:11Z</time>
      </trkpt>
      <trkpt lat="49.05813" lon="0.18151">
        <ele>171.4</ele>
        <time>2024-03-03T08:53:12Z</time>
      </trkpt>
      <trkpt lat="49.05805" lon="0.18146">
        <ele>171.3</ele>
        <time>2024-03-03T08:53:13Z</time>
      </trkpt>
      <trkpt lat="49.05797" lon="0.18141">
        <ele>171.2</ele>
        <time>2024-03-03T08:53:14Z</time>
      </trkpt>
      <trkpt lat="49.05789" lon="0.18135">
        <ele>171.1</ele>
        <time>2024-03-03T08:53:15Z</time>
      </trkpt>
      <trkpt lat="49.05782" lon="0.18128">
        <ele>171</ele>
        <time>2024-03-03T08:53:16Z</time>
      </trkpt>
      <trkpt lat="49.05775" lon="0.1812">
        <ele>170.9</ele>
        <time>2024-03-03T08:53:17Z</time>
      </trkpt>
      <trkpt lat="49.05768" lon="0.18112">
        <ele>170.8</ele>
        <time>2024-03-03T08:53:18Z</time>
      </trkpt>
      <trkpt lat="49.05762" lon="0.18102">
        <ele>170.7</ele>
        <time>2024-03-03T08:53:19Z</time>
      </trkpt>
      <trkpt lat="49.05756" lon="0.18092">
        <ele>170.6</ele>
        <time>2024-03-03T08:53:20Z</time>
      </trkpt>
      <trkpt lat="49.05751" lon="0.18082">
        <ele>170.5</ele>
        <time>2024-03-03T08:53:21Z</time>
      </trkpt>
      <trkpt lat="49.05746" lon="0.18072">
        <ele>170.4</ele>
        <time>2024-03-03T08:53:22Z</time>
      </trkpt>
      <trkpt lat="49.05742" lon="0.18062">
        <ele>170.3</ele>
        <time>2024-03-03T08:53:23Z</time>
      </trkpt>
      <trkpt lat="49.05738" lon="0.18052">
        <ele>170.2</ele>
        <time>2024-03-03T08:53:24Z</time>
      </trkpt>
      <trkpt lat="49.05733" lon="0.18042">
        <ele>170.1</ele>
        <time>2024-03-03T08:53:25Z</time>
      </trkpt>
      <trkpt lat="49.05729" lon="0.18032">
        <ele>169.9</ele>
        <time>2024-03-03T08:53:26Z</time>
      </trkpt>
      <trkpt lat="49.05725" lon="0.18021">
        <ele>169.8</ele>
        <time>2024-03-03T08:53:27Z</time>
      </trkpt>
      <trkpt lat="49.05721" lon="0.1801">
        <ele>169.6</ele>
        <time>2024-03-03T08:53:28Z</time>
      </trkpt>
      <trkpt lat="49.05716" lon="0.18">
        <ele>169.5</ele>
        <time>2024-03-03T08:53:29Z</time>
      </trkpt>
      <trkpt lat="49.05712" lon="0.1799">
        <ele>169.3</ele>
        <time>2024-03-03T08:53:30Z</time>
      </trkpt>
      <trkpt lat="49.05708" lon="0.1798">
        <ele>169.2</ele>
        <time>2024-03-03T08:53:31Z</time>
      </trkpt>
      <trkpt lat="49.05705" lon="0.1797">
        <ele>169</ele>
        <time>2024-03-03T08:53:32Z</time>
      </trkpt>
      <trkpt lat="49.057" lon="0.17959">
        <ele>168.9</ele>
        <time>2024-03-03T08:53:33Z</time>
      </trkpt>
      <trkpt lat="49.05695" lon="0.17948">
        <ele>168.7</ele>
        <time>2024-03-03T08:53:34Z</time>
      </trkpt>
      <trkpt lat="49.05691" lon="0.17938">
        <ele>168.5</ele>
        <time>2024-03-03T08:53:35Z</time>
      </trkpt>
      <trkpt lat="49.05685" lon="0.17927">
        <ele>168.4</ele>
        <time>2024-03-03T08:53:36Z</time>
      </trkpt>
      <trkpt lat="49.05681" lon="0.17916">
        <ele>168.2</ele>
        <time>2024-03-03T08:53:37Z</time>
      </trkpt>
      <trkpt lat="49.05676" lon="0.17906">
        <ele>168</ele>
        <time>2024-03-03T08:53:38Z</time>
      </trkpt>
      <trkpt lat="49.05672" lon="0.17895">
        <ele>167.9</ele>
        <time>2024-03-03T08:53:39Z</time>
      </trkpt>
      <trkpt lat="49.05667" lon="0.17885">
        <ele>167.7</ele>
        <time>2024-03-03T08:53:40Z</time>
      </trkpt>
      <trkpt lat="49.05662" lon="0.17874">
        <ele>167.6</ele>
        <time>2024-03-03T08:53:41Z</time>
      </trkpt>
      <trkpt lat="49.05656" lon="0.17863">
        <ele>167.4</ele>
        <time>2024-03-03T08:53:42Z</time>
      </trkpt>
      <trkpt lat="49.05651" lon="0.17852">
        <ele>167.2</ele>
        <time>2024-03-03T08:53:43Z</time>
      </trkpt>
      <trkpt lat="49.05646" lon="0.17841">
        <ele>167.1</ele>
        <time>2024-03-03T08:53:44Z</time>
      </trkpt>
      <trkpt lat="49.05642" lon="0.1783">
        <ele>166.9</ele>
        <time>2024-03-03T08:53:45Z</time>
      </trkpt>
      <trkpt lat="49.05637" lon="0.17819">
        <ele>166.7</ele>
        <time>2024-03-03T08:53:46Z</time>
      </trkpt>
      <trkpt lat="49.05632" lon="0.17808">
        <ele>166.5</ele>
        <time>2024-03-03T08:53:47Z</time>
      </trkpt>
      <trkpt lat="49.05627" lon="0.17797">
        <ele>166.3</ele>
        <time>2024-03-03T08:53:48Z</time>
      </trkpt>
      <trkpt lat="49.05622" lon="0.17786">
        <ele>166.1</ele>
        <time>2024-03-03T08:53:49Z</time>
      </trkpt>
      <trkpt lat="49.05617" lon="0.17775">
        <ele>165.9</ele>
        <time>2024-03-03T08:53:50Z</time>
      </trkpt>
      <trkpt lat="49.05612" lon="0.17763">
        <ele>165.8</ele>
        <time>2024-03-03T08:53:51Z</time>
      </trkpt>
      <trkpt lat="49.05607" lon="0.17752">
        <ele>165.6</ele>
        <time>2024-03-03T08:53:52Z</time>
      </trkpt>
      <trkpt lat="49.05602" lon="0.1774">
        <ele>165.4</ele>
        <time>2024-03-03T08:53:53Z</time>
      </trkpt>
      <trkpt lat="49.05597" lon="0.17729">
        <ele>165.2</ele>
        <time>2024-03-03T08:53:54Z</time>
      </trkpt>
      <trkpt lat="49.05592" lon="0.17717">
        <ele>165</ele>
        <time>2024-03-03T08:53:55Z</time>
      </trkpt>
      <trkpt lat="49.05586" lon="0.17706">
        <ele>164.8</ele>
        <time>2024-03-03T08:53:56Z</time>
      </trkpt>
      <trkpt lat="49.05581" lon="0.17694">
        <ele>164.6</ele>
        <time>2024-03-03T08:53:57Z</time>
      </trkpt>
      <trkpt lat="49.05576" lon="0.17681">
        <ele>164.4</ele>
        <time>2024-03-03T08:53:58Z</time>
      </trkpt>
      <trkpt lat="49.05571" lon="0.17669">
        <ele>164.3</ele>
        <time>2024-03-03T08:53:59Z</time>
      </trkpt>
      <trkpt lat="49.05566" lon="0.17657">
        <ele>164.1</ele>
        <time>2024-03-03T08:54:00Z</time>
      </trkpt>
      <trkpt lat="49.05561" lon="0.17646">
        <ele>163.9</ele>
        <time>2024-03-03T08:54:01Z</time>
      </trkpt>
      <trkpt lat="49.05556" lon="0.17635">
        <ele>163.8</ele>
        <time>2024-03-03T08:54:02Z</time>
      </trkpt>
      <trkpt lat="49.05551" lon="0.17623">
        <ele>163.6</ele>
        <time>2024-03-03T08:54:03Z</time>
      </trkpt>
      <trkpt lat="49.05546" lon="0.17612">
        <ele>163.4</ele>
        <time>2024-03-03T08:54:04Z</time>
      </trkpt>
      <trkpt lat="49.05541" lon="0.17601">
        <ele>163.2</ele>
        <time>2024-03-03T08:54:05Z</time>
      </trkpt>
      <trkpt lat="49.05535" lon="0.1759">
        <ele>163.1</ele>
        <time>2024-03-03T08:54:06Z</time>
      </trkpt>
      <trkpt lat="49.0553" lon="0.17578">
        <ele>162.9</ele>
        <time>2024-03-03T08:54:07Z</time>
      </trkpt>
      <trkpt lat="49.05526" lon="0.17567">
        <ele>162.7</ele>
        <time>2024-03-03T08:54:08Z</time>
      </trkpt>
      <trkpt lat="49.05521" lon="0.17555">
        <ele>162.5</ele>
        <time>2024-03-03T08:54:09Z</time>
      </trkpt>
      <trkpt lat="49.05516" lon="0.17544">
        <ele>162.3</ele>
        <time>2024-03-03T08:54:10Z</time>
      </trkpt>
      <trkpt lat="49.05511" lon="0.17532">
        <ele>162.1</ele>
        <time>2024-03-03T08:54:11Z</time>
      </trkpt>
      <trkpt lat="49.05505" lon="0.1752">
        <ele>161.9</ele>
        <time>2024-03-03T08:54:12Z</time>
      </trkpt>
      <trkpt lat="49.05501" lon="0.17508">
        <ele>161.8</ele>
        <time>2024-03-03T08:54:13Z</time>
      </trkpt>
      <trkpt lat="49.05496" lon="0.17496">
        <ele>161.6</ele>
        <time>2024-03-03T08:54:14Z</time>
      </trkpt>
      <trkpt lat="49.05491" lon="0.17484">
        <ele>161.5</ele>
        <time>2024-03-03T08:54:15Z</time>
      </trkpt>
      <trkpt lat="49.05485" lon="0.17473">
        <ele>161.3</ele>
        <time>2024-03-03T08:54:16Z</time>
      </trkpt>
      <trkpt lat="49.0548" lon="0.17461">
        <ele>161.1</ele>
        <time>2024-03-03T08:54:17Z</time>
      </trkpt>
      <trkpt lat="49.05476" lon="0.1745">
        <ele>160.9</ele>
        <time>2024-03-03T08:54:18Z</time>
      </trkpt>
      <trkpt lat="49.05471" lon="0.17439">
        <ele>160.7</ele>
        <time>2024-03-03T08:54:19Z</time>
      </trkpt>
      <trkpt lat="49.05466" lon="0.17427">
        <ele>160.5</ele>
        <time>2024-03-03T08:54:20Z</time>
      </trkpt>
      <trkpt lat="49.05461" lon="0.17415">
        <ele>160.3</ele>
        <time>2024-03-03T08:54:21Z</time>
      </trkpt>
      <trkpt lat="49.05456" lon="0.17403">
        <ele>160.2</ele>
        <time>2024-03-03T08:54:22Z</time>
      </trkpt>
      <trkpt lat="49.05451" lon="0.17392">
        <ele>160</ele>
        <time>2024-03-03T08:54:23Z</time>
      </trkpt>
      <trkpt lat="49.05445" lon="0.1738">
        <ele>159.8</ele>
        <time>2024-03-03T08:54:24Z</time>
      </trkpt>
      <trkpt lat="49.05439" lon="0.17367">
        <ele>159.7</ele>
        <time>2024-03-03T08:54:25Z</time>
      </trkpt>
      <trkpt lat="49.05433" lon="0.17355">
        <ele>159.5</ele>
        <time>2024-03-03T08:54:26Z</time>
      </trkpt>
      <trkpt lat="49.05428" lon="0.17342">
        <ele>159.4</ele>
        <time>2024-03-03T08:54:27Z</time>
      </trkpt>
      <trkpt lat="49.05422" lon="0.1733">
        <ele>159.2</ele>
        <time>2024-03-03T08:54:28Z</time>
      </trkpt>
      <trkpt lat="49.05416" lon="0.17319">
        <ele>159</ele>
        <time>2024-03-03T08:54:29Z</time>
      </trkpt>
      <trkpt lat="49.05411" lon="0.17307">
        <ele>158.9</ele>
        <time>2024-03-03T08:54:30Z</time>
      </trkpt>
      <trkpt lat="49.05405" lon="0.17295">
        <ele>158.8</ele>
        <time>2024-03-03T08:54:31Z</time>
      </trkpt>
      <trkpt lat="49.054" lon="0.17284">
        <ele>158.7</ele>
        <time>2024-03-03T08:54:32Z</time>
      </trkpt>
      <trkpt lat="49.05396" lon="0.17273">
        <ele>158.5</ele>
        <time>2024-03-03T08:54:33Z</time>
      </trkpt>
      <trkpt lat="49.05392" lon="0.17262">
        <ele>158.4</ele>
        <time>2024-03-03T08:54:34Z</time>
      </trkpt>
      <trkpt lat="49.05387" lon="0.1725">
        <ele>158.2</ele>
        <time>2024-03-03T08:54:35Z</time>
      </trkpt>
      <trkpt lat="49.05382" lon="0.17238">
        <ele>158.1</ele>
        <time>2024-03-03T08:54:36Z</time>
      </trkpt>
      <trkpt lat="49.05377" lon="0.17226">
        <ele>157.9</ele>
        <time>2024-03-03T08:54:37Z</time>
      </trkpt>
      <trkpt lat="49.05372" lon="0.17214">
        <ele>157.7</ele>
        <time>2024-03-03T08:54:38Z</time>
      </trkpt>
      <trkpt lat="49.05367" lon="0.17203">
        <ele>157.6</ele>
        <time>2024-03-03T08:54:39Z</time>
      </trkpt>
      <trkpt lat="49.05362" lon="0.17191">
        <ele>157.4</ele>
        <time>2024-03-03T08:54:40Z</time>
      </trkpt>
      <trkpt lat="49.05357" lon="0.17179">
        <ele>157.3</ele>
        <time>2024-03-03T08:54:41Z</time>
      </trkpt>
      <trkpt lat="49.05351" lon="0.17167">
        <ele>157.2</ele>
        <time>2024-03-03T08:54:42Z</time>
      </trkpt>
      <trkpt lat="49.05346" lon="0.17155">
        <ele>157.1</ele>
        <time>2024-03-03T08:54:43Z</time>
      </trkpt>
      <trkpt lat="49.0534" lon="0.17143">
        <ele>156.9</ele>
        <time>2024-03-03T08:54:44Z</time>
      </trkpt>
      <trkpt lat="49.05335" lon="0.17132">
        <ele>156.8</ele>
        <time>2024-03-03T08:54:45Z</time>
      </trkpt>
      <trkpt lat="49.05331" lon="0.17121">
        <ele>156.7</ele>
        <time>2024-03-03T08:54:46Z</time>
      </trkpt>
      <trkpt lat="49.05327" lon="0.1711">
        <ele>156.6</ele>
        <time>2024-03-03T08:54:47Z</time>
      </trkpt>
      <trkpt lat="49.05322" lon="0.17099">
        <ele>156.5</ele>
        <time>2024-03-03T08:54:48Z</time>
      </trkpt>
      <trkpt lat="49.05316" lon="0.17088">
        <ele>156.3</ele>
        <time>2024-03-03T08:54:49Z</time>
      </trkpt>
      <trkpt lat="49.05311" lon="0.17076">
        <ele>156.2</ele>
        <time>2024-03-03T08:54:50Z</time>
      </trkpt>
      <trkpt lat="49.05306" lon="0.17063">
        <ele>156.1</ele>
        <time>2024-03-03T08:54:51Z</time>
      </trkpt>
      <trkpt lat="49.05301" lon="0.17051">
        <ele>155.9</ele>
        <time>2024-03-03T08:54:52Z</time>
      </trkpt>
      <trkpt lat="49.05296" lon="0.17039">
        <ele>155.8</ele>
        <time>2024-03-03T08:54:53Z</time>
      </trkpt>
      <trkpt lat="49.05291" lon="0.17027">
        <ele>155.7</ele>
        <time>2024-03-03T08:54:54Z</time>
      </trkpt>
      <trkpt lat="49.05287" lon="0.17015">
        <ele>155.5</ele>
        <time>2024-03-03T08:54:55Z</time>
      </trkpt>
      <trkpt lat="49.05282" lon="0.17002">
        <ele>155.4</ele>
        <time>2024-03-03T08:54:56Z</time>
      </trkpt>
      <trkpt lat="49.05276" lon="0.1699">
        <ele>155.3</ele>
        <time>2024-03-03T08:54:57Z</time>
      </trkpt>
      <trkpt lat="49.05271" lon="0.16977">
        <ele>155.2</ele>
        <time>2024-03-03T08:54:58Z</time>
      </trkpt>
      <trkpt lat="49.05266" lon="0.16965">
        <ele>155</ele>
        <time>2024-03-03T08:54:59Z</time>
      </trkpt>
      <trkpt lat="49.0526" lon="0.16953">
        <ele>154.9</ele>
        <time>2024-03-03T08:55:00Z</time>
      </trkpt>
      <trkpt lat="49.05254" lon="0.1694">
        <ele>154.8</ele>
        <time>2024-03-03T08:55:01Z</time>
      </trkpt>
      <trkpt lat="49.05248" lon="0.16928">
        <ele>154.7</ele>
        <time>2024-03-03T08:55:02Z</time>
      </trkpt>
      <trkpt lat="49.05242" lon="0.16916">
        <ele>154.6</ele>
        <time>2024-03-03T08:55:03Z</time>
      </trkpt>
      <trkpt lat="49.05237" lon="0.16904">
        <ele>154.5</ele>
        <time>2024-03-03T08:55:04Z</time>
      </trkpt>
      <trkpt lat="49.05232" lon="0.16892">
        <ele>154.4</ele>
        <time>2024-03-03T08:55:05Z</time>
      </trkpt>
      <trkpt lat="49.05226" lon="0.1688">
        <ele>154.4</ele>
        <time>2024-03-03T08:55:06Z</time>
      </trkpt>
      <trkpt lat="49.05221" lon="0.16867">
        <ele>154.3</ele>
        <time>2024-03-03T08:55:07Z</time>
      </trkpt>
      <trkpt lat="49.05215" lon="0.16855">
        <ele>154.2</ele>
        <time>2024-03-03T08:55:08Z</time>
      </trkpt>
      <trkpt lat="49.0521" lon="0.16842">
        <ele>154.1</ele>
        <time>2024-03-03T08:55:09Z</time>
      </trkpt>
      <trkpt lat="49.05204" lon="0.16829">
        <ele>154</ele>
        <time>2024-03-03T08:55:10Z</time>
      </trkpt>
      <trkpt lat="49.05198" lon="0.16817">
        <ele>153.8</ele>
        <time>2024-03-03T08:55:11Z</time>
      </trkpt>
      <trkpt lat="49.05192" lon="0.16803">
        <ele>153.7</ele>
        <time>2024-03-03T08:55:12Z</time>
      </trkpt>
      <trkpt lat="49.05186" lon="0.1679">
        <ele>153.5</ele>
        <time>2024-03-03T08:55:13Z</time>
      </trkpt>
      <trkpt lat="49.0518" lon="0.16778">
        <ele>153.4</ele>
        <time>2024-03-03T08:55:14Z</time>
      </trkpt>
      <trkpt lat="49.05174" lon="0.16765">
        <ele>153.3</ele>
        <time>2024-03-03T08:55:15Z</time>
      </trkpt>
      <trkpt lat="49.05168" lon="0.16752">
        <ele>153.1</ele>
        <time>2024-03-03T08:55:16Z</time>
      </trkpt>
      <trkpt lat="49.05162" lon="0.1674">
        <ele>152.9</ele>
        <time>2024-03-03T08:55:17Z</time>
      </trkpt>
      <trkpt lat="49.05157" lon="0.16728">
        <ele>152.8</ele>
        <time>2024-03-03T08:55:18Z</time>
      </trkpt>
      <trkpt lat="49.05152" lon="0.16716">
        <ele>152.6</ele>
        <time>2024-03-03T08:55:19Z</time>
      </trkpt>
      <trkpt lat="49.05147" lon="0.16704">
        <ele>152.4</ele>
        <time>2024-03-03T08:55:20Z</time>
      </trkpt>
      <trkpt lat="49.05142" lon="0.16692">
        <ele>152.2</ele>
        <time>2024-03-03T08:55:21Z</time>
      </trkpt>
      <trkpt lat="49.05136" lon="0.16679">
        <ele>152</ele>
        <time>2024-03-03T08:55:22Z</time>
      </trkpt>
      <trkpt lat="49.05129" lon="0.16667">
        <ele>151.8</ele>
        <time>2024-03-03T08:55:23Z</time>
      </trkpt>
      <trkpt lat="49.05124" lon="0.16655">
        <ele>151.6</ele>
        <time>2024-03-03T08:55:24Z</time>
      </trkpt>
      <trkpt lat="49.05118" lon="0.16642">
        <ele>151.3</ele>
        <time>2024-03-03T08:55:25Z</time>
      </trkpt>
      <trkpt lat="49.05112" lon="0.1663">
        <ele>151.1</ele>
        <time>2024-03-03T08:55:26Z</time>
      </trkpt>
      <trkpt lat="49.05106" lon="0.16617">
        <ele>150.8</ele>
        <time>2024-03-03T08:55:27Z</time>
      </trkpt>
      <trkpt lat="49.051" lon="0.16604">
        <ele>150.5</ele>
        <time>2024-03-03T08:55:28Z</time>
      </trkpt>
      <trkpt lat="49.05094" lon="0.16591">
        <ele>150.3</ele>
        <time>2024-03-03T08:55:29Z</time>
      </trkpt>
      <trkpt lat="49.05088" lon="0.16579">
        <ele>150</ele>
        <time>2024-03-03T08:55:30Z</time>
      </trkpt>
      <trkpt lat="49.05083" lon="0.16567">
        <ele>149.7</ele>
        <time>2024-03-03T08:55:31Z</time>
      </trkpt>
      <trkpt lat="49.05077" lon="0.16554">
        <ele>149.5</ele>
        <time>2024-03-03T08:55:32Z</time>
      </trkpt>
      <trkpt lat="49.05072" lon="0.16541">
        <ele>149.2</ele>
        <time>2024-03-03T08:55:33Z</time>
      </trkpt>
      <trkpt lat="49.05066" lon="0.16528">
        <ele>148.8</ele>
        <time>2024-03-03T08:55:34Z</time>
      </trkpt>
      <trkpt lat="49.05061" lon="0.16516">
        <ele>148.4</ele>
        <time>2024-03-03T08:55:35Z</time>
      </trkpt>
      <trkpt lat="49.05055" lon="0.16503">
        <ele>148</ele>
        <time>2024-03-03T08:55:36Z</time>
      </trkpt>
      <trkpt lat="49.05049" lon="0.1649">
        <ele>147.7</ele>
        <time>2024-03-03T08:55:37Z</time>
      </trkpt>
      <trkpt lat="49.05044" lon="0.16477">
        <ele>147.3</ele>
        <time>2024-03-03T08:55:38Z</time>
      </trkpt>
      <trkpt lat="49.05038" lon="0.16463">
        <ele>146.9</ele>
        <time>2024-03-03T08:55:39Z</time>
      </trkpt>
      <trkpt lat="49.05032" lon="0.1645">
        <ele>146.5</ele>
        <time>2024-03-03T08:55:40Z</time>
      </trkpt>
      <trkpt lat="49.05027" lon="0.16436">
        <ele>146.1</ele>
        <time>2024-03-03T08:55:41Z</time>
      </trkpt>
      <trkpt lat="49.05021" lon="0.16422">
        <ele>145.7</ele>
        <time>2024-03-03T08:55:42Z</time>
      </trkpt>
      <trkpt lat="49.05015" lon="0.16408">
        <ele>145.3</ele>
        <time>2024-03-03T08:55:43Z</time>
      </trkpt>
      <trkpt lat="49.05009" lon="0.16394">
        <ele>144.9</ele>
        <time>2024-03-03T08:55:44Z</time>
      </trkpt>
      <trkpt lat="49.05003" lon="0.1638">
        <ele>144.5</ele>
        <time>2024-03-03T08:55:45Z</time>
      </trkpt>
      <trkpt lat="49.04997" lon="0.16366">
        <ele>144.1</ele>
        <time>2024-03-03T08:55:46Z</time>
      </trkpt>
      <trkpt lat="49.0499" lon="0.16353">
        <ele>143.6</ele>
        <time>2024-03-03T08:55:47Z</time>
      </trkpt>
      <trkpt lat="49.04984" lon="0.16339">
        <ele>143.2</ele>
        <time>2024-03-03T08:55:48Z</time>
      </trkpt>
      <trkpt lat="49.04979" lon="0.16326">
        <ele>142.8</ele>
        <time>2024-03-03T08:55:49Z</time>
      </trkpt>
      <trkpt lat="49.04974" lon="0.16314">
        <ele>142.4</ele>
        <time>2024-03-03T08:55:50Z</time>
      </trkpt>
      <trkpt lat="49.04969" lon="0.16301">
        <ele>141.9</ele>
        <time>2024-03-03T08:55:51Z</time>
      </trkpt>
      <trkpt lat="49.04964" lon="0.16288">
        <ele>141.5</ele>
        <time>2024-03-03T08:55:52Z</time>
      </trkpt>
      <trkpt lat="49.04959" lon="0.16274">
        <ele>141</ele>
        <time>2024-03-03T08:55:53Z</time>
      </trkpt>
      <trkpt lat="49.04954" lon="0.1626">
        <ele>140.5</ele>
        <time>2024-03-03T08:55:54Z</time>
      </trkpt>
      <trkpt lat="49.04948" lon="0.16247">
        <ele>139.9</ele>
        <time>2024-03-03T08:55:55Z</time>
      </trkpt>
      <trkpt lat="49.04943" lon="0.16233">
        <ele>139.4</ele>
        <time>2024-03-03T08:55:56Z</time>
      </trkpt>
      <trkpt lat="49.04938" lon="0.16219">
        <ele>138.9</ele>
        <time>2024-03-03T08:55:57Z</time>
      </trkpt>
      <trkpt lat="49.04932" lon="0.16204">
        <ele>138.3</ele>
        <time>2024-03-03T08:55:58Z</time>
      </trkpt>
      <trkpt lat="49.04926" lon="0.1619">
        <ele>137.8</ele>
        <time>2024-03-03T08:55:59Z</time>
      </trkpt>
      <trkpt lat="49.0492" lon="0.16176">
        <ele>137.2</ele>
        <time>2024-03-03T08:56:00Z</time>
      </trkpt>
      <trkpt lat="49.04914" lon="0.1616">
        <ele>136.6</ele>
        <time>2024-03-03T08:56:01Z</time>
      </trkpt>
      <trkpt lat="49.04908" lon="0.16145">
        <ele>136</ele>
        <time>2024-03-03T08:56:02Z</time>
      </trkpt>
      <trkpt lat="49.04901" lon="0.1613">
        <ele>135.4</ele>
        <time>2024-03-03T08:56:03Z</time>
      </trkpt>
      <trkpt lat="49.04894" lon="0.16115">
        <ele>134.9</ele>
        <time>2024-03-03T08:56:04Z</time>
      </trkpt>
      <trkpt lat="49.04887" lon="0.16101">
        <ele>134.2</ele>
        <time>2024-03-03T08:56:05Z</time>
      </trkpt>
      <trkpt lat="49.04881" lon="0.16086">
        <ele>133.6</ele>
        <time>2024-03-03T08:56:06Z</time>
      </trkpt>
      <trkpt lat="49.04875" lon="0.16072">
        <ele>133</ele>
        <time>2024-03-03T08:56:07Z</time>
      </trkpt>
      <trkpt lat="49.04869" lon="0.16058">
        <ele>132.4</ele>
        <time>2024-03-03T08:56:08Z</time>
      </trkpt>
      <trkpt lat="49.04863" lon="0.16045">
        <ele>131.8</ele>
        <time>2024-03-03T08:56:09Z</time>
      </trkpt>
      <trkpt lat="49.04857" lon="0.1603">
        <ele>131.2</ele>
        <time>2024-03-03T08:56:10Z</time>
      </trkpt>
      <trkpt lat="49.04852" lon="0.16016">
        <ele>130.7</ele>
        <time>2024-03-03T08:56:11Z</time>
      </trkpt>
      <trkpt lat="49.04846" lon="0.16001">
        <ele>130.1</ele>
        <time>2024-03-03T08:56:12Z</time>
      </trkpt>
      <trkpt lat="49.04839" lon="0.15986">
        <ele>129.6</ele>
        <time>2024-03-03T08:56:13Z</time>
      </trkpt>
      <trkpt lat="49.04831" lon="0.15971">
        <ele>128.9</ele>
        <time>2024-03-03T08:56:14Z</time>
      </trkpt>
      <trkpt lat="49.04823" lon="0.15956">
        <ele>128.3</ele>
        <time>2024-03-03T08:56:15Z</time>
      </trkpt>
      <trkpt lat="49.04816" lon="0.1594">
        <ele>127.6</ele>
        <time>2024-03-03T08:56:16Z</time>
      </trkpt>
      <trkpt lat="49.04808" lon="0.15925">
        <ele>126.8</ele>
        <time>2024-03-03T08:56:17Z</time>
      </trkpt>
      <trkpt lat="49.04801" lon="0.15909">
        <ele>126.1</ele>
        <time>2024-03-03T08:56:18Z</time>
      </trkpt>
      <trkpt lat="49.04794" lon="0.15894">
        <ele>125.3</ele>
        <time>2024-03-03T08:56:19Z</time>
      </trkpt>
      <trkpt lat="49.04787" lon="0.15879">
        <ele>124.6</ele>
        <time>2024-03-03T08:56:20Z</time>
      </trkpt>
      <trkpt lat="49.04779" lon="0.15863">
        <ele>123.9</ele>
        <time>2024-03-03T08:56:21Z</time>
      </trkpt>
      <trkpt lat="49.04772" lon="0.15847">
        <ele>123.1</ele>
        <time>2024-03-03T08:56:22Z</time>
      </trkpt>
      <trkpt lat="49.04765" lon="0.15832">
        <ele>122.3</ele>
        <time>2024-03-03T08:56:23Z</time>
      </trkpt>
      <trkpt lat="49.04758" lon="0.15815">
        <ele>121.5</ele>
        <time>2024-03-03T08:56:24Z</time>
      </trkpt>
      <trkpt lat="49.0475" lon="0.15798">
        <ele>120.8</ele>
        <time>2024-03-03T08:56:25Z</time>
      </trkpt>
      <trkpt lat="49.04743" lon="0.15782">
        <ele>120</ele>
        <time>2024-03-03T08:56:26Z</time>
      </trkpt>
      <trkpt lat="49.04735" lon="0.15766">
        <ele>119.2</ele>
        <time>2024-03-03T08:56:27Z</time>
      </trkpt>
      <trkpt lat="49.04728" lon="0.15748">
        <ele>118.4</ele>
        <time>2024-03-03T08:56:28Z</time>
      </trkpt>
      <trkpt lat="49.0472" lon="0.15732">
        <ele>117.5</ele>
        <time>2024-03-03T08:56:29Z</time>
      </trkpt>
      <trkpt lat="49.04713" lon="0.15715">
        <ele>116.7</ele>
        <time>2024-03-03T08:56:30Z</time>
      </trkpt>
      <trkpt lat="49.04705" lon="0.15698">
        <ele>115.8</ele>
        <time>2024-03-03T08:56:31Z</time>
      </trkpt>
      <trkpt lat="49.04698" lon="0.15682">
        <ele>115</ele>
        <time>2024-03-03T08:56:32Z</time>
      </trkpt>
      <trkpt lat="49.04691" lon="0.15665">
        <ele>114.1</ele>
        <time>2024-03-03T08:56:33Z</time>
      </trkpt>
      <trkpt lat="49.04683" lon="0.15649">
        <ele>113.3</ele>
        <time>2024-03-03T08:56:34Z</time>
      </trkpt>
      <trkpt lat="49.04676" lon="0.15633">
        <ele>112.5</ele>
        <time>2024-03-03T08:56:35Z</time>
      </trkpt>
      <trkpt lat="49.04669" lon="0.15617">
        <ele>111.8</ele>
        <time>2024-03-03T08:56:36Z</time>
      </trkpt>
      <trkpt lat="49.04662" lon="0.156">
        <ele>111</ele>
        <time>2024-03-03T08:56:37Z</time>
      </trkpt>
      <trkpt lat="49.04655" lon="0.15583">
        <ele>110.2</ele>
        <time>2024-03-03T08:56:38Z</time>
      </trkpt>
      <trkpt lat="49.04647" lon="0.15567">
        <ele>109.3</ele>
        <time>2024-03-03T08:56:39Z</time>
      </trkpt>
      <trkpt lat="49.0464" lon="0.15551">
        <ele>108.5</ele>
        <time>2024-03-03T08:56:40Z</time>
      </trkpt>
      <trkpt lat="49.04632" lon="0.15535">
        <ele>107.7</ele>
        <time>2024-03-03T08:56:41Z</time>
      </trkpt>
      <trkpt lat="49.04625" lon="0.15518">
        <ele>106.9</ele>
        <time>2024-03-03T08:56:42Z</time>
      </trkpt>
      <trkpt lat="49.04617" lon="0.15501">
        <ele>106.2</ele>
        <time>2024-03-03T08:56:43Z</time>
      </trkpt>
      <trkpt lat="49.0461" lon="0.15484">
        <ele>105.4</ele>
        <time>2024-03-03T08:56:44Z</time>
      </trkpt>
      <trkpt lat="49.04602" lon="0.15468">
        <ele>104.7</ele>
        <time>2024-03-03T08:56:45Z</time>
      </trkpt>
      <trkpt lat="49.04595" lon="0.15452">
        <ele>104.1</ele>
        <time>2024-03-03T08:56:46Z</time>
      </trkpt>
      <trkpt lat="49.04588" lon="0.15436">
        <ele>103.4</ele>
        <time>2024-03-03T08:56:47Z</time>
      </trkpt>
      <trkpt lat="49.04581" lon="0.1542">
        <ele>102.9</ele>
        <time>2024-03-03T08:56:48Z</time>
      </trkpt>
      <trkpt lat="49.04574" lon="0.15404">
        <ele>102.3</ele>
        <time>2024-03-03T08:56:49Z</time>
      </trkpt>
      <trkpt lat="49.04568" lon="0.15388">
        <ele>101.7</ele>
        <time>2024-03-03T08:56:50Z</time>
      </trkpt>
      <trkpt lat="49.04562" lon="0.15373">
        <ele>101.2</ele>
        <time>2024-03-03T08:56:51Z</time>
      </trkpt>
      <trkpt lat="49.04555" lon="0.15357">
        <ele>100.6</ele>
        <time>2024-03-03T08:56:52Z</time>
      </trkpt>
      <trkpt lat="49.04548" lon="0.15342">
        <ele>100.1</ele>
        <time>2024-03-03T08:56:53Z</time>
      </trkpt>
      <trkpt lat="49.04541" lon="0.15328">
        <ele>99.6</ele>
        <time>2024-03-03T08:56:54Z</time>
      </trkpt>
      <trkpt lat="49.04534" lon="0.15313">
        <ele>99</ele>
        <time>2024-03-03T08:56:55Z</time>
      </trkpt>
      <trkpt lat="49.04527" lon="0.15299">
        <ele>98.5</ele>
        <time>2024-03-03T08:56:56Z</time>
      </trkpt>
      <trkpt lat="49.0452" lon="0.15285">
        <ele>98</ele>
        <time>2024-03-03T08:56:57Z</time>
      </trkpt>
      <trkpt lat="49.04514" lon="0.1527">
        <ele>97.4</ele>
        <time>2024-03-03T08:56:58Z</time>
      </trkpt>
      <trkpt lat="49.04507" lon="0.15255">
        <ele>96.8</ele>
        <time>2024-03-03T08:56:59Z</time>
      </trkpt>
      <trkpt lat="49.04499" lon="0.15241">
        <ele>96.2</ele>
        <time>2024-03-03T08:57:00Z</time>
      </trkpt>
      <trkpt lat="49.04491" lon="0.15228">
        <ele>95.7</ele>
        <time>2024-03-03T08:57:01Z</time>
      </trkpt>
      <trkpt lat="49.04483" lon="0.15216">
        <ele>95.1</ele>
        <time>2024-03-03T08:57:02Z</time>
      </trkpt>
      <trkpt lat="49.04475" lon="0.15204">
        <ele>94.6</ele>
        <time>2024-03-03T08:57:03Z</time>
      </trkpt>
      <trkpt lat="49.04466" lon="0.15193">
        <ele>94</ele>
        <time>2024-03-03T08:57:04Z</time>
      </trkpt>
      <trkpt lat="49.04458" lon="0.15182">
        <ele>93.5</ele>
        <time>2024-03-03T08:57:05Z</time>
      </trkpt>
      <trkpt lat="49.04449" lon="0.15171">
        <ele>93</ele>
        <time>2024-03-03T08:57:06Z</time>
      </trkpt>
      <trkpt lat="49.04439" lon="0.1516">
        <ele>92.4</ele>
        <time>2024-03-03T08:57:07Z</time>
      </trkpt>
      <trkpt lat="49.04429" lon="0.1515">
        <ele>91.8</ele>
        <time>2024-03-03T08:57:08Z</time>
      </trkpt>
      <trkpt lat="49.04417" lon="0.15141">
        <ele>91.2</ele>
        <time>2024-03-03T08:57:09Z</time>
      </trkpt>
      <trkpt lat="49.04406" lon="0.15132">
        <ele>90.7</ele>
        <time>2024-03-03T08:57:10Z</time>
      </trkpt>
      <trkpt lat="49.04395" lon="0.15123">
        <ele>90.2</ele>
        <time>2024-03-03T08:57:11Z</time>
      </trkpt>
      <trkpt lat="49.04385" lon="0.15114">
        <ele>89.7</ele>
        <time>2024-03-03T08:57:12Z</time>
      </trkpt>
      <trkpt lat="49.04375" lon="0.15106">
        <ele>89.2</ele>
        <time>2024-03-03T08:57:13Z</time>
      </trkpt>
      <trkpt lat="49.04365" lon="0.15098">
        <ele>88.7</ele>
        <time>2024-03-03T08:57:14Z</time>
      </trkpt>
      <trkpt lat="49.04355" lon="0.15091">
        <ele>88.2</ele>
        <time>2024-03-03T08:57:15Z</time>
      </trkpt>
      <trkpt lat="49.04345" lon="0.15084">
        <ele>87.8</ele>
        <time>2024-03-03T08:57:16Z</time>
      </trkpt>
      <trkpt lat="49.04335" lon="0.15077">
        <ele>87.3</ele>
        <time>2024-03-03T08:57:17Z</time>
      </trkpt>
      <trkpt lat="49.04325" lon="0.15069">
        <ele>86.8</ele>
        <time>2024-03-03T08:57:18Z</time>
      </trkpt>
      <trkpt lat="49.04315" lon="0.15061">
        <ele>86.6</ele>
        <time>2024-03-03T08:57:19Z</time>
      </trkpt>
      <trkpt lat="49.04305" lon="0.15054">
        <ele>86.1</ele>
        <time>2024-03-03T08:57:20Z</time>
      </trkpt>
      <trkpt lat="49.04295" lon="0.15046">
        <ele>85.5</ele>
        <time>2024-03-03T08:57:21Z</time>
      </trkpt>
      <trkpt lat="49.04284" lon="0.15039">
        <ele>84.8</ele>
        <time>2024-03-03T08:57:22Z</time>
      </trkpt>
      <trkpt lat="49.04274" lon="0.15031">
        <ele>84.1</ele>
        <time>2024-03-03T08:57:23Z</time>
      </trkpt>
      <trkpt lat="49.04264" lon="0.15024">
        <ele>83.5</ele>
        <time>2024-03-03T08:57:24Z</time>
      </trkpt>
      <trkpt lat="49.04253" lon="0.15016">
        <ele>82.8</ele>
        <time>2024-03-03T08:57:25Z</time>
      </trkpt>
      <trkpt lat="49.04243" lon="0.1501">
        <ele>82.2</ele>
        <time>2024-03-03T08:57:26Z</time>
      </trkpt>
      <trkpt lat="49.04232" lon="0.15003">
        <ele>81.6</ele>
        <time>2024-03-03T08:57:27Z</time>
      </trkpt>
      <trkpt lat="49.04221" lon="0.14997">
        <ele>80.9</ele>
        <time>2024-03-03T08:57:28Z</time>
      </trkpt>
      <trkpt lat="49.04209" lon="0.14991">
        <ele>80.3</ele>
        <time>2024-03-03T08:57:29Z</time>
      </trkpt>
      <trkpt lat="49.04198" lon="0.14987">
        <ele>79.6</ele>
        <time>2024-03-03T08:57:30Z</time>
      </trkpt>
      <trkpt lat="49.04186" lon="0.14983">
        <ele>79</ele>
        <time>2024-03-03T08:57:31Z</time>
      </trkpt>
      <trkpt lat="49.04174" lon="0.1498">
        <ele>78.4</ele>
        <time>2024-03-03T08:57:32Z</time>
      </trkpt>
      <trkpt lat="49.04162" lon="0.14978">
        <ele>77.7</ele>
        <time>2024-03-03T08:57:33Z</time>
      </trkpt>
      <trkpt lat="49.04149" lon="0.14976">
        <ele>77</ele>
        <time>2024-03-03T08:57:34Z</time>
      </trkpt>
      <trkpt lat="49.04137" lon="0.14976">
        <ele>76.3</ele>
        <time>2024-03-03T08:57:35Z</time>
      </trkpt>
      <trkpt lat="49.04125" lon="0.14976">
        <ele>75.6</ele>
        <time>2024-03-03T08:57:36Z</time>
      </trkpt>
      <trkpt lat="49.04113" lon="0.14977">
        <ele>74.9</ele>
        <time>2024-03-03T08:57:37Z</time>
      </trkpt>
      <trkpt lat="49.04101" lon="0.14978">
        <ele>74.2</ele>
        <time>2024-03-03T08:57:38Z</time>
      </trkpt>
      <trkpt lat="49.04089" lon="0.14979">
        <ele>73.6</ele>
        <time>2024-03-03T08:57:39Z</time>
      </trkpt>
      <trkpt lat="49.04076" lon="0.1498">
        <ele>73.1</ele>
        <time>2024-03-03T08:57:40Z</time>
      </trkpt>
      <trkpt lat="49.04064" lon="0.14981">
        <ele>72.6</ele>
        <time>2024-03-03T08:57:41Z</time>
      </trkpt>
      <trkpt lat="49.04052" lon="0.14981">
        <ele>72.1</ele>
        <time>2024-03-03T08:57:42Z</time>
      </trkpt>
      <trkpt lat="49.04041" lon="0.14982">
        <ele>71.6</ele>
        <time>2024-03-03T08:57:43Z</time>
      </trkpt>
      <trkpt lat="49.0403" lon="0.14983">
        <ele>71.2</ele>
        <time>2024-03-03T08:57:44Z</time>
      </trkpt>
      <trkpt lat="49.04018" lon="0.14984">
        <ele>70.8</ele>
        <time>2024-03-03T08:57:45Z</time>
      </trkpt>
      <trkpt lat="49.04007" lon="0.14985">
        <ele>70.4</ele>
        <time>2024-03-03T08:57:46Z</time>
      </trkpt>
      <trkpt lat="49.03996" lon="0.14986">
        <ele>70</ele>
        <time>2024-03-03T08:57:47Z</time>
      </trkpt>
      <trkpt lat="49.03986" lon="0.14988">
        <ele>69.6</ele>
        <time>2024-03-03T08:57:48Z</time>
      </trkpt>
      <trkpt lat="49.03975" lon="0.14989">
        <ele>69.1</ele>
        <time>2024-03-03T08:57:49Z</time>
      </trkpt>
      <trkpt lat="49.03965" lon="0.14991">
        <ele>68.5</ele>
        <time>2024-03-03T08:57:50Z</time>
      </trkpt>
      <trkpt lat="49.03954" lon="0.14992">
        <ele>67.9</ele>
        <time>2024-03-03T08:57:51Z</time>
      </trkpt>
      <trkpt lat="49.03944" lon="0.14995">
        <ele>67.2</ele>
        <time>2024-03-03T08:57:52Z</time>
      </trkpt>
      <trkpt lat="49.03933" lon="0.14998">
        <ele>66.6</ele>
        <time>2024-03-03T08:57:53Z</time>
      </trkpt>
      <trkpt lat="49.03923" lon="0.15002">
        <ele>66.1</ele>
        <time>2024-03-03T08:57:54Z</time>
      </trkpt>
      <trkpt lat="49.03912" lon="0.15007">
        <ele>65.5</ele>
        <time>2024-03-03T08:57:55Z</time>
      </trkpt>
      <trkpt lat="49.03901" lon="0.15012">
        <ele>65</ele>
        <time>2024-03-03T08:57:56Z</time>
      </trkpt>
      <trkpt lat="49.0389" lon="0.15019">
        <ele>64.3</ele>
        <time>2024-03-03T08:57:57Z</time>
      </trkpt>
      <trkpt lat="49.03879" lon="0.15026">
        <ele>63.6</ele>
        <time>2024-03-03T08:57:58Z</time>
      </trkpt>
      <trkpt lat="49.03868" lon="0.15033">
        <ele>62.9</ele>
        <time>2024-03-03T08:57:59Z</time>
      </trkpt>
      <trkpt lat="49.03857" lon="0.1504">
        <ele>62.3</ele>
        <time>2024-03-03T08:58:00Z</time>
      </trkpt>
      <trkpt lat="49.03846" lon="0.15046">
        <ele>61.6</ele>
        <time>2024-03-03T08:58:01Z</time>
      </trkpt>
      <trkpt lat="49.03836" lon="0.15052">
        <ele>61</ele>
        <time>2024-03-03T08:58:02Z</time>
      </trkpt>
      <trkpt lat="49.03825" lon="0.1506">
        <ele>60.4</ele>
        <time>2024-03-03T08:58:03Z</time>
      </trkpt>
      <trkpt lat="49.03814" lon="0.15067">
        <ele>59.9</ele>
        <time>2024-03-03T08:58:04Z</time>
      </trkpt>
      <trkpt lat="49.03802" lon="0.15074">
        <ele>59.5</ele>
        <time>2024-03-03T08:58:05Z</time>
      </trkpt>
      <trkpt lat="49.03791" lon="0.15081">
        <ele>59.2</ele>
        <time>2024-03-03T08:58:06Z</time>
      </trkpt>
      <trkpt lat="49.03779" lon="0.15088">
        <ele>59</ele>
        <time>2024-03-03T08:58:07Z</time>
      </trkpt>
      <trkpt lat="49.03768" lon="0.15094">
        <ele>58.9</ele>
        <time>2024-03-03T08:58:08Z</time>
      </trkpt>
      <trkpt lat="49.03757" lon="0.15101">
        <ele>58.9</ele>
        <time>2024-03-03T08:58:09Z</time>
      </trkpt>
      <trkpt lat="49.03746" lon="0.15107">
        <ele>59</ele>
        <time>2024-03-03T08:58:10Z</time>
      </trkpt>
      <trkpt lat="49.03736" lon="0.15114">
        <ele>59.2</ele>
        <time>2024-03-03T08:58:11Z</time>
      </trkpt>
      <trkpt lat="49.03726" lon="0.15122">
        <ele>59.5</ele>
        <time>2024-03-03T08:58:12Z</time>
      </trkpt>
      <trkpt lat="49.03717" lon="0.15127">
        <ele>59.7</ele>
        <time>2024-03-03T08:58:13Z</time>
      </trkpt>
      <trkpt lat="49.03709" lon="0.15131">
        <ele>59.9</ele>
        <time>2024-03-03T08:58:14Z</time>
      </trkpt>
      <trkpt lat="49.037" lon="0.15136">
        <ele>60.1</ele>
        <time>2024-03-03T08:58:15Z</time>
      </trkpt>
      <trkpt lat="49.03692" lon="0.15141">
        <ele>60.4</ele>
        <time>2024-03-03T08:58:16Z</time>
      </trkpt>
      <trkpt lat="49.03684" lon="0.15145">
        <ele>60.7</ele>
        <time>2024-03-03T08:58:17Z</time>
      </trkpt>
      <trkpt lat="49.03675" lon="0.15151">
        <ele>61.1</ele>
        <time>2024-03-03T08:58:18Z</time>
      </trkpt>
      <trkpt lat="49.03668" lon="0.15157">
        <ele>61.4</ele>
        <time>2024-03-03T08:58:19Z</time>
      </trkpt>
      <trkpt lat="49.0366" lon="0.15163">
        <ele>61.8</ele>
        <time>2024-03-03T08:58:20Z</time>
      </trkpt>
      <trkpt lat="49.03654" lon="0.15169">
        <ele>62.3</ele>
        <time>2024-03-03T08:58:21Z</time>
      </trkpt>
      <trkpt lat="49.03647" lon="0.15174">
        <ele>62.8</ele>
        <time>2024-03-03T08:58:22Z</time>
      </trkpt>
      <trkpt lat="49.03641" lon="0.15181">
        <ele>63.3</ele>
        <time>2024-03-03T08:58:23Z</time>
      </trkpt>
      <trkpt lat="49.03635" lon="0.15186">
        <ele>63.8</ele>
        <time>2024-03-03T08:58:24Z</time>
      </trkpt>
      <trkpt lat="49.03629" lon="0.15192">
        <ele>64.3</ele>
        <time>2024-03-03T08:58:25Z</time>
      </trkpt>
      <trkpt lat="49.03624" lon="0.15198">
        <ele>64.8</ele>
        <time>2024-03-03T08:58:26Z</time>
      </trkpt>
      <trkpt lat="49.03619" lon="0.15204">
        <ele>65.2</ele>
        <time>2024-03-03T08:58:27Z</time>
      </trkpt>
      <trkpt lat="49.03615" lon="0.1521">
        <ele>65.6</ele>
        <time>2024-03-03T08:58:28Z</time>
      </trkpt>
      <trkpt lat="49.0361" lon="0.15216">
        <ele>65.9</ele>
        <time>2024-03-03T08:58:29Z</time>
      </trkpt>
      <trkpt lat="49.03606" lon="0.15223">
        <ele>66.3</ele>
        <time>2024-03-03T08:58:30Z</time>
      </trkpt>
      <trkpt lat="49.03602" lon="0.1523">
        <ele>66.7</ele>
        <time>2024-03-03T08:58:31Z</time>
      </trkpt>
      <trkpt lat="49.03598" lon="0.15237">
        <ele>67</ele>
        <time>2024-03-03T08:58:32Z</time>
      </trkpt>
      <trkpt lat="49.03594" lon="0.15243">
        <ele>67.4</ele>
        <time>2024-03-03T08:58:33Z</time>
      </trkpt>
      <trkpt lat="49.0359" lon="0.1525">
        <ele>67.7</ele>
        <time>2024-03-03T08:58:34Z</time>
      </trkpt>
      <trkpt lat="49.03586" lon="0.15256">
        <ele>68.1</ele>
        <time>2024-03-03T08:58:35Z</time>
      </trkpt>
      <trkpt lat="49.03582" lon="0.15263">
        <ele>68.4</ele>
        <time>2024-03-03T08:58:36Z</time>
      </trkpt>
      <trkpt lat="49.03579" lon="0.15268">
        <ele>68.8</ele>
        <time>2024-03-03T08:58:37Z</time>
      </trkpt>
      <trkpt lat="49.03575" lon="0.15274">
        <ele>69.1</ele>
        <time>2024-03-03T08:58:38Z</time>
      </trkpt>
      <trkpt lat="49.03572" lon="0.1528">
        <ele>69.4</ele>
        <time>2024-03-03T08:58:39Z</time>
      </trkpt>
      <trkpt lat="49.03568" lon="0.15286">
        <ele>69.7</ele>
        <time>2024-03-03T08:58:40Z</time>
      </trkpt>
      <trkpt lat="49.03564" lon="0.15292">
        <ele>70</ele>
        <time>2024-03-03T08:58:41Z</time>
      </trkpt>
      <trkpt lat="49.03561" lon="0.15297">
        <ele>70.2</ele>
        <time>2024-03-03T08:58:42Z</time>
      </trkpt>
      <trkpt lat="49.03557" lon="0.15303">
        <ele>70.6</ele>
        <time>2024-03-03T08:58:43Z</time>
      </trkpt>
      <trkpt lat="49.03553" lon="0.15309">
        <ele>70.8</ele>
        <time>2024-03-03T08:58:44Z</time>
      </trkpt>
      <trkpt lat="49.0355" lon="0.15314">
        <ele>71.1</ele>
        <time>2024-03-03T08:58:45Z</time>
      </trkpt>
      <trkpt lat="49.03546" lon="0.1532">
        <ele>71.4</ele>
        <time>2024-03-03T08:58:46Z</time>
      </trkpt>
      <trkpt lat="49.03543" lon="0.15326">
        <ele>71.7</ele>
        <time>2024-03-03T08:58:47Z</time>
      </trkpt>
      <trkpt lat="49.03539" lon="0.15332">
        <ele>72</ele>
        <time>2024-03-03T08:58:48Z</time>
      </trkpt>
      <trkpt lat="49.03536" lon="0.15337">
        <ele>72.2</ele>
        <time>2024-03-03T08:58:49Z</time>
      </trkpt>
      <trkpt lat="49.03532" lon="0.15343">
        <ele>72.5</ele>
        <time>2024-03-03T08:58:50Z</time>
      </trkpt>
      <trkpt lat="49.03529" lon="0.15349">
        <ele>72.8</ele>
        <time>2024-03-03T08:58:51Z</time>
      </trkpt>
      <trkpt lat="49.03525" lon="0.15355">
        <ele>73.1</ele>
        <time>2024-03-03T08:58:52Z</time>
      </trkpt>
      <trkpt lat="49.03521" lon="0.15361">
        <ele>73.4</ele>
        <time>2024-03-03T08:58:53Z</time>
      </trkpt>
      <trkpt lat="49.03518" lon="0.15366">
        <ele>73.7</ele>
        <time>2024-03-03T08:58:54Z</time>
      </trkpt>
      <trkpt lat="49.03514" lon="0.15372">
        <ele>73.9</ele>
        <time>2024-03-03T08:58:55Z</time>
      </trkpt>
      <trkpt lat="49.03511" lon="0.15377">
        <ele>74.2</ele>
        <time>2024-03-03T08:58:56Z</time>
      </trkpt>
      <trkpt lat="49.03507" lon="0.15383">
        <ele>74.4</ele>
        <time>2024-03-03T08:58:57Z</time>
      </trkpt>
      <trkpt lat="49.03504" lon="0.15389">
        <ele>74.7</ele>
        <time>2024-03-03T08:58:58Z</time>
      </trkpt>
      <trkpt lat="49.035" lon="0.15396">
        <ele>75</ele>
        <time>2024-03-03T08:58:59Z</time>
      </trkpt>
      <trkpt lat="49.03496" lon="0.15402">
        <ele>75.2</ele>
        <time>2024-03-03T08:59:00Z</time>
      </trkpt>
      <trkpt lat="49.03492" lon="0.15408">
        <ele>75.5</ele>
        <time>2024-03-03T08:59:01Z</time>
      </trkpt>
      <trkpt lat="49.03488" lon="0.15413">
        <ele>75.7</ele>
        <time>2024-03-03T08:59:02Z</time>
      </trkpt>
      <trkpt lat="49.03485" lon="0.15418">
        <ele>75.9</ele>
        <time>2024-03-03T08:59:03Z</time>
      </trkpt>
      <trkpt lat="49.03481" lon="0.15423">
        <ele>76</ele>
        <time>2024-03-03T08:59:04Z</time>
      </trkpt>
      <trkpt lat="49.03477" lon="0.15428">
        <ele>76.2</ele>
        <time>2024-03-03T08:59:05Z</time>
      </trkpt>
      <trkpt lat="49.03472" lon="0.15432">
        <ele>76.3</ele>
        <time>2024-03-03T08:59:06Z</time>
      </trkpt>
      <trkpt lat="49.03466" lon="0.15437">
        <ele>76.5</ele>
        <time>2024-03-03T08:59:07Z</time>
      </trkpt>
      <trkpt lat="49.03461" lon="0.15442">
        <ele>76.6</ele>
        <time>2024-03-03T08:59:08Z</time>
      </trkpt>
      <trkpt lat="49.03455" lon="0.15446">
        <ele>76.6</ele>
        <time>2024-03-03T08:59:09Z</time>
      </trkpt>
      <trkpt lat="49.0345" lon="0.1545">
        <ele>76.7</ele>
        <time>2024-03-03T08:59:10Z</time>
      </trkpt>
      <trkpt lat="49.03444" lon="0.15453">
        <ele>76.7</ele>
        <time>2024-03-03T08:59:11Z</time>
      </trkpt>
      <trkpt lat="49.03438" lon="0.15457">
        <ele>76.8</ele>
        <time>2024-03-03T08:59:12Z</time>
      </trkpt>
      <trkpt lat="49.03431" lon="0.1546">
        <ele>76.8</ele>
        <time>2024-03-03T08:59:13Z</time>
      </trkpt>
      <trkpt lat="49.03425" lon="0.15463">
        <ele>76.8</ele>
        <time>2024-03-03T08:59:14Z</time>
      </trkpt>
      <trkpt lat="49.03419" lon="0.15466">
        <ele>76.8</ele>
        <time>2024-03-03T08:59:15Z</time>
      </trkpt>
      <trkpt lat="49.03413" lon="0.15468">
        <ele>76.8</ele>
        <time>2024-03-03T08:59:16Z</time>
      </trkpt>
      <trkpt lat="49.03406" lon="0.1547">
        <ele>76.8</ele>
        <time>2024-03-03T08:59:17Z</time>
      </trkpt>
      <trkpt lat="49.034" lon="0.15471">
        <ele>76.8</ele>
        <time>2024-03-03T08:59:18Z</time>
      </trkpt>
      <trkpt lat="49.03394" lon="0.15473">
        <ele>76.8</ele>
        <time>2024-03-03T08:59:19Z</time>
      </trkpt>
      <trkpt lat="49.03387" lon="0.15474">
        <ele>76.7</ele>
        <time>2024-03-03T08:59:20Z</time>
      </trkpt>
      <trkpt lat="49.03381" lon="0.15475">
        <ele>76.7</ele>
        <time>2024-03-03T08:59:21Z</time>
      </trkpt>
      <trkpt lat="49.03374" lon="0.15476">
        <ele>76.7</ele>
        <time>2024-03-03T08:59:22Z</time>
      </trkpt>
      <trkpt lat="49.03367" lon="0.15477">
        <ele>76.7</ele>
        <time>2024-03-03T08:59:23Z</time>
      </trkpt>
      <trkpt lat="49.03361" lon="0.15478">
        <ele>76.7</ele>
        <time>2024-03-03T08:59:24Z</time>
      </trkpt>
      <trkpt lat="49.03354" lon="0.15479">
        <ele>76.6</ele>
        <time>2024-03-03T08:59:25Z</time>
      </trkpt>
      <trkpt lat="49.03348" lon="0.1548">
        <ele>76.5</ele>
        <time>2024-03-03T08:59:26Z</time>
      </trkpt>
      <trkpt lat="49.03341" lon="0.15482">
        <ele>76.5</ele>
        <time>2024-03-03T08:59:27Z</time>
      </trkpt>
      <trkpt lat="49.03334" lon="0.15483">
        <ele>76.4</ele>
        <time>2024-03-03T08:59:28Z</time>
      </trkpt>
      <trkpt lat="49.03327" lon="0.15485">
        <ele>76.3</ele>
        <time>2024-03-03T08:59:29Z</time>
      </trkpt>
      <trkpt lat="49.0332" lon="0.15486">
        <ele>76.3</ele>
        <time>2024-03-03T08:59:30Z</time>
      </trkpt>
      <trkpt lat="49.03313" lon="0.15487">
        <ele>76.2</ele>
        <time>2024-03-03T08:59:31Z</time>
      </trkpt>
      <trkpt lat="49.03306" lon="0.15488">
        <ele>76</ele>
        <time>2024-03-03T08:59:32Z</time>
      </trkpt>
      <trkpt lat="49.03299" lon="0.15489">
        <ele>75.9</ele>
        <time>2024-03-03T08:59:33Z</time>
      </trkpt>
      <trkpt lat="49.03292" lon="0.1549">
        <ele>75.8</ele>
        <time>2024-03-03T08:59:34Z</time>
      </trkpt>
      <trkpt lat="49.03285" lon="0.15492">
        <ele>75.6</ele>
        <time>2024-03-03T08:59:35Z</time>
      </trkpt>
      <trkpt lat="49.03277" lon="0.15493">
        <ele>75.5</ele>
        <time>2024-03-03T08:59:36Z</time>
      </trkpt>
      <trkpt lat="49.03269" lon="0.15495">
        <ele>75.4</ele>
        <time>2024-03-03T08:59:37Z</time>
      </trkpt>
      <trkpt lat="49.03261" lon="0.15496">
        <ele>75.2</ele>
        <time>2024-03-03T08:59:38Z</time>
      </trkpt>
      <trkpt lat="49.03253" lon="0.15498">
        <ele>75.1</ele>
        <time>2024-03-03T08:59:39Z</time>
      </trkpt>
      <trkpt lat="49.03245" lon="0.15499">
        <ele>75</ele>
        <time>2024-03-03T08:59:40Z</time>
      </trkpt>
      <trkpt lat="49.03237" lon="0.15499">
        <ele>74.8</ele>
        <time>2024-03-03T08:59:41Z</time>
      </trkpt>
      <trkpt lat="49.03229" lon="0.15499">
        <ele>74.7</ele>
        <time>2024-03-03T08:59:42Z</time>
      </trkpt>
      <trkpt lat="49.03221" lon="0.15499">
        <ele>74.5</ele>
        <time>2024-03-03T08:59:43Z</time>
      </trkpt>
      <trkpt lat="49.03214" lon="0.15499">
        <ele>74.4</ele>
        <time>2024-03-03T08:59:44Z</time>
      </trkpt>
      <trkpt lat="49.03205" lon="0.155">
        <ele>74.2</ele>
        <time>2024-03-03T08:59:45Z</time>
      </trkpt>
      <trkpt lat="49.03197" lon="0.15499">
        <ele>74.1</ele>
        <time>2024-03-03T08:59:46Z</time>
      </trkpt>
      <trkpt lat="49.03189" lon="0.15499">
        <ele>73.9</ele>
        <time>2024-03-03T08:59:47Z</time>
      </trkpt>
      <trkpt lat="49.03181" lon="0.15499">
        <ele>73.7</ele>
        <time>2024-03-03T08:59:48Z</time>
      </trkpt>
      <trkpt lat="49.03173" lon="0.15499">
        <ele>73.6</ele>
        <time>2024-03-03T08:59:49Z</time>
      </trkpt>
      <trkpt lat="49.03165" lon="0.15498">
        <ele>73.4</ele>
        <time>2024-03-03T08:59:50Z</time>
      </trkpt>
      <trkpt lat="49.03156" lon="0.15496">
        <ele>73.2</ele>
        <time>2024-03-03T08:59:51Z</time>
      </trkpt>
      <trkpt lat="49.03148" lon="0.15495">
        <ele>73</ele>
        <time>2024-03-03T08:59:52Z</time>
      </trkpt>
      <trkpt lat="49.03139" lon="0.15494">
        <ele>72.8</ele>
        <time>2024-03-03T08:59:53Z</time>
      </trkpt>
      <trkpt lat="49.03131" lon="0.15493">
        <ele>72.6</ele>
        <time>2024-03-03T08:59:54Z</time>
      </trkpt>
      <trkpt lat="49.03122" lon="0.15491">
        <ele>72.4</ele>
        <time>2024-03-03T08:59:55Z</time>
      </trkpt>
      <trkpt lat="49.03114" lon="0.15491">
        <ele>72.2</ele>
        <time>2024-03-03T08:59:56Z</time>
      </trkpt>
      <trkpt lat="49.03105" lon="0.1549">
        <ele>72.1</ele>
        <time>2024-03-03T08:59:57Z</time>
      </trkpt>
      <trkpt lat="49.03096" lon="0.15489">
        <ele>72</ele>
        <time>2024-03-03T08:59:58Z</time>
      </trkpt>
      <trkpt lat="49.03088" lon="0.15487">
        <ele>71.8</ele>
        <time>2024-03-03T08:59:59Z</time>
      </trkpt>
      <trkpt lat="49.0308" lon="0.15485">
        <ele>71.7</ele>
        <time>2024-03-03T09:00:00Z</time>
      </trkpt>
      <trkpt lat="49.03072" lon="0.15483">
        <ele>71.5</ele>
        <time>2024-03-03T09:00:01Z</time>
      </trkpt>
      <trkpt lat="49.03064" lon="0.1548">
        <ele>71.4</ele>
        <time>2024-03-03T09:00:02Z</time>
      </trkpt>
      <trkpt lat="49.03056" lon="0.15479">
        <ele>71.3</ele>
        <time>2024-03-03T09:00:03Z</time>
      </trkpt>
      <trkpt lat="49.03048" lon="0.15478">
        <ele>71.1</ele>
        <time>2024-03-03T09:00:04Z</time>
      </trkpt>
      <trkpt lat="49.03039" lon="0.15477">
        <ele>71</ele>
        <time>2024-03-03T09:00:05Z</time>
      </trkpt>
      <trkpt lat="49.03031" lon="0.15476">
        <ele>70.9</ele>
        <time>2024-03-03T09:00:06Z</time>
      </trkpt>
      <trkpt lat="49.03022" lon="0.15474">
        <ele>70.7</ele>
        <time>2024-03-03T09:00:07Z</time>
      </trkpt>
      <trkpt lat="49.03013" lon="0.15473">
        <ele>70.6</ele>
        <time>2024-03-03T09:00:08Z</time>
      </trkpt>
      <trkpt lat="49.03005" lon="0.15472">
        <ele>70.5</ele>
        <time>2024-03-03T09:00:09Z</time>
      </trkpt>
      <trkpt lat="49.02997" lon="0.15471">
        <ele>70.4</ele>
        <time>2024-03-03T09:00:10Z</time>
      </trkpt>
      <trkpt lat="49.02989" lon="0.1547">
        <ele>70.3</ele>
        <time>2024-03-03T09:00:11Z</time>
      </trkpt>
      <trkpt lat="49.0298" lon="0.15468">
        <ele>70.3</ele>
        <time>2024-03-03T09:00:12Z</time>
      </trkpt>
      <trkpt lat="49.02972" lon="0.15467">
        <ele>70.2</ele>
        <time>2024-03-03T09:00:13Z</time>
      </trkpt>
      <trkpt lat="49.02963" lon="0.15466">
        <ele>70</ele>
        <time>2024-03-03T09:00:14Z</time>
      </trkpt>
      <trkpt lat="49.02955" lon="0.15465">
        <ele>69.9</ele>
        <time>2024-03-03T09:00:15Z</time>
      </trkpt>
      <trkpt lat="49.02947" lon="0.15464">
        <ele>69.8</ele>
        <time>2024-03-03T09:00:16Z</time>
      </trkpt>
      <trkpt lat="49.02939" lon="0.15463">
        <ele>69.7</ele>
        <time>2024-03-03T09:00:17Z</time>
      </trkpt>
      <trkpt lat="49.02931" lon="0.15462">
        <ele>69.6</ele>
        <time>2024-03-03T09:00:18Z</time>
      </trkpt>
      <trkpt lat="49.02923" lon="0.15462">
        <ele>69.5</ele>
        <time>2024-03-03T09:00:19Z</time>
      </trkpt>
      <trkpt lat="49.02915" lon="0.15461">
        <ele>69.4</ele>
        <time>2024-03-03T09:00:20Z</time>
      </trkpt>
      <trkpt lat="49.02907" lon="0.15461">
        <ele>69.3</ele>
        <time>2024-03-03T09:00:21Z</time>
      </trkpt>
      <trkpt lat="49.02897" lon="0.1546">
        <ele>69.2</ele>
        <time>2024-03-03T09:00:22Z</time>
      </trkpt>
      <trkpt lat="49.02889" lon="0.15458">
        <ele>69</ele>
        <time>2024-03-03T09:00:23Z</time>
      </trkpt>
      <trkpt lat="49.0288" lon="0.15457">
        <ele>68.9</ele>
        <time>2024-03-03T09:00:24Z</time>
      </trkpt>
      <trkpt lat="49.02872" lon="0.15456">
        <ele>68.9</ele>
        <time>2024-03-03T09:00:25Z</time>
      </trkpt>
      <trkpt lat="49.02863" lon="0.15454">
        <ele>68.8</ele>
        <time>2024-03-03T09:00:26Z</time>
      </trkpt>
      <trkpt lat="49.02855" lon="0.15453">
        <ele>68.7</ele>
        <time>2024-03-03T09:00:27Z</time>
      </trkpt>
      <trkpt lat="49.02846" lon="0.15452">
        <ele>68.6</ele>
        <time>2024-03-03T09:00:28Z</time>
      </trkpt>
      <trkpt lat="49.02837" lon="0.1545">
        <ele>68.6</ele>
        <time>2024-03-03T09:00:29Z</time>
      </trkpt>
      <trkpt lat="49.02828" lon="0.15449">
        <ele>68.5</ele>
        <time>2024-03-03T09:00:30Z</time>
      </trkpt>
      <trkpt lat="49.02819" lon="0.15448">
        <ele>68.4</ele>
        <time>2024-03-03T09:00:31Z</time>
      </trkpt>
      <trkpt lat="49.0281" lon="0.15446">
        <ele>68.3</ele>
        <time>2024-03-03T09:00:32Z</time>
      </trkpt>
      <trkpt lat="49.02801" lon="0.15445">
        <ele>68.2</ele>
        <time>2024-03-03T09:00:33Z</time>
      </trkpt>
      <trkpt lat="49.02792" lon="0.15443">
        <ele>68.1</ele>
        <time>2024-03-03T09:00:34Z</time>
      </trkpt>
      <trkpt lat="49.02782" lon="0.15441">
        <ele>68</ele>
        <time>2024-03-03T09:00:35Z</time>
      </trkpt>
      <trkpt lat="49.02773" lon="0.1544">
        <ele>67.9</ele>
        <time>2024-03-03T09:00:36Z</time>
      </trkpt>
      <trkpt lat="49.02763" lon="0.15439">
        <ele>67.8</ele>
        <time>2024-03-03T09:00:37Z</time>
      </trkpt>
      <trkpt lat="49.02754" lon="0.15438">
        <ele>67.7</ele>
        <time>2024-03-03T09:00:38Z</time>
      </trkpt>
      <trkpt lat="49.02744" lon="0.15436">
        <ele>67.7</ele>
        <time>2024-03-03T09:00:39Z</time>
      </trkpt>
      <trkpt lat="49.02735" lon="0.15435">
        <ele>67.6</ele>
        <time>2024-03-03T09:00:40Z</time>
      </trkpt>
      <trkpt lat="49.02726" lon="0.15434">
        <ele>67.5</ele>
        <time>2024-03-03T09:00:41Z</time>
      </trkpt>
      <trkpt lat="49.02717" lon="0.15432">
        <ele>67.4</ele>
        <time>2024-03-03T09:00:42Z</time>
      </trkpt>
      <trkpt lat="49.02708" lon="0.15431">
        <ele>67.4</ele>
        <time>2024-03-03T09:00:43Z</time>
      </trkpt>
      <trkpt lat="49.027" lon="0.1543">
        <ele>67.3</ele>
        <time>2024-03-03T09:00:44Z</time>
      </trkpt>
      <trkpt lat="49.02691" lon="0.15429">
        <ele>67.2</ele>
        <time>2024-03-03T09:00:45Z</time>
      </trkpt>
      <trkpt lat="49.02683" lon="0.15428">
        <ele>67.1</ele>
        <time>2024-03-03T09:00:46Z</time>
      </trkpt>
      <trkpt lat="49.02674" lon="0.15426">
        <ele>67</ele>
        <time>2024-03-03T09:00:47Z</time>
      </trkpt>
      <trkpt lat="49.02665" lon="0.15425">
        <ele>67</ele>
        <time>2024-03-03T09:00:48Z</time>
      </trkpt>
      <trkpt lat="49.02657" lon="0.15424">
        <ele>66.9</ele>
        <time>2024-03-03T09:00:49Z</time>
      </trkpt>
      <trkpt lat="49.02649" lon="0.15422">
        <ele>66.8</ele>
        <time>2024-03-03T09:00:50Z</time>
      </trkpt>
      <trkpt lat="49.0264" lon="0.15421">
        <ele>66.7</ele>
        <time>2024-03-03T09:00:51Z</time>
      </trkpt>
      <trkpt lat="49.02632" lon="0.15419">
        <ele>66.5</ele>
        <time>2024-03-03T09:00:52Z</time>
      </trkpt>
      <trkpt lat="49.02623" lon="0.15418">
        <ele>66.4</ele>
        <time>2024-03-03T09:00:53Z</time>
      </trkpt>
      <trkpt lat="49.02614" lon="0.15416">
        <ele>66.3</ele>
        <time>2024-03-03T09:00:54Z</time>
      </trkpt>
      <trkpt lat="49.02605" lon="0.15415">
        <ele>66.2</ele>
        <time>2024-03-03T09:00:55Z</time>
      </trkpt>
      <trkpt lat="49.02596" lon="0.15413">
        <ele>66.1</ele>
        <time>2024-03-03T09:00:56Z</time>
      </trkpt>
      <trkpt lat="49.02587" lon="0.1541">
        <ele>66</ele>
        <time>2024-03-03T09:00:57Z</time>
      </trkpt>
      <trkpt lat="49.02578" lon="0.15408">
        <ele>65.9</ele>
        <time>2024-03-03T09:00:58Z</time>
      </trkpt>
      <trkpt lat="49.02569" lon="0.15406">
        <ele>65.8</ele>
        <time>2024-03-03T09:00:59Z</time>
      </trkpt>
      <trkpt lat="49.02562" lon="0.15404">
        <ele>65.7</ele>
        <time>2024-03-03T09:01:00Z</time>
      </trkpt>
      <trkpt lat="49.02554" lon="0.15402">
        <ele>65.6</ele>
        <time>2024-03-03T09:01:01Z</time>
      </trkpt>
      <trkpt lat="49.02546" lon="0.15402">
        <ele>65.5</ele>
        <time>2024-03-03T09:01:02Z</time>
      </trkpt>
      <trkpt lat="49.02537" lon="0.15401">
        <ele>65.4</ele>
        <time>2024-03-03T09:01:03Z</time>
      </trkpt>
      <trkpt lat="49.02529" lon="0.154">
        <ele>65.4</ele>
        <time>2024-03-03T09:01:04Z</time>
      </trkpt>
      <trkpt lat="49.0252" lon="0.154">
        <ele>65.4</ele>
        <time>2024-03-03T09:01:05Z</time>
      </trkpt>
      <trkpt lat="49.02511" lon="0.15399">
        <ele>65.4</ele>
        <time>2024-03-03T09:01:06Z</time>
      </trkpt>
      <trkpt lat="49.02503" lon="0.15398">
        <ele>65.5</ele>
        <time>2024-03-03T09:01:07Z</time>
      </trkpt>
      <trkpt lat="49.02495" lon="0.15397">
        <ele>65.5</ele>
        <time>2024-03-03T09:01:08Z</time>
      </trkpt>
      <trkpt lat="49.02487" lon="0.15396">
        <ele>65.6</ele>
        <time>2024-03-03T09:01:09Z</time>
      </trkpt>
      <trkpt lat="49.02479" lon="0.15395">
        <ele>65.7</ele>
        <time>2024-03-03T09:01:10Z</time>
      </trkpt>
      <trkpt lat="49.02471" lon="0.15394">
        <ele>65.7</ele>
        <time>2024-03-03T09:01:11Z</time>
      </trkpt>
      <trkpt lat="49.02463" lon="0.15393">
        <ele>65.8</ele>
        <time>2024-03-03T09:01:12Z</time>
      </trkpt>
      <trkpt lat="49.02456" lon="0.15391">
        <ele>65.8</ele>
        <time>2024-03-03T09:01:13Z</time>
      </trkpt>
      <trkpt lat="49.02448" lon="0.1539">
        <ele>65.9</ele>
        <time>2024-03-03T09:01:14Z</time>
      </trkpt>
      <trkpt lat="49.0244" lon="0.15389">
        <ele>66</ele>
        <time>2024-03-03T09:01:15Z</time>
      </trkpt>
      <trkpt lat="49.02432" lon="0.15388">
        <ele>66.1</ele>
        <time>2024-03-03T09:01:16Z</time>
      </trkpt>
      <trkpt lat="49.02424" lon="0.15387">
        <ele>66.2</ele>
        <time>2024-03-03T09:01:17Z</time>
      </trkpt>
      <trkpt lat="49.02416" lon="0.15386">
        <ele>66.2</ele>
        <time>2024-03-03T09:01:18Z</time>
      </trkpt>
      <trkpt lat="49.02408" lon="0.15384">
        <ele>66.2</ele>
        <time>2024-03-03T09:01:19Z</time>
      </trkpt>
      <trkpt lat="49.024" lon="0.15382">
        <ele>66.2</ele>
        <time>2024-03-03T09:01:20Z</time>
      </trkpt>
      <trkpt lat="49.02392" lon="0.15381">
        <ele>66.1</ele>
        <time>2024-03-03T09:01:21Z</time>
      </trkpt>
      <trkpt lat="49.02384" lon="0.1538">
        <ele>66.1</ele>
        <time>2024-03-03T09:01:22Z</time>
      </trkpt>
      <trkpt lat="49.02376" lon="0.15378">
        <ele>66</ele>
        <time>2024-03-03T09:01:23Z</time>
      </trkpt>
      <trkpt lat="49.02368" lon="0.15377">
        <ele>65.9</ele>
        <time>2024-03-03T09:01:24Z</time>
      </trkpt>
      <trkpt lat="49.0236" lon="0.15375">
        <ele>65.7</ele>
        <time>2024-03-03T09:01:25Z</time>
      </trkpt>
      <trkpt lat="49.02352" lon="0.15374">
        <ele>65.6</ele>
        <time>2024-03-03T09:01:26Z</time>
      </trkpt>
      <trkpt lat="49.02344" lon="0.15372">
        <ele>65.3</ele>
        <time>2024-03-03T09:01:27Z</time>
      </trkpt>
      <trkpt lat="49.02336" lon="0.15371">
        <ele>65.1</ele>
        <time>2024-03-03T09:01:28Z</time>
      </trkpt>
      <trkpt lat="49.02327" lon="0.15369">
        <ele>64.9</ele>
        <time>2024-03-03T09:01:29Z</time>
      </trkpt>
      <trkpt lat="49.02318" lon="0.15368">
        <ele>64.6</ele>
        <time>2024-03-03T09:01:30Z</time>
      </trkpt>
      <trkpt lat="49.02308" lon="0.15367">
        <ele>64.5</ele>
        <time>2024-03-03T09:01:31Z</time>
      </trkpt>
      <trkpt lat="49.02299" lon="0.15366">
        <ele>64.3</ele>
        <time>2024-03-03T09:01:32Z</time>
      </trkpt>
      <trkpt lat="49.0229" lon="0.15364">
        <ele>64.2</ele>
        <time>2024-03-03T09:01:33Z</time>
      </trkpt>
      <trkpt lat="49.02281" lon="0.15363">
        <ele>64</ele>
        <time>2024-03-03T09:01:34Z</time>
      </trkpt>
      <trkpt lat="49.02272" lon="0.15361">
        <ele>63.9</ele>
        <time>2024-03-03T09:01:35Z</time>
      </trkpt>
      <trkpt lat="49.02262" lon="0.15359">
        <ele>63.7</ele>
        <time>2024-03-03T09:01:36Z</time>
      </trkpt>
      <trkpt lat="49.02254" lon="0.15357">
        <ele>63.6</ele>
        <time>2024-03-03T09:01:37Z</time>
      </trkpt>
      <trkpt lat="49.02244" lon="0.15356">
        <ele>63.4</ele>
        <time>2024-03-03T09:01:38Z</time>
      </trkpt>
      <trkpt lat="49.02236" lon="0.15354">
        <ele>63.3</ele>
        <time>2024-03-03T09:01:39Z</time>
      </trkpt>
      <trkpt lat="49.02227" lon="0.15353">
        <ele>63.2</ele>
        <time>2024-03-03T09:01:40Z</time>
      </trkpt>
      <trkpt lat="49.02218" lon="0.15352">
        <ele>63.1</ele>
        <time>2024-03-03T09:01:41Z</time>
      </trkpt>
      <trkpt lat="49.02209" lon="0.1535">
        <ele>63.1</ele>
        <time>2024-03-03T09:01:42Z</time>
      </trkpt>
      <trkpt lat="49.02201" lon="0.15349">
        <ele>63</ele>
        <time>2024-03-03T09:01:43Z</time>
      </trkpt>
      <trkpt lat="49.02192" lon="0.15348">
        <ele>63</ele>
        <time>2024-03-03T09:01:44Z</time>
      </trkpt>
      <trkpt lat="49.02183" lon="0.15346">
        <ele>62.9</ele>
        <time>2024-03-03T09:01:45Z</time>
      </trkpt>
      <trkpt lat="49.02175" lon="0.15345">
        <ele>62.8</ele>
        <time>2024-03-03T09:01:46Z</time>
      </trkpt>
      <trkpt lat="49.02167" lon="0.15344">
        <ele>62.8</ele>
        <time>2024-03-03T09:01:47Z</time>
      </trkpt>
      <trkpt lat="49.02159" lon="0.15343">
        <ele>62.7</ele>
        <time>2024-03-03T09:01:48Z</time>
      </trkpt>
      <trkpt lat="49.02151" lon="0.15342">
        <ele>62.7</ele>
        <time>2024-03-03T09:01:49Z</time>
      </trkpt>
      <trkpt lat="49.02142" lon="0.15341">
        <ele>62.6</ele>
        <time>2024-03-03T09:01:50Z</time>
      </trkpt>
      <trkpt lat="49.02134" lon="0.1534">
        <ele>62.5</ele>
        <time>2024-03-03T09:01:51Z</time>
      </trkpt>
      <trkpt lat="49.02125" lon="0.15339">
        <ele>62.3</ele>
        <time>2024-03-03T09:01:52Z</time>
      </trkpt>
      <trkpt lat="49.02117" lon="0.15337">
        <ele>62.2</ele>
        <time>2024-03-03T09:01:53Z</time>
      </trkpt>
      <trkpt lat="49.02108" lon="0.15336">
        <ele>62.1</ele>
        <time>2024-03-03T09:01:54Z</time>
      </trkpt>
      <trkpt lat="49.02099" lon="0.15335">
        <ele>61.9</ele>
        <time>2024-03-03T09:01:55Z</time>
      </trkpt>
      <trkpt lat="49.02091" lon="0.15333">
        <ele>61.8</ele>
        <time>2024-03-03T09:01:56Z</time>
      </trkpt>
      <trkpt lat="49.02082" lon="0.15331">
        <ele>61.8</ele>
        <time>2024-03-03T09:01:57Z</time>
      </trkpt>
      <trkpt lat="49.02073" lon="0.1533">
        <ele>61.7</ele>
        <time>2024-03-03T09:01:58Z</time>
      </trkpt>
      <trkpt lat="49.02064" lon="0.15329">
        <ele>61.6</ele>
        <time>2024-03-03T09:01:59Z</time>
      </trkpt>
      <trkpt lat="49.02055" lon="0.15328">
        <ele>61.5</ele>
        <time>2024-03-03T09:02:00Z</time>
      </trkpt>
      <trkpt lat="49.02047" lon="0.15327">
        <ele>61.4</ele>
        <time>2024-03-03T09:02:01Z</time>
      </trkpt>
      <trkpt lat="49.02039" lon="0.15326">
        <ele>61.4</ele>
        <time>2024-03-03T09:02:02Z</time>
      </trkpt>
      <trkpt lat="49.0203" lon="0.15325">
        <ele>61.3</ele>
        <time>2024-03-03T09:02:03Z</time>
      </trkpt>
      <trkpt lat="49.02022" lon="0.15323">
        <ele>61.2</ele>
        <time>2024-03-03T09:02:04Z</time>
      </trkpt>
      <trkpt lat="49.02014" lon="0.15321">
        <ele>61.2</ele>
        <time>2024-03-03T09:02:05Z</time>
      </trkpt>
      <trkpt lat="49.02006" lon="0.15319">
        <ele>61.2</ele>
        <time>2024-03-03T09:02:06Z</time>
      </trkpt>
      <trkpt lat="49.01997" lon="0.15317">
        <ele>61.2</ele>
        <time>2024-03-03T09:02:07Z</time>
      </trkpt>
      <trkpt lat="49.01989" lon="0.15315">
        <ele>61.1</ele>
        <time>2024-03-03T09:02:08Z</time>
      </trkpt>
      <trkpt lat="49.0198" lon="0.15314">
        <ele>61.1</ele>
        <time>2024-03-03T09:02:09Z</time>
      </trkpt>
      <trkpt lat="49.01972" lon="0.15312">
        <ele>61.1</ele>
        <time>2024-03-03T09:02:10Z</time>
      </trkpt>
      <trkpt lat="49.01963" lon="0.15311">
        <ele>61.1</ele>
        <time>2024-03-03T09:02:11Z</time>
      </trkpt>
      <trkpt lat="49.01954" lon="0.1531">
        <ele>61</ele>
        <time>2024-03-03T09:02:12Z</time>
      </trkpt>
      <trkpt lat="49.01945" lon="0.15308">
        <ele>61</ele>
        <time>2024-03-03T09:02:13Z</time>
      </trkpt>
      <trkpt lat="49.01937" lon="0.15307">
        <ele>61</ele>
        <time>2024-03-03T09:02:14Z</time>
      </trkpt>
      <trkpt lat="49.01928" lon="0.15305">
        <ele>61</ele>
        <time>2024-03-03T09:02:15Z</time>
      </trkpt>
      <trkpt lat="49.01921" lon="0.15303">
        <ele>61</ele>
        <time>2024-03-03T09:02:16Z</time>
      </trkpt>
      <trkpt lat="49.01913" lon="0.15302">
        <ele>60.9</ele>
        <time>2024-03-03T09:02:17Z</time>
      </trkpt>
      <trkpt lat="49.01905" lon="0.15301">
        <ele>60.9</ele>
        <time>2024-03-03T09:02:18Z</time>
      </trkpt>
      <trkpt lat="49.01898" lon="0.15299">
        <ele>61</ele>
        <time>2024-03-03T09:02:19Z</time>
      </trkpt>
      <trkpt lat="49.0189" lon="0.15298">
        <ele>61</ele>
        <time>2024-03-03T09:02:20Z</time>
      </trkpt>
      <trkpt lat="49.01882" lon="0.15297">
        <ele>61</ele>
        <time>2024-03-03T09:02:21Z</time>
      </trkpt>
      <trkpt lat="49.01873" lon="0.15296">
        <ele>61</ele>
        <time>2024-03-03T09:02:22Z</time>
      </trkpt>
      <trkpt lat="49.01865" lon="0.15294">
        <ele>61.1</ele>
        <time>2024-03-03T09:02:23Z</time>
      </trkpt>
      <trkpt lat="49.01856" lon="0.15293">
        <ele>61.1</ele>
        <time>2024-03-03T09:02:24Z</time>
      </trkpt>
      <trkpt lat="49.01848" lon="0.15291">
        <ele>61.1</ele>
        <time>2024-03-03T09:02:25Z</time>
      </trkpt>
      <trkpt lat="49.01839" lon="0.1529">
        <ele>61.1</ele>
        <time>2024-03-03T09:02:26Z</time>
      </trkpt>
      <trkpt lat="49.01832" lon="0.15289">
        <ele>61.2</ele>
        <time>2024-03-03T09:02:27Z</time>
      </trkpt>
      <trkpt lat="49.01824" lon="0.15288">
        <ele>61.2</ele>
        <time>2024-03-03T09:02:28Z</time>
      </trkpt>
      <trkpt lat="49.01817" lon="0.15286">
        <ele>61.3</ele>
        <time>2024-03-03T09:02:29Z</time>
      </trkpt>
      <trkpt lat="49.0181" lon="0.15285">
        <ele>61.3</ele>
        <time>2024-03-03T09:02:30Z</time>
      </trkpt>
      <trkpt lat="49.01804" lon="0.15284">
        <ele>61.3</ele>
        <time>2024-03-03T09:02:31Z</time>
      </trkpt>
      <trkpt lat="49.01797" lon="0.15283">
        <ele>61.3</ele>
        <time>2024-03-03T09:02:32Z</time>
      </trkpt>
      <trkpt lat="49.0179" lon="0.15282">
        <ele>61.4</ele>
        <time>2024-03-03T09:02:33Z</time>
      </trkpt>
      <trkpt lat="49.01782" lon="0.15281">
        <ele>61.4</ele>
        <time>2024-03-03T09:02:34Z</time>
      </trkpt>
      <trkpt lat="49.01774" lon="0.15279">
        <ele>61.5</ele>
        <time>2024-03-03T09:02:35Z</time>
      </trkpt>
      <trkpt lat="49.01766" lon="0.15278">
        <ele>61.6</ele>
        <time>2024-03-03T09:02:36Z</time>
      </trkpt>
      <trkpt lat="49.01759" lon="0.15278">
        <ele>61.6</ele>
        <time>2024-03-03T09:02:37Z</time>
      </trkpt>
      <trkpt lat="49.01751" lon="0.15277">
        <ele>61.7</ele>
        <time>2024-03-03T09:02:38Z</time>
      </trkpt>
      <trkpt lat="49.01744" lon="0.15275">
        <ele>61.8</ele>
        <time>2024-03-03T09:02:39Z</time>
      </trkpt>
      <trkpt lat="49.01737" lon="0.15274">
        <ele>61.8</ele>
        <time>2024-03-03T09:02:40Z</time>
      </trkpt>
      <trkpt lat="49.01728" lon="0.15273">
        <ele>61.9</ele>
        <time>2024-03-03T09:02:41Z</time>
      </trkpt>
      <trkpt lat="49.01719" lon="0.15271">
        <ele>62</ele>
        <time>2024-03-03T09:02:42Z</time>
      </trkpt>
      <trkpt lat="49.0171" lon="0.1527">
        <ele>62</ele>
        <time>2024-03-03T09:02:43Z</time>
      </trkpt>
      <trkpt lat="49.01701" lon="0.15269">
        <ele>62.1</ele>
        <time>2024-03-03T09:02:44Z</time>
      </trkpt>
      <trkpt lat="49.01692" lon="0.15268">
        <ele>62.2</ele>
        <time>2024-03-03T09:02:45Z</time>
      </trkpt>
      <trkpt lat="49.01684" lon="0.15266">
        <ele>62.3</ele>
        <time>2024-03-03T09:02:46Z</time>
      </trkpt>
      <trkpt lat="49.01676" lon="0.15266">
        <ele>62.4</ele>
        <time>2024-03-03T09:02:47Z</time>
      </trkpt>
      <trkpt lat="49.01667" lon="0.15265">
        <ele>62.5</ele>
        <time>2024-03-03T09:02:48Z</time>
      </trkpt>
      <trkpt lat="49.01659" lon="0.15265">
        <ele>62.6</ele>
        <time>2024-03-03T09:02:49Z</time>
      </trkpt>
      <trkpt lat="49.0165" lon="0.15264">
        <ele>62.7</ele>
        <time>2024-03-03T09:02:50Z</time>
      </trkpt>
      <trkpt lat="49.01642" lon="0.15264">
        <ele>62.8</ele>
        <time>2024-03-03T09:02:51Z</time>
      </trkpt>
      <trkpt lat="49.01634" lon="0.15263">
        <ele>62.9</ele>
        <time>2024-03-03T09:02:52Z</time>
      </trkpt>
      <trkpt lat="49.01626" lon="0.15262">
        <ele>62.9</ele>
        <time>2024-03-03T09:02:53Z</time>
      </trkpt>
      <trkpt lat="49.01618" lon="0.1526">
        <ele>63</ele>
        <time>2024-03-03T09:02:54Z</time>
      </trkpt>
      <trkpt lat="49.0161" lon="0.15257">
        <ele>63.1</ele>
        <time>2024-03-03T09:02:55Z</time>
      </trkpt>
      <trkpt lat="49.01602" lon="0.15254">
        <ele>63.2</ele>
        <time>2024-03-03T09:02:56Z</time>
      </trkpt>
      <trkpt lat="49.01595" lon="0.15253">
        <ele>63.3</ele>
        <time>2024-03-03T09:02:57Z</time>
      </trkpt>
      <trkpt lat="49.01587" lon="0.15251">
        <ele>63.4</ele>
        <time>2024-03-03T09:02:58Z</time>
      </trkpt>
      <trkpt lat="49.0158" lon="0.1525">
        <ele>63.4</ele>
        <time>2024-03-03T09:02:59Z</time>
      </trkpt>
      <trkpt lat="49.01573" lon="0.15249">
        <ele>63.5</ele>
        <time>2024-03-03T09:03:00Z</time>
      </trkpt>
      <trkpt lat="49.01566" lon="0.15247">
        <ele>63.5</ele>
        <time>2024-03-03T09:03:01Z</time>
      </trkpt>
      <trkpt lat="49.0156" lon="0.15245">
        <ele>63.5</ele>
        <time>2024-03-03T09:03:02Z</time>
      </trkpt>
      <trkpt lat="49.01554" lon="0.15243">
        <ele>63.6</ele>
        <time>2024-03-03T09:03:03Z</time>
      </trkpt>
      <trkpt lat="49.01549" lon="0.15241">
        <ele>63.6</ele>
        <time>2024-03-03T09:03:04Z</time>
      </trkpt>
      <trkpt lat="49.01543" lon="0.15239">
        <ele>63.7</ele>
        <time>2024-03-03T09:03:05Z</time>
      </trkpt>
      <trkpt lat="49.01538" lon="0.15236">
        <ele>63.7</ele>
        <time>2024-03-03T09:03:06Z</time>
      </trkpt>
      <trkpt lat="49.01534" lon="0.15232">
        <ele>63.7</ele>
        <time>2024-03-03T09:03:07Z</time>
      </trkpt>
      <trkpt lat="49.0153" lon="0.15226">
        <ele>63.8</ele>
        <time>2024-03-03T09:03:08Z</time>
      </trkpt>
      <trkpt lat="49.01527" lon="0.15219">
        <ele>63.8</ele>
        <time>2024-03-03T09:03:09Z</time>
      </trkpt>
      <trkpt lat="49.01526" lon="0.15211">
        <ele>63.8</ele>
        <time>2024-03-03T09:03:10Z</time>
      </trkpt>
      <trkpt lat="49.01525" lon="0.15201">
        <ele>63.8</ele>
        <time>2024-03-03T09:03:11Z</time>
      </trkpt>
      <trkpt lat="49.01523" lon="0.15192">
        <ele>63.7</ele>
        <time>2024-03-03T09:03:12Z</time>
      </trkpt>
      <trkpt lat="49.0152" lon="0.15183">
        <ele>63.6</ele>
        <time>2024-03-03T09:03:13Z</time>
      </trkpt>
      <trkpt lat="49.01515" lon="0.15176">
        <ele>63.6</ele>
        <time>2024-03-03T09:03:14Z</time>
      </trkpt>
      <trkpt lat="49.01509" lon="0.15171">
        <ele>63.5</ele>
        <time>2024-03-03T09:03:15Z</time>
      </trkpt>
      <trkpt lat="49.01503" lon="0.15168">
        <ele>63.4</ele>
        <time>2024-03-03T09:03:16Z</time>
      </trkpt>
      <trkpt lat="49.01496" lon="0.15167">
        <ele>63.3</ele>
        <time>2024-03-03T09:03:17Z</time>
      </trkpt>
      <trkpt lat="49.01489" lon="0.15168">
        <ele>63.3</ele>
        <time>2024-03-03T09:03:18Z</time>
      </trkpt>
      <trkpt lat="49.01483" lon="0.1517">
        <ele>63.3</ele>
        <time>2024-03-03T09:03:19Z</time>
      </trkpt>
      <trkpt lat="49.01477" lon="0.15173">
        <ele>63.3</ele>
        <time>2024-03-03T09:03:20Z</time>
      </trkpt>
      <trkpt lat="49.0147" lon="0.15173">
        <ele>63.2</ele>
        <time>2024-03-03T09:03:21Z</time>
      </trkpt>
      <trkpt lat="49.01463" lon="0.15171">
        <ele>63.2</ele>
        <time>2024-03-03T09:03:22Z</time>
      </trkpt>
      <trkpt lat="49.01456" lon="0.15168">
        <ele>63.1</ele>
        <time>2024-03-03T09:03:23Z</time>
      </trkpt>
      <trkpt lat="49.01449" lon="0.15163">
        <ele>63</ele>
        <time>2024-03-03T09:03:24Z</time>
      </trkpt>
      <trkpt lat="49.01442" lon="0.15159">
        <ele>62.9</ele>
        <time>2024-03-03T09:03:25Z</time>
      </trkpt>
      <trkpt lat="49.01435" lon="0.15155">
        <ele>62.8</ele>
        <time>2024-03-03T09:03:26Z</time>
      </trkpt>
      <trkpt lat="49.01428" lon="0.15152">
        <ele>62.7</ele>
        <time>2024-03-03T09:03:27Z</time>
      </trkpt>
      <trkpt lat="49.0142" lon="0.1515">
        <ele>62.6</ele>
        <time>2024-03-03T09:03:28Z</time>
      </trkpt>
      <trkpt lat="49.01414" lon="0.15148">
        <ele>62.5</ele>
        <time>2024-03-03T09:03:29Z</time>
      </trkpt>
      <trkpt lat="49.01407" lon="0.15147">
        <ele>62.5</ele>
        <time>2024-03-03T09:03:30Z</time>
      </trkpt>
      <trkpt lat="49.01399" lon="0.15145">
        <ele>62.4</ele>
        <time>2024-03-03T09:03:31Z</time>
      </trkpt>
      <trkpt lat="49.01392" lon="0.15145">
        <ele>62.4</ele>
        <time>2024-03-03T09:03:32Z</time>
      </trkpt>
      <trkpt lat="49.01385" lon="0.15145">
        <ele>62.4</ele>
        <time>2024-03-03T09:03:33Z</time>
      </trkpt>
      <trkpt lat="49.01377" lon="0.15146">
        <ele>62.4</ele>
        <time>2024-03-03T09:03:34Z</time>
      </trkpt>
      <trkpt lat="49.0137" lon="0.15148">
        <ele>62.5</ele>
        <time>2024-03-03T09:03:35Z</time>
      </trkpt>
      <trkpt lat="49.01363" lon="0.1515">
        <ele>62.5</ele>
        <time>2024-03-03T09:03:36Z</time>
      </trkpt>
      <trkpt lat="49.01357" lon="0.15152">
        <ele>62.5</ele>
        <time>2024-03-03T09:03:37Z</time>
      </trkpt>
      <trkpt lat="49.01349" lon="0.15155">
        <ele>62.5</ele>
        <time>2024-03-03T09:03:38Z</time>
      </trkpt>
      <trkpt lat="49.01342" lon="0.15157">
        <ele>62.5</ele>
        <time>2024-03-03T09:03:39Z</time>
      </trkpt>
      <trkpt lat="49.01335" lon="0.15159">
        <ele>62.5</ele>
        <time>2024-03-03T09:03:40Z</time>
      </trkpt>
      <trkpt lat="49.01328" lon="0.15162">
        <ele>62.6</ele>
        <time>2024-03-03T09:03:41Z</time>
      </trkpt>
      <trkpt lat="49.01321" lon="0.15164">
        <ele>62.6</ele>
        <time>2024-03-03T09:03:42Z</time>
      </trkpt>
      <trkpt lat="49.01314" lon="0.15167">
        <ele>62.6</ele>
        <time>2024-03-03T09:03:43Z</time>
      </trkpt>
      <trkpt lat="49.01307" lon="0.15168">
        <ele>62.7</ele>
        <time>2024-03-03T09:03:44Z</time>
      </trkpt>
      <trkpt lat="49.013" lon="0.15169">
        <ele>62.7</ele>
        <time>2024-03-03T09:03:45Z</time>
      </trkpt>
      <trkpt lat="49.01293" lon="0.1517">
        <ele>62.8</ele>
        <time>2024-03-03T09:03:46Z</time>
      </trkpt>
      <trkpt lat="49.01286" lon="0.15172">
        <ele>62.8</ele>
        <time>2024-03-03T09:03:47Z</time>
      </trkpt>
      <trkpt lat="49.01278" lon="0.15172">
        <ele>62.9</ele>
        <time>2024-03-03T09:03:48Z</time>
      </trkpt>
      <trkpt lat="49.01271" lon="0.15173">
        <ele>63</ele>
        <time>2024-03-03T09:03:49Z</time>
      </trkpt>
      <trkpt lat="49.01264" lon="0.15173">
        <ele>63</ele>
        <time>2024-03-03T09:03:50Z</time>
      </trkpt>
      <trkpt lat="49.01258" lon="0.15173">
        <ele>63.1</ele>
        <time>2024-03-03T09:03:51Z</time>
      </trkpt>
      <trkpt lat="49.01251" lon="0.15173">
        <ele>63.1</ele>
        <time>2024-03-03T09:03:52Z</time>
      </trkpt>
      <trkpt lat="49.01244" lon="0.15172">
        <ele>63.1</ele>
        <time>2024-03-03T09:03:53Z</time>
      </trkpt>
      <trkpt lat="49.01237" lon="0.1517">
        <ele>63.1</ele>
        <time>2024-03-03T09:03:54Z</time>
      </trkpt>
      <trkpt lat="49.0123" lon="0.15169">
        <ele>63.2</ele>
        <time>2024-03-03T09:03:55Z</time>
      </trkpt>
      <trkpt lat="49.01223" lon="0.15167">
        <ele>63.2</ele>
        <time>2024-03-03T09:03:56Z</time>
      </trkpt>
      <trkpt lat="49.01216" lon="0.15165">
        <ele>63.2</ele>
        <time>2024-03-03T09:03:57Z</time>
      </trkpt>
      <trkpt lat="49.01209" lon="0.15163">
        <ele>63.2</ele>
        <time>2024-03-03T09:03:58Z</time>
      </trkpt>
      <trkpt lat="49.01201" lon="0.1516">
        <ele>63.2</ele>
        <time>2024-03-03T09:03:59Z</time>
      </trkpt>
      <trkpt lat="49.01194" lon="0.15157">
        <ele>63.3</ele>
        <time>2024-03-03T09:04:00Z</time>
      </trkpt>
      <trkpt lat="49.01186" lon="0.15153">
        <ele>63.3</ele>
        <time>2024-03-03T09:04:01Z</time>
      </trkpt>
      <trkpt lat="49.01179" lon="0.15149">
        <ele>63.3</ele>
        <time>2024-03-03T09:04:02Z</time>
      </trkpt>
      <trkpt lat="49.01172" lon="0.15145">
        <ele>63.3</ele>
        <time>2024-03-03T09:04:03Z</time>
      </trkpt>
      <trkpt lat="49.01165" lon="0.15142">
        <ele>63.3</ele>
        <time>2024-03-03T09:04:04Z</time>
      </trkpt>
      <trkpt lat="49.01159" lon="0.15137">
        <ele>63.3</ele>
        <time>2024-03-03T09:04:05Z</time>
      </trkpt>
      <trkpt lat="49.01152" lon="0.15133">
        <ele>63.3</ele>
        <time>2024-03-03T09:04:06Z</time>
      </trkpt>
      <trkpt lat="49.01145" lon="0.15129">
        <ele>63.3</ele>
        <time>2024-03-03T09:04:07Z</time>
      </trkpt>
      <trkpt lat="49.01138" lon="0.15125">
        <ele>63.3</ele>
        <time>2024-03-03T09:04:08Z</time>
      </trkpt>
      <trkpt lat="49.01132" lon="0.15121">
        <ele>63.3</ele>
        <time>2024-03-03T09:04:09Z</time>
      </trkpt>
      <trkpt lat="49.01127" lon="0.15117">
        <ele>63.2</ele>
        <time>2024-03-03T09:04:10Z</time>
      </trkpt>
      <trkpt lat="49.01121" lon="0.15113">
        <ele>63.2</ele>
        <time>2024-03-03T09:04:11Z</time>
      </trkpt>
      <trkpt lat="49.01115" lon="0.15109">
        <ele>63.2</ele>
        <time>2024-03-03T09:04:12Z</time>
      </trkpt>
      <trkpt lat="49.01109" lon="0.15105">
        <ele>63.1</ele>
        <time>2024-03-03T09:04:13Z</time>
      </trkpt>
      <trkpt lat="49.01103" lon="0.15101">
        <ele>63.1</ele>
        <time>2024-03-03T09:04:14Z</time>
      </trkpt>
      <trkpt lat="49.01097" lon="0.15097">
        <ele>63.1</ele>
        <time>2024-03-03T09:04:15Z</time>
      </trkpt>
      <trkpt lat="49.01091" lon="0.15093">
        <ele>63</ele>
        <time>2024-03-03T09:04:16Z</time>
      </trkpt>
      <trkpt lat="49.01085" lon="0.15089">
        <ele>63</ele>
        <time>2024-03-03T09:04:17Z</time>
      </trkpt>
      <trkpt lat="49.01079" lon="0.15085">
        <ele>62.9</ele>
        <time>2024-03-03T09:04:18Z</time>
      </trkpt>
      <trkpt lat="49.01072" lon="0.15081">
        <ele>62.9</ele>
        <time>2024-03-03T09:04:19Z</time>
      </trkpt>
      <trkpt lat="49.01066" lon="0.15076">
        <ele>62.9</ele>
        <time>2024-03-03T09:04:20Z</time>
      </trkpt>
      <trkpt lat="49.0106" lon="0.15072">
        <ele>62.8</ele>
        <time>2024-03-03T09:04:21Z</time>
      </trkpt>
      <trkpt lat="49.01053" lon="0.15068">
        <ele>62.8</ele>
        <time>2024-03-03T09:04:22Z</time>
      </trkpt>
      <trkpt lat="49.01047" lon="0.15063">
        <ele>62.7</ele>
        <time>2024-03-03T09:04:23Z</time>
      </trkpt>
      <trkpt lat="49.01041" lon="0.15058">
        <ele>62.6</ele>
        <time>2024-03-03T09:04:24Z</time>
      </trkpt>
      <trkpt lat="49.01035" lon="0.15054">
        <ele>62.6</ele>
        <time>2024-03-03T09:04:25Z</time>
      </trkpt>
      <trkpt lat="49.01029" lon="0.1505">
        <ele>62.6</ele>
        <time>2024-03-03T09:04:26Z</time>
      </trkpt>
      <trkpt lat="49.01023" lon="0.15046">
        <ele>62.5</ele>
        <time>2024-03-03T09:04:27Z</time>
      </trkpt>
      <trkpt lat="49.01017" lon="0.15041">
        <ele>62.5</ele>
        <time>2024-03-03T09:04:28Z</time>
      </trkpt>
      <trkpt lat="49.01011" lon="0.15037">
        <ele>62.5</ele>
        <time>2024-03-03T09:04:29Z</time>
      </trkpt>
      <trkpt lat="49.01005" lon="0.15033">
        <ele>62.4</ele>
        <time>2024-03-03T09:04:30Z</time>
      </trkpt>
      <trkpt lat="49.00999" lon="0.15029">
        <ele>62.4</ele>
        <time>2024-03-03T09:04:31Z</time>
      </trkpt>
      <trkpt lat="49.00993" lon="0.15025">
        <ele>62.3</ele>
        <time>2024-03-03T09:04:32Z</time>
      </trkpt>
      <trkpt lat="49.00987" lon="0.1502">
        <ele>62.3</ele>
        <time>2024-03-03T09:04:33Z</time>
      </trkpt>
      <trkpt lat="49.00981" lon="0.15016">
        <ele>62.2</ele>
        <time>2024-03-03T09:04:34Z</time>
      </trkpt>
      <trkpt lat="49.00974" lon="0.15012">
        <ele>62.2</ele>
        <time>2024-03-03T09:04:35Z</time>
      </trkpt>
      <trkpt lat="49.00968" lon="0.15008">
        <ele>62.1</ele>
        <time>2024-03-03T09:04:36Z</time>
      </trkpt>
      <trkpt lat="49.00961" lon="0.15003">
        <ele>62.1</ele>
        <time>2024-03-03T09:04:37Z</time>
      </trkpt>
      <trkpt lat="49.00955" lon="0.14999">
        <ele>62</ele>
        <time>2024-03-03T09:04:38Z</time>
      </trkpt>
      <trkpt lat="49.00948" lon="0.14995">
        <ele>62</ele>
        <time>2024-03-03T09:04:39Z</time>
      </trkpt>
      <trkpt lat="49.00942" lon="0.14991">
        <ele>61.9</ele>
        <time>2024-03-03T09:04:40Z</time>
      </trkpt>
      <trkpt lat="49.00935" lon="0.14987">
        <ele>61.9</ele>
        <time>2024-03-03T09:04:41Z</time>
      </trkpt>
      <trkpt lat="49.00929" lon="0.14983">
        <ele>61.9</ele>
        <time>2024-03-03T09:04:42Z</time>
      </trkpt>
      <trkpt lat="49.00922" lon="0.14978">
        <ele>61.8</ele>
        <time>2024-03-03T09:04:43Z</time>
      </trkpt>
      <trkpt lat="49.00916" lon="0.14974">
        <ele>61.8</ele>
        <time>2024-03-03T09:04:44Z</time>
      </trkpt>
      <trkpt lat="49.0091" lon="0.1497">
        <ele>61.8</ele>
        <time>2024-03-03T09:04:45Z</time>
      </trkpt>
      <trkpt lat="49.00904" lon="0.14966">
        <ele>61.7</ele>
        <time>2024-03-03T09:04:46Z</time>
      </trkpt>
      <trkpt lat="49.00897" lon="0.14962">
        <ele>61.7</ele>
        <time>2024-03-03T09:04:47Z</time>
      </trkpt>
      <trkpt lat="49.00891" lon="0.14957">
        <ele>61.7</ele>
        <time>2024-03-03T09:04:48Z</time>
      </trkpt>
      <trkpt lat="49.00885" lon="0.14953">
        <ele>61.6</ele>
        <time>2024-03-03T09:04:49Z</time>
      </trkpt>
      <trkpt lat="49.00878" lon="0.14948">
        <ele>61.6</ele>
        <time>2024-03-03T09:04:50Z</time>
      </trkpt>
      <trkpt lat="49.00872" lon="0.14944">
        <ele>61.6</ele>
        <time>2024-03-03T09:04:51Z</time>
      </trkpt>
      <trkpt lat="49.00865" lon="0.1494">
        <ele>61.6</ele>
        <time>2024-03-03T09:04:52Z</time>
      </trkpt>
      <trkpt lat="49.00859" lon="0.14936">
        <ele>61.5</ele>
        <time>2024-03-03T09:04:53Z</time>
      </trkpt>
      <trkpt lat="49.00852" lon="0.14931">
        <ele>61.5</ele>
        <time>2024-03-03T09:04:54Z</time>
      </trkpt>
      <trkpt lat="49.00846" lon="0.14927">
        <ele>61.5</ele>
        <time>2024-03-03T09:04:55Z</time>
      </trkpt>
      <trkpt lat="49.00838" lon="0.14922">
        <ele>61.4</ele>
        <time>2024-03-03T09:04:56Z</time>
      </trkpt>
      <trkpt lat="49.00832" lon="0.14918">
        <ele>61.4</ele>
        <time>2024-03-03T09:04:57Z</time>
      </trkpt>
      <trkpt lat="49.00826" lon="0.14914">
        <ele>61.4</ele>
        <time>2024-03-03T09:04:58Z</time>
      </trkpt>
      <trkpt lat="49.0082" lon="0.1491">
        <ele>61.3</ele>
        <time>2024-03-03T09:04:59Z</time>
      </trkpt>
      <trkpt lat="49.00814" lon="0.14906">
        <ele>61.3</ele>
        <time>2024-03-03T09:05:00Z</time>
      </trkpt>
      <trkpt lat="49.00808" lon="0.14902">
        <ele>61.3</ele>
        <time>2024-03-03T09:05:01Z</time>
      </trkpt>
      <trkpt lat="49.00802" lon="0.14898">
        <ele>61.3</ele>
        <time>2024-03-03T09:05:02Z</time>
      </trkpt>
      <trkpt lat="49.00796" lon="0.14894">
        <ele>61.2</ele>
        <time>2024-03-03T09:05:03Z</time>
      </trkpt>
      <trkpt lat="49.0079" lon="0.1489">
        <ele>61.2</ele>
        <time>2024-03-03T09:05:04Z</time>
      </trkpt>
      <trkpt lat="49.00783" lon="0.14886">
        <ele>61.2</ele>
        <time>2024-03-03T09:05:05Z</time>
      </trkpt>
      <trkpt lat="49.00776" lon="0.14881">
        <ele>61.1</ele>
        <time>2024-03-03T09:05:06Z</time>
      </trkpt>
      <trkpt lat="49.0077" lon="0.14877">
        <ele>61.1</ele>
        <time>2024-03-03T09:05:07Z</time>
      </trkpt>
      <trkpt lat="49.00764" lon="0.14872">
        <ele>61</ele>
        <time>2024-03-03T09:05:08Z</time>
      </trkpt>
      <trkpt lat="49.00758" lon="0.14868">
        <ele>61</ele>
        <time>2024-03-03T09:05:09Z</time>
      </trkpt>
      <trkpt lat="49.00752" lon="0.14864">
        <ele>60.9</ele>
        <time>2024-03-03T09:05:10Z</time>
      </trkpt>
      <trkpt lat="49.00746" lon="0.14859">
        <ele>60.9</ele>
        <time>2024-03-03T09:05:11Z</time>
      </trkpt>
      <trkpt lat="49.00739" lon="0.14855">
        <ele>60.9</ele>
        <time>2024-03-03T09:05:12Z</time>
      </trkpt>
      <trkpt lat="49.0073" lon="0.14851">
        <ele>60.9</ele>
        <time>2024-03-03T09:05:13Z</time>
      </trkpt>
      <trkpt lat="49.00723" lon="0.14848">
        <ele>60.9</ele>
        <time>2024-03-03T09:05:14Z</time>
      </trkpt>
      <trkpt lat="49.00715" lon="0.14845">
        <ele>60.9</ele>
        <time>2024-03-03T09:05:15Z</time>
      </trkpt>
      <trkpt lat="49.00708" lon="0.14842">
        <ele>60.9</ele>
        <time>2024-03-03T09:05:16Z</time>
      </trkpt>
      <trkpt lat="49.00701" lon="0.1484">
        <ele>60.9</ele>
        <time>2024-03-03T09:05:17Z</time>
      </trkpt>
      <trkpt lat="49.00694" lon="0.14836">
        <ele>60.9</ele>
        <time>2024-03-03T09:05:18Z</time>
      </trkpt>
      <trkpt lat="49.00688" lon="0.14834">
        <ele>60.9</ele>
        <time>2024-03-03T09:05:19Z</time>
      </trkpt>
      <trkpt lat="49.00682" lon="0.14831">
        <ele>60.9</ele>
        <time>2024-03-03T09:05:20Z</time>
      </trkpt>
      <trkpt lat="49.00676" lon="0.14828">
        <ele>60.9</ele>
        <time>2024-03-03T09:05:21Z</time>
      </trkpt>
      <trkpt lat="49.0067" lon="0.14825">
        <ele>61</ele>
        <time>2024-03-03T09:05:22Z</time>
      </trkpt>
      <trkpt lat="49.00664" lon="0.14823">
        <ele>61</ele>
        <time>2024-03-03T09:05:23Z</time>
      </trkpt>
      <trkpt lat="49.00657" lon="0.1482">
        <ele>61.1</ele>
        <time>2024-03-03T09:05:24Z</time>
      </trkpt>
      <trkpt lat="49.00651" lon="0.14817">
        <ele>61.1</ele>
        <time>2024-03-03T09:05:25Z</time>
      </trkpt>
      <trkpt lat="49.00646" lon="0.14815">
        <ele>61.2</ele>
        <time>2024-03-03T09:05:26Z</time>
      </trkpt>
      <trkpt lat="49.0064" lon="0.14813">
        <ele>61.3</ele>
        <time>2024-03-03T09:05:27Z</time>
      </trkpt>
      <trkpt lat="49.00633" lon="0.1481">
        <ele>61.4</ele>
        <time>2024-03-03T09:05:28Z</time>
      </trkpt>
      <trkpt lat="49.00627" lon="0.14807">
        <ele>61.5</ele>
        <time>2024-03-03T09:05:29Z</time>
      </trkpt>
      <trkpt lat="49.00621" lon="0.14804">
        <ele>61.6</ele>
        <time>2024-03-03T09:05:30Z</time>
      </trkpt>
      <trkpt lat="49.00616" lon="0.14802">
        <ele>61.8</ele>
        <time>2024-03-03T09:05:31Z</time>
      </trkpt>
      <trkpt lat="49.0061" lon="0.148">
        <ele>61.9</ele>
        <time>2024-03-03T09:05:32Z</time>
      </trkpt>
      <trkpt lat="49.00605" lon="0.14799">
        <ele>62</ele>
        <time>2024-03-03T09:05:33Z</time>
      </trkpt>
      <trkpt lat="49.006" lon="0.14797">
        <ele>62.1</ele>
        <time>2024-03-03T09:05:34Z</time>
      </trkpt>
      <trkpt lat="49.00595" lon="0.14795">
        <ele>62.3</ele>
        <time>2024-03-03T09:05:35Z</time>
      </trkpt>
      <trkpt lat="49.0059" lon="0.14794">
        <ele>62.4</ele>
        <time>2024-03-03T09:05:36Z</time>
      </trkpt>
      <trkpt lat="49.00585" lon="0.14792">
        <ele>62.5</ele>
        <time>2024-03-03T09:05:37Z</time>
      </trkpt>
      <trkpt lat="49.0058" lon="0.1479">
        <ele>62.7</ele>
        <time>2024-03-03T09:05:38Z</time>
      </trkpt>
      <trkpt lat="49.00575" lon="0.14788">
        <ele>62.8</ele>
        <time>2024-03-03T09:05:39Z</time>
      </trkpt>
      <trkpt lat="49.0057" lon="0.14786">
        <ele>62.9</ele>
        <time>2024-03-03T09:05:40Z</time>
      </trkpt>
      <trkpt lat="49.00565" lon="0.14785">
        <ele>63.1</ele>
        <time>2024-03-03T09:05:41Z</time>
      </trkpt>
      <trkpt lat="49.0056" lon="0.14783">
        <ele>63.2</ele>
        <time>2024-03-03T09:05:42Z</time>
      </trkpt>
      <trkpt lat="49.00556" lon="0.14783">
        <ele>63.3</ele>
        <time>2024-03-03T09:05:43Z</time>
      </trkpt>
      <trkpt lat="49.00552" lon="0.14782">
        <ele>63.4</ele>
        <time>2024-03-03T09:05:44Z</time>
      </trkpt>
      <trkpt lat="49.00548" lon="0.14781">
        <ele>63.5</ele>
        <time>2024-03-03T09:05:45Z</time>
      </trkpt>
      <trkpt lat="49.00545" lon="0.14781">
        <ele>63.6</ele>
        <time>2024-03-03T09:05:46Z</time>
      </trkpt>
      <trkpt lat="49.00544" lon="0.14781">
        <ele>63.7</ele>
        <time>2024-03-03T09:05:47Z</time>
      </trkpt>
      <trkpt lat="49.00543" lon="0.14781">
        <ele>63.7</ele>
        <time>2024-03-03T09:05:48Z</time>
      </trkpt>
      <trkpt lat="49.00542" lon="0.1478">
        <ele>63.7</ele>
        <time>2024-03-03T09:05:49Z</time>
      </trkpt>
      <trkpt lat="49.00542" lon="0.14781">
        <ele>63.7</ele>
        <time>2024-03-03T09:05:50Z</time>
      </trkpt>
      <trkpt lat="49.00542" lon="0.14781">
        <ele>63.7</ele>
        <time>2024-03-03T09:05:51Z</time>
      </trkpt>
      <trkpt lat="49.00542" lon="0.14781">
        <ele>63.7</ele>
        <time>2024-03-03T09:05:52Z</time>
      </trkpt>
      <trkpt lat="49.00542" lon="0.14781">
        <ele>63.7</ele>
        <time>2024-03-03T09:05:53Z</time>
      </trkpt>
      <trkpt lat="49.00542" lon="0.14781">
        <ele>63.7</ele>
        <time>2024-03-03T09:05:54Z</time>
      </trkpt>
      <trkpt lat="49.00542" lon="0.14781">
        <ele>63.7</ele>
        <time>2024-03-03T09:05:55Z</time>
      </trkpt>
      <trkpt lat="49.00541" lon="0.14781">
        <ele>63.8</ele>
        <time>2024-03-03T09:05:56Z</time>
      </trkpt>
      <trkpt lat="49.00539" lon="0.1478">
        <ele>63.8</ele>
        <time>2024-03-03T09:05:57Z</time>
      </trkpt>
      <trkpt lat="49.00539" lon="0.14779">
        <ele>63.8</ele>
        <time>2024-03-03T09:05:58Z</time>
      </trkpt>
      <trkpt lat="49.00538" lon="0.14779">
        <ele>63.9</ele>
        <time>2024-03-03T09:05:59Z</time>
      </trkpt>
      <trkpt lat="49.00535" lon="0.14778">
        <ele>64</ele>
        <time>2024-03-03T09:06:00Z</time>
      </trkpt>
      <trkpt lat="49.00534" lon="0.14778">
        <ele>64</ele>
        <time>2024-03-03T09:06:01Z</time>
      </trkpt>
      <trkpt lat="49.0053" lon="0.14778">
        <ele>64.1</ele>
        <time>2024-03-03T09:06:02Z</time>
      </trkpt>
      <trkpt lat="49.00529" lon="0.14778">
        <ele>64.1</ele>
        <time>2024-03-03T09:06:03Z</time>
      </trkpt>
      <trkpt lat="49.00526" lon="0.14777">
        <ele>64.2</ele>
        <time>2024-03-03T09:06:04Z</time>
      </trkpt>
      <trkpt lat="49.00523" lon="0.14776">
        <ele>64.3</ele>
        <time>2024-03-03T09:06:05Z</time>
      </trkpt>
      <trkpt lat="49.00519" lon="0.14774">
        <ele>64.4</ele>
        <time>2024-03-03T09:06:06Z</time>
      </trkpt>
      <trkpt lat="49.00516" lon="0.14771">
        <ele>64.5</ele>
        <time>2024-03-03T09:06:07Z</time>
      </trkpt>
      <trkpt lat="49.00512" lon="0.14767">
        <ele>64.4</ele>
        <time>2024-03-03T09:06:08Z</time>
      </trkpt>
      <trkpt lat="49.0051" lon="0.14762">
        <ele>64.3</ele>
        <time>2024-03-03T09:06:09Z</time>
      </trkpt>
      <trkpt lat="49.00509" lon="0.14756">
        <ele>64.2</ele>
        <time>2024-03-03T09:06:10Z</time>
      </trkpt>
      <trkpt lat="49.00508" lon="0.14749">
        <ele>64.2</ele>
        <time>2024-03-03T09:06:11Z</time>
      </trkpt>
      <trkpt lat="49.00508" lon="0.14742">
        <ele>64.2</ele>
        <time>2024-03-03T09:06:12Z</time>
      </trkpt>
      <trkpt lat="49.00509" lon="0.14735">
        <ele>64.1</ele>
        <time>2024-03-03T09:06:13Z</time>
      </trkpt>
      <trkpt lat="49.00509" lon="0.14728">
        <ele>64.1</ele>
        <time>2024-03-03T09:06:14Z</time>
      </trkpt>
      <trkpt lat="49.00509" lon="0.14719">
        <ele>64</ele>
        <time>2024-03-03T09:06:15Z</time>
      </trkpt>
      <trkpt lat="49.0051" lon="0.1471">
        <ele>63.9</ele>
        <time>2024-03-03T09:06:16Z</time>
      </trkpt>
      <trkpt lat="49.00511" lon="0.14701">
        <ele>63.9</ele>
        <time>2024-03-03T09:06:17Z</time>
      </trkpt>
      <trkpt lat="49.00511" lon="0.14694">
        <ele>63.8</ele>
        <time>2024-03-03T09:06:18Z</time>
      </trkpt>
      <trkpt lat="49.00513" lon="0.14687">
        <ele>63.8</ele>
        <time>2024-03-03T09:06:19Z</time>
      </trkpt>
      <trkpt lat="49.00514" lon="0.1468">
        <ele>63.7</ele>
        <time>2024-03-03T09:06:20Z</time>
      </trkpt>
      <trkpt lat="49.00514" lon="0.14674">
        <ele>63.7</ele>
        <time>2024-03-03T09:06:21Z</time>
      </trkpt>
      <trkpt lat="49.00515" lon="0.14667">
        <ele>63.7</ele>
        <time>2024-03-03T09:06:22Z</time>
      </trkpt>
      <trkpt lat="49.00515" lon="0.14659">
        <ele>63.6</ele>
        <time>2024-03-03T09:06:23Z</time>
      </trkpt>
      <trkpt lat="49.00516" lon="0.1465">
        <ele>63.6</ele>
        <time>2024-03-03T09:06:24Z</time>
      </trkpt>
      <trkpt lat="49.00518" lon="0.14641">
        <ele>63.5</ele>
        <time>2024-03-03T09:06:25Z</time>
      </trkpt>
      <trkpt lat="49.00519" lon="0.14632">
        <ele>63.5</ele>
        <time>2024-03-03T09:06:26Z</time>
      </trkpt>
      <trkpt lat="49.0052" lon="0.14623">
        <ele>63.4</ele>
        <time>2024-03-03T09:06:27Z</time>
      </trkpt>
      <trkpt lat="49.00521" lon="0.14613">
        <ele>63.4</ele>
        <time>2024-03-03T09:06:28Z</time>
      </trkpt>
      <trkpt lat="49.00521" lon="0.14603">
        <ele>63.3</ele>
        <time>2024-03-03T09:06:29Z</time>
      </trkpt>
      <trkpt lat="49.00521" lon="0.14592">
        <ele>63.3</ele>
        <time>2024-03-03T09:06:30Z</time>
      </trkpt>
      <trkpt lat="49.00522" lon="0.14581">
        <ele>63.2</ele>
        <time>2024-03-03T09:06:31Z</time>
      </trkpt>
      <trkpt lat="49.00523" lon="0.14571">
        <ele>63.1</ele>
        <time>2024-03-03T09:06:32Z</time>
      </trkpt>
      <trkpt lat="49.00524" lon="0.14561">
        <ele>63</ele>
        <time>2024-03-03T09:06:33Z</time>
      </trkpt>
      <trkpt lat="49.00525" lon="0.14551">
        <ele>62.9</ele>
        <time>2024-03-03T09:06:34Z</time>
      </trkpt>
      <trkpt lat="49.00525" lon="0.1454">
        <ele>62.9</ele>
        <time>2024-03-03T09:06:35Z</time>
      </trkpt>
      <trkpt lat="49.00525" lon="0.14529">
        <ele>62.8</ele>
        <time>2024-03-03T09:06:36Z</time>
      </trkpt>
      <trkpt lat="49.00525" lon="0.14518">
        <ele>62.7</ele>
        <time>2024-03-03T09:06:37Z</time>
      </trkpt>
      <trkpt lat="49.00525" lon="0.14507">
        <ele>62.6</ele>
        <time>2024-03-03T09:06:38Z</time>
      </trkpt>
      <trkpt lat="49.00526" lon="0.14496">
        <ele>62.5</ele>
        <time>2024-03-03T09:06:39Z</time>
      </trkpt>
      <trkpt lat="49.00526" lon="0.14486">
        <ele>62.5</ele>
        <time>2024-03-03T09:06:40Z</time>
      </trkpt>
      <trkpt lat="49.00527" lon="0.14477">
        <ele>62.5</ele>
        <time>2024-03-03T09:06:41Z</time>
      </trkpt>
      <trkpt lat="49.00527" lon="0.14467">
        <ele>62.4</ele>
        <time>2024-03-03T09:06:42Z</time>
      </trkpt>
      <trkpt lat="49.00528" lon="0.14457">
        <ele>62.4</ele>
        <time>2024-03-03T09:06:43Z</time>
      </trkpt>
      <trkpt lat="49.00528" lon="0.14446">
        <ele>62.4</ele>
        <time>2024-03-03T09:06:44Z</time>
      </trkpt>
      <trkpt lat="49.00528" lon="0.14435">
        <ele>62.4</ele>
        <time>2024-03-03T09:06:45Z</time>
      </trkpt>
      <trkpt lat="49.00528" lon="0.14425">
        <ele>62.4</ele>
        <time>2024-03-03T09:06:46Z</time>
      </trkpt>
      <trkpt lat="49.00527" lon="0.14414">
        <ele>62.4</ele>
        <time>2024-03-03T09:06:47Z</time>
      </trkpt>
      <trkpt lat="49.00527" lon="0.14404">
        <ele>62.4</ele>
        <time>2024-03-03T09:06:48Z</time>
      </trkpt>
      <trkpt lat="49.00526" lon="0.14394">
        <ele>62.5</ele>
        <time>2024-03-03T09:06:49Z</time>
      </trkpt>
      <trkpt lat="49.00526" lon="0.14383">
        <ele>62.5</ele>
        <time>2024-03-03T09:06:50Z</time>
      </trkpt>
      <trkpt lat="49.00526" lon="0.14373">
        <ele>62.6</ele>
        <time>2024-03-03T09:06:51Z</time>
      </trkpt>
      <trkpt lat="49.00526" lon="0.14364">
        <ele>62.7</ele>
        <time>2024-03-03T09:06:52Z</time>
      </trkpt>
      <trkpt lat="49.00526" lon="0.14355">
        <ele>62.8</ele>
        <time>2024-03-03T09:06:53Z</time>
      </trkpt>
      <trkpt lat="49.00526" lon="0.14346">
        <ele>62.9</ele>
        <time>2024-03-03T09:06:54Z</time>
      </trkpt>
      <trkpt lat="49.00526" lon="0.14338">
        <ele>63</ele>
        <time>2024-03-03T09:06:55Z</time>
      </trkpt>
      <trkpt lat="49.00527" lon="0.1433">
        <ele>63.1</ele>
        <time>2024-03-03T09:06:56Z</time>
      </trkpt>
      <trkpt lat="49.00527" lon="0.14323">
        <ele>63.3</ele>
        <time>2024-03-03T09:06:57Z</time>
      </trkpt>
      <trkpt lat="49.00528" lon="0.14315">
        <ele>63.5</ele>
        <time>2024-03-03T09:06:58Z</time>
      </trkpt>
      <trkpt lat="49.00528" lon="0.14308">
        <ele>63.6</ele>
        <time>2024-03-03T09:06:59Z</time>
      </trkpt>
      <trkpt lat="49.00529" lon="0.143">
        <ele>63.8</ele>
        <time>2024-03-03T09:07:00Z</time>
      </trkpt>
      <trkpt lat="49.00529" lon="0.14292">
        <ele>64.1</ele>
        <time>2024-03-03T09:07:01Z</time>
      </trkpt>
      <trkpt lat="49.00529" lon="0.14285">
        <ele>64.3</ele>
        <time>2024-03-03T09:07:02Z</time>
      </trkpt>
      <trkpt lat="49.0053" lon="0.14279">
        <ele>64.4</ele>
        <time>2024-03-03T09:07:03Z</time>
      </trkpt>
      <trkpt lat="49.0053" lon="0.14272">
        <ele>64.6</ele>
        <time>2024-03-03T09:07:04Z</time>
      </trkpt>
      <trkpt lat="49.0053" lon="0.14265">
        <ele>64.9</ele>
        <time>2024-03-03T09:07:05Z</time>
      </trkpt>
      <trkpt lat="49.0053" lon="0.14258">
        <ele>65.1</ele>
        <time>2024-03-03T09:07:06Z</time>
      </trkpt>
      <trkpt lat="49.0053" lon="0.14251">
        <ele>65.3</ele>
        <time>2024-03-03T09:07:07Z</time>
      </trkpt>
      <trkpt lat="49.00531" lon="0.14245">
        <ele>65.5</ele>
        <time>2024-03-03T09:07:08Z</time>
      </trkpt>
      <trkpt lat="49.0053" lon="0.14238">
        <ele>65.7</ele>
        <time>2024-03-03T09:07:09Z</time>
      </trkpt>
      <trkpt lat="49.0053" lon="0.14232">
        <ele>66</ele>
        <time>2024-03-03T09:07:10Z</time>
      </trkpt>
      <trkpt lat="49.00529" lon="0.14225">
        <ele>66.2</ele>
        <time>2024-03-03T09:07:11Z</time>
      </trkpt>
      <trkpt lat="49.00527" lon="0.14218">
        <ele>66.5</ele>
        <time>2024-03-03T09:07:12Z</time>
      </trkpt>
      <trkpt lat="49.00526" lon="0.14211">
        <ele>66.7</ele>
        <time>2024-03-03T09:07:13Z</time>
      </trkpt>
      <trkpt lat="49.00524" lon="0.14205">
        <ele>67</ele>
        <time>2024-03-03T09:07:14Z</time>
      </trkpt>
      <trkpt lat="49.00523" lon="0.14198">
        <ele>67.2</ele>
        <time>2024-03-03T09:07:15Z</time>
      </trkpt>
      <trkpt lat="49.00522" lon="0.14192">
        <ele>67.4</ele>
        <time>2024-03-03T09:07:16Z</time>
      </trkpt>
      <trkpt lat="49.00521" lon="0.14187">
        <ele>67.6</ele>
        <time>2024-03-03T09:07:17Z</time>
      </trkpt>
      <trkpt lat="49.00519" lon="0.1418">
        <ele>67.8</ele>
        <time>2024-03-03T09:07:18Z</time>
      </trkpt>
      <trkpt lat="49.00517" lon="0.14173">
        <ele>68.1</ele>
        <time>2024-03-03T09:07:19Z</time>
      </trkpt>
      <trkpt lat="49.00515" lon="0.14166">
        <ele>68.3</ele>
        <time>2024-03-03T09:07:20Z</time>
      </trkpt>
      <trkpt lat="49.00513" lon="0.14161">
        <ele>68.5</ele>
        <time>2024-03-03T09:07:21Z</time>
      </trkpt>
      <trkpt lat="49.00512" lon="0.14156">
        <ele>68.7</ele>
        <time>2024-03-03T09:07:22Z</time>
      </trkpt>
      <trkpt lat="49.00511" lon="0.14151">
        <ele>68.9</ele>
        <time>2024-03-03T09:07:23Z</time>
      </trkpt>
      <trkpt lat="49.0051" lon="0.14145">
        <ele>69</ele>
        <time>2024-03-03T09:07:24Z</time>
      </trkpt>
      <trkpt lat="49.00508" lon="0.1414">
        <ele>69.2</ele>
        <time>2024-03-03T09:07:25Z</time>
      </trkpt>
      <trkpt lat="49.00507" lon="0.14134">
        <ele>69.4</ele>
        <time>2024-03-03T09:07:26Z</time>
      </trkpt>
      <trkpt lat="49.00505" lon="0.14127">
        <ele>69.7</ele>
        <time>2024-03-03T09:07:27Z</time>
      </trkpt>
      <trkpt lat="49.00503" lon="0.14121">
        <ele>69.9</ele>
        <time>2024-03-03T09:07:28Z</time>
      </trkpt>
      <trkpt lat="49.005" lon="0.14114">
        <ele>70.1</ele>
        <time>2024-03-03T09:07:29Z</time>
      </trkpt>
      <trkpt lat="49.00498" lon="0.14108">
        <ele>70.3</ele>
        <time>2024-03-03T09:07:30Z</time>
      </trkpt>
      <trkpt lat="49.00495" lon="0.14102">
        <ele>70.6</ele>
        <time>2024-03-03T09:07:31Z</time>
      </trkpt>
      <trkpt lat="49.00493" lon="0.14097">
        <ele>70.8</ele>
        <time>2024-03-03T09:07:32Z</time>
      </trkpt>
      <trkpt lat="49.00491" lon="0.14092">
        <ele>71</ele>
        <time>2024-03-03T09:07:33Z</time>
      </trkpt>
      <trkpt lat="49.00489" lon="0.14087">
        <ele>71.2</ele>
        <time>2024-03-03T09:07:34Z</time>
      </trkpt>
      <trkpt lat="49.00486" lon="0.14081">
        <ele>71.5</ele>
        <time>2024-03-03T09:07:35Z</time>
      </trkpt>
      <trkpt lat="49.00483" lon="0.14075">
        <ele>71.7</ele>
        <time>2024-03-03T09:07:36Z</time>
      </trkpt>
      <trkpt lat="49.0048" lon="0.14068">
        <ele>72</ele>
        <time>2024-03-03T09:07:37Z</time>
      </trkpt>
      <trkpt lat="49.00477" lon="0.14062">
        <ele>72.3</ele>
        <time>2024-03-03T09:07:38Z</time>
      </trkpt>
      <trkpt lat="49.00475" lon="0.14056">
        <ele>72.6</ele>
        <time>2024-03-03T09:07:39Z</time>
      </trkpt>
      <trkpt lat="49.00472" lon="0.1405">
        <ele>72.9</ele>
        <time>2024-03-03T09:07:40Z</time>
      </trkpt>
      <trkpt lat="49.0047" lon="0.14044">
        <ele>73.1</ele>
        <time>2024-03-03T09:07:41Z</time>
      </trkpt>
      <trkpt lat="49.00468" lon="0.14039">
        <ele>73.3</ele>
        <time>2024-03-03T09:07:42Z</time>
      </trkpt>
      <trkpt lat="49.00466" lon="0.14034">
        <ele>73.6</ele>
        <time>2024-03-03T09:07:43Z</time>
      </trkpt>
      <trkpt lat="49.00464" lon="0.1403">
        <ele>73.8</ele>
        <time>2024-03-03T09:07:44Z</time>
      </trkpt>
      <trkpt lat="49.00462" lon="0.14026">
        <ele>74</ele>
        <time>2024-03-03T09:07:45Z</time>
      </trkpt>
      <trkpt lat="49.0046" lon="0.14022">
        <ele>74.2</ele>
        <time>2024-03-03T09:07:46Z</time>
      </trkpt>
      <trkpt lat="49.00457" lon="0.14017">
        <ele>74.4</ele>
        <time>2024-03-03T09:07:47Z</time>
      </trkpt>
      <trkpt lat="49.00454" lon="0.14012">
        <ele>74.7</ele>
        <time>2024-03-03T09:07:48Z</time>
      </trkpt>
      <trkpt lat="49.00451" lon="0.14006">
        <ele>75</ele>
        <time>2024-03-03T09:07:49Z</time>
      </trkpt>
      <trkpt lat="49.00448" lon="0.14001">
        <ele>75.3</ele>
        <time>2024-03-03T09:07:50Z</time>
      </trkpt>
      <trkpt lat="49.00445" lon="0.13996">
        <ele>75.6</ele>
        <time>2024-03-03T09:07:51Z</time>
      </trkpt>
      <trkpt lat="49.00442" lon="0.13992">
        <ele>75.8</ele>
        <time>2024-03-03T09:07:52Z</time>
      </trkpt>
      <trkpt lat="49.00439" lon="0.13988">
        <ele>76.1</ele>
        <time>2024-03-03T09:07:53Z</time>
      </trkpt>
      <trkpt lat="49.00437" lon="0.13985">
        <ele>76.3</ele>
        <time>2024-03-03T09:07:54Z</time>
      </trkpt>
      <trkpt lat="49.00434" lon="0.13981">
        <ele>76.5</ele>
        <time>2024-03-03T09:07:55Z</time>
      </trkpt>
      <trkpt lat="49.00431" lon="0.13977">
        <ele>76.7</ele>
        <time>2024-03-03T09:07:56Z</time>
      </trkpt>
      <trkpt lat="49.00429" lon="0.13973">
        <ele>77</ele>
        <time>2024-03-03T09:07:57Z</time>
      </trkpt>
      <trkpt lat="49.00426" lon="0.13969">
        <ele>77.2</ele>
        <time>2024-03-03T09:07:58Z</time>
      </trkpt>
      <trkpt lat="49.00422" lon="0.13965">
        <ele>77.5</ele>
        <time>2024-03-03T09:07:59Z</time>
      </trkpt>
      <trkpt lat="49.00419" lon="0.1396">
        <ele>77.8</ele>
        <time>2024-03-03T09:08:00Z</time>
      </trkpt>
      <trkpt lat="49.00416" lon="0.13956">
        <ele>78.1</ele>
        <time>2024-03-03T09:08:01Z</time>
      </trkpt>
      <trkpt lat="49.00412" lon="0.13953">
        <ele>78.4</ele>
        <time>2024-03-03T09:08:02Z</time>
      </trkpt>
      <trkpt lat="49.00408" lon="0.1395">
        <ele>78.7</ele>
        <time>2024-03-03T09:08:03Z</time>
      </trkpt>
      <trkpt lat="49.00404" lon="0.13947">
        <ele>79</ele>
        <time>2024-03-03T09:08:04Z</time>
      </trkpt>
      <trkpt lat="49.004" lon="0.13943">
        <ele>79.3</ele>
        <time>2024-03-03T09:08:05Z</time>
      </trkpt>
      <trkpt lat="49.00397" lon="0.13939">
        <ele>79.6</ele>
        <time>2024-03-03T09:08:06Z</time>
      </trkpt>
      <trkpt lat="49.00394" lon="0.13935">
        <ele>79.9</ele>
        <time>2024-03-03T09:08:07Z</time>
      </trkpt>
      <trkpt lat="49.00391" lon="0.13931">
        <ele>80.1</ele>
        <time>2024-03-03T09:08:08Z</time>
      </trkpt>
      <trkpt lat="49.00388" lon="0.13928">
        <ele>80.4</ele>
        <time>2024-03-03T09:08:09Z</time>
      </trkpt>
      <trkpt lat="49.00385" lon="0.13925">
        <ele>80.6</ele>
        <time>2024-03-03T09:08:10Z</time>
      </trkpt>
      <trkpt lat="49.00383" lon="0.13921">
        <ele>80.8</ele>
        <time>2024-03-03T09:08:11Z</time>
      </trkpt>
      <trkpt lat="49.0038" lon="0.13918">
        <ele>81.1</ele>
        <time>2024-03-03T09:08:12Z</time>
      </trkpt>
      <trkpt lat="49.00376" lon="0.13915">
        <ele>81.4</ele>
        <time>2024-03-03T09:08:13Z</time>
      </trkpt>
      <trkpt lat="49.00373" lon="0.13912">
        <ele>81.7</ele>
        <time>2024-03-03T09:08:14Z</time>
      </trkpt>
      <trkpt lat="49.0037" lon="0.13909">
        <ele>82</ele>
        <time>2024-03-03T09:08:15Z</time>
      </trkpt>
      <trkpt lat="49.00367" lon="0.13907">
        <ele>82.2</ele>
        <time>2024-03-03T09:08:16Z</time>
      </trkpt>
      <trkpt lat="49.00364" lon="0.13905">
        <ele>82.4</ele>
        <time>2024-03-03T09:08:17Z</time>
      </trkpt>
      <trkpt lat="49.00361" lon="0.13904">
        <ele>82.7</ele>
        <time>2024-03-03T09:08:18Z</time>
      </trkpt>
      <trkpt lat="49.00359" lon="0.13902">
        <ele>82.9</ele>
        <time>2024-03-03T09:08:19Z</time>
      </trkpt>
      <trkpt lat="49.00356" lon="0.13899">
        <ele>83.1</ele>
        <time>2024-03-03T09:08:20Z</time>
      </trkpt>
      <trkpt lat="49.00353" lon="0.13897">
        <ele>83.4</ele>
        <time>2024-03-03T09:08:21Z</time>
      </trkpt>
      <trkpt lat="49.0035" lon="0.13894">
        <ele>83.7</ele>
        <time>2024-03-03T09:08:22Z</time>
      </trkpt>
      <trkpt lat="49.00347" lon="0.13891">
        <ele>84</ele>
        <time>2024-03-03T09:08:23Z</time>
      </trkpt>
      <trkpt lat="49.00343" lon="0.13888">
        <ele>84.3</ele>
        <time>2024-03-03T09:08:24Z</time>
      </trkpt>
      <trkpt lat="49.0034" lon="0.13886">
        <ele>84.6</ele>
        <time>2024-03-03T09:08:25Z</time>
      </trkpt>
      <trkpt lat="49.00337" lon="0.13884">
        <ele>84.8</ele>
        <time>2024-03-03T09:08:26Z</time>
      </trkpt>
      <trkpt lat="49.00334" lon="0.13881">
        <ele>85</ele>
        <time>2024-03-03T09:08:27Z</time>
      </trkpt>
      <trkpt lat="49.00329" lon="0.13877">
        <ele>85.3</ele>
        <time>2024-03-03T09:08:28Z</time>
      </trkpt>
      <trkpt lat="49.00326" lon="0.13874">
        <ele>85.5</ele>
        <time>2024-03-03T09:08:29Z</time>
      </trkpt>
      <trkpt lat="49.00323" lon="0.13871">
        <ele>85.8</ele>
        <time>2024-03-03T09:08:30Z</time>
      </trkpt>
      <trkpt lat="49.0032" lon="0.13868">
        <ele>86</ele>
        <time>2024-03-03T09:08:31Z</time>
      </trkpt>
      <trkpt lat="49.00316" lon="0.13865">
        <ele>86.2</ele>
        <time>2024-03-03T09:08:32Z</time>
      </trkpt>
      <trkpt lat="49.00313" lon="0.13862">
        <ele>86.4</ele>
        <time>2024-03-03T09:08:33Z</time>
      </trkpt>
      <trkpt lat="49.00309" lon="0.13859">
        <ele>86.7</ele>
        <time>2024-03-03T09:08:34Z</time>
      </trkpt>
      <trkpt lat="49.00305" lon="0.13857">
        <ele>86.9</ele>
        <time>2024-03-03T09:08:35Z</time>
      </trkpt>
      <trkpt lat="49.00301" lon="0.13854">
        <ele>87.2</ele>
        <time>2024-03-03T09:08:36Z</time>
      </trkpt>
      <trkpt lat="49.00297" lon="0.13851">
        <ele>87.4</ele>
        <time>2024-03-03T09:08:37Z</time>
      </trkpt>
      <trkpt lat="49.00293" lon="0.13848">
        <ele>87.6</ele>
        <time>2024-03-03T09:08:38Z</time>
      </trkpt>
      <trkpt lat="49.00289" lon="0.13846">
        <ele>87.8</ele>
        <time>2024-03-03T09:08:39Z</time>
      </trkpt>
      <trkpt lat="49.00286" lon="0.13842">
        <ele>88</ele>
        <time>2024-03-03T09:08:40Z</time>
      </trkpt>
      <trkpt lat="49.00281" lon="0.1384">
        <ele>88.2</ele>
        <time>2024-03-03T09:08:41Z</time>
      </trkpt>
      <trkpt lat="49.00277" lon="0.13838">
        <ele>88.5</ele>
        <time>2024-03-03T09:08:42Z</time>
      </trkpt>
      <trkpt lat="49.00273" lon="0.13836">
        <ele>88.7</ele>
        <time>2024-03-03T09:08:43Z</time>
      </trkpt>
      <trkpt lat="49.00269" lon="0.13833">
        <ele>88.8</ele>
        <time>2024-03-03T09:08:44Z</time>
      </trkpt>
      <trkpt lat="49.00266" lon="0.1383">
        <ele>89</ele>
        <time>2024-03-03T09:08:45Z</time>
      </trkpt>
      <trkpt lat="49.00263" lon="0.13827">
        <ele>89.1</ele>
        <time>2024-03-03T09:08:46Z</time>
      </trkpt>
      <trkpt lat="49.00259" lon="0.13824">
        <ele>89.3</ele>
        <time>2024-03-03T09:08:47Z</time>
      </trkpt>
      <trkpt lat="49.00255" lon="0.1382">
        <ele>89.5</ele>
        <time>2024-03-03T09:08:48Z</time>
      </trkpt>
      <trkpt lat="49.00251" lon="0.13817">
        <ele>89.7</ele>
        <time>2024-03-03T09:08:49Z</time>
      </trkpt>
      <trkpt lat="49.00247" lon="0.13814">
        <ele>89.9</ele>
        <time>2024-03-03T09:08:50Z</time>
      </trkpt>
      <trkpt lat="49.00244" lon="0.1381">
        <ele>90.1</ele>
        <time>2024-03-03T09:08:51Z</time>
      </trkpt>
      <trkpt lat="49.00241" lon="0.13807">
        <ele>90.2</ele>
        <time>2024-03-03T09:08:52Z</time>
      </trkpt>
      <trkpt lat="49.00237" lon="0.13803">
        <ele>90.4</ele>
        <time>2024-03-03T09:08:53Z</time>
      </trkpt>
      <trkpt lat="49.00234" lon="0.138">
        <ele>90.6</ele>
        <time>2024-03-03T09:08:54Z</time>
      </trkpt>
      <trkpt lat="49.00229" lon="0.13797">
        <ele>90.8</ele>
        <time>2024-03-03T09:08:55Z</time>
      </trkpt>
      <trkpt lat="49.00225" lon="0.13794">
        <ele>91</ele>
        <time>2024-03-03T09:08:56Z</time>
      </trkpt>
      <trkpt lat="49.00221" lon="0.13791">
        <ele>91.2</ele>
        <time>2024-03-03T09:08:57Z</time>
      </trkpt>
      <trkpt lat="49.00217" lon="0.13788">
        <ele>91.4</ele>
        <time>2024-03-03T09:08:58Z</time>
      </trkpt>
      <trkpt lat="49.00213" lon="0.13784">
        <ele>91.6</ele>
        <time>2024-03-03T09:08:59Z</time>
      </trkpt>
      <trkpt lat="49.0021" lon="0.13781">
        <ele>91.8</ele>
        <time>2024-03-03T09:09:00Z</time>
      </trkpt>
      <trkpt lat="49.00206" lon="0.13778">
        <ele>92</ele>
        <time>2024-03-03T09:09:01Z</time>
      </trkpt>
      <trkpt lat="49.00202" lon="0.13775">
        <ele>92.2</ele>
        <time>2024-03-03T09:09:02Z</time>
      </trkpt>
      <trkpt lat="49.00198" lon="0.13772">
        <ele>92.4</ele>
        <time>2024-03-03T09:09:03Z</time>
      </trkpt>
      <trkpt lat="49.00194" lon="0.13769">
        <ele>92.6</ele>
        <time>2024-03-03T09:09:04Z</time>
      </trkpt>
      <trkpt lat="49.00191" lon="0.13765">
        <ele>92.7</ele>
        <time>2024-03-03T09:09:05Z</time>
      </trkpt>
      <trkpt lat="49.00187" lon="0.13762">
        <ele>92.9</ele>
        <time>2024-03-03T09:09:06Z</time>
      </trkpt>
      <trkpt lat="49.00183" lon="0.13759">
        <ele>93.1</ele>
        <time>2024-03-03T09:09:07Z</time>
      </trkpt>
      <trkpt lat="49.00179" lon="0.13755">
        <ele>93.3</ele>
        <time>2024-03-03T09:09:08Z</time>
      </trkpt>
      <trkpt lat="49.00175" lon="0.13752">
        <ele>93.4</ele>
        <time>2024-03-03T09:09:09Z</time>
      </trkpt>
      <trkpt lat="49.00171" lon="0.13749">
        <ele>93.6</ele>
        <time>2024-03-03T09:09:10Z</time>
      </trkpt>
      <trkpt lat="49.00167" lon="0.13747">
        <ele>93.8</ele>
        <time>2024-03-03T09:09:11Z</time>
      </trkpt>
      <trkpt lat="49.00163" lon="0.13743">
        <ele>93.9</ele>
        <time>2024-03-03T09:09:12Z</time>
      </trkpt>
      <trkpt lat="49.00159" lon="0.13741">
        <ele>94.1</ele>
        <time>2024-03-03T09:09:13Z</time>
      </trkpt>
      <trkpt lat="49.00156" lon="0.13738">
        <ele>94.2</ele>
        <time>2024-03-03T09:09:14Z</time>
      </trkpt>
      <trkpt lat="49.00152" lon="0.13735">
        <ele>94.4</ele>
        <time>2024-03-03T09:09:15Z</time>
      </trkpt>
      <trkpt lat="49.00149" lon="0.13731">
        <ele>94.5</ele>
        <time>2024-03-03T09:09:16Z</time>
      </trkpt>
      <trkpt lat="49.00145" lon="0.13728">
        <ele>94.7</ele>
        <time>2024-03-03T09:09:17Z</time>
      </trkpt>
      <trkpt lat="49.00142" lon="0.13723">
        <ele>94.8</ele>
        <time>2024-03-03T09:09:18Z</time>
      </trkpt>
      <trkpt lat="49.00138" lon="0.13719">
        <ele>95</ele>
        <time>2024-03-03T09:09:19Z</time>
      </trkpt>
      <trkpt lat="49.00135" lon="0.13716">
        <ele>95.1</ele>
        <time>2024-03-03T09:09:20Z</time>
      </trkpt>
      <trkpt lat="49.0013" lon="0.13712">
        <ele>95.3</ele>
        <time>2024-03-03T09:09:21Z</time>
      </trkpt>
      <trkpt lat="49.00126" lon="0.13709">
        <ele>95.4</ele>
        <time>2024-03-03T09:09:22Z</time>
      </trkpt>
      <trkpt lat="49.00123" lon="0.13705">
        <ele>95.6</ele>
        <time>2024-03-03T09:09:23Z</time>
      </trkpt>
      <trkpt lat="49.00118" lon="0.13702">
        <ele>95.7</ele>
        <time>2024-03-03T09:09:24Z</time>
      </trkpt>
      <trkpt lat="49.00114" lon="0.13699">
        <ele>95.9</ele>
        <time>2024-03-03T09:09:25Z</time>
      </trkpt>
      <trkpt lat="49.00109" lon="0.13695">
        <ele>96</ele>
        <time>2024-03-03T09:09:26Z</time>
      </trkpt>
      <trkpt lat="49.00105" lon="0.13691">
        <ele>96.2</ele>
        <time>2024-03-03T09:09:27Z</time>
      </trkpt>
      <trkpt lat="49.001" lon="0.13688">
        <ele>96.4</ele>
        <time>2024-03-03T09:09:28Z</time>
      </trkpt>
      <trkpt lat="49.00095" lon="0.13685">
        <ele>96.5</ele>
        <time>2024-03-03T09:09:29Z</time>
      </trkpt>
      <trkpt lat="49.00091" lon="0.13681">
        <ele>96.7</ele>
        <time>2024-03-03T09:09:30Z</time>
      </trkpt>
      <trkpt lat="49.00086" lon="0.13678">
        <ele>96.9</ele>
        <time>2024-03-03T09:09:31Z</time>
      </trkpt>
      <trkpt lat="49.00081" lon="0.13674">
        <ele>97.1</ele>
        <time>2024-03-03T09:09:32Z</time>
      </trkpt>
      <trkpt lat="49.00076" lon="0.13671">
        <ele>97.2</ele>
        <time>2024-03-03T09:09:33Z</time>
      </trkpt>
      <trkpt lat="49.00072" lon="0.13667">
        <ele>97.4</ele>
        <time>2024-03-03T09:09:34Z</time>
      </trkpt>
      <trkpt lat="49.00068" lon="0.13663">
        <ele>97.6</ele>
        <time>2024-03-03T09:09:35Z</time>
      </trkpt>
      <trkpt lat="49.00064" lon="0.13659">
        <ele>97.8</ele>
        <time>2024-03-03T09:09:36Z</time>
      </trkpt>
      <trkpt lat="49.0006" lon="0.13654">
        <ele>98</ele>
        <time>2024-03-03T09:09:37Z</time>
      </trkpt>
      <trkpt lat="49.00056" lon="0.13651">
        <ele>98.1</ele>
        <time>2024-03-03T09:09:38Z</time>
      </trkpt>
      <trkpt lat="49.00053" lon="0.13647">
        <ele>98.3</ele>
        <time>2024-03-03T09:09:39Z</time>
      </trkpt>
      <trkpt lat="49.00049" lon="0.13642">
        <ele>98.5</ele>
        <time>2024-03-03T09:09:40Z</time>
      </trkpt>
      <trkpt lat="49.00045" lon="0.13638">
        <ele>98.7</ele>
        <time>2024-03-03T09:09:41Z</time>
      </trkpt>
      <trkpt lat="49.00042" lon="0.13633">
        <ele>98.9</ele>
        <time>2024-03-03T09:09:42Z</time>
      </trkpt>
      <trkpt lat="49.00038" lon="0.13629">
        <ele>99.1</ele>
        <time>2024-03-03T09:09:43Z</time>
      </trkpt>
      <trkpt lat="49.00035" lon="0.13623">
        <ele>99.3</ele>
        <time>2024-03-03T09:09:44Z</time>
      </trkpt>
      <trkpt lat="49.00033" lon="0.13618">
        <ele>99.5</ele>
        <time>2024-03-03T09:09:45Z</time>
      </trkpt>
      <trkpt lat="49.0003" lon="0.13612">
        <ele>99.7</ele>
        <time>2024-03-03T09:09:46Z</time>
      </trkpt>
      <trkpt lat="49.00027" lon="0.13607">
        <ele>99.9</ele>
        <time>2024-03-03T09:09:47Z</time>
      </trkpt>
      <trkpt lat="49.00025" lon="0.13602">
        <ele>100.1</ele>
        <time>2024-03-03T09:09:48Z</time>
      </trkpt>
      <trkpt lat="49.00022" lon="0.13597">
        <ele>100.3</ele>
        <time>2024-03-03T09:09:49Z</time>
      </trkpt>
      <trkpt lat="49.00019" lon="0.13591">
        <ele>100.6</ele>
        <time>2024-03-03T09:09:50Z</time>
      </trkpt>
      <trkpt lat="49.00017" lon="0.13586">
        <ele>100.8</ele>
        <time>2024-03-03T09:09:51Z</time>
      </trkpt>
      <trkpt lat="49.00015" lon="0.1358">
        <ele>101.1</ele>
        <time>2024-03-03T09:09:52Z</time>
      </trkpt>
      <trkpt lat="49.00012" lon="0.13574">
        <ele>101.3</ele>
        <time>2024-03-03T09:09:53Z</time>
      </trkpt>
      <trkpt lat="49.0001" lon="0.13569">
        <ele>101.6</ele>
        <time>2024-03-03T09:09:54Z</time>
      </trkpt>
      <trkpt lat="49.00008" lon="0.13563">
        <ele>101.9</ele>
        <time>2024-03-03T09:09:55Z</time>
      </trkpt>
      <trkpt lat="49.00007" lon="0.13557">
        <ele>102.1</ele>
        <time>2024-03-03T09:09:56Z</time>
      </trkpt>
      <trkpt lat="49.00005" lon="0.13551">
        <ele>102.4</ele>
        <time>2024-03-03T09:09:57Z</time>
      </trkpt>
      <trkpt lat="49.00003" lon="0.13546">
        <ele>102.7</ele>
        <time>2024-03-03T09:09:58Z</time>
      </trkpt>
      <trkpt lat="49.00001" lon="0.1354">
        <ele>102.9</ele>
        <time>2024-03-03T09:09:59Z</time>
      </trkpt>
      <trkpt lat="49" lon="0.13535">
        <ele>103.2</ele>
        <time>2024-03-03T09:10:00Z</time>
      </trkpt>
      <trkpt lat="48.99998" lon="0.1353">
        <ele>103.5</ele>
        <time>2024-03-03T09:10:01Z</time>
      </trkpt>
      <trkpt lat="48.99996" lon="0.13525">
        <ele>103.8</ele>
        <time>2024-03-03T09:10:02Z</time>
      </trkpt>
      <trkpt lat="48.99994" lon="0.1352">
        <ele>104.1</ele>
        <time>2024-03-03T09:10:03Z</time>
      </trkpt>
      <trkpt lat="48.99992" lon="0.13515">
        <ele>104.3</ele>
        <time>2024-03-03T09:10:04Z</time>
      </trkpt>
      <trkpt lat="48.99991" lon="0.13511">
        <ele>104.6</ele>
        <time>2024-03-03T09:10:05Z</time>
      </trkpt>
      <trkpt lat="48.9999" lon="0.13506">
        <ele>104.8</ele>
        <time>2024-03-03T09:10:06Z</time>
      </trkpt>
      <trkpt lat="48.99989" lon="0.13502">
        <ele>105.1</ele>
        <time>2024-03-03T09:10:07Z</time>
      </trkpt>
      <trkpt lat="48.99987" lon="0.13497">
        <ele>105.3</ele>
        <time>2024-03-03T09:10:08Z</time>
      </trkpt>
      <trkpt lat="48.99986" lon="0.13492">
        <ele>105.6</ele>
        <time>2024-03-03T09:10:09Z</time>
      </trkpt>
      <trkpt lat="48.99984" lon="0.13486">
        <ele>105.9</ele>
        <time>2024-03-03T09:10:10Z</time>
      </trkpt>
      <trkpt lat="48.99981" lon="0.13481">
        <ele>106.2</ele>
        <time>2024-03-03T09:10:11Z</time>
      </trkpt>
      <trkpt lat="48.99978" lon="0.13476">
        <ele>106.6</ele>
        <time>2024-03-03T09:10:12Z</time>
      </trkpt>
      <trkpt lat="48.99975" lon="0.13471">
        <ele>106.9</ele>
        <time>2024-03-03T09:10:13Z</time>
      </trkpt>
      <trkpt lat="48.99971" lon="0.13466">
        <ele>107.2</ele>
        <time>2024-03-03T09:10:14Z</time>
      </trkpt>
      <trkpt lat="48.99968" lon="0.13462">
        <ele>107.5</ele>
        <time>2024-03-03T09:10:15Z</time>
      </trkpt>
      <trkpt lat="48.99964" lon="0.13459">
        <ele>107.8</ele>
        <time>2024-03-03T09:10:16Z</time>
      </trkpt>
      <trkpt lat="48.9996" lon="0.13455">
        <ele>108.1</ele>
        <time>2024-03-03T09:10:17Z</time>
      </trkpt>
      <trkpt lat="48.99956" lon="0.13452">
        <ele>108.4</ele>
        <time>2024-03-03T09:10:18Z</time>
      </trkpt>
      <trkpt lat="48.99952" lon="0.13449">
        <ele>108.8</ele>
        <time>2024-03-03T09:10:19Z</time>
      </trkpt>
      <trkpt lat="48.99948" lon="0.13447">
        <ele>109.1</ele>
        <time>2024-03-03T09:10:20Z</time>
      </trkpt>
      <trkpt lat="48.99944" lon="0.13445">
        <ele>109.4</ele>
        <time>2024-03-03T09:10:21Z</time>
      </trkpt>
      <trkpt lat="48.99939" lon="0.13443">
        <ele>109.6</ele>
        <time>2024-03-03T09:10:22Z</time>
      </trkpt>
      <trkpt lat="48.99934" lon="0.13442">
        <ele>109.9</ele>
        <time>2024-03-03T09:10:23Z</time>
      </trkpt>
      <trkpt lat="48.9993" lon="0.13441">
        <ele>110.2</ele>
        <time>2024-03-03T09:10:24Z</time>
      </trkpt>
      <trkpt lat="48.99925" lon="0.13439">
        <ele>110.5</ele>
        <time>2024-03-03T09:10:25Z</time>
      </trkpt>
      <trkpt lat="48.99921" lon="0.13438">
        <ele>110.7</ele>
        <time>2024-03-03T09:10:26Z</time>
      </trkpt>
      <trkpt lat="48.99916" lon="0.13438">
        <ele>111</ele>
        <time>2024-03-03T09:10:27Z</time>
      </trkpt>
      <trkpt lat="48.99912" lon="0.13438">
        <ele>111.2</ele>
        <time>2024-03-03T09:10:28Z</time>
      </trkpt>
      <trkpt lat="48.99907" lon="0.13437">
        <ele>111.5</ele>
        <time>2024-03-03T09:10:29Z</time>
      </trkpt>
      <trkpt lat="48.99902" lon="0.13437">
        <ele>111.7</ele>
        <time>2024-03-03T09:10:30Z</time>
      </trkpt>
      <trkpt lat="48.99897" lon="0.13437">
        <ele>111.9</ele>
        <time>2024-03-03T09:10:31Z</time>
      </trkpt>
      <trkpt lat="48.99892" lon="0.13437">
        <ele>112.1</ele>
        <time>2024-03-03T09:10:32Z</time>
      </trkpt>
      <trkpt lat="48.99888" lon="0.13437">
        <ele>112.3</ele>
        <time>2024-03-03T09:10:33Z</time>
      </trkpt>
      <trkpt lat="48.99884" lon="0.13436">
        <ele>112.4</ele>
        <time>2024-03-03T09:10:34Z</time>
      </trkpt>
      <trkpt lat="48.99879" lon="0.13435">
        <ele>112.5</ele>
        <time>2024-03-03T09:10:35Z</time>
      </trkpt>
      <trkpt lat="48.99875" lon="0.13434">
        <ele>112.7</ele>
        <time>2024-03-03T09:10:36Z</time>
      </trkpt>
      <trkpt lat="48.99871" lon="0.13434">
        <ele>112.8</ele>
        <time>2024-03-03T09:10:37Z</time>
      </trkpt>
      <trkpt lat="48.99866" lon="0.13433">
        <ele>112.9</ele>
        <time>2024-03-03T09:10:38Z</time>
      </trkpt>
      <trkpt lat="48.99862" lon="0.13432">
        <ele>113</ele>
        <time>2024-03-03T09:10:39Z</time>
      </trkpt>
      <trkpt lat="48.99857" lon="0.1343">
        <ele>113.2</ele>
        <time>2024-03-03T09:10:40Z</time>
      </trkpt>
      <trkpt lat="48.99852" lon="0.1343">
        <ele>113.3</ele>
        <time>2024-03-03T09:10:41Z</time>
      </trkpt>
      <trkpt lat="48.99847" lon="0.13429">
        <ele>113.4</ele>
        <time>2024-03-03T09:10:42Z</time>
      </trkpt>
      <trkpt lat="48.99842" lon="0.13429">
        <ele>113.5</ele>
        <time>2024-03-03T09:10:43Z</time>
      </trkpt>
      <trkpt lat="48.99838" lon="0.13428">
        <ele>113.6</ele>
        <time>2024-03-03T09:10:44Z</time>
      </trkpt>
      <trkpt lat="48.99833" lon="0.13427">
        <ele>113.7</ele>
        <time>2024-03-03T09:10:45Z</time>
      </trkpt>
      <trkpt lat="48.99828" lon="0.13427">
        <ele>113.8</ele>
        <time>2024-03-03T09:10:46Z</time>
      </trkpt>
      <trkpt lat="48.99823" lon="0.13427">
        <ele>113.9</ele>
        <time>2024-03-03T09:10:47Z</time>
      </trkpt>
      <trkpt lat="48.99819" lon="0.13426">
        <ele>114</ele>
        <time>2024-03-03T09:10:48Z</time>
      </trkpt>
      <trkpt lat="48.99814" lon="0.13425">
        <ele>114.1</ele>
        <time>2024-03-03T09:10:49Z</time>
      </trkpt>
      <trkpt lat="48.99809" lon="0.13424">
        <ele>114.2</ele>
        <time>2024-03-03T09:10:50Z</time>
      </trkpt>
      <trkpt lat="48.99804" lon="0.13423">
        <ele>114.3</ele>
        <time>2024-03-03T09:10:51Z</time>
      </trkpt>
      <trkpt lat="48.998" lon="0.13422">
        <ele>114.4</ele>
        <time>2024-03-03T09:10:52Z</time>
      </trkpt>
      <trkpt lat="48.99795" lon="0.13421">
        <ele>114.4</ele>
        <time>2024-03-03T09:10:53Z</time>
      </trkpt>
      <trkpt lat="48.9979" lon="0.1342">
        <ele>114.5</ele>
        <time>2024-03-03T09:10:54Z</time>
      </trkpt>
      <trkpt lat="48.99785" lon="0.13419">
        <ele>114.6</ele>
        <time>2024-03-03T09:10:55Z</time>
      </trkpt>
      <trkpt lat="48.9978" lon="0.13418">
        <ele>114.7</ele>
        <time>2024-03-03T09:10:56Z</time>
      </trkpt>
      <trkpt lat="48.99775" lon="0.13417">
        <ele>114.7</ele>
        <time>2024-03-03T09:10:57Z</time>
      </trkpt>
      <trkpt lat="48.9977" lon="0.13415">
        <ele>114.8</ele>
        <time>2024-03-03T09:10:58Z</time>
      </trkpt>
      <trkpt lat="48.99766" lon="0.13412">
        <ele>114.8</ele>
        <time>2024-03-03T09:10:59Z</time>
      </trkpt>
      <trkpt lat="48.99761" lon="0.13409">
        <ele>114.9</ele>
        <time>2024-03-03T09:11:00Z</time>
      </trkpt>
      <trkpt lat="48.99756" lon="0.13405">
        <ele>114.9</ele>
        <time>2024-03-03T09:11:01Z</time>
      </trkpt>
      <trkpt lat="48.99752" lon="0.13401">
        <ele>115</ele>
        <time>2024-03-03T09:11:02Z</time>
      </trkpt>
      <trkpt lat="48.99747" lon="0.13397">
        <ele>115</ele>
        <time>2024-03-03T09:11:03Z</time>
      </trkpt>
      <trkpt lat="48.99743" lon="0.13393">
        <ele>115.1</ele>
        <time>2024-03-03T09:11:04Z</time>
      </trkpt>
      <trkpt lat="48.99738" lon="0.13388">
        <ele>115.2</ele>
        <time>2024-03-03T09:11:05Z</time>
      </trkpt>
      <trkpt lat="48.99734" lon="0.13383">
        <ele>115.2</ele>
        <time>2024-03-03T09:11:06Z</time>
      </trkpt>
      <trkpt lat="48.9973" lon="0.13377">
        <ele>115.3</ele>
        <time>2024-03-03T09:11:07Z</time>
      </trkpt>
      <trkpt lat="48.99726" lon="0.13371">
        <ele>115.4</ele>
        <time>2024-03-03T09:11:08Z</time>
      </trkpt>
      <trkpt lat="48.99723" lon="0.13366">
        <ele>115.5</ele>
        <time>2024-03-03T09:11:09Z</time>
      </trkpt>
      <trkpt lat="48.99719" lon="0.1336">
        <ele>115.6</ele>
        <time>2024-03-03T09:11:10Z</time>
      </trkpt>
      <trkpt lat="48.99716" lon="0.13353">
        <ele>115.7</ele>
        <time>2024-03-03T09:11:11Z</time>
      </trkpt>
      <trkpt lat="48.99713" lon="0.13347">
        <ele>115.8</ele>
        <time>2024-03-03T09:11:12Z</time>
      </trkpt>
      <trkpt lat="48.9971" lon="0.13341">
        <ele>115.9</ele>
        <time>2024-03-03T09:11:13Z</time>
      </trkpt>
      <trkpt lat="48.99707" lon="0.13334">
        <ele>116</ele>
        <time>2024-03-03T09:11:14Z</time>
      </trkpt>
      <trkpt lat="48.99705" lon="0.13327">
        <ele>116.1</ele>
        <time>2024-03-03T09:11:15Z</time>
      </trkpt>
      <trkpt lat="48.99703" lon="0.1332">
        <ele>116.2</ele>
        <time>2024-03-03T09:11:16Z</time>
      </trkpt>
      <trkpt lat="48.99702" lon="0.13313">
        <ele>116.4</ele>
        <time>2024-03-03T09:11:17Z</time>
      </trkpt>
      <trkpt lat="48.99701" lon="0.13306">
        <ele>116.7</ele>
        <time>2024-03-03T09:11:18Z</time>
      </trkpt>
      <trkpt lat="48.99699" lon="0.13299">
        <ele>117</ele>
        <time>2024-03-03T09:11:19Z</time>
      </trkpt>
      <trkpt lat="48.99698" lon="0.13292">
        <ele>117.3</ele>
        <time>2024-03-03T09:11:20Z</time>
      </trkpt>
      <trkpt lat="48.99698" lon="0.13286">
        <ele>117.6</ele>
        <time>2024-03-03T09:11:21Z</time>
      </trkpt>
      <trkpt lat="48.99697" lon="0.1328">
        <ele>117.9</ele>
        <time>2024-03-03T09:11:22Z</time>
      </trkpt>
      <trkpt lat="48.99697" lon="0.13273">
        <ele>118.3</ele>
        <time>2024-03-03T09:11:23Z</time>
      </trkpt>
      <trkpt lat="48.99696" lon="0.13267">
        <ele>118.6</ele>
        <time>2024-03-03T09:11:24Z</time>
      </trkpt>
      <trkpt lat="48.99696" lon="0.1326">
        <ele>118.9</ele>
        <time>2024-03-03T09:11:25Z</time>
      </trkpt>
      <trkpt lat="48.99697" lon="0.13253">
        <ele>119.3</ele>
        <time>2024-03-03T09:11:26Z</time>
      </trkpt>
      <trkpt lat="48.99696" lon="0.13247">
        <ele>119.7</ele>
        <time>2024-03-03T09:11:27Z</time>
      </trkpt>
      <trkpt lat="48.99696" lon="0.1324">
        <ele>120</ele>
        <time>2024-03-03T09:11:28Z</time>
      </trkpt>
      <trkpt lat="48.99697" lon="0.13234">
        <ele>120.4</ele>
        <time>2024-03-03T09:11:29Z</time>
      </trkpt>
      <trkpt lat="48.99697" lon="0.13229">
        <ele>120.7</ele>
        <time>2024-03-03T09:11:30Z</time>
      </trkpt>
      <trkpt lat="48.99698" lon="0.13224">
        <ele>121</ele>
        <time>2024-03-03T09:11:31Z</time>
      </trkpt>
      <trkpt lat="48.99699" lon="0.13217">
        <ele>121.3</ele>
        <time>2024-03-03T09:11:32Z</time>
      </trkpt>
      <trkpt lat="48.99699" lon="0.13212">
        <ele>121.7</ele>
        <time>2024-03-03T09:11:33Z</time>
      </trkpt>
      <trkpt lat="48.997" lon="0.13207">
        <ele>122</ele>
        <time>2024-03-03T09:11:34Z</time>
      </trkpt>
      <trkpt lat="48.99701" lon="0.13202">
        <ele>121.9</ele>
        <time>2024-03-03T09:11:35Z</time>
      </trkpt>
      <trkpt lat="48.99702" lon="0.13196">
        <ele>122</ele>
        <time>2024-03-03T09:11:36Z</time>
      </trkpt>
      <trkpt lat="48.99703" lon="0.13191">
        <ele>122.2</ele>
        <time>2024-03-03T09:11:37Z</time>
      </trkpt>
      <trkpt lat="48.99704" lon="0.13186">
        <ele>122.4</ele>
        <time>2024-03-03T09:11:38Z</time>
      </trkpt>
      <trkpt lat="48.99705" lon="0.1318">
        <ele>122.7</ele>
        <time>2024-03-03T09:11:39Z</time>
      </trkpt>
      <trkpt lat="48.99706" lon="0.13174">
        <ele>122.9</ele>
        <time>2024-03-03T09:11:40Z</time>
      </trkpt>
      <trkpt lat="48.99707" lon="0.13168">
        <ele>123.2</ele>
        <time>2024-03-03T09:11:41Z</time>
      </trkpt>
      <trkpt lat="48.99708" lon="0.13162">
        <ele>123.4</ele>
        <time>2024-03-03T09:11:42Z</time>
      </trkpt>
      <trkpt lat="48.9971" lon="0.13156">
        <ele>123.7</ele>
        <time>2024-03-03T09:11:43Z</time>
      </trkpt>
      <trkpt lat="48.99711" lon="0.13149">
        <ele>124</ele>
        <time>2024-03-03T09:11:44Z</time>
      </trkpt>
      <trkpt lat="48.99712" lon="0.13143">
        <ele>124.2</ele>
        <time>2024-03-03T09:11:45Z</time>
      </trkpt>
      <trkpt lat="48.99712" lon="0.13137">
        <ele>124.4</ele>
        <time>2024-03-03T09:11:46Z</time>
      </trkpt>
      <trkpt lat="48.99713" lon="0.13131">
        <ele>124.7</ele>
        <time>2024-03-03T09:11:47Z</time>
      </trkpt>
      <trkpt lat="48.99714" lon="0.13126">
        <ele>124.9</ele>
        <time>2024-03-03T09:11:48Z</time>
      </trkpt>
      <trkpt lat="48.99715" lon="0.1312">
        <ele>125.1</ele>
        <time>2024-03-03T09:11:49Z</time>
      </trkpt>
      <trkpt lat="48.99716" lon="0.13114">
        <ele>125.3</ele>
        <time>2024-03-03T09:11:50Z</time>
      </trkpt>
      <trkpt lat="48.99716" lon="0.13108">
        <ele>125.5</ele>
        <time>2024-03-03T09:11:51Z</time>
      </trkpt>
      <trkpt lat="48.99717" lon="0.13103">
        <ele>125.7</ele>
        <time>2024-03-03T09:11:52Z</time>
      </trkpt>
      <trkpt lat="48.99717" lon="0.13097">
        <ele>125.9</ele>
        <time>2024-03-03T09:11:53Z</time>
      </trkpt>
      <trkpt lat="48.99718" lon="0.13091">
        <ele>126.1</ele>
        <time>2024-03-03T09:11:54Z</time>
      </trkpt>
      <trkpt lat="48.99719" lon="0.13086">
        <ele>126.3</ele>
        <time>2024-03-03T09:11:55Z</time>
      </trkpt>
      <trkpt lat="48.99719" lon="0.1308">
        <ele>126.5</ele>
        <time>2024-03-03T09:11:56Z</time>
      </trkpt>
      <trkpt lat="48.9972" lon="0.13075">
        <ele>126.7</ele>
        <time>2024-03-03T09:11:57Z</time>
      </trkpt>
      <trkpt lat="48.99721" lon="0.13069">
        <ele>126.8</ele>
        <time>2024-03-03T09:11:58Z</time>
      </trkpt>
      <trkpt lat="48.99722" lon="0.13063">
        <ele>127</ele>
        <time>2024-03-03T09:11:59Z</time>
      </trkpt>
      <trkpt lat="48.99722" lon="0.13056">
        <ele>127.2</ele>
        <time>2024-03-03T09:12:00Z</time>
      </trkpt>
      <trkpt lat="48.99723" lon="0.13049">
        <ele>127.4</ele>
        <time>2024-03-03T09:12:01Z</time>
      </trkpt>
      <trkpt lat="48.99724" lon="0.13042">
        <ele>127.6</ele>
        <time>2024-03-03T09:12:02Z</time>
      </trkpt>
      <trkpt lat="48.99723" lon="0.13035">
        <ele>127.7</ele>
        <time>2024-03-03T09:12:03Z</time>
      </trkpt>
      <trkpt lat="48.99723" lon="0.13028">
        <ele>127.9</ele>
        <time>2024-03-03T09:12:04Z</time>
      </trkpt>
      <trkpt lat="48.99723" lon="0.1302">
        <ele>128.1</ele>
        <time>2024-03-03T09:12:05Z</time>
      </trkpt>
      <trkpt lat="48.99722" lon="0.13013">
        <ele>128.2</ele>
        <time>2024-03-03T09:12:06Z</time>
      </trkpt>
      <trkpt lat="48.99722" lon="0.13007">
        <ele>128.4</ele>
        <time>2024-03-03T09:12:07Z</time>
      </trkpt>
      <trkpt lat="48.99721" lon="0.13">
        <ele>128.6</ele>
        <time>2024-03-03T09:12:08Z</time>
      </trkpt>
      <trkpt lat="48.99721" lon="0.12993">
        <ele>128.7</ele>
        <time>2024-03-03T09:12:09Z</time>
      </trkpt>
      <trkpt lat="48.99721" lon="0.12987">
        <ele>128.9</ele>
        <time>2024-03-03T09:12:10Z</time>
      </trkpt>
      <trkpt lat="48.99721" lon="0.12981">
        <ele>129</ele>
        <time>2024-03-03T09:12:11Z</time>
      </trkpt>
      <trkpt lat="48.99721" lon="0.12975">
        <ele>129.2</ele>
        <time>2024-03-03T09:12:12Z</time>
      </trkpt>
      <trkpt lat="48.99721" lon="0.1297">
        <ele>129.3</ele>
        <time>2024-03-03T09:12:13Z</time>
      </trkpt>
      <trkpt lat="48.9972" lon="0.12963">
        <ele>129.4</ele>
        <time>2024-03-03T09:12:14Z</time>
      </trkpt>
      <trkpt lat="48.99719" lon="0.12956">
        <ele>129.6</ele>
        <time>2024-03-03T09:12:15Z</time>
      </trkpt>
      <trkpt lat="48.99717" lon="0.1295">
        <ele>129.8</ele>
        <time>2024-03-03T09:12:16Z</time>
      </trkpt>
      <trkpt lat="48.99714" lon="0.12944">
        <ele>129.9</ele>
        <time>2024-03-03T09:12:17Z</time>
      </trkpt>
      <trkpt lat="48.99712" lon="0.12937">
        <ele>130.1</ele>
        <time>2024-03-03T09:12:18Z</time>
      </trkpt>
      <trkpt lat="48.9971" lon="0.12931">
        <ele>130.3</ele>
        <time>2024-03-03T09:12:19Z</time>
      </trkpt>
      <trkpt lat="48.99708" lon="0.12926">
        <ele>130.4</ele>
        <time>2024-03-03T09:12:20Z</time>
      </trkpt>
      <trkpt lat="48.99707" lon="0.12921">
        <ele>130.5</ele>
        <time>2024-03-03T09:12:21Z</time>
      </trkpt>
      <trkpt lat="48.99705" lon="0.12916">
        <ele>130.6</ele>
        <time>2024-03-03T09:12:22Z</time>
      </trkpt>
      <trkpt lat="48.99704" lon="0.12912">
        <ele>130.7</ele>
        <time>2024-03-03T09:12:23Z</time>
      </trkpt>
      <trkpt lat="48.99703" lon="0.12907">
        <ele>130.9</ele>
        <time>2024-03-03T09:12:24Z</time>
      </trkpt>
      <trkpt lat="48.99701" lon="0.12901">
        <ele>131</ele>
        <time>2024-03-03T09:12:25Z</time>
      </trkpt>
      <trkpt lat="48.99699" lon="0.12895">
        <ele>131.2</ele>
        <time>2024-03-03T09:12:26Z</time>
      </trkpt>
      <trkpt lat="48.99696" lon="0.12888">
        <ele>131.3</ele>
        <time>2024-03-03T09:12:27Z</time>
      </trkpt>
      <trkpt lat="48.99695" lon="0.12883">
        <ele>131.5</ele>
        <time>2024-03-03T09:12:28Z</time>
      </trkpt>
      <trkpt lat="48.99693" lon="0.12878">
        <ele>131.6</ele>
        <time>2024-03-03T09:12:29Z</time>
      </trkpt>
      <trkpt lat="48.99692" lon="0.12873">
        <ele>131.7</ele>
        <time>2024-03-03T09:12:30Z</time>
      </trkpt>
      <trkpt lat="48.99691" lon="0.12868">
        <ele>131.9</ele>
        <time>2024-03-03T09:12:31Z</time>
      </trkpt>
      <trkpt lat="48.99689" lon="0.12863">
        <ele>132</ele>
        <time>2024-03-03T09:12:32Z</time>
      </trkpt>
      <trkpt lat="48.99688" lon="0.12858">
        <ele>132.2</ele>
        <time>2024-03-03T09:12:33Z</time>
      </trkpt>
      <trkpt lat="48.99686" lon="0.12851">
        <ele>132.4</ele>
        <time>2024-03-03T09:12:34Z</time>
      </trkpt>
      <trkpt lat="48.99684" lon="0.12845">
        <ele>132.5</ele>
        <time>2024-03-03T09:12:35Z</time>
      </trkpt>
      <trkpt lat="48.99682" lon="0.1284">
        <ele>132.6</ele>
        <time>2024-03-03T09:12:36Z</time>
      </trkpt>
      <trkpt lat="48.9968" lon="0.12834">
        <ele>132.8</ele>
        <time>2024-03-03T09:12:37Z</time>
      </trkpt>
      <trkpt lat="48.99678" lon="0.12828">
        <ele>133</ele>
        <time>2024-03-03T09:12:38Z</time>
      </trkpt>
      <trkpt lat="48.99676" lon="0.12823">
        <ele>133.1</ele>
        <time>2024-03-03T09:12:39Z</time>
      </trkpt>
      <trkpt lat="48.99674" lon="0.12819">
        <ele>133.2</ele>
        <time>2024-03-03T09:12:40Z</time>
      </trkpt>
      <trkpt lat="48.99672" lon="0.12814">
        <ele>133.4</ele>
        <time>2024-03-03T09:12:41Z</time>
      </trkpt>
      <trkpt lat="48.99671" lon="0.12809">
        <ele>133.5</ele>
        <time>2024-03-03T09:12:42Z</time>
      </trkpt>
      <trkpt lat="48.99669" lon="0.12803">
        <ele>133.7</ele>
        <time>2024-03-03T09:12:43Z</time>
      </trkpt>
      <trkpt lat="48.99667" lon="0.12795">
        <ele>133.9</ele>
        <time>2024-03-03T09:12:44Z</time>
      </trkpt>
      <trkpt lat="48.99662" lon="0.12787">
        <ele>134.1</ele>
        <time>2024-03-03T09:12:45Z</time>
      </trkpt>
      <trkpt lat="48.99659" lon="0.1278">
        <ele>134.3</ele>
        <time>2024-03-03T09:12:46Z</time>
      </trkpt>
      <trkpt lat="48.99656" lon="0.12772">
        <ele>134.6</ele>
        <time>2024-03-03T09:12:47Z</time>
      </trkpt>
      <trkpt lat="48.99652" lon="0.12765">
        <ele>134.8</ele>
        <time>2024-03-03T09:12:48Z</time>
      </trkpt>
      <trkpt lat="48.99649" lon="0.12759">
        <ele>135</ele>
        <time>2024-03-03T09:12:49Z</time>
      </trkpt>
      <trkpt lat="48.99645" lon="0.12751">
        <ele>135.3</ele>
        <time>2024-03-03T09:12:50Z</time>
      </trkpt>
      <trkpt lat="48.99642" lon="0.12744">
        <ele>135.5</ele>
        <time>2024-03-03T09:12:51Z</time>
      </trkpt>
      <trkpt lat="48.99639" lon="0.12736">
        <ele>135.8</ele>
        <time>2024-03-03T09:12:52Z</time>
      </trkpt>
      <trkpt lat="48.99636" lon="0.12728">
        <ele>136.1</ele>
        <time>2024-03-03T09:12:53Z</time>
      </trkpt>
      <trkpt lat="48.99634" lon="0.12721">
        <ele>136.3</ele>
        <time>2024-03-03T09:12:54Z</time>
      </trkpt>
      <trkpt lat="48.99631" lon="0.12713">
        <ele>136.6</ele>
        <time>2024-03-03T09:12:55Z</time>
      </trkpt>
      <trkpt lat="48.99629" lon="0.12706">
        <ele>136.9</ele>
        <time>2024-03-03T09:12:56Z</time>
      </trkpt>
      <trkpt lat="48.99626" lon="0.12699">
        <ele>137.1</ele>
        <time>2024-03-03T09:12:57Z</time>
      </trkpt>
      <trkpt lat="48.99624" lon="0.12693">
        <ele>137.4</ele>
        <time>2024-03-03T09:12:58Z</time>
      </trkpt>
      <trkpt lat="48.99621" lon="0.12687">
        <ele>137.6</ele>
        <time>2024-03-03T09:12:59Z</time>
      </trkpt>
      <trkpt lat="48.99619" lon="0.12681">
        <ele>137.8</ele>
        <time>2024-03-03T09:13:00Z</time>
      </trkpt>
      <trkpt lat="48.99616" lon="0.12675">
        <ele>138.1</ele>
        <time>2024-03-03T09:13:01Z</time>
      </trkpt>
      <trkpt lat="48.99614" lon="0.12669">
        <ele>138.3</ele>
        <time>2024-03-03T09:13:02Z</time>
      </trkpt>
      <trkpt lat="48.99612" lon="0.12664">
        <ele>138.5</ele>
        <time>2024-03-03T09:13:03Z</time>
      </trkpt>
      <trkpt lat="48.9961" lon="0.12658">
        <ele>138.8</ele>
        <time>2024-03-03T09:13:04Z</time>
      </trkpt>
      <trkpt lat="48.99608" lon="0.12652">
        <ele>139</ele>
        <time>2024-03-03T09:13:05Z</time>
      </trkpt>
      <trkpt lat="48.99605" lon="0.12646">
        <ele>139.3</ele>
        <time>2024-03-03T09:13:06Z</time>
      </trkpt>
      <trkpt lat="48.99603" lon="0.1264">
        <ele>139.5</ele>
        <time>2024-03-03T09:13:07Z</time>
      </trkpt>
      <trkpt lat="48.99601" lon="0.12634">
        <ele>139.8</ele>
        <time>2024-03-03T09:13:08Z</time>
      </trkpt>
      <trkpt lat="48.99599" lon="0.12629">
        <ele>140</ele>
        <time>2024-03-03T09:13:09Z</time>
      </trkpt>
      <trkpt lat="48.99597" lon="0.12623">
        <ele>140.3</ele>
        <time>2024-03-03T09:13:10Z</time>
      </trkpt>
      <trkpt lat="48.99595" lon="0.12617">
        <ele>140.5</ele>
        <time>2024-03-03T09:13:11Z</time>
      </trkpt>
      <trkpt lat="48.99593" lon="0.12611">
        <ele>140.7</ele>
        <time>2024-03-03T09:13:12Z</time>
      </trkpt>
      <trkpt lat="48.99591" lon="0.12606">
        <ele>141</ele>
        <time>2024-03-03T09:13:13Z</time>
      </trkpt>
      <trkpt lat="48.99589" lon="0.126">
        <ele>141.2</ele>
        <time>2024-03-03T09:13:14Z</time>
      </trkpt>
      <trkpt lat="48.99586" lon="0.12595">
        <ele>141.4</ele>
        <time>2024-03-03T09:13:15Z</time>
      </trkpt>
      <trkpt lat="48.99584" lon="0.12588">
        <ele>141.7</ele>
        <time>2024-03-03T09:13:16Z</time>
      </trkpt>
      <trkpt lat="48.99583" lon="0.12582">
        <ele>141.9</ele>
        <time>2024-03-03T09:13:17Z</time>
      </trkpt>
      <trkpt lat="48.99582" lon="0.12576">
        <ele>142.2</ele>
        <time>2024-03-03T09:13:18Z</time>
      </trkpt>
      <trkpt lat="48.9958" lon="0.1257">
        <ele>142.4</ele>
        <time>2024-03-03T09:13:19Z</time>
      </trkpt>
      <trkpt lat="48.99578" lon="0.12565">
        <ele>142.6</ele>
        <time>2024-03-03T09:13:20Z</time>
      </trkpt>
      <trkpt lat="48.99576" lon="0.12559">
        <ele>142.9</ele>
        <time>2024-03-03T09:13:21Z</time>
      </trkpt>
      <trkpt lat="48.99574" lon="0.12554">
        <ele>143.1</ele>
        <time>2024-03-03T09:13:22Z</time>
      </trkpt>
      <trkpt lat="48.99572" lon="0.1255">
        <ele>143.3</ele>
        <time>2024-03-03T09:13:23Z</time>
      </trkpt>
      <trkpt lat="48.9957" lon="0.12546">
        <ele>143.5</ele>
        <time>2024-03-03T09:13:24Z</time>
      </trkpt>
      <trkpt lat="48.99568" lon="0.12542">
        <ele>143.7</ele>
        <time>2024-03-03T09:13:25Z</time>
      </trkpt>
      <trkpt lat="48.99565" lon="0.12538">
        <ele>143.9</ele>
        <time>2024-03-03T09:13:26Z</time>
      </trkpt>
      <trkpt lat="48.99563" lon="0.12535">
        <ele>144</ele>
        <time>2024-03-03T09:13:27Z</time>
      </trkpt>
      <trkpt lat="48.99562" lon="0.12531">
        <ele>144.2</ele>
        <time>2024-03-03T09:13:28Z</time>
      </trkpt>
      <trkpt lat="48.9956" lon="0.12527">
        <ele>144.4</ele>
        <time>2024-03-03T09:13:29Z</time>
      </trkpt>
      <trkpt lat="48.99558" lon="0.12522">
        <ele>144.6</ele>
        <time>2024-03-03T09:13:30Z</time>
      </trkpt>
      <trkpt lat="48.99555" lon="0.12518">
        <ele>144.8</ele>
        <time>2024-03-03T09:13:31Z</time>
      </trkpt>
      <trkpt lat="48.99553" lon="0.12513">
        <ele>145</ele>
        <time>2024-03-03T09:13:32Z</time>
      </trkpt>
      <trkpt lat="48.9955" lon="0.12509">
        <ele>145.3</ele>
        <time>2024-03-03T09:13:33Z</time>
      </trkpt>
      <trkpt lat="48.99547" lon="0.12504">
        <ele>145.5</ele>
        <time>2024-03-03T09:13:34Z</time>
      </trkpt>
      <trkpt lat="48.99544" lon="0.12499">
        <ele>145.8</ele>
        <time>2024-03-03T09:13:35Z</time>
      </trkpt>
      <trkpt lat="48.99542" lon="0.12494">
        <ele>146</ele>
        <time>2024-03-03T09:13:36Z</time>
      </trkpt>
      <trkpt lat="48.99539" lon="0.1249">
        <ele>146.2</ele>
        <time>2024-03-03T09:13:37Z</time>
      </trkpt>
      <trkpt lat="48.99536" lon="0.12485">
        <ele>146.5</ele>
        <time>2024-03-03T09:13:38Z</time>
      </trkpt>
      <trkpt lat="48.99533" lon="0.12481">
        <ele>146.7</ele>
        <time>2024-03-03T09:13:39Z</time>
      </trkpt>
      <trkpt lat="48.99529" lon="0.12476">
        <ele>147</ele>
        <time>2024-03-03T09:13:40Z</time>
      </trkpt>
      <trkpt lat="48.99526" lon="0.12472">
        <ele>147.2</ele>
        <time>2024-03-03T09:13:41Z</time>
      </trkpt>
      <trkpt lat="48.99523" lon="0.12467">
        <ele>147.5</ele>
        <time>2024-03-03T09:13:42Z</time>
      </trkpt>
      <trkpt lat="48.9952" lon="0.12463">
        <ele>147.7</ele>
        <time>2024-03-03T09:13:43Z</time>
      </trkpt>
      <trkpt lat="48.99518" lon="0.12459">
        <ele>147.9</ele>
        <time>2024-03-03T09:13:44Z</time>
      </trkpt>
      <trkpt lat="48.99515" lon="0.12455">
        <ele>148.1</ele>
        <time>2024-03-03T09:13:45Z</time>
      </trkpt>
      <trkpt lat="48.99513" lon="0.12451">
        <ele>148.3</ele>
        <time>2024-03-03T09:13:46Z</time>
      </trkpt>
      <trkpt lat="48.99511" lon="0.12447">
        <ele>148.5</ele>
        <time>2024-03-03T09:13:47Z</time>
      </trkpt>
      <trkpt lat="48.99508" lon="0.12443">
        <ele>148.7</ele>
        <time>2024-03-03T09:13:48Z</time>
      </trkpt>
      <trkpt lat="48.99506" lon="0.1244">
        <ele>148.9</ele>
        <time>2024-03-03T09:13:49Z</time>
      </trkpt>
      <trkpt lat="48.99504" lon="0.12436">
        <ele>149.1</ele>
        <time>2024-03-03T09:13:50Z</time>
      </trkpt>
      <trkpt lat="48.99502" lon="0.12432">
        <ele>149.3</ele>
        <time>2024-03-03T09:13:51Z</time>
      </trkpt>
      <trkpt lat="48.99499" lon="0.12428">
        <ele>149.5</ele>
        <time>2024-03-03T09:13:52Z</time>
      </trkpt>
      <trkpt lat="48.99497" lon="0.12423">
        <ele>149.8</ele>
        <time>2024-03-03T09:13:53Z</time>
      </trkpt>
      <trkpt lat="48.99495" lon="0.12418">
        <ele>150</ele>
        <time>2024-03-03T09:13:54Z</time>
      </trkpt>
      <trkpt lat="48.99493" lon="0.12413">
        <ele>150.2</ele>
        <time>2024-03-03T09:13:55Z</time>
      </trkpt>
      <trkpt lat="48.99491" lon="0.12408">
        <ele>150.5</ele>
        <time>2024-03-03T09:13:56Z</time>
      </trkpt>
      <trkpt lat="48.99489" lon="0.12403">
        <ele>150.7</ele>
        <time>2024-03-03T09:13:57Z</time>
      </trkpt>
      <trkpt lat="48.99487" lon="0.12398">
        <ele>150.9</ele>
        <time>2024-03-03T09:13:58Z</time>
      </trkpt>
      <trkpt lat="48.99485" lon="0.12391">
        <ele>151.2</ele>
        <time>2024-03-03T09:13:59Z</time>
      </trkpt>
      <trkpt lat="48.99483" lon="0.12385">
        <ele>151.5</ele>
        <time>2024-03-03T09:14:00Z</time>
      </trkpt>
      <trkpt lat="48.99481" lon="0.1238">
        <ele>151.7</ele>
        <time>2024-03-03T09:14:01Z</time>
      </trkpt>
      <trkpt lat="48.99478" lon="0.12375">
        <ele>152</ele>
        <time>2024-03-03T09:14:02Z</time>
      </trkpt>
      <trkpt lat="48.99475" lon="0.1237">
        <ele>152.2</ele>
        <time>2024-03-03T09:14:03Z</time>
      </trkpt>
      <trkpt lat="48.99473" lon="0.12365">
        <ele>152.5</ele>
        <time>2024-03-03T09:14:04Z</time>
      </trkpt>
      <trkpt lat="48.99472" lon="0.12359">
        <ele>152.7</ele>
        <time>2024-03-03T09:14:05Z</time>
      </trkpt>
      <trkpt lat="48.9947" lon="0.12355">
        <ele>152.9</ele>
        <time>2024-03-03T09:14:06Z</time>
      </trkpt>
      <trkpt lat="48.99469" lon="0.1235">
        <ele>153.1</ele>
        <time>2024-03-03T09:14:07Z</time>
      </trkpt>
      <trkpt lat="48.99467" lon="0.12345">
        <ele>153.3</ele>
        <time>2024-03-03T09:14:08Z</time>
      </trkpt>
      <trkpt lat="48.99465" lon="0.12339">
        <ele>153.6</ele>
        <time>2024-03-03T09:14:09Z</time>
      </trkpt>
      <trkpt lat="48.99463" lon="0.12334">
        <ele>153.8</ele>
        <time>2024-03-03T09:14:10Z</time>
      </trkpt>
      <trkpt lat="48.99461" lon="0.12328">
        <ele>154</ele>
        <time>2024-03-03T09:14:11Z</time>
      </trkpt>
      <trkpt lat="48.99459" lon="0.12322">
        <ele>154.3</ele>
        <time>2024-03-03T09:14:12Z</time>
      </trkpt>
      <trkpt lat="48.99458" lon="0.12316">
        <ele>154.5</ele>
        <time>2024-03-03T09:14:13Z</time>
      </trkpt>
      <trkpt lat="48.99456" lon="0.12312">
        <ele>154.8</ele>
        <time>2024-03-03T09:14:14Z</time>
      </trkpt>
      <trkpt lat="48.99455" lon="0.12307">
        <ele>155</ele>
        <time>2024-03-03T09:14:15Z</time>
      </trkpt>
      <trkpt lat="48.99454" lon="0.12302">
        <ele>155.2</ele>
        <time>2024-03-03T09:14:16Z</time>
      </trkpt>
      <trkpt lat="48.99453" lon="0.12296">
        <ele>155.4</ele>
        <time>2024-03-03T09:14:17Z</time>
      </trkpt>
      <trkpt lat="48.99451" lon="0.12291">
        <ele>155.7</ele>
        <time>2024-03-03T09:14:18Z</time>
      </trkpt>
      <trkpt lat="48.9945" lon="0.12284">
        <ele>155.9</ele>
        <time>2024-03-03T09:14:19Z</time>
      </trkpt>
      <trkpt lat="48.99449" lon="0.12278">
        <ele>156.2</ele>
        <time>2024-03-03T09:14:20Z</time>
      </trkpt>
      <trkpt lat="48.99448" lon="0.12273">
        <ele>156.4</ele>
        <time>2024-03-03T09:14:21Z</time>
      </trkpt>
      <trkpt lat="48.99447" lon="0.12268">
        <ele>156.6</ele>
        <time>2024-03-03T09:14:22Z</time>
      </trkpt>
      <trkpt lat="48.99446" lon="0.12262">
        <ele>156.9</ele>
        <time>2024-03-03T09:14:23Z</time>
      </trkpt>
      <trkpt lat="48.99446" lon="0.12257">
        <ele>157.1</ele>
        <time>2024-03-03T09:14:24Z</time>
      </trkpt>
      <trkpt lat="48.99444" lon="0.12252">
        <ele>157.3</ele>
        <time>2024-03-03T09:14:25Z</time>
      </trkpt>
      <trkpt lat="48.99443" lon="0.12246">
        <ele>157.6</ele>
        <time>2024-03-03T09:14:26Z</time>
      </trkpt>
      <trkpt lat="48.99442" lon="0.12239">
        <ele>157.9</ele>
        <time>2024-03-03T09:14:27Z</time>
      </trkpt>
      <trkpt lat="48.99441" lon="0.12233">
        <ele>158.2</ele>
        <time>2024-03-03T09:14:28Z</time>
      </trkpt>
      <trkpt lat="48.99441" lon="0.12228">
        <ele>158.4</ele>
        <time>2024-03-03T09:14:29Z</time>
      </trkpt>
      <trkpt lat="48.9944" lon="0.12222">
        <ele>158.6</ele>
        <time>2024-03-03T09:14:30Z</time>
      </trkpt>
      <trkpt lat="48.99439" lon="0.12217">
        <ele>158.8</ele>
        <time>2024-03-03T09:14:31Z</time>
      </trkpt>
      <trkpt lat="48.99438" lon="0.12213">
        <ele>159</ele>
        <time>2024-03-03T09:14:32Z</time>
      </trkpt>
      <trkpt lat="48.99437" lon="0.12208">
        <ele>159.2</ele>
        <time>2024-03-03T09:14:33Z</time>
      </trkpt>
      <trkpt lat="48.99436" lon="0.12203">
        <ele>159.4</ele>
        <time>2024-03-03T09:14:34Z</time>
      </trkpt>
      <trkpt lat="48.99435" lon="0.12199">
        <ele>159.6</ele>
        <time>2024-03-03T09:14:35Z</time>
      </trkpt>
      <trkpt lat="48.99434" lon="0.12194">
        <ele>159.8</ele>
        <time>2024-03-03T09:14:36Z</time>
      </trkpt>
      <trkpt lat="48.99433" lon="0.12188">
        <ele>160.1</ele>
        <time>2024-03-03T09:14:37Z</time>
      </trkpt>
      <trkpt lat="48.99432" lon="0.12183">
        <ele>160.3</ele>
        <time>2024-03-03T09:14:38Z</time>
      </trkpt>
      <trkpt lat="48.99432" lon="0.12178">
        <ele>160.5</ele>
        <time>2024-03-03T09:14:39Z</time>
      </trkpt>
      <trkpt lat="48.99432" lon="0.12173">
        <ele>160.6</ele>
        <time>2024-03-03T09:14:40Z</time>
      </trkpt>
      <trkpt lat="48.99432" lon="0.12168">
        <ele>160.9</ele>
        <time>2024-03-03T09:14:41Z</time>
      </trkpt>
      <trkpt lat="48.99432" lon="0.12163">
        <ele>161.1</ele>
        <time>2024-03-03T09:14:42Z</time>
      </trkpt>
      <trkpt lat="48.99431" lon="0.12157">
        <ele>161.3</ele>
        <time>2024-03-03T09:14:43Z</time>
      </trkpt>
      <trkpt lat="48.9943" lon="0.12151">
        <ele>161.5</ele>
        <time>2024-03-03T09:14:44Z</time>
      </trkpt>
      <trkpt lat="48.99429" lon="0.12143">
        <ele>161.8</ele>
        <time>2024-03-03T09:14:45Z</time>
      </trkpt>
      <trkpt lat="48.99429" lon="0.12135">
        <ele>162.1</ele>
        <time>2024-03-03T09:14:46Z</time>
      </trkpt>
      <trkpt lat="48.99428" lon="0.12128">
        <ele>162.3</ele>
        <time>2024-03-03T09:14:47Z</time>
      </trkpt>
      <trkpt lat="48.99427" lon="0.12121">
        <ele>162.6</ele>
        <time>2024-03-03T09:14:48Z</time>
      </trkpt>
      <trkpt lat="48.99426" lon="0.12113">
        <ele>162.8</ele>
        <time>2024-03-03T09:14:49Z</time>
      </trkpt>
      <trkpt lat="48.99424" lon="0.12105">
        <ele>163.1</ele>
        <time>2024-03-03T09:14:50Z</time>
      </trkpt>
      <trkpt lat="48.99423" lon="0.12097">
        <ele>163.3</ele>
        <time>2024-03-03T09:14:51Z</time>
      </trkpt>
      <trkpt lat="48.99422" lon="0.1209">
        <ele>163.5</ele>
        <time>2024-03-03T09:14:52Z</time>
      </trkpt>
      <trkpt lat="48.99421" lon="0.12082">
        <ele>163.8</ele>
        <time>2024-03-03T09:14:53Z</time>
      </trkpt>
      <trkpt lat="48.9942" lon="0.12075">
        <ele>164</ele>
        <time>2024-03-03T09:14:54Z</time>
      </trkpt>
      <trkpt lat="48.99419" lon="0.12068">
        <ele>164.1</ele>
        <time>2024-03-03T09:14:55Z</time>
      </trkpt>
      <trkpt lat="48.99418" lon="0.12061">
        <ele>164.3</ele>
        <time>2024-03-03T09:14:56Z</time>
      </trkpt>
      <trkpt lat="48.99417" lon="0.12054">
        <ele>164.5</ele>
        <time>2024-03-03T09:14:57Z</time>
      </trkpt>
      <trkpt lat="48.99416" lon="0.12047">
        <ele>164.7</ele>
        <time>2024-03-03T09:14:58Z</time>
      </trkpt>
      <trkpt lat="48.99415" lon="0.12039">
        <ele>164.9</ele>
        <time>2024-03-03T09:14:59Z</time>
      </trkpt>
      <trkpt lat="48.99413" lon="0.12032">
        <ele>165.1</ele>
        <time>2024-03-03T09:15:00Z</time>
      </trkpt>
      <trkpt lat="48.99412" lon="0.12024">
        <ele>165.3</ele>
        <time>2024-03-03T09:15:01Z</time>
      </trkpt>
      <trkpt lat="48.9941" lon="0.12017">
        <ele>165.4</ele>
        <time>2024-03-03T09:15:02Z</time>
      </trkpt>
      <trkpt lat="48.99409" lon="0.1201">
        <ele>165.5</ele>
        <time>2024-03-03T09:15:03Z</time>
      </trkpt>
      <trkpt lat="48.99409" lon="0.12003">
        <ele>165.6</ele>
        <time>2024-03-03T09:15:04Z</time>
      </trkpt>
      <trkpt lat="48.99408" lon="0.11996">
        <ele>165.7</ele>
        <time>2024-03-03T09:15:05Z</time>
      </trkpt>
      <trkpt lat="48.99407" lon="0.11988">
        <ele>165.8</ele>
        <time>2024-03-03T09:15:06Z</time>
      </trkpt>
      <trkpt lat="48.99406" lon="0.1198">
        <ele>165.9</ele>
        <time>2024-03-03T09:15:07Z</time>
      </trkpt>
      <trkpt lat="48.99405" lon="0.11972">
        <ele>166.1</ele>
        <time>2024-03-03T09:15:08Z</time>
      </trkpt>
      <trkpt lat="48.99404" lon="0.11964">
        <ele>166.2</ele>
        <time>2024-03-03T09:15:09Z</time>
      </trkpt>
      <trkpt lat="48.99403" lon="0.11956">
        <ele>166.3</ele>
        <time>2024-03-03T09:15:10Z</time>
      </trkpt>
      <trkpt lat="48.99402" lon="0.11948">
        <ele>166.5</ele>
        <time>2024-03-03T09:15:11Z</time>
      </trkpt>
      <trkpt lat="48.99401" lon="0.1194">
        <ele>166.6</ele>
        <time>2024-03-03T09:15:12Z</time>
      </trkpt>
      <trkpt lat="48.994" lon="0.11933">
        <ele>166.7</ele>
        <time>2024-03-03T09:15:13Z</time>
      </trkpt>
      <trkpt lat="48.99399" lon="0.11925">
        <ele>166.9</ele>
        <time>2024-03-03T09:15:14Z</time>
      </trkpt>
      <trkpt lat="48.99397" lon="0.11918">
        <ele>167</ele>
        <time>2024-03-03T09:15:15Z</time>
      </trkpt>
      <trkpt lat="48.99396" lon="0.11909">
        <ele>167.2</ele>
        <time>2024-03-03T09:15:16Z</time>
      </trkpt>
      <trkpt lat="48.99394" lon="0.11902">
        <ele>167.3</ele>
        <time>2024-03-03T09:15:17Z</time>
      </trkpt>
      <trkpt lat="48.99393" lon="0.11895">
        <ele>167.4</ele>
        <time>2024-03-03T09:15:18Z</time>
      </trkpt>
      <trkpt lat="48.99393" lon="0.11887">
        <ele>167.6</ele>
        <time>2024-03-03T09:15:19Z</time>
      </trkpt>
      <trkpt lat="48.99392" lon="0.11879">
        <ele>167.7</ele>
        <time>2024-03-03T09:15:20Z</time>
      </trkpt>
      <trkpt lat="48.99391" lon="0.11871">
        <ele>167.9</ele>
        <time>2024-03-03T09:15:21Z</time>
      </trkpt>
      <trkpt lat="48.9939" lon="0.11864">
        <ele>168</ele>
        <time>2024-03-03T09:15:22Z</time>
      </trkpt>
      <trkpt lat="48.99389" lon="0.11856">
        <ele>168.2</ele>
        <time>2024-03-03T09:15:23Z</time>
      </trkpt>
      <trkpt lat="48.99387" lon="0.11848">
        <ele>168.3</ele>
        <time>2024-03-03T09:15:24Z</time>
      </trkpt>
      <trkpt lat="48.99386" lon="0.11841">
        <ele>168.5</ele>
        <time>2024-03-03T09:15:25Z</time>
      </trkpt>
      <trkpt lat="48.99385" lon="0.11833">
        <ele>168.7</ele>
        <time>2024-03-03T09:15:26Z</time>
      </trkpt>
      <trkpt lat="48.99384" lon="0.11826">
        <ele>168.8</ele>
        <time>2024-03-03T09:15:27Z</time>
      </trkpt>
      <trkpt lat="48.99383" lon="0.11818">
        <ele>169</ele>
        <time>2024-03-03T09:15:28Z</time>
      </trkpt>
      <trkpt lat="48.99382" lon="0.11809">
        <ele>169.2</ele>
        <time>2024-03-03T09:15:29Z</time>
      </trkpt>
      <trkpt lat="48.99381" lon="0.11801">
        <ele>169.4</ele>
        <time>2024-03-03T09:15:30Z</time>
      </trkpt>
      <trkpt lat="48.9938" lon="0.11793">
        <ele>169.7</ele>
        <time>2024-03-03T09:15:31Z</time>
      </trkpt>
      <trkpt lat="48.9938" lon="0.11785">
        <ele>169.9</ele>
        <time>2024-03-03T09:15:32Z</time>
      </trkpt>
      <trkpt lat="48.99379" lon="0.11778">
        <ele>170.1</ele>
        <time>2024-03-03T09:15:33Z</time>
      </trkpt>
      <trkpt lat="48.99379" lon="0.11771">
        <ele>170.3</ele>
        <time>2024-03-03T09:15:34Z</time>
      </trkpt>
      <trkpt lat="48.99379" lon="0.11764">
        <ele>170.5</ele>
        <time>2024-03-03T09:15:35Z</time>
      </trkpt>
      <trkpt lat="48.99379" lon="0.11757">
        <ele>170.8</ele>
        <time>2024-03-03T09:15:36Z</time>
      </trkpt>
      <trkpt lat="48.99378" lon="0.11751">
        <ele>171</ele>
        <time>2024-03-03T09:15:37Z</time>
      </trkpt>
      <trkpt lat="48.99379" lon="0.11744">
        <ele>171.3</ele>
        <time>2024-03-03T09:15:38Z</time>
      </trkpt>
      <trkpt lat="48.99378" lon="0.11737">
        <ele>171.5</ele>
        <time>2024-03-03T09:15:39Z</time>
      </trkpt>
      <trkpt lat="48.99378" lon="0.11731">
        <ele>171.7</ele>
        <time>2024-03-03T09:15:40Z</time>
      </trkpt>
      <trkpt lat="48.99379" lon="0.11724">
        <ele>172</ele>
        <time>2024-03-03T09:15:41Z</time>
      </trkpt>
      <trkpt lat="48.99379" lon="0.11718">
        <ele>172.2</ele>
        <time>2024-03-03T09:15:42Z</time>
      </trkpt>
      <trkpt lat="48.9938" lon="0.11711">
        <ele>172.4</ele>
        <time>2024-03-03T09:15:43Z</time>
      </trkpt>
      <trkpt lat="48.99381" lon="0.11705">
        <ele>172.7</ele>
        <time>2024-03-03T09:15:44Z</time>
      </trkpt>
      <trkpt lat="48.99382" lon="0.11699">
        <ele>172.9</ele>
        <time>2024-03-03T09:15:45Z</time>
      </trkpt>
      <trkpt lat="48.99383" lon="0.11692">
        <ele>173.2</ele>
        <time>2024-03-03T09:15:46Z</time>
      </trkpt>
      <trkpt lat="48.99385" lon="0.11686">
        <ele>173.5</ele>
        <time>2024-03-03T09:15:47Z</time>
      </trkpt>
      <trkpt lat="48.99386" lon="0.11679">
        <ele>173.7</ele>
        <time>2024-03-03T09:15:48Z</time>
      </trkpt>
      <trkpt lat="48.99387" lon="0.11672">
        <ele>174</ele>
        <time>2024-03-03T09:15:49Z</time>
      </trkpt>
      <trkpt lat="48.99387" lon="0.11665">
        <ele>174.2</ele>
        <time>2024-03-03T09:15:50Z</time>
      </trkpt>
      <trkpt lat="48.99388" lon="0.11658">
        <ele>174.4</ele>
        <time>2024-03-03T09:15:51Z</time>
      </trkpt>
      <trkpt lat="48.99389" lon="0.11651">
        <ele>174.7</ele>
        <time>2024-03-03T09:15:52Z</time>
      </trkpt>
      <trkpt lat="48.9939" lon="0.11644">
        <ele>174.9</ele>
        <time>2024-03-03T09:15:53Z</time>
      </trkpt>
      <trkpt lat="48.99391" lon="0.11637">
        <ele>175.1</ele>
        <time>2024-03-03T09:15:54Z</time>
      </trkpt>
      <trkpt lat="48.99393" lon="0.1163">
        <ele>175.4</ele>
        <time>2024-03-03T09:15:55Z</time>
      </trkpt>
      <trkpt lat="48.99394" lon="0.11624">
        <ele>175.6</ele>
        <time>2024-03-03T09:15:56Z</time>
      </trkpt>
      <trkpt lat="48.99396" lon="0.11618">
        <ele>175.8</ele>
        <time>2024-03-03T09:15:57Z</time>
      </trkpt>
      <trkpt lat="48.99398" lon="0.11612">
        <ele>176</ele>
        <time>2024-03-03T09:15:58Z</time>
      </trkpt>
      <trkpt lat="48.99401" lon="0.11605">
        <ele>176.2</ele>
        <time>2024-03-03T09:15:59Z</time>
      </trkpt>
      <trkpt lat="48.99403" lon="0.116">
        <ele>176.4</ele>
        <time>2024-03-03T09:16:00Z</time>
      </trkpt>
      <trkpt lat="48.99404" lon="0.11595">
        <ele>176.6</ele>
        <time>2024-03-03T09:16:01Z</time>
      </trkpt>
      <trkpt lat="48.99407" lon="0.1159">
        <ele>176.7</ele>
        <time>2024-03-03T09:16:02Z</time>
      </trkpt>
      <trkpt lat="48.99409" lon="0.11585">
        <ele>176.8</ele>
        <time>2024-03-03T09:16:03Z</time>
      </trkpt>
      <trkpt lat="48.99412" lon="0.1158">
        <ele>176.8</ele>
        <time>2024-03-03T09:16:04Z</time>
      </trkpt>
      <trkpt lat="48.99415" lon="0.11576">
        <ele>176.9</ele>
        <time>2024-03-03T09:16:05Z</time>
      </trkpt>
      <trkpt lat="48.99418" lon="0.11573">
        <ele>176.9</ele>
        <time>2024-03-03T09:16:06Z</time>
      </trkpt>
      <trkpt lat="48.99422" lon="0.11569">
        <ele>176.9</ele>
        <time>2024-03-03T09:16:07Z</time>
      </trkpt>
      <trkpt lat="48.99426" lon="0.11566">
        <ele>176.9</ele>
        <time>2024-03-03T09:16:08Z</time>
      </trkpt>
      <trkpt lat="48.99431" lon="0.11563">
        <ele>176.8</ele>
        <time>2024-03-03T09:16:09Z</time>
      </trkpt>
      <trkpt lat="48.99435" lon="0.1156">
        <ele>176.8</ele>
        <time>2024-03-03T09:16:10Z</time>
      </trkpt>
      <trkpt lat="48.9944" lon="0.11556">
        <ele>176.8</ele>
        <time>2024-03-03T09:16:11Z</time>
      </trkpt>
      <trkpt lat="48.99445" lon="0.11553">
        <ele>176.7</ele>
        <time>2024-03-03T09:16:12Z</time>
      </trkpt>
      <trkpt lat="48.9945" lon="0.11549">
        <ele>176.7</ele>
        <time>2024-03-03T09:16:13Z</time>
      </trkpt>
      <trkpt lat="48.99454" lon="0.11545">
        <ele>176.7</ele>
        <time>2024-03-03T09:16:14Z</time>
      </trkpt>
      <trkpt lat="48.99459" lon="0.11541">
        <ele>176.7</ele>
        <time>2024-03-03T09:16:15Z</time>
      </trkpt>
      <trkpt lat="48.99463" lon="0.11539">
        <ele>176.7</ele>
        <time>2024-03-03T09:16:16Z</time>
      </trkpt>
      <trkpt lat="48.99467" lon="0.11536">
        <ele>176.8</ele>
        <time>2024-03-03T09:16:17Z</time>
      </trkpt>
      <trkpt lat="48.9947" lon="0.11534">
        <ele>176.8</ele>
        <time>2024-03-03T09:16:18Z</time>
      </trkpt>
      <trkpt lat="48.99474" lon="0.11531">
        <ele>176.9</ele>
        <time>2024-03-03T09:16:19Z</time>
      </trkpt>
      <trkpt lat="48.99478" lon="0.11528">
        <ele>176.9</ele>
        <time>2024-03-03T09:16:20Z</time>
      </trkpt>
      <trkpt lat="48.99481" lon="0.11526">
        <ele>177</ele>
        <time>2024-03-03T09:16:21Z</time>
      </trkpt>
      <trkpt lat="48.99486" lon="0.11524">
        <ele>177</ele>
        <time>2024-03-03T09:16:22Z</time>
      </trkpt>
      <trkpt lat="48.9949" lon="0.11522">
        <ele>177.1</ele>
        <time>2024-03-03T09:16:23Z</time>
      </trkpt>
      <trkpt lat="48.99495" lon="0.11519">
        <ele>177.1</ele>
        <time>2024-03-03T09:16:24Z</time>
      </trkpt>
      <trkpt lat="48.99499" lon="0.11517">
        <ele>177.2</ele>
        <time>2024-03-03T09:16:25Z</time>
      </trkpt>
      <trkpt lat="48.99503" lon="0.11515">
        <ele>177.2</ele>
        <time>2024-03-03T09:16:26Z</time>
      </trkpt>
      <trkpt lat="48.99508" lon="0.11513">
        <ele>177.2</ele>
        <time>2024-03-03T09:16:27Z</time>
      </trkpt>
      <trkpt lat="48.99513" lon="0.11511">
        <ele>177.3</ele>
        <time>2024-03-03T09:16:28Z</time>
      </trkpt>
      <trkpt lat="48.99518" lon="0.11509">
        <ele>177.3</ele>
        <time>2024-03-03T09:16:29Z</time>
      </trkpt>
      <trkpt lat="48.99523" lon="0.11507">
        <ele>177.4</ele>
        <time>2024-03-03T09:16:30Z</time>
      </trkpt>
      <trkpt lat="48.99528" lon="0.11506">
        <ele>177.5</ele>
        <time>2024-03-03T09:16:31Z</time>
      </trkpt>
      <trkpt lat="48.99534" lon="0.11504">
        <ele>177.5</ele>
        <time>2024-03-03T09:16:32Z</time>
      </trkpt>
      <trkpt lat="48.99539" lon="0.11502">
        <ele>177.6</ele>
        <time>2024-03-03T09:16:33Z</time>
      </trkpt>
      <trkpt lat="48.99544" lon="0.115">
        <ele>177.6</ele>
        <time>2024-03-03T09:16:34Z</time>
      </trkpt>
      <trkpt lat="48.99549" lon="0.11499">
        <ele>177.7</ele>
        <time>2024-03-03T09:16:35Z</time>
      </trkpt>
      <trkpt lat="48.99554" lon="0.11497">
        <ele>177.7</ele>
        <time>2024-03-03T09:16:36Z</time>
      </trkpt>
      <trkpt lat="48.9956" lon="0.11495">
        <ele>177.8</ele>
        <time>2024-03-03T09:16:37Z</time>
      </trkpt>
      <trkpt lat="48.99565" lon="0.11493">
        <ele>177.8</ele>
        <time>2024-03-03T09:16:38Z</time>
      </trkpt>
      <trkpt lat="48.9957" lon="0.11492">
        <ele>177.9</ele>
        <time>2024-03-03T09:16:39Z</time>
      </trkpt>
      <trkpt lat="48.99575" lon="0.1149">
        <ele>177.9</ele>
        <time>2024-03-03T09:16:40Z</time>
      </trkpt>
      <trkpt lat="48.99581" lon="0.11489">
        <ele>178</ele>
        <time>2024-03-03T09:16:41Z</time>
      </trkpt>
      <trkpt lat="48.99586" lon="0.11487">
        <ele>178</ele>
        <time>2024-03-03T09:16:42Z</time>
      </trkpt>
      <trkpt lat="48.99592" lon="0.11485">
        <ele>178.1</ele>
        <time>2024-03-03T09:16:43Z</time>
      </trkpt>
      <trkpt lat="48.99597" lon="0.11483">
        <ele>178.2</ele>
        <time>2024-03-03T09:16:44Z</time>
      </trkpt>
      <trkpt lat="48.99603" lon="0.11481">
        <ele>178.2</ele>
        <time>2024-03-03T09:16:45Z</time>
      </trkpt>
      <trkpt lat="48.99608" lon="0.11479">
        <ele>178.3</ele>
        <time>2024-03-03T09:16:46Z</time>
      </trkpt>
      <trkpt lat="48.99614" lon="0.11477">
        <ele>178.3</ele>
        <time>2024-03-03T09:16:47Z</time>
      </trkpt>
      <trkpt lat="48.9962" lon="0.11475">
        <ele>178.4</ele>
        <time>2024-03-03T09:16:48Z</time>
      </trkpt>
      <trkpt lat="48.99626" lon="0.11474">
        <ele>178.4</ele>
        <time>2024-03-03T09:16:49Z</time>
      </trkpt>
      <trkpt lat="48.99632" lon="0.11473">
        <ele>178.5</ele>
        <time>2024-03-03T09:16:50Z</time>
      </trkpt>
      <trkpt lat="48.99638" lon="0.11472">
        <ele>178.5</ele>
        <time>2024-03-03T09:16:51Z</time>
      </trkpt>
      <trkpt lat="48.99644" lon="0.11471">
        <ele>178.6</ele>
        <time>2024-03-03T09:16:52Z</time>
      </trkpt>
      <trkpt lat="48.9965" lon="0.1147">
        <ele>178.6</ele>
        <time>2024-03-03T09:16:53Z</time>
      </trkpt>
      <trkpt lat="48.99656" lon="0.11469">
        <ele>178.7</ele>
        <time>2024-03-03T09:16:54Z</time>
      </trkpt>
      <trkpt lat="48.99661" lon="0.11468">
        <ele>178.7</ele>
        <time>2024-03-03T09:16:55Z</time>
      </trkpt>
      <trkpt lat="48.99667" lon="0.11467">
        <ele>178.7</ele>
        <time>2024-03-03T09:16:56Z</time>
      </trkpt>
      <trkpt lat="48.99673" lon="0.11467">
        <ele>178.8</ele>
        <time>2024-03-03T09:16:57Z</time>
      </trkpt>
      <trkpt lat="48.99679" lon="0.11466">
        <ele>178.8</ele>
        <time>2024-03-03T09:16:58Z</time>
      </trkpt>
      <trkpt lat="48.99684" lon="0.11465">
        <ele>178.8</ele>
        <time>2024-03-03T09:16:59Z</time>
      </trkpt>
      <trkpt lat="48.9969" lon="0.11464">
        <ele>178.8</ele>
        <time>2024-03-03T09:17:00Z</time>
      </trkpt>
      <trkpt lat="48.99696" lon="0.11464">
        <ele>178.9</ele>
        <time>2024-03-03T09:17:01Z</time>
      </trkpt>
      <trkpt lat="48.99701" lon="0.11464">
        <ele>178.9</ele>
        <time>2024-03-03T09:17:02Z</time>
      </trkpt>
      <trkpt lat="48.99707" lon="0.11464">
        <ele>178.9</ele>
        <time>2024-03-03T09:17:03Z</time>
      </trkpt>
      <trkpt lat="48.99712" lon="0.11463">
        <ele>178.9</ele>
        <time>2024-03-03T09:17:04Z</time>
      </trkpt>
      <trkpt lat="48.99718" lon="0.11462">
        <ele>178.9</ele>
        <time>2024-03-03T09:17:05Z</time>
      </trkpt>
      <trkpt lat="48.99723" lon="0.11462">
        <ele>179</ele>
        <time>2024-03-03T09:17:06Z</time>
      </trkpt>
      <trkpt lat="48.99729" lon="0.11462">
        <ele>179</ele>
        <time>2024-03-03T09:17:07Z</time>
      </trkpt>
      <trkpt lat="48.99735" lon="0.11462">
        <ele>179</ele>
        <time>2024-03-03T09:17:08Z</time>
      </trkpt>
      <trkpt lat="48.99741" lon="0.11461">
        <ele>179</ele>
        <time>2024-03-03T09:17:09Z</time>
      </trkpt>
      <trkpt lat="48.99748" lon="0.1146">
        <ele>179.1</ele>
        <time>2024-03-03T09:17:10Z</time>
      </trkpt>
      <trkpt lat="48.99754" lon="0.11459">
        <ele>179.1</ele>
        <time>2024-03-03T09:17:11Z</time>
      </trkpt>
      <trkpt lat="48.99761" lon="0.11458">
        <ele>179.2</ele>
        <time>2024-03-03T09:17:12Z</time>
      </trkpt>
      <trkpt lat="48.99767" lon="0.11457">
        <ele>179.2</ele>
        <time>2024-03-03T09:17:13Z</time>
      </trkpt>
      <trkpt lat="48.99773" lon="0.11456">
        <ele>179.3</ele>
        <time>2024-03-03T09:17:14Z</time>
      </trkpt>
      <trkpt lat="48.9978" lon="0.11455">
        <ele>179.3</ele>
        <time>2024-03-03T09:17:15Z</time>
      </trkpt>
      <trkpt lat="48.99787" lon="0.11454">
        <ele>179.3</ele>
        <time>2024-03-03T09:17:16Z</time>
      </trkpt>
      <trkpt lat="48.99793" lon="0.11453">
        <ele>179.4</ele>
        <time>2024-03-03T09:17:17Z</time>
      </trkpt>
      <trkpt lat="48.998" lon="0.11453">
        <ele>179.4</ele>
        <time>2024-03-03T09:17:18Z</time>
      </trkpt>
      <trkpt lat="48.99807" lon="0.11452">
        <ele>179.5</ele>
        <time>2024-03-03T09:17:19Z</time>
      </trkpt>
      <trkpt lat="48.99814" lon="0.11452">
        <ele>179.5</ele>
        <time>2024-03-03T09:17:20Z</time>
      </trkpt>
      <trkpt lat="48.99821" lon="0.11452">
        <ele>179.5</ele>
        <time>2024-03-03T09:17:21Z</time>
      </trkpt>
      <trkpt lat="48.99828" lon="0.11452">
        <ele>179.6</ele>
        <time>2024-03-03T09:17:22Z</time>
      </trkpt>
      <trkpt lat="48.99835" lon="0.11452">
        <ele>179.6</ele>
        <time>2024-03-03T09:17:23Z</time>
      </trkpt>
      <trkpt lat="48.99841" lon="0.11453">
        <ele>179.6</ele>
        <time>2024-03-03T09:17:24Z</time>
      </trkpt>
      <trkpt lat="48.99848" lon="0.11453">
        <ele>179.6</ele>
        <time>2024-03-03T09:17:25Z</time>
      </trkpt>
      <trkpt lat="48.99855" lon="0.11453">
        <ele>179.7</ele>
        <time>2024-03-03T09:17:26Z</time>
      </trkpt>
      <trkpt lat="48.99861" lon="0.11453">
        <ele>179.7</ele>
        <time>2024-03-03T09:17:27Z</time>
      </trkpt>
      <trkpt lat="48.99868" lon="0.11453">
        <ele>179.7</ele>
        <time>2024-03-03T09:17:28Z</time>
      </trkpt>
      <trkpt lat="48.99875" lon="0.11453">
        <ele>179.7</ele>
        <time>2024-03-03T09:17:29Z</time>
      </trkpt>
      <trkpt lat="48.99881" lon="0.11453">
        <ele>179.7</ele>
        <time>2024-03-03T09:17:30Z</time>
      </trkpt>
      <trkpt lat="48.99888" lon="0.11453">
        <ele>179.7</ele>
        <time>2024-03-03T09:17:31Z</time>
      </trkpt>
      <trkpt lat="48.99895" lon="0.11453">
        <ele>179.7</ele>
        <time>2024-03-03T09:17:32Z</time>
      </trkpt>
      <trkpt lat="48.99902" lon="0.11454">
        <ele>179.7</ele>
        <time>2024-03-03T09:17:33Z</time>
      </trkpt>
      <trkpt lat="48.99909" lon="0.11454">
        <ele>179.7</ele>
        <time>2024-03-03T09:17:34Z</time>
      </trkpt>
      <trkpt lat="48.99917" lon="0.11454">
        <ele>179.7</ele>
        <time>2024-03-03T09:17:35Z</time>
      </trkpt>
      <trkpt lat="48.99924" lon="0.11454">
        <ele>179.7</ele>
        <time>2024-03-03T09:17:36Z</time>
      </trkpt>
      <trkpt lat="48.9993" lon="0.11454">
        <ele>179.7</ele>
        <time>2024-03-03T09:17:37Z</time>
      </trkpt>
      <trkpt lat="48.99938" lon="0.11454">
        <ele>179.8</ele>
        <time>2024-03-03T09:17:38Z</time>
      </trkpt>
      <trkpt lat="48.99945" lon="0.11453">
        <ele>179.8</ele>
        <time>2024-03-03T09:17:39Z</time>
      </trkpt>
      <trkpt lat="48.99951" lon="0.11453">
        <ele>179.8</ele>
        <time>2024-03-03T09:17:40Z</time>
      </trkpt>
      <trkpt lat="48.99957" lon="0.11454">
        <ele>179.8</ele>
        <time>2024-03-03T09:17:41Z</time>
      </trkpt>
      <trkpt lat="48.99964" lon="0.11454">
        <ele>179.9</ele>
        <time>2024-03-03T09:17:42Z</time>
      </trkpt>
      <trkpt lat="48.99971" lon="0.11454">
        <ele>179.9</ele>
        <time>2024-03-03T09:17:43Z</time>
      </trkpt>
      <trkpt lat="48.99977" lon="0.11455">
        <ele>179.9</ele>
        <time>2024-03-03T09:17:44Z</time>
      </trkpt>
      <trkpt lat="48.99983" lon="0.11456">
        <ele>179.9</ele>
        <time>2024-03-03T09:17:45Z</time>
      </trkpt>
      <trkpt lat="48.9999" lon="0.11459">
        <ele>180</ele>
        <time>2024-03-03T09:17:46Z</time>
      </trkpt>
      <trkpt lat="48.99997" lon="0.11461">
        <ele>180</ele>
        <time>2024-03-03T09:17:47Z</time>
      </trkpt>
      <trkpt lat="49.00004" lon="0.11463">
        <ele>180</ele>
        <time>2024-03-03T09:17:48Z</time>
      </trkpt>
      <trkpt lat="49.00011" lon="0.11465">
        <ele>180</ele>
        <time>2024-03-03T09:17:49Z</time>
      </trkpt>
      <trkpt lat="49.00018" lon="0.11466">
        <ele>180</ele>
        <time>2024-03-03T09:17:50Z</time>
      </trkpt>
      <trkpt lat="49.00025" lon="0.11466">
        <ele>180</ele>
        <time>2024-03-03T09:17:51Z</time>
      </trkpt>
      <trkpt lat="49.00033" lon="0.11465">
        <ele>180</ele>
        <time>2024-03-03T09:17:52Z</time>
      </trkpt>
      <trkpt lat="49.0004" lon="0.11465">
        <ele>180</ele>
        <time>2024-03-03T09:17:53Z</time>
      </trkpt>
      <trkpt lat="49.00046" lon="0.11465">
        <ele>180</ele>
        <time>2024-03-03T09:17:54Z</time>
      </trkpt>
      <trkpt lat="49.00054" lon="0.11466">
        <ele>180</ele>
        <time>2024-03-03T09:17:55Z</time>
      </trkpt>
      <trkpt lat="49.00061" lon="0.11466">
        <ele>180</ele>
        <time>2024-03-03T09:17:56Z</time>
      </trkpt>
      <trkpt lat="49.00068" lon="0.11467">
        <ele>180</ele>
        <time>2024-03-03T09:17:57Z</time>
      </trkpt>
      <trkpt lat="49.00076" lon="0.11467">
        <ele>180</ele>
        <time>2024-03-03T09:17:58Z</time>
      </trkpt>
      <trkpt lat="49.00082" lon="0.11467">
        <ele>180</ele>
        <time>2024-03-03T09:17:59Z</time>
      </trkpt>
      <trkpt lat="49.0009" lon="0.11467">
        <ele>179.9</ele>
        <time>2024-03-03T09:18:00Z</time>
      </trkpt>
      <trkpt lat="49.00097" lon="0.11467">
        <ele>179.9</ele>
        <time>2024-03-03T09:18:01Z</time>
      </trkpt>
      <trkpt lat="49.00104" lon="0.11467">
        <ele>179.9</ele>
        <time>2024-03-03T09:18:02Z</time>
      </trkpt>
      <trkpt lat="49.00111" lon="0.11467">
        <ele>179.9</ele>
        <time>2024-03-03T09:18:03Z</time>
      </trkpt>
      <trkpt lat="49.00119" lon="0.11468">
        <ele>179.9</ele>
        <time>2024-03-03T09:18:04Z</time>
      </trkpt>
      <trkpt lat="49.00126" lon="0.1147">
        <ele>179.9</ele>
        <time>2024-03-03T09:18:05Z</time>
      </trkpt>
      <trkpt lat="49.00133" lon="0.11472">
        <ele>179.8</ele>
        <time>2024-03-03T09:18:06Z</time>
      </trkpt>
      <trkpt lat="49.0014" lon="0.11474">
        <ele>179.8</ele>
        <time>2024-03-03T09:18:07Z</time>
      </trkpt>
      <trkpt lat="49.00147" lon="0.11477">
        <ele>179.8</ele>
        <time>2024-03-03T09:18:08Z</time>
      </trkpt>
      <trkpt lat="49.00154" lon="0.1148">
        <ele>179.7</ele>
        <time>2024-03-03T09:18:09Z</time>
      </trkpt>
      <trkpt lat="49.0016" lon="0.11484">
        <ele>179.7</ele>
        <time>2024-03-03T09:18:10Z</time>
      </trkpt>
      <trkpt lat="49.00167" lon="0.11489">
        <ele>179.6</ele>
        <time>2024-03-03T09:18:11Z</time>
      </trkpt>
      <trkpt lat="49.00174" lon="0.11493">
        <ele>179.5</ele>
        <time>2024-03-03T09:18:12Z</time>
      </trkpt>
      <trkpt lat="49.00181" lon="0.11498">
        <ele>179.4</ele>
        <time>2024-03-03T09:18:13Z</time>
      </trkpt>
      <trkpt lat="49.00187" lon="0.11503">
        <ele>179.3</ele>
        <time>2024-03-03T09:18:14Z</time>
      </trkpt>
      <trkpt lat="49.00194" lon="0.11507">
        <ele>179.3</ele>
        <time>2024-03-03T09:18:15Z</time>
      </trkpt>
      <trkpt lat="49.00201" lon="0.1151">
        <ele>179.1</ele>
        <time>2024-03-03T09:18:16Z</time>
      </trkpt>
      <trkpt lat="49.00208" lon="0.11513">
        <ele>179</ele>
        <time>2024-03-03T09:18:17Z</time>
      </trkpt>
      <trkpt lat="49.00215" lon="0.11516">
        <ele>178.9</ele>
        <time>2024-03-03T09:18:18Z</time>
      </trkpt>
      <trkpt lat="49.00221" lon="0.11519">
        <ele>178.8</ele>
        <time>2024-03-03T09:18:19Z</time>
      </trkpt>
      <trkpt lat="49.00227" lon="0.11521">
        <ele>178.7</ele>
        <time>2024-03-03T09:18:20Z</time>
      </trkpt>
      <trkpt lat="49.00234" lon="0.11523">
        <ele>178.6</ele>
        <time>2024-03-03T09:18:21Z</time>
      </trkpt>
      <trkpt lat="49.0024" lon="0.11526">
        <ele>178.4</ele>
        <time>2024-03-03T09:18:22Z</time>
      </trkpt>
      <trkpt lat="49.00247" lon="0.11529">
        <ele>178.3</ele>
        <time>2024-03-03T09:18:23Z</time>
      </trkpt>
      <trkpt lat="49.00254" lon="0.11531">
        <ele>178.2</ele>
        <time>2024-03-03T09:18:24Z</time>
      </trkpt>
      <trkpt lat="49.00261" lon="0.11535">
        <ele>178</ele>
        <time>2024-03-03T09:18:25Z</time>
      </trkpt>
      <trkpt lat="49.00268" lon="0.11539">
        <ele>177.9</ele>
        <time>2024-03-03T09:18:26Z</time>
      </trkpt>
      <trkpt lat="49.00275" lon="0.11543">
        <ele>177.7</ele>
        <time>2024-03-03T09:18:27Z</time>
      </trkpt>
      <trkpt lat="49.00283" lon="0.11547">
        <ele>177.6</ele>
        <time>2024-03-03T09:18:28Z</time>
      </trkpt>
      <trkpt lat="49.00291" lon="0.11553">
        <ele>177.5</ele>
        <time>2024-03-03T09:18:29Z</time>
      </trkpt>
      <trkpt lat="49.00298" lon="0.11559">
        <ele>177.2</ele>
        <time>2024-03-03T09:18:30Z</time>
      </trkpt>
      <trkpt lat="49.00306" lon="0.11567">
        <ele>177</ele>
        <time>2024-03-03T09:18:31Z</time>
      </trkpt>
      <trkpt lat="49.00313" lon="0.11575">
        <ele>176.8</ele>
        <time>2024-03-03T09:18:32Z</time>
      </trkpt>
      <trkpt lat="49.0032" lon="0.11583">
        <ele>176.7</ele>
        <time>2024-03-03T09:18:33Z</time>
      </trkpt>
      <trkpt lat="49.00326" lon="0.11593">
        <ele>176.6</ele>
        <time>2024-03-03T09:18:34Z</time>
      </trkpt>
      <trkpt lat="49.00332" lon="0.11603">
        <ele>176.6</ele>
        <time>2024-03-03T09:18:35Z</time>
      </trkpt>
      <trkpt lat="49.00338" lon="0.11613">
        <ele>176.7</ele>
        <time>2024-03-03T09:18:36Z</time>
      </trkpt>
      <trkpt lat="49.00343" lon="0.11623">
        <ele>176.7</ele>
        <time>2024-03-03T09:18:37Z</time>
      </trkpt>
      <trkpt lat="49.00348" lon="0.11632">
        <ele>176.8</ele>
        <time>2024-03-03T09:18:38Z</time>
      </trkpt>
      <trkpt lat="49.00352" lon="0.1164">
        <ele>176.9</ele>
        <time>2024-03-03T09:18:39Z</time>
      </trkpt>
      <trkpt lat="49.00357" lon="0.11649">
        <ele>177</ele>
        <time>2024-03-03T09:18:40Z</time>
      </trkpt>
      <trkpt lat="49.00361" lon="0.11657">
        <ele>177</ele>
        <time>2024-03-03T09:18:41Z</time>
      </trkpt>
      <trkpt lat="49.00364" lon="0.11665">
        <ele>177.1</ele>
        <time>2024-03-03T09:18:42Z</time>
      </trkpt>
      <trkpt lat="49.00369" lon="0.11674">
        <ele>177.2</ele>
        <time>2024-03-03T09:18:43Z</time>
      </trkpt>
      <trkpt lat="49.00373" lon="0.11682">
        <ele>177.3</ele>
        <time>2024-03-03T09:18:44Z</time>
      </trkpt>
      <trkpt lat="49.00377" lon="0.1169">
        <ele>177.4</ele>
        <time>2024-03-03T09:18:45Z</time>
      </trkpt>
      <trkpt lat="49.00382" lon="0.11699">
        <ele>177.5</ele>
        <time>2024-03-03T09:18:46Z</time>
      </trkpt>
      <trkpt lat="49.00386" lon="0.11707">
        <ele>177.6</ele>
        <time>2024-03-03T09:18:47Z</time>
      </trkpt>
      <trkpt lat="49.0039" lon="0.11715">
        <ele>177.7</ele>
        <time>2024-03-03T09:18:48Z</time>
      </trkpt>
      <trkpt lat="49.00394" lon="0.11723">
        <ele>177.8</ele>
        <time>2024-03-03T09:18:49Z</time>
      </trkpt>
      <trkpt lat="49.00398" lon="0.11731">
        <ele>177.9</ele>
        <time>2024-03-03T09:18:50Z</time>
      </trkpt>
      <trkpt lat="49.00403" lon="0.11739">
        <ele>178.1</ele>
        <time>2024-03-03T09:18:51Z</time>
      </trkpt>
      <trkpt lat="49.00409" lon="0.11747">
        <ele>178.2</ele>
        <time>2024-03-03T09:18:52Z</time>
      </trkpt>
      <trkpt lat="49.00414" lon="0.11756">
        <ele>178.3</ele>
        <time>2024-03-03T09:18:53Z</time>
      </trkpt>
      <trkpt lat="49.0042" lon="0.11764">
        <ele>178.5</ele>
        <time>2024-03-03T09:18:54Z</time>
      </trkpt>
      <trkpt lat="49.00426" lon="0.11771">
        <ele>178.6</ele>
        <time>2024-03-03T09:18:55Z</time>
      </trkpt>
      <trkpt lat="49.00432" lon="0.11778">
        <ele>178.7</ele>
        <time>2024-03-03T09:18:56Z</time>
      </trkpt>
      <trkpt lat="49.00438" lon="0.11784">
        <ele>178.8</ele>
        <time>2024-03-03T09:18:57Z</time>
      </trkpt>
      <trkpt lat="49.00444" lon="0.1179">
        <ele>178.9</ele>
        <time>2024-03-03T09:18:58Z</time>
      </trkpt>
      <trkpt lat="49.00451" lon="0.11796">
        <ele>179.1</ele>
        <time>2024-03-03T09:18:59Z</time>
      </trkpt>
      <trkpt lat="49.00457" lon="0.11802">
        <ele>179.2</ele>
        <time>2024-03-03T09:19:00Z</time>
      </trkpt>
      <trkpt lat="49.00464" lon="0.11808">
        <ele>179.3</ele>
        <time>2024-03-03T09:19:01Z</time>
      </trkpt>
      <trkpt lat="49.0047" lon="0.11813">
        <ele>179.4</ele>
        <time>2024-03-03T09:19:02Z</time>
      </trkpt>
      <trkpt lat="49.00477" lon="0.11818">
        <ele>179.5</ele>
        <time>2024-03-03T09:19:03Z</time>
      </trkpt>
      <trkpt lat="49.00482" lon="0.11822">
        <ele>179.6</ele>
        <time>2024-03-03T09:19:04Z</time>
      </trkpt>
      <trkpt lat="49.00488" lon="0.11827">
        <ele>179.7</ele>
        <time>2024-03-03T09:19:05Z</time>
      </trkpt>
      <trkpt lat="49.00494" lon="0.11832">
        <ele>179.8</ele>
        <time>2024-03-03T09:19:06Z</time>
      </trkpt>
      <trkpt lat="49.005" lon="0.11837">
        <ele>179.9</ele>
        <time>2024-03-03T09:19:07Z</time>
      </trkpt>
      <trkpt lat="49.00506" lon="0.11842">
        <ele>180</ele>
        <time>2024-03-03T09:19:08Z</time>
      </trkpt>
      <trkpt lat="49.00512" lon="0.11847">
        <ele>180</ele>
        <time>2024-03-03T09:19:09Z</time>
      </trkpt>
      <trkpt lat="49.00518" lon="0.11852">
        <ele>180.1</ele>
        <time>2024-03-03T09:19:10Z</time>
      </trkpt>
      <trkpt lat="49.00525" lon="0.11857">
        <ele>180.1</ele>
        <time>2024-03-03T09:19:11Z</time>
      </trkpt>
      <trkpt lat="49.00531" lon="0.11861">
        <ele>180.2</ele>
        <time>2024-03-03T09:19:12Z</time>
      </trkpt>
      <trkpt lat="49.00537" lon="0.11866">
        <ele>180.2</ele>
        <time>2024-03-03T09:19:13Z</time>
      </trkpt>
      <trkpt lat="49.00542" lon="0.11871">
        <ele>180.2</ele>
        <time>2024-03-03T09:19:14Z</time>
      </trkpt>
      <trkpt lat="49.00548" lon="0.11875">
        <ele>180.3</ele>
        <time>2024-03-03T09:19:15Z</time>
      </trkpt>
      <trkpt lat="49.00554" lon="0.11879">
        <ele>180.3</ele>
        <time>2024-03-03T09:19:16Z</time>
      </trkpt>
      <trkpt lat="49.0056" lon="0.11883">
        <ele>180.4</ele>
        <time>2024-03-03T09:19:17Z</time>
      </trkpt>
      <trkpt lat="49.00566" lon="0.11887">
        <ele>180.4</ele>
        <time>2024-03-03T09:19:18Z</time>
      </trkpt>
      <trkpt lat="49.00572" lon="0.1189">
        <ele>180.4</ele>
        <time>2024-03-03T09:19:19Z</time>
      </trkpt>
      <trkpt lat="49.00577" lon="0.11893">
        <ele>180.5</ele>
        <time>2024-03-03T09:19:20Z</time>
      </trkpt>
      <trkpt lat="49.00583" lon="0.11897">
        <ele>180.5</ele>
        <time>2024-03-03T09:19:21Z</time>
      </trkpt>
      <trkpt lat="49.00588" lon="0.11901">
        <ele>180.6</ele>
        <time>2024-03-03T09:19:22Z</time>
      </trkpt>
      <trkpt lat="49.00594" lon="0.11905">
        <ele>180.6</ele>
        <time>2024-03-03T09:19:23Z</time>
      </trkpt>
      <trkpt lat="49.00601" lon="0.11909">
        <ele>180.6</ele>
        <time>2024-03-03T09:19:24Z</time>
      </trkpt>
      <trkpt lat="49.00607" lon="0.11915">
        <ele>180.6</ele>
        <time>2024-03-03T09:19:25Z</time>
      </trkpt>
      <trkpt lat="49.00613" lon="0.11921">
        <ele>180.6</ele>
        <time>2024-03-03T09:19:26Z</time>
      </trkpt>
      <trkpt lat="49.00619" lon="0.11927">
        <ele>180.6</ele>
        <time>2024-03-03T09:19:27Z</time>
      </trkpt>
      <trkpt lat="49.00624" lon="0.11933">
        <ele>180.6</ele>
        <time>2024-03-03T09:19:28Z</time>
      </trkpt>
      <trkpt lat="49.0063" lon="0.1194">
        <ele>180.6</ele>
        <time>2024-03-03T09:19:29Z</time>
      </trkpt>
      <trkpt lat="49.00635" lon="0.11946">
        <ele>180.6</ele>
        <time>2024-03-03T09:19:30Z</time>
      </trkpt>
      <trkpt lat="49.0064" lon="0.11953">
        <ele>180.6</ele>
        <time>2024-03-03T09:19:31Z</time>
      </trkpt>
      <trkpt lat="49.00646" lon="0.1196">
        <ele>180.6</ele>
        <time>2024-03-03T09:19:32Z</time>
      </trkpt>
      <trkpt lat="49.00651" lon="0.11967">
        <ele>180.6</ele>
        <time>2024-03-03T09:19:33Z</time>
      </trkpt>
      <trkpt lat="49.00656" lon="0.11974">
        <ele>180.6</ele>
        <time>2024-03-03T09:19:34Z</time>
      </trkpt>
      <trkpt lat="49.00661" lon="0.1198">
        <ele>180.6</ele>
        <time>2024-03-03T09:19:35Z</time>
      </trkpt>
      <trkpt lat="49.00666" lon="0.11986">
        <ele>180.6</ele>
        <time>2024-03-03T09:19:36Z</time>
      </trkpt>
      <trkpt lat="49.00672" lon="0.11993">
        <ele>180.6</ele>
        <time>2024-03-03T09:19:37Z</time>
      </trkpt>
      <trkpt lat="49.00677" lon="0.12">
        <ele>180.6</ele>
        <time>2024-03-03T09:19:38Z</time>
      </trkpt>
      <trkpt lat="49.00683" lon="0.12007">
        <ele>180.6</ele>
        <time>2024-03-03T09:19:39Z</time>
      </trkpt>
      <trkpt lat="49.00689" lon="0.12013">
        <ele>180.6</ele>
        <time>2024-03-03T09:19:40Z</time>
      </trkpt>
      <trkpt lat="49.00695" lon="0.1202">
        <ele>180.5</ele>
        <time>2024-03-03T09:19:41Z</time>
      </trkpt>
      <trkpt lat="49.00701" lon="0.12026">
        <ele>180.5</ele>
        <time>2024-03-03T09:19:42Z</time>
      </trkpt>
      <trkpt lat="49.00706" lon="0.12032">
        <ele>180.5</ele>
        <time>2024-03-03T09:19:43Z</time>
      </trkpt>
      <trkpt lat="49.00712" lon="0.12039">
        <ele>180.5</ele>
        <time>2024-03-03T09:19:44Z</time>
      </trkpt>
      <trkpt lat="49.00717" lon="0.12045">
        <ele>180.5</ele>
        <time>2024-03-03T09:19:45Z</time>
      </trkpt>
      <trkpt lat="49.00723" lon="0.12052">
        <ele>180.4</ele>
        <time>2024-03-03T09:19:46Z</time>
      </trkpt>
      <trkpt lat="49.0073" lon="0.12058">
        <ele>180.4</ele>
        <time>2024-03-03T09:19:47Z</time>
      </trkpt>
      <trkpt lat="49.00736" lon="0.12065">
        <ele>180.4</ele>
        <time>2024-03-03T09:19:48Z</time>
      </trkpt>
      <trkpt lat="49.00742" lon="0.12072">
        <ele>180.3</ele>
        <time>2024-03-03T09:19:49Z</time>
      </trkpt>
      <trkpt lat="49.00748" lon="0.12078">
        <ele>180.3</ele>
        <time>2024-03-03T09:19:50Z</time>
      </trkpt>
      <trkpt lat="49.00753" lon="0.12085">
        <ele>180.3</ele>
        <time>2024-03-03T09:19:51Z</time>
      </trkpt>
      <trkpt lat="49.00759" lon="0.12093">
        <ele>180.2</ele>
        <time>2024-03-03T09:19:52Z</time>
      </trkpt>
      <trkpt lat="49.00765" lon="0.121">
        <ele>180.2</ele>
        <time>2024-03-03T09:19:53Z</time>
      </trkpt>
      <trkpt lat="49.00771" lon="0.12106">
        <ele>180.2</ele>
        <time>2024-03-03T09:19:54Z</time>
      </trkpt>
      <trkpt lat="49.00777" lon="0.12113">
        <ele>180.2</ele>
        <time>2024-03-03T09:19:55Z</time>
      </trkpt>
      <trkpt lat="49.00784" lon="0.1212">
        <ele>180.2</ele>
        <time>2024-03-03T09:19:56Z</time>
      </trkpt>
      <trkpt lat="49.0079" lon="0.12127">
        <ele>180.2</ele>
        <time>2024-03-03T09:19:57Z</time>
      </trkpt>
      <trkpt lat="49.00795" lon="0.12133">
        <ele>180.2</ele>
        <time>2024-03-03T09:19:58Z</time>
      </trkpt>
      <trkpt lat="49.00801" lon="0.12139">
        <ele>180.2</ele>
        <time>2024-03-03T09:19:59Z</time>
      </trkpt>
      <trkpt lat="49.00806" lon="0.12146">
        <ele>180.3</ele>
        <time>2024-03-03T09:20:00Z</time>
      </trkpt>
      <trkpt lat="49.00813" lon="0.12152">
        <ele>180.2</ele>
        <time>2024-03-03T09:20:01Z</time>
      </trkpt>
      <trkpt lat="49.00819" lon="0.12158">
        <ele>180.2</ele>
        <time>2024-03-03T09:20:02Z</time>
      </trkpt>
      <trkpt lat="49.00828" lon="0.12165">
        <ele>180.2</ele>
        <time>2024-03-03T09:20:03Z</time>
      </trkpt>
      <trkpt lat="49.00835" lon="0.12171">
        <ele>180.1</ele>
        <time>2024-03-03T09:20:04Z</time>
      </trkpt>
      <trkpt lat="49.00842" lon="0.12176">
        <ele>180</ele>
        <time>2024-03-03T09:20:05Z</time>
      </trkpt>
      <trkpt lat="49.00849" lon="0.12181">
        <ele>180</ele>
        <time>2024-03-03T09:20:06Z</time>
      </trkpt>
      <trkpt lat="49.00856" lon="0.12186">
        <ele>180</ele>
        <time>2024-03-03T09:20:07Z</time>
      </trkpt>
      <trkpt lat="49.00863" lon="0.12191">
        <ele>180</ele>
        <time>2024-03-03T09:20:08Z</time>
      </trkpt>
      <trkpt lat="49.00869" lon="0.12196">
        <ele>180</ele>
        <time>2024-03-03T09:20:09Z</time>
      </trkpt>
      <trkpt lat="49.00876" lon="0.12203">
        <ele>180</ele>
        <time>2024-03-03T09:20:10Z</time>
      </trkpt>
      <trkpt lat="49.00882" lon="0.1221">
        <ele>179.9</ele>
        <time>2024-03-03T09:20:11Z</time>
      </trkpt>
      <trkpt lat="49.00888" lon="0.12217">
        <ele>179.8</ele>
        <time>2024-03-03T09:20:12Z</time>
      </trkpt>
      <trkpt lat="49.00894" lon="0.12224">
        <ele>179.8</ele>
        <time>2024-03-03T09:20:13Z</time>
      </trkpt>
      <trkpt lat="49.009" lon="0.12231">
        <ele>179.8</ele>
        <time>2024-03-03T09:20:14Z</time>
      </trkpt>
      <trkpt lat="49.00906" lon="0.12238">
        <ele>179.8</ele>
        <time>2024-03-03T09:20:15Z</time>
      </trkpt>
      <trkpt lat="49.00912" lon="0.12244">
        <ele>179.8</ele>
        <time>2024-03-03T09:20:16Z</time>
      </trkpt>
      <trkpt lat="49.00918" lon="0.12251">
        <ele>179.8</ele>
        <time>2024-03-03T09:20:17Z</time>
      </trkpt>
      <trkpt lat="49.00923" lon="0.12259">
        <ele>179.8</ele>
        <time>2024-03-03T09:20:18Z</time>
      </trkpt>
      <trkpt lat="49.00928" lon="0.12266">
        <ele>179.8</ele>
        <time>2024-03-03T09:20:19Z</time>
      </trkpt>
      <trkpt lat="49.00934" lon="0.12273">
        <ele>179.8</ele>
        <time>2024-03-03T09:20:20Z</time>
      </trkpt>
      <trkpt lat="49.00939" lon="0.1228">
        <ele>179.8</ele>
        <time>2024-03-03T09:20:21Z</time>
      </trkpt>
      <trkpt lat="49.00944" lon="0.12287">
        <ele>179.8</ele>
        <time>2024-03-03T09:20:22Z</time>
      </trkpt>
      <trkpt lat="49.0095" lon="0.12295">
        <ele>179.9</ele>
        <time>2024-03-03T09:20:23Z</time>
      </trkpt>
      <trkpt lat="49.00955" lon="0.12302">
        <ele>179.9</ele>
        <time>2024-03-03T09:20:24Z</time>
      </trkpt>
      <trkpt lat="49.0096" lon="0.1231">
        <ele>179.9</ele>
        <time>2024-03-03T09:20:25Z</time>
      </trkpt>
      <trkpt lat="49.00965" lon="0.12318">
        <ele>179.9</ele>
        <time>2024-03-03T09:20:26Z</time>
      </trkpt>
      <trkpt lat="49.0097" lon="0.12326">
        <ele>179.9</ele>
        <time>2024-03-03T09:20:27Z</time>
      </trkpt>
      <trkpt lat="49.00974" lon="0.12334">
        <ele>179.9</ele>
        <time>2024-03-03T09:20:28Z</time>
      </trkpt>
      <trkpt lat="49.00979" lon="0.12342">
        <ele>179.8</ele>
        <time>2024-03-03T09:20:29Z</time>
      </trkpt>
      <trkpt lat="49.00983" lon="0.1235">
        <ele>179.8</ele>
        <time>2024-03-03T09:20:30Z</time>
      </trkpt>
      <trkpt lat="49.00988" lon="0.12357">
        <ele>179.7</ele>
        <time>2024-03-03T09:20:31Z</time>
      </trkpt>
      <trkpt lat="49.00993" lon="0.12365">
        <ele>179.7</ele>
        <time>2024-03-03T09:20:32Z</time>
      </trkpt>
      <trkpt lat="49.00998" lon="0.12372">
        <ele>179.6</ele>
        <time>2024-03-03T09:20:33Z</time>
      </trkpt>
      <trkpt lat="49.01003" lon="0.1238">
        <ele>179.6</ele>
        <time>2024-03-03T09:20:34Z</time>
      </trkpt>
      <trkpt lat="49.01008" lon="0.12387">
        <ele>179.5</ele>
        <time>2024-03-03T09:20:35Z</time>
      </trkpt>
      <trkpt lat="49.01013" lon="0.12394">
        <ele>179.5</ele>
        <time>2024-03-03T09:20:36Z</time>
      </trkpt>
      <trkpt lat="49.01018" lon="0.12401">
        <ele>179.4</ele>
        <time>2024-03-03T09:20:37Z</time>
      </trkpt>
      <trkpt lat="49.01024" lon="0.12408">
        <ele>179.4</ele>
        <time>2024-03-03T09:20:38Z</time>
      </trkpt>
      <trkpt lat="49.01029" lon="0.12415">
        <ele>179.3</ele>
        <time>2024-03-03T09:20:39Z</time>
      </trkpt>
      <trkpt lat="49.01036" lon="0.12421">
        <ele>179.2</ele>
        <time>2024-03-03T09:20:40Z</time>
      </trkpt>
      <trkpt lat="49.01042" lon="0.12428">
        <ele>179.2</ele>
        <time>2024-03-03T09:20:41Z</time>
      </trkpt>
      <trkpt lat="49.01048" lon="0.12436">
        <ele>179.2</ele>
        <time>2024-03-03T09:20:42Z</time>
      </trkpt>
      <trkpt lat="49.01053" lon="0.12443">
        <ele>179.1</ele>
        <time>2024-03-03T09:20:43Z</time>
      </trkpt>
      <trkpt lat="49.0106" lon="0.1245">
        <ele>179.1</ele>
        <time>2024-03-03T09:20:44Z</time>
      </trkpt>
      <trkpt lat="49.01066" lon="0.12456">
        <ele>179</ele>
        <time>2024-03-03T09:20:45Z</time>
      </trkpt>
      <trkpt lat="49.01072" lon="0.12462">
        <ele>179</ele>
        <time>2024-03-03T09:20:46Z</time>
      </trkpt>
      <trkpt lat="49.01079" lon="0.12468">
        <ele>179</ele>
        <time>2024-03-03T09:20:47Z</time>
      </trkpt>
      <trkpt lat="49.01085" lon="0.12474">
        <ele>178.9</ele>
        <time>2024-03-03T09:20:48Z</time>
      </trkpt>
      <trkpt lat="49.01092" lon="0.12481">
        <ele>178.9</ele>
        <time>2024-03-03T09:20:49Z</time>
      </trkpt>
      <trkpt lat="49.01097" lon="0.12488">
        <ele>178.8</ele>
        <time>2024-03-03T09:20:50Z</time>
      </trkpt>
      <trkpt lat="49.01102" lon="0.12496">
        <ele>178.7</ele>
        <time>2024-03-03T09:20:51Z</time>
      </trkpt>
      <trkpt lat="49.01106" lon="0.12506">
        <ele>178.5</ele>
        <time>2024-03-03T09:20:52Z</time>
      </trkpt>
      <trkpt lat="49.01108" lon="0.12517">
        <ele>178.5</ele>
        <time>2024-03-03T09:20:53Z</time>
      </trkpt>
      <trkpt lat="49.0111" lon="0.12529">
        <ele>178.4</ele>
        <time>2024-03-03T09:20:54Z</time>
      </trkpt>
      <trkpt lat="49.0111" lon="0.12541">
        <ele>178.3</ele>
        <time>2024-03-03T09:20:55Z</time>
      </trkpt>
      <trkpt lat="49.01109" lon="0.12553">
        <ele>178.1</ele>
        <time>2024-03-03T09:20:56Z</time>
      </trkpt>
      <trkpt lat="49.01109" lon="0.12565">
        <ele>177.9</ele>
        <time>2024-03-03T09:20:57Z</time>
      </trkpt>
      <trkpt lat="49.01108" lon="0.12577">
        <ele>177.7</ele>
        <time>2024-03-03T09:20:58Z</time>
      </trkpt>
      <trkpt lat="49.01108" lon="0.12589">
        <ele>177.6</ele>
        <time>2024-03-03T09:20:59Z</time>
      </trkpt>
      <trkpt lat="49.01109" lon="0.126">
        <ele>177.4</ele>
        <time>2024-03-03T09:21:00Z</time>
      </trkpt>
      <trkpt lat="49.01109" lon="0.12612">
        <ele>177.3</ele>
        <time>2024-03-03T09:21:01Z</time>
      </trkpt>
      <trkpt lat="49.01109" lon="0.12623">
        <ele>177.1</ele>
        <time>2024-03-03T09:21:02Z</time>
      </trkpt>
      <trkpt lat="49.01109" lon="0.12635">
        <ele>176.9</ele>
        <time>2024-03-03T09:21:03Z</time>
      </trkpt>
      <trkpt lat="49.0111" lon="0.12646">
        <ele>176.8</ele>
        <time>2024-03-03T09:21:04Z</time>
      </trkpt>
      <trkpt lat="49.01111" lon="0.12657">
        <ele>176.6</ele>
        <time>2024-03-03T09:21:05Z</time>
      </trkpt>
      <trkpt lat="49.01112" lon="0.12668">
        <ele>176.4</ele>
        <time>2024-03-03T09:21:06Z</time>
      </trkpt>
      <trkpt lat="49.01113" lon="0.12679">
        <ele>176.2</ele>
        <time>2024-03-03T09:21:07Z</time>
      </trkpt>
      <trkpt lat="49.01114" lon="0.12691">
        <ele>175.9</ele>
        <time>2024-03-03T09:21:08Z</time>
      </trkpt>
      <trkpt lat="49.01115" lon="0.12704">
        <ele>175.7</ele>
        <time>2024-03-03T09:21:09Z</time>
      </trkpt>
      <trkpt lat="49.01115" lon="0.12716">
        <ele>175.5</ele>
        <time>2024-03-03T09:21:10Z</time>
      </trkpt>
      <trkpt lat="49.01117" lon="0.12728">
        <ele>175.3</ele>
        <time>2024-03-03T09:21:11Z</time>
      </trkpt>
      <trkpt lat="49.01119" lon="0.1274">
        <ele>175.2</ele>
        <time>2024-03-03T09:21:12Z</time>
      </trkpt>
      <trkpt lat="49.0112" lon="0.12752">
        <ele>175.1</ele>
        <time>2024-03-03T09:21:13Z</time>
      </trkpt>
      <trkpt lat="49.0112" lon="0.12764">
        <ele>175</ele>
        <time>2024-03-03T09:21:14Z</time>
      </trkpt>
      <trkpt lat="49.01121" lon="0.12776">
        <ele>174.8</ele>
        <time>2024-03-03T09:21:15Z</time>
      </trkpt>
      <trkpt lat="49.01122" lon="0.12788">
        <ele>174.8</ele>
        <time>2024-03-03T09:21:16Z</time>
      </trkpt>
      <trkpt lat="49.01123" lon="0.128">
        <ele>174.7</ele>
        <time>2024-03-03T09:21:17Z</time>
      </trkpt>
      <trkpt lat="49.01125" lon="0.12811">
        <ele>174.6</ele>
        <time>2024-03-03T09:21:18Z</time>
      </trkpt>
      <trkpt lat="49.01129" lon="0.12822">
        <ele>174.5</ele>
        <time>2024-03-03T09:21:19Z</time>
      </trkpt>
      <trkpt lat="49.01134" lon="0.12832">
        <ele>174.4</ele>
        <time>2024-03-03T09:21:20Z</time>
      </trkpt>
      <trkpt lat="49.01139" lon="0.1284">
        <ele>174.4</ele>
        <time>2024-03-03T09:21:21Z</time>
      </trkpt>
      <trkpt lat="49.01145" lon="0.12847">
        <ele>174.3</ele>
        <time>2024-03-03T09:21:22Z</time>
      </trkpt>
      <trkpt lat="49.01152" lon="0.12851">
        <ele>174.3</ele>
        <time>2024-03-03T09:21:23Z</time>
      </trkpt>
      <trkpt lat="49.01161" lon="0.12853">
        <ele>174.3</ele>
        <time>2024-03-03T09:21:24Z</time>
      </trkpt>
      <trkpt lat="49.01168" lon="0.12854">
        <ele>174.2</ele>
        <time>2024-03-03T09:21:25Z</time>
      </trkpt>
      <trkpt lat="49.01174" lon="0.12855">
        <ele>174.2</ele>
        <time>2024-03-03T09:21:26Z</time>
      </trkpt>
      <trkpt lat="49.01178" lon="0.12855">
        <ele>174.1</ele>
        <time>2024-03-03T09:21:27Z</time>
      </trkpt>
      <trkpt lat="49.01182" lon="0.12854">
        <ele>174.1</ele>
        <time>2024-03-03T09:21:28Z</time>
      </trkpt>
      <trkpt lat="49.01186" lon="0.12854">
        <ele>174.1</ele>
        <time>2024-03-03T09:21:29Z</time>
      </trkpt>
      <trkpt lat="49.01189" lon="0.12853">
        <ele>174</ele>
        <time>2024-03-03T09:21:30Z</time>
      </trkpt>
      <trkpt lat="49.01193" lon="0.12853">
        <ele>174</ele>
        <time>2024-03-03T09:21:31Z</time>
      </trkpt>
      <trkpt lat="49.01198" lon="0.12853">
        <ele>174</ele>
        <time>2024-03-03T09:21:32Z</time>
      </trkpt>
      <trkpt lat="49.01203" lon="0.12853">
        <ele>174</ele>
        <time>2024-03-03T09:21:33Z</time>
      </trkpt>
      <trkpt lat="49.01208" lon="0.12852">
        <ele>174</ele>
        <time>2024-03-03T09:21:34Z</time>
      </trkpt>
      <trkpt lat="49.01213" lon="0.12851">
        <ele>173.9</ele>
        <time>2024-03-03T09:21:35Z</time>
      </trkpt>
      <trkpt lat="49.01219" lon="0.1285">
        <ele>173.9</ele>
        <time>2024-03-03T09:21:36Z</time>
      </trkpt>
      <trkpt lat="49.01226" lon="0.12849">
        <ele>173.9</ele>
        <time>2024-03-03T09:21:37Z</time>
      </trkpt>
      <trkpt lat="49.01232" lon="0.12849">
        <ele>173.9</ele>
        <time>2024-03-03T09:21:38Z</time>
      </trkpt>
      <trkpt lat="49.01239" lon="0.12848">
        <ele>173.9</ele>
        <time>2024-03-03T09:21:39Z</time>
      </trkpt>
      <trkpt lat="49.01245" lon="0.12847">
        <ele>173.9</ele>
        <time>2024-03-03T09:21:40Z</time>
      </trkpt>
      <trkpt lat="49.01251" lon="0.12846">
        <ele>173.9</ele>
        <time>2024-03-03T09:21:41Z</time>
      </trkpt>
      <trkpt lat="49.01257" lon="0.12846">
        <ele>174</ele>
        <time>2024-03-03T09:21:42Z</time>
      </trkpt>
      <trkpt lat="49.01264" lon="0.12845">
        <ele>174</ele>
        <time>2024-03-03T09:21:43Z</time>
      </trkpt>
      <trkpt lat="49.01271" lon="0.12844">
        <ele>174</ele>
        <time>2024-03-03T09:21:44Z</time>
      </trkpt>
      <trkpt lat="49.01277" lon="0.12843">
        <ele>174</ele>
        <time>2024-03-03T09:21:45Z</time>
      </trkpt>
      <trkpt lat="49.01283" lon="0.12844">
        <ele>173.9</ele>
        <time>2024-03-03T09:21:46Z</time>
      </trkpt>
      <trkpt lat="49.01289" lon="0.12846">
        <ele>173.9</ele>
        <time>2024-03-03T09:21:47Z</time>
      </trkpt>
      <trkpt lat="49.01295" lon="0.12849">
        <ele>173.8</ele>
        <time>2024-03-03T09:21:48Z</time>
      </trkpt>
      <trkpt lat="49.01302" lon="0.12853">
        <ele>173.7</ele>
        <time>2024-03-03T09:21:49Z</time>
      </trkpt>
      <trkpt lat="49.01309" lon="0.12857">
        <ele>173.6</ele>
        <time>2024-03-03T09:21:50Z</time>
      </trkpt>
      <trkpt lat="49.01316" lon="0.12862">
        <ele>173.6</ele>
        <time>2024-03-03T09:21:51Z</time>
      </trkpt>
      <trkpt lat="49.01323" lon="0.12868">
        <ele>173.5</ele>
        <time>2024-03-03T09:21:52Z</time>
      </trkpt>
      <trkpt lat="49.01329" lon="0.12872">
        <ele>173.5</ele>
        <time>2024-03-03T09:21:53Z</time>
      </trkpt>
      <trkpt lat="49.01336" lon="0.12876">
        <ele>173.4</ele>
        <time>2024-03-03T09:21:54Z</time>
      </trkpt>
      <trkpt lat="49.01342" lon="0.12879">
        <ele>173.4</ele>
        <time>2024-03-03T09:21:55Z</time>
      </trkpt>
      <trkpt lat="49.01348" lon="0.12881">
        <ele>173.4</ele>
        <time>2024-03-03T09:21:56Z</time>
      </trkpt>
      <trkpt lat="49.01353" lon="0.12881">
        <ele>173.3</ele>
        <time>2024-03-03T09:21:57Z</time>
      </trkpt>
      <trkpt lat="49.01359" lon="0.1288">
        <ele>173.4</ele>
        <time>2024-03-03T09:21:58Z</time>
      </trkpt>
      <trkpt lat="49.01364" lon="0.12878">
        <ele>173.4</ele>
        <time>2024-03-03T09:21:59Z</time>
      </trkpt>
      <trkpt lat="49.0137" lon="0.12874">
        <ele>173.5</ele>
        <time>2024-03-03T09:22:00Z</time>
      </trkpt>
      <trkpt lat="49.01376" lon="0.1287">
        <ele>173.5</ele>
        <time>2024-03-03T09:22:01Z</time>
      </trkpt>
      <trkpt lat="49.01381" lon="0.12866">
        <ele>173.6</ele>
        <time>2024-03-03T09:22:02Z</time>
      </trkpt>
      <trkpt lat="49.01387" lon="0.12862">
        <ele>173.6</ele>
        <time>2024-03-03T09:22:03Z</time>
      </trkpt>
      <trkpt lat="49.01392" lon="0.12858">
        <ele>173.7</ele>
        <time>2024-03-03T09:22:04Z</time>
      </trkpt>
      <trkpt lat="49.01397" lon="0.12854">
        <ele>173.7</ele>
        <time>2024-03-03T09:22:05Z</time>
      </trkpt>
      <trkpt lat="49.01402" lon="0.12851">
        <ele>173.8</ele>
        <time>2024-03-03T09:22:06Z</time>
      </trkpt>
      <trkpt lat="49.01407" lon="0.12847">
        <ele>173.9</ele>
        <time>2024-03-03T09:22:07Z</time>
      </trkpt>
      <trkpt lat="49.01413" lon="0.12843">
        <ele>173.9</ele>
        <time>2024-03-03T09:22:08Z</time>
      </trkpt>
      <trkpt lat="49.01418" lon="0.12839">
        <ele>174</ele>
        <time>2024-03-03T09:22:09Z</time>
      </trkpt>
      <trkpt lat="49.01424" lon="0.12834">
        <ele>174.1</ele>
        <time>2024-03-03T09:22:10Z</time>
      </trkpt>
      <trkpt lat="49.0143" lon="0.12829">
        <ele>174.2</ele>
        <time>2024-03-03T09:22:11Z</time>
      </trkpt>
      <trkpt lat="49.01436" lon="0.12824">
        <ele>174.3</ele>
        <time>2024-03-03T09:22:12Z</time>
      </trkpt>
      <trkpt lat="49.01443" lon="0.12818">
        <ele>174.4</ele>
        <time>2024-03-03T09:22:13Z</time>
      </trkpt>
      <trkpt lat="49.01449" lon="0.12814">
        <ele>174.5</ele>
        <time>2024-03-03T09:22:14Z</time>
      </trkpt>
      <trkpt lat="49.01455" lon="0.12808">
        <ele>174.5</ele>
        <time>2024-03-03T09:22:15Z</time>
      </trkpt>
      <trkpt lat="49.01462" lon="0.12803">
        <ele>174.6</ele>
        <time>2024-03-03T09:22:16Z</time>
      </trkpt>
      <trkpt lat="49.01469" lon="0.12797">
        <ele>174.7</ele>
        <time>2024-03-03T09:22:17Z</time>
      </trkpt>
      <trkpt lat="49.01475" lon="0.12791">
        <ele>174.8</ele>
        <time>2024-03-03T09:22:18Z</time>
      </trkpt>
      <trkpt lat="49.01481" lon="0.12786">
        <ele>174.9</ele>
        <time>2024-03-03T09:22:19Z</time>
      </trkpt>
      <trkpt lat="49.01488" lon="0.12781">
        <ele>174.9</ele>
        <time>2024-03-03T09:22:20Z</time>
      </trkpt>
      <trkpt lat="49.01494" lon="0.12776">
        <ele>175</ele>
        <time>2024-03-03T09:22:21Z</time>
      </trkpt>
      <trkpt lat="49.01501" lon="0.12771">
        <ele>175</ele>
        <time>2024-03-03T09:22:22Z</time>
      </trkpt>
      <trkpt lat="49.01508" lon="0.12766">
        <ele>175.1</ele>
        <time>2024-03-03T09:22:23Z</time>
      </trkpt>
      <trkpt lat="49.01515" lon="0.12762">
        <ele>175.1</ele>
        <time>2024-03-03T09:22:24Z</time>
      </trkpt>
      <trkpt lat="49.01521" lon="0.12757">
        <ele>175.1</ele>
        <time>2024-03-03T09:22:25Z</time>
      </trkpt>
      <trkpt lat="49.01528" lon="0.12753">
        <ele>175.2</ele>
        <time>2024-03-03T09:22:26Z</time>
      </trkpt>
      <trkpt lat="49.01535" lon="0.12749">
        <ele>175.2</ele>
        <time>2024-03-03T09:22:27Z</time>
      </trkpt>
      <trkpt lat="49.01542" lon="0.12745">
        <ele>175.2</ele>
        <time>2024-03-03T09:22:28Z</time>
      </trkpt>
      <trkpt lat="49.01549" lon="0.12742">
        <ele>175.2</ele>
        <time>2024-03-03T09:22:29Z</time>
      </trkpt>
      <trkpt lat="49.01555" lon="0.12739">
        <ele>175.2</ele>
        <time>2024-03-03T09:22:30Z</time>
      </trkpt>
      <trkpt lat="49.01562" lon="0.12736">
        <ele>175.3</ele>
        <time>2024-03-03T09:22:31Z</time>
      </trkpt>
      <trkpt lat="49.01568" lon="0.12734">
        <ele>175.3</ele>
        <time>2024-03-03T09:22:32Z</time>
      </trkpt>
      <trkpt lat="49.01575" lon="0.12731">
        <ele>175.3</ele>
        <time>2024-03-03T09:22:33Z</time>
      </trkpt>
      <trkpt lat="49.01581" lon="0.12729">
        <ele>175.3</ele>
        <time>2024-03-03T09:22:34Z</time>
      </trkpt>
      <trkpt lat="49.01586" lon="0.12726">
        <ele>175.3</ele>
        <time>2024-03-03T09:22:35Z</time>
      </trkpt>
      <trkpt lat="49.01592" lon="0.12723">
        <ele>175.4</ele>
        <time>2024-03-03T09:22:36Z</time>
      </trkpt>
      <trkpt lat="49.01598" lon="0.1272">
        <ele>175.4</ele>
        <time>2024-03-03T09:22:37Z</time>
      </trkpt>
      <trkpt lat="49.01605" lon="0.12716">
        <ele>175.4</ele>
        <time>2024-03-03T09:22:38Z</time>
      </trkpt>
      <trkpt lat="49.01612" lon="0.12713">
        <ele>175.4</ele>
        <time>2024-03-03T09:22:39Z</time>
      </trkpt>
      <trkpt lat="49.01619" lon="0.1271">
        <ele>175.4</ele>
        <time>2024-03-03T09:22:40Z</time>
      </trkpt>
      <trkpt lat="49.01626" lon="0.12707">
        <ele>175.3</ele>
        <time>2024-03-03T09:22:41Z</time>
      </trkpt>
      <trkpt lat="49.01633" lon="0.12703">
        <ele>175.3</ele>
        <time>2024-03-03T09:22:42Z</time>
      </trkpt>
      <trkpt lat="49.01639" lon="0.12699">
        <ele>175.4</ele>
        <time>2024-03-03T09:22:43Z</time>
      </trkpt>
      <trkpt lat="49.01646" lon="0.12693">
        <ele>175.4</ele>
        <time>2024-03-03T09:22:44Z</time>
      </trkpt>
      <trkpt lat="49.01651" lon="0.12686">
        <ele>175.4</ele>
        <time>2024-03-03T09:22:45Z</time>
      </trkpt>
      <trkpt lat="49.01657" lon="0.12679">
        <ele>175.4</ele>
        <time>2024-03-03T09:22:46Z</time>
      </trkpt>
      <trkpt lat="49.01662" lon="0.1267">
        <ele>175.5</ele>
        <time>2024-03-03T09:22:47Z</time>
      </trkpt>
      <trkpt lat="49.01667" lon="0.12662">
        <ele>175.5</ele>
        <time>2024-03-03T09:22:48Z</time>
      </trkpt>
      <trkpt lat="49.01671" lon="0.12653">
        <ele>175.5</ele>
        <time>2024-03-03T09:22:49Z</time>
      </trkpt>
      <trkpt lat="49.01675" lon="0.12645">
        <ele>175.6</ele>
        <time>2024-03-03T09:22:50Z</time>
      </trkpt>
      <trkpt lat="49.01679" lon="0.12637">
        <ele>175.6</ele>
        <time>2024-03-03T09:22:51Z</time>
      </trkpt>
      <trkpt lat="49.01683" lon="0.12628">
        <ele>175.7</ele>
        <time>2024-03-03T09:22:52Z</time>
      </trkpt>
      <trkpt lat="49.01687" lon="0.12619">
        <ele>175.7</ele>
        <time>2024-03-03T09:22:53Z</time>
      </trkpt>
      <trkpt lat="49.01691" lon="0.1261">
        <ele>175.7</ele>
        <time>2024-03-03T09:22:54Z</time>
      </trkpt>
      <trkpt lat="49.01695" lon="0.12602">
        <ele>175.7</ele>
        <time>2024-03-03T09:22:55Z</time>
      </trkpt>
      <trkpt lat="49.01699" lon="0.12593">
        <ele>175.8</ele>
        <time>2024-03-03T09:22:56Z</time>
      </trkpt>
      <trkpt lat="49.01703" lon="0.12585">
        <ele>175.8</ele>
        <time>2024-03-03T09:22:57Z</time>
      </trkpt>
      <trkpt lat="49.01707" lon="0.12577">
        <ele>175.8</ele>
        <time>2024-03-03T09:22:58Z</time>
      </trkpt>
      <trkpt lat="49.01711" lon="0.12568">
        <ele>175.8</ele>
        <time>2024-03-03T09:22:59Z</time>
      </trkpt>
      <trkpt lat="49.01715" lon="0.12561">
        <ele>175.8</ele>
        <time>2024-03-03T09:23:00Z</time>
      </trkpt>
      <trkpt lat="49.0172" lon="0.12554">
        <ele>175.8</ele>
        <time>2024-03-03T09:23:01Z</time>
      </trkpt>
      <trkpt lat="49.01725" lon="0.12546">
        <ele>175.8</ele>
        <time>2024-03-03T09:23:02Z</time>
      </trkpt>
      <trkpt lat="49.0173" lon="0.12539">
        <ele>175.8</ele>
        <time>2024-03-03T09:23:03Z</time>
      </trkpt>
      <trkpt lat="49.01735" lon="0.12532">
        <ele>175.8</ele>
        <time>2024-03-03T09:23:04Z</time>
      </trkpt>
      <trkpt lat="49.0174" lon="0.12525">
        <ele>175.9</ele>
        <time>2024-03-03T09:23:05Z</time>
      </trkpt>
      <trkpt lat="49.01746" lon="0.12518">
        <ele>175.8</ele>
        <time>2024-03-03T09:23:06Z</time>
      </trkpt>
      <trkpt lat="49.01752" lon="0.1251">
        <ele>175.8</ele>
        <time>2024-03-03T09:23:07Z</time>
      </trkpt>
      <trkpt lat="49.01758" lon="0.12503">
        <ele>175.8</ele>
        <time>2024-03-03T09:23:08Z</time>
      </trkpt>
      <trkpt lat="49.01764" lon="0.12496">
        <ele>175.8</ele>
        <time>2024-03-03T09:23:09Z</time>
      </trkpt>
      <trkpt lat="49.0177" lon="0.12489">
        <ele>175.8</ele>
        <time>2024-03-03T09:23:10Z</time>
      </trkpt>
      <trkpt lat="49.01776" lon="0.12483">
        <ele>175.8</ele>
        <time>2024-03-03T09:23:11Z</time>
      </trkpt>
      <trkpt lat="49.01782" lon="0.12477">
        <ele>175.8</ele>
        <time>2024-03-03T09:23:12Z</time>
      </trkpt>
      <trkpt lat="49.01789" lon="0.12472">
        <ele>175.8</ele>
        <time>2024-03-03T09:23:13Z</time>
      </trkpt>
      <trkpt lat="49.01795" lon="0.12466">
        <ele>175.8</ele>
        <time>2024-03-03T09:23:14Z</time>
      </trkpt>
      <trkpt lat="49.01802" lon="0.1246">
        <ele>175.8</ele>
        <time>2024-03-03T09:23:15Z</time>
      </trkpt>
      <trkpt lat="49.01808" lon="0.12454">
        <ele>175.8</ele>
        <time>2024-03-03T09:23:16Z</time>
      </trkpt>
      <trkpt lat="49.01815" lon="0.12449">
        <ele>175.8</ele>
        <time>2024-03-03T09:23:17Z</time>
      </trkpt>
      <trkpt lat="49.01821" lon="0.12445">
        <ele>175.8</ele>
        <time>2024-03-03T09:23:18Z</time>
      </trkpt>
      <trkpt lat="49.01827" lon="0.1244">
        <ele>175.7</ele>
        <time>2024-03-03T09:23:19Z</time>
      </trkpt>
      <trkpt lat="49.01832" lon="0.12435">
        <ele>175.7</ele>
        <time>2024-03-03T09:23:20Z</time>
      </trkpt>
      <trkpt lat="49.01837" lon="0.1243">
        <ele>175.7</ele>
        <time>2024-03-03T09:23:21Z</time>
      </trkpt>
      <trkpt lat="49.01843" lon="0.12424">
        <ele>175.7</ele>
        <time>2024-03-03T09:23:22Z</time>
      </trkpt>
      <trkpt lat="49.01849" lon="0.12418">
        <ele>175.7</ele>
        <time>2024-03-03T09:23:23Z</time>
      </trkpt>
      <trkpt lat="49.01854" lon="0.12412">
        <ele>175.7</ele>
        <time>2024-03-03T09:23:24Z</time>
      </trkpt>
      <trkpt lat="49.01859" lon="0.12405">
        <ele>175.7</ele>
        <time>2024-03-03T09:23:25Z</time>
      </trkpt>
      <trkpt lat="49.01864" lon="0.12397">
        <ele>175.7</ele>
        <time>2024-03-03T09:23:26Z</time>
      </trkpt>
      <trkpt lat="49.01869" lon="0.12391">
        <ele>175.7</ele>
        <time>2024-03-03T09:23:27Z</time>
      </trkpt>
      <trkpt lat="49.01874" lon="0.12384">
        <ele>175.7</ele>
        <time>2024-03-03T09:23:28Z</time>
      </trkpt>
      <trkpt lat="49.01879" lon="0.12376">
        <ele>175.7</ele>
        <time>2024-03-03T09:23:29Z</time>
      </trkpt>
      <trkpt lat="49.01884" lon="0.12369">
        <ele>175.6</ele>
        <time>2024-03-03T09:23:30Z</time>
      </trkpt>
      <trkpt lat="49.01889" lon="0.12361">
        <ele>175.6</ele>
        <time>2024-03-03T09:23:31Z</time>
      </trkpt>
      <trkpt lat="49.01893" lon="0.12354">
        <ele>175.6</ele>
        <time>2024-03-03T09:23:32Z</time>
      </trkpt>
      <trkpt lat="49.01898" lon="0.12347">
        <ele>175.6</ele>
        <time>2024-03-03T09:23:33Z</time>
      </trkpt>
      <trkpt lat="49.01903" lon="0.1234">
        <ele>175.6</ele>
        <time>2024-03-03T09:23:34Z</time>
      </trkpt>
      <trkpt lat="49.01908" lon="0.12333">
        <ele>175.5</ele>
        <time>2024-03-03T09:23:35Z</time>
      </trkpt>
      <trkpt lat="49.01913" lon="0.12325">
        <ele>175.5</ele>
        <time>2024-03-03T09:23:36Z</time>
      </trkpt>
      <trkpt lat="49.01918" lon="0.12317">
        <ele>175.5</ele>
        <time>2024-03-03T09:23:37Z</time>
      </trkpt>
      <trkpt lat="49.01922" lon="0.12308">
        <ele>175.5</ele>
        <time>2024-03-03T09:23:38Z</time>
      </trkpt>
      <trkpt lat="49.01926" lon="0.12301">
        <ele>175.4</ele>
        <time>2024-03-03T09:23:39Z</time>
      </trkpt>
      <trkpt lat="49.01931" lon="0.12293">
        <ele>175.4</ele>
        <time>2024-03-03T09:23:40Z</time>
      </trkpt>
      <trkpt lat="49.01936" lon="0.12284">
        <ele>175.4</ele>
        <time>2024-03-03T09:23:41Z</time>
      </trkpt>
      <trkpt lat="49.01942" lon="0.12276">
        <ele>175.3</ele>
        <time>2024-03-03T09:23:42Z</time>
      </trkpt>
      <trkpt lat="49.01947" lon="0.12269">
        <ele>175.3</ele>
        <time>2024-03-03T09:23:43Z</time>
      </trkpt>
      <trkpt lat="49.01952" lon="0.12261">
        <ele>175.3</ele>
        <time>2024-03-03T09:23:44Z</time>
      </trkpt>
      <trkpt lat="49.01957" lon="0.12252">
        <ele>175.2</ele>
        <time>2024-03-03T09:23:45Z</time>
      </trkpt>
      <trkpt lat="49.01961" lon="0.12244">
        <ele>175.2</ele>
        <time>2024-03-03T09:23:46Z</time>
      </trkpt>
      <trkpt lat="49.01965" lon="0.12236">
        <ele>175.2</ele>
        <time>2024-03-03T09:23:47Z</time>
      </trkpt>
      <trkpt lat="49.01969" lon="0.12228">
        <ele>175.1</ele>
        <time>2024-03-03T09:23:48Z</time>
      </trkpt>
      <trkpt lat="49.01974" lon="0.12219">
        <ele>175</ele>
        <time>2024-03-03T09:23:49Z</time>
      </trkpt>
      <trkpt lat="49.01979" lon="0.12211">
        <ele>175</ele>
        <time>2024-03-03T09:23:50Z</time>
      </trkpt>
      <trkpt lat="49.01984" lon="0.12202">
        <ele>174.9</ele>
        <time>2024-03-03T09:23:51Z</time>
      </trkpt>
      <trkpt lat="49.01988" lon="0.12194">
        <ele>174.8</ele>
        <time>2024-03-03T09:23:52Z</time>
      </trkpt>
      <trkpt lat="49.01993" lon="0.12186">
        <ele>174.7</ele>
        <time>2024-03-03T09:23:53Z</time>
      </trkpt>
      <trkpt lat="49.01998" lon="0.12178">
        <ele>174.7</ele>
        <time>2024-03-03T09:23:54Z</time>
      </trkpt>
      <trkpt lat="49.02004" lon="0.12169">
        <ele>174.6</ele>
        <time>2024-03-03T09:23:55Z</time>
      </trkpt>
      <trkpt lat="49.02009" lon="0.1216">
        <ele>174.5</ele>
        <time>2024-03-03T09:23:56Z</time>
      </trkpt>
      <trkpt lat="49.02015" lon="0.12151">
        <ele>174.4</ele>
        <time>2024-03-03T09:23:57Z</time>
      </trkpt>
      <trkpt lat="49.02021" lon="0.12142">
        <ele>174.3</ele>
        <time>2024-03-03T09:23:58Z</time>
      </trkpt>
      <trkpt lat="49.02027" lon="0.12133">
        <ele>174.3</ele>
        <time>2024-03-03T09:23:59Z</time>
      </trkpt>
      <trkpt lat="49.02032" lon="0.12124">
        <ele>174.2</ele>
        <time>2024-03-03T09:24:00Z</time>
      </trkpt>
      <trkpt lat="49.02038" lon="0.12115">
        <ele>174.2</ele>
        <time>2024-03-03T09:24:01Z</time>
      </trkpt>
      <trkpt lat="49.02043" lon="0.12106">
        <ele>174.2</ele>
        <time>2024-03-03T09:24:02Z</time>
      </trkpt>
      <trkpt lat="49.02049" lon="0.12097">
        <ele>174.1</ele>
        <time>2024-03-03T09:24:03Z</time>
      </trkpt>
      <trkpt lat="49.02054" lon="0.12089">
        <ele>174.1</ele>
        <time>2024-03-03T09:24:04Z</time>
      </trkpt>
      <trkpt lat="49.0206" lon="0.12081">
        <ele>174</ele>
        <time>2024-03-03T09:24:05Z</time>
      </trkpt>
      <trkpt lat="49.02066" lon="0.12073">
        <ele>174</ele>
        <time>2024-03-03T09:24:06Z</time>
      </trkpt>
      <trkpt lat="49.02071" lon="0.12065">
        <ele>173.9</ele>
        <time>2024-03-03T09:24:07Z</time>
      </trkpt>
      <trkpt lat="49.02077" lon="0.12058">
        <ele>173.8</ele>
        <time>2024-03-03T09:24:08Z</time>
      </trkpt>
      <trkpt lat="49.02082" lon="0.12052">
        <ele>173.8</ele>
        <time>2024-03-03T09:24:09Z</time>
      </trkpt>
      <trkpt lat="49.02088" lon="0.12045">
        <ele>173.7</ele>
        <time>2024-03-03T09:24:10Z</time>
      </trkpt>
      <trkpt lat="49.02095" lon="0.12037">
        <ele>173.6</ele>
        <time>2024-03-03T09:24:11Z</time>
      </trkpt>
      <trkpt lat="49.02101" lon="0.12029">
        <ele>173.6</ele>
        <time>2024-03-03T09:24:12Z</time>
      </trkpt>
      <trkpt lat="49.02107" lon="0.12021">
        <ele>173.6</ele>
        <time>2024-03-03T09:24:13Z</time>
      </trkpt>
      <trkpt lat="49.02113" lon="0.12013">
        <ele>173.6</ele>
        <time>2024-03-03T09:24:14Z</time>
      </trkpt>
      <trkpt lat="49.02118" lon="0.12006">
        <ele>173.6</ele>
        <time>2024-03-03T09:24:15Z</time>
      </trkpt>
      <trkpt lat="49.02124" lon="0.12">
        <ele>173.7</ele>
        <time>2024-03-03T09:24:16Z</time>
      </trkpt>
      <trkpt lat="49.02129" lon="0.11993">
        <ele>173.7</ele>
        <time>2024-03-03T09:24:17Z</time>
      </trkpt>
      <trkpt lat="49.02135" lon="0.11986">
        <ele>173.8</ele>
        <time>2024-03-03T09:24:18Z</time>
      </trkpt>
      <trkpt lat="49.0214" lon="0.1198">
        <ele>173.8</ele>
        <time>2024-03-03T09:24:19Z</time>
      </trkpt>
      <trkpt lat="49.02146" lon="0.11973">
        <ele>173.8</ele>
        <time>2024-03-03T09:24:20Z</time>
      </trkpt>
      <trkpt lat="49.02152" lon="0.11967">
        <ele>173.9</ele>
        <time>2024-03-03T09:24:21Z</time>
      </trkpt>
      <trkpt lat="49.02158" lon="0.1196">
        <ele>173.9</ele>
        <time>2024-03-03T09:24:22Z</time>
      </trkpt>
      <trkpt lat="49.02163" lon="0.11954">
        <ele>174</ele>
        <time>2024-03-03T09:24:23Z</time>
      </trkpt>
      <trkpt lat="49.02168" lon="0.11948">
        <ele>174</ele>
        <time>2024-03-03T09:24:24Z</time>
      </trkpt>
      <trkpt lat="49.02174" lon="0.11941">
        <ele>174</ele>
        <time>2024-03-03T09:24:25Z</time>
      </trkpt>
      <trkpt lat="49.02179" lon="0.11935">
        <ele>174</ele>
        <time>2024-03-03T09:24:26Z</time>
      </trkpt>
      <trkpt lat="49.02184" lon="0.11929">
        <ele>174.1</ele>
        <time>2024-03-03T09:24:27Z</time>
      </trkpt>
      <trkpt lat="49.02189" lon="0.11922">
        <ele>174.1</ele>
        <time>2024-03-03T09:24:28Z</time>
      </trkpt>
      <trkpt lat="49.02194" lon="0.11915">
        <ele>174.2</ele>
        <time>2024-03-03T09:24:29Z</time>
      </trkpt>
      <trkpt lat="49.02198" lon="0.11907">
        <ele>174.3</ele>
        <time>2024-03-03T09:24:30Z</time>
      </trkpt>
      <trkpt lat="49.02202" lon="0.11901">
        <ele>174.3</ele>
        <time>2024-03-03T09:24:31Z</time>
      </trkpt>
      <trkpt lat="49.02206" lon="0.11893">
        <ele>174.3</ele>
        <time>2024-03-03T09:24:32Z</time>
      </trkpt>
      <trkpt lat="49.02211" lon="0.11886">
        <ele>174.3</ele>
        <time>2024-03-03T09:24:33Z</time>
      </trkpt>
      <trkpt lat="49.02216" lon="0.11877">
        <ele>174.3</ele>
        <time>2024-03-03T09:24:34Z</time>
      </trkpt>
      <trkpt lat="49.0222" lon="0.11869">
        <ele>174.3</ele>
        <time>2024-03-03T09:24:35Z</time>
      </trkpt>
      <trkpt lat="49.02224" lon="0.11859">
        <ele>174.3</ele>
        <time>2024-03-03T09:24:36Z</time>
      </trkpt>
      <trkpt lat="49.02227" lon="0.11849">
        <ele>174.3</ele>
        <time>2024-03-03T09:24:37Z</time>
      </trkpt>
      <trkpt lat="49.0223" lon="0.11838">
        <ele>174.3</ele>
        <time>2024-03-03T09:24:38Z</time>
      </trkpt>
      <trkpt lat="49.02233" lon="0.11827">
        <ele>174.3</ele>
        <time>2024-03-03T09:24:39Z</time>
      </trkpt>
      <trkpt lat="49.02235" lon="0.11816">
        <ele>174.3</ele>
        <time>2024-03-03T09:24:40Z</time>
      </trkpt>
      <trkpt lat="49.02239" lon="0.11805">
        <ele>174.3</ele>
        <time>2024-03-03T09:24:41Z</time>
      </trkpt>
      <trkpt lat="49.02241" lon="0.11793">
        <ele>174.3</ele>
        <time>2024-03-03T09:24:42Z</time>
      </trkpt>
      <trkpt lat="49.02244" lon="0.11783">
        <ele>174.3</ele>
        <time>2024-03-03T09:24:43Z</time>
      </trkpt>
      <trkpt lat="49.02247" lon="0.11772">
        <ele>174.3</ele>
        <time>2024-03-03T09:24:44Z</time>
      </trkpt>
      <trkpt lat="49.0225" lon="0.11762">
        <ele>174.3</ele>
        <time>2024-03-03T09:24:45Z</time>
      </trkpt>
      <trkpt lat="49.02254" lon="0.11753">
        <ele>174.3</ele>
        <time>2024-03-03T09:24:46Z</time>
      </trkpt>
      <trkpt lat="49.02258" lon="0.11744">
        <ele>174.3</ele>
        <time>2024-03-03T09:24:47Z</time>
      </trkpt>
      <trkpt lat="49.02262" lon="0.11735">
        <ele>174.3</ele>
        <time>2024-03-03T09:24:48Z</time>
      </trkpt>
      <trkpt lat="49.02266" lon="0.11728">
        <ele>174.3</ele>
        <time>2024-03-03T09:24:49Z</time>
      </trkpt>
      <trkpt lat="49.0227" lon="0.1172">
        <ele>174.3</ele>
        <time>2024-03-03T09:24:50Z</time>
      </trkpt>
      <trkpt lat="49.02274" lon="0.11712">
        <ele>174.2</ele>
        <time>2024-03-03T09:24:51Z</time>
      </trkpt>
      <trkpt lat="49.02279" lon="0.11704">
        <ele>174.2</ele>
        <time>2024-03-03T09:24:52Z</time>
      </trkpt>
      <trkpt lat="49.02284" lon="0.11697">
        <ele>174.2</ele>
        <time>2024-03-03T09:24:53Z</time>
      </trkpt>
      <trkpt lat="49.02289" lon="0.1169">
        <ele>174.2</ele>
        <time>2024-03-03T09:24:54Z</time>
      </trkpt>
      <trkpt lat="49.02293" lon="0.11682">
        <ele>174.1</ele>
        <time>2024-03-03T09:24:55Z</time>
      </trkpt>
      <trkpt lat="49.02298" lon="0.11675">
        <ele>174.1</ele>
        <time>2024-03-03T09:24:56Z</time>
      </trkpt>
      <trkpt lat="49.02303" lon="0.11667">
        <ele>174</ele>
        <time>2024-03-03T09:24:57Z</time>
      </trkpt>
      <trkpt lat="49.02309" lon="0.11659">
        <ele>173.9</ele>
        <time>2024-03-03T09:24:58Z</time>
      </trkpt>
      <trkpt lat="49.02314" lon="0.1165">
        <ele>173.8</ele>
        <time>2024-03-03T09:24:59Z</time>
      </trkpt>
      <trkpt lat="49.02319" lon="0.11642">
        <ele>173.7</ele>
        <time>2024-03-03T09:25:00Z</time>
      </trkpt>
      <trkpt lat="49.02324" lon="0.11632">
        <ele>173.6</ele>
        <time>2024-03-03T09:25:01Z</time>
      </trkpt>
      <trkpt lat="49.02329" lon="0.11622">
        <ele>173.5</ele>
        <time>2024-03-03T09:25:02Z</time>
      </trkpt>
      <trkpt lat="49.02334" lon="0.11613">
        <ele>173.4</ele>
        <time>2024-03-03T09:25:03Z</time>
      </trkpt>
      <trkpt lat="49.02339" lon="0.11604">
        <ele>173.3</ele>
        <time>2024-03-03T09:25:04Z</time>
      </trkpt>
      <trkpt lat="49.02344" lon="0.11596">
        <ele>173.3</ele>
        <time>2024-03-03T09:25:05Z</time>
      </trkpt>
      <trkpt lat="49.02349" lon="0.11588">
        <ele>173.2</ele>
        <time>2024-03-03T09:25:06Z</time>
      </trkpt>
      <trkpt lat="49.02354" lon="0.1158">
        <ele>173.1</ele>
        <time>2024-03-03T09:25:07Z</time>
      </trkpt>
      <trkpt lat="49.02359" lon="0.11572">
        <ele>173.1</ele>
        <time>2024-03-03T09:25:08Z</time>
      </trkpt>
      <trkpt lat="49.02364" lon="0.11563">
        <ele>173</ele>
        <time>2024-03-03T09:25:09Z</time>
      </trkpt>
      <trkpt lat="49.02368" lon="0.11553">
        <ele>172.9</ele>
        <time>2024-03-03T09:25:10Z</time>
      </trkpt>
      <trkpt lat="49.02374" lon="0.11544">
        <ele>172.9</ele>
        <time>2024-03-03T09:25:11Z</time>
      </trkpt>
      <trkpt lat="49.02379" lon="0.11535">
        <ele>172.8</ele>
        <time>2024-03-03T09:25:12Z</time>
      </trkpt>
      <trkpt lat="49.02385" lon="0.11525">
        <ele>172.7</ele>
        <time>2024-03-03T09:25:13Z</time>
      </trkpt>
      <trkpt lat="49.0239" lon="0.11515">
        <ele>172.6</ele>
        <time>2024-03-03T09:25:14Z</time>
      </trkpt>
      <trkpt lat="49.02395" lon="0.11506">
        <ele>172.5</ele>
        <time>2024-03-03T09:25:15Z</time>
      </trkpt>
      <trkpt lat="49.024" lon="0.11498">
        <ele>172.4</ele>
        <time>2024-03-03T09:25:16Z</time>
      </trkpt>
      <trkpt lat="49.02404" lon="0.11489">
        <ele>172.3</ele>
        <time>2024-03-03T09:25:17Z</time>
      </trkpt>
      <trkpt lat="49.02408" lon="0.11481">
        <ele>172.2</ele>
        <time>2024-03-03T09:25:18Z</time>
      </trkpt>
      <trkpt lat="49.02412" lon="0.11474">
        <ele>172.2</ele>
        <time>2024-03-03T09:25:19Z</time>
      </trkpt>
      <trkpt lat="49.02415" lon="0.11467">
        <ele>172.1</ele>
        <time>2024-03-03T09:25:20Z</time>
      </trkpt>
      <trkpt lat="49.02419" lon="0.11461">
        <ele>172.1</ele>
        <time>2024-03-03T09:25:21Z</time>
      </trkpt>
      <trkpt lat="49.02423" lon="0.11453">
        <ele>172</ele>
        <time>2024-03-03T09:25:22Z</time>
      </trkpt>
      <trkpt lat="49.02426" lon="0.11444">
        <ele>171.9</ele>
        <time>2024-03-03T09:25:23Z</time>
      </trkpt>
      <trkpt lat="49.02429" lon="0.11436">
        <ele>171.9</ele>
        <time>2024-03-03T09:25:24Z</time>
      </trkpt>
      <trkpt lat="49.02432" lon="0.11425">
        <ele>171.8</ele>
        <time>2024-03-03T09:25:25Z</time>
      </trkpt>
      <trkpt lat="49.02435" lon="0.11416">
        <ele>171.7</ele>
        <time>2024-03-03T09:25:26Z</time>
      </trkpt>
      <trkpt lat="49.02439" lon="0.11406">
        <ele>171.7</ele>
        <time>2024-03-03T09:25:27Z</time>
      </trkpt>
      <trkpt lat="49.02442" lon="0.11397">
        <ele>171.6</ele>
        <time>2024-03-03T09:25:28Z</time>
      </trkpt>
      <trkpt lat="49.02445" lon="0.11388">
        <ele>171.5</ele>
        <time>2024-03-03T09:25:29Z</time>
      </trkpt>
      <trkpt lat="49.02449" lon="0.11379">
        <ele>171.5</ele>
        <time>2024-03-03T09:25:30Z</time>
      </trkpt>
      <trkpt lat="49.02452" lon="0.11371">
        <ele>171.4</ele>
        <time>2024-03-03T09:25:31Z</time>
      </trkpt>
      <trkpt lat="49.02456" lon="0.11362">
        <ele>171.4</ele>
        <time>2024-03-03T09:25:32Z</time>
      </trkpt>
      <trkpt lat="49.0246" lon="0.11354">
        <ele>171.4</ele>
        <time>2024-03-03T09:25:33Z</time>
      </trkpt>
      <trkpt lat="49.02463" lon="0.11346">
        <ele>171.4</ele>
        <time>2024-03-03T09:25:34Z</time>
      </trkpt>
      <trkpt lat="49.02467" lon="0.11336">
        <ele>171.3</ele>
        <time>2024-03-03T09:25:35Z</time>
      </trkpt>
      <trkpt lat="49.02469" lon="0.11327">
        <ele>171.3</ele>
        <time>2024-03-03T09:25:36Z</time>
      </trkpt>
      <trkpt lat="49.02471" lon="0.11318">
        <ele>171.3</ele>
        <time>2024-03-03T09:25:37Z</time>
      </trkpt>
      <trkpt lat="49.02472" lon="0.11308">
        <ele>171.3</ele>
        <time>2024-03-03T09:25:38Z</time>
      </trkpt>
      <trkpt lat="49.02473" lon="0.11299">
        <ele>171.4</ele>
        <time>2024-03-03T09:25:39Z</time>
      </trkpt>
      <trkpt lat="49.02475" lon="0.1129">
        <ele>171.3</ele>
        <time>2024-03-03T09:25:40Z</time>
      </trkpt>
      <trkpt lat="49.02477" lon="0.1128">
        <ele>171.3</ele>
        <time>2024-03-03T09:25:41Z</time>
      </trkpt>
      <trkpt lat="49.0248" lon="0.11271">
        <ele>171.3</ele>
        <time>2024-03-03T09:25:42Z</time>
      </trkpt>
      <trkpt lat="49.02482" lon="0.11262">
        <ele>171.3</ele>
        <time>2024-03-03T09:25:43Z</time>
      </trkpt>
      <trkpt lat="49.02483" lon="0.11252">
        <ele>171.3</ele>
        <time>2024-03-03T09:25:44Z</time>
      </trkpt>
      <trkpt lat="49.02485" lon="0.11242">
        <ele>171.3</ele>
        <time>2024-03-03T09:25:45Z</time>
      </trkpt>
      <trkpt lat="49.02485" lon="0.11231">
        <ele>171.3</ele>
        <time>2024-03-03T09:25:46Z</time>
      </trkpt>
      <trkpt lat="49.02486" lon="0.11222">
        <ele>171.3</ele>
        <time>2024-03-03T09:25:47Z</time>
      </trkpt>
      <trkpt lat="49.02488" lon="0.11212">
        <ele>171.3</ele>
        <time>2024-03-03T09:25:48Z</time>
      </trkpt>
      <trkpt lat="49.0249" lon="0.11203">
        <ele>171.2</ele>
        <time>2024-03-03T09:25:49Z</time>
      </trkpt>
      <trkpt lat="49.02492" lon="0.11193">
        <ele>171.2</ele>
        <time>2024-03-03T09:25:50Z</time>
      </trkpt>
      <trkpt lat="49.02493" lon="0.11183">
        <ele>171.1</ele>
        <time>2024-03-03T09:25:51Z</time>
      </trkpt>
      <trkpt lat="49.02495" lon="0.11172">
        <ele>171.1</ele>
        <time>2024-03-03T09:25:52Z</time>
      </trkpt>
      <trkpt lat="49.02496" lon="0.11161">
        <ele>171.1</ele>
        <time>2024-03-03T09:25:53Z</time>
      </trkpt>
      <trkpt lat="49.02497" lon="0.1115">
        <ele>171</ele>
        <time>2024-03-03T09:25:54Z</time>
      </trkpt>
      <trkpt lat="49.02497" lon="0.11139">
        <ele>171</ele>
        <time>2024-03-03T09:25:55Z</time>
      </trkpt>
      <trkpt lat="49.02497" lon="0.11127">
        <ele>170.9</ele>
        <time>2024-03-03T09:25:56Z</time>
      </trkpt>
      <trkpt lat="49.02498" lon="0.11114">
        <ele>170.9</ele>
        <time>2024-03-03T09:25:57Z</time>
      </trkpt>
      <trkpt lat="49.02499" lon="0.11102">
        <ele>170.8</ele>
        <time>2024-03-03T09:25:58Z</time>
      </trkpt>
      <trkpt lat="49.02501" lon="0.1109">
        <ele>170.7</ele>
        <time>2024-03-03T09:25:59Z</time>
      </trkpt>
      <trkpt lat="49.02503" lon="0.11076">
        <ele>170.6</ele>
        <time>2024-03-03T09:26:00Z</time>
      </trkpt>
      <trkpt lat="49.02504" lon="0.11062">
        <ele>170.4</ele>
        <time>2024-03-03T09:26:01Z</time>
      </trkpt>
      <trkpt lat="49.02507" lon="0.11049">
        <ele>170.3</ele>
        <time>2024-03-03T09:26:02Z</time>
      </trkpt>
      <trkpt lat="49.02509" lon="0.11037">
        <ele>170.2</ele>
        <time>2024-03-03T09:26:03Z</time>
      </trkpt>
      <trkpt lat="49.02512" lon="0.11024">
        <ele>170.2</ele>
        <time>2024-03-03T09:26:04Z</time>
      </trkpt>
      <trkpt lat="49.02515" lon="0.11011">
        <ele>170</ele>
        <time>2024-03-03T09:26:05Z</time>
      </trkpt>
      <trkpt lat="49.02518" lon="0.10997">
        <ele>169.9</ele>
        <time>2024-03-03T09:26:06Z</time>
      </trkpt>
      <trkpt lat="49.0252" lon="0.10984">
        <ele>169.7</ele>
        <time>2024-03-03T09:26:07Z</time>
      </trkpt>
      <trkpt lat="49.02523" lon="0.1097">
        <ele>169.6</ele>
        <time>2024-03-03T09:26:08Z</time>
      </trkpt>
      <trkpt lat="49.02525" lon="0.10957">
        <ele>169.4</ele>
        <time>2024-03-03T09:26:09Z</time>
      </trkpt>
      <trkpt lat="49.02528" lon="0.10944">
        <ele>169.2</ele>
        <time>2024-03-03T09:26:10Z</time>
      </trkpt>
      <trkpt lat="49.02531" lon="0.10931">
        <ele>169</ele>
        <time>2024-03-03T09:26:11Z</time>
      </trkpt>
      <trkpt lat="49.02535" lon="0.10918">
        <ele>168.8</ele>
        <time>2024-03-03T09:26:12Z</time>
      </trkpt>
      <trkpt lat="49.02538" lon="0.10904">
        <ele>168.5</ele>
        <time>2024-03-03T09:26:13Z</time>
      </trkpt>
      <trkpt lat="49.02542" lon="0.10891">
        <ele>168.2</ele>
        <time>2024-03-03T09:26:14Z</time>
      </trkpt>
      <trkpt lat="49.02544" lon="0.10872">
        <ele>167.8</ele>
        <time>2024-03-03T09:26:15Z</time>
      </trkpt>
      <trkpt lat="49.02548" lon="0.10858">
        <ele>167.5</ele>
        <time>2024-03-03T09:26:16Z</time>
      </trkpt>
      <trkpt lat="49.02553" lon="0.10846">
        <ele>167.2</ele>
        <time>2024-03-03T09:26:17Z</time>
      </trkpt>
      <trkpt lat="49.02558" lon="0.10829">
        <ele>166.8</ele>
        <time>2024-03-03T09:26:18Z</time>
      </trkpt>
      <trkpt lat="49.02563" lon="0.10814">
        <ele>166.4</ele>
        <time>2024-03-03T09:26:19Z</time>
      </trkpt>
      <trkpt lat="49.02569" lon="0.10803">
        <ele>166</ele>
        <time>2024-03-03T09:26:20Z</time>
      </trkpt>
      <trkpt lat="49.02575" lon="0.10792">
        <ele>165.6</ele>
        <time>2024-03-03T09:26:21Z</time>
      </trkpt>
      <trkpt lat="49.0258" lon="0.1078">
        <ele>165.3</ele>
        <time>2024-03-03T09:26:22Z</time>
      </trkpt>
      <trkpt lat="49.02586" lon="0.10768">
        <ele>164.9</ele>
        <time>2024-03-03T09:26:23Z</time>
      </trkpt>
      <trkpt lat="49.02592" lon="0.10756">
        <ele>164.6</ele>
        <time>2024-03-03T09:26:24Z</time>
      </trkpt>
      <trkpt lat="49.02598" lon="0.10745">
        <ele>164.4</ele>
        <time>2024-03-03T09:26:25Z</time>
      </trkpt>
      <trkpt lat="49.02604" lon="0.10735">
        <ele>164.1</ele>
        <time>2024-03-03T09:26:26Z</time>
      </trkpt>
      <trkpt lat="49.0261" lon="0.10724">
        <ele>163.8</ele>
        <time>2024-03-03T09:26:27Z</time>
      </trkpt>
      <trkpt lat="49.02616" lon="0.10714">
        <ele>163.6</ele>
        <time>2024-03-03T09:26:28Z</time>
      </trkpt>
      <trkpt lat="49.02622" lon="0.10703">
        <ele>163.3</ele>
        <time>2024-03-03T09:26:29Z</time>
      </trkpt>
      <trkpt lat="49.02628" lon="0.10693">
        <ele>163.1</ele>
        <time>2024-03-03T09:26:30Z</time>
      </trkpt>
      <trkpt lat="49.02634" lon="0.10683">
        <ele>163</ele>
        <time>2024-03-03T09:26:31Z</time>
      </trkpt>
      <trkpt lat="49.02639" lon="0.10674">
        <ele>162.8</ele>
        <time>2024-03-03T09:26:32Z</time>
      </trkpt>
      <trkpt lat="49.02645" lon="0.10665">
        <ele>162.7</ele>
        <time>2024-03-03T09:26:33Z</time>
      </trkpt>
      <trkpt lat="49.02649" lon="0.10657">
        <ele>162.7</ele>
        <time>2024-03-03T09:26:34Z</time>
      </trkpt>
      <trkpt lat="49.02654" lon="0.10651">
        <ele>162.6</ele>
        <time>2024-03-03T09:26:35Z</time>
      </trkpt>
      <trkpt lat="49.02659" lon="0.10644">
        <ele>162.6</ele>
        <time>2024-03-03T09:26:36Z</time>
      </trkpt>
      <trkpt lat="49.02663" lon="0.10637">
        <ele>162.5</ele>
        <time>2024-03-03T09:26:37Z</time>
      </trkpt>
      <trkpt lat="49.02667" lon="0.10631">
        <ele>162.5</ele>
        <time>2024-03-03T09:26:38Z</time>
      </trkpt>
      <trkpt lat="49.02671" lon="0.10625">
        <ele>162.4</ele>
        <time>2024-03-03T09:26:39Z</time>
      </trkpt>
      <trkpt lat="49.02675" lon="0.10618">
        <ele>162.4</ele>
        <time>2024-03-03T09:26:40Z</time>
      </trkpt>
      <trkpt lat="49.02679" lon="0.10611">
        <ele>162.4</ele>
        <time>2024-03-03T09:26:41Z</time>
      </trkpt>
      <trkpt lat="49.02683" lon="0.10605">
        <ele>162.4</ele>
        <time>2024-03-03T09:26:42Z</time>
      </trkpt>
      <trkpt lat="49.02688" lon="0.10598">
        <ele>162.5</ele>
        <time>2024-03-03T09:26:43Z</time>
      </trkpt>
      <trkpt lat="49.02693" lon="0.10591">
        <ele>162.5</ele>
        <time>2024-03-03T09:26:44Z</time>
      </trkpt>
      <trkpt lat="49.02698" lon="0.10584">
        <ele>162.5</ele>
        <time>2024-03-03T09:26:45Z</time>
      </trkpt>
      <trkpt lat="49.02702" lon="0.10577">
        <ele>162.6</ele>
        <time>2024-03-03T09:26:46Z</time>
      </trkpt>
      <trkpt lat="49.02707" lon="0.1057">
        <ele>162.6</ele>
        <time>2024-03-03T09:26:47Z</time>
      </trkpt>
      <trkpt lat="49.02711" lon="0.10563">
        <ele>162.7</ele>
        <time>2024-03-03T09:26:48Z</time>
      </trkpt>
      <trkpt lat="49.02715" lon="0.10557">
        <ele>162.7</ele>
        <time>2024-03-03T09:26:49Z</time>
      </trkpt>
      <trkpt lat="49.02718" lon="0.10551">
        <ele>162.7</ele>
        <time>2024-03-03T09:26:50Z</time>
      </trkpt>
      <trkpt lat="49.02721" lon="0.10544">
        <ele>162.7</ele>
        <time>2024-03-03T09:26:51Z</time>
      </trkpt>
      <trkpt lat="49.02723" lon="0.10537">
        <ele>162.7</ele>
        <time>2024-03-03T09:26:52Z</time>
      </trkpt>
      <trkpt lat="49.02725" lon="0.10528">
        <ele>162.7</ele>
        <time>2024-03-03T09:26:53Z</time>
      </trkpt>
      <trkpt lat="49.02727" lon="0.10519">
        <ele>162.7</ele>
        <time>2024-03-03T09:26:54Z</time>
      </trkpt>
      <trkpt lat="49.02729" lon="0.10511">
        <ele>162.7</ele>
        <time>2024-03-03T09:26:55Z</time>
      </trkpt>
      <trkpt lat="49.0273" lon="0.10505">
        <ele>162.7</ele>
        <time>2024-03-03T09:26:56Z</time>
      </trkpt>
      <trkpt lat="49.02732" lon="0.10498">
        <ele>162.7</ele>
        <time>2024-03-03T09:26:57Z</time>
      </trkpt>
      <trkpt lat="49.02735" lon="0.10489">
        <ele>162.7</ele>
        <time>2024-03-03T09:26:58Z</time>
      </trkpt>
      <trkpt lat="49.02737" lon="0.10481">
        <ele>162.7</ele>
        <time>2024-03-03T09:26:59Z</time>
      </trkpt>
      <trkpt lat="49.02739" lon="0.10475">
        <ele>162.7</ele>
        <time>2024-03-03T09:27:00Z</time>
      </trkpt>
      <trkpt lat="49.02741" lon="0.10468">
        <ele>162.7</ele>
        <time>2024-03-03T09:27:01Z</time>
      </trkpt>
      <trkpt lat="49.02743" lon="0.10462">
        <ele>162.7</ele>
        <time>2024-03-03T09:27:02Z</time>
      </trkpt>
      <trkpt lat="49.02744" lon="0.10455">
        <ele>162.7</ele>
        <time>2024-03-03T09:27:03Z</time>
      </trkpt>
      <trkpt lat="49.02745" lon="0.10448">
        <ele>162.7</ele>
        <time>2024-03-03T09:27:04Z</time>
      </trkpt>
      <trkpt lat="49.02747" lon="0.10441">
        <ele>162.7</ele>
        <time>2024-03-03T09:27:05Z</time>
      </trkpt>
      <trkpt lat="49.02748" lon="0.10434">
        <ele>162.8</ele>
        <time>2024-03-03T09:27:06Z</time>
      </trkpt>
      <trkpt lat="49.02749" lon="0.10428">
        <ele>162.8</ele>
        <time>2024-03-03T09:27:07Z</time>
      </trkpt>
      <trkpt lat="49.0275" lon="0.10421">
        <ele>162.8</ele>
        <time>2024-03-03T09:27:08Z</time>
      </trkpt>
      <trkpt lat="49.02753" lon="0.10413">
        <ele>162.9</ele>
        <time>2024-03-03T09:27:09Z</time>
      </trkpt>
      <trkpt lat="49.02756" lon="0.10402">
        <ele>162.9</ele>
        <time>2024-03-03T09:27:10Z</time>
      </trkpt>
      <trkpt lat="49.02759" lon="0.10389">
        <ele>163</ele>
        <time>2024-03-03T09:27:11Z</time>
      </trkpt>
      <trkpt lat="49.02762" lon="0.1038">
        <ele>163</ele>
        <time>2024-03-03T09:27:12Z</time>
      </trkpt>
      <trkpt lat="49.02764" lon="0.1037">
        <ele>163</ele>
        <time>2024-03-03T09:27:13Z</time>
      </trkpt>
      <trkpt lat="49.02768" lon="0.1036">
        <ele>162.9</ele>
        <time>2024-03-03T09:27:14Z</time>
      </trkpt>
      <trkpt lat="49.02771" lon="0.10351">
        <ele>162.8</ele>
        <time>2024-03-03T09:27:15Z</time>
      </trkpt>
      <trkpt lat="49.02773" lon="0.10342">
        <ele>162.8</ele>
        <time>2024-03-03T09:27:16Z</time>
      </trkpt>
      <trkpt lat="49.02776" lon="0.10332">
        <ele>162.7</ele>
        <time>2024-03-03T09:27:17Z</time>
      </trkpt>
      <trkpt lat="49.02779" lon="0.10321">
        <ele>162.6</ele>
        <time>2024-03-03T09:27:18Z</time>
      </trkpt>
      <trkpt lat="49.02782" lon="0.10312">
        <ele>162.6</ele>
        <time>2024-03-03T09:27:19Z</time>
      </trkpt>
      <trkpt lat="49.02785" lon="0.10303">
        <ele>162.5</ele>
        <time>2024-03-03T09:27:20Z</time>
      </trkpt>
      <trkpt lat="49.02787" lon="0.10297">
        <ele>162.5</ele>
        <time>2024-03-03T09:27:21Z</time>
      </trkpt>
      <trkpt lat="49.02789" lon="0.10291">
        <ele>162.5</ele>
        <time>2024-03-03T09:27:22Z</time>
      </trkpt>
      <trkpt lat="49.02791" lon="0.10285">
        <ele>162.4</ele>
        <time>2024-03-03T09:27:23Z</time>
      </trkpt>
      <trkpt lat="49.02793" lon="0.10278">
        <ele>162.4</ele>
        <time>2024-03-03T09:27:24Z</time>
      </trkpt>
      <trkpt lat="49.02796" lon="0.10272">
        <ele>162.3</ele>
        <time>2024-03-03T09:27:25Z</time>
      </trkpt>
      <trkpt lat="49.02798" lon="0.10267">
        <ele>162.3</ele>
        <time>2024-03-03T09:27:26Z</time>
      </trkpt>
      <trkpt lat="49.02799" lon="0.1026">
        <ele>162.3</ele>
        <time>2024-03-03T09:27:27Z</time>
      </trkpt>
      <trkpt lat="49.02801" lon="0.10252">
        <ele>162.2</ele>
        <time>2024-03-03T09:27:28Z</time>
      </trkpt>
      <trkpt lat="49.02803" lon="0.10242">
        <ele>162.2</ele>
        <time>2024-03-03T09:27:29Z</time>
      </trkpt>
      <trkpt lat="49.02806" lon="0.10231">
        <ele>162.1</ele>
        <time>2024-03-03T09:27:30Z</time>
      </trkpt>
      <trkpt lat="49.02808" lon="0.10219">
        <ele>162.1</ele>
        <time>2024-03-03T09:27:31Z</time>
      </trkpt>
      <trkpt lat="49.0281" lon="0.10205">
        <ele>162.1</ele>
        <time>2024-03-03T09:27:32Z</time>
      </trkpt>
      <trkpt lat="49.02813" lon="0.10191">
        <ele>162</ele>
        <time>2024-03-03T09:27:33Z</time>
      </trkpt>
      <trkpt lat="49.02815" lon="0.10177">
        <ele>161.9</ele>
        <time>2024-03-03T09:27:34Z</time>
      </trkpt>
      <trkpt lat="49.02819" lon="0.10162">
        <ele>161.8</ele>
        <time>2024-03-03T09:27:35Z</time>
      </trkpt>
      <trkpt lat="49.02822" lon="0.10143">
        <ele>161.6</ele>
        <time>2024-03-03T09:27:36Z</time>
      </trkpt>
      <trkpt lat="49.02827" lon="0.10121">
        <ele>161.3</ele>
        <time>2024-03-03T09:27:37Z</time>
      </trkpt>
      <trkpt lat="49.02831" lon="0.10103">
        <ele>160.9</ele>
        <time>2024-03-03T09:27:38Z</time>
      </trkpt>
      <trkpt lat="49.02836" lon="0.10086">
        <ele>160.6</ele>
        <time>2024-03-03T09:27:39Z</time>
      </trkpt>
      <trkpt lat="49.02841" lon="0.10069">
        <ele>160.4</ele>
        <time>2024-03-03T09:27:40Z</time>
      </trkpt>
      <trkpt lat="49.02845" lon="0.10052">
        <ele>160.2</ele>
        <time>2024-03-03T09:27:41Z</time>
      </trkpt>
      <trkpt lat="49.02849" lon="0.10035">
        <ele>160</ele>
        <time>2024-03-03T09:27:42Z</time>
      </trkpt>
      <trkpt lat="49.02853" lon="0.10018">
        <ele>159.9</ele>
        <time>2024-03-03T09:27:43Z</time>
      </trkpt>
      <trkpt lat="49.02858" lon="0.1">
        <ele>159.8</ele>
        <time>2024-03-03T09:27:44Z</time>
      </trkpt>
      <trkpt lat="49.02861" lon="0.09983">
        <ele>159.7</ele>
        <time>2024-03-03T09:27:45Z</time>
      </trkpt>
      <trkpt lat="49.02864" lon="0.09967">
        <ele>159.6</ele>
        <time>2024-03-03T09:27:46Z</time>
      </trkpt>
      <trkpt lat="49.02867" lon="0.09951">
        <ele>159.5</ele>
        <time>2024-03-03T09:27:47Z</time>
      </trkpt>
      <trkpt lat="49.0287" lon="0.09935">
        <ele>159.2</ele>
        <time>2024-03-03T09:27:48Z</time>
      </trkpt>
      <trkpt lat="49.02872" lon="0.09919">
        <ele>158.9</ele>
        <time>2024-03-03T09:27:49Z</time>
      </trkpt>
      <trkpt lat="49.02875" lon="0.09903">
        <ele>158.6</ele>
        <time>2024-03-03T09:27:50Z</time>
      </trkpt>
      <trkpt lat="49.02878" lon="0.09887">
        <ele>158.3</ele>
        <time>2024-03-03T09:27:51Z</time>
      </trkpt>
      <trkpt lat="49.02881" lon="0.09871">
        <ele>157.9</ele>
        <time>2024-03-03T09:27:52Z</time>
      </trkpt>
      <trkpt lat="49.02885" lon="0.09855">
        <ele>157.6</ele>
        <time>2024-03-03T09:27:53Z</time>
      </trkpt>
      <trkpt lat="49.02888" lon="0.09839">
        <ele>157.3</ele>
        <time>2024-03-03T09:27:54Z</time>
      </trkpt>
      <trkpt lat="49.02892" lon="0.09824">
        <ele>157</ele>
        <time>2024-03-03T09:27:55Z</time>
      </trkpt>
      <trkpt lat="49.02896" lon="0.09809">
        <ele>156.7</ele>
        <time>2024-03-03T09:27:56Z</time>
      </trkpt>
      <trkpt lat="49.029" lon="0.09794">
        <ele>156.5</ele>
        <time>2024-03-03T09:27:57Z</time>
      </trkpt>
      <trkpt lat="49.02904" lon="0.09781">
        <ele>156.3</ele>
        <time>2024-03-03T09:27:58Z</time>
      </trkpt>
      <trkpt lat="49.02909" lon="0.09768">
        <ele>156.2</ele>
        <time>2024-03-03T09:27:59Z</time>
      </trkpt>
      <trkpt lat="49.02914" lon="0.09755">
        <ele>156</ele>
        <time>2024-03-03T09:28:00Z</time>
      </trkpt>
      <trkpt lat="49.02919" lon="0.09743">
        <ele>155.9</ele>
        <time>2024-03-03T09:28:01Z</time>
      </trkpt>
      <trkpt lat="49.02923" lon="0.09731">
        <ele>155.8</ele>
        <time>2024-03-03T09:28:02Z</time>
      </trkpt>
      <trkpt lat="49.02928" lon="0.09718">
        <ele>155.7</ele>
        <time>2024-03-03T09:28:03Z</time>
      </trkpt>
      <trkpt lat="49.02931" lon="0.09705">
        <ele>155.7</ele>
        <time>2024-03-03T09:28:04Z</time>
      </trkpt>
      <trkpt lat="49.02934" lon="0.09692">
        <ele>155.6</ele>
        <time>2024-03-03T09:28:05Z</time>
      </trkpt>
      <trkpt lat="49.02936" lon="0.0968">
        <ele>155.5</ele>
        <time>2024-03-03T09:28:06Z</time>
      </trkpt>
      <trkpt lat="49.02939" lon="0.09669">
        <ele>155.5</ele>
        <time>2024-03-03T09:28:07Z</time>
      </trkpt>
      <trkpt lat="49.02941" lon="0.09656">
        <ele>155.5</ele>
        <time>2024-03-03T09:28:08Z</time>
      </trkpt>
      <trkpt lat="49.02943" lon="0.09645">
        <ele>155.5</ele>
        <time>2024-03-03T09:28:09Z</time>
      </trkpt>
      <trkpt lat="49.02945" lon="0.09634">
        <ele>155.5</ele>
        <time>2024-03-03T09:28:10Z</time>
      </trkpt>
      <trkpt lat="49.02947" lon="0.09622">
        <ele>155.4</ele>
        <time>2024-03-03T09:28:11Z</time>
      </trkpt>
      <trkpt lat="49.02949" lon="0.09611">
        <ele>155.4</ele>
        <time>2024-03-03T09:28:12Z</time>
      </trkpt>
      <trkpt lat="49.02949" lon="0.09598">
        <ele>155.3</ele>
        <time>2024-03-03T09:28:13Z</time>
      </trkpt>
      <trkpt lat="49.02951" lon="0.09586">
        <ele>155.2</ele>
        <time>2024-03-03T09:28:14Z</time>
      </trkpt>
      <trkpt lat="49.02953" lon="0.09574">
        <ele>155.1</ele>
        <time>2024-03-03T09:28:15Z</time>
      </trkpt>
      <trkpt lat="49.02955" lon="0.09562">
        <ele>155</ele>
        <time>2024-03-03T09:28:16Z</time>
      </trkpt>
      <trkpt lat="49.02956" lon="0.09552">
        <ele>154.9</ele>
        <time>2024-03-03T09:28:17Z</time>
      </trkpt>
      <trkpt lat="49.02958" lon="0.09542">
        <ele>154.9</ele>
        <time>2024-03-03T09:28:18Z</time>
      </trkpt>
      <trkpt lat="49.02959" lon="0.09533">
        <ele>154.8</ele>
        <time>2024-03-03T09:28:19Z</time>
      </trkpt>
      <trkpt lat="49.02961" lon="0.09525">
        <ele>154.8</ele>
        <time>2024-03-03T09:28:20Z</time>
      </trkpt>
      <trkpt lat="49.02963" lon="0.09517">
        <ele>154.7</ele>
        <time>2024-03-03T09:28:21Z</time>
      </trkpt>
      <trkpt lat="49.02965" lon="0.0951">
        <ele>154.7</ele>
        <time>2024-03-03T09:28:22Z</time>
      </trkpt>
      <trkpt lat="49.02968" lon="0.09502">
        <ele>154.7</ele>
        <time>2024-03-03T09:28:23Z</time>
      </trkpt>
      <trkpt lat="49.02971" lon="0.09494">
        <ele>154.7</ele>
        <time>2024-03-03T09:28:24Z</time>
      </trkpt>
      <trkpt lat="49.02974" lon="0.09488">
        <ele>154.7</ele>
        <time>2024-03-03T09:28:25Z</time>
      </trkpt>
      <trkpt lat="49.02976" lon="0.09485">
        <ele>154.6</ele>
        <time>2024-03-03T09:28:26Z</time>
      </trkpt>
      <trkpt lat="49.0298" lon="0.09485">
        <ele>154.4</ele>
        <time>2024-03-03T09:28:27Z</time>
      </trkpt>
      <trkpt lat="49.02981" lon="0.09486">
        <ele>154.4</ele>
        <time>2024-03-03T09:28:28Z</time>
      </trkpt>
      <trkpt lat="49.02986" lon="0.09487">
        <ele>154.2</ele>
        <time>2024-03-03T09:28:29Z</time>
      </trkpt>
      <trkpt lat="49.02992" lon="0.09489">
        <ele>154</ele>
        <time>2024-03-03T09:28:30Z</time>
      </trkpt>
      <trkpt lat="49.02999" lon="0.09492">
        <ele>153.7</ele>
        <time>2024-03-03T09:28:31Z</time>
      </trkpt>
      <trkpt lat="49.03006" lon="0.09494">
        <ele>153.5</ele>
        <time>2024-03-03T09:28:32Z</time>
      </trkpt>
      <trkpt lat="49.03013" lon="0.09497">
        <ele>153.2</ele>
        <time>2024-03-03T09:28:33Z</time>
      </trkpt>
      <trkpt lat="49.0302" lon="0.095">
        <ele>153</ele>
        <time>2024-03-03T09:28:34Z</time>
      </trkpt>
      <trkpt lat="49.03027" lon="0.09502">
        <ele>152.7</ele>
        <time>2024-03-03T09:28:35Z</time>
      </trkpt>
      <trkpt lat="49.03035" lon="0.09504">
        <ele>152.5</ele>
        <time>2024-03-03T09:28:36Z</time>
      </trkpt>
      <trkpt lat="49.03042" lon="0.09507">
        <ele>152.2</ele>
        <time>2024-03-03T09:28:37Z</time>
      </trkpt>
      <trkpt lat="49.0305" lon="0.09509">
        <ele>152</ele>
        <time>2024-03-03T09:28:38Z</time>
      </trkpt>
      <trkpt lat="49.03057" lon="0.09511">
        <ele>151.7</ele>
        <time>2024-03-03T09:28:39Z</time>
      </trkpt>
      <trkpt lat="49.03065" lon="0.09513">
        <ele>151.5</ele>
        <time>2024-03-03T09:28:40Z</time>
      </trkpt>
      <trkpt lat="49.03073" lon="0.09515">
        <ele>151.2</ele>
        <time>2024-03-03T09:28:41Z</time>
      </trkpt>
      <trkpt lat="49.03081" lon="0.09517">
        <ele>150.9</ele>
        <time>2024-03-03T09:28:42Z</time>
      </trkpt>
      <trkpt lat="49.03088" lon="0.0952">
        <ele>150.6</ele>
        <time>2024-03-03T09:28:43Z</time>
      </trkpt>
      <trkpt lat="49.03096" lon="0.09522">
        <ele>150.3</ele>
        <time>2024-03-03T09:28:44Z</time>
      </trkpt>
      <trkpt lat="49.03104" lon="0.09525">
        <ele>150</ele>
        <time>2024-03-03T09:28:45Z</time>
      </trkpt>
      <trkpt lat="49.03112" lon="0.09527">
        <ele>149.6</ele>
        <time>2024-03-03T09:28:46Z</time>
      </trkpt>
      <trkpt lat="49.0312" lon="0.09528">
        <ele>149.3</ele>
        <time>2024-03-03T09:28:47Z</time>
      </trkpt>
      <trkpt lat="49.03129" lon="0.09529">
        <ele>148.9</ele>
        <time>2024-03-03T09:28:48Z</time>
      </trkpt>
      <trkpt lat="49.03137" lon="0.0953">
        <ele>148.6</ele>
        <time>2024-03-03T09:28:49Z</time>
      </trkpt>
      <trkpt lat="49.03145" lon="0.09532">
        <ele>148.2</ele>
        <time>2024-03-03T09:28:50Z</time>
      </trkpt>
      <trkpt lat="49.03153" lon="0.09532">
        <ele>147.7</ele>
        <time>2024-03-03T09:28:51Z</time>
      </trkpt>
      <trkpt lat="49.03162" lon="0.09533">
        <ele>147.2</ele>
        <time>2024-03-03T09:28:52Z</time>
      </trkpt>
      <trkpt lat="49.03172" lon="0.09532">
        <ele>146.7</ele>
        <time>2024-03-03T09:28:53Z</time>
      </trkpt>
      <trkpt lat="49.03181" lon="0.09532">
        <ele>146.1</ele>
        <time>2024-03-03T09:28:54Z</time>
      </trkpt>
      <trkpt lat="49.03191" lon="0.09533">
        <ele>145.5</ele>
        <time>2024-03-03T09:28:55Z</time>
      </trkpt>
      <trkpt lat="49.03201" lon="0.09533">
        <ele>144.8</ele>
        <time>2024-03-03T09:28:56Z</time>
      </trkpt>
      <trkpt lat="49.03212" lon="0.09534">
        <ele>144.1</ele>
        <time>2024-03-03T09:28:57Z</time>
      </trkpt>
      <trkpt lat="49.03222" lon="0.09536">
        <ele>143.4</ele>
        <time>2024-03-03T09:28:58Z</time>
      </trkpt>
      <trkpt lat="49.03232" lon="0.09538">
        <ele>142.7</ele>
        <time>2024-03-03T09:28:59Z</time>
      </trkpt>
      <trkpt lat="49.03243" lon="0.0954">
        <ele>141.9</ele>
        <time>2024-03-03T09:29:00Z</time>
      </trkpt>
      <trkpt lat="49.03253" lon="0.09543">
        <ele>141.1</ele>
        <time>2024-03-03T09:29:01Z</time>
      </trkpt>
      <trkpt lat="49.03264" lon="0.09544">
        <ele>140.4</ele>
        <time>2024-03-03T09:29:02Z</time>
      </trkpt>
      <trkpt lat="49.03275" lon="0.09545">
        <ele>139.6</ele>
        <time>2024-03-03T09:29:03Z</time>
      </trkpt>
      <trkpt lat="49.03286" lon="0.09545">
        <ele>138.9</ele>
        <time>2024-03-03T09:29:04Z</time>
      </trkpt>
      <trkpt lat="49.03298" lon="0.09544">
        <ele>138.1</ele>
        <time>2024-03-03T09:29:05Z</time>
      </trkpt>
      <trkpt lat="49.0331" lon="0.09543">
        <ele>137.3</ele>
        <time>2024-03-03T09:29:06Z</time>
      </trkpt>
      <trkpt lat="49.03322" lon="0.0954">
        <ele>136.5</ele>
        <time>2024-03-03T09:29:07Z</time>
      </trkpt>
      <trkpt lat="49.03334" lon="0.09538">
        <ele>135.7</ele>
        <time>2024-03-03T09:29:08Z</time>
      </trkpt>
      <trkpt lat="49.03345" lon="0.09536">
        <ele>134.9</ele>
        <time>2024-03-03T09:29:09Z</time>
      </trkpt>
      <trkpt lat="49.03356" lon="0.09533">
        <ele>134.1</ele>
        <time>2024-03-03T09:29:10Z</time>
      </trkpt>
      <trkpt lat="49.03367" lon="0.0953">
        <ele>133.4</ele>
        <time>2024-03-03T09:29:11Z</time>
      </trkpt>
      <trkpt lat="49.03378" lon="0.09528">
        <ele>132.6</ele>
        <time>2024-03-03T09:29:12Z</time>
      </trkpt>
      <trkpt lat="49.03389" lon="0.09527">
        <ele>131.9</ele>
        <time>2024-03-03T09:29:13Z</time>
      </trkpt>
      <trkpt lat="49.03401" lon="0.09528">
        <ele>131.2</ele>
        <time>2024-03-03T09:29:14Z</time>
      </trkpt>
      <trkpt lat="49.03412" lon="0.0953">
        <ele>130.6</ele>
        <time>2024-03-03T09:29:15Z</time>
      </trkpt>
      <trkpt lat="49.03423" lon="0.09531">
        <ele>130</ele>
        <time>2024-03-03T09:29:16Z</time>
      </trkpt>
      <trkpt lat="49.03436" lon="0.09533">
        <ele>129.4</ele>
        <time>2024-03-03T09:29:17Z</time>
      </trkpt>
      <trkpt lat="49.03449" lon="0.09535">
        <ele>128.8</ele>
        <time>2024-03-03T09:29:18Z</time>
      </trkpt>
      <trkpt lat="49.03461" lon="0.09538">
        <ele>128.2</ele>
        <time>2024-03-03T09:29:19Z</time>
      </trkpt>
      <trkpt lat="49.03473" lon="0.09542">
        <ele>127.7</ele>
        <time>2024-03-03T09:29:20Z</time>
      </trkpt>
      <trkpt lat="49.03485" lon="0.09547">
        <ele>127.1</ele>
        <time>2024-03-03T09:29:21Z</time>
      </trkpt>
      <trkpt lat="49.03496" lon="0.09555">
        <ele>126.4</ele>
        <time>2024-03-03T09:29:22Z</time>
      </trkpt>
      <trkpt lat="49.03506" lon="0.09563">
        <ele>125.8</ele>
        <time>2024-03-03T09:29:23Z</time>
      </trkpt>
      <trkpt lat="49.03516" lon="0.09573">
        <ele>125.2</ele>
        <time>2024-03-03T09:29:24Z</time>
      </trkpt>
      <trkpt lat="49.03526" lon="0.09583">
        <ele>124.6</ele>
        <time>2024-03-03T09:29:25Z</time>
      </trkpt>
      <trkpt lat="49.03537" lon="0.09591">
        <ele>123.9</ele>
        <time>2024-03-03T09:29:26Z</time>
      </trkpt>
      <trkpt lat="49.03548" lon="0.09601">
        <ele>123.2</ele>
        <time>2024-03-03T09:29:27Z</time>
      </trkpt>
      <trkpt lat="49.03558" lon="0.0961">
        <ele>122.6</ele>
        <time>2024-03-03T09:29:28Z</time>
      </trkpt>
      <trkpt lat="49.03568" lon="0.0962">
        <ele>122</ele>
        <time>2024-03-03T09:29:29Z</time>
      </trkpt>
      <trkpt lat="49.03578" lon="0.0963">
        <ele>121.3</ele>
        <time>2024-03-03T09:29:30Z</time>
      </trkpt>
      <trkpt lat="49.03589" lon="0.0964">
        <ele>120.6</ele>
        <time>2024-03-03T09:29:31Z</time>
      </trkpt>
      <trkpt lat="49.036" lon="0.0965">
        <ele>120</ele>
        <time>2024-03-03T09:29:32Z</time>
      </trkpt>
      <trkpt lat="49.0361" lon="0.09661">
        <ele>119.3</ele>
        <time>2024-03-03T09:29:33Z</time>
      </trkpt>
      <trkpt lat="49.03619" lon="0.09672">
        <ele>118.7</ele>
        <time>2024-03-03T09:29:34Z</time>
      </trkpt>
      <trkpt lat="49.03629" lon="0.09684">
        <ele>118</ele>
        <time>2024-03-03T09:29:35Z</time>
      </trkpt>
      <trkpt lat="49.03637" lon="0.09696">
        <ele>117.4</ele>
        <time>2024-03-03T09:29:36Z</time>
      </trkpt>
      <trkpt lat="49.03645" lon="0.09707">
        <ele>116.8</ele>
        <time>2024-03-03T09:29:37Z</time>
      </trkpt>
      <trkpt lat="49.03654" lon="0.0972">
        <ele>116.2</ele>
        <time>2024-03-03T09:29:38Z</time>
      </trkpt>
      <trkpt lat="49.03663" lon="0.09733">
        <ele>115.6</ele>
        <time>2024-03-03T09:29:39Z</time>
      </trkpt>
      <trkpt lat="49.03672" lon="0.09747">
        <ele>115</ele>
        <time>2024-03-03T09:29:40Z</time>
      </trkpt>
      <trkpt lat="49.03681" lon="0.09761">
        <ele>114.5</ele>
        <time>2024-03-03T09:29:41Z</time>
      </trkpt>
      <trkpt lat="49.03689" lon="0.09775">
        <ele>113.9</ele>
        <time>2024-03-03T09:29:42Z</time>
      </trkpt>
      <trkpt lat="49.03697" lon="0.09789">
        <ele>113.4</ele>
        <time>2024-03-03T09:29:43Z</time>
      </trkpt>
      <trkpt lat="49.03705" lon="0.09805">
        <ele>112.8</ele>
        <time>2024-03-03T09:29:44Z</time>
      </trkpt>
      <trkpt lat="49.03712" lon="0.0982">
        <ele>112.2</ele>
        <time>2024-03-03T09:29:45Z</time>
      </trkpt>
      <trkpt lat="49.03718" lon="0.09835">
        <ele>111.6</ele>
        <time>2024-03-03T09:29:46Z</time>
      </trkpt>
      <trkpt lat="49.03725" lon="0.09849">
        <ele>110.9</ele>
        <time>2024-03-03T09:29:47Z</time>
      </trkpt>
      <trkpt lat="49.03733" lon="0.09863">
        <ele>110.2</ele>
        <time>2024-03-03T09:29:48Z</time>
      </trkpt>
      <trkpt lat="49.03743" lon="0.09876">
        <ele>109.3</ele>
        <time>2024-03-03T09:29:49Z</time>
      </trkpt>
      <trkpt lat="49.03753" lon="0.09888">
        <ele>108.5</ele>
        <time>2024-03-03T09:29:50Z</time>
      </trkpt>
      <trkpt lat="49.03764" lon="0.09897">
        <ele>107.7</ele>
        <time>2024-03-03T09:29:51Z</time>
      </trkpt>
      <trkpt lat="49.03775" lon="0.09905">
        <ele>107.1</ele>
        <time>2024-03-03T09:29:52Z</time>
      </trkpt>
      <trkpt lat="49.03787" lon="0.09914">
        <ele>106.5</ele>
        <time>2024-03-03T09:29:53Z</time>
      </trkpt>
      <trkpt lat="49.03798" lon="0.09923">
        <ele>106.1</ele>
        <time>2024-03-03T09:29:54Z</time>
      </trkpt>
      <trkpt lat="49.0381" lon="0.09931">
        <ele>105.8</ele>
        <time>2024-03-03T09:29:55Z</time>
      </trkpt>
      <trkpt lat="49.03821" lon="0.0994">
        <ele>105.5</ele>
        <time>2024-03-03T09:29:56Z</time>
      </trkpt>
      <trkpt lat="49.03832" lon="0.09948">
        <ele>105.4</ele>
        <time>2024-03-03T09:29:57Z</time>
      </trkpt>
      <trkpt lat="49.03842" lon="0.09956">
        <ele>105.2</ele>
        <time>2024-03-03T09:29:58Z</time>
      </trkpt>
      <trkpt lat="49.03852" lon="0.09961">
        <ele>105.2</ele>
        <time>2024-03-03T09:29:59Z</time>
      </trkpt>
      <trkpt lat="49.03862" lon="0.09964">
        <ele>105.2</ele>
        <time>2024-03-03T09:30:00Z</time>
      </trkpt>
      <trkpt lat="49.03872" lon="0.09965">
        <ele>105.2</ele>
        <time>2024-03-03T09:30:01Z</time>
      </trkpt>
      <trkpt lat="49.03882" lon="0.09962">
        <ele>105.2</ele>
        <time>2024-03-03T09:30:02Z</time>
      </trkpt>
      <trkpt lat="49.03892" lon="0.09957">
        <ele>105.2</ele>
        <time>2024-03-03T09:30:03Z</time>
      </trkpt>
      <trkpt lat="49.03901" lon="0.09951">
        <ele>105.2</ele>
        <time>2024-03-03T09:30:04Z</time>
      </trkpt>
      <trkpt lat="49.03909" lon="0.09944">
        <ele>105.1</ele>
        <time>2024-03-03T09:30:05Z</time>
      </trkpt>
      <trkpt lat="49.03918" lon="0.09937">
        <ele>105</ele>
        <time>2024-03-03T09:30:06Z</time>
      </trkpt>
      <trkpt lat="49.03926" lon="0.09931">
        <ele>104.9</ele>
        <time>2024-03-03T09:30:07Z</time>
      </trkpt>
      <trkpt lat="49.03935" lon="0.09925">
        <ele>104.7</ele>
        <time>2024-03-03T09:30:08Z</time>
      </trkpt>
      <trkpt lat="49.03944" lon="0.09919">
        <ele>104.5</ele>
        <time>2024-03-03T09:30:09Z</time>
      </trkpt>
      <trkpt lat="49.03953" lon="0.09912">
        <ele>104.2</ele>
        <time>2024-03-03T09:30:10Z</time>
      </trkpt>
      <trkpt lat="49.03962" lon="0.09905">
        <ele>103.9</ele>
        <time>2024-03-03T09:30:11Z</time>
      </trkpt>
      <trkpt lat="49.03971" lon="0.09898">
        <ele>103.6</ele>
        <time>2024-03-03T09:30:12Z</time>
      </trkpt>
      <trkpt lat="49.03979" lon="0.0989">
        <ele>103.3</ele>
        <time>2024-03-03T09:30:13Z</time>
      </trkpt>
      <trkpt lat="49.03988" lon="0.09883">
        <ele>103</ele>
        <time>2024-03-03T09:30:14Z</time>
      </trkpt>
      <trkpt lat="49.03997" lon="0.09875">
        <ele>102.7</ele>
        <time>2024-03-03T09:30:15Z</time>
      </trkpt>
      <trkpt lat="49.04006" lon="0.09866">
        <ele>102.3</ele>
        <time>2024-03-03T09:30:16Z</time>
      </trkpt>
      <trkpt lat="49.04014" lon="0.09858">
        <ele>102</ele>
        <time>2024-03-03T09:30:17Z</time>
      </trkpt>
      <trkpt lat="49.04023" lon="0.09849">
        <ele>101.6</ele>
        <time>2024-03-03T09:30:18Z</time>
      </trkpt>
      <trkpt lat="49.04032" lon="0.0984">
        <ele>101.3</ele>
        <time>2024-03-03T09:30:19Z</time>
      </trkpt>
      <trkpt lat="49.04041" lon="0.09832">
        <ele>100.9</ele>
        <time>2024-03-03T09:30:20Z</time>
      </trkpt>
      <trkpt lat="49.04049" lon="0.09823">
        <ele>100.5</ele>
        <time>2024-03-03T09:30:21Z</time>
      </trkpt>
      <trkpt lat="49.04057" lon="0.09814">
        <ele>100.1</ele>
        <time>2024-03-03T09:30:22Z</time>
      </trkpt>
      <trkpt lat="49.04066" lon="0.09805">
        <ele>99.7</ele>
        <time>2024-03-03T09:30:23Z</time>
      </trkpt>
      <trkpt lat="49.04074" lon="0.09797">
        <ele>99.4</ele>
        <time>2024-03-03T09:30:24Z</time>
      </trkpt>
      <trkpt lat="49.04083" lon="0.09788">
        <ele>99</ele>
        <time>2024-03-03T09:30:25Z</time>
      </trkpt>
      <trkpt lat="49.04092" lon="0.0978">
        <ele>98.6</ele>
        <time>2024-03-03T09:30:26Z</time>
      </trkpt>
      <trkpt lat="49.04102" lon="0.09772">
        <ele>98.2</ele>
        <time>2024-03-03T09:30:27Z</time>
      </trkpt>
      <trkpt lat="49.04111" lon="0.09764">
        <ele>97.8</ele>
        <time>2024-03-03T09:30:28Z</time>
      </trkpt>
      <trkpt lat="49.0412" lon="0.09757">
        <ele>97.3</ele>
        <time>2024-03-03T09:30:29Z</time>
      </trkpt>
      <trkpt lat="49.04129" lon="0.0975">
        <ele>96.9</ele>
        <time>2024-03-03T09:30:30Z</time>
      </trkpt>
      <trkpt lat="49.04139" lon="0.09745">
        <ele>96.5</ele>
        <time>2024-03-03T09:30:31Z</time>
      </trkpt>
      <trkpt lat="49.04149" lon="0.09741">
        <ele>96</ele>
        <time>2024-03-03T09:30:32Z</time>
      </trkpt>
      <trkpt lat="49.04158" lon="0.09738">
        <ele>95.6</ele>
        <time>2024-03-03T09:30:33Z</time>
      </trkpt>
      <trkpt lat="49.04167" lon="0.09737">
        <ele>95.2</ele>
        <time>2024-03-03T09:30:34Z</time>
      </trkpt>
      <trkpt lat="49.04176" lon="0.09736">
        <ele>94.8</ele>
        <time>2024-03-03T09:30:35Z</time>
      </trkpt>
      <trkpt lat="49.04188" lon="0.09736">
        <ele>94.2</ele>
        <time>2024-03-03T09:30:36Z</time>
      </trkpt>
      <trkpt lat="49.042" lon="0.09737">
        <ele>93.7</ele>
        <time>2024-03-03T09:30:37Z</time>
      </trkpt>
      <trkpt lat="49.04212" lon="0.09738">
        <ele>93.2</ele>
        <time>2024-03-03T09:30:38Z</time>
      </trkpt>
      <trkpt lat="49.04224" lon="0.09739">
        <ele>92.7</ele>
        <time>2024-03-03T09:30:39Z</time>
      </trkpt>
      <trkpt lat="49.04235" lon="0.09739">
        <ele>92.2</ele>
        <time>2024-03-03T09:30:40Z</time>
      </trkpt>
      <trkpt lat="49.04247" lon="0.09739">
        <ele>91.8</ele>
        <time>2024-03-03T09:30:41Z</time>
      </trkpt>
      <trkpt lat="49.04259" lon="0.09739">
        <ele>91.3</ele>
        <time>2024-03-03T09:30:42Z</time>
      </trkpt>
      <trkpt lat="49.0427" lon="0.09738">
        <ele>90.9</ele>
        <time>2024-03-03T09:30:43Z</time>
      </trkpt>
      <trkpt lat="49.04281" lon="0.09737">
        <ele>90.4</ele>
        <time>2024-03-03T09:30:44Z</time>
      </trkpt>
      <trkpt lat="49.04292" lon="0.09735">
        <ele>90</ele>
        <time>2024-03-03T09:30:45Z</time>
      </trkpt>
      <trkpt lat="49.04304" lon="0.09733">
        <ele>89.5</ele>
        <time>2024-03-03T09:30:46Z</time>
      </trkpt>
      <trkpt lat="49.04315" lon="0.09731">
        <ele>89.1</ele>
        <time>2024-03-03T09:30:47Z</time>
      </trkpt>
      <trkpt lat="49.04326" lon="0.09729">
        <ele>88.5</ele>
        <time>2024-03-03T09:30:48Z</time>
      </trkpt>
      <trkpt lat="49.04338" lon="0.09726">
        <ele>87.9</ele>
        <time>2024-03-03T09:30:49Z</time>
      </trkpt>
      <trkpt lat="49.0435" lon="0.09723">
        <ele>87.3</ele>
        <time>2024-03-03T09:30:50Z</time>
      </trkpt>
      <trkpt lat="49.04361" lon="0.0972">
        <ele>86.7</ele>
        <time>2024-03-03T09:30:51Z</time>
      </trkpt>
      <trkpt lat="49.04373" lon="0.09717">
        <ele>86.1</ele>
        <time>2024-03-03T09:30:52Z</time>
      </trkpt>
      <trkpt lat="49.04385" lon="0.09715">
        <ele>85.5</ele>
        <time>2024-03-03T09:30:53Z</time>
      </trkpt>
      <trkpt lat="49.04397" lon="0.09712">
        <ele>84.9</ele>
        <time>2024-03-03T09:30:54Z</time>
      </trkpt>
      <trkpt lat="49.04408" lon="0.09709">
        <ele>84.3</ele>
        <time>2024-03-03T09:30:55Z</time>
      </trkpt>
      <trkpt lat="49.0442" lon="0.09706">
        <ele>83.7</ele>
        <time>2024-03-03T09:30:56Z</time>
      </trkpt>
      <trkpt lat="49.04431" lon="0.09703">
        <ele>83.1</ele>
        <time>2024-03-03T09:30:57Z</time>
      </trkpt>
      <trkpt lat="49.04443" lon="0.097">
        <ele>82.6</ele>
        <time>2024-03-03T09:30:58Z</time>
      </trkpt>
      <trkpt lat="49.04455" lon="0.09698">
        <ele>82</ele>
        <time>2024-03-03T09:30:59Z</time>
      </trkpt>
      <trkpt lat="49.04466" lon="0.09696">
        <ele>81.4</ele>
        <time>2024-03-03T09:31:00Z</time>
      </trkpt>
      <trkpt lat="49.04478" lon="0.09694">
        <ele>80.9</ele>
        <time>2024-03-03T09:31:01Z</time>
      </trkpt>
      <trkpt lat="49.04489" lon="0.09691">
        <ele>80.4</ele>
        <time>2024-03-03T09:31:02Z</time>
      </trkpt>
      <trkpt lat="49.045" lon="0.09688">
        <ele>79.9</ele>
        <time>2024-03-03T09:31:03Z</time>
      </trkpt>
      <trkpt lat="49.04512" lon="0.09684">
        <ele>79.4</ele>
        <time>2024-03-03T09:31:04Z</time>
      </trkpt>
      <trkpt lat="49.04523" lon="0.0968">
        <ele>79</ele>
        <time>2024-03-03T09:31:05Z</time>
      </trkpt>
      <trkpt lat="49.04534" lon="0.09677">
        <ele>78.6</ele>
        <time>2024-03-03T09:31:06Z</time>
      </trkpt>
      <trkpt lat="49.04545" lon="0.09673">
        <ele>78.1</ele>
        <time>2024-03-03T09:31:07Z</time>
      </trkpt>
      <trkpt lat="49.04556" lon="0.09668">
        <ele>77.7</ele>
        <time>2024-03-03T09:31:08Z</time>
      </trkpt>
      <trkpt lat="49.04567" lon="0.09664">
        <ele>77.4</ele>
        <time>2024-03-03T09:31:09Z</time>
      </trkpt>
      <trkpt lat="49.04578" lon="0.0966">
        <ele>77.1</ele>
        <time>2024-03-03T09:31:10Z</time>
      </trkpt>
      <trkpt lat="49.04588" lon="0.09656">
        <ele>76.7</ele>
        <time>2024-03-03T09:31:11Z</time>
      </trkpt>
      <trkpt lat="49.04598" lon="0.09653">
        <ele>76.5</ele>
        <time>2024-03-03T09:31:12Z</time>
      </trkpt>
      <trkpt lat="49.04608" lon="0.0965">
        <ele>76.2</ele>
        <time>2024-03-03T09:31:13Z</time>
      </trkpt>
      <trkpt lat="49.04619" lon="0.09646">
        <ele>75.9</ele>
        <time>2024-03-03T09:31:14Z</time>
      </trkpt>
      <trkpt lat="49.04629" lon="0.09641">
        <ele>75.7</ele>
        <time>2024-03-03T09:31:15Z</time>
      </trkpt>
      <trkpt lat="49.0464" lon="0.09637">
        <ele>75.5</ele>
        <time>2024-03-03T09:31:16Z</time>
      </trkpt>
      <trkpt lat="49.0465" lon="0.09632">
        <ele>75.3</ele>
        <time>2024-03-03T09:31:17Z</time>
      </trkpt>
      <trkpt lat="49.04661" lon="0.09628">
        <ele>75.2</ele>
        <time>2024-03-03T09:31:18Z</time>
      </trkpt>
      <trkpt lat="49.04671" lon="0.09623">
        <ele>75.1</ele>
        <time>2024-03-03T09:31:19Z</time>
      </trkpt>
      <trkpt lat="49.0468" lon="0.09617">
        <ele>75.1</ele>
        <time>2024-03-03T09:31:20Z</time>
      </trkpt>
      <trkpt lat="49.0469" lon="0.09611">
        <ele>75</ele>
        <time>2024-03-03T09:31:21Z</time>
      </trkpt>
      <trkpt lat="49.04699" lon="0.09605">
        <ele>74.9</ele>
        <time>2024-03-03T09:31:22Z</time>
      </trkpt>
      <trkpt lat="49.04708" lon="0.09598">
        <ele>74.9</ele>
        <time>2024-03-03T09:31:23Z</time>
      </trkpt>
      <trkpt lat="49.04717" lon="0.09591">
        <ele>74.9</ele>
        <time>2024-03-03T09:31:24Z</time>
      </trkpt>
      <trkpt lat="49.04726" lon="0.09583">
        <ele>75.1</ele>
        <time>2024-03-03T09:31:25Z</time>
      </trkpt>
      <trkpt lat="49.04734" lon="0.09576">
        <ele>75.2</ele>
        <time>2024-03-03T09:31:26Z</time>
      </trkpt>
      <trkpt lat="49.04743" lon="0.09568">
        <ele>75.4</ele>
        <time>2024-03-03T09:31:27Z</time>
      </trkpt>
      <trkpt lat="49.04751" lon="0.09561">
        <ele>75.6</ele>
        <time>2024-03-03T09:31:28Z</time>
      </trkpt>
      <trkpt lat="49.04759" lon="0.09553">
        <ele>75.8</ele>
        <time>2024-03-03T09:31:29Z</time>
      </trkpt>
      <trkpt lat="49.04767" lon="0.09545">
        <ele>76</ele>
        <time>2024-03-03T09:31:30Z</time>
      </trkpt>
      <trkpt lat="49.04774" lon="0.09538">
        <ele>76.1</ele>
        <time>2024-03-03T09:31:31Z</time>
      </trkpt>
      <trkpt lat="49.04782" lon="0.0953">
        <ele>76.3</ele>
        <time>2024-03-03T09:31:32Z</time>
      </trkpt>
      <trkpt lat="49.04789" lon="0.09523">
        <ele>76.5</ele>
        <time>2024-03-03T09:31:33Z</time>
      </trkpt>
      <trkpt lat="49.04796" lon="0.09517">
        <ele>76.7</ele>
        <time>2024-03-03T09:31:34Z</time>
      </trkpt>
      <trkpt lat="49.04803" lon="0.09509">
        <ele>76.8</ele>
        <time>2024-03-03T09:31:35Z</time>
      </trkpt>
      <trkpt lat="49.0481" lon="0.09502">
        <ele>77</ele>
        <time>2024-03-03T09:31:36Z</time>
      </trkpt>
      <trkpt lat="49.04817" lon="0.09495">
        <ele>77.1</ele>
        <time>2024-03-03T09:31:37Z</time>
      </trkpt>
      <trkpt lat="49.04824" lon="0.09488">
        <ele>77.2</ele>
        <time>2024-03-03T09:31:38Z</time>
      </trkpt>
      <trkpt lat="49.0483" lon="0.09481">
        <ele>77.2</ele>
        <time>2024-03-03T09:31:39Z</time>
      </trkpt>
      <trkpt lat="49.04837" lon="0.09474">
        <ele>77.3</ele>
        <time>2024-03-03T09:31:40Z</time>
      </trkpt>
      <trkpt lat="49.04844" lon="0.09468">
        <ele>77.3</ele>
        <time>2024-03-03T09:31:41Z</time>
      </trkpt>
      <trkpt lat="49.04851" lon="0.09462">
        <ele>77.3</ele>
        <time>2024-03-03T09:31:42Z</time>
      </trkpt>
      <trkpt lat="49.04857" lon="0.09456">
        <ele>77.3</ele>
        <time>2024-03-03T09:31:43Z</time>
      </trkpt>
      <trkpt lat="49.04864" lon="0.0945">
        <ele>77.3</ele>
        <time>2024-03-03T09:31:44Z</time>
      </trkpt>
      <trkpt lat="49.04871" lon="0.09444">
        <ele>77.2</ele>
        <time>2024-03-03T09:31:45Z</time>
      </trkpt>
      <trkpt lat="49.04878" lon="0.09439">
        <ele>77.1</ele>
        <time>2024-03-03T09:31:46Z</time>
      </trkpt>
      <trkpt lat="49.04885" lon="0.09434">
        <ele>77</ele>
        <time>2024-03-03T09:31:47Z</time>
      </trkpt>
      <trkpt lat="49.04891" lon="0.0943">
        <ele>76.9</ele>
        <time>2024-03-03T09:31:48Z</time>
      </trkpt>
      <trkpt lat="49.04898" lon="0.09425">
        <ele>76.8</ele>
        <time>2024-03-03T09:31:49Z</time>
      </trkpt>
      <trkpt lat="49.04905" lon="0.0942">
        <ele>76.7</ele>
        <time>2024-03-03T09:31:50Z</time>
      </trkpt>
      <trkpt lat="49.04912" lon="0.09416">
        <ele>76.6</ele>
        <time>2024-03-03T09:31:51Z</time>
      </trkpt>
      <trkpt lat="49.04919" lon="0.09412">
        <ele>76.4</ele>
        <time>2024-03-03T09:31:52Z</time>
      </trkpt>
      <trkpt lat="49.04926" lon="0.09408">
        <ele>76.3</ele>
        <time>2024-03-03T09:31:53Z</time>
      </trkpt>
      <trkpt lat="49.04932" lon="0.09404">
        <ele>76.2</ele>
        <time>2024-03-03T09:31:54Z</time>
      </trkpt>
      <trkpt lat="49.04938" lon="0.094">
        <ele>76.1</ele>
        <time>2024-03-03T09:31:55Z</time>
      </trkpt>
      <trkpt lat="49.04943" lon="0.09395">
        <ele>76</ele>
        <time>2024-03-03T09:31:56Z</time>
      </trkpt>
      <trkpt lat="49.04948" lon="0.0939">
        <ele>75.9</ele>
        <time>2024-03-03T09:31:57Z</time>
      </trkpt>
      <trkpt lat="49.04951" lon="0.09384">
        <ele>75.9</ele>
        <time>2024-03-03T09:31:58Z</time>
      </trkpt>
      <trkpt lat="49.04952" lon="0.09376">
        <ele>76</ele>
        <time>2024-03-03T09:31:59Z</time>
      </trkpt>
      <trkpt lat="49.04953" lon="0.09369">
        <ele>76.1</ele>
        <time>2024-03-03T09:32:00Z</time>
      </trkpt>
      <trkpt lat="49.04951" lon="0.09362">
        <ele>76.1</ele>
        <time>2024-03-03T09:32:01Z</time>
      </trkpt>
      <trkpt lat="49.0495" lon="0.09356">
        <ele>76.2</ele>
        <time>2024-03-03T09:32:02Z</time>
      </trkpt>
      <trkpt lat="49.04948" lon="0.09351">
        <ele>76.3</ele>
        <time>2024-03-03T09:32:03Z</time>
      </trkpt>
      <trkpt lat="49.04945" lon="0.09344">
        <ele>76.3</ele>
        <time>2024-03-03T09:32:04Z</time>
      </trkpt>
      <trkpt lat="49.04942" lon="0.09338">
        <ele>76.5</ele>
        <time>2024-03-03T09:32:05Z</time>
      </trkpt>
      <trkpt lat="49.04938" lon="0.09332">
        <ele>76.6</ele>
        <time>2024-03-03T09:32:06Z</time>
      </trkpt>
      <trkpt lat="49.04935" lon="0.09325">
        <ele>76.7</ele>
        <time>2024-03-03T09:32:07Z</time>
      </trkpt>
      <trkpt lat="49.04932" lon="0.09319">
        <ele>76.8</ele>
        <time>2024-03-03T09:32:08Z</time>
      </trkpt>
      <trkpt lat="49.0493" lon="0.09311">
        <ele>76.9</ele>
        <time>2024-03-03T09:32:09Z</time>
      </trkpt>
      <trkpt lat="49.04927" lon="0.09304">
        <ele>77</ele>
        <time>2024-03-03T09:32:10Z</time>
      </trkpt>
      <trkpt lat="49.04925" lon="0.09297">
        <ele>77.1</ele>
        <time>2024-03-03T09:32:11Z</time>
      </trkpt>
      <trkpt lat="49.04922" lon="0.09289">
        <ele>77.2</ele>
        <time>2024-03-03T09:32:12Z</time>
      </trkpt>
      <trkpt lat="49.0492" lon="0.09281">
        <ele>77.3</ele>
        <time>2024-03-03T09:32:13Z</time>
      </trkpt>
      <trkpt lat="49.04917" lon="0.09274">
        <ele>77.4</ele>
        <time>2024-03-03T09:32:14Z</time>
      </trkpt>
      <trkpt lat="49.04913" lon="0.09266">
        <ele>77.4</ele>
        <time>2024-03-03T09:32:15Z</time>
      </trkpt>
      <trkpt lat="49.04911" lon="0.09259">
        <ele>77.3</ele>
        <time>2024-03-03T09:32:16Z</time>
      </trkpt>
      <trkpt lat="49.04908" lon="0.09252">
        <ele>77.2</ele>
        <time>2024-03-03T09:32:17Z</time>
      </trkpt>
      <trkpt lat="49.04905" lon="0.09244">
        <ele>77</ele>
        <time>2024-03-03T09:32:18Z</time>
      </trkpt>
      <trkpt lat="49.04902" lon="0.09236">
        <ele>76.8</ele>
        <time>2024-03-03T09:32:19Z</time>
      </trkpt>
      <trkpt lat="49.04899" lon="0.09227">
        <ele>76.5</ele>
        <time>2024-03-03T09:32:20Z</time>
      </trkpt>
      <trkpt lat="49.04895" lon="0.09218">
        <ele>76.1</ele>
        <time>2024-03-03T09:32:21Z</time>
      </trkpt>
      <trkpt lat="49.04892" lon="0.09208">
        <ele>75.6</ele>
        <time>2024-03-03T09:32:22Z</time>
      </trkpt>
      <trkpt lat="49.04888" lon="0.09198">
        <ele>74.9</ele>
        <time>2024-03-03T09:32:23Z</time>
      </trkpt>
      <trkpt lat="49.04885" lon="0.09187">
        <ele>74.3</ele>
        <time>2024-03-03T09:32:24Z</time>
      </trkpt>
      <trkpt lat="49.04883" lon="0.09175">
        <ele>73.4</ele>
        <time>2024-03-03T09:32:25Z</time>
      </trkpt>
      <trkpt lat="49.04881" lon="0.09163">
        <ele>72.5</ele>
        <time>2024-03-03T09:32:26Z</time>
      </trkpt>
      <trkpt lat="49.04879" lon="0.0915">
        <ele>71.5</ele>
        <time>2024-03-03T09:32:27Z</time>
      </trkpt>
      <trkpt lat="49.04877" lon="0.09136">
        <ele>70.4</ele>
        <time>2024-03-03T09:32:28Z</time>
      </trkpt>
      <trkpt lat="49.04876" lon="0.09121">
        <ele>69.3</ele>
        <time>2024-03-03T09:32:29Z</time>
      </trkpt>
      <trkpt lat="49.04876" lon="0.09105">
        <ele>68.1</ele>
        <time>2024-03-03T09:32:30Z</time>
      </trkpt>
      <trkpt lat="49.04875" lon="0.09088">
        <ele>66.8</ele>
        <time>2024-03-03T09:32:31Z</time>
      </trkpt>
      <trkpt lat="49.04875" lon="0.09071">
        <ele>65.5</ele>
        <time>2024-03-03T09:32:32Z</time>
      </trkpt>
      <trkpt lat="49.04875" lon="0.09053">
        <ele>64.3</ele>
        <time>2024-03-03T09:32:33Z</time>
      </trkpt>
      <trkpt lat="49.04877" lon="0.09036">
        <ele>63.3</ele>
        <time>2024-03-03T09:32:34Z</time>
      </trkpt>
      <trkpt lat="49.04879" lon="0.09017">
        <ele>62.8</ele>
        <time>2024-03-03T09:32:35Z</time>
      </trkpt>
      <trkpt lat="49.04882" lon="0.08999">
        <ele>62</ele>
        <time>2024-03-03T09:32:36Z</time>
      </trkpt>
      <trkpt lat="49.04886" lon="0.0898">
        <ele>61.1</ele>
        <time>2024-03-03T09:32:37Z</time>
      </trkpt>
      <trkpt lat="49.0489" lon="0.08962">
        <ele>60.3</ele>
        <time>2024-03-03T09:32:38Z</time>
      </trkpt>
      <trkpt lat="49.04894" lon="0.08944">
        <ele>59.5</ele>
        <time>2024-03-03T09:32:39Z</time>
      </trkpt>
      <trkpt lat="49.04898" lon="0.08925">
        <ele>58.8</ele>
        <time>2024-03-03T09:32:40Z</time>
      </trkpt>
      <trkpt lat="49.04902" lon="0.08907">
        <ele>58.2</ele>
        <time>2024-03-03T09:32:41Z</time>
      </trkpt>
      <trkpt lat="49.04904" lon="0.08889">
        <ele>57.6</ele>
        <time>2024-03-03T09:32:42Z</time>
      </trkpt>
      <trkpt lat="49.04905" lon="0.08872">
        <ele>57.2</ele>
        <time>2024-03-03T09:32:43Z</time>
      </trkpt>
      <trkpt lat="49.04905" lon="0.08854">
        <ele>56.7</ele>
        <time>2024-03-03T09:32:44Z</time>
      </trkpt>
      <trkpt lat="49.04904" lon="0.08836">
        <ele>56.3</ele>
        <time>2024-03-03T09:32:45Z</time>
      </trkpt>
      <trkpt lat="49.04903" lon="0.08819">
        <ele>56</ele>
        <time>2024-03-03T09:32:46Z</time>
      </trkpt>
      <trkpt lat="49.04901" lon="0.08802">
        <ele>55.7</ele>
        <time>2024-03-03T09:32:47Z</time>
      </trkpt>
      <trkpt lat="49.04899" lon="0.08786">
        <ele>55.5</ele>
        <time>2024-03-03T09:32:48Z</time>
      </trkpt>
      <trkpt lat="49.04897" lon="0.08771">
        <ele>55.2</ele>
        <time>2024-03-03T09:32:49Z</time>
      </trkpt>
      <trkpt lat="49.04894" lon="0.08756">
        <ele>55</ele>
        <time>2024-03-03T09:32:50Z</time>
      </trkpt>
      <trkpt lat="49.04892" lon="0.08741">
        <ele>54.8</ele>
        <time>2024-03-03T09:32:51Z</time>
      </trkpt>
      <trkpt lat="49.0489" lon="0.08726">
        <ele>54.5</ele>
        <time>2024-03-03T09:32:52Z</time>
      </trkpt>
      <trkpt lat="49.04888" lon="0.08712">
        <ele>54.3</ele>
        <time>2024-03-03T09:32:53Z</time>
      </trkpt>
      <trkpt lat="49.04886" lon="0.08697">
        <ele>54.1</ele>
        <time>2024-03-03T09:32:54Z</time>
      </trkpt>
      <trkpt lat="49.04884" lon="0.08682">
        <ele>53.8</ele>
        <time>2024-03-03T09:32:55Z</time>
      </trkpt>
      <trkpt lat="49.04882" lon="0.08668">
        <ele>53.5</ele>
        <time>2024-03-03T09:32:56Z</time>
      </trkpt>
      <trkpt lat="49.0488" lon="0.08652">
        <ele>53.3</ele>
        <time>2024-03-03T09:32:57Z</time>
      </trkpt>
      <trkpt lat="49.04877" lon="0.08638">
        <ele>53</ele>
        <time>2024-03-03T09:32:58Z</time>
      </trkpt>
      <trkpt lat="49.04875" lon="0.08623">
        <ele>52.8</ele>
        <time>2024-03-03T09:32:59Z</time>
      </trkpt>
      <trkpt lat="49.04873" lon="0.08608">
        <ele>52.6</ele>
        <time>2024-03-03T09:33:00Z</time>
      </trkpt>
      <trkpt lat="49.04871" lon="0.08594">
        <ele>52.5</ele>
        <time>2024-03-03T09:33:01Z</time>
      </trkpt>
      <trkpt lat="49.04869" lon="0.08579">
        <ele>52.4</ele>
        <time>2024-03-03T09:33:02Z</time>
      </trkpt>
      <trkpt lat="49.04866" lon="0.08566">
        <ele>52.2</ele>
        <time>2024-03-03T09:33:03Z</time>
      </trkpt>
      <trkpt lat="49.04864" lon="0.08554">
        <ele>52</ele>
        <time>2024-03-03T09:33:04Z</time>
      </trkpt>
      <trkpt lat="49.04862" lon="0.08541">
        <ele>51.9</ele>
        <time>2024-03-03T09:33:05Z</time>
      </trkpt>
      <trkpt lat="49.0486" lon="0.08528">
        <ele>51.7</ele>
        <time>2024-03-03T09:33:06Z</time>
      </trkpt>
      <trkpt lat="49.04859" lon="0.08515">
        <ele>51.5</ele>
        <time>2024-03-03T09:33:07Z</time>
      </trkpt>
      <trkpt lat="49.04858" lon="0.08503">
        <ele>51.3</ele>
        <time>2024-03-03T09:33:08Z</time>
      </trkpt>
      <trkpt lat="49.04857" lon="0.0849">
        <ele>51.1</ele>
        <time>2024-03-03T09:33:09Z</time>
      </trkpt>
      <trkpt lat="49.04856" lon="0.08477">
        <ele>51</ele>
        <time>2024-03-03T09:33:10Z</time>
      </trkpt>
      <trkpt lat="49.04855" lon="0.08464">
        <ele>50.9</ele>
        <time>2024-03-03T09:33:11Z</time>
      </trkpt>
      <trkpt lat="49.04853" lon="0.08451">
        <ele>50.7</ele>
        <time>2024-03-03T09:33:12Z</time>
      </trkpt>
      <trkpt lat="49.04852" lon="0.08438">
        <ele>50.6</ele>
        <time>2024-03-03T09:33:13Z</time>
      </trkpt>
      <trkpt lat="49.0485" lon="0.08425">
        <ele>50.5</ele>
        <time>2024-03-03T09:33:14Z</time>
      </trkpt>
      <trkpt lat="49.04848" lon="0.08413">
        <ele>50.5</ele>
        <time>2024-03-03T09:33:15Z</time>
      </trkpt>
      <trkpt lat="49.04847" lon="0.084">
        <ele>50.4</ele>
        <time>2024-03-03T09:33:16Z</time>
      </trkpt>
      <trkpt lat="49.04844" lon="0.08387">
        <ele>50.4</ele>
        <time>2024-03-03T09:33:17Z</time>
      </trkpt>
      <trkpt lat="49.04842" lon="0.08375">
        <ele>50.3</ele>
        <time>2024-03-03T09:33:18Z</time>
      </trkpt>
      <trkpt lat="49.0484" lon="0.08363">
        <ele>50.2</ele>
        <time>2024-03-03T09:33:19Z</time>
      </trkpt>
      <trkpt lat="49.04839" lon="0.08352">
        <ele>50.2</ele>
        <time>2024-03-03T09:33:20Z</time>
      </trkpt>
      <trkpt lat="49.04837" lon="0.08341">
        <ele>50.2</ele>
        <time>2024-03-03T09:33:21Z</time>
      </trkpt>
      <trkpt lat="49.04834" lon="0.0833">
        <ele>50.1</ele>
        <time>2024-03-03T09:33:22Z</time>
      </trkpt>
      <trkpt lat="49.04832" lon="0.0832">
        <ele>50.1</ele>
        <time>2024-03-03T09:33:23Z</time>
      </trkpt>
      <trkpt lat="49.04829" lon="0.0831">
        <ele>50.1</ele>
        <time>2024-03-03T09:33:24Z</time>
      </trkpt>
      <trkpt lat="49.04825" lon="0.08302">
        <ele>50.1</ele>
        <time>2024-03-03T09:33:25Z</time>
      </trkpt>
      <trkpt lat="49.04821" lon="0.08294">
        <ele>50.2</ele>
        <time>2024-03-03T09:33:26Z</time>
      </trkpt>
      <trkpt lat="49.04816" lon="0.08286">
        <ele>50.2</ele>
        <time>2024-03-03T09:33:27Z</time>
      </trkpt>
      <trkpt lat="49.04812" lon="0.08279">
        <ele>50.3</ele>
        <time>2024-03-03T09:33:28Z</time>
      </trkpt>
      <trkpt lat="49.04807" lon="0.08272">
        <ele>50.3</ele>
        <time>2024-03-03T09:33:29Z</time>
      </trkpt>
      <trkpt lat="49.04802" lon="0.08266">
        <ele>50.4</ele>
        <time>2024-03-03T09:33:30Z</time>
      </trkpt>
      <trkpt lat="49.04796" lon="0.08259">
        <ele>50.5</ele>
        <time>2024-03-03T09:33:31Z</time>
      </trkpt>
      <trkpt lat="49.04791" lon="0.08253">
        <ele>50.5</ele>
        <time>2024-03-03T09:33:32Z</time>
      </trkpt>
      <trkpt lat="49.04785" lon="0.08246">
        <ele>50.6</ele>
        <time>2024-03-03T09:33:33Z</time>
      </trkpt>
      <trkpt lat="49.04779" lon="0.0824">
        <ele>50.7</ele>
        <time>2024-03-03T09:33:34Z</time>
      </trkpt>
      <trkpt lat="49.04774" lon="0.08234">
        <ele>50.8</ele>
        <time>2024-03-03T09:33:35Z</time>
      </trkpt>
      <trkpt lat="49.04769" lon="0.08228">
        <ele>50.8</ele>
        <time>2024-03-03T09:33:36Z</time>
      </trkpt>
      <trkpt lat="49.04763" lon="0.08221">
        <ele>50.9</ele>
        <time>2024-03-03T09:33:37Z</time>
      </trkpt>
      <trkpt lat="49.04757" lon="0.08215">
        <ele>51</ele>
        <time>2024-03-03T09:33:38Z</time>
      </trkpt>
      <trkpt lat="49.04751" lon="0.08209">
        <ele>51</ele>
        <time>2024-03-03T09:33:39Z</time>
      </trkpt>
      <trkpt lat="49.04745" lon="0.08203">
        <ele>51.1</ele>
        <time>2024-03-03T09:33:40Z</time>
      </trkpt>
      <trkpt lat="49.04739" lon="0.08197">
        <ele>51.2</ele>
        <time>2024-03-03T09:33:41Z</time>
      </trkpt>
      <trkpt lat="49.04733" lon="0.08191">
        <ele>51.3</ele>
        <time>2024-03-03T09:33:42Z</time>
      </trkpt>
      <trkpt lat="49.04727" lon="0.08186">
        <ele>51.4</ele>
        <time>2024-03-03T09:33:43Z</time>
      </trkpt>
      <trkpt lat="49.04721" lon="0.0818">
        <ele>51.5</ele>
        <time>2024-03-03T09:33:44Z</time>
      </trkpt>
      <trkpt lat="49.04716" lon="0.08175">
        <ele>51.6</ele>
        <time>2024-03-03T09:33:45Z</time>
      </trkpt>
      <trkpt lat="49.0471" lon="0.08168">
        <ele>51.7</ele>
        <time>2024-03-03T09:33:46Z</time>
      </trkpt>
      <trkpt lat="49.04705" lon="0.08162">
        <ele>51.8</ele>
        <time>2024-03-03T09:33:47Z</time>
      </trkpt>
      <trkpt lat="49.04699" lon="0.08157">
        <ele>51.8</ele>
        <time>2024-03-03T09:33:48Z</time>
      </trkpt>
      <trkpt lat="49.04694" lon="0.08151">
        <ele>51.9</ele>
        <time>2024-03-03T09:33:49Z</time>
      </trkpt>
      <trkpt lat="49.04689" lon="0.08145">
        <ele>52</ele>
        <time>2024-03-03T09:33:50Z</time>
      </trkpt>
      <trkpt lat="49.04684" lon="0.08139">
        <ele>52</ele>
        <time>2024-03-03T09:33:51Z</time>
      </trkpt>
      <trkpt lat="49.04679" lon="0.08133">
        <ele>52.1</ele>
        <time>2024-03-03T09:33:52Z</time>
      </trkpt>
      <trkpt lat="49.04674" lon="0.08127">
        <ele>52.2</ele>
        <time>2024-03-03T09:33:53Z</time>
      </trkpt>
      <trkpt lat="49.04669" lon="0.08119">
        <ele>52.3</ele>
        <time>2024-03-03T09:33:54Z</time>
      </trkpt>
      <trkpt lat="49.04664" lon="0.08112">
        <ele>52.4</ele>
        <time>2024-03-03T09:33:55Z</time>
      </trkpt>
      <trkpt lat="49.04659" lon="0.08105">
        <ele>52.5</ele>
        <time>2024-03-03T09:33:56Z</time>
      </trkpt>
      <trkpt lat="49.04654" lon="0.08097">
        <ele>52.6</ele>
        <time>2024-03-03T09:33:57Z</time>
      </trkpt>
      <trkpt lat="49.04649" lon="0.0809">
        <ele>52.7</ele>
        <time>2024-03-03T09:33:58Z</time>
      </trkpt>
      <trkpt lat="49.04644" lon="0.08084">
        <ele>52.8</ele>
        <time>2024-03-03T09:33:59Z</time>
      </trkpt>
      <trkpt lat="49.0464" lon="0.08077">
        <ele>52.8</ele>
        <time>2024-03-03T09:34:00Z</time>
      </trkpt>
      <trkpt lat="49.04636" lon="0.0807">
        <ele>52.9</ele>
        <time>2024-03-03T09:34:01Z</time>
      </trkpt>
      <trkpt lat="49.04633" lon="0.08062">
        <ele>52.9</ele>
        <time>2024-03-03T09:34:02Z</time>
      </trkpt>
      <trkpt lat="49.04631" lon="0.08055">
        <ele>53</ele>
        <time>2024-03-03T09:34:03Z</time>
      </trkpt>
      <trkpt lat="49.04629" lon="0.08048">
        <ele>53</ele>
        <time>2024-03-03T09:34:04Z</time>
      </trkpt>
      <trkpt lat="49.04625" lon="0.08042">
        <ele>53.1</ele>
        <time>2024-03-03T09:34:05Z</time>
      </trkpt>
      <trkpt lat="49.04621" lon="0.08036">
        <ele>53.1</ele>
        <time>2024-03-03T09:34:06Z</time>
      </trkpt>
      <trkpt lat="49.04618" lon="0.08029">
        <ele>53.2</ele>
        <time>2024-03-03T09:34:07Z</time>
      </trkpt>
      <trkpt lat="49.04614" lon="0.08022">
        <ele>53.3</ele>
        <time>2024-03-03T09:34:08Z</time>
      </trkpt>
      <trkpt lat="49.04611" lon="0.08015">
        <ele>53.3</ele>
        <time>2024-03-03T09:34:09Z</time>
      </trkpt>
      <trkpt lat="49.04608" lon="0.08006">
        <ele>53.3</ele>
        <time>2024-03-03T09:34:10Z</time>
      </trkpt>
      <trkpt lat="49.04605" lon="0.07998">
        <ele>53.4</ele>
        <time>2024-03-03T09:34:11Z</time>
      </trkpt>
      <trkpt lat="49.04602" lon="0.07991">
        <ele>53.4</ele>
        <time>2024-03-03T09:34:12Z</time>
      </trkpt>
      <trkpt lat="49.046" lon="0.07983">
        <ele>53.5</ele>
        <time>2024-03-03T09:34:13Z</time>
      </trkpt>
      <trkpt lat="49.04597" lon="0.07975">
        <ele>53.5</ele>
        <time>2024-03-03T09:34:14Z</time>
      </trkpt>
      <trkpt lat="49.04593" lon="0.07967">
        <ele>53.6</ele>
        <time>2024-03-03T09:34:15Z</time>
      </trkpt>
      <trkpt lat="49.04589" lon="0.0796">
        <ele>53.7</ele>
        <time>2024-03-03T09:34:16Z</time>
      </trkpt>
      <trkpt lat="49.04587" lon="0.07953">
        <ele>53.7</ele>
        <time>2024-03-03T09:34:17Z</time>
      </trkpt>
      <trkpt lat="49.04584" lon="0.07945">
        <ele>53.8</ele>
        <time>2024-03-03T09:34:18Z</time>
      </trkpt>
      <trkpt lat="49.0458" lon="0.07938">
        <ele>53.9</ele>
        <time>2024-03-03T09:34:19Z</time>
      </trkpt>
      <trkpt lat="49.04577" lon="0.0793">
        <ele>54</ele>
        <time>2024-03-03T09:34:20Z</time>
      </trkpt>
      <trkpt lat="49.04575" lon="0.07922">
        <ele>54</ele>
        <time>2024-03-03T09:34:21Z</time>
      </trkpt>
      <trkpt lat="49.04573" lon="0.07914">
        <ele>54.1</ele>
        <time>2024-03-03T09:34:22Z</time>
      </trkpt>
      <trkpt lat="49.04571" lon="0.07905">
        <ele>54.2</ele>
        <time>2024-03-03T09:34:23Z</time>
      </trkpt>
      <trkpt lat="49.04567" lon="0.07897">
        <ele>54.3</ele>
        <time>2024-03-03T09:34:24Z</time>
      </trkpt>
      <trkpt lat="49.04564" lon="0.07889">
        <ele>54.4</ele>
        <time>2024-03-03T09:34:25Z</time>
      </trkpt>
      <trkpt lat="49.0456" lon="0.07881">
        <ele>54.5</ele>
        <time>2024-03-03T09:34:26Z</time>
      </trkpt>
      <trkpt lat="49.04557" lon="0.07873">
        <ele>54.6</ele>
        <time>2024-03-03T09:34:27Z</time>
      </trkpt>
      <trkpt lat="49.04554" lon="0.07867">
        <ele>54.7</ele>
        <time>2024-03-03T09:34:28Z</time>
      </trkpt>
      <trkpt lat="49.04552" lon="0.07861">
        <ele>54.7</ele>
        <time>2024-03-03T09:34:29Z</time>
      </trkpt>
      <trkpt lat="49.0455" lon="0.07855">
        <ele>54.8</ele>
        <time>2024-03-03T09:34:30Z</time>
      </trkpt>
      <trkpt lat="49.04546" lon="0.07848">
        <ele>54.9</ele>
        <time>2024-03-03T09:34:31Z</time>
      </trkpt>
      <trkpt lat="49.04542" lon="0.0784">
        <ele>55</ele>
        <time>2024-03-03T09:34:32Z</time>
      </trkpt>
      <trkpt lat="49.04538" lon="0.07833">
        <ele>55.1</ele>
        <time>2024-03-03T09:34:33Z</time>
      </trkpt>
      <trkpt lat="49.04534" lon="0.07826">
        <ele>55.2</ele>
        <time>2024-03-03T09:34:34Z</time>
      </trkpt>
      <trkpt lat="49.04532" lon="0.07818">
        <ele>55.3</ele>
        <time>2024-03-03T09:34:35Z</time>
      </trkpt>
      <trkpt lat="49.04529" lon="0.07812">
        <ele>55.4</ele>
        <time>2024-03-03T09:34:36Z</time>
      </trkpt>
      <trkpt lat="49.04526" lon="0.07804">
        <ele>55.5</ele>
        <time>2024-03-03T09:34:37Z</time>
      </trkpt>
      <trkpt lat="49.04522" lon="0.07797">
        <ele>55.5</ele>
        <time>2024-03-03T09:34:38Z</time>
      </trkpt>
      <trkpt lat="49.0452" lon="0.07789">
        <ele>55.6</ele>
        <time>2024-03-03T09:34:39Z</time>
      </trkpt>
      <trkpt lat="49.04517" lon="0.07783">
        <ele>55.6</ele>
        <time>2024-03-03T09:34:40Z</time>
      </trkpt>
      <trkpt lat="49.04515" lon="0.07775">
        <ele>55.7</ele>
        <time>2024-03-03T09:34:41Z</time>
      </trkpt>
      <trkpt lat="49.04511" lon="0.07767">
        <ele>55.7</ele>
        <time>2024-03-03T09:34:42Z</time>
      </trkpt>
      <trkpt lat="49.04508" lon="0.07759">
        <ele>55.7</ele>
        <time>2024-03-03T09:34:43Z</time>
      </trkpt>
      <trkpt lat="49.04505" lon="0.07752">
        <ele>55.8</ele>
        <time>2024-03-03T09:34:44Z</time>
      </trkpt>
      <trkpt lat="49.04503" lon="0.07746">
        <ele>55.8</ele>
        <time>2024-03-03T09:34:45Z</time>
      </trkpt>
      <trkpt lat="49.04502" lon="0.07741">
        <ele>55.9</ele>
        <time>2024-03-03T09:34:46Z</time>
      </trkpt>
      <trkpt lat="49.045" lon="0.07735">
        <ele>56</ele>
        <time>2024-03-03T09:34:47Z</time>
      </trkpt>
      <trkpt lat="49.04499" lon="0.07728">
        <ele>56.1</ele>
        <time>2024-03-03T09:34:48Z</time>
      </trkpt>
      <trkpt lat="49.04497" lon="0.0772">
        <ele>56.2</ele>
        <time>2024-03-03T09:34:49Z</time>
      </trkpt>
      <trkpt lat="49.04494" lon="0.07709">
        <ele>56.3</ele>
        <time>2024-03-03T09:34:50Z</time>
      </trkpt>
      <trkpt lat="49.04491" lon="0.07701">
        <ele>56.5</ele>
        <time>2024-03-03T09:34:51Z</time>
      </trkpt>
      <trkpt lat="49.04489" lon="0.0769">
        <ele>56.7</ele>
        <time>2024-03-03T09:34:52Z</time>
      </trkpt>
      <trkpt lat="49.04487" lon="0.0768">
        <ele>56.9</ele>
        <time>2024-03-03T09:34:53Z</time>
      </trkpt>
      <trkpt lat="49.04485" lon="0.07671">
        <ele>57.1</ele>
        <time>2024-03-03T09:34:54Z</time>
      </trkpt>
      <trkpt lat="49.04482" lon="0.07661">
        <ele>57.3</ele>
        <time>2024-03-03T09:34:55Z</time>
      </trkpt>
      <trkpt lat="49.04479" lon="0.07652">
        <ele>57.5</ele>
        <time>2024-03-03T09:34:56Z</time>
      </trkpt>
      <trkpt lat="49.04478" lon="0.07644">
        <ele>57.7</ele>
        <time>2024-03-03T09:34:57Z</time>
      </trkpt>
      <trkpt lat="49.04477" lon="0.07638">
        <ele>57.9</ele>
        <time>2024-03-03T09:34:58Z</time>
      </trkpt>
      <trkpt lat="49.04476" lon="0.07631">
        <ele>58</ele>
        <time>2024-03-03T09:34:59Z</time>
      </trkpt>
      <trkpt lat="49.04476" lon="0.07625">
        <ele>58.2</ele>
        <time>2024-03-03T09:35:00Z</time>
      </trkpt>
      <trkpt lat="49.04476" lon="0.07619">
        <ele>58.4</ele>
        <time>2024-03-03T09:35:01Z</time>
      </trkpt>
      <trkpt lat="49.04476" lon="0.07611">
        <ele>58.6</ele>
        <time>2024-03-03T09:35:02Z</time>
      </trkpt>
      <trkpt lat="49.04476" lon="0.076">
        <ele>58.8</ele>
        <time>2024-03-03T09:35:03Z</time>
      </trkpt>
      <trkpt lat="49.04477" lon="0.07589">
        <ele>59.1</ele>
        <time>2024-03-03T09:35:04Z</time>
      </trkpt>
      <trkpt lat="49.04476" lon="0.0758">
        <ele>59.3</ele>
        <time>2024-03-03T09:35:05Z</time>
      </trkpt>
      <trkpt lat="49.04475" lon="0.07569">
        <ele>59.6</ele>
        <time>2024-03-03T09:35:06Z</time>
      </trkpt>
      <trkpt lat="49.04475" lon="0.07559">
        <ele>59.9</ele>
        <time>2024-03-03T09:35:07Z</time>
      </trkpt>
      <trkpt lat="49.04474" lon="0.07548">
        <ele>59.9</ele>
        <time>2024-03-03T09:35:08Z</time>
      </trkpt>
      <trkpt lat="49.04473" lon="0.07538">
        <ele>60.2</ele>
        <time>2024-03-03T09:35:09Z</time>
      </trkpt>
      <trkpt lat="49.04472" lon="0.07529">
        <ele>60.5</ele>
        <time>2024-03-03T09:35:10Z</time>
      </trkpt>
      <trkpt lat="49.04471" lon="0.07518">
        <ele>60.8</ele>
        <time>2024-03-03T09:35:11Z</time>
      </trkpt>
      <trkpt lat="49.0447" lon="0.07508">
        <ele>61.1</ele>
        <time>2024-03-03T09:35:12Z</time>
      </trkpt>
      <trkpt lat="49.04468" lon="0.07498">
        <ele>61.4</ele>
        <time>2024-03-03T09:35:13Z</time>
      </trkpt>
      <trkpt lat="49.04467" lon="0.07489">
        <ele>61.7</ele>
        <time>2024-03-03T09:35:14Z</time>
      </trkpt>
      <trkpt lat="49.04467" lon="0.07479">
        <ele>61.9</ele>
        <time>2024-03-03T09:35:15Z</time>
      </trkpt>
      <trkpt lat="49.04467" lon="0.0747">
        <ele>62.2</ele>
        <time>2024-03-03T09:35:16Z</time>
      </trkpt>
      <trkpt lat="49.04467" lon="0.0746">
        <ele>62.5</ele>
        <time>2024-03-03T09:35:17Z</time>
      </trkpt>
      <trkpt lat="49.04467" lon="0.07451">
        <ele>62.7</ele>
        <time>2024-03-03T09:35:18Z</time>
      </trkpt>
      <trkpt lat="49.04467" lon="0.07442">
        <ele>63</ele>
        <time>2024-03-03T09:35:19Z</time>
      </trkpt>
      <trkpt lat="49.04467" lon="0.07433">
        <ele>63.2</ele>
        <time>2024-03-03T09:35:20Z</time>
      </trkpt>
      <trkpt lat="49.04466" lon="0.07423">
        <ele>63.3</ele>
        <time>2024-03-03T09:35:21Z</time>
      </trkpt>
      <trkpt lat="49.04466" lon="0.07413">
        <ele>63.5</ele>
        <time>2024-03-03T09:35:22Z</time>
      </trkpt>
      <trkpt lat="49.04466" lon="0.07404">
        <ele>63.6</ele>
        <time>2024-03-03T09:35:23Z</time>
      </trkpt>
      <trkpt lat="49.04466" lon="0.07395">
        <ele>63.7</ele>
        <time>2024-03-03T09:35:24Z</time>
      </trkpt>
      <trkpt lat="49.04466" lon="0.07385">
        <ele>63.7</ele>
        <time>2024-03-03T09:35:25Z</time>
      </trkpt>
      <trkpt lat="49.04466" lon="0.07374">
        <ele>63.8</ele>
        <time>2024-03-03T09:35:26Z</time>
      </trkpt>
      <trkpt lat="49.04465" lon="0.07364">
        <ele>63.8</ele>
        <time>2024-03-03T09:35:27Z</time>
      </trkpt>
      <trkpt lat="49.04464" lon="0.07354">
        <ele>63.9</ele>
        <time>2024-03-03T09:35:28Z</time>
      </trkpt>
      <trkpt lat="49.04463" lon="0.07344">
        <ele>63.9</ele>
        <time>2024-03-03T09:35:29Z</time>
      </trkpt>
      <trkpt lat="49.04461" lon="0.07334">
        <ele>63.9</ele>
        <time>2024-03-03T09:35:30Z</time>
      </trkpt>
      <trkpt lat="49.0446" lon="0.07323">
        <ele>63.8</ele>
        <time>2024-03-03T09:35:31Z</time>
      </trkpt>
      <trkpt lat="49.04458" lon="0.07312">
        <ele>63.7</ele>
        <time>2024-03-03T09:35:32Z</time>
      </trkpt>
      <trkpt lat="49.04456" lon="0.07301">
        <ele>63.6</ele>
        <time>2024-03-03T09:35:33Z</time>
      </trkpt>
      <trkpt lat="49.04453" lon="0.07291">
        <ele>63.5</ele>
        <time>2024-03-03T09:35:34Z</time>
      </trkpt>
      <trkpt lat="49.0445" lon="0.07279">
        <ele>63.3</ele>
        <time>2024-03-03T09:35:35Z</time>
      </trkpt>
      <trkpt lat="49.04448" lon="0.07268">
        <ele>63.2</ele>
        <time>2024-03-03T09:35:36Z</time>
      </trkpt>
      <trkpt lat="49.04446" lon="0.07257">
        <ele>63.1</ele>
        <time>2024-03-03T09:35:37Z</time>
      </trkpt>
      <trkpt lat="49.04443" lon="0.07246">
        <ele>63</ele>
        <time>2024-03-03T09:35:38Z</time>
      </trkpt>
      <trkpt lat="49.0444" lon="0.07235">
        <ele>62.9</ele>
        <time>2024-03-03T09:35:39Z</time>
      </trkpt>
      <trkpt lat="49.04438" lon="0.07224">
        <ele>62.8</ele>
        <time>2024-03-03T09:35:40Z</time>
      </trkpt>
      <trkpt lat="49.04435" lon="0.07214">
        <ele>62.8</ele>
        <time>2024-03-03T09:35:41Z</time>
      </trkpt>
      <trkpt lat="49.04431" lon="0.07204">
        <ele>62.8</ele>
        <time>2024-03-03T09:35:42Z</time>
      </trkpt>
      <trkpt lat="49.04428" lon="0.07194">
        <ele>62.8</ele>
        <time>2024-03-03T09:35:43Z</time>
      </trkpt>
      <trkpt lat="49.04426" lon="0.07186">
        <ele>62.8</ele>
        <time>2024-03-03T09:35:44Z</time>
      </trkpt>
      <trkpt lat="49.04423" lon="0.07178">
        <ele>62.8</ele>
        <time>2024-03-03T09:35:45Z</time>
      </trkpt>
      <trkpt lat="49.0442" lon="0.07169">
        <ele>62.9</ele>
        <time>2024-03-03T09:35:46Z</time>
      </trkpt>
      <trkpt lat="49.04416" lon="0.07159">
        <ele>62.9</ele>
        <time>2024-03-03T09:35:47Z</time>
      </trkpt>
      <trkpt lat="49.04413" lon="0.0715">
        <ele>63</ele>
        <time>2024-03-03T09:35:48Z</time>
      </trkpt>
      <trkpt lat="49.0441" lon="0.0714">
        <ele>63</ele>
        <time>2024-03-03T09:35:49Z</time>
      </trkpt>
      <trkpt lat="49.04406" lon="0.07131">
        <ele>63</ele>
        <time>2024-03-03T09:35:50Z</time>
      </trkpt>
      <trkpt lat="49.04402" lon="0.07122">
        <ele>63.1</ele>
        <time>2024-03-03T09:35:51Z</time>
      </trkpt>
      <trkpt lat="49.04398" lon="0.07113">
        <ele>63.1</ele>
        <time>2024-03-03T09:35:52Z</time>
      </trkpt>
      <trkpt lat="49.04394" lon="0.07103">
        <ele>63.1</ele>
        <time>2024-03-03T09:35:53Z</time>
      </trkpt>
      <trkpt lat="49.0439" lon="0.07094">
        <ele>63.2</ele>
        <time>2024-03-03T09:35:54Z</time>
      </trkpt>
      <trkpt lat="49.04385" lon="0.07085">
        <ele>63.2</ele>
        <time>2024-03-03T09:35:55Z</time>
      </trkpt>
      <trkpt lat="49.04382" lon="0.07077">
        <ele>63.3</ele>
        <time>2024-03-03T09:35:56Z</time>
      </trkpt>
      <trkpt lat="49.04379" lon="0.07069">
        <ele>63.4</ele>
        <time>2024-03-03T09:35:57Z</time>
      </trkpt>
      <trkpt lat="49.04377" lon="0.07061">
        <ele>63.4</ele>
        <time>2024-03-03T09:35:58Z</time>
      </trkpt>
      <trkpt lat="49.04374" lon="0.07053">
        <ele>63.5</ele>
        <time>2024-03-03T09:35:59Z</time>
      </trkpt>
      <trkpt lat="49.04371" lon="0.07044">
        <ele>63.5</ele>
        <time>2024-03-03T09:36:00Z</time>
      </trkpt>
      <trkpt lat="49.04369" lon="0.07037">
        <ele>63.5</ele>
        <time>2024-03-03T09:36:01Z</time>
      </trkpt>
      <trkpt lat="49.04368" lon="0.07029">
        <ele>63.6</ele>
        <time>2024-03-03T09:36:02Z</time>
      </trkpt>
      <trkpt lat="49.04366" lon="0.0702">
        <ele>63.6</ele>
        <time>2024-03-03T09:36:03Z</time>
      </trkpt>
      <trkpt lat="49.04365" lon="0.07012">
        <ele>63.6</ele>
        <time>2024-03-03T09:36:04Z</time>
      </trkpt>
      <trkpt lat="49.04362" lon="0.07003">
        <ele>63.5</ele>
        <time>2024-03-03T09:36:05Z</time>
      </trkpt>
      <trkpt lat="49.04358" lon="0.06995">
        <ele>63.4</ele>
        <time>2024-03-03T09:36:06Z</time>
      </trkpt>
      <trkpt lat="49.04355" lon="0.06986">
        <ele>63.3</ele>
        <time>2024-03-03T09:36:07Z</time>
      </trkpt>
      <trkpt lat="49.04352" lon="0.06978">
        <ele>63.2</ele>
        <time>2024-03-03T09:36:08Z</time>
      </trkpt>
      <trkpt lat="49.04348" lon="0.06968">
        <ele>63.1</ele>
        <time>2024-03-03T09:36:09Z</time>
      </trkpt>
      <trkpt lat="49.04345" lon="0.06959">
        <ele>62.9</ele>
        <time>2024-03-03T09:36:10Z</time>
      </trkpt>
      <trkpt lat="49.04342" lon="0.06949">
        <ele>62.7</ele>
        <time>2024-03-03T09:36:11Z</time>
      </trkpt>
      <trkpt lat="49.04338" lon="0.06939">
        <ele>62.5</ele>
        <time>2024-03-03T09:36:12Z</time>
      </trkpt>
      <trkpt lat="49.04335" lon="0.06928">
        <ele>62.2</ele>
        <time>2024-03-03T09:36:13Z</time>
      </trkpt>
      <trkpt lat="49.04332" lon="0.06917">
        <ele>62</ele>
        <time>2024-03-03T09:36:14Z</time>
      </trkpt>
      <trkpt lat="49.04328" lon="0.06905">
        <ele>61.7</ele>
        <time>2024-03-03T09:36:15Z</time>
      </trkpt>
      <trkpt lat="49.04324" lon="0.06891">
        <ele>61.4</ele>
        <time>2024-03-03T09:36:16Z</time>
      </trkpt>
      <trkpt lat="49.0432" lon="0.06878">
        <ele>61.1</ele>
        <time>2024-03-03T09:36:17Z</time>
      </trkpt>
      <trkpt lat="49.04316" lon="0.06865">
        <ele>60.7</ele>
        <time>2024-03-03T09:36:18Z</time>
      </trkpt>
      <trkpt lat="49.04313" lon="0.06851">
        <ele>60.3</ele>
        <time>2024-03-03T09:36:19Z</time>
      </trkpt>
      <trkpt lat="49.0431" lon="0.06838">
        <ele>59.8</ele>
        <time>2024-03-03T09:36:20Z</time>
      </trkpt>
      <trkpt lat="49.04308" lon="0.06824">
        <ele>59.4</ele>
        <time>2024-03-03T09:36:21Z</time>
      </trkpt>
      <trkpt lat="49.04307" lon="0.0681">
        <ele>59</ele>
        <time>2024-03-03T09:36:22Z</time>
      </trkpt>
      <trkpt lat="49.04305" lon="0.06796">
        <ele>58.6</ele>
        <time>2024-03-03T09:36:23Z</time>
      </trkpt>
      <trkpt lat="49.04304" lon="0.06782">
        <ele>58.3</ele>
        <time>2024-03-03T09:36:24Z</time>
      </trkpt>
      <trkpt lat="49.04303" lon="0.06769">
        <ele>58</ele>
        <time>2024-03-03T09:36:25Z</time>
      </trkpt>
      <trkpt lat="49.04303" lon="0.06755">
        <ele>57.6</ele>
        <time>2024-03-03T09:36:26Z</time>
      </trkpt>
      <trkpt lat="49.04303" lon="0.06741">
        <ele>57.2</ele>
        <time>2024-03-03T09:36:27Z</time>
      </trkpt>
      <trkpt lat="49.04303" lon="0.06727">
        <ele>56.8</ele>
        <time>2024-03-03T09:36:28Z</time>
      </trkpt>
      <trkpt lat="49.04303" lon="0.06713">
        <ele>56.4</ele>
        <time>2024-03-03T09:36:29Z</time>
      </trkpt>
      <trkpt lat="49.04302" lon="0.06699">
        <ele>56</ele>
        <time>2024-03-03T09:36:30Z</time>
      </trkpt>
      <trkpt lat="49.04302" lon="0.06684">
        <ele>55.6</ele>
        <time>2024-03-03T09:36:31Z</time>
      </trkpt>
      <trkpt lat="49.04302" lon="0.0667">
        <ele>55.2</ele>
        <time>2024-03-03T09:36:32Z</time>
      </trkpt>
      <trkpt lat="49.04302" lon="0.06656">
        <ele>54.8</ele>
        <time>2024-03-03T09:36:33Z</time>
      </trkpt>
      <trkpt lat="49.04302" lon="0.06642">
        <ele>54.5</ele>
        <time>2024-03-03T09:36:34Z</time>
      </trkpt>
      <trkpt lat="49.04302" lon="0.06627">
        <ele>54.2</ele>
        <time>2024-03-03T09:36:35Z</time>
      </trkpt>
      <trkpt lat="49.04302" lon="0.06612">
        <ele>53.9</ele>
        <time>2024-03-03T09:36:36Z</time>
      </trkpt>
      <trkpt lat="49.04302" lon="0.06598">
        <ele>53.7</ele>
        <time>2024-03-03T09:36:37Z</time>
      </trkpt>
      <trkpt lat="49.04302" lon="0.06584">
        <ele>53.5</ele>
        <time>2024-03-03T09:36:38Z</time>
      </trkpt>
      <trkpt lat="49.04301" lon="0.0657">
        <ele>53.3</ele>
        <time>2024-03-03T09:36:39Z</time>
      </trkpt>
      <trkpt lat="49.043" lon="0.06556">
        <ele>53.1</ele>
        <time>2024-03-03T09:36:40Z</time>
      </trkpt>
      <trkpt lat="49.04299" lon="0.06544">
        <ele>53</ele>
        <time>2024-03-03T09:36:41Z</time>
      </trkpt>
      <trkpt lat="49.04297" lon="0.0653">
        <ele>52.9</ele>
        <time>2024-03-03T09:36:42Z</time>
      </trkpt>
      <trkpt lat="49.04295" lon="0.06517">
        <ele>52.8</ele>
        <time>2024-03-03T09:36:43Z</time>
      </trkpt>
      <trkpt lat="49.04292" lon="0.06503">
        <ele>52.7</ele>
        <time>2024-03-03T09:36:44Z</time>
      </trkpt>
      <trkpt lat="49.04289" lon="0.06489">
        <ele>52.6</ele>
        <time>2024-03-03T09:36:45Z</time>
      </trkpt>
      <trkpt lat="49.04286" lon="0.06475">
        <ele>52.6</ele>
        <time>2024-03-03T09:36:46Z</time>
      </trkpt>
      <trkpt lat="49.04283" lon="0.06461">
        <ele>52.6</ele>
        <time>2024-03-03T09:36:47Z</time>
      </trkpt>
      <trkpt lat="49.04281" lon="0.06449">
        <ele>52.6</ele>
        <time>2024-03-03T09:36:48Z</time>
      </trkpt>
      <trkpt lat="49.04279" lon="0.06437">
        <ele>52.6</ele>
        <time>2024-03-03T09:36:49Z</time>
      </trkpt>
      <trkpt lat="49.04277" lon="0.06425">
        <ele>52.6</ele>
        <time>2024-03-03T09:36:50Z</time>
      </trkpt>
      <trkpt lat="49.04275" lon="0.06414">
        <ele>52.7</ele>
        <time>2024-03-03T09:36:51Z</time>
      </trkpt>
      <trkpt lat="49.04273" lon="0.06404">
        <ele>52.7</ele>
        <time>2024-03-03T09:36:52Z</time>
      </trkpt>
      <trkpt lat="49.04271" lon="0.06393">
        <ele>52.8</ele>
        <time>2024-03-03T09:36:53Z</time>
      </trkpt>
      <trkpt lat="49.04269" lon="0.06381">
        <ele>52.8</ele>
        <time>2024-03-03T09:36:54Z</time>
      </trkpt>
      <trkpt lat="49.04267" lon="0.0637">
        <ele>52.8</ele>
        <time>2024-03-03T09:36:55Z</time>
      </trkpt>
      <trkpt lat="49.04265" lon="0.0636">
        <ele>52.9</ele>
        <time>2024-03-03T09:36:56Z</time>
      </trkpt>
      <trkpt lat="49.04263" lon="0.06349">
        <ele>52.9</ele>
        <time>2024-03-03T09:36:57Z</time>
      </trkpt>
      <trkpt lat="49.04261" lon="0.06339">
        <ele>52.9</ele>
        <time>2024-03-03T09:36:58Z</time>
      </trkpt>
      <trkpt lat="49.0426" lon="0.06328">
        <ele>52.9</ele>
        <time>2024-03-03T09:36:59Z</time>
      </trkpt>
      <trkpt lat="49.04258" lon="0.06318">
        <ele>52.9</ele>
        <time>2024-03-03T09:37:00Z</time>
      </trkpt>
      <trkpt lat="49.04257" lon="0.06309">
        <ele>52.9</ele>
        <time>2024-03-03T09:37:01Z</time>
      </trkpt>
      <trkpt lat="49.04255" lon="0.06299">
        <ele>52.8</ele>
        <time>2024-03-03T09:37:02Z</time>
      </trkpt>
      <trkpt lat="49.04254" lon="0.06288">
        <ele>52.8</ele>
        <time>2024-03-03T09:37:03Z</time>
      </trkpt>
      <trkpt lat="49.04252" lon="0.06277">
        <ele>52.8</ele>
        <time>2024-03-03T09:37:04Z</time>
      </trkpt>
      <trkpt lat="49.0425" lon="0.06266">
        <ele>52.8</ele>
        <time>2024-03-03T09:37:05Z</time>
      </trkpt>
      <trkpt lat="49.04248" lon="0.06255">
        <ele>52.9</ele>
        <time>2024-03-03T09:37:06Z</time>
      </trkpt>
      <trkpt lat="49.04246" lon="0.06245">
        <ele>52.9</ele>
        <time>2024-03-03T09:37:07Z</time>
      </trkpt>
      <trkpt lat="49.04245" lon="0.06235">
        <ele>52.9</ele>
        <time>2024-03-03T09:37:08Z</time>
      </trkpt>
      <trkpt lat="49.04243" lon="0.06224">
        <ele>53</ele>
        <time>2024-03-03T09:37:09Z</time>
      </trkpt>
      <trkpt lat="49.04242" lon="0.06215">
        <ele>53</ele>
        <time>2024-03-03T09:37:10Z</time>
      </trkpt>
      <trkpt lat="49.04241" lon="0.06204">
        <ele>53</ele>
        <time>2024-03-03T09:37:11Z</time>
      </trkpt>
      <trkpt lat="49.0424" lon="0.06194">
        <ele>53.1</ele>
        <time>2024-03-03T09:37:12Z</time>
      </trkpt>
      <trkpt lat="49.04238" lon="0.06185">
        <ele>53.1</ele>
        <time>2024-03-03T09:37:13Z</time>
      </trkpt>
      <trkpt lat="49.04237" lon="0.06175">
        <ele>53.1</ele>
        <time>2024-03-03T09:37:14Z</time>
      </trkpt>
      <trkpt lat="49.04236" lon="0.06166">
        <ele>53.1</ele>
        <time>2024-03-03T09:37:15Z</time>
      </trkpt>
      <trkpt lat="49.04234" lon="0.06157">
        <ele>53.2</ele>
        <time>2024-03-03T09:37:16Z</time>
      </trkpt>
      <trkpt lat="49.04233" lon="0.06147">
        <ele>53.2</ele>
        <time>2024-03-03T09:37:17Z</time>
      </trkpt>
      <trkpt lat="49.04231" lon="0.06137">
        <ele>53.2</ele>
        <time>2024-03-03T09:37:18Z</time>
      </trkpt>
      <trkpt lat="49.0423" lon="0.06126">
        <ele>53.2</ele>
        <time>2024-03-03T09:37:19Z</time>
      </trkpt>
      <trkpt lat="49.04229" lon="0.06116">
        <ele>53.3</ele>
        <time>2024-03-03T09:37:20Z</time>
      </trkpt>
      <trkpt lat="49.04229" lon="0.06105">
        <ele>53.3</ele>
        <time>2024-03-03T09:37:21Z</time>
      </trkpt>
      <trkpt lat="49.04229" lon="0.06093">
        <ele>53.3</ele>
        <time>2024-03-03T09:37:22Z</time>
      </trkpt>
      <trkpt lat="49.04229" lon="0.06081">
        <ele>53.3</ele>
        <time>2024-03-03T09:37:23Z</time>
      </trkpt>
      <trkpt lat="49.0423" lon="0.06071">
        <ele>53.3</ele>
        <time>2024-03-03T09:37:24Z</time>
      </trkpt>
      <trkpt lat="49.04231" lon="0.06061">
        <ele>53.3</ele>
        <time>2024-03-03T09:37:25Z</time>
      </trkpt>
      <trkpt lat="49.04232" lon="0.0605">
        <ele>53.3</ele>
        <time>2024-03-03T09:37:26Z</time>
      </trkpt>
      <trkpt lat="49.04233" lon="0.06039">
        <ele>53.2</ele>
        <time>2024-03-03T09:37:27Z</time>
      </trkpt>
      <trkpt lat="49.04233" lon="0.06028">
        <ele>53.2</ele>
        <time>2024-03-03T09:37:28Z</time>
      </trkpt>
      <trkpt lat="49.04233" lon="0.06016">
        <ele>53.2</ele>
        <time>2024-03-03T09:37:29Z</time>
      </trkpt>
      <trkpt lat="49.04232" lon="0.06005">
        <ele>53.2</ele>
        <time>2024-03-03T09:37:30Z</time>
      </trkpt>
      <trkpt lat="49.0423" lon="0.05994">
        <ele>53.2</ele>
        <time>2024-03-03T09:37:31Z</time>
      </trkpt>
      <trkpt lat="49.04227" lon="0.05984">
        <ele>53.2</ele>
        <time>2024-03-03T09:37:32Z</time>
      </trkpt>
      <trkpt lat="49.04224" lon="0.05973">
        <ele>53.2</ele>
        <time>2024-03-03T09:37:33Z</time>
      </trkpt>
      <trkpt lat="49.04222" lon="0.05963">
        <ele>53.2</ele>
        <time>2024-03-03T09:37:34Z</time>
      </trkpt>
      <trkpt lat="49.04219" lon="0.05954">
        <ele>53.2</ele>
        <time>2024-03-03T09:37:35Z</time>
      </trkpt>
      <trkpt lat="49.04217" lon="0.05944">
        <ele>53.2</ele>
        <time>2024-03-03T09:37:36Z</time>
      </trkpt>
      <trkpt lat="49.04214" lon="0.05934">
        <ele>53.2</ele>
        <time>2024-03-03T09:37:37Z</time>
      </trkpt>
      <trkpt lat="49.04212" lon="0.05925">
        <ele>53.2</ele>
        <time>2024-03-03T09:37:38Z</time>
      </trkpt>
      <trkpt lat="49.0421" lon="0.05916">
        <ele>53.1</ele>
        <time>2024-03-03T09:37:39Z</time>
      </trkpt>
      <trkpt lat="49.04207" lon="0.05906">
        <ele>53.1</ele>
        <time>2024-03-03T09:37:40Z</time>
      </trkpt>
      <trkpt lat="49.04205" lon="0.05896">
        <ele>53.1</ele>
        <time>2024-03-03T09:37:41Z</time>
      </trkpt>
      <trkpt lat="49.04203" lon="0.05886">
        <ele>53.2</ele>
        <time>2024-03-03T09:37:42Z</time>
      </trkpt>
      <trkpt lat="49.04201" lon="0.05876">
        <ele>53.2</ele>
        <time>2024-03-03T09:37:43Z</time>
      </trkpt>
      <trkpt lat="49.04199" lon="0.05867">
        <ele>53.2</ele>
        <time>2024-03-03T09:37:44Z</time>
      </trkpt>
      <trkpt lat="49.04197" lon="0.05859">
        <ele>53.2</ele>
        <time>2024-03-03T09:37:45Z</time>
      </trkpt>
      <trkpt lat="49.04197" lon="0.0585">
        <ele>53.3</ele>
        <time>2024-03-03T09:37:46Z</time>
      </trkpt>
      <trkpt lat="49.04196" lon="0.05842">
        <ele>53.3</ele>
        <time>2024-03-03T09:37:47Z</time>
      </trkpt>
      <trkpt lat="49.04196" lon="0.05833">
        <ele>53.3</ele>
        <time>2024-03-03T09:37:48Z</time>
      </trkpt>
      <trkpt lat="49.04194" lon="0.05823">
        <ele>53.3</ele>
        <time>2024-03-03T09:37:49Z</time>
      </trkpt>
      <trkpt lat="49.04191" lon="0.05813">
        <ele>53.3</ele>
        <time>2024-03-03T09:37:50Z</time>
      </trkpt>
      <trkpt lat="49.04188" lon="0.05803">
        <ele>53.3</ele>
        <time>2024-03-03T09:37:51Z</time>
      </trkpt>
      <trkpt lat="49.04185" lon="0.05793">
        <ele>53.3</ele>
        <time>2024-03-03T09:37:52Z</time>
      </trkpt>
      <trkpt lat="49.04182" lon="0.05783">
        <ele>53.4</ele>
        <time>2024-03-03T09:37:53Z</time>
      </trkpt>
      <trkpt lat="49.0418" lon="0.05773">
        <ele>53.4</ele>
        <time>2024-03-03T09:37:54Z</time>
      </trkpt>
      <trkpt lat="49.04177" lon="0.05764">
        <ele>53.4</ele>
        <time>2024-03-03T09:37:55Z</time>
      </trkpt>
      <trkpt lat="49.04175" lon="0.05755">
        <ele>53.5</ele>
        <time>2024-03-03T09:37:56Z</time>
      </trkpt>
      <trkpt lat="49.04172" lon="0.05745">
        <ele>53.5</ele>
        <time>2024-03-03T09:37:57Z</time>
      </trkpt>
      <trkpt lat="49.04169" lon="0.05736">
        <ele>53.6</ele>
        <time>2024-03-03T09:37:58Z</time>
      </trkpt>
      <trkpt lat="49.04167" lon="0.05726">
        <ele>53.6</ele>
        <time>2024-03-03T09:37:59Z</time>
      </trkpt>
      <trkpt lat="49.04164" lon="0.05717">
        <ele>53.7</ele>
        <time>2024-03-03T09:38:00Z</time>
      </trkpt>
      <trkpt lat="49.04162" lon="0.05708">
        <ele>53.8</ele>
        <time>2024-03-03T09:38:01Z</time>
      </trkpt>
      <trkpt lat="49.04159" lon="0.05698">
        <ele>53.8</ele>
        <time>2024-03-03T09:38:02Z</time>
      </trkpt>
      <trkpt lat="49.04156" lon="0.05689">
        <ele>53.9</ele>
        <time>2024-03-03T09:38:03Z</time>
      </trkpt>
      <trkpt lat="49.04153" lon="0.05679">
        <ele>54</ele>
        <time>2024-03-03T09:38:04Z</time>
      </trkpt>
      <trkpt lat="49.0415" lon="0.0567">
        <ele>54</ele>
        <time>2024-03-03T09:38:05Z</time>
      </trkpt>
      <trkpt lat="49.04147" lon="0.05661">
        <ele>54.1</ele>
        <time>2024-03-03T09:38:06Z</time>
      </trkpt>
      <trkpt lat="49.04144" lon="0.05651">
        <ele>54.2</ele>
        <time>2024-03-03T09:38:07Z</time>
      </trkpt>
      <trkpt lat="49.04141" lon="0.05642">
        <ele>54.4</ele>
        <time>2024-03-03T09:38:08Z</time>
      </trkpt>
      <trkpt lat="49.04138" lon="0.05633">
        <ele>54.5</ele>
        <time>2024-03-03T09:38:09Z</time>
      </trkpt>
      <trkpt lat="49.04135" lon="0.05624">
        <ele>54.6</ele>
        <time>2024-03-03T09:38:10Z</time>
      </trkpt>
      <trkpt lat="49.04133" lon="0.05616">
        <ele>54.7</ele>
        <time>2024-03-03T09:38:11Z</time>
      </trkpt>
      <trkpt lat="49.04131" lon="0.05607">
        <ele>54.8</ele>
        <time>2024-03-03T09:38:12Z</time>
      </trkpt>
      <trkpt lat="49.04128" lon="0.05598">
        <ele>54.9</ele>
        <time>2024-03-03T09:38:13Z</time>
      </trkpt>
      <trkpt lat="49.04125" lon="0.05589">
        <ele>55</ele>
        <time>2024-03-03T09:38:14Z</time>
      </trkpt>
      <trkpt lat="49.04122" lon="0.0558">
        <ele>55.2</ele>
        <time>2024-03-03T09:38:15Z</time>
      </trkpt>
      <trkpt lat="49.04119" lon="0.05571">
        <ele>55.3</ele>
        <time>2024-03-03T09:38:16Z</time>
      </trkpt>
      <trkpt lat="49.04115" lon="0.05562">
        <ele>55.4</ele>
        <time>2024-03-03T09:38:17Z</time>
      </trkpt>
      <trkpt lat="49.04112" lon="0.05553">
        <ele>55.6</ele>
        <time>2024-03-03T09:38:18Z</time>
      </trkpt>
      <trkpt lat="49.04109" lon="0.05544">
        <ele>55.7</ele>
        <time>2024-03-03T09:38:19Z</time>
      </trkpt>
      <trkpt lat="49.04107" lon="0.05536">
        <ele>55.8</ele>
        <time>2024-03-03T09:38:20Z</time>
      </trkpt>
      <trkpt lat="49.04104" lon="0.05527">
        <ele>55.9</ele>
        <time>2024-03-03T09:38:21Z</time>
      </trkpt>
      <trkpt lat="49.04102" lon="0.05518">
        <ele>56.1</ele>
        <time>2024-03-03T09:38:22Z</time>
      </trkpt>
      <trkpt lat="49.04099" lon="0.0551">
        <ele>56.2</ele>
        <time>2024-03-03T09:38:23Z</time>
      </trkpt>
      <trkpt lat="49.04096" lon="0.05502">
        <ele>56.3</ele>
        <time>2024-03-03T09:38:24Z</time>
      </trkpt>
      <trkpt lat="49.04093" lon="0.05493">
        <ele>56.4</ele>
        <time>2024-03-03T09:38:25Z</time>
      </trkpt>
      <trkpt lat="49.04091" lon="0.05485">
        <ele>56.5</ele>
        <time>2024-03-03T09:38:26Z</time>
      </trkpt>
      <trkpt lat="49.04088" lon="0.05477">
        <ele>56.6</ele>
        <time>2024-03-03T09:38:27Z</time>
      </trkpt>
      <trkpt lat="49.04085" lon="0.05468">
        <ele>56.7</ele>
        <time>2024-03-03T09:38:28Z</time>
      </trkpt>
      <trkpt lat="49.04082" lon="0.0546">
        <ele>56.8</ele>
        <time>2024-03-03T09:38:29Z</time>
      </trkpt>
      <trkpt lat="49.04078" lon="0.05452">
        <ele>56.9</ele>
        <time>2024-03-03T09:38:30Z</time>
      </trkpt>
      <trkpt lat="49.04075" lon="0.05445">
        <ele>57.1</ele>
        <time>2024-03-03T09:38:31Z</time>
      </trkpt>
      <trkpt lat="49.04071" lon="0.05439">
        <ele>57.2</ele>
        <time>2024-03-03T09:38:32Z</time>
      </trkpt>
      <trkpt lat="49.04067" lon="0.05433">
        <ele>57.3</ele>
        <time>2024-03-03T09:38:33Z</time>
      </trkpt>
      <trkpt lat="49.04063" lon="0.05426">
        <ele>57.4</ele>
        <time>2024-03-03T09:38:34Z</time>
      </trkpt>
      <trkpt lat="49.0406" lon="0.05421">
        <ele>57.5</ele>
        <time>2024-03-03T09:38:35Z</time>
      </trkpt>
      <trkpt lat="49.04056" lon="0.05415">
        <ele>57.6</ele>
        <time>2024-03-03T09:38:36Z</time>
      </trkpt>
      <trkpt lat="49.04053" lon="0.0541">
        <ele>57.7</ele>
        <time>2024-03-03T09:38:37Z</time>
      </trkpt>
      <trkpt lat="49.0405" lon="0.05405">
        <ele>57.8</ele>
        <time>2024-03-03T09:38:38Z</time>
      </trkpt>
      <trkpt lat="49.04048" lon="0.05399">
        <ele>57.9</ele>
        <time>2024-03-03T09:38:39Z</time>
      </trkpt>
      <trkpt lat="49.04046" lon="0.05393">
        <ele>58</ele>
        <time>2024-03-03T09:38:40Z</time>
      </trkpt>
      <trkpt lat="49.04043" lon="0.05387">
        <ele>58</ele>
        <time>2024-03-03T09:38:41Z</time>
      </trkpt>
      <trkpt lat="49.04041" lon="0.0538">
        <ele>58.1</ele>
        <time>2024-03-03T09:38:42Z</time>
      </trkpt>
      <trkpt lat="49.04039" lon="0.05373">
        <ele>58.2</ele>
        <time>2024-03-03T09:38:43Z</time>
      </trkpt>
      <trkpt lat="49.04037" lon="0.05366">
        <ele>58.2</ele>
        <time>2024-03-03T09:38:44Z</time>
      </trkpt>
      <trkpt lat="49.04036" lon="0.05359">
        <ele>58.3</ele>
        <time>2024-03-03T09:38:45Z</time>
      </trkpt>
      <trkpt lat="49.04034" lon="0.05352">
        <ele>58.4</ele>
        <time>2024-03-03T09:38:46Z</time>
      </trkpt>
      <trkpt lat="49.04032" lon="0.05345">
        <ele>58.5</ele>
        <time>2024-03-03T09:38:47Z</time>
      </trkpt>
      <trkpt lat="49.04031" lon="0.05338">
        <ele>58.5</ele>
        <time>2024-03-03T09:38:48Z</time>
      </trkpt>
      <trkpt lat="49.04029" lon="0.0533">
        <ele>58.6</ele>
        <time>2024-03-03T09:38:49Z</time>
      </trkpt>
      <trkpt lat="49.04027" lon="0.05322">
        <ele>58.8</ele>
        <time>2024-03-03T09:38:50Z</time>
      </trkpt>
      <trkpt lat="49.04025" lon="0.05313">
        <ele>58.9</ele>
        <time>2024-03-03T09:38:51Z</time>
      </trkpt>
      <trkpt lat="49.04023" lon="0.05306">
        <ele>59.1</ele>
        <time>2024-03-03T09:38:52Z</time>
      </trkpt>
      <trkpt lat="49.04021" lon="0.05298">
        <ele>59.2</ele>
        <time>2024-03-03T09:38:53Z</time>
      </trkpt>
      <trkpt lat="49.0402" lon="0.0529">
        <ele>59.4</ele>
        <time>2024-03-03T09:38:54Z</time>
      </trkpt>
      <trkpt lat="49.04019" lon="0.05283">
        <ele>59.5</ele>
        <time>2024-03-03T09:38:55Z</time>
      </trkpt>
      <trkpt lat="49.04018" lon="0.05275">
        <ele>59.7</ele>
        <time>2024-03-03T09:38:56Z</time>
      </trkpt>
      <trkpt lat="49.04017" lon="0.0527">
        <ele>59.8</ele>
        <time>2024-03-03T09:38:57Z</time>
      </trkpt>
      <trkpt lat="49.04014" lon="0.05262">
        <ele>60</ele>
        <time>2024-03-03T09:38:58Z</time>
      </trkpt>
      <trkpt lat="49.04013" lon="0.05254">
        <ele>60.2</ele>
        <time>2024-03-03T09:38:59Z</time>
      </trkpt>
      <trkpt lat="49.04011" lon="0.05247">
        <ele>60.5</ele>
        <time>2024-03-03T09:39:00Z</time>
      </trkpt>
      <trkpt lat="49.04009" lon="0.05239">
        <ele>60.7</ele>
        <time>2024-03-03T09:39:01Z</time>
      </trkpt>
      <trkpt lat="49.04008" lon="0.05231">
        <ele>60.9</ele>
        <time>2024-03-03T09:39:02Z</time>
      </trkpt>
      <trkpt lat="49.04007" lon="0.05224">
        <ele>61.1</ele>
        <time>2024-03-03T09:39:03Z</time>
      </trkpt>
      <trkpt lat="49.04005" lon="0.05217">
        <ele>61.4</ele>
        <time>2024-03-03T09:39:04Z</time>
      </trkpt>
      <trkpt lat="49.04004" lon="0.05211">
        <ele>61.6</ele>
        <time>2024-03-03T09:39:05Z</time>
      </trkpt>
      <trkpt lat="49.04002" lon="0.05203">
        <ele>61.8</ele>
        <time>2024-03-03T09:39:06Z</time>
      </trkpt>
      <trkpt lat="49.04001" lon="0.05196">
        <ele>62.1</ele>
        <time>2024-03-03T09:39:07Z</time>
      </trkpt>
      <trkpt lat="49.03999" lon="0.0519">
        <ele>62.3</ele>
        <time>2024-03-03T09:39:08Z</time>
      </trkpt>
      <trkpt lat="49.03998" lon="0.05185">
        <ele>62.5</ele>
        <time>2024-03-03T09:39:09Z</time>
      </trkpt>
      <trkpt lat="49.03997" lon="0.0518">
        <ele>62.7</ele>
        <time>2024-03-03T09:39:10Z</time>
      </trkpt>
      <trkpt lat="49.03995" lon="0.05175">
        <ele>62.9</ele>
        <time>2024-03-03T09:39:11Z</time>
      </trkpt>
      <trkpt lat="49.03994" lon="0.05169">
        <ele>63.1</ele>
        <time>2024-03-03T09:39:12Z</time>
      </trkpt>
      <trkpt lat="49.03993" lon="0.05161">
        <ele>63.4</ele>
        <time>2024-03-03T09:39:13Z</time>
      </trkpt>
      <trkpt lat="49.03991" lon="0.05154">
        <ele>63.7</ele>
        <time>2024-03-03T09:39:14Z</time>
      </trkpt>
      <trkpt lat="49.0399" lon="0.05146">
        <ele>64</ele>
        <time>2024-03-03T09:39:15Z</time>
      </trkpt>
      <trkpt lat="49.03988" lon="0.05139">
        <ele>64.3</ele>
        <time>2024-03-03T09:39:16Z</time>
      </trkpt>
      <trkpt lat="49.03986" lon="0.05133">
        <ele>64.6</ele>
        <time>2024-03-03T09:39:17Z</time>
      </trkpt>
      <trkpt lat="49.03985" lon="0.05126">
        <ele>64.9</ele>
        <time>2024-03-03T09:39:18Z</time>
      </trkpt>
      <trkpt lat="49.03984" lon="0.05121">
        <ele>65.1</ele>
        <time>2024-03-03T09:39:19Z</time>
      </trkpt>
      <trkpt lat="49.03983" lon="0.05116">
        <ele>65.4</ele>
        <time>2024-03-03T09:39:20Z</time>
      </trkpt>
      <trkpt lat="49.03982" lon="0.05111">
        <ele>65.6</ele>
        <time>2024-03-03T09:39:21Z</time>
      </trkpt>
      <trkpt lat="49.03981" lon="0.05105">
        <ele>65.9</ele>
        <time>2024-03-03T09:39:22Z</time>
      </trkpt>
      <trkpt lat="49.03979" lon="0.05098">
        <ele>66.2</ele>
        <time>2024-03-03T09:39:23Z</time>
      </trkpt>
      <trkpt lat="49.03978" lon="0.05093">
        <ele>66.5</ele>
        <time>2024-03-03T09:39:24Z</time>
      </trkpt>
      <trkpt lat="49.03976" lon="0.05086">
        <ele>66.8</ele>
        <time>2024-03-03T09:39:25Z</time>
      </trkpt>
      <trkpt lat="49.03974" lon="0.0508">
        <ele>67.1</ele>
        <time>2024-03-03T09:39:26Z</time>
      </trkpt>
      <trkpt lat="49.03971" lon="0.05074">
        <ele>67.5</ele>
        <time>2024-03-03T09:39:27Z</time>
      </trkpt>
      <trkpt lat="49.03969" lon="0.0507">
        <ele>67.8</ele>
        <time>2024-03-03T09:39:28Z</time>
      </trkpt>
      <trkpt lat="49.03967" lon="0.05066">
        <ele>68</ele>
        <time>2024-03-03T09:39:29Z</time>
      </trkpt>
      <trkpt lat="49.03964" lon="0.05062">
        <ele>68.2</ele>
        <time>2024-03-03T09:39:30Z</time>
      </trkpt>
      <trkpt lat="49.03962" lon="0.05058">
        <ele>68.5</ele>
        <time>2024-03-03T09:39:31Z</time>
      </trkpt>
      <trkpt lat="49.03959" lon="0.05052">
        <ele>68.8</ele>
        <time>2024-03-03T09:39:32Z</time>
      </trkpt>
      <trkpt lat="49.03956" lon="0.05047">
        <ele>69</ele>
        <time>2024-03-03T09:39:33Z</time>
      </trkpt>
      <trkpt lat="49.03953" lon="0.05043">
        <ele>69.3</ele>
        <time>2024-03-03T09:39:34Z</time>
      </trkpt>
      <trkpt lat="49.0395" lon="0.05039">
        <ele>69.5</ele>
        <time>2024-03-03T09:39:35Z</time>
      </trkpt>
      <trkpt lat="49.03946" lon="0.05035">
        <ele>69.8</ele>
        <time>2024-03-03T09:39:36Z</time>
      </trkpt>
      <trkpt lat="49.03942" lon="0.0503">
        <ele>70.1</ele>
        <time>2024-03-03T09:39:37Z</time>
      </trkpt>
      <trkpt lat="49.03938" lon="0.05026">
        <ele>70.4</ele>
        <time>2024-03-03T09:39:38Z</time>
      </trkpt>
      <trkpt lat="49.03935" lon="0.05022">
        <ele>70.6</ele>
        <time>2024-03-03T09:39:39Z</time>
      </trkpt>
      <trkpt lat="49.03931" lon="0.05019">
        <ele>70.8</ele>
        <time>2024-03-03T09:39:40Z</time>
      </trkpt>
      <trkpt lat="49.03928" lon="0.05017">
        <ele>71</ele>
        <time>2024-03-03T09:39:41Z</time>
      </trkpt>
      <trkpt lat="49.03925" lon="0.05014">
        <ele>71.2</ele>
        <time>2024-03-03T09:39:42Z</time>
      </trkpt>
      <trkpt lat="49.0392" lon="0.0501">
        <ele>71.4</ele>
        <time>2024-03-03T09:39:43Z</time>
      </trkpt>
      <trkpt lat="49.03916" lon="0.05006">
        <ele>71.7</ele>
        <time>2024-03-03T09:39:44Z</time>
      </trkpt>
      <trkpt lat="49.03911" lon="0.05002">
        <ele>71.9</ele>
        <time>2024-03-03T09:39:45Z</time>
      </trkpt>
      <trkpt lat="49.03906" lon="0.04997">
        <ele>72.2</ele>
        <time>2024-03-03T09:39:46Z</time>
      </trkpt>
      <trkpt lat="49.03902" lon="0.04993">
        <ele>72.4</ele>
        <time>2024-03-03T09:39:47Z</time>
      </trkpt>
      <trkpt lat="49.03897" lon="0.04988">
        <ele>72.6</ele>
        <time>2024-03-03T09:39:48Z</time>
      </trkpt>
      <trkpt lat="49.03893" lon="0.04985">
        <ele>72.8</ele>
        <time>2024-03-03T09:39:49Z</time>
      </trkpt>
      <trkpt lat="49.0389" lon="0.04981">
        <ele>72.9</ele>
        <time>2024-03-03T09:39:50Z</time>
      </trkpt>
      <trkpt lat="49.03886" lon="0.04977">
        <ele>73</ele>
        <time>2024-03-03T09:39:51Z</time>
      </trkpt>
      <trkpt lat="49.03883" lon="0.04974">
        <ele>73.1</ele>
        <time>2024-03-03T09:39:52Z</time>
      </trkpt>
      <trkpt lat="49.03881" lon="0.0497">
        <ele>73.2</ele>
        <time>2024-03-03T09:39:53Z</time>
      </trkpt>
      <trkpt lat="49.03877" lon="0.04966">
        <ele>73.3</ele>
        <time>2024-03-03T09:39:54Z</time>
      </trkpt>
      <trkpt lat="49.03874" lon="0.04961">
        <ele>73.3</ele>
        <time>2024-03-03T09:39:55Z</time>
      </trkpt>
      <trkpt lat="49.03871" lon="0.04957">
        <ele>73.3</ele>
        <time>2024-03-03T09:39:56Z</time>
      </trkpt>
      <trkpt lat="49.03867" lon="0.04951">
        <ele>73.3</ele>
        <time>2024-03-03T09:39:57Z</time>
      </trkpt>
      <trkpt lat="49.03864" lon="0.04946">
        <ele>73.3</ele>
        <time>2024-03-03T09:39:58Z</time>
      </trkpt>
      <trkpt lat="49.03861" lon="0.0494">
        <ele>73.3</ele>
        <time>2024-03-03T09:39:59Z</time>
      </trkpt>
      <trkpt lat="49.03857" lon="0.04935">
        <ele>73.2</ele>
        <time>2024-03-03T09:40:00Z</time>
      </trkpt>
      <trkpt lat="49.03853" lon="0.0493">
        <ele>73.2</ele>
        <time>2024-03-03T09:40:01Z</time>
      </trkpt>
      <trkpt lat="49.03849" lon="0.04925">
        <ele>73.1</ele>
        <time>2024-03-03T09:40:02Z</time>
      </trkpt>
      <trkpt lat="49.03845" lon="0.04919">
        <ele>73</ele>
        <time>2024-03-03T09:40:03Z</time>
      </trkpt>
      <trkpt lat="49.03842" lon="0.04913">
        <ele>72.8</ele>
        <time>2024-03-03T09:40:04Z</time>
      </trkpt>
      <trkpt lat="49.03838" lon="0.04906">
        <ele>72.7</ele>
        <time>2024-03-03T09:40:05Z</time>
      </trkpt>
      <trkpt lat="49.03834" lon="0.04899">
        <ele>72.5</ele>
        <time>2024-03-03T09:40:06Z</time>
      </trkpt>
      <trkpt lat="49.03831" lon="0.04893">
        <ele>72.4</ele>
        <time>2024-03-03T09:40:07Z</time>
      </trkpt>
      <trkpt lat="49.03827" lon="0.04886">
        <ele>72.3</ele>
        <time>2024-03-03T09:40:08Z</time>
      </trkpt>
      <trkpt lat="49.03823" lon="0.04878">
        <ele>72.2</ele>
        <time>2024-03-03T09:40:09Z</time>
      </trkpt>
      <trkpt lat="49.03819" lon="0.04871">
        <ele>72.1</ele>
        <time>2024-03-03T09:40:10Z</time>
      </trkpt>
      <trkpt lat="49.03815" lon="0.04863">
        <ele>72</ele>
        <time>2024-03-03T09:40:11Z</time>
      </trkpt>
      <trkpt lat="49.03811" lon="0.04855">
        <ele>71.9</ele>
        <time>2024-03-03T09:40:12Z</time>
      </trkpt>
      <trkpt lat="49.03807" lon="0.04847">
        <ele>71.8</ele>
        <time>2024-03-03T09:40:13Z</time>
      </trkpt>
      <trkpt lat="49.03804" lon="0.04839">
        <ele>71.7</ele>
        <time>2024-03-03T09:40:14Z</time>
      </trkpt>
      <trkpt lat="49.038" lon="0.04831">
        <ele>71.6</ele>
        <time>2024-03-03T09:40:15Z</time>
      </trkpt>
      <trkpt lat="49.03797" lon="0.04824">
        <ele>71.6</ele>
        <time>2024-03-03T09:40:16Z</time>
      </trkpt>
      <trkpt lat="49.03793" lon="0.04817">
        <ele>71.5</ele>
        <time>2024-03-03T09:40:17Z</time>
      </trkpt>
      <trkpt lat="49.03789" lon="0.04811">
        <ele>71.5</ele>
        <time>2024-03-03T09:40:18Z</time>
      </trkpt>
      <trkpt lat="49.03785" lon="0.04804">
        <ele>71.5</ele>
        <time>2024-03-03T09:40:19Z</time>
      </trkpt>
      <trkpt lat="49.03781" lon="0.04797">
        <ele>71.4</ele>
        <time>2024-03-03T09:40:20Z</time>
      </trkpt>
      <trkpt lat="49.03776" lon="0.04791">
        <ele>71.4</ele>
        <time>2024-03-03T09:40:21Z</time>
      </trkpt>
      <trkpt lat="49.03772" lon="0.04785">
        <ele>71.4</ele>
        <time>2024-03-03T09:40:22Z</time>
      </trkpt>
      <trkpt lat="49.03768" lon="0.04779">
        <ele>71.3</ele>
        <time>2024-03-03T09:40:23Z</time>
      </trkpt>
      <trkpt lat="49.03764" lon="0.04773">
        <ele>71.2</ele>
        <time>2024-03-03T09:40:24Z</time>
      </trkpt>
      <trkpt lat="49.0376" lon="0.04766">
        <ele>71.1</ele>
        <time>2024-03-03T09:40:25Z</time>
      </trkpt>
      <trkpt lat="49.03756" lon="0.0476">
        <ele>71</ele>
        <time>2024-03-03T09:40:26Z</time>
      </trkpt>
      <trkpt lat="49.03752" lon="0.04753">
        <ele>70.9</ele>
        <time>2024-03-03T09:40:27Z</time>
      </trkpt>
      <trkpt lat="49.03748" lon="0.04746">
        <ele>70.7</ele>
        <time>2024-03-03T09:40:28Z</time>
      </trkpt>
      <trkpt lat="49.03744" lon="0.0474">
        <ele>70.5</ele>
        <time>2024-03-03T09:40:29Z</time>
      </trkpt>
      <trkpt lat="49.03739" lon="0.04733">
        <ele>70.4</ele>
        <time>2024-03-03T09:40:30Z</time>
      </trkpt>
      <trkpt lat="49.03736" lon="0.04727">
        <ele>70.2</ele>
        <time>2024-03-03T09:40:31Z</time>
      </trkpt>
      <trkpt lat="49.03732" lon="0.04721">
        <ele>70.1</ele>
        <time>2024-03-03T09:40:32Z</time>
      </trkpt>
      <trkpt lat="49.0373" lon="0.04715">
        <ele>69.9</ele>
        <time>2024-03-03T09:40:33Z</time>
      </trkpt>
      <trkpt lat="49.03729" lon="0.04707">
        <ele>69.7</ele>
        <time>2024-03-03T09:40:34Z</time>
      </trkpt>
      <trkpt lat="49.03729" lon="0.04699">
        <ele>69.6</ele>
        <time>2024-03-03T09:40:35Z</time>
      </trkpt>
      <trkpt lat="49.03731" lon="0.04691">
        <ele>69.4</ele>
        <time>2024-03-03T09:40:36Z</time>
      </trkpt>
      <trkpt lat="49.03733" lon="0.04683">
        <ele>69.3</ele>
        <time>2024-03-03T09:40:37Z</time>
      </trkpt>
      <trkpt lat="49.03734" lon="0.04674">
        <ele>69.1</ele>
        <time>2024-03-03T09:40:38Z</time>
      </trkpt>
      <trkpt lat="49.03734" lon="0.04665">
        <ele>68.9</ele>
        <time>2024-03-03T09:40:39Z</time>
      </trkpt>
      <trkpt lat="49.03734" lon="0.04656">
        <ele>68.7</ele>
        <time>2024-03-03T09:40:40Z</time>
      </trkpt>
      <trkpt lat="49.03734" lon="0.04648">
        <ele>68.5</ele>
        <time>2024-03-03T09:40:41Z</time>
      </trkpt>
      <trkpt lat="49.03735" lon="0.0464">
        <ele>68.3</ele>
        <time>2024-03-03T09:40:42Z</time>
      </trkpt>
      <trkpt lat="49.03735" lon="0.04632">
        <ele>68</ele>
        <time>2024-03-03T09:40:43Z</time>
      </trkpt>
      <trkpt lat="49.03736" lon="0.04623">
        <ele>67.7</ele>
        <time>2024-03-03T09:40:44Z</time>
      </trkpt>
      <trkpt lat="49.03736" lon="0.04615">
        <ele>67.4</ele>
        <time>2024-03-03T09:40:45Z</time>
      </trkpt>
      <trkpt lat="49.03737" lon="0.04605">
        <ele>67</ele>
        <time>2024-03-03T09:40:46Z</time>
      </trkpt>
      <trkpt lat="49.03739" lon="0.04596">
        <ele>66.6</ele>
        <time>2024-03-03T09:40:47Z</time>
      </trkpt>
      <trkpt lat="49.0374" lon="0.04585">
        <ele>66</ele>
        <time>2024-03-03T09:40:48Z</time>
      </trkpt>
      <trkpt lat="49.03742" lon="0.04573">
        <ele>65.4</ele>
        <time>2024-03-03T09:40:49Z</time>
      </trkpt>
      <trkpt lat="49.03745" lon="0.04563">
        <ele>64.8</ele>
        <time>2024-03-03T09:40:50Z</time>
      </trkpt>
      <trkpt lat="49.03749" lon="0.04553">
        <ele>64.2</ele>
        <time>2024-03-03T09:40:51Z</time>
      </trkpt>
      <trkpt lat="49.03752" lon="0.04542">
        <ele>63.6</ele>
        <time>2024-03-03T09:40:52Z</time>
      </trkpt>
      <trkpt lat="49.03756" lon="0.0453">
        <ele>62.9</ele>
        <time>2024-03-03T09:40:53Z</time>
      </trkpt>
      <trkpt lat="49.0376" lon="0.04518">
        <ele>62.2</ele>
        <time>2024-03-03T09:40:54Z</time>
      </trkpt>
      <trkpt lat="49.03765" lon="0.04506">
        <ele>61.8</ele>
        <time>2024-03-03T09:40:55Z</time>
      </trkpt>
      <trkpt lat="49.03768" lon="0.04493">
        <ele>61.3</ele>
        <time>2024-03-03T09:40:56Z</time>
      </trkpt>
      <trkpt lat="49.03773" lon="0.0448">
        <ele>60.8</ele>
        <time>2024-03-03T09:40:57Z</time>
      </trkpt>
      <trkpt lat="49.03777" lon="0.04466">
        <ele>60.3</ele>
        <time>2024-03-03T09:40:58Z</time>
      </trkpt>
      <trkpt lat="49.03781" lon="0.04452">
        <ele>59.9</ele>
        <time>2024-03-03T09:40:59Z</time>
      </trkpt>
      <trkpt lat="49.03785" lon="0.04437">
        <ele>59.5</ele>
        <time>2024-03-03T09:41:00Z</time>
      </trkpt>
      <trkpt lat="49.0379" lon="0.04422">
        <ele>58.9</ele>
        <time>2024-03-03T09:41:01Z</time>
      </trkpt>
      <trkpt lat="49.03794" lon="0.04407">
        <ele>58.5</ele>
        <time>2024-03-03T09:41:02Z</time>
      </trkpt>
      <trkpt lat="49.03798" lon="0.04392">
        <ele>58</ele>
        <time>2024-03-03T09:41:03Z</time>
      </trkpt>
      <trkpt lat="49.03802" lon="0.04378">
        <ele>57.6</ele>
        <time>2024-03-03T09:41:04Z</time>
      </trkpt>
      <trkpt lat="49.03806" lon="0.04364">
        <ele>57.3</ele>
        <time>2024-03-03T09:41:05Z</time>
      </trkpt>
      <trkpt lat="49.0381" lon="0.04351">
        <ele>57.1</ele>
        <time>2024-03-03T09:41:06Z</time>
      </trkpt>
      <trkpt lat="49.03814" lon="0.04338">
        <ele>56.9</ele>
        <time>2024-03-03T09:41:07Z</time>
      </trkpt>
      <trkpt lat="49.03818" lon="0.04324">
        <ele>56.8</ele>
        <time>2024-03-03T09:41:08Z</time>
      </trkpt>
      <trkpt lat="49.03821" lon="0.04311">
        <ele>56.7</ele>
        <time>2024-03-03T09:41:09Z</time>
      </trkpt>
      <trkpt lat="49.03824" lon="0.04298">
        <ele>56.6</ele>
        <time>2024-03-03T09:41:10Z</time>
      </trkpt>
      <trkpt lat="49.03827" lon="0.04285">
        <ele>56.6</ele>
        <time>2024-03-03T09:41:11Z</time>
      </trkpt>
      <trkpt lat="49.03831" lon="0.04272">
        <ele>56.6</ele>
        <time>2024-03-03T09:41:12Z</time>
      </trkpt>
      <trkpt lat="49.03835" lon="0.0426">
        <ele>56.6</ele>
        <time>2024-03-03T09:41:13Z</time>
      </trkpt>
      <trkpt lat="49.03838" lon="0.04249">
        <ele>56.7</ele>
        <time>2024-03-03T09:41:14Z</time>
      </trkpt>
      <trkpt lat="49.03841" lon="0.04239">
        <ele>56.8</ele>
        <time>2024-03-03T09:41:15Z</time>
      </trkpt>
      <trkpt lat="49.03843" lon="0.04228">
        <ele>57</ele>
        <time>2024-03-03T09:41:16Z</time>
      </trkpt>
      <trkpt lat="49.03846" lon="0.04217">
        <ele>57.1</ele>
        <time>2024-03-03T09:41:17Z</time>
      </trkpt>
      <trkpt lat="49.03849" lon="0.04206">
        <ele>57.3</ele>
        <time>2024-03-03T09:41:18Z</time>
      </trkpt>
      <trkpt lat="49.03852" lon="0.04195">
        <ele>57.5</ele>
        <time>2024-03-03T09:41:19Z</time>
      </trkpt>
      <trkpt lat="49.03855" lon="0.04183">
        <ele>57.7</ele>
        <time>2024-03-03T09:41:20Z</time>
      </trkpt>
      <trkpt lat="49.03859" lon="0.04173">
        <ele>57.9</ele>
        <time>2024-03-03T09:41:21Z</time>
      </trkpt>
      <trkpt lat="49.03863" lon="0.04164">
        <ele>58.1</ele>
        <time>2024-03-03T09:41:22Z</time>
      </trkpt>
      <trkpt lat="49.03867" lon="0.04156">
        <ele>58.2</ele>
        <time>2024-03-03T09:41:23Z</time>
      </trkpt>
      <trkpt lat="49.03872" lon="0.04149">
        <ele>58.4</ele>
        <time>2024-03-03T09:41:24Z</time>
      </trkpt>
      <trkpt lat="49.03877" lon="0.04143">
        <ele>58.6</ele>
        <time>2024-03-03T09:41:25Z</time>
      </trkpt>
      <trkpt lat="49.03881" lon="0.04136">
        <ele>58.7</ele>
        <time>2024-03-03T09:41:26Z</time>
      </trkpt>
      <trkpt lat="49.03886" lon="0.04129">
        <ele>58.8</ele>
        <time>2024-03-03T09:41:27Z</time>
      </trkpt>
      <trkpt lat="49.0389" lon="0.04122">
        <ele>58.9</ele>
        <time>2024-03-03T09:41:28Z</time>
      </trkpt>
      <trkpt lat="49.03894" lon="0.04116">
        <ele>59</ele>
        <time>2024-03-03T09:41:29Z</time>
      </trkpt>
      <trkpt lat="49.03898" lon="0.04109">
        <ele>59.2</ele>
        <time>2024-03-03T09:41:30Z</time>
      </trkpt>
      <trkpt lat="49.03903" lon="0.04102">
        <ele>59.3</ele>
        <time>2024-03-03T09:41:31Z</time>
      </trkpt>
      <trkpt lat="49.03907" lon="0.04097">
        <ele>59.4</ele>
        <time>2024-03-03T09:41:32Z</time>
      </trkpt>
      <trkpt lat="49.03911" lon="0.04092">
        <ele>59.5</ele>
        <time>2024-03-03T09:41:33Z</time>
      </trkpt>
      <trkpt lat="49.03914" lon="0.04086">
        <ele>59.6</ele>
        <time>2024-03-03T09:41:34Z</time>
      </trkpt>
      <trkpt lat="49.03918" lon="0.04081">
        <ele>59.8</ele>
        <time>2024-03-03T09:41:35Z</time>
      </trkpt>
      <trkpt lat="49.03922" lon="0.04075">
        <ele>59.9</ele>
        <time>2024-03-03T09:41:36Z</time>
      </trkpt>
      <trkpt lat="49.03926" lon="0.0407">
        <ele>60</ele>
        <time>2024-03-03T09:41:37Z</time>
      </trkpt>
      <trkpt lat="49.03929" lon="0.04064">
        <ele>60.1</ele>
        <time>2024-03-03T09:41:38Z</time>
      </trkpt>
      <trkpt lat="49.03933" lon="0.04059">
        <ele>60.2</ele>
        <time>2024-03-03T09:41:39Z</time>
      </trkpt>
      <trkpt lat="49.03937" lon="0.04053">
        <ele>60.4</ele>
        <time>2024-03-03T09:41:40Z</time>
      </trkpt>
      <trkpt lat="49.03941" lon="0.04049">
        <ele>60.5</ele>
        <time>2024-03-03T09:41:41Z</time>
      </trkpt>
      <trkpt lat="49.03946" lon="0.04045">
        <ele>60.6</ele>
        <time>2024-03-03T09:41:42Z</time>
      </trkpt>
      <trkpt lat="49.0395" lon="0.0404">
        <ele>60.7</ele>
        <time>2024-03-03T09:41:43Z</time>
      </trkpt>
      <trkpt lat="49.03955" lon="0.04036">
        <ele>60.8</ele>
        <time>2024-03-03T09:41:44Z</time>
      </trkpt>
      <trkpt lat="49.0396" lon="0.04032">
        <ele>60.9</ele>
        <time>2024-03-03T09:41:45Z</time>
      </trkpt>
      <trkpt lat="49.03965" lon="0.04029">
        <ele>61.1</ele>
        <time>2024-03-03T09:41:46Z</time>
      </trkpt>
      <trkpt lat="49.0397" lon="0.04025">
        <ele>61.2</ele>
        <time>2024-03-03T09:41:47Z</time>
      </trkpt>
      <trkpt lat="49.03975" lon="0.04021">
        <ele>61.4</ele>
        <time>2024-03-03T09:41:48Z</time>
      </trkpt>
      <trkpt lat="49.03979" lon="0.04017">
        <ele>61.5</ele>
        <time>2024-03-03T09:41:49Z</time>
      </trkpt>
      <trkpt lat="49.03984" lon="0.04013">
        <ele>61.7</ele>
        <time>2024-03-03T09:41:50Z</time>
      </trkpt>
      <trkpt lat="49.0399" lon="0.04009">
        <ele>61.8</ele>
        <time>2024-03-03T09:41:51Z</time>
      </trkpt>
      <trkpt lat="49.03995" lon="0.04003">
        <ele>62</ele>
        <time>2024-03-03T09:41:52Z</time>
      </trkpt>
      <trkpt lat="49.04001" lon="0.03998">
        <ele>62.2</ele>
        <time>2024-03-03T09:41:53Z</time>
      </trkpt>
      <trkpt lat="49.04007" lon="0.03993">
        <ele>62.4</ele>
        <time>2024-03-03T09:41:54Z</time>
      </trkpt>
      <trkpt lat="49.04013" lon="0.03989">
        <ele>62.5</ele>
        <time>2024-03-03T09:41:55Z</time>
      </trkpt>
      <trkpt lat="49.04019" lon="0.03985">
        <ele>62.7</ele>
        <time>2024-03-03T09:41:56Z</time>
      </trkpt>
      <trkpt lat="49.04025" lon="0.03981">
        <ele>62.9</ele>
        <time>2024-03-03T09:41:57Z</time>
      </trkpt>
      <trkpt lat="49.0403" lon="0.03976">
        <ele>63.2</ele>
        <time>2024-03-03T09:41:58Z</time>
      </trkpt>
      <trkpt lat="49.04037" lon="0.03972">
        <ele>63.4</ele>
        <time>2024-03-03T09:41:59Z</time>
      </trkpt>
      <trkpt lat="49.04043" lon="0.03969">
        <ele>63.6</ele>
        <time>2024-03-03T09:42:00Z</time>
      </trkpt>
      <trkpt lat="49.04049" lon="0.03965">
        <ele>63.8</ele>
        <time>2024-03-03T09:42:01Z</time>
      </trkpt>
      <trkpt lat="49.04056" lon="0.03962">
        <ele>64</ele>
        <time>2024-03-03T09:42:02Z</time>
      </trkpt>
      <trkpt lat="49.04063" lon="0.03959">
        <ele>64.2</ele>
        <time>2024-03-03T09:42:03Z</time>
      </trkpt>
      <trkpt lat="49.04069" lon="0.03957">
        <ele>64.4</ele>
        <time>2024-03-03T09:42:04Z</time>
      </trkpt>
      <trkpt lat="49.04076" lon="0.03955">
        <ele>64.6</ele>
        <time>2024-03-03T09:42:05Z</time>
      </trkpt>
      <trkpt lat="49.04083" lon="0.03953">
        <ele>64.8</ele>
        <time>2024-03-03T09:42:06Z</time>
      </trkpt>
      <trkpt lat="49.04091" lon="0.03951">
        <ele>65.1</ele>
        <time>2024-03-03T09:42:07Z</time>
      </trkpt>
      <trkpt lat="49.04097" lon="0.0395">
        <ele>65.3</ele>
        <time>2024-03-03T09:42:08Z</time>
      </trkpt>
      <trkpt lat="49.04103" lon="0.03949">
        <ele>65.5</ele>
        <time>2024-03-03T09:42:09Z</time>
      </trkpt>
      <trkpt lat="49.04109" lon="0.03948">
        <ele>65.8</ele>
        <time>2024-03-03T09:42:10Z</time>
      </trkpt>
      <trkpt lat="49.04115" lon="0.03947">
        <ele>66</ele>
        <time>2024-03-03T09:42:11Z</time>
      </trkpt>
      <trkpt lat="49.0412" lon="0.03947">
        <ele>66.2</ele>
        <time>2024-03-03T09:42:12Z</time>
      </trkpt>
      <trkpt lat="49.04126" lon="0.03947">
        <ele>66.4</ele>
        <time>2024-03-03T09:42:13Z</time>
      </trkpt>
      <trkpt lat="49.0413" lon="0.03947">
        <ele>66.6</ele>
        <time>2024-03-03T09:42:14Z</time>
      </trkpt>
      <trkpt lat="49.04133" lon="0.03948">
        <ele>66.8</ele>
        <time>2024-03-03T09:42:15Z</time>
      </trkpt>
      <trkpt lat="49.04136" lon="0.03948">
        <ele>67</ele>
        <time>2024-03-03T09:42:16Z</time>
      </trkpt>
      <trkpt lat="49.04139" lon="0.03948">
        <ele>67.1</ele>
        <time>2024-03-03T09:42:17Z</time>
      </trkpt>
      <trkpt lat="49.04142" lon="0.03949">
        <ele>67.3</ele>
        <time>2024-03-03T09:42:18Z</time>
      </trkpt>
      <trkpt lat="49.04145" lon="0.03949">
        <ele>67.5</ele>
        <time>2024-03-03T09:42:19Z</time>
      </trkpt>
      <trkpt lat="49.04149" lon="0.0395">
        <ele>67.8</ele>
        <time>2024-03-03T09:42:20Z</time>
      </trkpt>
      <trkpt lat="49.04153" lon="0.03951">
        <ele>68</ele>
        <time>2024-03-03T09:42:21Z</time>
      </trkpt>
      <trkpt lat="49.04157" lon="0.03951">
        <ele>68.3</ele>
        <time>2024-03-03T09:42:22Z</time>
      </trkpt>
      <trkpt lat="49.04162" lon="0.03951">
        <ele>68.7</ele>
        <time>2024-03-03T09:42:23Z</time>
      </trkpt>
      <trkpt lat="49.04167" lon="0.03951">
        <ele>69.1</ele>
        <time>2024-03-03T09:42:24Z</time>
      </trkpt>
      <trkpt lat="49.04172" lon="0.03951">
        <ele>69.5</ele>
        <time>2024-03-03T09:42:25Z</time>
      </trkpt>
      <trkpt lat="49.04176" lon="0.03951">
        <ele>69.8</ele>
        <time>2024-03-03T09:42:26Z</time>
      </trkpt>
      <trkpt lat="49.0418" lon="0.03951">
        <ele>70.1</ele>
        <time>2024-03-03T09:42:27Z</time>
      </trkpt>
      <trkpt lat="49.04184" lon="0.03951">
        <ele>70.5</ele>
        <time>2024-03-03T09:42:28Z</time>
      </trkpt>
      <trkpt lat="49.04189" lon="0.03951">
        <ele>70.8</ele>
        <time>2024-03-03T09:42:29Z</time>
      </trkpt>
      <trkpt lat="49.04194" lon="0.03952">
        <ele>71.2</ele>
        <time>2024-03-03T09:42:30Z</time>
      </trkpt>
      <trkpt lat="49.04199" lon="0.03952">
        <ele>71.6</ele>
        <time>2024-03-03T09:42:31Z</time>
      </trkpt>
      <trkpt lat="49.04204" lon="0.03953">
        <ele>72</ele>
        <time>2024-03-03T09:42:32Z</time>
      </trkpt>
      <trkpt lat="49.04209" lon="0.03952">
        <ele>72.4</ele>
        <time>2024-03-03T09:42:33Z</time>
      </trkpt>
      <trkpt lat="49.04214" lon="0.03952">
        <ele>72.8</ele>
        <time>2024-03-03T09:42:34Z</time>
      </trkpt>
      <trkpt lat="49.04218" lon="0.03952">
        <ele>73.1</ele>
        <time>2024-03-03T09:42:35Z</time>
      </trkpt>
      <trkpt lat="49.04222" lon="0.03953">
        <ele>73.4</ele>
        <time>2024-03-03T09:42:36Z</time>
      </trkpt>
      <trkpt lat="49.04227" lon="0.03952">
        <ele>73.8</ele>
        <time>2024-03-03T09:42:37Z</time>
      </trkpt>
      <trkpt lat="49.04231" lon="0.03952">
        <ele>74.1</ele>
        <time>2024-03-03T09:42:38Z</time>
      </trkpt>
      <trkpt lat="49.04234" lon="0.03951">
        <ele>74.4</ele>
        <time>2024-03-03T09:42:39Z</time>
      </trkpt>
      <trkpt lat="49.04238" lon="0.03951">
        <ele>74.6</ele>
        <time>2024-03-03T09:42:40Z</time>
      </trkpt>
      <trkpt lat="49.04242" lon="0.03951">
        <ele>74.9</ele>
        <time>2024-03-03T09:42:41Z</time>
      </trkpt>
      <trkpt lat="49.04246" lon="0.03951">
        <ele>75.2</ele>
        <time>2024-03-03T09:42:42Z</time>
      </trkpt>
      <trkpt lat="49.04249" lon="0.03951">
        <ele>75.5</ele>
        <time>2024-03-03T09:42:43Z</time>
      </trkpt>
      <trkpt lat="49.04253" lon="0.0395">
        <ele>75.7</ele>
        <time>2024-03-03T09:42:44Z</time>
      </trkpt>
      <trkpt lat="49.04256" lon="0.0395">
        <ele>76</ele>
        <time>2024-03-03T09:42:45Z</time>
      </trkpt>
      <trkpt lat="49.0426" lon="0.03948">
        <ele>76.2</ele>
        <time>2024-03-03T09:42:46Z</time>
      </trkpt>
      <trkpt lat="49.04263" lon="0.03945">
        <ele>76.5</ele>
        <time>2024-03-03T09:42:47Z</time>
      </trkpt>
      <trkpt lat="49.04267" lon="0.03941">
        <ele>76.7</ele>
        <time>2024-03-03T09:42:48Z</time>
      </trkpt>
      <trkpt lat="49.04271" lon="0.03938">
        <ele>76.9</ele>
        <time>2024-03-03T09:42:49Z</time>
      </trkpt>
      <trkpt lat="49.04274" lon="0.03936">
        <ele>77</ele>
        <time>2024-03-03T09:42:50Z</time>
      </trkpt>
      <trkpt lat="49.04277" lon="0.03932">
        <ele>77.2</ele>
        <time>2024-03-03T09:42:51Z</time>
      </trkpt>
      <trkpt lat="49.04279" lon="0.03929">
        <ele>77.4</ele>
        <time>2024-03-03T09:42:52Z</time>
      </trkpt>
      <trkpt lat="49.04282" lon="0.03925">
        <ele>77.5</ele>
        <time>2024-03-03T09:42:53Z</time>
      </trkpt>
      <trkpt lat="49.04285" lon="0.03922">
        <ele>77.7</ele>
        <time>2024-03-03T09:42:54Z</time>
      </trkpt>
      <trkpt lat="49.04287" lon="0.03918">
        <ele>77.8</ele>
        <time>2024-03-03T09:42:55Z</time>
      </trkpt>
      <trkpt lat="49.0429" lon="0.03915">
        <ele>77.9</ele>
        <time>2024-03-03T09:42:56Z</time>
      </trkpt>
      <trkpt lat="49.04292" lon="0.03911">
        <ele>78.1</ele>
        <time>2024-03-03T09:42:57Z</time>
      </trkpt>
      <trkpt lat="49.04295" lon="0.03906">
        <ele>78.2</ele>
        <time>2024-03-03T09:42:58Z</time>
      </trkpt>
      <trkpt lat="49.04297" lon="0.03902">
        <ele>78.3</ele>
        <time>2024-03-03T09:42:59Z</time>
      </trkpt>
      <trkpt lat="49.04302" lon="0.03895">
        <ele>78.4</ele>
        <time>2024-03-03T09:43:00Z</time>
      </trkpt>
      <trkpt lat="49.04306" lon="0.03888">
        <ele>78.5</ele>
        <time>2024-03-03T09:43:01Z</time>
      </trkpt>
      <trkpt lat="49.04312" lon="0.03882">
        <ele>78.5</ele>
        <time>2024-03-03T09:43:02Z</time>
      </trkpt>
      <trkpt lat="49.04317" lon="0.03875">
        <ele>78.6</ele>
        <time>2024-03-03T09:43:03Z</time>
      </trkpt>
      <trkpt lat="49.04321" lon="0.03867">
        <ele>78.6</ele>
        <time>2024-03-03T09:43:04Z</time>
      </trkpt>
      <trkpt lat="49.04326" lon="0.0386">
        <ele>78.7</ele>
        <time>2024-03-03T09:43:05Z</time>
      </trkpt>
      <trkpt lat="49.0433" lon="0.03853">
        <ele>78.7</ele>
        <time>2024-03-03T09:43:06Z</time>
      </trkpt>
      <trkpt lat="49.04335" lon="0.03848">
        <ele>78.8</ele>
        <time>2024-03-03T09:43:07Z</time>
      </trkpt>
      <trkpt lat="49.0434" lon="0.03841">
        <ele>78.9</ele>
        <time>2024-03-03T09:43:08Z</time>
      </trkpt>
      <trkpt lat="49.04344" lon="0.03835">
        <ele>79</ele>
        <time>2024-03-03T09:43:09Z</time>
      </trkpt>
      <trkpt lat="49.04348" lon="0.03828">
        <ele>79.1</ele>
        <time>2024-03-03T09:43:10Z</time>
      </trkpt>
      <trkpt lat="49.04351" lon="0.03822">
        <ele>79.2</ele>
        <time>2024-03-03T09:43:11Z</time>
      </trkpt>
      <trkpt lat="49.04353" lon="0.03817">
        <ele>79.3</ele>
        <time>2024-03-03T09:43:12Z</time>
      </trkpt>
      <trkpt lat="49.04357" lon="0.0381">
        <ele>79.4</ele>
        <time>2024-03-03T09:43:13Z</time>
      </trkpt>
      <trkpt lat="49.0436" lon="0.03803">
        <ele>79.5</ele>
        <time>2024-03-03T09:43:14Z</time>
      </trkpt>
      <trkpt lat="49.04364" lon="0.03795">
        <ele>79.7</ele>
        <time>2024-03-03T09:43:15Z</time>
      </trkpt>
      <trkpt lat="49.04367" lon="0.03788">
        <ele>79.9</ele>
        <time>2024-03-03T09:43:16Z</time>
      </trkpt>
      <trkpt lat="49.0437" lon="0.03781">
        <ele>80</ele>
        <time>2024-03-03T09:43:17Z</time>
      </trkpt>
      <trkpt lat="49.04374" lon="0.03773">
        <ele>80.2</ele>
        <time>2024-03-03T09:43:18Z</time>
      </trkpt>
      <trkpt lat="49.04377" lon="0.03765">
        <ele>80.5</ele>
        <time>2024-03-03T09:43:19Z</time>
      </trkpt>
      <trkpt lat="49.04381" lon="0.03758">
        <ele>80.6</ele>
        <time>2024-03-03T09:43:20Z</time>
      </trkpt>
      <trkpt lat="49.04384" lon="0.03752">
        <ele>80.8</ele>
        <time>2024-03-03T09:43:21Z</time>
      </trkpt>
      <trkpt lat="49.04387" lon="0.03744">
        <ele>81</ele>
        <time>2024-03-03T09:43:22Z</time>
      </trkpt>
      <trkpt lat="49.0439" lon="0.03738">
        <ele>81.2</ele>
        <time>2024-03-03T09:43:23Z</time>
      </trkpt>
      <trkpt lat="49.04394" lon="0.03732">
        <ele>81.4</ele>
        <time>2024-03-03T09:43:24Z</time>
      </trkpt>
      <trkpt lat="49.04398" lon="0.03726">
        <ele>81.5</ele>
        <time>2024-03-03T09:43:25Z</time>
      </trkpt>
      <trkpt lat="49.04401" lon="0.0372">
        <ele>81.7</ele>
        <time>2024-03-03T09:43:26Z</time>
      </trkpt>
      <trkpt lat="49.04405" lon="0.03714">
        <ele>81.8</ele>
        <time>2024-03-03T09:43:27Z</time>
      </trkpt>
      <trkpt lat="49.04408" lon="0.03708">
        <ele>81.9</ele>
        <time>2024-03-03T09:43:28Z</time>
      </trkpt>
      <trkpt lat="49.04412" lon="0.03702">
        <ele>82</ele>
        <time>2024-03-03T09:43:29Z</time>
      </trkpt>
      <trkpt lat="49.04415" lon="0.03696">
        <ele>82.2</ele>
        <time>2024-03-03T09:43:30Z</time>
      </trkpt>
      <trkpt lat="49.04417" lon="0.03691">
        <ele>82.2</ele>
        <time>2024-03-03T09:43:31Z</time>
      </trkpt>
      <trkpt lat="49.0442" lon="0.03687">
        <ele>82.3</ele>
        <time>2024-03-03T09:43:32Z</time>
      </trkpt>
      <trkpt lat="49.04424" lon="0.03681">
        <ele>82.3</ele>
        <time>2024-03-03T09:43:33Z</time>
      </trkpt>
      <trkpt lat="49.04427" lon="0.03675">
        <ele>82.4</ele>
        <time>2024-03-03T09:43:34Z</time>
      </trkpt>
      <trkpt lat="49.04431" lon="0.03668">
        <ele>82.5</ele>
        <time>2024-03-03T09:43:35Z</time>
      </trkpt>
      <trkpt lat="49.04435" lon="0.03661">
        <ele>82.5</ele>
        <time>2024-03-03T09:43:36Z</time>
      </trkpt>
      <trkpt lat="49.0444" lon="0.03652">
        <ele>82.6</ele>
        <time>2024-03-03T09:43:37Z</time>
      </trkpt>
      <trkpt lat="49.04444" lon="0.03645">
        <ele>82.7</ele>
        <time>2024-03-03T09:43:38Z</time>
      </trkpt>
      <trkpt lat="49.04448" lon="0.03637">
        <ele>82.8</ele>
        <time>2024-03-03T09:43:39Z</time>
      </trkpt>
      <trkpt lat="49.04452" lon="0.0363">
        <ele>82.8</ele>
        <time>2024-03-03T09:43:40Z</time>
      </trkpt>
      <trkpt lat="49.04456" lon="0.03623">
        <ele>82.9</ele>
        <time>2024-03-03T09:43:41Z</time>
      </trkpt>
      <trkpt lat="49.04461" lon="0.03615">
        <ele>83</ele>
        <time>2024-03-03T09:43:42Z</time>
      </trkpt>
      <trkpt lat="49.04465" lon="0.03608">
        <ele>83.1</ele>
        <time>2024-03-03T09:43:43Z</time>
      </trkpt>
      <trkpt lat="49.0447" lon="0.03601">
        <ele>83.1</ele>
        <time>2024-03-03T09:43:44Z</time>
      </trkpt>
      <trkpt lat="49.04474" lon="0.03594">
        <ele>83.1</ele>
        <time>2024-03-03T09:43:45Z</time>
      </trkpt>
      <trkpt lat="49.04478" lon="0.03587">
        <ele>83.2</ele>
        <time>2024-03-03T09:43:46Z</time>
      </trkpt>
      <trkpt lat="49.04482" lon="0.03579">
        <ele>83.2</ele>
        <time>2024-03-03T09:43:47Z</time>
      </trkpt>
      <trkpt lat="49.04486" lon="0.03571">
        <ele>83.3</ele>
        <time>2024-03-03T09:43:48Z</time>
      </trkpt>
      <trkpt lat="49.04489" lon="0.03563">
        <ele>83.3</ele>
        <time>2024-03-03T09:43:49Z</time>
      </trkpt>
      <trkpt lat="49.04492" lon="0.03554">
        <ele>83.3</ele>
        <time>2024-03-03T09:43:50Z</time>
      </trkpt>
      <trkpt lat="49.04495" lon="0.03546">
        <ele>83.3</ele>
        <time>2024-03-03T09:43:51Z</time>
      </trkpt>
      <trkpt lat="49.04499" lon="0.03538">
        <ele>83.4</ele>
        <time>2024-03-03T09:43:52Z</time>
      </trkpt>
      <trkpt lat="49.04502" lon="0.03531">
        <ele>83.4</ele>
        <time>2024-03-03T09:43:53Z</time>
      </trkpt>
      <trkpt lat="49.04505" lon="0.03524">
        <ele>83.4</ele>
        <time>2024-03-03T09:43:54Z</time>
      </trkpt>
      <trkpt lat="49.04507" lon="0.03516">
        <ele>83.4</ele>
        <time>2024-03-03T09:43:55Z</time>
      </trkpt>
      <trkpt lat="49.04509" lon="0.03506">
        <ele>83.4</ele>
        <time>2024-03-03T09:43:56Z</time>
      </trkpt>
      <trkpt lat="49.04512" lon="0.03496">
        <ele>83.3</ele>
        <time>2024-03-03T09:43:57Z</time>
      </trkpt>
      <trkpt lat="49.04514" lon="0.03484">
        <ele>83.3</ele>
        <time>2024-03-03T09:43:58Z</time>
      </trkpt>
      <trkpt lat="49.04516" lon="0.03473">
        <ele>83.2</ele>
        <time>2024-03-03T09:43:59Z</time>
      </trkpt>
      <trkpt lat="49.04518" lon="0.03462">
        <ele>83.2</ele>
        <time>2024-03-03T09:44:00Z</time>
      </trkpt>
      <trkpt lat="49.04521" lon="0.0345">
        <ele>83.2</ele>
        <time>2024-03-03T09:44:01Z</time>
      </trkpt>
      <trkpt lat="49.04524" lon="0.03438">
        <ele>83.1</ele>
        <time>2024-03-03T09:44:02Z</time>
      </trkpt>
      <trkpt lat="49.04527" lon="0.03426">
        <ele>83.1</ele>
        <time>2024-03-03T09:44:03Z</time>
      </trkpt>
      <trkpt lat="49.0453" lon="0.03415">
        <ele>83</ele>
        <time>2024-03-03T09:44:04Z</time>
      </trkpt>
      <trkpt lat="49.04534" lon="0.03405">
        <ele>83</ele>
        <time>2024-03-03T09:44:05Z</time>
      </trkpt>
      <trkpt lat="49.04537" lon="0.03393">
        <ele>83</ele>
        <time>2024-03-03T09:44:06Z</time>
      </trkpt>
      <trkpt lat="49.04541" lon="0.03382">
        <ele>82.9</ele>
        <time>2024-03-03T09:44:07Z</time>
      </trkpt>
      <trkpt lat="49.04545" lon="0.03371">
        <ele>82.8</ele>
        <time>2024-03-03T09:44:08Z</time>
      </trkpt>
      <trkpt lat="49.04548" lon="0.0336">
        <ele>82.7</ele>
        <time>2024-03-03T09:44:09Z</time>
      </trkpt>
      <trkpt lat="49.04551" lon="0.03349">
        <ele>82.6</ele>
        <time>2024-03-03T09:44:10Z</time>
      </trkpt>
      <trkpt lat="49.04555" lon="0.03339">
        <ele>82.6</ele>
        <time>2024-03-03T09:44:11Z</time>
      </trkpt>
      <trkpt lat="49.04558" lon="0.03328">
        <ele>82.6</ele>
        <time>2024-03-03T09:44:12Z</time>
      </trkpt>
      <trkpt lat="49.0456" lon="0.03318">
        <ele>82.6</ele>
        <time>2024-03-03T09:44:13Z</time>
      </trkpt>
      <trkpt lat="49.04563" lon="0.03309">
        <ele>82.6</ele>
        <time>2024-03-03T09:44:14Z</time>
      </trkpt>
      <trkpt lat="49.04566" lon="0.033">
        <ele>82.6</ele>
        <time>2024-03-03T09:44:15Z</time>
      </trkpt>
      <trkpt lat="49.04569" lon="0.03291">
        <ele>82.6</ele>
        <time>2024-03-03T09:44:16Z</time>
      </trkpt>
      <trkpt lat="49.04572" lon="0.03282">
        <ele>82.5</ele>
        <time>2024-03-03T09:44:17Z</time>
      </trkpt>
      <trkpt lat="49.04575" lon="0.03273">
        <ele>82.5</ele>
        <time>2024-03-03T09:44:18Z</time>
      </trkpt>
      <trkpt lat="49.04578" lon="0.03263">
        <ele>82.5</ele>
        <time>2024-03-03T09:44:19Z</time>
      </trkpt>
      <trkpt lat="49.04581" lon="0.03255">
        <ele>82.4</ele>
        <time>2024-03-03T09:44:20Z</time>
      </trkpt>
      <trkpt lat="49.04584" lon="0.03246">
        <ele>82.3</ele>
        <time>2024-03-03T09:44:21Z</time>
      </trkpt>
      <trkpt lat="49.04586" lon="0.03238">
        <ele>82.3</ele>
        <time>2024-03-03T09:44:22Z</time>
      </trkpt>
      <trkpt lat="49.04588" lon="0.0323">
        <ele>82.2</ele>
        <time>2024-03-03T09:44:23Z</time>
      </trkpt>
      <trkpt lat="49.04591" lon="0.03221">
        <ele>82.1</ele>
        <time>2024-03-03T09:44:24Z</time>
      </trkpt>
      <trkpt lat="49.04593" lon="0.03213">
        <ele>81.9</ele>
        <time>2024-03-03T09:44:25Z</time>
      </trkpt>
      <trkpt lat="49.04597" lon="0.03205">
        <ele>81.8</ele>
        <time>2024-03-03T09:44:26Z</time>
      </trkpt>
      <trkpt lat="49.046" lon="0.03197">
        <ele>81.7</ele>
        <time>2024-03-03T09:44:27Z</time>
      </trkpt>
      <trkpt lat="49.04605" lon="0.0319">
        <ele>81.5</ele>
        <time>2024-03-03T09:44:28Z</time>
      </trkpt>
      <trkpt lat="49.04609" lon="0.03183">
        <ele>81.4</ele>
        <time>2024-03-03T09:44:29Z</time>
      </trkpt>
      <trkpt lat="49.04614" lon="0.03176">
        <ele>81.2</ele>
        <time>2024-03-03T09:44:30Z</time>
      </trkpt>
      <trkpt lat="49.04618" lon="0.0317">
        <ele>81.1</ele>
        <time>2024-03-03T09:44:31Z</time>
      </trkpt>
      <trkpt lat="49.04623" lon="0.03164">
        <ele>80.9</ele>
        <time>2024-03-03T09:44:32Z</time>
      </trkpt>
      <trkpt lat="49.04629" lon="0.03157">
        <ele>80.7</ele>
        <time>2024-03-03T09:44:33Z</time>
      </trkpt>
      <trkpt lat="49.04636" lon="0.03149">
        <ele>80.4</ele>
        <time>2024-03-03T09:44:34Z</time>
      </trkpt>
      <trkpt lat="49.04643" lon="0.03141">
        <ele>80.1</ele>
        <time>2024-03-03T09:44:35Z</time>
      </trkpt>
      <trkpt lat="49.04652" lon="0.03133">
        <ele>79.8</ele>
        <time>2024-03-03T09:44:36Z</time>
      </trkpt>
      <trkpt lat="49.0466" lon="0.03126">
        <ele>79.5</ele>
        <time>2024-03-03T09:44:37Z</time>
      </trkpt>
      <trkpt lat="49.04668" lon="0.03119">
        <ele>79.2</ele>
        <time>2024-03-03T09:44:38Z</time>
      </trkpt>
      <trkpt lat="49.04675" lon="0.03112">
        <ele>79</ele>
        <time>2024-03-03T09:44:39Z</time>
      </trkpt>
      <trkpt lat="49.04683" lon="0.03105">
        <ele>78.9</ele>
        <time>2024-03-03T09:44:40Z</time>
      </trkpt>
      <trkpt lat="49.0469" lon="0.03099">
        <ele>78.7</ele>
        <time>2024-03-03T09:44:41Z</time>
      </trkpt>
      <trkpt lat="49.04697" lon="0.03094">
        <ele>78.7</ele>
        <time>2024-03-03T09:44:42Z</time>
      </trkpt>
      <trkpt lat="49.04704" lon="0.03089">
        <ele>78.6</ele>
        <time>2024-03-03T09:44:43Z</time>
      </trkpt>
      <trkpt lat="49.04711" lon="0.03086">
        <ele>78.6</ele>
        <time>2024-03-03T09:44:44Z</time>
      </trkpt>
      <trkpt lat="49.04718" lon="0.03082">
        <ele>78.6</ele>
        <time>2024-03-03T09:44:45Z</time>
      </trkpt>
      <trkpt lat="49.04725" lon="0.03079">
        <ele>78.5</ele>
        <time>2024-03-03T09:44:46Z</time>
      </trkpt>
      <trkpt lat="49.04732" lon="0.03077">
        <ele>78.5</ele>
        <time>2024-03-03T09:44:47Z</time>
      </trkpt>
      <trkpt lat="49.04739" lon="0.03074">
        <ele>78.4</ele>
        <time>2024-03-03T09:44:48Z</time>
      </trkpt>
      <trkpt lat="49.04746" lon="0.03071">
        <ele>78.3</ele>
        <time>2024-03-03T09:44:49Z</time>
      </trkpt>
      <trkpt lat="49.04753" lon="0.03068">
        <ele>78.2</ele>
        <time>2024-03-03T09:44:50Z</time>
      </trkpt>
      <trkpt lat="49.0476" lon="0.03063">
        <ele>78.2</ele>
        <time>2024-03-03T09:44:51Z</time>
      </trkpt>
      <trkpt lat="49.04767" lon="0.03058">
        <ele>78.2</ele>
        <time>2024-03-03T09:44:52Z</time>
      </trkpt>
      <trkpt lat="49.04774" lon="0.03052">
        <ele>78.2</ele>
        <time>2024-03-03T09:44:53Z</time>
      </trkpt>
      <trkpt lat="49.04781" lon="0.03046">
        <ele>78.2</ele>
        <time>2024-03-03T09:44:54Z</time>
      </trkpt>
      <trkpt lat="49.04788" lon="0.03039">
        <ele>78.3</ele>
        <time>2024-03-03T09:44:55Z</time>
      </trkpt>
      <trkpt lat="49.04794" lon="0.03032">
        <ele>78.4</ele>
        <time>2024-03-03T09:44:56Z</time>
      </trkpt>
      <trkpt lat="49.048" lon="0.03025">
        <ele>78.5</ele>
        <time>2024-03-03T09:44:57Z</time>
      </trkpt>
      <trkpt lat="49.04806" lon="0.03019">
        <ele>78.6</ele>
        <time>2024-03-03T09:44:58Z</time>
      </trkpt>
      <trkpt lat="49.04813" lon="0.03013">
        <ele>78.8</ele>
        <time>2024-03-03T09:44:59Z</time>
      </trkpt>
      <trkpt lat="49.04819" lon="0.03008">
        <ele>78.9</ele>
        <time>2024-03-03T09:45:00Z</time>
      </trkpt>
      <trkpt lat="49.04825" lon="0.03003">
        <ele>78.9</ele>
        <time>2024-03-03T09:45:01Z</time>
      </trkpt>
      <trkpt lat="49.04832" lon="0.02997">
        <ele>79</ele>
        <time>2024-03-03T09:45:02Z</time>
      </trkpt>
      <trkpt lat="49.04838" lon="0.02992">
        <ele>79</ele>
        <time>2024-03-03T09:45:03Z</time>
      </trkpt>
      <trkpt lat="49.04844" lon="0.02986">
        <ele>79</ele>
        <time>2024-03-03T09:45:04Z</time>
      </trkpt>
      <trkpt lat="49.04851" lon="0.0298">
        <ele>79</ele>
        <time>2024-03-03T09:45:05Z</time>
      </trkpt>
      <trkpt lat="49.04858" lon="0.02974">
        <ele>78.9</ele>
        <time>2024-03-03T09:45:06Z</time>
      </trkpt>
      <trkpt lat="49.04864" lon="0.02968">
        <ele>78.8</ele>
        <time>2024-03-03T09:45:07Z</time>
      </trkpt>
      <trkpt lat="49.04869" lon="0.02964">
        <ele>78.7</ele>
        <time>2024-03-03T09:45:08Z</time>
      </trkpt>
      <trkpt lat="49.04875" lon="0.02959">
        <ele>78.6</ele>
        <time>2024-03-03T09:45:09Z</time>
      </trkpt>
      <trkpt lat="49.0488" lon="0.02954">
        <ele>78.5</ele>
        <time>2024-03-03T09:45:10Z</time>
      </trkpt>
      <trkpt lat="49.04885" lon="0.0295">
        <ele>78.4</ele>
        <time>2024-03-03T09:45:11Z</time>
      </trkpt>
      <trkpt lat="49.04891" lon="0.02945">
        <ele>78.3</ele>
        <time>2024-03-03T09:45:12Z</time>
      </trkpt>
      <trkpt lat="49.04898" lon="0.02939">
        <ele>78.1</ele>
        <time>2024-03-03T09:45:13Z</time>
      </trkpt>
      <trkpt lat="49.04903" lon="0.02934">
        <ele>78</ele>
        <time>2024-03-03T09:45:14Z</time>
      </trkpt>
      <trkpt lat="49.04909" lon="0.02928">
        <ele>77.9</ele>
        <time>2024-03-03T09:45:15Z</time>
      </trkpt>
      <trkpt lat="49.04915" lon="0.02922">
        <ele>77.8</ele>
        <time>2024-03-03T09:45:16Z</time>
      </trkpt>
      <trkpt lat="49.04921" lon="0.02916">
        <ele>77.7</ele>
        <time>2024-03-03T09:45:17Z</time>
      </trkpt>
      <trkpt lat="49.04926" lon="0.02911">
        <ele>77.6</ele>
        <time>2024-03-03T09:45:18Z</time>
      </trkpt>
      <trkpt lat="49.04931" lon="0.02906">
        <ele>77.4</ele>
        <time>2024-03-03T09:45:19Z</time>
      </trkpt>
      <trkpt lat="49.04935" lon="0.02901">
        <ele>77.3</ele>
        <time>2024-03-03T09:45:20Z</time>
      </trkpt>
      <trkpt lat="49.0494" lon="0.02896">
        <ele>77.2</ele>
        <time>2024-03-03T09:45:21Z</time>
      </trkpt>
      <trkpt lat="49.04944" lon="0.02891">
        <ele>77.1</ele>
        <time>2024-03-03T09:45:22Z</time>
      </trkpt>
      <trkpt lat="49.04948" lon="0.02887">
        <ele>77</ele>
        <time>2024-03-03T09:45:23Z</time>
      </trkpt>
      <trkpt lat="49.04952" lon="0.02883">
        <ele>76.9</ele>
        <time>2024-03-03T09:45:24Z</time>
      </trkpt>
      <trkpt lat="49.04956" lon="0.02881">
        <ele>76.9</ele>
        <time>2024-03-03T09:45:25Z</time>
      </trkpt>
      <trkpt lat="49.04959" lon="0.02878">
        <ele>76.8</ele>
        <time>2024-03-03T09:45:26Z</time>
      </trkpt>
      <trkpt lat="49.04963" lon="0.02876">
        <ele>76.7</ele>
        <time>2024-03-03T09:45:27Z</time>
      </trkpt>
      <trkpt lat="49.04966" lon="0.02874">
        <ele>76.7</ele>
        <time>2024-03-03T09:45:28Z</time>
      </trkpt>
      <trkpt lat="49.04969" lon="0.02872">
        <ele>76.7</ele>
        <time>2024-03-03T09:45:29Z</time>
      </trkpt>
      <trkpt lat="49.04972" lon="0.0287">
        <ele>76.7</ele>
        <time>2024-03-03T09:45:30Z</time>
      </trkpt>
      <trkpt lat="49.04973" lon="0.02869">
        <ele>76.7</ele>
        <time>2024-03-03T09:45:31Z</time>
      </trkpt>
      <trkpt lat="49.04976" lon="0.02866">
        <ele>76.6</ele>
        <time>2024-03-03T09:45:32Z</time>
      </trkpt>
      <trkpt lat="49.04977" lon="0.02865">
        <ele>76.6</ele>
        <time>2024-03-03T09:45:33Z</time>
      </trkpt>
      <trkpt lat="49.04979" lon="0.02861">
        <ele>76.6</ele>
        <time>2024-03-03T09:45:34Z</time>
      </trkpt>
      <trkpt lat="49.04981" lon="0.02858">
        <ele>76.6</ele>
        <time>2024-03-03T09:45:35Z</time>
      </trkpt>
      <trkpt lat="49.04983" lon="0.02855">
        <ele>76.7</ele>
        <time>2024-03-03T09:45:36Z</time>
      </trkpt>
      <trkpt lat="49.04984" lon="0.02854">
        <ele>76.7</ele>
        <time>2024-03-03T09:45:37Z</time>
      </trkpt>
      <trkpt lat="49.04985" lon="0.02854">
        <ele>76.7</ele>
        <time>2024-03-03T09:45:38Z</time>
      </trkpt>
      <trkpt lat="49.04985" lon="0.02853">
        <ele>76.7</ele>
        <time>2024-03-03T09:45:39Z</time>
      </trkpt>
      <trkpt lat="49.04985" lon="0.02853">
        <ele>76.7</ele>
        <time>2024-03-03T09:45:40Z</time>
      </trkpt>
      <trkpt lat="49.04986" lon="0.02853">
        <ele>76.7</ele>
        <time>2024-03-03T09:45:41Z</time>
      </trkpt>
      <trkpt lat="49.04986" lon="0.02853">
        <ele>76.7</ele>
        <time>2024-03-03T09:45:42Z</time>
      </trkpt>
      <trkpt lat="49.04986" lon="0.02853">
        <ele>76.7</ele>
        <time>2024-03-03T09:45:43Z</time>
      </trkpt>
      <trkpt lat="49.04986" lon="0.02853">
        <ele>76.7</ele>
        <time>2024-03-03T09:45:44Z</time>
      </trkpt>
      <trkpt lat="49.04986" lon="0.02853">
        <ele>76.7</ele>
        <time>2024-03-03T09:45:45Z</time>
      </trkpt>
      <trkpt lat="49.04986" lon="0.02853">
        <ele>76.7</ele>
        <time>2024-03-03T09:45:46Z</time>
      </trkpt>
      <trkpt lat="49.04986" lon="0.02853">
        <ele>76.7</ele>
        <time>2024-03-03T09:45:47Z</time>
      </trkpt>
      <trkpt lat="49.04986" lon="0.02853">
        <ele>76.7</ele>
        <time>2024-03-03T09:45:48Z</time>
      </trkpt>
      <trkpt lat="49.04986" lon="0.02853">
        <ele>76.7</ele>
        <time>2024-03-03T09:45:49Z</time>
      </trkpt>
      <trkpt lat="49.04986" lon="0.02853">
        <ele>76.7</ele>
        <time>2024-03-03T09:45:50Z</time>
      </trkpt>
      <trkpt lat="49.04986" lon="0.02853">
        <ele>76.7</ele>
        <time>2024-03-03T09:45:51Z</time>
      </trkpt>
      <trkpt lat="49.04986" lon="0.02853">
        <ele>76.7</ele>
        <time>2024-03-03T09:45:52Z</time>
      </trkpt>
      <trkpt lat="49.04986" lon="0.02853">
        <ele>76.7</ele>
        <time>2024-03-03T09:45:53Z</time>
      </trkpt>
      <trkpt lat="49.04986" lon="0.02853">
        <ele>76.7</ele>
        <time>2024-03-03T09:45:54Z</time>
      </trkpt>
      <trkpt lat="49.04986" lon="0.02853">
        <ele>76.7</ele>
        <time>2024-03-03T09:45:55Z</time>
      </trkpt>
      <trkpt lat="49.04986" lon="0.02853">
        <ele>76.7</ele>
        <time>2024-03-03T09:45:56Z</time>
      </trkpt>
      <trkpt lat="49.04986" lon="0.02853">
        <ele>76.7</ele>
        <time>2024-03-03T09:45:57Z</time>
      </trkpt>
      <trkpt lat="49.04986" lon="0.02853">
        <ele>76.7</ele>
        <time>2024-03-03T09:45:58Z</time>
      </trkpt>
      <trkpt lat="49.04986" lon="0.02853">
        <ele>76.7</ele>
        <time>2024-03-03T09:45:59Z</time>
      </trkpt>
      <trkpt lat="49.04986" lon="0.02853">
        <ele>76.7</ele>
        <time>2024-03-03T09:46:00Z</time>
      </trkpt>
      <trkpt lat="49.04986" lon="0.02853">
        <ele>76.7</ele>
        <time>2024-03-03T09:46:01Z</time>
      </trkpt>
      <trkpt lat="49.04986" lon="0.02853">
        <ele>76.7</ele>
        <time>2024-03-03T09:46:02Z</time>
      </trkpt>
      <trkpt lat="49.04986" lon="0.02853">
        <ele>76.7</ele>
        <time>2024-03-03T09:46:03Z</time>
      </trkpt>
      <trkpt lat="49.04986" lon="0.02853">
        <ele>76.7</ele>
        <time>2024-03-03T09:46:04Z</time>
      </trkpt>
      <trkpt lat="49.04986" lon="0.02853">
        <ele>76.7</ele>
        <time>2024-03-03T09:46:05Z</time>
      </trkpt>
      <trkpt lat="49.04986" lon="0.02853">
        <ele>76.7</ele>
        <time>2024-03-03T09:46:06Z</time>
      </trkpt>
      <trkpt lat="49.04986" lon="0.02852">
        <ele>76.7</ele>
        <time>2024-03-03T09:46:07Z</time>
      </trkpt>
      <trkpt lat="49.04986" lon="0.02852">
        <ele>76.8</ele>
        <time>2024-03-03T09:46:08Z</time>
      </trkpt>
      <trkpt lat="49.04986" lon="0.02852">
        <ele>76.8</ele>
        <time>2024-03-03T09:46:09Z</time>
      </trkpt>
      <trkpt lat="49.04986" lon="0.02852">
        <ele>76.8</ele>
        <time>2024-03-03T09:46:10Z</time>
      </trkpt>
      <trkpt lat="49.04986" lon="0.02852">
        <ele>76.8</ele>
        <time>2024-03-03T09:46:11Z</time>
      </trkpt>
      <trkpt lat="49.04986" lon="0.02852">
        <ele>76.8</ele>
        <time>2024-03-03T09:46:12Z</time>
      </trkpt>
      <trkpt lat="49.04986" lon="0.02852">
        <ele>76.8</ele>
        <time>2024-03-03T09:46:13Z</time>
      </trkpt>
      <trkpt lat="49.04986" lon="0.02852">
        <ele>76.8</ele>
        <time>2024-03-03T09:46:14Z</time>
      </trkpt>
      <trkpt lat="49.04986" lon="0.02852">
        <ele>76.8</ele>
        <time>2024-03-03T09:46:15Z</time>
      </trkpt>
      <trkpt lat="49.04986" lon="0.02852">
        <ele>76.8</ele>
        <time>2024-03-03T09:46:16Z</time>
      </trkpt>
      <trkpt lat="49.04986" lon="0.02852">
        <ele>76.8</ele>
        <time>2024-03-03T09:46:17Z</time>
      </trkpt>
      <trkpt lat="49.04986" lon="0.02852">
        <ele>76.8</ele>
        <time>2024-03-03T09:46:18Z</time>
      </trkpt>
      <trkpt lat="49.04986" lon="0.02852">
        <ele>76.8</ele>
        <time>2024-03-03T09:46:19Z</time>
      </trkpt>
      <trkpt lat="49.04986" lon="0.02852">
        <ele>76.8</ele>
        <time>2024-03-03T09:46:20Z</time>
      </trkpt>
      <trkpt lat="49.04986" lon="0.02852">
        <ele>76.8</ele>
        <time>2024-03-03T09:46:21Z</time>
      </trkpt>
      <trkpt lat="49.04986" lon="0.02852">
        <ele>76.8</ele>
        <time>2024-03-03T09:46:22Z</time>
      </trkpt>
      <trkpt lat="49.04986" lon="0.02852">
        <ele>76.8</ele>
        <time>2024-03-03T09:46:23Z</time>
      </trkpt>
      <trkpt lat="49.04986" lon="0.02852">
        <ele>76.8</ele>
        <time>2024-03-03T09:46:24Z</time>
      </trkpt>
      <trkpt lat="49.04986" lon="0.02852">
        <ele>76.8</ele>
        <time>2024-03-03T09:46:25Z</time>
      </trkpt>
      <trkpt lat="49.04986" lon="0.02852">
        <ele>76.8</ele>
        <time>2024-03-03T09:46:26Z</time>
      </trkpt>
      <trkpt lat="49.04986" lon="0.02852">
        <ele>76.8</ele>
        <time>2024-03-03T09:46:27Z</time>
      </trkpt>
      <trkpt lat="49.04986" lon="0.02852">
        <ele>76.8</ele>
        <time>2024-03-03T09:46:28Z</time>
      </trkpt>
      <trkpt lat="49.04986" lon="0.02852">
        <ele>76.8</ele>
        <time>2024-03-03T09:46:29Z</time>
      </trkpt>
      <trkpt lat="49.04986" lon="0.02852">
        <ele>76.8</ele>
        <time>2024-03-03T09:46:30Z</time>
      </trkpt>
      <trkpt lat="49.04986" lon="0.02852">
        <ele>76.8</ele>
        <time>2024-03-03T09:46:31Z</time>
      </trkpt>
      <trkpt lat="49.04986" lon="0.02852">
        <ele>76.8</ele>
        <time>2024-03-03T09:46:32Z</time>
      </trkpt>
      <trkpt lat="49.04986" lon="0.02852">
        <ele>76.8</ele>
        <time>2024-03-03T09:46:33Z</time>
      </trkpt>
      <trkpt lat="49.04986" lon="0.02852">
        <ele>76.8</ele>
        <time>2024-03-03T09:46:34Z</time>
      </trkpt>
      <trkpt lat="49.04986" lon="0.02852">
        <ele>76.8</ele>
        <time>2024-03-03T09:46:35Z</time>
      </trkpt>
      <trkpt lat="49.04986" lon="0.02852">
        <ele>76.8</ele>
        <time>2024-03-03T09:46:36Z</time>
      </trkpt>
      <trkpt lat="49.04986" lon="0.02852">
        <ele>76.8</ele>
        <time>2024-03-03T09:46:37Z</time>
      </trkpt>
      <trkpt lat="49.04986" lon="0.02852">
        <ele>76.8</ele>
        <time>2024-03-03T09:46:38Z</time>
      </trkpt>
      <trkpt lat="49.04986" lon="0.02852">
        <ele>76.8</ele>
        <time>2024-03-03T09:46:39Z</time>
      </trkpt>
      <trkpt lat="49.04986" lon="0.02852">
        <ele>76.8</ele>
        <time>2024-03-03T09:46:40Z</time>
      </trkpt>
      <trkpt lat="49.04986" lon="0.02852">
        <ele>76.8</ele>
        <time>2024-03-03T09:46:41Z</time>
      </trkpt>
      <trkpt lat="49.04986" lon="0.02852">
        <ele>76.8</ele>
        <time>2024-03-03T09:46:42Z</time>
      </trkpt>
      <trkpt lat="49.04986" lon="0.02852">
        <ele>76.8</ele>
        <time>2024-03-03T09:46:43Z</time>
      </trkpt>
      <trkpt lat="49.04986" lon="0.02852">
        <ele>76.8</ele>
        <time>2024-03-03T09:46:44Z</time>
      </trkpt>
      <trkpt lat="49.04986" lon="0.02852">
        <ele>76.8</ele>
        <time>2024-03-03T09:46:45Z</time>
      </trkpt>
      <trkpt lat="49.04986" lon="0.02852">
        <ele>76.8</ele>
        <time>2024-03-03T09:46:46Z</time>
      </trkpt>
      <trkpt lat="49.04986" lon="0.02852">
        <ele>76.8</ele>
        <time>2024-03-03T09:46:47Z</time>
      </trkpt>
      <trkpt lat="49.04986" lon="0.02852">
        <ele>76.8</ele>
        <time>2024-03-03T09:46:48Z</time>
      </trkpt>
      <trkpt lat="49.04986" lon="0.02852">
        <ele>76.8</ele>
        <time>2024-03-03T09:46:49Z</time>
      </trkpt>
      <trkpt lat="49.04986" lon="0.02852">
        <ele>76.8</ele>
        <time>2024-03-03T09:46:50Z</time>
      </trkpt>
      <trkpt lat="49.04986" lon="0.02852">
        <ele>76.8</ele>
        <time>2024-03-03T09:46:51Z</time>
      </trkpt>
      <trkpt lat="49.04986" lon="0.02852">
        <ele>76.8</ele>
        <time>2024-03-03T09:46:52Z</time>
      </trkpt>
      <trkpt lat="49.04986" lon="0.02852">
        <ele>76.8</ele>
        <time>2024-03-03T09:46:53Z</time>
      </trkpt>
      <trkpt lat="49.04986" lon="0.02852">
        <ele>76.8</ele>
        <time>2024-03-03T09:46:54Z</time>
      </trkpt>
      <trkpt lat="49.04986" lon="0.02852">
        <ele>76.8</ele>
        <time>2024-03-03T09:46:55Z</time>
      </trkpt>
      <trkpt lat="49.04986" lon="0.02852">
        <ele>76.8</ele>
        <time>2024-03-03T09:46:56Z</time>
      </trkpt>
      <trkpt lat="49.04986" lon="0.02852">
        <ele>76.8</ele>
        <time>2024-03-03T09:46:57Z</time>
      </trkpt>
      <trkpt lat="49.04986" lon="0.02852">
        <ele>76.8</ele>
        <time>2024-03-03T09:46:58Z</time>
      </trkpt>
      <trkpt lat="49.04986" lon="0.02852">
        <ele>76.8</ele>
        <time>2024-03-03T09:46:59Z</time>
      </trkpt>
      <trkpt lat="49.04986" lon="0.02852">
        <ele>76.8</ele>
        <time>2024-03-03T09:47:00Z</time>
      </trkpt>
      <trkpt lat="49.04986" lon="0.02852">
        <ele>76.8</ele>
        <time>2024-03-03T09:47:01Z</time>
      </trkpt>
      <trkpt lat="49.04986" lon="0.02852">
        <ele>76.8</ele>
        <time>2024-03-03T09:47:02Z</time>
      </trkpt>
      <trkpt lat="49.04986" lon="0.02852">
        <ele>76.8</ele>
        <time>2024-03-03T09:47:03Z</time>
      </trkpt>
      <trkpt lat="49.04986" lon="0.02852">
        <ele>76.8</ele>
        <time>2024-03-03T09:47:04Z</time>
      </trkpt>
      <trkpt lat="49.04986" lon="0.02852">
        <ele>76.8</ele>
        <time>2024-03-03T09:47:05Z</time>
      </trkpt>
      <trkpt lat="49.04986" lon="0.02852">
        <ele>76.8</ele>
        <time>2024-03-03T09:47:06Z</time>
      </trkpt>
      <trkpt lat="49.04986" lon="0.02852">
        <ele>76.8</ele>
        <time>2024-03-03T09:47:07Z</time>
      </trkpt>
      <trkpt lat="49.04986" lon="0.02852">
        <ele>76.8</ele>
        <time>2024-03-03T09:47:08Z</time>
      </trkpt>
      <trkpt lat="49.04986" lon="0.02852">
        <ele>76.8</ele>
        <time>2024-03-03T09:47:09Z</time>
      </trkpt>
      <trkpt lat="49.04986" lon="0.02852">
        <ele>76.8</ele>
        <time>2024-03-03T09:47:10Z</time>
      </trkpt>
      <trkpt lat="49.04986" lon="0.02852">
        <ele>76.8</ele>
        <time>2024-03-03T09:47:11Z</time>
      </trkpt>
      <trkpt lat="49.04986" lon="0.02852">
        <ele>76.8</ele>
        <time>2024-03-03T09:47:12Z</time>
      </trkpt>
      <trkpt lat="49.04986" lon="0.02852">
        <ele>76.8</ele>
        <time>2024-03-03T09:47:13Z</time>
      </trkpt>
      <trkpt lat="49.04986" lon="0.02852">
        <ele>76.8</ele>
        <time>2024-03-03T09:47:14Z</time>
      </trkpt>
      <trkpt lat="49.04986" lon="0.02852">
        <ele>76.8</ele>
        <time>2024-03-03T09:47:15Z</time>
      </trkpt>
      <trkpt lat="49.04986" lon="0.02852">
        <ele>76.8</ele>
        <time>2024-03-03T09:47:16Z</time>
      </trkpt>
      <trkpt lat="49.04986" lon="0.02852">
        <ele>76.8</ele>
        <time>2024-03-03T09:47:17Z</time>
      </trkpt>
      <trkpt lat="49.04986" lon="0.02852">
        <ele>76.8</ele>
        <time>2024-03-03T09:47:18Z</time>
      </trkpt>
      <trkpt lat="49.04986" lon="0.02852">
        <ele>76.8</ele>
        <time>2024-03-03T09:47:19Z</time>
      </trkpt>
      <trkpt lat="49.04986" lon="0.02852">
        <ele>76.8</ele>
        <time>2024-03-03T09:47:20Z</time>
      </trkpt>
      <trkpt lat="49.04986" lon="0.02852">
        <ele>76.8</ele>
        <time>2024-03-03T09:47:21Z</time>
      </trkpt>
      <trkpt lat="49.04986" lon="0.02852">
        <ele>76.8</ele>
        <time>2024-03-03T09:47:22Z</time>
      </trkpt>
      <trkpt lat="49.04986" lon="0.02852">
        <ele>76.8</ele>
        <time>2024-03-03T09:47:23Z</time>
      </trkpt>
      <trkpt lat="49.04986" lon="0.02852">
        <ele>76.8</ele>
        <time>2024-03-03T09:47:24Z</time>
      </trkpt>
      <trkpt lat="49.04986" lon="0.02852">
        <ele>76.8</ele>
        <time>2024-03-03T09:47:25Z</time>
      </trkpt>
      <trkpt lat="49.04986" lon="0.02852">
        <ele>76.8</ele>
        <time>2024-03-03T09:47:26Z</time>
      </trkpt>
      <trkpt lat="49.04987" lon="0.0285">
        <ele>76.8</ele>
        <time>2024-03-03T09:47:27Z</time>
      </trkpt>
      <trkpt lat="49.04987" lon="0.02849">
        <ele>76.8</ele>
        <time>2024-03-03T09:47:28Z</time>
      </trkpt>
      <trkpt lat="49.04987" lon="0.02849">
        <ele>76.8</ele>
        <time>2024-03-03T09:47:29Z</time>
      </trkpt>
      <trkpt lat="49.04987" lon="0.02849">
        <ele>76.8</ele>
        <time>2024-03-03T09:47:30Z</time>
      </trkpt>
      <trkpt lat="49.04987" lon="0.02849">
        <ele>76.8</ele>
        <time>2024-03-03T09:47:31Z</time>
      </trkpt>
      <trkpt lat="49.04987" lon="0.02849">
        <ele>76.8</ele>
        <time>2024-03-03T09:47:32Z</time>
      </trkpt>
      <trkpt lat="49.04987" lon="0.02849">
        <ele>76.8</ele>
        <time>2024-03-03T09:47:33Z</time>
      </trkpt>
      <trkpt lat="49.04987" lon="0.02849">
        <ele>76.8</ele>
        <time>2024-03-03T09:47:34Z</time>
      </trkpt>
      <trkpt lat="49.04987" lon="0.02849">
        <ele>76.8</ele>
        <time>2024-03-03T09:47:35Z</time>
      </trkpt>
      <trkpt lat="49.04987" lon="0.02849">
        <ele>76.8</ele>
        <time>2024-03-03T09:47:36Z</time>
      </trkpt>
      <trkpt lat="49.04987" lon="0.02849">
        <ele>76.8</ele>
        <time>2024-03-03T09:47:37Z</time>
      </trkpt>
      <trkpt lat="49.04987" lon="0.02849">
        <ele>76.8</ele>
        <time>2024-03-03T09:47:38Z</time>
      </trkpt>
      <trkpt lat="49.04987" lon="0.02849">
        <ele>76.8</ele>
        <time>2024-03-03T09:47:39Z</time>
      </trkpt>
      <trkpt lat="49.04987" lon="0.02849">
        <ele>76.8</ele>
        <time>2024-03-03T09:47:40Z</time>
      </trkpt>
      <trkpt lat="49.04987" lon="0.02849">
        <ele>76.8</ele>
        <time>2024-03-03T09:47:41Z</time>
      </trkpt>
      <trkpt lat="49.04987" lon="0.02849">
        <ele>76.8</ele>
        <time>2024-03-03T09:47:42Z</time>
      </trkpt>
      <trkpt lat="49.04987" lon="0.02849">
        <ele>76.8</ele>
        <time>2024-03-03T09:47:43Z</time>
      </trkpt>
      <trkpt lat="49.04987" lon="0.02849">
        <ele>76.8</ele>
        <time>2024-03-03T09:47:44Z</time>
      </trkpt>
      <trkpt lat="49.04987" lon="0.02849">
        <ele>76.8</ele>
        <time>2024-03-03T09:47:45Z</time>
      </trkpt>
      <trkpt lat="49.04986" lon="0.02849">
        <ele>76.8</ele>
        <time>2024-03-03T09:47:46Z</time>
      </trkpt>
      <trkpt lat="49.04986" lon="0.0285">
        <ele>76.8</ele>
        <time>2024-03-03T09:47:47Z</time>
      </trkpt>
      <trkpt lat="49.04986" lon="0.02849">
        <ele>76.8</ele>
        <time>2024-03-03T09:47:48Z</time>
      </trkpt>
      <trkpt lat="49.04986" lon="0.02849">
        <ele>76.8</ele>
        <time>2024-03-03T09:47:49Z</time>
      </trkpt>
      <trkpt lat="49.04986" lon="0.02849">
        <ele>76.8</ele>
        <time>2024-03-03T09:47:50Z</time>
      </trkpt>
      <trkpt lat="49.04986" lon="0.02848">
        <ele>76.8</ele>
        <time>2024-03-03T09:47:51Z</time>
      </trkpt>
      <trkpt lat="49.04986" lon="0.02848">
        <ele>76.9</ele>
        <time>2024-03-03T09:47:52Z</time>
      </trkpt>
      <trkpt lat="49.04986" lon="0.02847">
        <ele>76.9</ele>
        <time>2024-03-03T09:47:53Z</time>
      </trkpt>
      <trkpt lat="49.04986" lon="0.02847">
        <ele>76.9</ele>
        <time>2024-03-03T09:47:54Z</time>
      </trkpt>
      <trkpt lat="49.04986" lon="0.02847">
        <ele>76.9</ele>
        <time>2024-03-03T09:47:55Z</time>
      </trkpt>
      <trkpt lat="49.04986" lon="0.02847">
        <ele>76.9</ele>
        <time>2024-03-03T09:47:56Z</time>
      </trkpt>
      <trkpt lat="49.04986" lon="0.02847">
        <ele>76.9</ele>
        <time>2024-03-03T09:47:57Z</time>
      </trkpt>
      <trkpt lat="49.04986" lon="0.02847">
        <ele>76.9</ele>
        <time>2024-03-03T09:47:58Z</time>
      </trkpt>
      <trkpt lat="49.04986" lon="0.02847">
        <ele>76.9</ele>
        <time>2024-03-03T09:47:59Z</time>
      </trkpt>
      <trkpt lat="49.04986" lon="0.02847">
        <ele>76.9</ele>
        <time>2024-03-03T09:48:00Z</time>
      </trkpt>
      <trkpt lat="49.04986" lon="0.02847">
        <ele>76.9</ele>
        <time>2024-03-03T09:48:01Z</time>
      </trkpt>
      <trkpt lat="49.04987" lon="0.02848">
        <ele>76.9</ele>
        <time>2024-03-03T09:48:02Z</time>
      </trkpt>
      <trkpt lat="49.04988" lon="0.02847">
        <ele>76.9</ele>
        <time>2024-03-03T09:48:03Z</time>
      </trkpt>
      <trkpt lat="49.04988" lon="0.02847">
        <ele>76.9</ele>
        <time>2024-03-03T09:48:04Z</time>
      </trkpt>
      <trkpt lat="49.04988" lon="0.02847">
        <ele>76.9</ele>
        <time>2024-03-03T09:48:05Z</time>
      </trkpt>
      <trkpt lat="49.04989" lon="0.02847">
        <ele>76.9</ele>
        <time>2024-03-03T09:48:06Z</time>
      </trkpt>
      <trkpt lat="49.04989" lon="0.02847">
        <ele>76.9</ele>
        <time>2024-03-03T09:48:07Z</time>
      </trkpt>
      <trkpt lat="49.04989" lon="0.02847">
        <ele>76.9</ele>
        <time>2024-03-03T09:48:08Z</time>
      </trkpt>
      <trkpt lat="49.04989" lon="0.02847">
        <ele>76.9</ele>
        <time>2024-03-03T09:48:09Z</time>
      </trkpt>
      <trkpt lat="49.04989" lon="0.02847">
        <ele>76.9</ele>
        <time>2024-03-03T09:48:10Z</time>
      </trkpt>
      <trkpt lat="49.04989" lon="0.02846">
        <ele>76.9</ele>
        <time>2024-03-03T09:48:11Z</time>
      </trkpt>
      <trkpt lat="49.04989" lon="0.02846">
        <ele>76.9</ele>
        <time>2024-03-03T09:48:12Z</time>
      </trkpt>
      <trkpt lat="49.04989" lon="0.02846">
        <ele>76.9</ele>
        <time>2024-03-03T09:48:13Z</time>
      </trkpt>
      <trkpt lat="49.04989" lon="0.02846">
        <ele>76.9</ele>
        <time>2024-03-03T09:48:14Z</time>
      </trkpt>
      <trkpt lat="49.04989" lon="0.02846">
        <ele>76.9</ele>
        <time>2024-03-03T09:48:15Z</time>
      </trkpt>
      <trkpt lat="49.0499" lon="0.02846">
        <ele>76.9</ele>
        <time>2024-03-03T09:48:16Z</time>
      </trkpt>
      <trkpt lat="49.0499" lon="0.02846">
        <ele>76.9</ele>
        <time>2024-03-03T09:48:17Z</time>
      </trkpt>
      <trkpt lat="49.0499" lon="0.02846">
        <ele>76.9</ele>
        <time>2024-03-03T09:48:18Z</time>
      </trkpt>
      <trkpt lat="49.0499" lon="0.02846">
        <ele>76.9</ele>
        <time>2024-03-03T09:48:19Z</time>
      </trkpt>
      <trkpt lat="49.0499" lon="0.02846">
        <ele>76.9</ele>
        <time>2024-03-03T09:48:20Z</time>
      </trkpt>
      <trkpt lat="49.0499" lon="0.02846">
        <ele>76.9</ele>
        <time>2024-03-03T09:48:21Z</time>
      </trkpt>
      <trkpt lat="49.0499" lon="0.02846">
        <ele>76.9</ele>
        <time>2024-03-03T09:48:22Z</time>
      </trkpt>
      <trkpt lat="49.0499" lon="0.02846">
        <ele>76.9</ele>
        <time>2024-03-03T09:48:23Z</time>
      </trkpt>
      <trkpt lat="49.0499" lon="0.02846">
        <ele>76.9</ele>
        <time>2024-03-03T09:48:24Z</time>
      </trkpt>
      <trkpt lat="49.0499" lon="0.02846">
        <ele>76.9</ele>
        <time>2024-03-03T09:48:25Z</time>
      </trkpt>
      <trkpt lat="49.0499" lon="0.02846">
        <ele>76.9</ele>
        <time>2024-03-03T09:48:26Z</time>
      </trkpt>
      <trkpt lat="49.0499" lon="0.02846">
        <ele>76.9</ele>
        <time>2024-03-03T09:48:27Z</time>
      </trkpt>
      <trkpt lat="49.0499" lon="0.02846">
        <ele>76.9</ele>
        <time>2024-03-03T09:48:28Z</time>
      </trkpt>
      <trkpt lat="49.0499" lon="0.02846">
        <ele>76.9</ele>
        <time>2024-03-03T09:48:29Z</time>
      </trkpt>
      <trkpt lat="49.0499" lon="0.02846">
        <ele>76.9</ele>
        <time>2024-03-03T09:48:30Z</time>
      </trkpt>
      <trkpt lat="49.0499" lon="0.02846">
        <ele>76.9</ele>
        <time>2024-03-03T09:48:31Z</time>
      </trkpt>
      <trkpt lat="49.04989" lon="0.02846">
        <ele>77</ele>
        <time>2024-03-03T09:48:32Z</time>
      </trkpt>
      <trkpt lat="49.04989" lon="0.02847">
        <ele>77</ele>
        <time>2024-03-03T09:48:33Z</time>
      </trkpt>
      <trkpt lat="49.04989" lon="0.02848">
        <ele>77</ele>
        <time>2024-03-03T09:48:34Z</time>
      </trkpt>
      <trkpt lat="49.04989" lon="0.02848">
        <ele>77</ele>
        <time>2024-03-03T09:48:35Z</time>
      </trkpt>
      <trkpt lat="49.04989" lon="0.02848">
        <ele>77</ele>
        <time>2024-03-03T09:48:36Z</time>
      </trkpt>
      <trkpt lat="49.04989" lon="0.02848">
        <ele>77</ele>
        <time>2024-03-03T09:48:37Z</time>
      </trkpt>
      <trkpt lat="49.04989" lon="0.02848">
        <ele>77</ele>
        <time>2024-03-03T09:48:38Z</time>
      </trkpt>
      <trkpt lat="49.04989" lon="0.02848">
        <ele>77</ele>
        <time>2024-03-03T09:48:39Z</time>
      </trkpt>
      <trkpt lat="49.04989" lon="0.02848">
        <ele>77</ele>
        <time>2024-03-03T09:48:40Z</time>
      </trkpt>
      <trkpt lat="49.04989" lon="0.02848">
        <ele>77</ele>
        <time>2024-03-03T09:48:41Z</time>
      </trkpt>
      <trkpt lat="49.04989" lon="0.02848">
        <ele>77</ele>
        <time>2024-03-03T09:48:42Z</time>
      </trkpt>
      <trkpt lat="49.04989" lon="0.02848">
        <ele>77</ele>
        <time>2024-03-03T09:48:43Z</time>
      </trkpt>
      <trkpt lat="49.04989" lon="0.02848">
        <ele>77</ele>
        <time>2024-03-03T09:48:44Z</time>
      </trkpt>
      <trkpt lat="49.04989" lon="0.02848">
        <ele>77</ele>
        <time>2024-03-03T09:48:45Z</time>
      </trkpt>
      <trkpt lat="49.04989" lon="0.02848">
        <ele>77</ele>
        <time>2024-03-03T09:48:46Z</time>
      </trkpt>
      <trkpt lat="49.04989" lon="0.02848">
        <ele>77</ele>
        <time>2024-03-03T09:48:47Z</time>
      </trkpt>
      <trkpt lat="49.04989" lon="0.02848">
        <ele>77</ele>
        <time>2024-03-03T09:48:48Z</time>
      </trkpt>
      <trkpt lat="49.04989" lon="0.02848">
        <ele>77</ele>
        <time>2024-03-03T09:48:49Z</time>
      </trkpt>
      <trkpt lat="49.04989" lon="0.02848">
        <ele>77</ele>
        <time>2024-03-03T09:48:50Z</time>
      </trkpt>
      <trkpt lat="49.04989" lon="0.02848">
        <ele>77</ele>
        <time>2024-03-03T09:48:51Z</time>
      </trkpt>
      <trkpt lat="49.04989" lon="0.02848">
        <ele>77</ele>
        <time>2024-03-03T09:48:52Z</time>
      </trkpt>
      <trkpt lat="49.04989" lon="0.02848">
        <ele>77</ele>
        <time>2024-03-03T09:48:53Z</time>
      </trkpt>
      <trkpt lat="49.04989" lon="0.02848">
        <ele>77</ele>
        <time>2024-03-03T09:48:54Z</time>
      </trkpt>
      <trkpt lat="49.04989" lon="0.02848">
        <ele>77</ele>
        <time>2024-03-03T09:48:55Z</time>
      </trkpt>
      <trkpt lat="49.04989" lon="0.02847">
        <ele>77</ele>
        <time>2024-03-03T09:48:56Z</time>
      </trkpt>
      <trkpt lat="49.04989" lon="0.02847">
        <ele>77</ele>
        <time>2024-03-03T09:48:57Z</time>
      </trkpt>
      <trkpt lat="49.04989" lon="0.02847">
        <ele>77</ele>
        <time>2024-03-03T09:48:58Z</time>
      </trkpt>
      <trkpt lat="49.04989" lon="0.02847">
        <ele>77</ele>
        <time>2024-03-03T09:48:59Z</time>
      </trkpt>
      <trkpt lat="49.04989" lon="0.02847">
        <ele>77</ele>
        <time>2024-03-03T09:49:00Z</time>
      </trkpt>
      <trkpt lat="49.04989" lon="0.02847">
        <ele>77</ele>
        <time>2024-03-03T09:49:01Z</time>
      </trkpt>
      <trkpt lat="49.04989" lon="0.02847">
        <ele>77</ele>
        <time>2024-03-03T09:49:02Z</time>
      </trkpt>
      <trkpt lat="49.04989" lon="0.02847">
        <ele>77</ele>
        <time>2024-03-03T09:49:03Z</time>
      </trkpt>
      <trkpt lat="49.04989" lon="0.02847">
        <ele>77</ele>
        <time>2024-03-03T09:49:04Z</time>
      </trkpt>
      <trkpt lat="49.04989" lon="0.02847">
        <ele>77</ele>
        <time>2024-03-03T09:49:05Z</time>
      </trkpt>
      <trkpt lat="49.04989" lon="0.02847">
        <ele>77</ele>
        <time>2024-03-03T09:49:06Z</time>
      </trkpt>
      <trkpt lat="49.04989" lon="0.02847">
        <ele>77</ele>
        <time>2024-03-03T09:49:07Z</time>
      </trkpt>
      <trkpt lat="49.04989" lon="0.02847">
        <ele>77</ele>
        <time>2024-03-03T09:49:08Z</time>
      </trkpt>
      <trkpt lat="49.04989" lon="0.02847">
        <ele>77</ele>
        <time>2024-03-03T09:49:09Z</time>
      </trkpt>
      <trkpt lat="49.04989" lon="0.02847">
        <ele>77</ele>
        <time>2024-03-03T09:49:10Z</time>
      </trkpt>
      <trkpt lat="49.04989" lon="0.02847">
        <ele>77</ele>
        <time>2024-03-03T09:49:11Z</time>
      </trkpt>
      <trkpt lat="49.04989" lon="0.02847">
        <ele>77</ele>
        <time>2024-03-03T09:49:12Z</time>
      </trkpt>
      <trkpt lat="49.04989" lon="0.02847">
        <ele>77</ele>
        <time>2024-03-03T09:49:13Z</time>
      </trkpt>
      <trkpt lat="49.04989" lon="0.02847">
        <ele>77</ele>
        <time>2024-03-03T09:49:14Z</time>
      </trkpt>
      <trkpt lat="49.04989" lon="0.02847">
        <ele>77</ele>
        <time>2024-03-03T09:49:15Z</time>
      </trkpt>
      <trkpt lat="49.04989" lon="0.02847">
        <ele>77</ele>
        <time>2024-03-03T09:49:16Z</time>
      </trkpt>
      <trkpt lat="49.04989" lon="0.02847">
        <ele>77</ele>
        <time>2024-03-03T09:49:17Z</time>
      </trkpt>
      <trkpt lat="49.04989" lon="0.02847">
        <ele>77</ele>
        <time>2024-03-03T09:49:18Z</time>
      </trkpt>
      <trkpt lat="49.04989" lon="0.02847">
        <ele>77</ele>
        <time>2024-03-03T09:49:19Z</time>
      </trkpt>
      <trkpt lat="49.04989" lon="0.02847">
        <ele>77</ele>
        <time>2024-03-03T09:49:20Z</time>
      </trkpt>
      <trkpt lat="49.04989" lon="0.02847">
        <ele>77</ele>
        <time>2024-03-03T09:49:21Z</time>
      </trkpt>
      <trkpt lat="49.04989" lon="0.02847">
        <ele>77</ele>
        <time>2024-03-03T09:49:22Z</time>
      </trkpt>
      <trkpt lat="49.04989" lon="0.02847">
        <ele>77</ele>
        <time>2024-03-03T09:49:23Z</time>
      </trkpt>
      <trkpt lat="49.04989" lon="0.02847">
        <ele>77</ele>
        <time>2024-03-03T09:49:24Z</time>
      </trkpt>
      <trkpt lat="49.04989" lon="0.02847">
        <ele>77</ele>
        <time>2024-03-03T09:49:25Z</time>
      </trkpt>
      <trkpt lat="49.04989" lon="0.02847">
        <ele>77</ele>
        <time>2024-03-03T09:49:26Z</time>
      </trkpt>
      <trkpt lat="49.04989" lon="0.02847">
        <ele>77</ele>
        <time>2024-03-03T09:49:27Z</time>
      </trkpt>
      <trkpt lat="49.04989" lon="0.02847">
        <ele>77</ele>
        <time>2024-03-03T09:49:28Z</time>
      </trkpt>
      <trkpt lat="49.04989" lon="0.02847">
        <ele>77</ele>
        <time>2024-03-03T09:49:29Z</time>
      </trkpt>
      <trkpt lat="49.04989" lon="0.02847">
        <ele>77</ele>
        <time>2024-03-03T09:49:30Z</time>
      </trkpt>
      <trkpt lat="49.04989" lon="0.02847">
        <ele>77</ele>
        <time>2024-03-03T09:49:31Z</time>
      </trkpt>
      <trkpt lat="49.04989" lon="0.02847">
        <ele>77</ele>
        <time>2024-03-03T09:49:32Z</time>
      </trkpt>
      <trkpt lat="49.04989" lon="0.02847">
        <ele>77</ele>
        <time>2024-03-03T09:49:33Z</time>
      </trkpt>
      <trkpt lat="49.04989" lon="0.02847">
        <ele>77</ele>
        <time>2024-03-03T09:49:34Z</time>
      </trkpt>
      <trkpt lat="49.04989" lon="0.02847">
        <ele>77</ele>
        <time>2024-03-03T09:49:35Z</time>
      </trkpt>
      <trkpt lat="49.04989" lon="0.02848">
        <ele>77</ele>
        <time>2024-03-03T09:49:36Z</time>
      </trkpt>
      <trkpt lat="49.04989" lon="0.02849">
        <ele>77</ele>
        <time>2024-03-03T09:49:37Z</time>
      </trkpt>
      <trkpt lat="49.04989" lon="0.02849">
        <ele>77</ele>
        <time>2024-03-03T09:49:38Z</time>
      </trkpt>
      <trkpt lat="49.04989" lon="0.02849">
        <ele>77</ele>
        <time>2024-03-03T09:49:39Z</time>
      </trkpt>
      <trkpt lat="49.04989" lon="0.02849">
        <ele>77</ele>
        <time>2024-03-03T09:49:40Z</time>
      </trkpt>
      <trkpt lat="49.04989" lon="0.02849">
        <ele>77</ele>
        <time>2024-03-03T09:49:41Z</time>
      </trkpt>
      <trkpt lat="49.04989" lon="0.02849">
        <ele>77</ele>
        <time>2024-03-03T09:49:42Z</time>
      </trkpt>
      <trkpt lat="49.04989" lon="0.02849">
        <ele>77</ele>
        <time>2024-03-03T09:49:43Z</time>
      </trkpt>
      <trkpt lat="49.04989" lon="0.02849">
        <ele>77</ele>
        <time>2024-03-03T09:49:44Z</time>
      </trkpt>
      <trkpt lat="49.04989" lon="0.02849">
        <ele>77</ele>
        <time>2024-03-03T09:49:45Z</time>
      </trkpt>
      <trkpt lat="49.04989" lon="0.02849">
        <ele>77</ele>
        <time>2024-03-03T09:49:46Z</time>
      </trkpt>
      <trkpt lat="49.0499" lon="0.02849">
        <ele>77</ele>
        <time>2024-03-03T09:49:47Z</time>
      </trkpt>
      <trkpt lat="49.0499" lon="0.02848">
        <ele>77.1</ele>
        <time>2024-03-03T09:49:48Z</time>
      </trkpt>
      <trkpt lat="49.0499" lon="0.02847">
        <ele>77.1</ele>
        <time>2024-03-03T09:49:49Z</time>
      </trkpt>
      <trkpt lat="49.04991" lon="0.02847">
        <ele>77.1</ele>
        <time>2024-03-03T09:49:50Z</time>
      </trkpt>
      <trkpt lat="49.04991" lon="0.02847">
        <ele>77.1</ele>
        <time>2024-03-03T09:49:51Z</time>
      </trkpt>
      <trkpt lat="49.04991" lon="0.02847">
        <ele>77.1</ele>
        <time>2024-03-03T09:49:52Z</time>
      </trkpt>
      <trkpt lat="49.04991" lon="0.02847">
        <ele>77.1</ele>
        <time>2024-03-03T09:49:53Z</time>
      </trkpt>
      <trkpt lat="49.04991" lon="0.02847">
        <ele>77.1</ele>
        <time>2024-03-03T09:49:54Z</time>
      </trkpt>
      <trkpt lat="49.04991" lon="0.02847">
        <ele>77.1</ele>
        <time>2024-03-03T09:49:55Z</time>
      </trkpt>
      <trkpt lat="49.04991" lon="0.02847">
        <ele>77.1</ele>
        <time>2024-03-03T09:49:56Z</time>
      </trkpt>
      <trkpt lat="49.04991" lon="0.02847">
        <ele>77.1</ele>
        <time>2024-03-03T09:49:57Z</time>
      </trkpt>
      <trkpt lat="49.04991" lon="0.02847">
        <ele>77.1</ele>
        <time>2024-03-03T09:49:58Z</time>
      </trkpt>
      <trkpt lat="49.04991" lon="0.02847">
        <ele>77.1</ele>
        <time>2024-03-03T09:49:59Z</time>
      </trkpt>
      <trkpt lat="49.04991" lon="0.02847">
        <ele>77.1</ele>
        <time>2024-03-03T09:50:00Z</time>
      </trkpt>
      <trkpt lat="49.04991" lon="0.02847">
        <ele>77.1</ele>
        <time>2024-03-03T09:50:01Z</time>
      </trkpt>
      <trkpt lat="49.04991" lon="0.02847">
        <ele>77.1</ele>
        <time>2024-03-03T09:50:02Z</time>
      </trkpt>
      <trkpt lat="49.04991" lon="0.02847">
        <ele>77.1</ele>
        <time>2024-03-03T09:50:03Z</time>
      </trkpt>
      <trkpt lat="49.04991" lon="0.02847">
        <ele>77.1</ele>
        <time>2024-03-03T09:50:04Z</time>
      </trkpt>
      <trkpt lat="49.04991" lon="0.02847">
        <ele>77.1</ele>
        <time>2024-03-03T09:50:05Z</time>
      </trkpt>
      <trkpt lat="49.04991" lon="0.02847">
        <ele>77.1</ele>
        <time>2024-03-03T09:50:06Z</time>
      </trkpt>
      <trkpt lat="49.04991" lon="0.02847">
        <ele>77.1</ele>
        <time>2024-03-03T09:50:07Z</time>
      </trkpt>
      <trkpt lat="49.04991" lon="0.02847">
        <ele>77.1</ele>
        <time>2024-03-03T09:50:08Z</time>
      </trkpt>
      <trkpt lat="49.04991" lon="0.02847">
        <ele>77.1</ele>
        <time>2024-03-03T09:50:09Z</time>
      </trkpt>
      <trkpt lat="49.04991" lon="0.02847">
        <ele>77.1</ele>
        <time>2024-03-03T09:50:10Z</time>
      </trkpt>
      <trkpt lat="49.04991" lon="0.02847">
        <ele>77.1</ele>
        <time>2024-03-03T09:50:11Z</time>
      </trkpt>
      <trkpt lat="49.04991" lon="0.02847">
        <ele>77.1</ele>
        <time>2024-03-03T09:50:12Z</time>
      </trkpt>
      <trkpt lat="49.04991" lon="0.02847">
        <ele>77.1</ele>
        <time>2024-03-03T09:50:13Z</time>
      </trkpt>
      <trkpt lat="49.04991" lon="0.02847">
        <ele>77.1</ele>
        <time>2024-03-03T09:50:14Z</time>
      </trkpt>
      <trkpt lat="49.04991" lon="0.02847">
        <ele>77.1</ele>
        <time>2024-03-03T09:50:15Z</time>
      </trkpt>
      <trkpt lat="49.04991" lon="0.02847">
        <ele>77.1</ele>
        <time>2024-03-03T09:50:16Z</time>
      </trkpt>
      <trkpt lat="49.04991" lon="0.02847">
        <ele>77.1</ele>
        <time>2024-03-03T09:50:17Z</time>
      </trkpt>
      <trkpt lat="49.04991" lon="0.02847">
        <ele>77.1</ele>
        <time>2024-03-03T09:50:18Z</time>
      </trkpt>
      <trkpt lat="49.04991" lon="0.02847">
        <ele>77.1</ele>
        <time>2024-03-03T09:50:19Z</time>
      </trkpt>
      <trkpt lat="49.04991" lon="0.02847">
        <ele>77.1</ele>
        <time>2024-03-03T09:50:20Z</time>
      </trkpt>
      <trkpt lat="49.04991" lon="0.02847">
        <ele>77.1</ele>
        <time>2024-03-03T09:50:21Z</time>
      </trkpt>
      <trkpt lat="49.04991" lon="0.02847">
        <ele>77.1</ele>
        <time>2024-03-03T09:50:22Z</time>
      </trkpt>
      <trkpt lat="49.04991" lon="0.02847">
        <ele>77.1</ele>
        <time>2024-03-03T09:50:23Z</time>
      </trkpt>
      <trkpt lat="49.04991" lon="0.02847">
        <ele>77.1</ele>
        <time>2024-03-03T09:50:24Z</time>
      </trkpt>
      <trkpt lat="49.04991" lon="0.02847">
        <ele>77.1</ele>
        <time>2024-03-03T09:50:25Z</time>
      </trkpt>
      <trkpt lat="49.04991" lon="0.02847">
        <ele>77.1</ele>
        <time>2024-03-03T09:50:26Z</time>
      </trkpt>
      <trkpt lat="49.04991" lon="0.02847">
        <ele>77.1</ele>
        <time>2024-03-03T09:50:27Z</time>
      </trkpt>
      <trkpt lat="49.04991" lon="0.02847">
        <ele>77.1</ele>
        <time>2024-03-03T09:50:28Z</time>
      </trkpt>
      <trkpt lat="49.04991" lon="0.02847">
        <ele>77.1</ele>
        <time>2024-03-03T09:50:29Z</time>
      </trkpt>
      <trkpt lat="49.04991" lon="0.02847">
        <ele>77.1</ele>
        <time>2024-03-03T09:50:30Z</time>
      </trkpt>
      <trkpt lat="49.04991" lon="0.02847">
        <ele>77.1</ele>
        <time>2024-03-03T09:50:31Z</time>
      </trkpt>
      <trkpt lat="49.04991" lon="0.02847">
        <ele>77.1</ele>
        <time>2024-03-03T09:50:32Z</time>
      </trkpt>
      <trkpt lat="49.04991" lon="0.02847">
        <ele>77.1</ele>
        <time>2024-03-03T09:50:33Z</time>
      </trkpt>
      <trkpt lat="49.04991" lon="0.02847">
        <ele>77.1</ele>
        <time>2024-03-03T09:50:34Z</time>
      </trkpt>
      <trkpt lat="49.04991" lon="0.02847">
        <ele>77.1</ele>
        <time>2024-03-03T09:50:35Z</time>
      </trkpt>
      <trkpt lat="49.04991" lon="0.02847">
        <ele>77.1</ele>
        <time>2024-03-03T09:50:36Z</time>
      </trkpt>
      <trkpt lat="49.04991" lon="0.02847">
        <ele>77.1</ele>
        <time>2024-03-03T09:50:37Z</time>
      </trkpt>
      <trkpt lat="49.04992" lon="0.02846">
        <ele>77.1</ele>
        <time>2024-03-03T09:50:38Z</time>
      </trkpt>
      <trkpt lat="49.04993" lon="0.02844">
        <ele>77.1</ele>
        <time>2024-03-03T09:50:39Z</time>
      </trkpt>
      <trkpt lat="49.04994" lon="0.02843">
        <ele>77.1</ele>
        <time>2024-03-03T09:50:40Z</time>
      </trkpt>
      <trkpt lat="49.04995" lon="0.02839">
        <ele>77.2</ele>
        <time>2024-03-03T09:50:41Z</time>
      </trkpt>
      <trkpt lat="49.04996" lon="0.02838">
        <ele>77.2</ele>
        <time>2024-03-03T09:50:42Z</time>
      </trkpt>
      <trkpt lat="49.04999" lon="0.02834">
        <ele>77.2</ele>
        <time>2024-03-03T09:50:43Z</time>
      </trkpt>
      <trkpt lat="49.05" lon="0.02833">
        <ele>77.2</ele>
        <time>2024-03-03T09:50:44Z</time>
      </trkpt>
      <trkpt lat="49.05002" lon="0.0283">
        <ele>77.3</ele>
        <time>2024-03-03T09:50:45Z</time>
      </trkpt>
      <trkpt lat="49.05004" lon="0.02826">
        <ele>77.3</ele>
        <time>2024-03-03T09:50:46Z</time>
      </trkpt>
      <trkpt lat="49.05006" lon="0.02822">
        <ele>77.4</ele>
        <time>2024-03-03T09:50:47Z</time>
      </trkpt>
      <trkpt lat="49.05009" lon="0.02818">
        <ele>77.4</ele>
        <time>2024-03-03T09:50:48Z</time>
      </trkpt>
      <trkpt lat="49.05011" lon="0.02814">
        <ele>77.4</ele>
        <time>2024-03-03T09:50:49Z</time>
      </trkpt>
      <trkpt lat="49.05012" lon="0.0281">
        <ele>77.5</ele>
        <time>2024-03-03T09:50:50Z</time>
      </trkpt>
      <trkpt lat="49.05015" lon="0.02805">
        <ele>77.5</ele>
        <time>2024-03-03T09:50:51Z</time>
      </trkpt>
      <trkpt lat="49.05018" lon="0.02801">
        <ele>77.5</ele>
        <time>2024-03-03T09:50:52Z</time>
      </trkpt>
      <trkpt lat="49.05021" lon="0.02797">
        <ele>77.5</ele>
        <time>2024-03-03T09:50:53Z</time>
      </trkpt>
      <trkpt lat="49.05024" lon="0.02792">
        <ele>77.5</ele>
        <time>2024-03-03T09:50:54Z</time>
      </trkpt>
      <trkpt lat="49.05027" lon="0.02787">
        <ele>77.5</ele>
        <time>2024-03-03T09:50:55Z</time>
      </trkpt>
      <trkpt lat="49.0503" lon="0.02783">
        <ele>77.4</ele>
        <time>2024-03-03T09:50:56Z</time>
      </trkpt>
      <trkpt lat="49.05033" lon="0.0278">
        <ele>77.4</ele>
        <time>2024-03-03T09:50:57Z</time>
      </trkpt>
      <trkpt lat="49.05036" lon="0.02775">
        <ele>77.3</ele>
        <time>2024-03-03T09:50:58Z</time>
      </trkpt>
      <trkpt lat="49.05039" lon="0.02771">
        <ele>77.3</ele>
        <time>2024-03-03T09:50:59Z</time>
      </trkpt>
      <trkpt lat="49.05042" lon="0.02767">
        <ele>77.3</ele>
        <time>2024-03-03T09:51:00Z</time>
      </trkpt>
      <trkpt lat="49.05045" lon="0.02762">
        <ele>77.2</ele>
        <time>2024-03-03T09:51:01Z</time>
      </trkpt>
      <trkpt lat="49.05048" lon="0.02758">
        <ele>77.2</ele>
        <time>2024-03-03T09:51:02Z</time>
      </trkpt>
      <trkpt lat="49.05051" lon="0.02753">
        <ele>77.2</ele>
        <time>2024-03-03T09:51:03Z</time>
      </trkpt>
      <trkpt lat="49.05055" lon="0.02749">
        <ele>77.1</ele>
        <time>2024-03-03T09:51:04Z</time>
      </trkpt>
      <trkpt lat="49.05058" lon="0.02745">
        <ele>77.1</ele>
        <time>2024-03-03T09:51:05Z</time>
      </trkpt>
      <trkpt lat="49.05061" lon="0.02742">
        <ele>77.1</ele>
        <time>2024-03-03T09:51:06Z</time>
      </trkpt>
      <trkpt lat="49.05065" lon="0.02739">
        <ele>77.1</ele>
        <time>2024-03-03T09:51:07Z</time>
      </trkpt>
      <trkpt lat="49.05068" lon="0.02735">
        <ele>77.1</ele>
        <time>2024-03-03T09:51:08Z</time>
      </trkpt>
      <trkpt lat="49.05072" lon="0.0273">
        <ele>77</ele>
        <time>2024-03-03T09:51:09Z</time>
      </trkpt>
      <trkpt lat="49.05076" lon="0.02725">
        <ele>77</ele>
        <time>2024-03-03T09:51:10Z</time>
      </trkpt>
      <trkpt lat="49.0508" lon="0.0272">
        <ele>77</ele>
        <time>2024-03-03T09:51:11Z</time>
      </trkpt>
      <trkpt lat="49.05085" lon="0.02716">
        <ele>77</ele>
        <time>2024-03-03T09:51:12Z</time>
      </trkpt>
      <trkpt lat="49.0509" lon="0.02711">
        <ele>76.9</ele>
        <time>2024-03-03T09:51:13Z</time>
      </trkpt>
      <trkpt lat="49.05095" lon="0.02706">
        <ele>76.9</ele>
        <time>2024-03-03T09:51:14Z</time>
      </trkpt>
      <trkpt lat="49.051" lon="0.02701">
        <ele>76.9</ele>
        <time>2024-03-03T09:51:15Z</time>
      </trkpt>
      <trkpt lat="49.05104" lon="0.02696">
        <ele>76.8</ele>
        <time>2024-03-03T09:51:16Z</time>
      </trkpt>
      <trkpt lat="49.05109" lon="0.0269">
        <ele>76.8</ele>
        <time>2024-03-03T09:51:17Z</time>
      </trkpt>
      <trkpt lat="49.05113" lon="0.02684">
        <ele>76.7</ele>
        <time>2024-03-03T09:51:18Z</time>
      </trkpt>
      <trkpt lat="49.05118" lon="0.02679">
        <ele>76.6</ele>
        <time>2024-03-03T09:51:19Z</time>
      </trkpt>
      <trkpt lat="49.05122" lon="0.02673">
        <ele>76.5</ele>
        <time>2024-03-03T09:51:20Z</time>
      </trkpt>
      <trkpt lat="49.05128" lon="0.02668">
        <ele>76.4</ele>
        <time>2024-03-03T09:51:21Z</time>
      </trkpt>
      <trkpt lat="49.05134" lon="0.02664">
        <ele>76.3</ele>
        <time>2024-03-03T09:51:22Z</time>
      </trkpt>
      <trkpt lat="49.0514" lon="0.02659">
        <ele>76.2</ele>
        <time>2024-03-03T09:51:23Z</time>
      </trkpt>
      <trkpt lat="49.05146" lon="0.02653">
        <ele>76.1</ele>
        <time>2024-03-03T09:51:24Z</time>
      </trkpt>
      <trkpt lat="49.05151" lon="0.02649">
        <ele>76.1</ele>
        <time>2024-03-03T09:51:25Z</time>
      </trkpt>
      <trkpt lat="49.05156" lon="0.02645">
        <ele>76</ele>
        <time>2024-03-03T09:51:26Z</time>
      </trkpt>
      <trkpt lat="49.05162" lon="0.02641">
        <ele>76</ele>
        <time>2024-03-03T09:51:27Z</time>
      </trkpt>
      <trkpt lat="49.05167" lon="0.02637">
        <ele>75.9</ele>
        <time>2024-03-03T09:51:28Z</time>
      </trkpt>
      <trkpt lat="49.05173" lon="0.02633">
        <ele>75.8</ele>
        <time>2024-03-03T09:51:29Z</time>
      </trkpt>
      <trkpt lat="49.05179" lon="0.0263">
        <ele>75.7</ele>
        <time>2024-03-03T09:51:30Z</time>
      </trkpt>
      <trkpt lat="49.05184" lon="0.02626">
        <ele>75.7</ele>
        <time>2024-03-03T09:51:31Z</time>
      </trkpt>
      <trkpt lat="49.0519" lon="0.02622">
        <ele>75.6</ele>
        <time>2024-03-03T09:51:32Z</time>
      </trkpt>
      <trkpt lat="49.05196" lon="0.02619">
        <ele>75.5</ele>
        <time>2024-03-03T09:51:33Z</time>
      </trkpt>
      <trkpt lat="49.05201" lon="0.02616">
        <ele>75.4</ele>
        <time>2024-03-03T09:51:34Z</time>
      </trkpt>
      <trkpt lat="49.05207" lon="0.02613">
        <ele>75.3</ele>
        <time>2024-03-03T09:51:35Z</time>
      </trkpt>
      <trkpt lat="49.05212" lon="0.02608">
        <ele>75.2</ele>
        <time>2024-03-03T09:51:36Z</time>
      </trkpt>
      <trkpt lat="49.05218" lon="0.02604">
        <ele>75.1</ele>
        <time>2024-03-03T09:51:37Z</time>
      </trkpt>
      <trkpt lat="49.05224" lon="0.02599">
        <ele>74.9</ele>
        <time>2024-03-03T09:51:38Z</time>
      </trkpt>
      <trkpt lat="49.0523" lon="0.02594">
        <ele>74.8</ele>
        <time>2024-03-03T09:51:39Z</time>
      </trkpt>
      <trkpt lat="49.05236" lon="0.02588">
        <ele>74.7</ele>
        <time>2024-03-03T09:51:40Z</time>
      </trkpt>
      <trkpt lat="49.05242" lon="0.02583">
        <ele>74.7</ele>
        <time>2024-03-03T09:51:41Z</time>
      </trkpt>
      <trkpt lat="49.05248" lon="0.02577">
        <ele>74.6</ele>
        <time>2024-03-03T09:51:42Z</time>
      </trkpt>
      <trkpt lat="49.05253" lon="0.02572">
        <ele>74.6</ele>
        <time>2024-03-03T09:51:43Z</time>
      </trkpt>
      <trkpt lat="49.05259" lon="0.02566">
        <ele>74.5</ele>
        <time>2024-03-03T09:51:44Z</time>
      </trkpt>
      <trkpt lat="49.05265" lon="0.0256">
        <ele>74.4</ele>
        <time>2024-03-03T09:51:45Z</time>
      </trkpt>
      <trkpt lat="49.05271" lon="0.02554">
        <ele>74.3</ele>
        <time>2024-03-03T09:51:46Z</time>
      </trkpt>
      <trkpt lat="49.05276" lon="0.02549">
        <ele>74.3</ele>
        <time>2024-03-03T09:51:47Z</time>
      </trkpt>
      <trkpt lat="49.05282" lon="0.02544">
        <ele>74.2</ele>
        <time>2024-03-03T09:51:48Z</time>
      </trkpt>
      <trkpt lat="49.05288" lon="0.02539">
        <ele>74.1</ele>
        <time>2024-03-03T09:51:49Z</time>
      </trkpt>
      <trkpt lat="49.05294" lon="0.02534">
        <ele>74</ele>
        <time>2024-03-03T09:51:50Z</time>
      </trkpt>
      <trkpt lat="49.05301" lon="0.02529">
        <ele>73.9</ele>
        <time>2024-03-03T09:51:51Z</time>
      </trkpt>
      <trkpt lat="49.05308" lon="0.02523">
        <ele>73.8</ele>
        <time>2024-03-03T09:51:52Z</time>
      </trkpt>
      <trkpt lat="49.05314" lon="0.02517">
        <ele>73.7</ele>
        <time>2024-03-03T09:51:53Z</time>
      </trkpt>
      <trkpt lat="49.05321" lon="0.0251">
        <ele>73.6</ele>
        <time>2024-03-03T09:51:54Z</time>
      </trkpt>
      <trkpt lat="49.05327" lon="0.02501">
        <ele>73.5</ele>
        <time>2024-03-03T09:51:55Z</time>
      </trkpt>
      <trkpt lat="49.05332" lon="0.02493">
        <ele>73.4</ele>
        <time>2024-03-03T09:51:56Z</time>
      </trkpt>
      <trkpt lat="49.05337" lon="0.02484">
        <ele>73.3</ele>
        <time>2024-03-03T09:51:57Z</time>
      </trkpt>
      <trkpt lat="49.05342" lon="0.02475">
        <ele>73.2</ele>
        <time>2024-03-03T09:51:58Z</time>
      </trkpt>
      <trkpt lat="49.05347" lon="0.02467">
        <ele>73.2</ele>
        <time>2024-03-03T09:51:59Z</time>
      </trkpt>
      <trkpt lat="49.05353" lon="0.02458">
        <ele>73.1</ele>
        <time>2024-03-03T09:52:00Z</time>
      </trkpt>
      <trkpt lat="49.05358" lon="0.02451">
        <ele>73.1</ele>
        <time>2024-03-03T09:52:01Z</time>
      </trkpt>
      <trkpt lat="49.05363" lon="0.02442">
        <ele>73</ele>
        <time>2024-03-03T09:52:02Z</time>
      </trkpt>
      <trkpt lat="49.05369" lon="0.02435">
        <ele>73</ele>
        <time>2024-03-03T09:52:03Z</time>
      </trkpt>
      <trkpt lat="49.05374" lon="0.02427">
        <ele>73.1</ele>
        <time>2024-03-03T09:52:04Z</time>
      </trkpt>
      <trkpt lat="49.05379" lon="0.0242">
        <ele>73.1</ele>
        <time>2024-03-03T09:52:05Z</time>
      </trkpt>
      <trkpt lat="49.05385" lon="0.02413">
        <ele>73.1</ele>
        <time>2024-03-03T09:52:06Z</time>
      </trkpt>
      <trkpt lat="49.0539" lon="0.02405">
        <ele>73.1</ele>
        <time>2024-03-03T09:52:07Z</time>
      </trkpt>
      <trkpt lat="49.05395" lon="0.02397">
        <ele>73.1</ele>
        <time>2024-03-03T09:52:08Z</time>
      </trkpt>
      <trkpt lat="49.05401" lon="0.02389">
        <ele>73.1</ele>
        <time>2024-03-03T09:52:09Z</time>
      </trkpt>
      <trkpt lat="49.05406" lon="0.02381">
        <ele>73.1</ele>
        <time>2024-03-03T09:52:10Z</time>
      </trkpt>
      <trkpt lat="49.05412" lon="0.02373">
        <ele>73</ele>
        <time>2024-03-03T09:52:11Z</time>
      </trkpt>
      <trkpt lat="49.05418" lon="0.02365">
        <ele>72.9</ele>
        <time>2024-03-03T09:52:12Z</time>
      </trkpt>
      <trkpt lat="49.05423" lon="0.02356">
        <ele>72.8</ele>
        <time>2024-03-03T09:52:13Z</time>
      </trkpt>
      <trkpt lat="49.05429" lon="0.02348">
        <ele>72.8</ele>
        <time>2024-03-03T09:52:14Z</time>
      </trkpt>
      <trkpt lat="49.05435" lon="0.0234">
        <ele>72.7</ele>
        <time>2024-03-03T09:52:15Z</time>
      </trkpt>
      <trkpt lat="49.05441" lon="0.02333">
        <ele>72.7</ele>
        <time>2024-03-03T09:52:16Z</time>
      </trkpt>
      <trkpt lat="49.05446" lon="0.02326">
        <ele>72.7</ele>
        <time>2024-03-03T09:52:17Z</time>
      </trkpt>
      <trkpt lat="49.05452" lon="0.02319">
        <ele>72.7</ele>
        <time>2024-03-03T09:52:18Z</time>
      </trkpt>
      <trkpt lat="49.05458" lon="0.02312">
        <ele>72.6</ele>
        <time>2024-03-03T09:52:19Z</time>
      </trkpt>
      <trkpt lat="49.05463" lon="0.02305">
        <ele>72.6</ele>
        <time>2024-03-03T09:52:20Z</time>
      </trkpt>
      <trkpt lat="49.05469" lon="0.02297">
        <ele>72.6</ele>
        <time>2024-03-03T09:52:21Z</time>
      </trkpt>
      <trkpt lat="49.05474" lon="0.02289">
        <ele>72.6</ele>
        <time>2024-03-03T09:52:22Z</time>
      </trkpt>
      <trkpt lat="49.05479" lon="0.02281">
        <ele>72.6</ele>
        <time>2024-03-03T09:52:23Z</time>
      </trkpt>
      <trkpt lat="49.05485" lon="0.02274">
        <ele>72.5</ele>
        <time>2024-03-03T09:52:24Z</time>
      </trkpt>
      <trkpt lat="49.0549" lon="0.02267">
        <ele>72.5</ele>
        <time>2024-03-03T09:52:25Z</time>
      </trkpt>
      <trkpt lat="49.05496" lon="0.02258">
        <ele>72.4</ele>
        <time>2024-03-03T09:52:26Z</time>
      </trkpt>
      <trkpt lat="49.055" lon="0.0225">
        <ele>72.3</ele>
        <time>2024-03-03T09:52:27Z</time>
      </trkpt>
      <trkpt lat="49.05506" lon="0.02241">
        <ele>72.2</ele>
        <time>2024-03-03T09:52:28Z</time>
      </trkpt>
      <trkpt lat="49.05512" lon="0.02233">
        <ele>72.2</ele>
        <time>2024-03-03T09:52:29Z</time>
      </trkpt>
      <trkpt lat="49.05517" lon="0.02225">
        <ele>72.2</ele>
        <time>2024-03-03T09:52:30Z</time>
      </trkpt>
      <trkpt lat="49.05523" lon="0.02217">
        <ele>72.1</ele>
        <time>2024-03-03T09:52:31Z</time>
      </trkpt>
      <trkpt lat="49.05529" lon="0.0221">
        <ele>72.1</ele>
        <time>2024-03-03T09:52:32Z</time>
      </trkpt>
      <trkpt lat="49.05535" lon="0.02203">
        <ele>72.1</ele>
        <time>2024-03-03T09:52:33Z</time>
      </trkpt>
      <trkpt lat="49.0554" lon="0.02195">
        <ele>72</ele>
        <time>2024-03-03T09:52:34Z</time>
      </trkpt>
      <trkpt lat="49.05546" lon="0.02188">
        <ele>71.9</ele>
        <time>2024-03-03T09:52:35Z</time>
      </trkpt>
      <trkpt lat="49.05553" lon="0.02182">
        <ele>71.9</ele>
        <time>2024-03-03T09:52:36Z</time>
      </trkpt>
      <trkpt lat="49.05559" lon="0.02175">
        <ele>71.8</ele>
        <time>2024-03-03T09:52:37Z</time>
      </trkpt>
      <trkpt lat="49.05565" lon="0.02168">
        <ele>71.8</ele>
        <time>2024-03-03T09:52:38Z</time>
      </trkpt>
      <trkpt lat="49.05572" lon="0.02162">
        <ele>71.7</ele>
        <time>2024-03-03T09:52:39Z</time>
      </trkpt>
      <trkpt lat="49.05578" lon="0.02156">
        <ele>71.6</ele>
        <time>2024-03-03T09:52:40Z</time>
      </trkpt>
      <trkpt lat="49.05584" lon="0.02149">
        <ele>71.6</ele>
        <time>2024-03-03T09:52:41Z</time>
      </trkpt>
      <trkpt lat="49.05591" lon="0.02143">
        <ele>71.5</ele>
        <time>2024-03-03T09:52:42Z</time>
      </trkpt>
      <trkpt lat="49.05598" lon="0.02137">
        <ele>71.4</ele>
        <time>2024-03-03T09:52:43Z</time>
      </trkpt>
      <trkpt lat="49.05604" lon="0.02131">
        <ele>71.4</ele>
        <time>2024-03-03T09:52:44Z</time>
      </trkpt>
      <trkpt lat="49.0561" lon="0.02124">
        <ele>71.4</ele>
        <time>2024-03-03T09:52:45Z</time>
      </trkpt>
      <trkpt lat="49.05616" lon="0.02118">
        <ele>71.4</ele>
        <time>2024-03-03T09:52:46Z</time>
      </trkpt>
      <trkpt lat="49.05623" lon="0.02112">
        <ele>71.4</ele>
        <time>2024-03-03T09:52:47Z</time>
      </trkpt>
      <trkpt lat="49.05629" lon="0.02106">
        <ele>71.4</ele>
        <time>2024-03-03T09:52:48Z</time>
      </trkpt>
      <trkpt lat="49.05635" lon="0.021">
        <ele>71.3</ele>
        <time>2024-03-03T09:52:49Z</time>
      </trkpt>
      <trkpt lat="49.05641" lon="0.02094">
        <ele>71.3</ele>
        <time>2024-03-03T09:52:50Z</time>
      </trkpt>
      <trkpt lat="49.05647" lon="0.02087">
        <ele>71.3</ele>
        <time>2024-03-03T09:52:51Z</time>
      </trkpt>
      <trkpt lat="49.05654" lon="0.02081">
        <ele>71.3</ele>
        <time>2024-03-03T09:52:52Z</time>
      </trkpt>
      <trkpt lat="49.0566" lon="0.02076">
        <ele>71.3</ele>
        <time>2024-03-03T09:52:53Z</time>
      </trkpt>
      <trkpt lat="49.05666" lon="0.0207">
        <ele>71.3</ele>
        <time>2024-03-03T09:52:54Z</time>
      </trkpt>
      <trkpt lat="49.05672" lon="0.02064">
        <ele>71.3</ele>
        <time>2024-03-03T09:52:55Z</time>
      </trkpt>
      <trkpt lat="49.05678" lon="0.02058">
        <ele>71.3</ele>
        <time>2024-03-03T09:52:56Z</time>
      </trkpt>
      <trkpt lat="49.05684" lon="0.02052">
        <ele>71.3</ele>
        <time>2024-03-03T09:52:57Z</time>
      </trkpt>
      <trkpt lat="49.05691" lon="0.02046">
        <ele>71.3</ele>
        <time>2024-03-03T09:52:58Z</time>
      </trkpt>
      <trkpt lat="49.05697" lon="0.02039">
        <ele>71.3</ele>
        <time>2024-03-03T09:52:59Z</time>
      </trkpt>
      <trkpt lat="49.05703" lon="0.02032">
        <ele>71.3</ele>
        <time>2024-03-03T09:53:00Z</time>
      </trkpt>
      <trkpt lat="49.05709" lon="0.02025">
        <ele>71.3</ele>
        <time>2024-03-03T09:53:01Z</time>
      </trkpt>
      <trkpt lat="49.05715" lon="0.02017">
        <ele>71.3</ele>
        <time>2024-03-03T09:53:02Z</time>
      </trkpt>
      <trkpt lat="49.05721" lon="0.0201">
        <ele>71.4</ele>
        <time>2024-03-03T09:53:03Z</time>
      </trkpt>
      <trkpt lat="49.05726" lon="0.02002">
        <ele>71.4</ele>
        <time>2024-03-03T09:53:04Z</time>
      </trkpt>
      <trkpt lat="49.05731" lon="0.01993">
        <ele>71.4</ele>
        <time>2024-03-03T09:53:05Z</time>
      </trkpt>
      <trkpt lat="49.05736" lon="0.01985">
        <ele>71.4</ele>
        <time>2024-03-03T09:53:06Z</time>
      </trkpt>
      <trkpt lat="49.05741" lon="0.01976">
        <ele>71.4</ele>
        <time>2024-03-03T09:53:07Z</time>
      </trkpt>
      <trkpt lat="49.05746" lon="0.01968">
        <ele>71.3</ele>
        <time>2024-03-03T09:53:08Z</time>
      </trkpt>
      <trkpt lat="49.05751" lon="0.0196">
        <ele>71.3</ele>
        <time>2024-03-03T09:53:09Z</time>
      </trkpt>
      <trkpt lat="49.05756" lon="0.01951">
        <ele>71.3</ele>
        <time>2024-03-03T09:53:10Z</time>
      </trkpt>
      <trkpt lat="49.05761" lon="0.01943">
        <ele>71.4</ele>
        <time>2024-03-03T09:53:11Z</time>
      </trkpt>
      <trkpt lat="49.05766" lon="0.01935">
        <ele>71.5</ele>
        <time>2024-03-03T09:53:12Z</time>
      </trkpt>
      <trkpt lat="49.05771" lon="0.01927">
        <ele>71.5</ele>
        <time>2024-03-03T09:53:13Z</time>
      </trkpt>
      <trkpt lat="49.05775" lon="0.01919">
        <ele>71.6</ele>
        <time>2024-03-03T09:53:14Z</time>
      </trkpt>
      <trkpt lat="49.0578" lon="0.01911">
        <ele>71.7</ele>
        <time>2024-03-03T09:53:15Z</time>
      </trkpt>
      <trkpt lat="49.05785" lon="0.01903">
        <ele>71.8</ele>
        <time>2024-03-03T09:53:16Z</time>
      </trkpt>
      <trkpt lat="49.05789" lon="0.01896">
        <ele>71.8</ele>
        <time>2024-03-03T09:53:17Z</time>
      </trkpt>
      <trkpt lat="49.05794" lon="0.01888">
        <ele>71.9</ele>
        <time>2024-03-03T09:53:18Z</time>
      </trkpt>
      <trkpt lat="49.05799" lon="0.01881">
        <ele>72</ele>
        <time>2024-03-03T09:53:19Z</time>
      </trkpt>
      <trkpt lat="49.05805" lon="0.01873">
        <ele>72.1</ele>
        <time>2024-03-03T09:53:20Z</time>
      </trkpt>
      <trkpt lat="49.0581" lon="0.01866">
        <ele>72.1</ele>
        <time>2024-03-03T09:53:21Z</time>
      </trkpt>
      <trkpt lat="49.05815" lon="0.01859">
        <ele>72.2</ele>
        <time>2024-03-03T09:53:22Z</time>
      </trkpt>
      <trkpt lat="49.0582" lon="0.01852">
        <ele>72.3</ele>
        <time>2024-03-03T09:53:23Z</time>
      </trkpt>
      <trkpt lat="49.05825" lon="0.01845">
        <ele>72.4</ele>
        <time>2024-03-03T09:53:24Z</time>
      </trkpt>
      <trkpt lat="49.0583" lon="0.01837">
        <ele>72.4</ele>
        <time>2024-03-03T09:53:25Z</time>
      </trkpt>
      <trkpt lat="49.05836" lon="0.0183">
        <ele>72.5</ele>
        <time>2024-03-03T09:53:26Z</time>
      </trkpt>
      <trkpt lat="49.05841" lon="0.01823">
        <ele>72.6</ele>
        <time>2024-03-03T09:53:27Z</time>
      </trkpt>
      <trkpt lat="49.05846" lon="0.01815">
        <ele>72.7</ele>
        <time>2024-03-03T09:53:28Z</time>
      </trkpt>
      <trkpt lat="49.05851" lon="0.01807">
        <ele>72.7</ele>
        <time>2024-03-03T09:53:29Z</time>
      </trkpt>
      <trkpt lat="49.05856" lon="0.01799">
        <ele>72.8</ele>
        <time>2024-03-03T09:53:30Z</time>
      </trkpt>
      <trkpt lat="49.05861" lon="0.01791">
        <ele>72.8</ele>
        <time>2024-03-03T09:53:31Z</time>
      </trkpt>
      <trkpt lat="49.05865" lon="0.01782">
        <ele>72.9</ele>
        <time>2024-03-03T09:53:32Z</time>
      </trkpt>
      <trkpt lat="49.0587" lon="0.01774">
        <ele>72.9</ele>
        <time>2024-03-03T09:53:33Z</time>
      </trkpt>
      <trkpt lat="49.05874" lon="0.01766">
        <ele>73</ele>
        <time>2024-03-03T09:53:34Z</time>
      </trkpt>
      <trkpt lat="49.05878" lon="0.01758">
        <ele>73</ele>
        <time>2024-03-03T09:53:35Z</time>
      </trkpt>
      <trkpt lat="49.05882" lon="0.0175">
        <ele>73.1</ele>
        <time>2024-03-03T09:53:36Z</time>
      </trkpt>
      <trkpt lat="49.05886" lon="0.01741">
        <ele>73.2</ele>
        <time>2024-03-03T09:53:37Z</time>
      </trkpt>
      <trkpt lat="49.0589" lon="0.01732">
        <ele>73.3</ele>
        <time>2024-03-03T09:53:38Z</time>
      </trkpt>
      <trkpt lat="49.05893" lon="0.01723">
        <ele>73.3</ele>
        <time>2024-03-03T09:53:39Z</time>
      </trkpt>
      <trkpt lat="49.05896" lon="0.01713">
        <ele>73.4</ele>
        <time>2024-03-03T09:53:40Z</time>
      </trkpt>
      <trkpt lat="49.05897" lon="0.01703">
        <ele>73.4</ele>
        <time>2024-03-03T09:53:41Z</time>
      </trkpt>
      <trkpt lat="49.05898" lon="0.01693">
        <ele>73.5</ele>
        <time>2024-03-03T09:53:42Z</time>
      </trkpt>
      <trkpt lat="49.05899" lon="0.01682">
        <ele>73.5</ele>
        <time>2024-03-03T09:53:43Z</time>
      </trkpt>
      <trkpt lat="49.059" lon="0.01671">
        <ele>73.6</ele>
        <time>2024-03-03T09:53:44Z</time>
      </trkpt>
      <trkpt lat="49.059" lon="0.01661">
        <ele>73.7</ele>
        <time>2024-03-03T09:53:45Z</time>
      </trkpt>
      <trkpt lat="49.05901" lon="0.01651">
        <ele>73.8</ele>
        <time>2024-03-03T09:53:46Z</time>
      </trkpt>
      <trkpt lat="49.05903" lon="0.01642">
        <ele>74</ele>
        <time>2024-03-03T09:53:47Z</time>
      </trkpt>
      <trkpt lat="49.05905" lon="0.01632">
        <ele>74.1</ele>
        <time>2024-03-03T09:53:48Z</time>
      </trkpt>
      <trkpt lat="49.05909" lon="0.01623">
        <ele>74.2</ele>
        <time>2024-03-03T09:53:49Z</time>
      </trkpt>
      <trkpt lat="49.05912" lon="0.01614">
        <ele>74.4</ele>
        <time>2024-03-03T09:53:50Z</time>
      </trkpt>
      <trkpt lat="49.05917" lon="0.01605">
        <ele>74.5</ele>
        <time>2024-03-03T09:53:51Z</time>
      </trkpt>
      <trkpt lat="49.05922" lon="0.01598">
        <ele>74.6</ele>
        <time>2024-03-03T09:53:52Z</time>
      </trkpt>
      <trkpt lat="49.05926" lon="0.01589">
        <ele>74.7</ele>
        <time>2024-03-03T09:53:53Z</time>
      </trkpt>
      <trkpt lat="49.05931" lon="0.01581">
        <ele>74.7</ele>
        <time>2024-03-03T09:53:54Z</time>
      </trkpt>
      <trkpt lat="49.05935" lon="0.01572">
        <ele>74.8</ele>
        <time>2024-03-03T09:53:55Z</time>
      </trkpt>
      <trkpt lat="49.0594" lon="0.01564">
        <ele>74.9</ele>
        <time>2024-03-03T09:53:56Z</time>
      </trkpt>
      <trkpt lat="49.05944" lon="0.01556">
        <ele>74.9</ele>
        <time>2024-03-03T09:53:57Z</time>
      </trkpt>
      <trkpt lat="49.05949" lon="0.01548">
        <ele>75</ele>
        <time>2024-03-03T09:53:58Z</time>
      </trkpt>
      <trkpt lat="49.05953" lon="0.01539">
        <ele>75</ele>
        <time>2024-03-03T09:53:59Z</time>
      </trkpt>
      <trkpt lat="49.05957" lon="0.01531">
        <ele>75.1</ele>
        <time>2024-03-03T09:54:00Z</time>
      </trkpt>
      <trkpt lat="49.05962" lon="0.01523">
        <ele>75.2</ele>
        <time>2024-03-03T09:54:01Z</time>
      </trkpt>
      <trkpt lat="49.05966" lon="0.01515">
        <ele>75.2</ele>
        <time>2024-03-03T09:54:02Z</time>
      </trkpt>
      <trkpt lat="49.0597" lon="0.01507">
        <ele>75.3</ele>
        <time>2024-03-03T09:54:03Z</time>
      </trkpt>
      <trkpt lat="49.05975" lon="0.01499">
        <ele>75.4</ele>
        <time>2024-03-03T09:54:04Z</time>
      </trkpt>
      <trkpt lat="49.05979" lon="0.01491">
        <ele>75.4</ele>
        <time>2024-03-03T09:54:05Z</time>
      </trkpt>
      <trkpt lat="49.05983" lon="0.01483">
        <ele>75.5</ele>
        <time>2024-03-03T09:54:06Z</time>
      </trkpt>
      <trkpt lat="49.05988" lon="0.01475">
        <ele>75.5</ele>
        <time>2024-03-03T09:54:07Z</time>
      </trkpt>
      <trkpt lat="49.05993" lon="0.01468">
        <ele>75.6</ele>
        <time>2024-03-03T09:54:08Z</time>
      </trkpt>
      <trkpt lat="49.05997" lon="0.01459">
        <ele>75.6</ele>
        <time>2024-03-03T09:54:09Z</time>
      </trkpt>
      <trkpt lat="49.06002" lon="0.01451">
        <ele>75.5</ele>
        <time>2024-03-03T09:54:10Z</time>
      </trkpt>
      <trkpt lat="49.06007" lon="0.01442">
        <ele>75.5</ele>
        <time>2024-03-03T09:54:11Z</time>
      </trkpt>
      <trkpt lat="49.06013" lon="0.01434">
        <ele>75.4</ele>
        <time>2024-03-03T09:54:12Z</time>
      </trkpt>
      <trkpt lat="49.06018" lon="0.01425">
        <ele>75.4</ele>
        <time>2024-03-03T09:54:13Z</time>
      </trkpt>
      <trkpt lat="49.06023" lon="0.01417">
        <ele>75.4</ele>
        <time>2024-03-03T09:54:14Z</time>
      </trkpt>
      <trkpt lat="49.06028" lon="0.01409">
        <ele>75.4</ele>
        <time>2024-03-03T09:54:15Z</time>
      </trkpt>
      <trkpt lat="49.06033" lon="0.01401">
        <ele>75.4</ele>
        <time>2024-03-03T09:54:16Z</time>
      </trkpt>
      <trkpt lat="49.06038" lon="0.01393">
        <ele>75.4</ele>
        <time>2024-03-03T09:54:17Z</time>
      </trkpt>
      <trkpt lat="49.06044" lon="0.01386">
        <ele>75.4</ele>
        <time>2024-03-03T09:54:18Z</time>
      </trkpt>
      <trkpt lat="49.06049" lon="0.01378">
        <ele>75.4</ele>
        <time>2024-03-03T09:54:19Z</time>
      </trkpt>
      <trkpt lat="49.06055" lon="0.0137">
        <ele>75.4</ele>
        <time>2024-03-03T09:54:20Z</time>
      </trkpt>
      <trkpt lat="49.0606" lon="0.01363">
        <ele>75.4</ele>
        <time>2024-03-03T09:54:21Z</time>
      </trkpt>
      <trkpt lat="49.06066" lon="0.01356">
        <ele>75.4</ele>
        <time>2024-03-03T09:54:22Z</time>
      </trkpt>
      <trkpt lat="49.06071" lon="0.01349">
        <ele>75.4</ele>
        <time>2024-03-03T09:54:23Z</time>
      </trkpt>
      <trkpt lat="49.06077" lon="0.01342">
        <ele>75.4</ele>
        <time>2024-03-03T09:54:24Z</time>
      </trkpt>
      <trkpt lat="49.06083" lon="0.01334">
        <ele>75.4</ele>
        <time>2024-03-03T09:54:25Z</time>
      </trkpt>
      <trkpt lat="49.0609" lon="0.01328">
        <ele>75.4</ele>
        <time>2024-03-03T09:54:26Z</time>
      </trkpt>
      <trkpt lat="49.06096" lon="0.01321">
        <ele>75.4</ele>
        <time>2024-03-03T09:54:27Z</time>
      </trkpt>
      <trkpt lat="49.06102" lon="0.01314">
        <ele>75.4</ele>
        <time>2024-03-03T09:54:28Z</time>
      </trkpt>
      <trkpt lat="49.06108" lon="0.01307">
        <ele>75.4</ele>
        <time>2024-03-03T09:54:29Z</time>
      </trkpt>
      <trkpt lat="49.06114" lon="0.013">
        <ele>75.4</ele>
        <time>2024-03-03T09:54:30Z</time>
      </trkpt>
      <trkpt lat="49.0612" lon="0.01293">
        <ele>75.4</ele>
        <time>2024-03-03T09:54:31Z</time>
      </trkpt>
      <trkpt lat="49.06126" lon="0.01286">
        <ele>75.4</ele>
        <time>2024-03-03T09:54:32Z</time>
      </trkpt>
      <trkpt lat="49.06131" lon="0.01279">
        <ele>75.4</ele>
        <time>2024-03-03T09:54:33Z</time>
      </trkpt>
      <trkpt lat="49.06137" lon="0.01272">
        <ele>75.4</ele>
        <time>2024-03-03T09:54:34Z</time>
      </trkpt>
      <trkpt lat="49.06143" lon="0.01265">
        <ele>75.4</ele>
        <time>2024-03-03T09:54:35Z</time>
      </trkpt>
      <trkpt lat="49.06148" lon="0.01258">
        <ele>75.4</ele>
        <time>2024-03-03T09:54:36Z</time>
      </trkpt>
      <trkpt lat="49.06154" lon="0.01251">
        <ele>75.3</ele>
        <time>2024-03-03T09:54:37Z</time>
      </trkpt>
      <trkpt lat="49.0616" lon="0.01243">
        <ele>75.3</ele>
        <time>2024-03-03T09:54:38Z</time>
      </trkpt>
      <trkpt lat="49.06166" lon="0.01236">
        <ele>75.2</ele>
        <time>2024-03-03T09:54:39Z</time>
      </trkpt>
      <trkpt lat="49.06171" lon="0.01228">
        <ele>75.1</ele>
        <time>2024-03-03T09:54:40Z</time>
      </trkpt>
      <trkpt lat="49.06177" lon="0.01221">
        <ele>75</ele>
        <time>2024-03-03T09:54:41Z</time>
      </trkpt>
      <trkpt lat="49.06183" lon="0.01213">
        <ele>74.9</ele>
        <time>2024-03-03T09:54:42Z</time>
      </trkpt>
      <trkpt lat="49.06189" lon="0.01206">
        <ele>74.9</ele>
        <time>2024-03-03T09:54:43Z</time>
      </trkpt>
      <trkpt lat="49.06195" lon="0.012">
        <ele>74.8</ele>
        <time>2024-03-03T09:54:44Z</time>
      </trkpt>
      <trkpt lat="49.06202" lon="0.01194">
        <ele>74.7</ele>
        <time>2024-03-03T09:54:45Z</time>
      </trkpt>
      <trkpt lat="49.06209" lon="0.01188">
        <ele>74.5</ele>
        <time>2024-03-03T09:54:46Z</time>
      </trkpt>
      <trkpt lat="49.06217" lon="0.01184">
        <ele>74.4</ele>
        <time>2024-03-03T09:54:47Z</time>
      </trkpt>
      <trkpt lat="49.06224" lon="0.0118">
        <ele>74.3</ele>
        <time>2024-03-03T09:54:48Z</time>
      </trkpt>
      <trkpt lat="49.06232" lon="0.01177">
        <ele>74.1</ele>
        <time>2024-03-03T09:54:49Z</time>
      </trkpt>
      <trkpt lat="49.0624" lon="0.01177">
        <ele>73.9</ele>
        <time>2024-03-03T09:54:50Z</time>
      </trkpt>
      <trkpt lat="49.06248" lon="0.01177">
        <ele>73.7</ele>
        <time>2024-03-03T09:54:51Z</time>
      </trkpt>
      <trkpt lat="49.06256" lon="0.01177">
        <ele>73.5</ele>
        <time>2024-03-03T09:54:52Z</time>
      </trkpt>
      <trkpt lat="49.06264" lon="0.01179">
        <ele>73.3</ele>
        <time>2024-03-03T09:54:53Z</time>
      </trkpt>
      <trkpt lat="49.06273" lon="0.0118">
        <ele>73.2</ele>
        <time>2024-03-03T09:54:54Z</time>
      </trkpt>
      <trkpt lat="49.06282" lon="0.01179">
        <ele>73</ele>
        <time>2024-03-03T09:54:55Z</time>
      </trkpt>
      <trkpt lat="49.06291" lon="0.01177">
        <ele>73</ele>
        <time>2024-03-03T09:54:56Z</time>
      </trkpt>
      <trkpt lat="49.06299" lon="0.01176">
        <ele>72.9</ele>
        <time>2024-03-03T09:54:57Z</time>
      </trkpt>
      <trkpt lat="49.06308" lon="0.01174">
        <ele>72.9</ele>
        <time>2024-03-03T09:54:58Z</time>
      </trkpt>
      <trkpt lat="49.06316" lon="0.01172">
        <ele>72.9</ele>
        <time>2024-03-03T09:54:59Z</time>
      </trkpt>
      <trkpt lat="49.06324" lon="0.0117">
        <ele>73</ele>
        <time>2024-03-03T09:55:00Z</time>
      </trkpt>
      <trkpt lat="49.06332" lon="0.01167">
        <ele>73.1</ele>
        <time>2024-03-03T09:55:01Z</time>
      </trkpt>
      <trkpt lat="49.0634" lon="0.01165">
        <ele>73.2</ele>
        <time>2024-03-03T09:55:02Z</time>
      </trkpt>
      <trkpt lat="49.06348" lon="0.01163">
        <ele>73.3</ele>
        <time>2024-03-03T09:55:03Z</time>
      </trkpt>
      <trkpt lat="49.06356" lon="0.01162">
        <ele>73.5</ele>
        <time>2024-03-03T09:55:04Z</time>
      </trkpt>
      <trkpt lat="49.06364" lon="0.01159">
        <ele>73.6</ele>
        <time>2024-03-03T09:55:05Z</time>
      </trkpt>
      <trkpt lat="49.06371" lon="0.01157">
        <ele>73.7</ele>
        <time>2024-03-03T09:55:06Z</time>
      </trkpt>
      <trkpt lat="49.06378" lon="0.01155">
        <ele>73.7</ele>
        <time>2024-03-03T09:55:07Z</time>
      </trkpt>
      <trkpt lat="49.06386" lon="0.01153">
        <ele>73.8</ele>
        <time>2024-03-03T09:55:08Z</time>
      </trkpt>
      <trkpt lat="49.06393" lon="0.01152">
        <ele>73.9</ele>
        <time>2024-03-03T09:55:09Z</time>
      </trkpt>
      <trkpt lat="49.06401" lon="0.0115">
        <ele>73.9</ele>
        <time>2024-03-03T09:55:10Z</time>
      </trkpt>
      <trkpt lat="49.06408" lon="0.01149">
        <ele>74</ele>
        <time>2024-03-03T09:55:11Z</time>
      </trkpt>
      <trkpt lat="49.06416" lon="0.01147">
        <ele>74</ele>
        <time>2024-03-03T09:55:12Z</time>
      </trkpt>
      <trkpt lat="49.06424" lon="0.01145">
        <ele>74.1</ele>
        <time>2024-03-03T09:55:13Z</time>
      </trkpt>
      <trkpt lat="49.06431" lon="0.01143">
        <ele>74.1</ele>
        <time>2024-03-03T09:55:14Z</time>
      </trkpt>
      <trkpt lat="49.06439" lon="0.0114">
        <ele>74.1</ele>
        <time>2024-03-03T09:55:15Z</time>
      </trkpt>
      <trkpt lat="49.06446" lon="0.01138">
        <ele>74.2</ele>
        <time>2024-03-03T09:55:16Z</time>
      </trkpt>
      <trkpt lat="49.06454" lon="0.01134">
        <ele>74.2</ele>
        <time>2024-03-03T09:55:17Z</time>
      </trkpt>
      <trkpt lat="49.06461" lon="0.01129">
        <ele>74.2</ele>
        <time>2024-03-03T09:55:18Z</time>
      </trkpt>
      <trkpt lat="49.06468" lon="0.01125">
        <ele>74.2</ele>
        <time>2024-03-03T09:55:19Z</time>
      </trkpt>
      <trkpt lat="49.06476" lon="0.0112">
        <ele>74.2</ele>
        <time>2024-03-03T09:55:20Z</time>
      </trkpt>
      <trkpt lat="49.06483" lon="0.01115">
        <ele>74.1</ele>
        <time>2024-03-03T09:55:21Z</time>
      </trkpt>
      <trkpt lat="49.06491" lon="0.0111">
        <ele>74.1</ele>
        <time>2024-03-03T09:55:22Z</time>
      </trkpt>
      <trkpt lat="49.06498" lon="0.01105">
        <ele>74.1</ele>
        <time>2024-03-03T09:55:23Z</time>
      </trkpt>
      <trkpt lat="49.06505" lon="0.011">
        <ele>74.2</ele>
        <time>2024-03-03T09:55:24Z</time>
      </trkpt>
      <trkpt lat="49.06512" lon="0.01095">
        <ele>74.2</ele>
        <time>2024-03-03T09:55:25Z</time>
      </trkpt>
      <trkpt lat="49.0652" lon="0.0109">
        <ele>74.1</ele>
        <time>2024-03-03T09:55:26Z</time>
      </trkpt>
      <trkpt lat="49.06527" lon="0.01084">
        <ele>74.1</ele>
        <time>2024-03-03T09:55:27Z</time>
      </trkpt>
      <trkpt lat="49.06535" lon="0.01079">
        <ele>74.1</ele>
        <time>2024-03-03T09:55:28Z</time>
      </trkpt>
      <trkpt lat="49.06542" lon="0.01073">
        <ele>74</ele>
        <time>2024-03-03T09:55:29Z</time>
      </trkpt>
      <trkpt lat="49.0655" lon="0.01068">
        <ele>74</ele>
        <time>2024-03-03T09:55:30Z</time>
      </trkpt>
      <trkpt lat="49.06558" lon="0.01063">
        <ele>74</ele>
        <time>2024-03-03T09:55:31Z</time>
      </trkpt>
      <trkpt lat="49.06565" lon="0.01058">
        <ele>73.9</ele>
        <time>2024-03-03T09:55:32Z</time>
      </trkpt>
      <trkpt lat="49.06573" lon="0.01054">
        <ele>73.9</ele>
        <time>2024-03-03T09:55:33Z</time>
      </trkpt>
      <trkpt lat="49.0658" lon="0.01049">
        <ele>73.9</ele>
        <time>2024-03-03T09:55:34Z</time>
      </trkpt>
      <trkpt lat="49.06588" lon="0.01044">
        <ele>73.8</ele>
        <time>2024-03-03T09:55:35Z</time>
      </trkpt>
      <trkpt lat="49.06596" lon="0.0104">
        <ele>73.8</ele>
        <time>2024-03-03T09:55:36Z</time>
      </trkpt>
      <trkpt lat="49.06604" lon="0.01035">
        <ele>73.8</ele>
        <time>2024-03-03T09:55:37Z</time>
      </trkpt>
      <trkpt lat="49.06612" lon="0.0103">
        <ele>73.7</ele>
        <time>2024-03-03T09:55:38Z</time>
      </trkpt>
      <trkpt lat="49.0662" lon="0.01026">
        <ele>73.7</ele>
        <time>2024-03-03T09:55:39Z</time>
      </trkpt>
      <trkpt lat="49.06627" lon="0.01022">
        <ele>73.7</ele>
        <time>2024-03-03T09:55:40Z</time>
      </trkpt>
      <trkpt lat="49.06635" lon="0.01017">
        <ele>73.7</ele>
        <time>2024-03-03T09:55:41Z</time>
      </trkpt>
      <trkpt lat="49.06644" lon="0.01013">
        <ele>73.7</ele>
        <time>2024-03-03T09:55:42Z</time>
      </trkpt>
      <trkpt lat="49.06651" lon="0.01009">
        <ele>73.7</ele>
        <time>2024-03-03T09:55:43Z</time>
      </trkpt>
      <trkpt lat="49.06659" lon="0.01004">
        <ele>73.7</ele>
        <time>2024-03-03T09:55:44Z</time>
      </trkpt>
      <trkpt lat="49.06667" lon="0.01">
        <ele>73.7</ele>
        <time>2024-03-03T09:55:45Z</time>
      </trkpt>
      <trkpt lat="49.06675" lon="0.00997">
        <ele>73.7</ele>
        <time>2024-03-03T09:55:46Z</time>
      </trkpt>
      <trkpt lat="49.06683" lon="0.00993">
        <ele>73.7</ele>
        <time>2024-03-03T09:55:47Z</time>
      </trkpt>
      <trkpt lat="49.0669" lon="0.0099">
        <ele>73.7</ele>
        <time>2024-03-03T09:55:48Z</time>
      </trkpt>
      <trkpt lat="49.06698" lon="0.00988">
        <ele>73.6</ele>
        <time>2024-03-03T09:55:49Z</time>
      </trkpt>
      <trkpt lat="49.06706" lon="0.00986">
        <ele>73.6</ele>
        <time>2024-03-03T09:55:50Z</time>
      </trkpt>
      <trkpt lat="49.06715" lon="0.00985">
        <ele>73.6</ele>
        <time>2024-03-03T09:55:51Z</time>
      </trkpt>
      <trkpt lat="49.06723" lon="0.00985">
        <ele>73.6</ele>
        <time>2024-03-03T09:55:52Z</time>
      </trkpt>
      <trkpt lat="49.06732" lon="0.00986">
        <ele>73.5</ele>
        <time>2024-03-03T09:55:53Z</time>
      </trkpt>
      <trkpt lat="49.0674" lon="0.00986">
        <ele>73.5</ele>
        <time>2024-03-03T09:55:54Z</time>
      </trkpt>
      <trkpt lat="49.06749" lon="0.00987">
        <ele>73.4</ele>
        <time>2024-03-03T09:55:55Z</time>
      </trkpt>
      <trkpt lat="49.06757" lon="0.00987">
        <ele>73.3</ele>
        <time>2024-03-03T09:55:56Z</time>
      </trkpt>
      <trkpt lat="49.06765" lon="0.00988">
        <ele>73.2</ele>
        <time>2024-03-03T09:55:57Z</time>
      </trkpt>
      <trkpt lat="49.06774" lon="0.00989">
        <ele>73</ele>
        <time>2024-03-03T09:55:58Z</time>
      </trkpt>
      <trkpt lat="49.06782" lon="0.00989">
        <ele>72.9</ele>
        <time>2024-03-03T09:55:59Z</time>
      </trkpt>
      <trkpt lat="49.0679" lon="0.0099">
        <ele>72.7</ele>
        <time>2024-03-03T09:56:00Z</time>
      </trkpt>
      <trkpt lat="49.06799" lon="0.0099">
        <ele>72.6</ele>
        <time>2024-03-03T09:56:01Z</time>
      </trkpt>
      <trkpt lat="49.06808" lon="0.0099">
        <ele>72.4</ele>
        <time>2024-03-03T09:56:02Z</time>
      </trkpt>
      <trkpt lat="49.06817" lon="0.0099">
        <ele>72.2</ele>
        <time>2024-03-03T09:56:03Z</time>
      </trkpt>
      <trkpt lat="49.06825" lon="0.00988">
        <ele>72.1</ele>
        <time>2024-03-03T09:56:04Z</time>
      </trkpt>
      <trkpt lat="49.06834" lon="0.00987">
        <ele>71.9</ele>
        <time>2024-03-03T09:56:05Z</time>
      </trkpt>
      <trkpt lat="49.06843" lon="0.00986">
        <ele>71.8</ele>
        <time>2024-03-03T09:56:06Z</time>
      </trkpt>
      <trkpt lat="49.06852" lon="0.00984">
        <ele>71.6</ele>
        <time>2024-03-03T09:56:07Z</time>
      </trkpt>
      <trkpt lat="49.06861" lon="0.00982">
        <ele>71.4</ele>
        <time>2024-03-03T09:56:08Z</time>
      </trkpt>
      <trkpt lat="49.0687" lon="0.00979">
        <ele>71.2</ele>
        <time>2024-03-03T09:56:09Z</time>
      </trkpt>
      <trkpt lat="49.06879" lon="0.00977">
        <ele>71.1</ele>
        <time>2024-03-03T09:56:10Z</time>
      </trkpt>
      <trkpt lat="49.06888" lon="0.00975">
        <ele>70.9</ele>
        <time>2024-03-03T09:56:11Z</time>
      </trkpt>
      <trkpt lat="49.06897" lon="0.00973">
        <ele>70.7</ele>
        <time>2024-03-03T09:56:12Z</time>
      </trkpt>
      <trkpt lat="49.06906" lon="0.00972">
        <ele>70.5</ele>
        <time>2024-03-03T09:56:13Z</time>
      </trkpt>
      <trkpt lat="49.06915" lon="0.00971">
        <ele>70.3</ele>
        <time>2024-03-03T09:56:14Z</time>
      </trkpt>
      <trkpt lat="49.06924" lon="0.0097">
        <ele>70.1</ele>
        <time>2024-03-03T09:56:15Z</time>
      </trkpt>
      <trkpt lat="49.06934" lon="0.0097">
        <ele>69.8</ele>
        <time>2024-03-03T09:56:16Z</time>
      </trkpt>
      <trkpt lat="49.06943" lon="0.00971">
        <ele>69.7</ele>
        <time>2024-03-03T09:56:17Z</time>
      </trkpt>
      <trkpt lat="49.06952" lon="0.00971">
        <ele>69.5</ele>
        <time>2024-03-03T09:56:18Z</time>
      </trkpt>
      <trkpt lat="49.0696" lon="0.00972">
        <ele>69.4</ele>
        <time>2024-03-03T09:56:19Z</time>
      </trkpt>
      <trkpt lat="49.06969" lon="0.00973">
        <ele>69.2</ele>
        <time>2024-03-03T09:56:20Z</time>
      </trkpt>
      <trkpt lat="49.06979" lon="0.00974">
        <ele>69</ele>
        <time>2024-03-03T09:56:21Z</time>
      </trkpt>
      <trkpt lat="49.06987" lon="0.00975">
        <ele>68.8</ele>
        <time>2024-03-03T09:56:22Z</time>
      </trkpt>
      <trkpt lat="49.06996" lon="0.00976">
        <ele>68.6</ele>
        <time>2024-03-03T09:56:23Z</time>
      </trkpt>
      <trkpt lat="49.07006" lon="0.00978">
        <ele>68.4</ele>
        <time>2024-03-03T09:56:24Z</time>
      </trkpt>
      <trkpt lat="49.07015" lon="0.00979">
        <ele>68.1</ele>
        <time>2024-03-03T09:56:25Z</time>
      </trkpt>
      <trkpt lat="49.07024" lon="0.0098">
        <ele>67.9</ele>
        <time>2024-03-03T09:56:26Z</time>
      </trkpt>
      <trkpt lat="49.07033" lon="0.00982">
        <ele>67.7</ele>
        <time>2024-03-03T09:56:27Z</time>
      </trkpt>
      <trkpt lat="49.07042" lon="0.00983">
        <ele>67.5</ele>
        <time>2024-03-03T09:56:28Z</time>
      </trkpt>
      <trkpt lat="49.07051" lon="0.00984">
        <ele>67.2</ele>
        <time>2024-03-03T09:56:29Z</time>
      </trkpt>
      <trkpt lat="49.07061" lon="0.00984">
        <ele>67</ele>
        <time>2024-03-03T09:56:30Z</time>
      </trkpt>
      <trkpt lat="49.0707" lon="0.00986">
        <ele>66.8</ele>
        <time>2024-03-03T09:56:31Z</time>
      </trkpt>
      <trkpt lat="49.0708" lon="0.00987">
        <ele>66.5</ele>
        <time>2024-03-03T09:56:32Z</time>
      </trkpt>
      <trkpt lat="49.07089" lon="0.00988">
        <ele>66.3</ele>
        <time>2024-03-03T09:56:33Z</time>
      </trkpt>
      <trkpt lat="49.07098" lon="0.00989">
        <ele>66.1</ele>
        <time>2024-03-03T09:56:34Z</time>
      </trkpt>
      <trkpt lat="49.07107" lon="0.00989">
        <ele>65.9</ele>
        <time>2024-03-03T09:56:35Z</time>
      </trkpt>
      <trkpt lat="49.07117" lon="0.00989">
        <ele>65.7</ele>
        <time>2024-03-03T09:56:36Z</time>
      </trkpt>
      <trkpt lat="49.07126" lon="0.00987">
        <ele>65.5</ele>
        <time>2024-03-03T09:56:37Z</time>
      </trkpt>
      <trkpt lat="49.07136" lon="0.00983">
        <ele>65.3</ele>
        <time>2024-03-03T09:56:38Z</time>
      </trkpt>
      <trkpt lat="49.07145" lon="0.00978">
        <ele>65.2</ele>
        <time>2024-03-03T09:56:39Z</time>
      </trkpt>
      <trkpt lat="49.07153" lon="0.00971">
        <ele>65</ele>
        <time>2024-03-03T09:56:40Z</time>
      </trkpt>
      <trkpt lat="49.07162" lon="0.00965">
        <ele>65</ele>
        <time>2024-03-03T09:56:41Z</time>
      </trkpt>
      <trkpt lat="49.07171" lon="0.00962">
        <ele>64.9</ele>
        <time>2024-03-03T09:56:42Z</time>
      </trkpt>
      <trkpt lat="49.0718" lon="0.00961">
        <ele>64.7</ele>
        <time>2024-03-03T09:56:43Z</time>
      </trkpt>
      <trkpt lat="49.07188" lon="0.00964">
        <ele>64.6</ele>
        <time>2024-03-03T09:56:44Z</time>
      </trkpt>
      <trkpt lat="49.07196" lon="0.00972">
        <ele>64.4</ele>
        <time>2024-03-03T09:56:45Z</time>
      </trkpt>
      <trkpt lat="49.07204" lon="0.00981">
        <ele>64.1</ele>
        <time>2024-03-03T09:56:46Z</time>
      </trkpt>
      <trkpt lat="49.07212" lon="0.00989">
        <ele>63.8</ele>
        <time>2024-03-03T09:56:47Z</time>
      </trkpt>
      <trkpt lat="49.07219" lon="0.00998">
        <ele>63.5</ele>
        <time>2024-03-03T09:56:48Z</time>
      </trkpt>
      <trkpt lat="49.07227" lon="0.01006">
        <ele>63.2</ele>
        <time>2024-03-03T09:56:49Z</time>
      </trkpt>
      <trkpt lat="49.07235" lon="0.01014">
        <ele>62.9</ele>
        <time>2024-03-03T09:56:50Z</time>
      </trkpt>
      <trkpt lat="49.07243" lon="0.01023">
        <ele>62.6</ele>
        <time>2024-03-03T09:56:51Z</time>
      </trkpt>
      <trkpt lat="49.07251" lon="0.01032">
        <ele>62.3</ele>
        <time>2024-03-03T09:56:52Z</time>
      </trkpt>
      <trkpt lat="49.07258" lon="0.01042">
        <ele>61.9</ele>
        <time>2024-03-03T09:56:53Z</time>
      </trkpt>
      <trkpt lat="49.07266" lon="0.01051">
        <ele>61.5</ele>
        <time>2024-03-03T09:56:54Z</time>
      </trkpt>
      <trkpt lat="49.07274" lon="0.0106">
        <ele>61.1</ele>
        <time>2024-03-03T09:56:55Z</time>
      </trkpt>
      <trkpt lat="49.07282" lon="0.01069">
        <ele>60.7</ele>
        <time>2024-03-03T09:56:56Z</time>
      </trkpt>
      <trkpt lat="49.0729" lon="0.01077">
        <ele>60.2</ele>
        <time>2024-03-03T09:56:57Z</time>
      </trkpt>
      <trkpt lat="49.07297" lon="0.01086">
        <ele>59.8</ele>
        <time>2024-03-03T09:56:58Z</time>
      </trkpt>
      <trkpt lat="49.07306" lon="0.01095">
        <ele>59.3</ele>
        <time>2024-03-03T09:56:59Z</time>
      </trkpt>
      <trkpt lat="49.07314" lon="0.01104">
        <ele>58.8</ele>
        <time>2024-03-03T09:57:00Z</time>
      </trkpt>
      <trkpt lat="49.07322" lon="0.01112">
        <ele>58.3</ele>
        <time>2024-03-03T09:57:01Z</time>
      </trkpt>
      <trkpt lat="49.07331" lon="0.0112">
        <ele>57.7</ele>
        <time>2024-03-03T09:57:02Z</time>
      </trkpt>
      <trkpt lat="49.0734" lon="0.01128">
        <ele>57.1</ele>
        <time>2024-03-03T09:57:03Z</time>
      </trkpt>
      <trkpt lat="49.07349" lon="0.01136">
        <ele>56.4</ele>
        <time>2024-03-03T09:57:04Z</time>
      </trkpt>
      <trkpt lat="49.07359" lon="0.01144">
        <ele>55.7</ele>
        <time>2024-03-03T09:57:05Z</time>
      </trkpt>
      <trkpt lat="49.07369" lon="0.01152">
        <ele>55.1</ele>
        <time>2024-03-03T09:57:06Z</time>
      </trkpt>
      <trkpt lat="49.07379" lon="0.01161">
        <ele>54.4</ele>
        <time>2024-03-03T09:57:07Z</time>
      </trkpt>
      <trkpt lat="49.0739" lon="0.0117">
        <ele>53.6</ele>
        <time>2024-03-03T09:57:08Z</time>
      </trkpt>
      <trkpt lat="49.07401" lon="0.01178">
        <ele>52.9</ele>
        <time>2024-03-03T09:57:09Z</time>
      </trkpt>
      <trkpt lat="49.07411" lon="0.01185">
        <ele>52.1</ele>
        <time>2024-03-03T09:57:10Z</time>
      </trkpt>
      <trkpt lat="49.07422" lon="0.01193">
        <ele>51.4</ele>
        <time>2024-03-03T09:57:11Z</time>
      </trkpt>
      <trkpt lat="49.07433" lon="0.012">
        <ele>50.6</ele>
        <time>2024-03-03T09:57:12Z</time>
      </trkpt>
      <trkpt lat="49.07444" lon="0.01207">
        <ele>49.8</ele>
        <time>2024-03-03T09:57:13Z</time>
      </trkpt>
      <trkpt lat="49.07456" lon="0.01214">
        <ele>49</ele>
        <time>2024-03-03T09:57:14Z</time>
      </trkpt>
      <trkpt lat="49.07467" lon="0.0122">
        <ele>48.2</ele>
        <time>2024-03-03T09:57:15Z</time>
      </trkpt>
      <trkpt lat="49.07479" lon="0.01226">
        <ele>47.4</ele>
        <time>2024-03-03T09:57:16Z</time>
      </trkpt>
      <trkpt lat="49.0749" lon="0.01232">
        <ele>46.6</ele>
        <time>2024-03-03T09:57:17Z</time>
      </trkpt>
      <trkpt lat="49.07502" lon="0.01238">
        <ele>45.8</ele>
        <time>2024-03-03T09:57:18Z</time>
      </trkpt>
      <trkpt lat="49.07514" lon="0.01244">
        <ele>45</ele>
        <time>2024-03-03T09:57:19Z</time>
      </trkpt>
      <trkpt lat="49.07526" lon="0.0125">
        <ele>44.2</ele>
        <time>2024-03-03T09:57:20Z</time>
      </trkpt>
      <trkpt lat="49.07537" lon="0.01256">
        <ele>43.4</ele>
        <time>2024-03-03T09:57:21Z</time>
      </trkpt>
      <trkpt lat="49.07549" lon="0.01263">
        <ele>42.6</ele>
        <time>2024-03-03T09:57:22Z</time>
      </trkpt>
      <trkpt lat="49.07561" lon="0.01269">
        <ele>41.7</ele>
        <time>2024-03-03T09:57:23Z</time>
      </trkpt>
      <trkpt lat="49.07572" lon="0.01275">
        <ele>40.9</ele>
        <time>2024-03-03T09:57:24Z</time>
      </trkpt>
      <trkpt lat="49.07584" lon="0.01281">
        <ele>40.1</ele>
        <time>2024-03-03T09:57:25Z</time>
      </trkpt>
      <trkpt lat="49.07596" lon="0.01287">
        <ele>39.3</ele>
        <time>2024-03-03T09:57:26Z</time>
      </trkpt>
      <trkpt lat="49.07608" lon="0.01294">
        <ele>38.5</ele>
        <time>2024-03-03T09:57:27Z</time>
      </trkpt>
      <trkpt lat="49.07619" lon="0.01301">
        <ele>37.8</ele>
        <time>2024-03-03T09:57:28Z</time>
      </trkpt>
      <trkpt lat="49.07631" lon="0.01308">
        <ele>37.1</ele>
        <time>2024-03-03T09:57:29Z</time>
      </trkpt>
      <trkpt lat="49.07643" lon="0.01316">
        <ele>36.5</ele>
        <time>2024-03-03T09:57:30Z</time>
      </trkpt>
      <trkpt lat="49.07654" lon="0.01324">
        <ele>35.9</ele>
        <time>2024-03-03T09:57:31Z</time>
      </trkpt>
      <trkpt lat="49.07665" lon="0.01332">
        <ele>35.3</ele>
        <time>2024-03-03T09:57:32Z</time>
      </trkpt>
      <trkpt lat="49.07676" lon="0.0134">
        <ele>34.8</ele>
        <time>2024-03-03T09:57:33Z</time>
      </trkpt>
      <trkpt lat="49.07687" lon="0.01347">
        <ele>34.3</ele>
        <time>2024-03-03T09:57:34Z</time>
      </trkpt>
      <trkpt lat="49.07698" lon="0.01355">
        <ele>33.7</ele>
        <time>2024-03-03T09:57:35Z</time>
      </trkpt>
      <trkpt lat="49.07709" lon="0.01363">
        <ele>33.2</ele>
        <time>2024-03-03T09:57:36Z</time>
      </trkpt>
      <trkpt lat="49.0772" lon="0.01371">
        <ele>32.7</ele>
        <time>2024-03-03T09:57:37Z</time>
      </trkpt>
      <trkpt lat="49.0773" lon="0.01379">
        <ele>32.1</ele>
        <time>2024-03-03T09:57:38Z</time>
      </trkpt>
      <trkpt lat="49.07741" lon="0.01386">
        <ele>31.6</ele>
        <time>2024-03-03T09:57:39Z</time>
      </trkpt>
      <trkpt lat="49.07752" lon="0.01394">
        <ele>31</ele>
        <time>2024-03-03T09:57:40Z</time>
      </trkpt>
      <trkpt lat="49.07763" lon="0.01402">
        <ele>30.5</ele>
        <time>2024-03-03T09:57:41Z</time>
      </trkpt>
      <trkpt lat="49.07774" lon="0.01409">
        <ele>29.9</ele>
        <time>2024-03-03T09:57:42Z</time>
      </trkpt>
      <trkpt lat="49.07785" lon="0.01416">
        <ele>29.4</ele>
        <time>2024-03-03T09:57:43Z</time>
      </trkpt>
      <trkpt lat="49.07796" lon="0.01423">
        <ele>28.8</ele>
        <time>2024-03-03T09:57:44Z</time>
      </trkpt>
      <trkpt lat="49.07807" lon="0.01429">
        <ele>28.3</ele>
        <time>2024-03-03T09:57:45Z</time>
      </trkpt>
      <trkpt lat="49.07818" lon="0.01435">
        <ele>27.7</ele>
        <time>2024-03-03T09:57:46Z</time>
      </trkpt>
      <trkpt lat="49.0783" lon="0.0144">
        <ele>27.2</ele>
        <time>2024-03-03T09:57:47Z</time>
      </trkpt>
      <trkpt lat="49.07841" lon="0.01445">
        <ele>26.7</ele>
        <time>2024-03-03T09:57:48Z</time>
      </trkpt>
      <trkpt lat="49.07853" lon="0.01448">
        <ele>26.2</ele>
        <time>2024-03-03T09:57:49Z</time>
      </trkpt>
      <trkpt lat="49.07864" lon="0.01452">
        <ele>25.8</ele>
        <time>2024-03-03T09:57:50Z</time>
      </trkpt>
      <trkpt lat="49.07875" lon="0.01455">
        <ele>25.4</ele>
        <time>2024-03-03T09:57:51Z</time>
      </trkpt>
      <trkpt lat="49.07886" lon="0.01457">
        <ele>25.1</ele>
        <time>2024-03-03T09:57:52Z</time>
      </trkpt>
      <trkpt lat="49.07897" lon="0.01459">
        <ele>24.8</ele>
        <time>2024-03-03T09:57:53Z</time>
      </trkpt>
      <trkpt lat="49.07908" lon="0.01462">
        <ele>24.6</ele>
        <time>2024-03-03T09:57:54Z</time>
      </trkpt>
      <trkpt lat="49.07919" lon="0.01464">
        <ele>24.4</ele>
        <time>2024-03-03T09:57:55Z</time>
      </trkpt>
      <trkpt lat="49.07929" lon="0.01467">
        <ele>24.3</ele>
        <time>2024-03-03T09:57:56Z</time>
      </trkpt>
      <trkpt lat="49.0794" lon="0.01469">
        <ele>23.9</ele>
        <time>2024-03-03T09:57:57Z</time>
      </trkpt>
      <trkpt lat="49.0795" lon="0.01471">
        <ele>23.6</ele>
        <time>2024-03-03T09:57:58Z</time>
      </trkpt>
      <trkpt lat="49.0796" lon="0.01473">
        <ele>23.3</ele>
        <time>2024-03-03T09:57:59Z</time>
      </trkpt>
      <trkpt lat="49.0797" lon="0.01475">
        <ele>23.1</ele>
        <time>2024-03-03T09:58:00Z</time>
      </trkpt>
      <trkpt lat="49.0798" lon="0.01477">
        <ele>22.9</ele>
        <time>2024-03-03T09:58:01Z</time>
      </trkpt>
      <trkpt lat="49.07989" lon="0.01479">
        <ele>22.8</ele>
        <time>2024-03-03T09:58:02Z</time>
      </trkpt>
      <trkpt lat="49.07998" lon="0.01481">
        <ele>22.7</ele>
        <time>2024-03-03T09:58:03Z</time>
      </trkpt>
      <trkpt lat="49.08007" lon="0.01483">
        <ele>22.6</ele>
        <time>2024-03-03T09:58:04Z</time>
      </trkpt>
      <trkpt lat="49.08016" lon="0.01485">
        <ele>22.5</ele>
        <time>2024-03-03T09:58:05Z</time>
      </trkpt>
      <trkpt lat="49.08025" lon="0.01487">
        <ele>22.4</ele>
        <time>2024-03-03T09:58:06Z</time>
      </trkpt>
      <trkpt lat="49.08034" lon="0.01489">
        <ele>22.3</ele>
        <time>2024-03-03T09:58:07Z</time>
      </trkpt>
      <trkpt lat="49.08042" lon="0.01491">
        <ele>22.2</ele>
        <time>2024-03-03T09:58:08Z</time>
      </trkpt>
      <trkpt lat="49.08051" lon="0.01492">
        <ele>22.2</ele>
        <time>2024-03-03T09:58:09Z</time>
      </trkpt>
      <trkpt lat="49.08059" lon="0.01494">
        <ele>22.1</ele>
        <time>2024-03-03T09:58:10Z</time>
      </trkpt>
      <trkpt lat="49.08067" lon="0.01496">
        <ele>22</ele>
        <time>2024-03-03T09:58:11Z</time>
      </trkpt>
      <trkpt lat="49.08075" lon="0.01498">
        <ele>22</ele>
        <time>2024-03-03T09:58:12Z</time>
      </trkpt>
      <trkpt lat="49.08084" lon="0.015">
        <ele>21.9</ele>
        <time>2024-03-03T09:58:13Z</time>
      </trkpt>
      <trkpt lat="49.08091" lon="0.01501">
        <ele>21.9</ele>
        <time>2024-03-03T09:58:14Z</time>
      </trkpt>
      <trkpt lat="49.081" lon="0.01503">
        <ele>21.9</ele>
        <time>2024-03-03T09:58:15Z</time>
      </trkpt>
      <trkpt lat="49.08107" lon="0.01505">
        <ele>21.9</ele>
        <time>2024-03-03T09:58:16Z</time>
      </trkpt>
      <trkpt lat="49.08115" lon="0.01506">
        <ele>21.9</ele>
        <time>2024-03-03T09:58:17Z</time>
      </trkpt>
      <trkpt lat="49.08122" lon="0.01508">
        <ele>22</ele>
        <time>2024-03-03T09:58:18Z</time>
      </trkpt>
      <trkpt lat="49.08129" lon="0.01509">
        <ele>22</ele>
        <time>2024-03-03T09:58:19Z</time>
      </trkpt>
      <trkpt lat="49.08136" lon="0.01511">
        <ele>22.1</ele>
        <time>2024-03-03T09:58:20Z</time>
      </trkpt>
      <trkpt lat="49.08142" lon="0.01513">
        <ele>22.2</ele>
        <time>2024-03-03T09:58:21Z</time>
      </trkpt>
      <trkpt lat="49.08147" lon="0.01514">
        <ele>22.3</ele>
        <time>2024-03-03T09:58:22Z</time>
      </trkpt>
      <trkpt lat="49.08151" lon="0.01516">
        <ele>22.4</ele>
        <time>2024-03-03T09:58:23Z</time>
      </trkpt>
      <trkpt lat="49.08154" lon="0.01518">
        <ele>22.5</ele>
        <time>2024-03-03T09:58:24Z</time>
      </trkpt>
      <trkpt lat="49.08157" lon="0.0152">
        <ele>22.5</ele>
        <time>2024-03-03T09:58:25Z</time>
      </trkpt>
      <trkpt lat="49.08159" lon="0.01521">
        <ele>22.6</ele>
        <time>2024-03-03T09:58:26Z</time>
      </trkpt>
      <trkpt lat="49.0816" lon="0.01522">
        <ele>22.6</ele>
        <time>2024-03-03T09:58:27Z</time>
      </trkpt>
      <trkpt lat="49.08161" lon="0.01522">
        <ele>22.6</ele>
        <time>2024-03-03T09:58:28Z</time>
      </trkpt>
      <trkpt lat="49.0816" lon="0.01521">
        <ele>22.6</ele>
        <time>2024-03-03T09:58:29Z</time>
      </trkpt>
      <trkpt lat="49.0816" lon="0.01521">
        <ele>22.6</ele>
        <time>2024-03-03T09:58:30Z</time>
      </trkpt>
      <trkpt lat="49.0816" lon="0.01521">
        <ele>22.6</ele>
        <time>2024-03-03T09:58:31Z</time>
      </trkpt>
      <trkpt lat="49.0816" lon="0.01521">
        <ele>22.6</ele>
        <time>2024-03-03T09:58:32Z</time>
      </trkpt>
      <trkpt lat="49.0816" lon="0.01521">
        <ele>22.6</ele>
        <time>2024-03-03T09:58:33Z</time>
      </trkpt>
      <trkpt lat="49.08161" lon="0.01522">
        <ele>22.6</ele>
        <time>2024-03-03T09:58:34Z</time>
      </trkpt>
      <trkpt lat="49.08162" lon="0.01521">
        <ele>22.6</ele>
        <time>2024-03-03T09:58:35Z</time>
      </trkpt>
      <trkpt lat="49.08163" lon="0.0152">
        <ele>22.6</ele>
        <time>2024-03-03T09:58:36Z</time>
      </trkpt>
      <trkpt lat="49.08165" lon="0.01516">
        <ele>22.6</ele>
        <time>2024-03-03T09:58:37Z</time>
      </trkpt>
      <trkpt lat="49.08165" lon="0.01514">
        <ele>22.6</ele>
        <time>2024-03-03T09:58:38Z</time>
      </trkpt>
      <trkpt lat="49.08166" lon="0.01508">
        <ele>22.6</ele>
        <time>2024-03-03T09:58:39Z</time>
      </trkpt>
      <trkpt lat="49.08166" lon="0.01506">
        <ele>22.6</ele>
        <time>2024-03-03T09:58:40Z</time>
      </trkpt>
      <trkpt lat="49.08166" lon="0.01502">
        <ele>22.6</ele>
        <time>2024-03-03T09:58:41Z</time>
      </trkpt>
      <trkpt lat="49.08166" lon="0.01497">
        <ele>22.6</ele>
        <time>2024-03-03T09:58:42Z</time>
      </trkpt>
      <trkpt lat="49.08165" lon="0.01491">
        <ele>22.6</ele>
        <time>2024-03-03T09:58:43Z</time>
      </trkpt>
      <trkpt lat="49.08165" lon="0.01485">
        <ele>22.6</ele>
        <time>2024-03-03T09:58:44Z</time>
      </trkpt>
      <trkpt lat="49.08165" lon="0.01479">
        <ele>22.7</ele>
        <time>2024-03-03T09:58:45Z</time>
      </trkpt>
      <trkpt lat="49.08165" lon="0.01473">
        <ele>22.7</ele>
        <time>2024-03-03T09:58:46Z</time>
      </trkpt>
      <trkpt lat="49.08165" lon="0.01467">
        <ele>22.7</ele>
        <time>2024-03-03T09:58:47Z</time>
      </trkpt>
      <trkpt lat="49.08165" lon="0.0146">
        <ele>22.7</ele>
        <time>2024-03-03T09:58:48Z</time>
      </trkpt>
      <trkpt lat="49.08165" lon="0.01453">
        <ele>22.7</ele>
        <time>2024-03-03T09:58:49Z</time>
      </trkpt>
      <trkpt lat="49.08165" lon="0.01445">
        <ele>22.8</ele>
        <time>2024-03-03T09:58:50Z</time>
      </trkpt>
      <trkpt lat="49.08164" lon="0.01436">
        <ele>22.8</ele>
        <time>2024-03-03T09:58:51Z</time>
      </trkpt>
      <trkpt lat="49.08164" lon="0.01427">
        <ele>22.8</ele>
        <time>2024-03-03T09:58:52Z</time>
      </trkpt>
      <trkpt lat="49.08164" lon="0.01417">
        <ele>22.9</ele>
        <time>2024-03-03T09:58:53Z</time>
      </trkpt>
      <trkpt lat="49.08163" lon="0.01407">
        <ele>22.9</ele>
        <time>2024-03-03T09:58:54Z</time>
      </trkpt>
      <trkpt lat="49.08163" lon="0.01396">
        <ele>22.9</ele>
        <time>2024-03-03T09:58:55Z</time>
      </trkpt>
      <trkpt lat="49.08163" lon="0.01385">
        <ele>22.9</ele>
        <time>2024-03-03T09:58:56Z</time>
      </trkpt>
      <trkpt lat="49.08162" lon="0.01374">
        <ele>23</ele>
        <time>2024-03-03T09:58:57Z</time>
      </trkpt>
      <trkpt lat="49.08162" lon="0.01362">
        <ele>23</ele>
        <time>2024-03-03T09:58:58Z</time>
      </trkpt>
      <trkpt lat="49.08161" lon="0.0135">
        <ele>23</ele>
        <time>2024-03-03T09:58:59Z</time>
      </trkpt>
      <trkpt lat="49.08161" lon="0.01338">
        <ele>23</ele>
        <time>2024-03-03T09:59:00Z</time>
      </trkpt>
      <trkpt lat="49.0816" lon="0.01326">
        <ele>23</ele>
        <time>2024-03-03T09:59:01Z</time>
      </trkpt>
      <trkpt lat="49.0816" lon="0.01313">
        <ele>23</ele>
        <time>2024-03-03T09:59:02Z</time>
      </trkpt>
      <trkpt lat="49.0816" lon="0.013">
        <ele>23</ele>
        <time>2024-03-03T09:59:03Z</time>
      </trkpt>
      <trkpt lat="49.08159" lon="0.01288">
        <ele>23</ele>
        <time>2024-03-03T09:59:04Z</time>
      </trkpt>
      <trkpt lat="49.08159" lon="0.01276">
        <ele>23</ele>
        <time>2024-03-03T09:59:05Z</time>
      </trkpt>
      <trkpt lat="49.08159" lon="0.01263">
        <ele>23</ele>
        <time>2024-03-03T09:59:06Z</time>
      </trkpt>
      <trkpt lat="49.08158" lon="0.01249">
        <ele>22.9</ele>
        <time>2024-03-03T09:59:07Z</time>
      </trkpt>
      <trkpt lat="49.08158" lon="0.01236">
        <ele>22.9</ele>
        <time>2024-03-03T09:59:08Z</time>
      </trkpt>
      <trkpt lat="49.08157" lon="0.01223">
        <ele>22.9</ele>
        <time>2024-03-03T09:59:09Z</time>
      </trkpt>
      <trkpt lat="49.08157" lon="0.0121">
        <ele>22.9</ele>
        <time>2024-03-03T09:59:10Z</time>
      </trkpt>
      <trkpt lat="49.08156" lon="0.01197">
        <ele>22.9</ele>
        <time>2024-03-03T09:59:11Z</time>
      </trkpt>
      <trkpt lat="49.08156" lon="0.01185">
        <ele>22.8</ele>
        <time>2024-03-03T09:59:12Z</time>
      </trkpt>
      <trkpt lat="49.08155" lon="0.01172">
        <ele>22.8</ele>
        <time>2024-03-03T09:59:13Z</time>
      </trkpt>
      <trkpt lat="49.08155" lon="0.01159">
        <ele>22.8</ele>
        <time>2024-03-03T09:59:14Z</time>
      </trkpt>
      <trkpt lat="49.08154" lon="0.01146">
        <ele>22.8</ele>
        <time>2024-03-03T09:59:15Z</time>
      </trkpt>
      <trkpt lat="49.08154" lon="0.01133">
        <ele>22.8</ele>
        <time>2024-03-03T09:59:16Z</time>
      </trkpt>
      <trkpt lat="49.08153" lon="0.01121">
        <ele>22.7</ele>
        <time>2024-03-03T09:59:17Z</time>
      </trkpt>
      <trkpt lat="49.08153" lon="0.01108">
        <ele>22.7</ele>
        <time>2024-03-03T09:59:18Z</time>
      </trkpt>
      <trkpt lat="49.08152" lon="0.01096">
        <ele>22.6</ele>
        <time>2024-03-03T09:59:19Z</time>
      </trkpt>
      <trkpt lat="49.08151" lon="0.01085">
        <ele>22.6</ele>
        <time>2024-03-03T09:59:20Z</time>
      </trkpt>
      <trkpt lat="49.08151" lon="0.01074">
        <ele>22.6</ele>
        <time>2024-03-03T09:59:21Z</time>
      </trkpt>
      <trkpt lat="49.08152" lon="0.01064">
        <ele>22.6</ele>
        <time>2024-03-03T09:59:22Z</time>
      </trkpt>
      <trkpt lat="49.08155" lon="0.01056">
        <ele>22.6</ele>
        <time>2024-03-03T09:59:23Z</time>
      </trkpt>
      <trkpt lat="49.08159" lon="0.0105">
        <ele>22.5</ele>
        <time>2024-03-03T09:59:24Z</time>
      </trkpt>
      <trkpt lat="49.08166" lon="0.01047">
        <ele>22.3</ele>
        <time>2024-03-03T09:59:25Z</time>
      </trkpt>
      <trkpt lat="49.08172" lon="0.01046">
        <ele>22.2</ele>
        <time>2024-03-03T09:59:26Z</time>
      </trkpt>
      <trkpt lat="49.08179" lon="0.01046">
        <ele>22.1</ele>
        <time>2024-03-03T09:59:27Z</time>
      </trkpt>
      <trkpt lat="49.08186" lon="0.01046">
        <ele>22</ele>
        <time>2024-03-03T09:59:28Z</time>
      </trkpt>
      <trkpt lat="49.08193" lon="0.01045">
        <ele>21.9</ele>
        <time>2024-03-03T09:59:29Z</time>
      </trkpt>
      <trkpt lat="49.082" lon="0.01045">
        <ele>21.8</ele>
        <time>2024-03-03T09:59:30Z</time>
      </trkpt>
      <trkpt lat="49.08207" lon="0.01044">
        <ele>21.8</ele>
        <time>2024-03-03T09:59:31Z</time>
      </trkpt>
      <trkpt lat="49.08215" lon="0.01043">
        <ele>21.8</ele>
        <time>2024-03-03T09:59:32Z</time>
      </trkpt>
      <trkpt lat="49.08222" lon="0.01043">
        <ele>21.7</ele>
        <time>2024-03-03T09:59:33Z</time>
      </trkpt>
      <trkpt lat="49.0823" lon="0.01041">
        <ele>21.7</ele>
        <time>2024-03-03T09:59:34Z</time>
      </trkpt>
      <trkpt lat="49.08237" lon="0.01041">
        <ele>21.7</ele>
        <time>2024-03-03T09:59:35Z</time>
      </trkpt>
      <trkpt lat="49.08244" lon="0.0104">
        <ele>21.7</ele>
        <time>2024-03-03T09:59:36Z</time>
      </trkpt>
      <trkpt lat="49.08252" lon="0.0104">
        <ele>21.7</ele>
        <time>2024-03-03T09:59:37Z</time>
      </trkpt>
      <trkpt lat="49.08259" lon="0.0104">
        <ele>21.7</ele>
        <time>2024-03-03T09:59:38Z</time>
      </trkpt>
      <trkpt lat="49.08267" lon="0.0104">
        <ele>21.7</ele>
        <time>2024-03-03T09:59:39Z</time>
      </trkpt>
      <trkpt lat="49.08274" lon="0.0104">
        <ele>21.8</ele>
        <time>2024-03-03T09:59:40Z</time>
      </trkpt>
      <trkpt lat="49.08281" lon="0.0104">
        <ele>21.8</ele>
        <time>2024-03-03T09:59:41Z</time>
      </trkpt>
      <trkpt lat="49.08288" lon="0.0104">
        <ele>21.8</ele>
        <time>2024-03-03T09:59:42Z</time>
      </trkpt>
      <trkpt lat="49.08295" lon="0.01041">
        <ele>21.9</ele>
        <time>2024-03-03T09:59:43Z</time>
      </trkpt>
      <trkpt lat="49.08302" lon="0.01042">
        <ele>22</ele>
        <time>2024-03-03T09:59:44Z</time>
      </trkpt>
      <trkpt lat="49.08309" lon="0.01043">
        <ele>22.2</ele>
        <time>2024-03-03T09:59:45Z</time>
      </trkpt>
      <trkpt lat="49.08316" lon="0.01045">
        <ele>22.3</ele>
        <time>2024-03-03T09:59:46Z</time>
      </trkpt>
      <trkpt lat="49.08322" lon="0.01046">
        <ele>22.6</ele>
        <time>2024-03-03T09:59:47Z</time>
      </trkpt>
      <trkpt lat="49.08329" lon="0.01048">
        <ele>22.8</ele>
        <time>2024-03-03T09:59:48Z</time>
      </trkpt>
      <trkpt lat="49.08335" lon="0.0105">
        <ele>23</ele>
        <time>2024-03-03T09:59:49Z</time>
      </trkpt>
      <trkpt lat="49.08341" lon="0.01052">
        <ele>23.3</ele>
        <time>2024-03-03T09:59:50Z</time>
      </trkpt>
      <trkpt lat="49.08346" lon="0.01054">
        <ele>23.6</ele>
        <time>2024-03-03T09:59:51Z</time>
      </trkpt>
      <trkpt lat="49.08352" lon="0.01055">
        <ele>23.8</ele>
        <time>2024-03-03T09:59:52Z</time>
      </trkpt>
      <trkpt lat="49.08358" lon="0.01057">
        <ele>24.1</ele>
        <time>2024-03-03T09:59:53Z</time>
      </trkpt>
      <trkpt lat="49.08363" lon="0.0106">
        <ele>24.5</ele>
        <time>2024-03-03T09:59:54Z</time>
      </trkpt>
      <trkpt lat="49.08369" lon="0.01062">
        <ele>24.8</ele>
        <time>2024-03-03T09:59:55Z</time>
      </trkpt>
      <trkpt lat="49.08374" lon="0.01064">
        <ele>25.2</ele>
        <time>2024-03-03T09:59:56Z</time>
      </trkpt>
      <trkpt lat="49.08379" lon="0.01067">
        <ele>25.5</ele>
        <time>2024-03-03T09:59:57Z</time>
      </trkpt>
      <trkpt lat="49.08385" lon="0.01069">
        <ele>25.9</ele>
        <time>2024-03-03T09:59:58Z</time>
      </trkpt>
      <trkpt lat="49.0839" lon="0.01072">
        <ele>26.2</ele>
        <time>2024-03-03T09:59:59Z</time>
      </trkpt>
      <trkpt lat="49.08395" lon="0.01074">
        <ele>26.5</ele>
        <time>2024-03-03T10:00:00Z</time>
      </trkpt>
      <trkpt lat="49.08399" lon="0.01076">
        <ele>26.8</ele>
        <time>2024-03-03T10:00:01Z</time>
      </trkpt>
      <trkpt lat="49.08404" lon="0.01078">
        <ele>27</ele>
        <time>2024-03-03T10:00:02Z</time>
      </trkpt>
      <trkpt lat="49.08409" lon="0.01081">
        <ele>27.2</ele>
        <time>2024-03-03T10:00:03Z</time>
      </trkpt>
      <trkpt lat="49.08413" lon="0.01083">
        <ele>27.4</ele>
        <time>2024-03-03T10:00:04Z</time>
      </trkpt>
      <trkpt lat="49.08419" lon="0.01086">
        <ele>27.6</ele>
        <time>2024-03-03T10:00:05Z</time>
      </trkpt>
      <trkpt lat="49.08424" lon="0.01088">
        <ele>27.8</ele>
        <time>2024-03-03T10:00:06Z</time>
      </trkpt>
      <trkpt lat="49.08429" lon="0.01091">
        <ele>28</ele>
        <time>2024-03-03T10:00:07Z</time>
      </trkpt>
      <trkpt lat="49.08435" lon="0.01093">
        <ele>28.3</ele>
        <time>2024-03-03T10:00:08Z</time>
      </trkpt>
      <trkpt lat="49.08441" lon="0.01096">
        <ele>28.4</ele>
        <time>2024-03-03T10:00:09Z</time>
      </trkpt>
      <trkpt lat="49.08446" lon="0.01098">
        <ele>28.4</ele>
        <time>2024-03-03T10:00:10Z</time>
      </trkpt>
      <trkpt lat="49.08452" lon="0.01101">
        <ele>28.5</ele>
        <time>2024-03-03T10:00:11Z</time>
      </trkpt>
      <trkpt lat="49.08458" lon="0.01103">
        <ele>28.5</ele>
        <time>2024-03-03T10:00:12Z</time>
      </trkpt>
      <trkpt lat="49.08464" lon="0.01106">
        <ele>28.4</ele>
        <time>2024-03-03T10:00:13Z</time>
      </trkpt>
      <trkpt lat="49.0847" lon="0.01109">
        <ele>28.4</ele>
        <time>2024-03-03T10:00:14Z</time>
      </trkpt>
      <trkpt lat="49.08477" lon="0.01112">
        <ele>28.2</ele>
        <time>2024-03-03T10:00:15Z</time>
      </trkpt>
      <trkpt lat="49.08483" lon="0.01115">
        <ele>28</ele>
        <time>2024-03-03T10:00:16Z</time>
      </trkpt>
      <trkpt lat="49.0849" lon="0.01119">
        <ele>27.8</ele>
        <time>2024-03-03T10:00:17Z</time>
      </trkpt>
      <trkpt lat="49.08497" lon="0.01124">
        <ele>27.6</ele>
        <time>2024-03-03T10:00:18Z</time>
      </trkpt>
      <trkpt lat="49.08504" lon="0.0113">
        <ele>27.3</ele>
        <time>2024-03-03T10:00:19Z</time>
      </trkpt>
      <trkpt lat="49.08511" lon="0.01136">
        <ele>26.9</ele>
        <time>2024-03-03T10:00:20Z</time>
      </trkpt>
      <trkpt lat="49.08517" lon="0.01144">
        <ele>26.6</ele>
        <time>2024-03-03T10:00:21Z</time>
      </trkpt>
      <trkpt lat="49.08524" lon="0.01154">
        <ele>26.2</ele>
        <time>2024-03-03T10:00:22Z</time>
      </trkpt>
      <trkpt lat="49.08531" lon="0.01164">
        <ele>25.7</ele>
        <time>2024-03-03T10:00:23Z</time>
      </trkpt>
      <trkpt lat="49.08537" lon="0.01174">
        <ele>25.3</ele>
        <time>2024-03-03T10:00:24Z</time>
      </trkpt>
      <trkpt lat="49.08542" lon="0.01187">
        <ele>25</ele>
        <time>2024-03-03T10:00:25Z</time>
      </trkpt>
      <trkpt lat="49.08546" lon="0.01199">
        <ele>24.6</ele>
        <time>2024-03-03T10:00:26Z</time>
      </trkpt>
      <trkpt lat="49.0855" lon="0.01212">
        <ele>24.4</ele>
        <time>2024-03-03T10:00:27Z</time>
      </trkpt>
      <trkpt lat="49.08553" lon="0.01226">
        <ele>24.2</ele>
        <time>2024-03-03T10:00:28Z</time>
      </trkpt>
      <trkpt lat="49.08555" lon="0.0124">
        <ele>24</ele>
        <time>2024-03-03T10:00:29Z</time>
      </trkpt>
      <trkpt lat="49.08556" lon="0.01254">
        <ele>23.9</ele>
        <time>2024-03-03T10:00:30Z</time>
      </trkpt>
      <trkpt lat="49.08557" lon="0.01267">
        <ele>23.8</ele>
        <time>2024-03-03T10:00:31Z</time>
      </trkpt>
      <trkpt lat="49.08557" lon="0.01281">
        <ele>23.7</ele>
        <time>2024-03-03T10:00:32Z</time>
      </trkpt>
      <trkpt lat="49.08557" lon="0.01293">
        <ele>23.7</ele>
        <time>2024-03-03T10:00:33Z</time>
      </trkpt>
      <trkpt lat="49.08557" lon="0.01307">
        <ele>23.7</ele>
        <time>2024-03-03T10:00:34Z</time>
      </trkpt>
      <trkpt lat="49.08557" lon="0.01319">
        <ele>23.7</ele>
        <time>2024-03-03T10:00:35Z</time>
      </trkpt>
      <trkpt lat="49.08557" lon="0.01332">
        <ele>23.7</ele>
        <time>2024-03-03T10:00:36Z</time>
      </trkpt>
      <trkpt lat="49.08557" lon="0.01343">
        <ele>23.8</ele>
        <time>2024-03-03T10:00:37Z</time>
      </trkpt>
      <trkpt lat="49.08556" lon="0.01355">
        <ele>23.8</ele>
        <time>2024-03-03T10:00:38Z</time>
      </trkpt>
      <trkpt lat="49.08556" lon="0.01367">
        <ele>23.8</ele>
        <time>2024-03-03T10:00:39Z</time>
      </trkpt>
      <trkpt lat="49.08555" lon="0.01379">
        <ele>23.8</ele>
        <time>2024-03-03T10:00:40Z</time>
      </trkpt>
      <trkpt lat="49.08555" lon="0.0139">
        <ele>23.8</ele>
        <time>2024-03-03T10:00:41Z</time>
      </trkpt>
      <trkpt lat="49.08555" lon="0.01402">
        <ele>23.9</ele>
        <time>2024-03-03T10:00:42Z</time>
      </trkpt>
      <trkpt lat="49.08555" lon="0.01413">
        <ele>23.9</ele>
        <time>2024-03-03T10:00:43Z</time>
      </trkpt>
      <trkpt lat="49.08555" lon="0.01424">
        <ele>23.9</ele>
        <time>2024-03-03T10:00:44Z</time>
      </trkpt>
      <trkpt lat="49.08556" lon="0.01435">
        <ele>23.9</ele>
        <time>2024-03-03T10:00:45Z</time>
      </trkpt>
      <trkpt lat="49.08556" lon="0.01446">
        <ele>23.9</ele>
        <time>2024-03-03T10:00:46Z</time>
      </trkpt>
      <trkpt lat="49.08557" lon="0.01457">
        <ele>23.8</ele>
        <time>2024-03-03T10:00:47Z</time>
      </trkpt>
      <trkpt lat="49.08558" lon="0.01468">
        <ele>23.8</ele>
        <time>2024-03-03T10:00:48Z</time>
      </trkpt>
      <trkpt lat="49.0856" lon="0.01479">
        <ele>23.8</ele>
        <time>2024-03-03T10:00:49Z</time>
      </trkpt>
      <trkpt lat="49.08561" lon="0.0149">
        <ele>23.8</ele>
        <time>2024-03-03T10:00:50Z</time>
      </trkpt>
      <trkpt lat="49.08563" lon="0.01502">
        <ele>23.7</ele>
        <time>2024-03-03T10:00:51Z</time>
      </trkpt>
      <trkpt lat="49.08565" lon="0.01513">
        <ele>23.7</ele>
        <time>2024-03-03T10:00:52Z</time>
      </trkpt>
      <trkpt lat="49.08567" lon="0.01525">
        <ele>23.7</ele>
        <time>2024-03-03T10:00:53Z</time>
      </trkpt>
      <trkpt lat="49.0857" lon="0.01536">
        <ele>23.7</ele>
        <time>2024-03-03T10:00:54Z</time>
      </trkpt>
      <trkpt lat="49.08572" lon="0.01548">
        <ele>23.6</ele>
        <time>2024-03-03T10:00:55Z</time>
      </trkpt>
      <trkpt lat="49.08575" lon="0.01559">
        <ele>23.6</ele>
        <time>2024-03-03T10:00:56Z</time>
      </trkpt>
      <trkpt lat="49.08577" lon="0.0157">
        <ele>23.6</ele>
        <time>2024-03-03T10:00:57Z</time>
      </trkpt>
      <trkpt lat="49.0858" lon="0.0158">
        <ele>23.5</ele>
        <time>2024-03-03T10:00:58Z</time>
      </trkpt>
      <trkpt lat="49.08582" lon="0.01591">
        <ele>23.5</ele>
        <time>2024-03-03T10:00:59Z</time>
      </trkpt>
      <trkpt lat="49.08585" lon="0.01602">
        <ele>23.4</ele>
        <time>2024-03-03T10:01:00Z</time>
      </trkpt>
      <trkpt lat="49.08587" lon="0.01613">
        <ele>23.4</ele>
        <time>2024-03-03T10:01:01Z</time>
      </trkpt>
      <trkpt lat="49.0859" lon="0.01624">
        <ele>23.4</ele>
        <time>2024-03-03T10:01:02Z</time>
      </trkpt>
      <trkpt lat="49.08592" lon="0.01635">
        <ele>23.3</ele>
        <time>2024-03-03T10:01:03Z</time>
      </trkpt>
      <trkpt lat="49.08595" lon="0.01646">
        <ele>23.2</ele>
        <time>2024-03-03T10:01:04Z</time>
      </trkpt>
      <trkpt lat="49.08598" lon="0.01656">
        <ele>23.2</ele>
        <time>2024-03-03T10:01:05Z</time>
      </trkpt>
      <trkpt lat="49.08601" lon="0.01666">
        <ele>23.1</ele>
        <time>2024-03-03T10:01:06Z</time>
      </trkpt>
      <trkpt lat="49.08603" lon="0.01677">
        <ele>23.1</ele>
        <time>2024-03-03T10:01:07Z</time>
      </trkpt>
      <trkpt lat="49.08606" lon="0.01688">
        <ele>23</ele>
        <time>2024-03-03T10:01:08Z</time>
      </trkpt>
      <trkpt lat="49.08609" lon="0.01698">
        <ele>23</ele>
        <time>2024-03-03T10:01:09Z</time>
      </trkpt>
      <trkpt lat="49.08612" lon="0.01709">
        <ele>22.9</ele>
        <time>2024-03-03T10:01:10Z</time>
      </trkpt>
      <trkpt lat="49.08615" lon="0.01719">
        <ele>22.9</ele>
        <time>2024-03-03T10:01:11Z</time>
      </trkpt>
      <trkpt lat="49.08617" lon="0.0173">
        <ele>22.8</ele>
        <time>2024-03-03T10:01:12Z</time>
      </trkpt>
      <trkpt lat="49.0862" lon="0.01742">
        <ele>22.8</ele>
        <time>2024-03-03T10:01:13Z</time>
      </trkpt>
      <trkpt lat="49.08622" lon="0.01752">
        <ele>22.7</ele>
        <time>2024-03-03T10:01:14Z</time>
      </trkpt>
      <trkpt lat="49.08625" lon="0.01763">
        <ele>22.7</ele>
        <time>2024-03-03T10:01:15Z</time>
      </trkpt>
      <trkpt lat="49.08627" lon="0.01773">
        <ele>22.7</ele>
        <time>2024-03-03T10:01:16Z</time>
      </trkpt>
      <trkpt lat="49.08631" lon="0.01783">
        <ele>22.6</ele>
        <time>2024-03-03T10:01:17Z</time>
      </trkpt>
      <trkpt lat="49.08635" lon="0.01792">
        <ele>22.6</ele>
        <time>2024-03-03T10:01:18Z</time>
      </trkpt>
      <trkpt lat="49.08641" lon="0.018">
        <ele>22.5</ele>
        <time>2024-03-03T10:01:19Z</time>
      </trkpt>
      <trkpt lat="49.08647" lon="0.01807">
        <ele>22.4</ele>
        <time>2024-03-03T10:01:20Z</time>
      </trkpt>
      <trkpt lat="49.08654" lon="0.01813">
        <ele>22.3</ele>
        <time>2024-03-03T10:01:21Z</time>
      </trkpt>
      <trkpt lat="49.08661" lon="0.01819">
        <ele>22.3</ele>
        <time>2024-03-03T10:01:22Z</time>
      </trkpt>
      <trkpt lat="49.08668" lon="0.01824">
        <ele>22.2</ele>
        <time>2024-03-03T10:01:23Z</time>
      </trkpt>
      <trkpt lat="49.08675" lon="0.01827">
        <ele>22.2</ele>
        <time>2024-03-03T10:01:24Z</time>
      </trkpt>
      <trkpt lat="49.08683" lon="0.0183">
        <ele>22.1</ele>
        <time>2024-03-03T10:01:25Z</time>
      </trkpt>
      <trkpt lat="49.08691" lon="0.01833">
        <ele>22.1</ele>
        <time>2024-03-03T10:01:26Z</time>
      </trkpt>
      <trkpt lat="49.08698" lon="0.01835">
        <ele>22</ele>
        <time>2024-03-03T10:01:27Z</time>
      </trkpt>
      <trkpt lat="49.08706" lon="0.01838">
        <ele>22</ele>
        <time>2024-03-03T10:01:28Z</time>
      </trkpt>
      <trkpt lat="49.08714" lon="0.0184">
        <ele>21.9</ele>
        <time>2024-03-03T10:01:29Z</time>
      </trkpt>
      <trkpt lat="49.08721" lon="0.01842">
        <ele>21.9</ele>
        <time>2024-03-03T10:01:30Z</time>
      </trkpt>
      <trkpt lat="49.08729" lon="0.01844">
        <ele>21.8</ele>
        <time>2024-03-03T10:01:31Z</time>
      </trkpt>
      <trkpt lat="49.08737" lon="0.01846">
        <ele>21.8</ele>
        <time>2024-03-03T10:01:32Z</time>
      </trkpt>
      <trkpt lat="49.08744" lon="0.01848">
        <ele>21.7</ele>
        <time>2024-03-03T10:01:33Z</time>
      </trkpt>
      <trkpt lat="49.08752" lon="0.0185">
        <ele>21.7</ele>
        <time>2024-03-03T10:01:34Z</time>
      </trkpt>
      <trkpt lat="49.08759" lon="0.01852">
        <ele>21.7</ele>
        <time>2024-03-03T10:01:35Z</time>
      </trkpt>
      <trkpt lat="49.08767" lon="0.01854">
        <ele>21.7</ele>
        <time>2024-03-03T10:01:36Z</time>
      </trkpt>
      <trkpt lat="49.08774" lon="0.01856">
        <ele>21.7</ele>
        <time>2024-03-03T10:01:37Z</time>
      </trkpt>
      <trkpt lat="49.08782" lon="0.01858">
        <ele>21.6</ele>
        <time>2024-03-03T10:01:38Z</time>
      </trkpt>
      <trkpt lat="49.08789" lon="0.0186">
        <ele>21.6</ele>
        <time>2024-03-03T10:01:39Z</time>
      </trkpt>
      <trkpt lat="49.08797" lon="0.01862">
        <ele>21.6</ele>
        <time>2024-03-03T10:01:40Z</time>
      </trkpt>
      <trkpt lat="49.08804" lon="0.01863">
        <ele>21.5</ele>
        <time>2024-03-03T10:01:41Z</time>
      </trkpt>
      <trkpt lat="49.08812" lon="0.01866">
        <ele>21.5</ele>
        <time>2024-03-03T10:01:42Z</time>
      </trkpt>
      <trkpt lat="49.08819" lon="0.01868">
        <ele>21.5</ele>
        <time>2024-03-03T10:01:43Z</time>
      </trkpt>
      <trkpt lat="49.08827" lon="0.01869">
        <ele>21.5</ele>
        <time>2024-03-03T10:01:44Z</time>
      </trkpt>
      <trkpt lat="49.08834" lon="0.01872">
        <ele>21.6</ele>
        <time>2024-03-03T10:01:45Z</time>
      </trkpt>
      <trkpt lat="49.08842" lon="0.01873">
        <ele>21.6</ele>
        <time>2024-03-03T10:01:46Z</time>
      </trkpt>
      <trkpt lat="49.08849" lon="0.01875">
        <ele>21.6</ele>
        <time>2024-03-03T10:01:47Z</time>
      </trkpt>
      <trkpt lat="49.08857" lon="0.01876">
        <ele>21.6</ele>
        <time>2024-03-03T10:01:48Z</time>
      </trkpt>
      <trkpt lat="49.08864" lon="0.01878">
        <ele>21.6</ele>
        <time>2024-03-03T10:01:49Z</time>
      </trkpt>
      <trkpt lat="49.08872" lon="0.01879">
        <ele>21.7</ele>
        <time>2024-03-03T10:01:50Z</time>
      </trkpt>
      <trkpt lat="49.08879" lon="0.0188">
        <ele>21.7</ele>
        <time>2024-03-03T10:01:51Z</time>
      </trkpt>
      <trkpt lat="49.08887" lon="0.0188">
        <ele>21.8</ele>
        <time>2024-03-03T10:01:52Z</time>
      </trkpt>
      <trkpt lat="49.08894" lon="0.01881">
        <ele>21.8</ele>
        <time>2024-03-03T10:01:53Z</time>
      </trkpt>
      <trkpt lat="49.08902" lon="0.01881">
        <ele>21.9</ele>
        <time>2024-03-03T10:01:54Z</time>
      </trkpt>
      <trkpt lat="49.08909" lon="0.01881">
        <ele>21.9</ele>
        <time>2024-03-03T10:01:55Z</time>
      </trkpt>
      <trkpt lat="49.08917" lon="0.01881">
        <ele>21.9</ele>
        <time>2024-03-03T10:01:56Z</time>
      </trkpt>
      <trkpt lat="49.08924" lon="0.01881">
        <ele>21.9</ele>
        <time>2024-03-03T10:01:57Z</time>
      </trkpt>
      <trkpt lat="49.08931" lon="0.01881">
        <ele>21.9</ele>
        <time>2024-03-03T10:01:58Z</time>
      </trkpt>
      <trkpt lat="49.08939" lon="0.01881">
        <ele>21.9</ele>
        <time>2024-03-03T10:01:59Z</time>
      </trkpt>
      <trkpt lat="49.08946" lon="0.01882">
        <ele>21.9</ele>
        <time>2024-03-03T10:02:00Z</time>
      </trkpt>
      <trkpt lat="49.08952" lon="0.01883">
        <ele>21.9</ele>
        <time>2024-03-03T10:02:01Z</time>
      </trkpt>
      <trkpt lat="49.0896" lon="0.01885">
        <ele>21.9</ele>
        <time>2024-03-03T10:02:02Z</time>
      </trkpt>
      <trkpt lat="49.08967" lon="0.01888">
        <ele>21.7</ele>
        <time>2024-03-03T10:02:03Z</time>
      </trkpt>
      <trkpt lat="49.08975" lon="0.0189">
        <ele>21.5</ele>
        <time>2024-03-03T10:02:04Z</time>
      </trkpt>
      <trkpt lat="49.08982" lon="0.01892">
        <ele>21.3</ele>
        <time>2024-03-03T10:02:05Z</time>
      </trkpt>
      <trkpt lat="49.0899" lon="0.01894">
        <ele>21</ele>
        <time>2024-03-03T10:02:06Z</time>
      </trkpt>
      <trkpt lat="49.08998" lon="0.01895">
        <ele>20.7</ele>
        <time>2024-03-03T10:02:07Z</time>
      </trkpt>
      <trkpt lat="49.09005" lon="0.01895">
        <ele>20.4</ele>
        <time>2024-03-03T10:02:08Z</time>
      </trkpt>
      <trkpt lat="49.09013" lon="0.01893">
        <ele>20.1</ele>
        <time>2024-03-03T10:02:09Z</time>
      </trkpt>
      <trkpt lat="49.0902" lon="0.0189">
        <ele>19.8</ele>
        <time>2024-03-03T10:02:10Z</time>
      </trkpt>
      <trkpt lat="49.09028" lon="0.01886">
        <ele>19.5</ele>
        <time>2024-03-03T10:02:11Z</time>
      </trkpt>
      <trkpt lat="49.09035" lon="0.01882">
        <ele>19.1</ele>
        <time>2024-03-03T10:02:12Z</time>
      </trkpt>
      <trkpt lat="49.09043" lon="0.01878">
        <ele>18.8</ele>
        <time>2024-03-03T10:02:13Z</time>
      </trkpt>
      <trkpt lat="49.0905" lon="0.01873">
        <ele>18.6</ele>
        <time>2024-03-03T10:02:14Z</time>
      </trkpt>
      <trkpt lat="49.09058" lon="0.01869">
        <ele>18.4</ele>
        <time>2024-03-03T10:02:15Z</time>
      </trkpt>
      <trkpt lat="49.09065" lon="0.01865">
        <ele>18.2</ele>
        <time>2024-03-03T10:02:16Z</time>
      </trkpt>
      <trkpt lat="49.09073" lon="0.01861">
        <ele>17.9</ele>
        <time>2024-03-03T10:02:17Z</time>
      </trkpt>
      <trkpt lat="49.09081" lon="0.01857">
        <ele>17.7</ele>
        <time>2024-03-03T10:02:18Z</time>
      </trkpt>
      <trkpt lat="49.09088" lon="0.01853">
        <ele>17.5</ele>
        <time>2024-03-03T10:02:19Z</time>
      </trkpt>
      <trkpt lat="49.09096" lon="0.01849">
        <ele>17.4</ele>
        <time>2024-03-03T10:02:20Z</time>
      </trkpt>
      <trkpt lat="49.09104" lon="0.01845">
        <ele>17.2</ele>
        <time>2024-03-03T10:02:21Z</time>
      </trkpt>
      <trkpt lat="49.09112" lon="0.01841">
        <ele>17.1</ele>
        <time>2024-03-03T10:02:22Z</time>
      </trkpt>
      <trkpt lat="49.0912" lon="0.01837">
        <ele>17</ele>
        <time>2024-03-03T10:02:23Z</time>
      </trkpt>
      <trkpt lat="49.09128" lon="0.01833">
        <ele>16.9</ele>
        <time>2024-03-03T10:02:24Z</time>
      </trkpt>
      <trkpt lat="49.09135" lon="0.01829">
        <ele>16.9</ele>
        <time>2024-03-03T10:02:25Z</time>
      </trkpt>
      <trkpt lat="49.09143" lon="0.01826">
        <ele>16.8</ele>
        <time>2024-03-03T10:02:26Z</time>
      </trkpt>
      <trkpt lat="49.0915" lon="0.01822">
        <ele>16.7</ele>
        <time>2024-03-03T10:02:27Z</time>
      </trkpt>
      <trkpt lat="49.09158" lon="0.01818">
        <ele>16.6</ele>
        <time>2024-03-03T10:02:28Z</time>
      </trkpt>
      <trkpt lat="49.09165" lon="0.01815">
        <ele>16.6</ele>
        <time>2024-03-03T10:02:29Z</time>
      </trkpt>
      <trkpt lat="49.09172" lon="0.01811">
        <ele>16.5</ele>
        <time>2024-03-03T10:02:30Z</time>
      </trkpt>
      <trkpt lat="49.0918" lon="0.01807">
        <ele>16.5</ele>
        <time>2024-03-03T10:02:31Z</time>
      </trkpt>
      <trkpt lat="49.09188" lon="0.01803">
        <ele>16.4</ele>
        <time>2024-03-03T10:02:32Z</time>
      </trkpt>
      <trkpt lat="49.09195" lon="0.01799">
        <ele>16.4</ele>
        <time>2024-03-03T10:02:33Z</time>
      </trkpt>
      <trkpt lat="49.09203" lon="0.01795">
        <ele>16.3</ele>
        <time>2024-03-03T10:02:34Z</time>
      </trkpt>
      <trkpt lat="49.0921" lon="0.01792">
        <ele>16.3</ele>
        <time>2024-03-03T10:02:35Z</time>
      </trkpt>
      <trkpt lat="49.09218" lon="0.01788">
        <ele>16.3</ele>
        <time>2024-03-03T10:02:36Z</time>
      </trkpt>
      <trkpt lat="49.09225" lon="0.01785">
        <ele>16.3</ele>
        <time>2024-03-03T10:02:37Z</time>
      </trkpt>
      <trkpt lat="49.09232" lon="0.01781">
        <ele>16.2</ele>
        <time>2024-03-03T10:02:38Z</time>
      </trkpt>
      <trkpt lat="49.0924" lon="0.01778">
        <ele>16.2</ele>
        <time>2024-03-03T10:02:39Z</time>
      </trkpt>
      <trkpt lat="49.09247" lon="0.01774">
        <ele>16.2</ele>
        <time>2024-03-03T10:02:40Z</time>
      </trkpt>
      <trkpt lat="49.09254" lon="0.0177">
        <ele>16.2</ele>
        <time>2024-03-03T10:02:41Z</time>
      </trkpt>
      <trkpt lat="49.09262" lon="0.01767">
        <ele>16.2</ele>
        <time>2024-03-03T10:02:42Z</time>
      </trkpt>
      <trkpt lat="49.09269" lon="0.01764">
        <ele>16.2</ele>
        <time>2024-03-03T10:02:43Z</time>
      </trkpt>
      <trkpt lat="49.09276" lon="0.0176">
        <ele>16.2</ele>
        <time>2024-03-03T10:02:44Z</time>
      </trkpt>
      <trkpt lat="49.09283" lon="0.01757">
        <ele>16.2</ele>
        <time>2024-03-03T10:02:45Z</time>
      </trkpt>
      <trkpt lat="49.0929" lon="0.01753">
        <ele>16.2</ele>
        <time>2024-03-03T10:02:46Z</time>
      </trkpt>
      <trkpt lat="49.09297" lon="0.01749">
        <ele>16.3</ele>
        <time>2024-03-03T10:02:47Z</time>
      </trkpt>
      <trkpt lat="49.09305" lon="0.01746">
        <ele>16.3</ele>
        <time>2024-03-03T10:02:48Z</time>
      </trkpt>
      <trkpt lat="49.09312" lon="0.01742">
        <ele>16.3</ele>
        <time>2024-03-03T10:02:49Z</time>
      </trkpt>
      <trkpt lat="49.09319" lon="0.01738">
        <ele>16.3</ele>
        <time>2024-03-03T10:02:50Z</time>
      </trkpt>
      <trkpt lat="49.09326" lon="0.01734">
        <ele>16.3</ele>
        <time>2024-03-03T10:02:51Z</time>
      </trkpt>
      <trkpt lat="49.09333" lon="0.01731">
        <ele>16.2</ele>
        <time>2024-03-03T10:02:52Z</time>
      </trkpt>
      <trkpt lat="49.0934" lon="0.01728">
        <ele>16.2</ele>
        <time>2024-03-03T10:02:53Z</time>
      </trkpt>
      <trkpt lat="49.09348" lon="0.01724">
        <ele>16.2</ele>
        <time>2024-03-03T10:02:54Z</time>
      </trkpt>
      <trkpt lat="49.09355" lon="0.01721">
        <ele>16.2</ele>
        <time>2024-03-03T10:02:55Z</time>
      </trkpt>
      <trkpt lat="49.09362" lon="0.01717">
        <ele>16.2</ele>
        <time>2024-03-03T10:02:56Z</time>
      </trkpt>
      <trkpt lat="49.09369" lon="0.01714">
        <ele>16.2</ele>
        <time>2024-03-03T10:02:57Z</time>
      </trkpt>
      <trkpt lat="49.09376" lon="0.0171">
        <ele>16.2</ele>
        <time>2024-03-03T10:02:58Z</time>
      </trkpt>
      <trkpt lat="49.09383" lon="0.01707">
        <ele>16.2</ele>
        <time>2024-03-03T10:02:59Z</time>
      </trkpt>
      <trkpt lat="49.0939" lon="0.01703">
        <ele>16.2</ele>
        <time>2024-03-03T10:03:00Z</time>
      </trkpt>
      <trkpt lat="49.09397" lon="0.017">
        <ele>16.3</ele>
        <time>2024-03-03T10:03:01Z</time>
      </trkpt>
      <trkpt lat="49.09404" lon="0.01696">
        <ele>16.3</ele>
        <time>2024-03-03T10:03:02Z</time>
      </trkpt>
      <trkpt lat="49.09411" lon="0.01692">
        <ele>16.3</ele>
        <time>2024-03-03T10:03:03Z</time>
      </trkpt>
      <trkpt lat="49.09418" lon="0.01688">
        <ele>16.3</ele>
        <time>2024-03-03T10:03:04Z</time>
      </trkpt>
      <trkpt lat="49.09425" lon="0.01683">
        <ele>16.3</ele>
        <time>2024-03-03T10:03:05Z</time>
      </trkpt>
      <trkpt lat="49.09432" lon="0.01679">
        <ele>16.3</ele>
        <time>2024-03-03T10:03:06Z</time>
      </trkpt>
      <trkpt lat="49.09439" lon="0.01674">
        <ele>16.3</ele>
        <time>2024-03-03T10:03:07Z</time>
      </trkpt>
      <trkpt lat="49.09446" lon="0.01669">
        <ele>16.3</ele>
        <time>2024-03-03T10:03:08Z</time>
      </trkpt>
      <trkpt lat="49.09453" lon="0.01664">
        <ele>16.3</ele>
        <time>2024-03-03T10:03:09Z</time>
      </trkpt>
      <trkpt lat="49.0946" lon="0.01658">
        <ele>16.3</ele>
        <time>2024-03-03T10:03:10Z</time>
      </trkpt>
      <trkpt lat="49.09467" lon="0.01652">
        <ele>16.4</ele>
        <time>2024-03-03T10:03:11Z</time>
      </trkpt>
      <trkpt lat="49.09474" lon="0.01646">
        <ele>16.4</ele>
        <time>2024-03-03T10:03:12Z</time>
      </trkpt>
      <trkpt lat="49.09481" lon="0.01639">
        <ele>16.4</ele>
        <time>2024-03-03T10:03:13Z</time>
      </trkpt>
      <trkpt lat="49.09488" lon="0.01633">
        <ele>16.4</ele>
        <time>2024-03-03T10:03:14Z</time>
      </trkpt>
      <trkpt lat="49.09494" lon="0.01626">
        <ele>16.4</ele>
        <time>2024-03-03T10:03:15Z</time>
      </trkpt>
      <trkpt lat="49.09501" lon="0.01619">
        <ele>16.4</ele>
        <time>2024-03-03T10:03:16Z</time>
      </trkpt>
      <trkpt lat="49.09507" lon="0.01613">
        <ele>16.4</ele>
        <time>2024-03-03T10:03:17Z</time>
      </trkpt>
      <trkpt lat="49.09513" lon="0.01606">
        <ele>16.4</ele>
        <time>2024-03-03T10:03:18Z</time>
      </trkpt>
      <trkpt lat="49.09519" lon="0.01598">
        <ele>16.4</ele>
        <time>2024-03-03T10:03:19Z</time>
      </trkpt>
      <trkpt lat="49.09525" lon="0.0159">
        <ele>16.3</ele>
        <time>2024-03-03T10:03:20Z</time>
      </trkpt>
      <trkpt lat="49.0953" lon="0.01582">
        <ele>16.3</ele>
        <time>2024-03-03T10:03:21Z</time>
      </trkpt>
      <trkpt lat="49.09536" lon="0.01574">
        <ele>16.3</ele>
        <time>2024-03-03T10:03:22Z</time>
      </trkpt>
      <trkpt lat="49.09542" lon="0.01565">
        <ele>16.3</ele>
        <time>2024-03-03T10:03:23Z</time>
      </trkpt>
      <trkpt lat="49.09548" lon="0.01556">
        <ele>16.3</ele>
        <time>2024-03-03T10:03:24Z</time>
      </trkpt>
      <trkpt lat="49.09554" lon="0.01548">
        <ele>16.2</ele>
        <time>2024-03-03T10:03:25Z</time>
      </trkpt>
      <trkpt lat="49.09559" lon="0.0154">
        <ele>16.2</ele>
        <time>2024-03-03T10:03:26Z</time>
      </trkpt>
      <trkpt lat="49.09564" lon="0.01531">
        <ele>16.2</ele>
        <time>2024-03-03T10:03:27Z</time>
      </trkpt>
      <trkpt lat="49.09569" lon="0.01521">
        <ele>16.2</ele>
        <time>2024-03-03T10:03:28Z</time>
      </trkpt>
      <trkpt lat="49.09574" lon="0.01512">
        <ele>16.2</ele>
        <time>2024-03-03T10:03:29Z</time>
      </trkpt>
      <trkpt lat="49.09579" lon="0.01503">
        <ele>16.2</ele>
        <time>2024-03-03T10:03:30Z</time>
      </trkpt>
      <trkpt lat="49.09584" lon="0.01494">
        <ele>16.2</ele>
        <time>2024-03-03T10:03:31Z</time>
      </trkpt>
      <trkpt lat="49.09589" lon="0.01485">
        <ele>16.2</ele>
        <time>2024-03-03T10:03:32Z</time>
      </trkpt>
      <trkpt lat="49.09593" lon="0.01476">
        <ele>16.2</ele>
        <time>2024-03-03T10:03:33Z</time>
      </trkpt>
      <trkpt lat="49.09598" lon="0.01467">
        <ele>16.2</ele>
        <time>2024-03-03T10:03:34Z</time>
      </trkpt>
      <trkpt lat="49.09604" lon="0.01458">
        <ele>16.1</ele>
        <time>2024-03-03T10:03:35Z</time>
      </trkpt>
      <trkpt lat="49.09609" lon="0.01448">
        <ele>16.1</ele>
        <time>2024-03-03T10:03:36Z</time>
      </trkpt>
      <trkpt lat="49.09614" lon="0.01439">
        <ele>16.1</ele>
        <time>2024-03-03T10:03:37Z</time>
      </trkpt>
      <trkpt lat="49.09619" lon="0.0143">
        <ele>16.1</ele>
        <time>2024-03-03T10:03:38Z</time>
      </trkpt>
      <trkpt lat="49.09624" lon="0.0142">
        <ele>16.1</ele>
        <time>2024-03-03T10:03:39Z</time>
      </trkpt>
      <trkpt lat="49.09629" lon="0.01411">
        <ele>16.1</ele>
        <time>2024-03-03T10:03:40Z</time>
      </trkpt>
      <trkpt lat="49.09634" lon="0.01402">
        <ele>16.1</ele>
        <time>2024-03-03T10:03:41Z</time>
      </trkpt>
      <trkpt lat="49.09639" lon="0.01392">
        <ele>16.1</ele>
        <time>2024-03-03T10:03:42Z</time>
      </trkpt>
      <trkpt lat="49.09644" lon="0.01383">
        <ele>16.1</ele>
        <time>2024-03-03T10:03:43Z</time>
      </trkpt>
      <trkpt lat="49.09649" lon="0.01374">
        <ele>16.1</ele>
        <time>2024-03-03T10:03:44Z</time>
      </trkpt>
      <trkpt lat="49.09654" lon="0.01365">
        <ele>16</ele>
        <time>2024-03-03T10:03:45Z</time>
      </trkpt>
      <trkpt lat="49.09659" lon="0.01356">
        <ele>16</ele>
        <time>2024-03-03T10:03:46Z</time>
      </trkpt>
      <trkpt lat="49.09664" lon="0.01348">
        <ele>16</ele>
        <time>2024-03-03T10:03:47Z</time>
      </trkpt>
      <trkpt lat="49.09669" lon="0.01338">
        <ele>15.9</ele>
        <time>2024-03-03T10:03:48Z</time>
      </trkpt>
      <trkpt lat="49.09674" lon="0.01329">
        <ele>15.9</ele>
        <time>2024-03-03T10:03:49Z</time>
      </trkpt>
      <trkpt lat="49.09679" lon="0.0132">
        <ele>15.9</ele>
        <time>2024-03-03T10:03:50Z</time>
      </trkpt>
      <trkpt lat="49.09684" lon="0.01311">
        <ele>15.9</ele>
        <time>2024-03-03T10:03:51Z</time>
      </trkpt>
      <trkpt lat="49.09689" lon="0.01302">
        <ele>15.8</ele>
        <time>2024-03-03T10:03:52Z</time>
      </trkpt>
      <trkpt lat="49.09694" lon="0.01293">
        <ele>15.8</ele>
        <time>2024-03-03T10:03:53Z</time>
      </trkpt>
      <trkpt lat="49.09699" lon="0.01284">
        <ele>15.8</ele>
        <time>2024-03-03T10:03:54Z</time>
      </trkpt>
      <trkpt lat="49.09704" lon="0.01275">
        <ele>15.8</ele>
        <time>2024-03-03T10:03:55Z</time>
      </trkpt>
      <trkpt lat="49.09709" lon="0.01266">
        <ele>15.8</ele>
        <time>2024-03-03T10:03:56Z</time>
      </trkpt>
      <trkpt lat="49.09714" lon="0.01257">
        <ele>15.8</ele>
        <time>2024-03-03T10:03:57Z</time>
      </trkpt>
      <trkpt lat="49.09719" lon="0.01248">
        <ele>15.8</ele>
        <time>2024-03-03T10:03:58Z</time>
      </trkpt>
      <trkpt lat="49.09724" lon="0.01239">
        <ele>15.8</ele>
        <time>2024-03-03T10:03:59Z</time>
      </trkpt>
      <trkpt lat="49.09729" lon="0.01229">
        <ele>15.7</ele>
        <time>2024-03-03T10:04:00Z</time>
      </trkpt>
      <trkpt lat="49.09733" lon="0.0122">
        <ele>15.7</ele>
        <time>2024-03-03T10:04:01Z</time>
      </trkpt>
      <trkpt lat="49.09738" lon="0.01211">
        <ele>15.7</ele>
        <time>2024-03-03T10:04:02Z</time>
      </trkpt>
      <trkpt lat="49.09743" lon="0.01201">
        <ele>15.7</ele>
        <time>2024-03-03T10:04:03Z</time>
      </trkpt>
      <trkpt lat="49.09748" lon="0.01192">
        <ele>15.6</ele>
        <time>2024-03-03T10:04:04Z</time>
      </trkpt>
      <trkpt lat="49.09753" lon="0.01183">
        <ele>15.6</ele>
        <time>2024-03-03T10:04:05Z</time>
      </trkpt>
      <trkpt lat="49.09758" lon="0.01175">
        <ele>15.6</ele>
        <time>2024-03-03T10:04:06Z</time>
      </trkpt>
      <trkpt lat="49.09763" lon="0.01166">
        <ele>15.6</ele>
        <time>2024-03-03T10:04:07Z</time>
      </trkpt>
      <trkpt lat="49.09768" lon="0.01156">
        <ele>15.5</ele>
        <time>2024-03-03T10:04:08Z</time>
      </trkpt>
      <trkpt lat="49.09773" lon="0.01147">
        <ele>15.5</ele>
        <time>2024-03-03T10:04:09Z</time>
      </trkpt>
      <trkpt lat="49.09778" lon="0.01138">
        <ele>15.5</ele>
        <time>2024-03-03T10:04:10Z</time>
      </trkpt>
      <trkpt lat="49.09783" lon="0.01128">
        <ele>15.5</ele>
        <time>2024-03-03T10:04:11Z</time>
      </trkpt>
      <trkpt lat="49.09788" lon="0.01119">
        <ele>15.4</ele>
        <time>2024-03-03T10:04:12Z</time>
      </trkpt>
      <trkpt lat="49.09793" lon="0.0111">
        <ele>15.4</ele>
        <time>2024-03-03T10:04:13Z</time>
      </trkpt>
      <trkpt lat="49.09798" lon="0.011">
        <ele>15.4</ele>
        <time>2024-03-03T10:04:14Z</time>
      </trkpt>
      <trkpt lat="49.09803" lon="0.01091">
        <ele>15.4</ele>
        <time>2024-03-03T10:04:15Z</time>
      </trkpt>
      <trkpt lat="49.09808" lon="0.01082">
        <ele>15.4</ele>
        <time>2024-03-03T10:04:16Z</time>
      </trkpt>
      <trkpt lat="49.09813" lon="0.01073">
        <ele>15.4</ele>
        <time>2024-03-03T10:04:17Z</time>
      </trkpt>
      <trkpt lat="49.09819" lon="0.01064">
        <ele>15.4</ele>
        <time>2024-03-03T10:04:18Z</time>
      </trkpt>
      <trkpt lat="49.09824" lon="0.01055">
        <ele>15.3</ele>
        <time>2024-03-03T10:04:19Z</time>
      </trkpt>
      <trkpt lat="49.09828" lon="0.01046">
        <ele>15.3</ele>
        <time>2024-03-03T10:04:20Z</time>
      </trkpt>
      <trkpt lat="49.09833" lon="0.01037">
        <ele>15.2</ele>
        <time>2024-03-03T10:04:21Z</time>
      </trkpt>
      <trkpt lat="49.09839" lon="0.01027">
        <ele>15.2</ele>
        <time>2024-03-03T10:04:22Z</time>
      </trkpt>
      <trkpt lat="49.09844" lon="0.01017">
        <ele>15.2</ele>
        <time>2024-03-03T10:04:23Z</time>
      </trkpt>
      <trkpt lat="49.09849" lon="0.01008">
        <ele>15.1</ele>
        <time>2024-03-03T10:04:24Z</time>
      </trkpt>
      <trkpt lat="49.09854" lon="0.00999">
        <ele>15.1</ele>
        <time>2024-03-03T10:04:25Z</time>
      </trkpt>
      <trkpt lat="49.09859" lon="0.00989">
        <ele>15.1</ele>
        <time>2024-03-03T10:04:26Z</time>
      </trkpt>
      <trkpt lat="49.09864" lon="0.0098">
        <ele>15</ele>
        <time>2024-03-03T10:04:27Z</time>
      </trkpt>
      <trkpt lat="49.09869" lon="0.0097">
        <ele>15</ele>
        <time>2024-03-03T10:04:28Z</time>
      </trkpt>
      <trkpt lat="49.09874" lon="0.00962">
        <ele>15</ele>
        <time>2024-03-03T10:04:29Z</time>
      </trkpt>
      <trkpt lat="49.09879" lon="0.00953">
        <ele>14.9</ele>
        <time>2024-03-03T10:04:30Z</time>
      </trkpt>
      <trkpt lat="49.09884" lon="0.00943">
        <ele>14.9</ele>
        <time>2024-03-03T10:04:31Z</time>
      </trkpt>
      <trkpt lat="49.09889" lon="0.00934">
        <ele>14.9</ele>
        <time>2024-03-03T10:04:32Z</time>
      </trkpt>
      <trkpt lat="49.09894" lon="0.00925">
        <ele>14.9</ele>
        <time>2024-03-03T10:04:33Z</time>
      </trkpt>
      <trkpt lat="49.09899" lon="0.00916">
        <ele>14.8</ele>
        <time>2024-03-03T10:04:34Z</time>
      </trkpt>
      <trkpt lat="49.09904" lon="0.00906">
        <ele>14.8</ele>
        <time>2024-03-03T10:04:35Z</time>
      </trkpt>
      <trkpt lat="49.09909" lon="0.00897">
        <ele>14.8</ele>
        <time>2024-03-03T10:04:36Z</time>
      </trkpt>
      <trkpt lat="49.09914" lon="0.00889">
        <ele>14.7</ele>
        <time>2024-03-03T10:04:37Z</time>
      </trkpt>
      <trkpt lat="49.09919" lon="0.00879">
        <ele>14.7</ele>
        <time>2024-03-03T10:04:38Z</time>
      </trkpt>
      <trkpt lat="49.09924" lon="0.0087">
        <ele>14.6</ele>
        <time>2024-03-03T10:04:39Z</time>
      </trkpt>
      <trkpt lat="49.09929" lon="0.00861">
        <ele>14.6</ele>
        <time>2024-03-03T10:04:40Z</time>
      </trkpt>
      <trkpt lat="49.09934" lon="0.00852">
        <ele>14.5</ele>
        <time>2024-03-03T10:04:41Z</time>
      </trkpt>
      <trkpt lat="49.09939" lon="0.00843">
        <ele>14.5</ele>
        <time>2024-03-03T10:04:42Z</time>
      </trkpt>
      <trkpt lat="49.09944" lon="0.00834">
        <ele>14.4</ele>
        <time>2024-03-03T10:04:43Z</time>
      </trkpt>
      <trkpt lat="49.09949" lon="0.00824">
        <ele>14.3</ele>
        <time>2024-03-03T10:04:44Z</time>
      </trkpt>
      <trkpt lat="49.09955" lon="0.00815">
        <ele>14.3</ele>
        <time>2024-03-03T10:04:45Z</time>
      </trkpt>
      <trkpt lat="49.0996" lon="0.00805">
        <ele>14.2</ele>
        <time>2024-03-03T10:04:46Z</time>
      </trkpt>
      <trkpt lat="49.09965" lon="0.00796">
        <ele>14.1</ele>
        <time>2024-03-03T10:04:47Z</time>
      </trkpt>
      <trkpt lat="49.0997" lon="0.00787">
        <ele>14.1</ele>
        <time>2024-03-03T10:04:48Z</time>
      </trkpt>
      <trkpt lat="49.09975" lon="0.00778">
        <ele>14</ele>
        <time>2024-03-03T10:04:49Z</time>
      </trkpt>
      <trkpt lat="49.0998" lon="0.00769">
        <ele>14</ele>
        <time>2024-03-03T10:04:50Z</time>
      </trkpt>
      <trkpt lat="49.09985" lon="0.0076">
        <ele>14</ele>
        <time>2024-03-03T10:04:51Z</time>
      </trkpt>
      <trkpt lat="49.09989" lon="0.0075">
        <ele>13.9</ele>
        <time>2024-03-03T10:04:52Z</time>
      </trkpt>
      <trkpt lat="49.09994" lon="0.00741">
        <ele>13.9</ele>
        <time>2024-03-03T10:04:53Z</time>
      </trkpt>
      <trkpt lat="49.09999" lon="0.00732">
        <ele>13.9</ele>
        <time>2024-03-03T10:04:54Z</time>
      </trkpt>
      <trkpt lat="49.10004" lon="0.00724">
        <ele>13.8</ele>
        <time>2024-03-03T10:04:55Z</time>
      </trkpt>
      <trkpt lat="49.10009" lon="0.00715">
        <ele>13.8</ele>
        <time>2024-03-03T10:04:56Z</time>
      </trkpt>
      <trkpt lat="49.10014" lon="0.00705">
        <ele>13.8</ele>
        <time>2024-03-03T10:04:57Z</time>
      </trkpt>
      <trkpt lat="49.10019" lon="0.00696">
        <ele>13.7</ele>
        <time>2024-03-03T10:04:58Z</time>
      </trkpt>
      <trkpt lat="49.10024" lon="0.00686">
        <ele>13.7</ele>
        <time>2024-03-03T10:04:59Z</time>
      </trkpt>
      <trkpt lat="49.1003" lon="0.00677">
        <ele>13.7</ele>
        <time>2024-03-03T10:05:00Z</time>
      </trkpt>
      <trkpt lat="49.10035" lon="0.00668">
        <ele>13.6</ele>
        <time>2024-03-03T10:05:01Z</time>
      </trkpt>
      <trkpt lat="49.1004" lon="0.0066">
        <ele>13.6</ele>
        <time>2024-03-03T10:05:02Z</time>
      </trkpt>
      <trkpt lat="49.10045" lon="0.0065">
        <ele>13.6</ele>
        <time>2024-03-03T10:05:03Z</time>
      </trkpt>
      <trkpt lat="49.1005" lon="0.00641">
        <ele>13.5</ele>
        <time>2024-03-03T10:05:04Z</time>
      </trkpt>
      <trkpt lat="49.10055" lon="0.00632">
        <ele>13.5</ele>
        <time>2024-03-03T10:05:05Z</time>
      </trkpt>
      <trkpt lat="49.1006" lon="0.00623">
        <ele>13.4</ele>
        <time>2024-03-03T10:05:06Z</time>
      </trkpt>
      <trkpt lat="49.10065" lon="0.00614">
        <ele>13.4</ele>
        <time>2024-03-03T10:05:07Z</time>
      </trkpt>
      <trkpt lat="49.1007" lon="0.00605">
        <ele>13.4</ele>
        <time>2024-03-03T10:05:08Z</time>
      </trkpt>
      <trkpt lat="49.10075" lon="0.00595">
        <ele>13.4</ele>
        <time>2024-03-03T10:05:09Z</time>
      </trkpt>
      <trkpt lat="49.1008" lon="0.00586">
        <ele>13.4</ele>
        <time>2024-03-03T10:05:10Z</time>
      </trkpt>
      <trkpt lat="49.10085" lon="0.00577">
        <ele>13.3</ele>
        <time>2024-03-03T10:05:11Z</time>
      </trkpt>
      <trkpt lat="49.10089" lon="0.00568">
        <ele>13.3</ele>
        <time>2024-03-03T10:05:12Z</time>
      </trkpt>
      <trkpt lat="49.10094" lon="0.00559">
        <ele>13.2</ele>
        <time>2024-03-03T10:05:13Z</time>
      </trkpt>
      <trkpt lat="49.10099" lon="0.00549">
        <ele>13.2</ele>
        <time>2024-03-03T10:05:14Z</time>
      </trkpt>
      <trkpt lat="49.10104" lon="0.0054">
        <ele>13.1</ele>
        <time>2024-03-03T10:05:15Z</time>
      </trkpt>
      <trkpt lat="49.10109" lon="0.00531">
        <ele>13.1</ele>
        <time>2024-03-03T10:05:16Z</time>
      </trkpt>
      <trkpt lat="49.10114" lon="0.00522">
        <ele>13.1</ele>
        <time>2024-03-03T10:05:17Z</time>
      </trkpt>
      <trkpt lat="49.10118" lon="0.00513">
        <ele>13</ele>
        <time>2024-03-03T10:05:18Z</time>
      </trkpt>
      <trkpt lat="49.10123" lon="0.00504">
        <ele>13</ele>
        <time>2024-03-03T10:05:19Z</time>
      </trkpt>
      <trkpt lat="49.10128" lon="0.00495">
        <ele>13.1</ele>
        <time>2024-03-03T10:05:20Z</time>
      </trkpt>
      <trkpt lat="49.10133" lon="0.00487">
        <ele>13.1</ele>
        <time>2024-03-03T10:05:21Z</time>
      </trkpt>
      <trkpt lat="49.10137" lon="0.00479">
        <ele>13.1</ele>
        <time>2024-03-03T10:05:22Z</time>
      </trkpt>
      <trkpt lat="49.10142" lon="0.00471">
        <ele>13.1</ele>
        <time>2024-03-03T10:05:23Z</time>
      </trkpt>
      <trkpt lat="49.10147" lon="0.00463">
        <ele>13.1</ele>
        <time>2024-03-03T10:05:24Z</time>
      </trkpt>
      <trkpt lat="49.10151" lon="0.00454">
        <ele>13.1</ele>
        <time>2024-03-03T10:05:25Z</time>
      </trkpt>
      <trkpt lat="49.10156" lon="0.00446">
        <ele>13.2</ele>
        <time>2024-03-03T10:05:26Z</time>
      </trkpt>
      <trkpt lat="49.1016" lon="0.00437">
        <ele>13.2</ele>
        <time>2024-03-03T10:05:27Z</time>
      </trkpt>
      <trkpt lat="49.10165" lon="0.00429">
        <ele>13.2</ele>
        <time>2024-03-03T10:05:28Z</time>
      </trkpt>
      <trkpt lat="49.10169" lon="0.00421">
        <ele>13.2</ele>
        <time>2024-03-03T10:05:29Z</time>
      </trkpt>
      <trkpt lat="49.10174" lon="0.00413">
        <ele>13.3</ele>
        <time>2024-03-03T10:05:30Z</time>
      </trkpt>
      <trkpt lat="49.10178" lon="0.00404">
        <ele>13.3</ele>
        <time>2024-03-03T10:05:31Z</time>
      </trkpt>
      <trkpt lat="49.10182" lon="0.00396">
        <ele>13.4</ele>
        <time>2024-03-03T10:05:32Z</time>
      </trkpt>
      <trkpt lat="49.10186" lon="0.00389">
        <ele>13.5</ele>
        <time>2024-03-03T10:05:33Z</time>
      </trkpt>
      <trkpt lat="49.1019" lon="0.00382">
        <ele>13.6</ele>
        <time>2024-03-03T10:05:34Z</time>
      </trkpt>
      <trkpt lat="49.10194" lon="0.00375">
        <ele>13.7</ele>
        <time>2024-03-03T10:05:35Z</time>
      </trkpt>
      <trkpt lat="49.10197" lon="0.00369">
        <ele>13.9</ele>
        <time>2024-03-03T10:05:36Z</time>
      </trkpt>
      <trkpt lat="49.102" lon="0.00365">
        <ele>14</ele>
        <time>2024-03-03T10:05:37Z</time>
      </trkpt>
      <trkpt lat="49.10203" lon="0.00361">
        <ele>14.2</ele>
        <time>2024-03-03T10:05:38Z</time>
      </trkpt>
      <trkpt lat="49.10206" lon="0.00359">
        <ele>14.3</ele>
        <time>2024-03-03T10:05:39Z</time>
      </trkpt>
      <trkpt lat="49.1021" lon="0.00358">
        <ele>14.5</ele>
        <time>2024-03-03T10:05:40Z</time>
      </trkpt>
      <trkpt lat="49.10215" lon="0.00359">
        <ele>14.6</ele>
        <time>2024-03-03T10:05:41Z</time>
      </trkpt>
      <trkpt lat="49.1022" lon="0.00362">
        <ele>14.6</ele>
        <time>2024-03-03T10:05:42Z</time>
      </trkpt>
      <trkpt lat="49.10225" lon="0.00364">
        <ele>14.7</ele>
        <time>2024-03-03T10:05:43Z</time>
      </trkpt>
      <trkpt lat="49.10231" lon="0.00367">
        <ele>14.7</ele>
        <time>2024-03-03T10:05:44Z</time>
      </trkpt>
      <trkpt lat="49.10237" lon="0.0037">
        <ele>14.7</ele>
        <time>2024-03-03T10:05:45Z</time>
      </trkpt>
      <trkpt lat="49.10243" lon="0.00373">
        <ele>14.7</ele>
        <time>2024-03-03T10:05:46Z</time>
      </trkpt>
      <trkpt lat="49.1025" lon="0.00377">
        <ele>14.8</ele>
        <time>2024-03-03T10:05:47Z</time>
      </trkpt>
      <trkpt lat="49.10256" lon="0.0038">
        <ele>14.8</ele>
        <time>2024-03-03T10:05:48Z</time>
      </trkpt>
      <trkpt lat="49.10263" lon="0.00383">
        <ele>14.9</ele>
        <time>2024-03-03T10:05:49Z</time>
      </trkpt>
      <trkpt lat="49.1027" lon="0.00386">
        <ele>14.9</ele>
        <time>2024-03-03T10:05:50Z</time>
      </trkpt>
      <trkpt lat="49.10276" lon="0.00389">
        <ele>15</ele>
        <time>2024-03-03T10:05:51Z</time>
      </trkpt>
      <trkpt lat="49.10282" lon="0.00392">
        <ele>15</ele>
        <time>2024-03-03T10:05:52Z</time>
      </trkpt>
      <trkpt lat="49.10288" lon="0.00396">
        <ele>15.1</ele>
        <time>2024-03-03T10:05:53Z</time>
      </trkpt>
      <trkpt lat="49.10295" lon="0.00399">
        <ele>15.1</ele>
        <time>2024-03-03T10:05:54Z</time>
      </trkpt>
      <trkpt lat="49.10301" lon="0.00402">
        <ele>15.2</ele>
        <time>2024-03-03T10:05:55Z</time>
      </trkpt>
      <trkpt lat="49.10308" lon="0.00404">
        <ele>15.3</ele>
        <time>2024-03-03T10:05:56Z</time>
      </trkpt>
      <trkpt lat="49.10314" lon="0.00407">
        <ele>15.3</ele>
        <time>2024-03-03T10:05:57Z</time>
      </trkpt>
      <trkpt lat="49.1032" lon="0.00411">
        <ele>15.4</ele>
        <time>2024-03-03T10:05:58Z</time>
      </trkpt>
      <trkpt lat="49.10327" lon="0.00414">
        <ele>15.5</ele>
        <time>2024-03-03T10:05:59Z</time>
      </trkpt>
      <trkpt lat="49.10333" lon="0.00417">
        <ele>15.6</ele>
        <time>2024-03-03T10:06:00Z</time>
      </trkpt>
      <trkpt lat="49.1034" lon="0.0042">
        <ele>15.6</ele>
        <time>2024-03-03T10:06:01Z</time>
      </trkpt>
      <trkpt lat="49.10347" lon="0.00423">
        <ele>15.7</ele>
        <time>2024-03-03T10:06:02Z</time>
      </trkpt>
      <trkpt lat="49.10354" lon="0.00426">
        <ele>15.8</ele>
        <time>2024-03-03T10:06:03Z</time>
      </trkpt>
      <trkpt lat="49.1036" lon="0.00429">
        <ele>15.9</ele>
        <time>2024-03-03T10:06:04Z</time>
      </trkpt>
      <trkpt lat="49.10367" lon="0.00432">
        <ele>15.9</ele>
        <time>2024-03-03T10:06:05Z</time>
      </trkpt>
      <trkpt lat="49.10374" lon="0.00435">
        <ele>16</ele>
        <time>2024-03-03T10:06:06Z</time>
      </trkpt>
      <trkpt lat="49.10381" lon="0.00438">
        <ele>16.1</ele>
        <time>2024-03-03T10:06:07Z</time>
      </trkpt>
      <trkpt lat="49.10388" lon="0.00443">
        <ele>16.2</ele>
        <time>2024-03-03T10:06:08Z</time>
      </trkpt>
      <trkpt lat="49.10395" lon="0.00446">
        <ele>16.3</ele>
        <time>2024-03-03T10:06:09Z</time>
      </trkpt>
      <trkpt lat="49.10402" lon="0.00449">
        <ele>16.3</ele>
        <time>2024-03-03T10:06:10Z</time>
      </trkpt>
      <trkpt lat="49.10408" lon="0.00452">
        <ele>16.4</ele>
        <time>2024-03-03T10:06:11Z</time>
      </trkpt>
      <trkpt lat="49.10416" lon="0.00456">
        <ele>16.5</ele>
        <time>2024-03-03T10:06:12Z</time>
      </trkpt>
      <trkpt lat="49.10422" lon="0.00459">
        <ele>16.6</ele>
        <time>2024-03-03T10:06:13Z</time>
      </trkpt>
      <trkpt lat="49.10429" lon="0.00463">
        <ele>16.7</ele>
        <time>2024-03-03T10:06:14Z</time>
      </trkpt>
      <trkpt lat="49.10436" lon="0.00466">
        <ele>16.8</ele>
        <time>2024-03-03T10:06:15Z</time>
      </trkpt>
      <trkpt lat="49.10442" lon="0.0047">
        <ele>17</ele>
        <time>2024-03-03T10:06:16Z</time>
      </trkpt>
      <trkpt lat="49.10449" lon="0.00473">
        <ele>17.2</ele>
        <time>2024-03-03T10:06:17Z</time>
      </trkpt>
      <trkpt lat="49.10455" lon="0.00476">
        <ele>17.4</ele>
        <time>2024-03-03T10:06:18Z</time>
      </trkpt>
      <trkpt lat="49.10461" lon="0.00479">
        <ele>17.5</ele>
        <time>2024-03-03T10:06:19Z</time>
      </trkpt>
      <trkpt lat="49.10467" lon="0.00482">
        <ele>17.7</ele>
        <time>2024-03-03T10:06:20Z</time>
      </trkpt>
      <trkpt lat="49.10473" lon="0.00485">
        <ele>17.9</ele>
        <time>2024-03-03T10:06:21Z</time>
      </trkpt>
      <trkpt lat="49.10479" lon="0.00488">
        <ele>18.1</ele>
        <time>2024-03-03T10:06:22Z</time>
      </trkpt>
      <trkpt lat="49.10486" lon="0.0049">
        <ele>18.2</ele>
        <time>2024-03-03T10:06:23Z</time>
      </trkpt>
      <trkpt lat="49.10492" lon="0.00493">
        <ele>18.4</ele>
        <time>2024-03-03T10:06:24Z</time>
      </trkpt>
      <trkpt lat="49.10498" lon="0.00496">
        <ele>18.5</ele>
        <time>2024-03-03T10:06:25Z</time>
      </trkpt>
      <trkpt lat="49.10504" lon="0.00499">
        <ele>18.7</ele>
        <time>2024-03-03T10:06:26Z</time>
      </trkpt>
      <trkpt lat="49.1051" lon="0.00502">
        <ele>18.8</ele>
        <time>2024-03-03T10:06:27Z</time>
      </trkpt>
      <trkpt lat="49.10516" lon="0.00505">
        <ele>19</ele>
        <time>2024-03-03T10:06:28Z</time>
      </trkpt>
      <trkpt lat="49.10523" lon="0.00507">
        <ele>19.2</ele>
        <time>2024-03-03T10:06:29Z</time>
      </trkpt>
      <trkpt lat="49.10529" lon="0.0051">
        <ele>19.3</ele>
        <time>2024-03-03T10:06:30Z</time>
      </trkpt>
      <trkpt lat="49.10536" lon="0.00513">
        <ele>19.5</ele>
        <time>2024-03-03T10:06:31Z</time>
      </trkpt>
      <trkpt lat="49.10542" lon="0.00516">
        <ele>19.7</ele>
        <time>2024-03-03T10:06:32Z</time>
      </trkpt>
      <trkpt lat="49.10548" lon="0.00519">
        <ele>19.9</ele>
        <time>2024-03-03T10:06:33Z</time>
      </trkpt>
      <trkpt lat="49.10554" lon="0.00522">
        <ele>20.1</ele>
        <time>2024-03-03T10:06:34Z</time>
      </trkpt>
      <trkpt lat="49.10561" lon="0.00525">
        <ele>20.2</ele>
        <time>2024-03-03T10:06:35Z</time>
      </trkpt>
      <trkpt lat="49.10567" lon="0.00529">
        <ele>20.4</ele>
        <time>2024-03-03T10:06:36Z</time>
      </trkpt>
      <trkpt lat="49.10573" lon="0.00532">
        <ele>20.5</ele>
        <time>2024-03-03T10:06:37Z</time>
      </trkpt>
      <trkpt lat="49.1058" lon="0.00536">
        <ele>20.7</ele>
        <time>2024-03-03T10:06:38Z</time>
      </trkpt>
      <trkpt lat="49.10586" lon="0.00539">
        <ele>20.9</ele>
        <time>2024-03-03T10:06:39Z</time>
      </trkpt>
      <trkpt lat="49.10592" lon="0.00542">
        <ele>21</ele>
        <time>2024-03-03T10:06:40Z</time>
      </trkpt>
      <trkpt lat="49.10598" lon="0.00545">
        <ele>21.2</ele>
        <time>2024-03-03T10:06:41Z</time>
      </trkpt>
      <trkpt lat="49.10605" lon="0.00548">
        <ele>21.3</ele>
        <time>2024-03-03T10:06:42Z</time>
      </trkpt>
      <trkpt lat="49.10611" lon="0.00551">
        <ele>21.5</ele>
        <time>2024-03-03T10:06:43Z</time>
      </trkpt>
      <trkpt lat="49.10618" lon="0.00555">
        <ele>21.6</ele>
        <time>2024-03-03T10:06:44Z</time>
      </trkpt>
      <trkpt lat="49.10625" lon="0.00558">
        <ele>21.7</ele>
        <time>2024-03-03T10:06:45Z</time>
      </trkpt>
      <trkpt lat="49.10631" lon="0.00561">
        <ele>21.9</ele>
        <time>2024-03-03T10:06:46Z</time>
      </trkpt>
      <trkpt lat="49.10638" lon="0.00565">
        <ele>22</ele>
        <time>2024-03-03T10:06:47Z</time>
      </trkpt>
      <trkpt lat="49.10645" lon="0.00568">
        <ele>22</ele>
        <time>2024-03-03T10:06:48Z</time>
      </trkpt>
      <trkpt lat="49.10652" lon="0.00571">
        <ele>22.1</ele>
        <time>2024-03-03T10:06:49Z</time>
      </trkpt>
      <trkpt lat="49.10659" lon="0.00574">
        <ele>22.2</ele>
        <time>2024-03-03T10:06:50Z</time>
      </trkpt>
      <trkpt lat="49.10666" lon="0.00577">
        <ele>22.3</ele>
        <time>2024-03-03T10:06:51Z</time>
      </trkpt>
      <trkpt lat="49.10673" lon="0.0058">
        <ele>22.4</ele>
        <time>2024-03-03T10:06:52Z</time>
      </trkpt>
      <trkpt lat="49.10679" lon="0.00584">
        <ele>22.5</ele>
        <time>2024-03-03T10:06:53Z</time>
      </trkpt>
      <trkpt lat="49.10686" lon="0.00587">
        <ele>22.7</ele>
        <time>2024-03-03T10:06:54Z</time>
      </trkpt>
      <trkpt lat="49.10693" lon="0.0059">
        <ele>22.7</ele>
        <time>2024-03-03T10:06:55Z</time>
      </trkpt>
      <trkpt lat="49.107" lon="0.00593">
        <ele>22.8</ele>
        <time>2024-03-03T10:06:56Z</time>
      </trkpt>
      <trkpt lat="49.10706" lon="0.00596">
        <ele>22.9</ele>
        <time>2024-03-03T10:06:57Z</time>
      </trkpt>
      <trkpt lat="49.10713" lon="0.00599">
        <ele>23</ele>
        <time>2024-03-03T10:06:58Z</time>
      </trkpt>
      <trkpt lat="49.1072" lon="0.00603">
        <ele>23</ele>
        <time>2024-03-03T10:06:59Z</time>
      </trkpt>
      <trkpt lat="49.10727" lon="0.00606">
        <ele>23.1</ele>
        <time>2024-03-03T10:07:00Z</time>
      </trkpt>
      <trkpt lat="49.10734" lon="0.0061">
        <ele>23.2</ele>
        <time>2024-03-03T10:07:01Z</time>
      </trkpt>
      <trkpt lat="49.10741" lon="0.00613">
        <ele>23.3</ele>
        <time>2024-03-03T10:07:02Z</time>
      </trkpt>
      <trkpt lat="49.10747" lon="0.00616">
        <ele>23.3</ele>
        <time>2024-03-03T10:07:03Z</time>
      </trkpt>
      <trkpt lat="49.10754" lon="0.00619">
        <ele>23.3</ele>
        <time>2024-03-03T10:07:04Z</time>
      </trkpt>
      <trkpt lat="49.10761" lon="0.00622">
        <ele>23.3</ele>
        <time>2024-03-03T10:07:05Z</time>
      </trkpt>
      <trkpt lat="49.10768" lon="0.00625">
        <ele>23.3</ele>
        <time>2024-03-03T10:07:06Z</time>
      </trkpt>
      <trkpt lat="49.10775" lon="0.00628">
        <ele>23.3</ele>
        <time>2024-03-03T10:07:07Z</time>
      </trkpt>
      <trkpt lat="49.10782" lon="0.00632">
        <ele>23.3</ele>
        <time>2024-03-03T10:07:08Z</time>
      </trkpt>
      <trkpt lat="49.10789" lon="0.00635">
        <ele>23.2</ele>
        <time>2024-03-03T10:07:09Z</time>
      </trkpt>
      <trkpt lat="49.10795" lon="0.00638">
        <ele>23.2</ele>
        <time>2024-03-03T10:07:10Z</time>
      </trkpt>
      <trkpt lat="49.10802" lon="0.00641">
        <ele>23.2</ele>
        <time>2024-03-03T10:07:11Z</time>
      </trkpt>
      <trkpt lat="49.10809" lon="0.00644">
        <ele>23.1</ele>
        <time>2024-03-03T10:07:12Z</time>
      </trkpt>
      <trkpt lat="49.10815" lon="0.00646">
        <ele>23.1</ele>
        <time>2024-03-03T10:07:13Z</time>
      </trkpt>
      <trkpt lat="49.10822" lon="0.00648">
        <ele>23.1</ele>
        <time>2024-03-03T10:07:14Z</time>
      </trkpt>
      <trkpt lat="49.10828" lon="0.00651">
        <ele>23</ele>
        <time>2024-03-03T10:07:15Z</time>
      </trkpt>
      <trkpt lat="49.10835" lon="0.00654">
        <ele>23</ele>
        <time>2024-03-03T10:07:16Z</time>
      </trkpt>
      <trkpt lat="49.10841" lon="0.00657">
        <ele>23</ele>
        <time>2024-03-03T10:07:17Z</time>
      </trkpt>
      <trkpt lat="49.10848" lon="0.0066">
        <ele>22.9</ele>
        <time>2024-03-03T10:07:18Z</time>
      </trkpt>
      <trkpt lat="49.10854" lon="0.00663">
        <ele>22.9</ele>
        <time>2024-03-03T10:07:19Z</time>
      </trkpt>
      <trkpt lat="49.1086" lon="0.00666">
        <ele>22.9</ele>
        <time>2024-03-03T10:07:20Z</time>
      </trkpt>
      <trkpt lat="49.10866" lon="0.00669">
        <ele>22.8</ele>
        <time>2024-03-03T10:07:21Z</time>
      </trkpt>
      <trkpt lat="49.10871" lon="0.00672">
        <ele>22.8</ele>
        <time>2024-03-03T10:07:22Z</time>
      </trkpt>
      <trkpt lat="49.10877" lon="0.00674">
        <ele>22.8</ele>
        <time>2024-03-03T10:07:23Z</time>
      </trkpt>
      <trkpt lat="49.10883" lon="0.00677">
        <ele>22.8</ele>
        <time>2024-03-03T10:07:24Z</time>
      </trkpt>
      <trkpt lat="49.10888" lon="0.0068">
        <ele>22.7</ele>
        <time>2024-03-03T10:07:25Z</time>
      </trkpt>
      <trkpt lat="49.10893" lon="0.00682">
        <ele>22.7</ele>
        <time>2024-03-03T10:07:26Z</time>
      </trkpt>
      <trkpt lat="49.10898" lon="0.00685">
        <ele>22.7</ele>
        <time>2024-03-03T10:07:27Z</time>
      </trkpt>
      <trkpt lat="49.10903" lon="0.00687">
        <ele>22.7</ele>
        <time>2024-03-03T10:07:28Z</time>
      </trkpt>
      <trkpt lat="49.10909" lon="0.00687">
        <ele>22.7</ele>
        <time>2024-03-03T10:07:29Z</time>
      </trkpt>
      <trkpt lat="49.10914" lon="0.00684">
        <ele>22.7</ele>
        <time>2024-03-03T10:07:30Z</time>
      </trkpt>
      <trkpt lat="49.10918" lon="0.00677">
        <ele>22.1</ele>
        <time>2024-03-03T10:07:31Z</time>
      </trkpt>
      <trkpt lat="49.10922" lon="0.0067">
        <ele>21.6</ele>
        <time>2024-03-03T10:07:32Z</time>
      </trkpt>
      <trkpt lat="49.10926" lon="0.00661">
        <ele>21.1</ele>
        <time>2024-03-03T10:07:33Z</time>
      </trkpt>
      <trkpt lat="49.10929" lon="0.00652">
        <ele>20.7</ele>
        <time>2024-03-03T10:07:34Z</time>
      </trkpt>
      <trkpt lat="49.10933" lon="0.00643">
        <ele>20.3</ele>
        <time>2024-03-03T10:07:35Z</time>
      </trkpt>
      <trkpt lat="49.10936" lon="0.00633">
        <ele>20</ele>
        <time>2024-03-03T10:07:36Z</time>
      </trkpt>
      <trkpt lat="49.1094" lon="0.00624">
        <ele>19.7</ele>
        <time>2024-03-03T10:07:37Z</time>
      </trkpt>
      <trkpt lat="49.10943" lon="0.00615">
        <ele>19.5</ele>
        <time>2024-03-03T10:07:38Z</time>
      </trkpt>
      <trkpt lat="49.10947" lon="0.00605">
        <ele>19.2</ele>
        <time>2024-03-03T10:07:39Z</time>
      </trkpt>
      <trkpt lat="49.10951" lon="0.00595">
        <ele>19</ele>
        <time>2024-03-03T10:07:40Z</time>
      </trkpt>
      <trkpt lat="49.10955" lon="0.00586">
        <ele>18.8</ele>
        <time>2024-03-03T10:07:41Z</time>
      </trkpt>
      <trkpt lat="49.1096" lon="0.00577">
        <ele>18.6</ele>
        <time>2024-03-03T10:07:42Z</time>
      </trkpt>
      <trkpt lat="49.10964" lon="0.00568">
        <ele>18.4</ele>
        <time>2024-03-03T10:07:43Z</time>
      </trkpt>
      <trkpt lat="49.10968" lon="0.00558">
        <ele>18.2</ele>
        <time>2024-03-03T10:07:44Z</time>
      </trkpt>
      <trkpt lat="49.10972" lon="0.00549">
        <ele>18</ele>
        <time>2024-03-03T10:07:45Z</time>
      </trkpt>
      <trkpt lat="49.10977" lon="0.0054">
        <ele>17.7</ele>
        <time>2024-03-03T10:07:46Z</time>
      </trkpt>
      <trkpt lat="49.10981" lon="0.0053">
        <ele>17.5</ele>
        <time>2024-03-03T10:07:47Z</time>
      </trkpt>
      <trkpt lat="49.10986" lon="0.00521">
        <ele>17.3</ele>
        <time>2024-03-03T10:07:48Z</time>
      </trkpt>
      <trkpt lat="49.10991" lon="0.00512">
        <ele>17.1</ele>
        <time>2024-03-03T10:07:49Z</time>
      </trkpt>
      <trkpt lat="49.10995" lon="0.00503">
        <ele>16.9</ele>
        <time>2024-03-03T10:07:50Z</time>
      </trkpt>
      <trkpt lat="49.11" lon="0.00494">
        <ele>16.7</ele>
        <time>2024-03-03T10:07:51Z</time>
      </trkpt>
      <trkpt lat="49.11005" lon="0.00485">
        <ele>16.6</ele>
        <time>2024-03-03T10:07:52Z</time>
      </trkpt>
      <trkpt lat="49.1101" lon="0.00476">
        <ele>16.4</ele>
        <time>2024-03-03T10:07:53Z</time>
      </trkpt>
      <trkpt lat="49.11014" lon="0.00467">
        <ele>16.3</ele>
        <time>2024-03-03T10:07:54Z</time>
      </trkpt>
      <trkpt lat="49.11019" lon="0.00459">
        <ele>16.2</ele>
        <time>2024-03-03T10:07:55Z</time>
      </trkpt>
      <trkpt lat="49.11024" lon="0.0045">
        <ele>16</ele>
        <time>2024-03-03T10:07:56Z</time>
      </trkpt>
      <trkpt lat="49.11029" lon="0.00441">
        <ele>15.9</ele>
        <time>2024-03-03T10:07:57Z</time>
      </trkpt>
      <trkpt lat="49.11034" lon="0.00433">
        <ele>15.7</ele>
        <time>2024-03-03T10:07:58Z</time>
      </trkpt>
      <trkpt lat="49.11039" lon="0.00424">
        <ele>15.6</ele>
        <time>2024-03-03T10:07:59Z</time>
      </trkpt>
      <trkpt lat="49.11044" lon="0.00415">
        <ele>15.4</ele>
        <time>2024-03-03T10:08:00Z</time>
      </trkpt>
      <trkpt lat="49.11049" lon="0.00407">
        <ele>15.2</ele>
        <time>2024-03-03T10:08:01Z</time>
      </trkpt>
      <trkpt lat="49.11055" lon="0.00398">
        <ele>15</ele>
        <time>2024-03-03T10:08:02Z</time>
      </trkpt>
      <trkpt lat="49.11059" lon="0.00389">
        <ele>14.9</ele>
        <time>2024-03-03T10:08:03Z</time>
      </trkpt>
      <trkpt lat="49.11064" lon="0.00381">
        <ele>14.7</ele>
        <time>2024-03-03T10:08:04Z</time>
      </trkpt>
      <trkpt lat="49.11069" lon="0.00373">
        <ele>14.5</ele>
        <time>2024-03-03T10:08:05Z</time>
      </trkpt>
      <trkpt lat="49.11073" lon="0.00365">
        <ele>14.4</ele>
        <time>2024-03-03T10:08:06Z</time>
      </trkpt>
      <trkpt lat="49.11076" lon="0.00359">
        <ele>14.3</ele>
        <time>2024-03-03T10:08:07Z</time>
      </trkpt>
      <trkpt lat="49.11079" lon="0.00353">
        <ele>14.2</ele>
        <time>2024-03-03T10:08:08Z</time>
      </trkpt>
      <trkpt lat="49.11081" lon="0.00347">
        <ele>14.2</ele>
        <time>2024-03-03T10:08:09Z</time>
      </trkpt>
      <trkpt lat="49.11083" lon="0.00339">
        <ele>14.1</ele>
        <time>2024-03-03T10:08:10Z</time>
      </trkpt>
      <trkpt lat="49.11083" lon="0.00331">
        <ele>13.9</ele>
        <time>2024-03-03T10:08:11Z</time>
      </trkpt>
      <trkpt lat="49.11083" lon="0.00323">
        <ele>13.8</ele>
        <time>2024-03-03T10:08:12Z</time>
      </trkpt>
      <trkpt lat="49.11083" lon="0.00314">
        <ele>13.7</ele>
        <time>2024-03-03T10:08:13Z</time>
      </trkpt>
      <trkpt lat="49.11083" lon="0.00306">
        <ele>13.5</ele>
        <time>2024-03-03T10:08:14Z</time>
      </trkpt>
      <trkpt lat="49.11083" lon="0.00296">
        <ele>13.4</ele>
        <time>2024-03-03T10:08:15Z</time>
      </trkpt>
      <trkpt lat="49.11083" lon="0.00285">
        <ele>13.2</ele>
        <time>2024-03-03T10:08:16Z</time>
      </trkpt>
      <trkpt lat="49.11083" lon="0.00274">
        <ele>13.1</ele>
        <time>2024-03-03T10:08:17Z</time>
      </trkpt>
      <trkpt lat="49.11083" lon="0.00263">
        <ele>13</ele>
        <time>2024-03-03T10:08:18Z</time>
      </trkpt>
      <trkpt lat="49.11082" lon="0.00251">
        <ele>12.8</ele>
        <time>2024-03-03T10:08:19Z</time>
      </trkpt>
      <trkpt lat="49.11082" lon="0.00239">
        <ele>12.7</ele>
        <time>2024-03-03T10:08:20Z</time>
      </trkpt>
      <trkpt lat="49.11083" lon="0.00227">
        <ele>12.5</ele>
        <time>2024-03-03T10:08:21Z</time>
      </trkpt>
      <trkpt lat="49.11083" lon="0.00214">
        <ele>12.4</ele>
        <time>2024-03-03T10:08:22Z</time>
      </trkpt>
      <trkpt lat="49.11083" lon="0.00201">
        <ele>12.3</ele>
        <time>2024-03-03T10:08:23Z</time>
      </trkpt>
      <trkpt lat="49.11083" lon="0.00188">
        <ele>12.2</ele>
        <time>2024-03-03T10:08:24Z</time>
      </trkpt>
      <trkpt lat="49.11083" lon="0.00175">
        <ele>12.1</ele>
        <time>2024-03-03T10:08:25Z</time>
      </trkpt>
      <trkpt lat="49.11083" lon="0.00162">
        <ele>12</ele>
        <time>2024-03-03T10:08:26Z</time>
      </trkpt>
      <trkpt lat="49.11083" lon="0.00149">
        <ele>12</ele>
        <time>2024-03-03T10:08:27Z</time>
      </trkpt>
      <trkpt lat="49.11084" lon="0.00137">
        <ele>12</ele>
        <time>2024-03-03T10:08:28Z</time>
      </trkpt>
      <trkpt lat="49.11085" lon="0.00125">
        <ele>12</ele>
        <time>2024-03-03T10:08:29Z</time>
      </trkpt>
      <trkpt lat="49.11085" lon="0.00113">
        <ele>11.9</ele>
        <time>2024-03-03T10:08:30Z</time>
      </trkpt>
      <trkpt lat="49.11086" lon="0.00101">
        <ele>11.9</ele>
        <time>2024-03-03T10:08:31Z</time>
      </trkpt>
      <trkpt lat="49.11086" lon="0.00089">
        <ele>11.9</ele>
        <time>2024-03-03T10:08:32Z</time>
      </trkpt>
      <trkpt lat="49.11087" lon="0.00077">
        <ele>12</ele>
        <time>2024-03-03T10:08:33Z</time>
      </trkpt>
      <trkpt lat="49.11088" lon="0.00064">
        <ele>12</ele>
        <time>2024-03-03T10:08:34Z</time>
      </trkpt>
      <trkpt lat="49.11089" lon="0.00053">
        <ele>12</ele>
        <time>2024-03-03T10:08:35Z</time>
      </trkpt>
      <trkpt lat="49.11089" lon="0.00041">
        <ele>11.9</ele>
        <time>2024-03-03T10:08:36Z</time>
      </trkpt>
      <trkpt lat="49.1109" lon="0.0003">
        <ele>11.9</ele>
        <time>2024-03-03T10:08:37Z</time>
      </trkpt>
      <trkpt lat="49.1109" lon="0.00019">
        <ele>11.9</ele>
        <time>2024-03-03T10:08:38Z</time>
      </trkpt>
      <trkpt lat="49.11091" lon="7.0E-5">
        <ele>11.9</ele>
        <time>2024-03-03T10:08:39Z</time>
      </trkpt>
      <trkpt lat="49.11092" lon="-4.0E-5">
        <ele>11.9</ele>
        <time>2024-03-03T10:08:40Z</time>
      </trkpt>
      <trkpt lat="49.11092" lon="-0.00016">
        <ele>11.9</ele>
        <time>2024-03-03T10:08:41Z</time>
      </trkpt>
      <trkpt lat="49.11092" lon="-0.00027">
        <ele>11.8</ele>
        <time>2024-03-03T10:08:42Z</time>
      </trkpt>
      <trkpt lat="49.11093" lon="-0.00039">
        <ele>11.8</ele>
        <time>2024-03-03T10:08:43Z</time>
      </trkpt>
      <trkpt lat="49.11093" lon="-0.0005">
        <ele>11.8</ele>
        <time>2024-03-03T10:08:44Z</time>
      </trkpt>
      <trkpt lat="49.11093" lon="-0.00062">
        <ele>11.8</ele>
        <time>2024-03-03T10:08:45Z</time>
      </trkpt>
      <trkpt lat="49.11092" lon="-0.00074">
        <ele>11.9</ele>
        <time>2024-03-03T10:08:46Z</time>
      </trkpt>
      <trkpt lat="49.11092" lon="-0.00085">
        <ele>11.9</ele>
        <time>2024-03-03T10:08:47Z</time>
      </trkpt>
      <trkpt lat="49.11092" lon="-0.00096">
        <ele>12</ele>
        <time>2024-03-03T10:08:48Z</time>
      </trkpt>
      <trkpt lat="49.11092" lon="-0.00107">
        <ele>12.1</ele>
        <time>2024-03-03T10:08:49Z</time>
      </trkpt>
      <trkpt lat="49.11092" lon="-0.00119">
        <ele>12.3</ele>
        <time>2024-03-03T10:08:50Z</time>
      </trkpt>
      <trkpt lat="49.11091" lon="-0.00131">
        <ele>12.4</ele>
        <time>2024-03-03T10:08:51Z</time>
      </trkpt>
      <trkpt lat="49.11091" lon="-0.00141">
        <ele>12.5</ele>
        <time>2024-03-03T10:08:52Z</time>
      </trkpt>
      <trkpt lat="49.11091" lon="-0.00152">
        <ele>12.6</ele>
        <time>2024-03-03T10:08:53Z</time>
      </trkpt>
      <trkpt lat="49.1109" lon="-0.00163">
        <ele>12.8</ele>
        <time>2024-03-03T10:08:54Z</time>
      </trkpt>
      <trkpt lat="49.1109" lon="-0.00174">
        <ele>12.9</ele>
        <time>2024-03-03T10:08:55Z</time>
      </trkpt>
      <trkpt lat="49.1109" lon="-0.00185">
        <ele>12.9</ele>
        <time>2024-03-03T10:08:56Z</time>
      </trkpt>
      <trkpt lat="49.1109" lon="-0.00195">
        <ele>12.9</ele>
        <time>2024-03-03T10:08:57Z</time>
      </trkpt>
      <trkpt lat="49.11089" lon="-0.00206">
        <ele>12.9</ele>
        <time>2024-03-03T10:08:58Z</time>
      </trkpt>
      <trkpt lat="49.11089" lon="-0.00217">
        <ele>12.9</ele>
        <time>2024-03-03T10:08:59Z</time>
      </trkpt>
      <trkpt lat="49.11089" lon="-0.00228">
        <ele>12.9</ele>
        <time>2024-03-03T10:09:00Z</time>
      </trkpt>
      <trkpt lat="49.11089" lon="-0.0024">
        <ele>12.9</ele>
        <time>2024-03-03T10:09:01Z</time>
      </trkpt>
      <trkpt lat="49.11089" lon="-0.0025">
        <ele>12.9</ele>
        <time>2024-03-03T10:09:02Z</time>
      </trkpt>
      <trkpt lat="49.11088" lon="-0.00261">
        <ele>12.9</ele>
        <time>2024-03-03T10:09:03Z</time>
      </trkpt>
      <trkpt lat="49.11087" lon="-0.00271">
        <ele>12.8</ele>
        <time>2024-03-03T10:09:04Z</time>
      </trkpt>
      <trkpt lat="49.11087" lon="-0.00281">
        <ele>12.8</ele>
        <time>2024-03-03T10:09:05Z</time>
      </trkpt>
      <trkpt lat="49.11087" lon="-0.00291">
        <ele>12.8</ele>
        <time>2024-03-03T10:09:06Z</time>
      </trkpt>
      <trkpt lat="49.11086" lon="-0.00301">
        <ele>12.7</ele>
        <time>2024-03-03T10:09:07Z</time>
      </trkpt>
      <trkpt lat="49.11086" lon="-0.0031">
        <ele>12.7</ele>
        <time>2024-03-03T10:09:08Z</time>
      </trkpt>
      <trkpt lat="49.11086" lon="-0.00319">
        <ele>12.7</ele>
        <time>2024-03-03T10:09:09Z</time>
      </trkpt>
      <trkpt lat="49.11085" lon="-0.00328">
        <ele>12.7</ele>
        <time>2024-03-03T10:09:10Z</time>
      </trkpt>
      <trkpt lat="49.11085" lon="-0.00336">
        <ele>12.7</ele>
        <time>2024-03-03T10:09:11Z</time>
      </trkpt>
      <trkpt lat="49.11085" lon="-0.00343">
        <ele>12.6</ele>
        <time>2024-03-03T10:09:12Z</time>
      </trkpt>
      <trkpt lat="49.11086" lon="-0.00349">
        <ele>12.6</ele>
        <time>2024-03-03T10:09:13Z</time>
      </trkpt>
      <trkpt lat="49.11088" lon="-0.00352">
        <ele>12.3</ele>
        <time>2024-03-03T10:09:14Z</time>
      </trkpt>
      <trkpt lat="49.11093" lon="-0.00355">
        <ele>12</ele>
        <time>2024-03-03T10:09:15Z</time>
      </trkpt>
      <trkpt lat="49.11098" lon="-0.00355">
        <ele>11.6</ele>
        <time>2024-03-03T10:09:16Z</time>
      </trkpt>
      <trkpt lat="49.11105" lon="-0.00354">
        <ele>11.2</ele>
        <time>2024-03-03T10:09:17Z</time>
      </trkpt>
      <trkpt lat="49.11112" lon="-0.00353">
        <ele>10.8</ele>
        <time>2024-03-03T10:09:18Z</time>
      </trkpt>
      <trkpt lat="49.11119" lon="-0.00352">
        <ele>10.5</ele>
        <time>2024-03-03T10:09:19Z</time>
      </trkpt>
      <trkpt lat="49.11126" lon="-0.00352">
        <ele>10.3</ele>
        <time>2024-03-03T10:09:20Z</time>
      </trkpt>
      <trkpt lat="49.11134" lon="-0.00351">
        <ele>10.3</ele>
        <time>2024-03-03T10:09:21Z</time>
      </trkpt>
      <trkpt lat="49.11141" lon="-0.0035">
        <ele>10.2</ele>
        <time>2024-03-03T10:09:22Z</time>
      </trkpt>
      <trkpt lat="49.11149" lon="-0.0035">
        <ele>10.2</ele>
        <time>2024-03-03T10:09:23Z</time>
      </trkpt>
      <trkpt lat="49.11156" lon="-0.0035">
        <ele>10.2</ele>
        <time>2024-03-03T10:09:24Z</time>
      </trkpt>
      <trkpt lat="49.11164" lon="-0.00349">
        <ele>10.2</ele>
        <time>2024-03-03T10:09:25Z</time>
      </trkpt>
      <trkpt lat="49.11171" lon="-0.00349">
        <ele>10.2</ele>
        <time>2024-03-03T10:09:26Z</time>
      </trkpt>
      <trkpt lat="49.11179" lon="-0.0035">
        <ele>10.2</ele>
        <time>2024-03-03T10:09:27Z</time>
      </trkpt>
      <trkpt lat="49.11186" lon="-0.00351">
        <ele>10.2</ele>
        <time>2024-03-03T10:09:28Z</time>
      </trkpt>
      <trkpt lat="49.11193" lon="-0.00352">
        <ele>10.2</ele>
        <time>2024-03-03T10:09:29Z</time>
      </trkpt>
      <trkpt lat="49.11201" lon="-0.00355">
        <ele>10.2</ele>
        <time>2024-03-03T10:09:30Z</time>
      </trkpt>
      <trkpt lat="49.11208" lon="-0.00358">
        <ele>10.2</ele>
        <time>2024-03-03T10:09:31Z</time>
      </trkpt>
      <trkpt lat="49.11216" lon="-0.00361">
        <ele>10.2</ele>
        <time>2024-03-03T10:09:32Z</time>
      </trkpt>
      <trkpt lat="49.11223" lon="-0.00363">
        <ele>10.2</ele>
        <time>2024-03-03T10:09:33Z</time>
      </trkpt>
      <trkpt lat="49.1123" lon="-0.00365">
        <ele>10.2</ele>
        <time>2024-03-03T10:09:34Z</time>
      </trkpt>
      <trkpt lat="49.11238" lon="-0.00368">
        <ele>10.2</ele>
        <time>2024-03-03T10:09:35Z</time>
      </trkpt>
      <trkpt lat="49.11245" lon="-0.0037">
        <ele>10.2</ele>
        <time>2024-03-03T10:09:36Z</time>
      </trkpt>
      <trkpt lat="49.11253" lon="-0.00371">
        <ele>10.2</ele>
        <time>2024-03-03T10:09:37Z</time>
      </trkpt>
      <trkpt lat="49.11261" lon="-0.00372">
        <ele>10.2</ele>
        <time>2024-03-03T10:09:38Z</time>
      </trkpt>
      <trkpt lat="49.11268" lon="-0.00373">
        <ele>10.2</ele>
        <time>2024-03-03T10:09:39Z</time>
      </trkpt>
      <trkpt lat="49.11276" lon="-0.00373">
        <ele>10.2</ele>
        <time>2024-03-03T10:09:40Z</time>
      </trkpt>
      <trkpt lat="49.11283" lon="-0.00373">
        <ele>10.2</ele>
        <time>2024-03-03T10:09:41Z</time>
      </trkpt>
      <trkpt lat="49.11291" lon="-0.00373">
        <ele>10.2</ele>
        <time>2024-03-03T10:09:42Z</time>
      </trkpt>
      <trkpt lat="49.11298" lon="-0.00373">
        <ele>10.2</ele>
        <time>2024-03-03T10:09:43Z</time>
      </trkpt>
      <trkpt lat="49.11306" lon="-0.00373">
        <ele>10.2</ele>
        <time>2024-03-03T10:09:44Z</time>
      </trkpt>
      <trkpt lat="49.11313" lon="-0.00373">
        <ele>10.2</ele>
        <time>2024-03-03T10:09:45Z</time>
      </trkpt>
      <trkpt lat="49.11321" lon="-0.00374">
        <ele>10.2</ele>
        <time>2024-03-03T10:09:46Z</time>
      </trkpt>
      <trkpt lat="49.11328" lon="-0.00374">
        <ele>10.3</ele>
        <time>2024-03-03T10:09:47Z</time>
      </trkpt>
      <trkpt lat="49.11335" lon="-0.00374">
        <ele>10.3</ele>
        <time>2024-03-03T10:09:48Z</time>
      </trkpt>
      <trkpt lat="49.11342" lon="-0.00374">
        <ele>10.3</ele>
        <time>2024-03-03T10:09:49Z</time>
      </trkpt>
      <trkpt lat="49.11349" lon="-0.00374">
        <ele>10.4</ele>
        <time>2024-03-03T10:09:50Z</time>
      </trkpt>
      <trkpt lat="49.11356" lon="-0.00374">
        <ele>10.4</ele>
        <time>2024-03-03T10:09:51Z</time>
      </trkpt>
      <trkpt lat="49.11363" lon="-0.00374">
        <ele>10.5</ele>
        <time>2024-03-03T10:09:52Z</time>
      </trkpt>
      <trkpt lat="49.1137" lon="-0.00373">
        <ele>10.5</ele>
        <time>2024-03-03T10:09:53Z</time>
      </trkpt>
      <trkpt lat="49.11378" lon="-0.00374">
        <ele>10.5</ele>
        <time>2024-03-03T10:09:54Z</time>
      </trkpt>
      <trkpt lat="49.11385" lon="-0.00374">
        <ele>10.6</ele>
        <time>2024-03-03T10:09:55Z</time>
      </trkpt>
      <trkpt lat="49.11392" lon="-0.00374">
        <ele>10.5</ele>
        <time>2024-03-03T10:09:56Z</time>
      </trkpt>
      <trkpt lat="49.11399" lon="-0.00374">
        <ele>10.5</ele>
        <time>2024-03-03T10:09:57Z</time>
      </trkpt>
      <trkpt lat="49.11406" lon="-0.00374">
        <ele>10.5</ele>
        <time>2024-03-03T10:09:58Z</time>
      </trkpt>
      <trkpt lat="49.11413" lon="-0.00374">
        <ele>10.5</ele>
        <time>2024-03-03T10:09:59Z</time>
      </trkpt>
      <trkpt lat="49.11421" lon="-0.00374">
        <ele>10.4</ele>
        <time>2024-03-03T10:10:00Z</time>
      </trkpt>
      <trkpt lat="49.11428" lon="-0.00374">
        <ele>10.4</ele>
        <time>2024-03-03T10:10:01Z</time>
      </trkpt>
      <trkpt lat="49.11435" lon="-0.00374">
        <ele>10.4</ele>
        <time>2024-03-03T10:10:02Z</time>
      </trkpt>
      <trkpt lat="49.11443" lon="-0.00374">
        <ele>10.4</ele>
        <time>2024-03-03T10:10:03Z</time>
      </trkpt>
      <trkpt lat="49.1145" lon="-0.00374">
        <ele>10.4</ele>
        <time>2024-03-03T10:10:04Z</time>
      </trkpt>
      <trkpt lat="49.11457" lon="-0.00374">
        <ele>10.4</ele>
        <time>2024-03-03T10:10:05Z</time>
      </trkpt>
      <trkpt lat="49.11465" lon="-0.00374">
        <ele>10.4</ele>
        <time>2024-03-03T10:10:06Z</time>
      </trkpt>
      <trkpt lat="49.11472" lon="-0.00374">
        <ele>10.4</ele>
        <time>2024-03-03T10:10:07Z</time>
      </trkpt>
      <trkpt lat="49.11479" lon="-0.00374">
        <ele>10.4</ele>
        <time>2024-03-03T10:10:08Z</time>
      </trkpt>
      <trkpt lat="49.11487" lon="-0.00375">
        <ele>10.4</ele>
        <time>2024-03-03T10:10:09Z</time>
      </trkpt>
      <trkpt lat="49.11494" lon="-0.00375">
        <ele>10.4</ele>
        <time>2024-03-03T10:10:10Z</time>
      </trkpt>
      <trkpt lat="49.11501" lon="-0.00375">
        <ele>10.4</ele>
        <time>2024-03-03T10:10:11Z</time>
      </trkpt>
      <trkpt lat="49.11508" lon="-0.00375">
        <ele>10.3</ele>
        <time>2024-03-03T10:10:12Z</time>
      </trkpt>
      <trkpt lat="49.11514" lon="-0.00375">
        <ele>10.3</ele>
        <time>2024-03-03T10:10:13Z</time>
      </trkpt>
      <trkpt lat="49.11521" lon="-0.00374">
        <ele>10.3</ele>
        <time>2024-03-03T10:10:14Z</time>
      </trkpt>
      <trkpt lat="49.11528" lon="-0.00374">
        <ele>10.3</ele>
        <time>2024-03-03T10:10:15Z</time>
      </trkpt>
      <trkpt lat="49.11535" lon="-0.00374">
        <ele>10.2</ele>
        <time>2024-03-03T10:10:16Z</time>
      </trkpt>
      <trkpt lat="49.11542" lon="-0.00374">
        <ele>10.2</ele>
        <time>2024-03-03T10:10:17Z</time>
      </trkpt>
      <trkpt lat="49.11549" lon="-0.00374">
        <ele>10.2</ele>
        <time>2024-03-03T10:10:18Z</time>
      </trkpt>
      <trkpt lat="49.11556" lon="-0.00374">
        <ele>10.2</ele>
        <time>2024-03-03T10:10:19Z</time>
      </trkpt>
      <trkpt lat="49.11563" lon="-0.00374">
        <ele>10.2</ele>
        <time>2024-03-03T10:10:20Z</time>
      </trkpt>
      <trkpt lat="49.1157" lon="-0.00373">
        <ele>10.2</ele>
        <time>2024-03-03T10:10:21Z</time>
      </trkpt>
      <trkpt lat="49.11578" lon="-0.00371">
        <ele>10.1</ele>
        <time>2024-03-03T10:10:22Z</time>
      </trkpt>
      <trkpt lat="49.11585" lon="-0.0037">
        <ele>10.1</ele>
        <time>2024-03-03T10:10:23Z</time>
      </trkpt>
      <trkpt lat="49.11593" lon="-0.00368">
        <ele>10.1</ele>
        <time>2024-03-03T10:10:24Z</time>
      </trkpt>
      <trkpt lat="49.116" lon="-0.00368">
        <ele>10.1</ele>
        <time>2024-03-03T10:10:25Z</time>
      </trkpt>
      <trkpt lat="49.11607" lon="-0.00367">
        <ele>10.2</ele>
        <time>2024-03-03T10:10:26Z</time>
      </trkpt>
      <trkpt lat="49.11614" lon="-0.00368">
        <ele>10.2</ele>
        <time>2024-03-03T10:10:27Z</time>
      </trkpt>
      <trkpt lat="49.11621" lon="-0.0037">
        <ele>10.2</ele>
        <time>2024-03-03T10:10:28Z</time>
      </trkpt>
      <trkpt lat="49.11628" lon="-0.00371">
        <ele>10.2</ele>
        <time>2024-03-03T10:10:29Z</time>
      </trkpt>
      <trkpt lat="49.11635" lon="-0.00372">
        <ele>10.2</ele>
        <time>2024-03-03T10:10:30Z</time>
      </trkpt>
      <trkpt lat="49.11642" lon="-0.00373">
        <ele>10.2</ele>
        <time>2024-03-03T10:10:31Z</time>
      </trkpt>
      <trkpt lat="49.11649" lon="-0.00374">
        <ele>10.3</ele>
        <time>2024-03-03T10:10:32Z</time>
      </trkpt>
      <trkpt lat="49.11655" lon="-0.00374">
        <ele>10.3</ele>
        <time>2024-03-03T10:10:33Z</time>
      </trkpt>
      <trkpt lat="49.11661" lon="-0.00374">
        <ele>10.3</ele>
        <time>2024-03-03T10:10:34Z</time>
      </trkpt>
      <trkpt lat="49.11667" lon="-0.00375">
        <ele>10.3</ele>
        <time>2024-03-03T10:10:35Z</time>
      </trkpt>
      <trkpt lat="49.11673" lon="-0.00375">
        <ele>10.3</ele>
        <time>2024-03-03T10:10:36Z</time>
      </trkpt>
      <trkpt lat="49.1168" lon="-0.00375">
        <ele>10.3</ele>
        <time>2024-03-03T10:10:37Z</time>
      </trkpt>
      <trkpt lat="49.11687" lon="-0.00376">
        <ele>10.3</ele>
        <time>2024-03-03T10:10:38Z</time>
      </trkpt>
      <trkpt lat="49.11694" lon="-0.00377">
        <ele>10.3</ele>
        <time>2024-03-03T10:10:39Z</time>
      </trkpt>
      <trkpt lat="49.117" lon="-0.00378">
        <ele>10.2</ele>
        <time>2024-03-03T10:10:40Z</time>
      </trkpt>
      <trkpt lat="49.11707" lon="-0.00379">
        <ele>10.2</ele>
        <time>2024-03-03T10:10:41Z</time>
      </trkpt>
      <trkpt lat="49.11713" lon="-0.00379">
        <ele>10.2</ele>
        <time>2024-03-03T10:10:42Z</time>
      </trkpt>
      <trkpt lat="49.11719" lon="-0.0038">
        <ele>10.1</ele>
        <time>2024-03-03T10:10:43Z</time>
      </trkpt>
      <trkpt lat="49.11726" lon="-0.00381">
        <ele>10.1</ele>
        <time>2024-03-03T10:10:44Z</time>
      </trkpt>
      <trkpt lat="49.11732" lon="-0.00382">
        <ele>10</ele>
        <time>2024-03-03T10:10:45Z</time>
      </trkpt>
      <trkpt lat="49.11739" lon="-0.00384">
        <ele>10</ele>
        <time>2024-03-03T10:10:46Z</time>
      </trkpt>
      <trkpt lat="49.11746" lon="-0.00385">
        <ele>10</ele>
        <time>2024-03-03T10:10:47Z</time>
      </trkpt>
      <trkpt lat="49.11753" lon="-0.00386">
        <ele>9.9</ele>
        <time>2024-03-03T10:10:48Z</time>
      </trkpt>
      <trkpt lat="49.1176" lon="-0.00387">
        <ele>9.9</ele>
        <time>2024-03-03T10:10:49Z</time>
      </trkpt>
      <trkpt lat="49.11767" lon="-0.00389">
        <ele>9.9</ele>
        <time>2024-03-03T10:10:50Z</time>
      </trkpt>
      <trkpt lat="49.11774" lon="-0.0039">
        <ele>9.9</ele>
        <time>2024-03-03T10:10:51Z</time>
      </trkpt>
      <trkpt lat="49.11782" lon="-0.00391">
        <ele>9.8</ele>
        <time>2024-03-03T10:10:52Z</time>
      </trkpt>
      <trkpt lat="49.11788" lon="-0.00392">
        <ele>9.8</ele>
        <time>2024-03-03T10:10:53Z</time>
      </trkpt>
      <trkpt lat="49.11795" lon="-0.00392">
        <ele>9.8</ele>
        <time>2024-03-03T10:10:54Z</time>
      </trkpt>
      <trkpt lat="49.11802" lon="-0.00391">
        <ele>9.8</ele>
        <time>2024-03-03T10:10:55Z</time>
      </trkpt>
      <trkpt lat="49.11809" lon="-0.00391">
        <ele>9.8</ele>
        <time>2024-03-03T10:10:56Z</time>
      </trkpt>
      <trkpt lat="49.11816" lon="-0.00391">
        <ele>9.8</ele>
        <time>2024-03-03T10:10:57Z</time>
      </trkpt>
      <trkpt lat="49.11823" lon="-0.00392">
        <ele>9.8</ele>
        <time>2024-03-03T10:10:58Z</time>
      </trkpt>
      <trkpt lat="49.1183" lon="-0.00394">
        <ele>9.8</ele>
        <time>2024-03-03T10:10:59Z</time>
      </trkpt>
      <trkpt lat="49.11837" lon="-0.00396">
        <ele>9.8</ele>
        <time>2024-03-03T10:11:00Z</time>
      </trkpt>
      <trkpt lat="49.11844" lon="-0.00399">
        <ele>9.8</ele>
        <time>2024-03-03T10:11:01Z</time>
      </trkpt>
      <trkpt lat="49.11851" lon="-0.00402">
        <ele>9.8</ele>
        <time>2024-03-03T10:11:02Z</time>
      </trkpt>
      <trkpt lat="49.11857" lon="-0.00405">
        <ele>9.8</ele>
        <time>2024-03-03T10:11:03Z</time>
      </trkpt>
      <trkpt lat="49.11864" lon="-0.00408">
        <ele>9.9</ele>
        <time>2024-03-03T10:11:04Z</time>
      </trkpt>
      <trkpt lat="49.11871" lon="-0.00411">
        <ele>9.9</ele>
        <time>2024-03-03T10:11:05Z</time>
      </trkpt>
      <trkpt lat="49.11877" lon="-0.00414">
        <ele>9.8</ele>
        <time>2024-03-03T10:11:06Z</time>
      </trkpt>
      <trkpt lat="49.11884" lon="-0.00417">
        <ele>9.8</ele>
        <time>2024-03-03T10:11:07Z</time>
      </trkpt>
      <trkpt lat="49.11891" lon="-0.0042">
        <ele>9.8</ele>
        <time>2024-03-03T10:11:08Z</time>
      </trkpt>
      <trkpt lat="49.11898" lon="-0.00423">
        <ele>9.8</ele>
        <time>2024-03-03T10:11:09Z</time>
      </trkpt>
      <trkpt lat="49.11905" lon="-0.00426">
        <ele>9.8</ele>
        <time>2024-03-03T10:11:10Z</time>
      </trkpt>
      <trkpt lat="49.11912" lon="-0.00429">
        <ele>9.8</ele>
        <time>2024-03-03T10:11:11Z</time>
      </trkpt>
      <trkpt lat="49.11918" lon="-0.00431">
        <ele>9.7</ele>
        <time>2024-03-03T10:11:12Z</time>
      </trkpt>
      <trkpt lat="49.11925" lon="-0.00433">
        <ele>9.7</ele>
        <time>2024-03-03T10:11:13Z</time>
      </trkpt>
      <trkpt lat="49.11932" lon="-0.00434">
        <ele>9.7</ele>
        <time>2024-03-03T10:11:14Z</time>
      </trkpt>
      <trkpt lat="49.11939" lon="-0.00435">
        <ele>9.7</ele>
        <time>2024-03-03T10:11:15Z</time>
      </trkpt>
      <trkpt lat="49.11947" lon="-0.00435">
        <ele>9.7</ele>
        <time>2024-03-03T10:11:16Z</time>
      </trkpt>
      <trkpt lat="49.11954" lon="-0.00435">
        <ele>9.6</ele>
        <time>2024-03-03T10:11:17Z</time>
      </trkpt>
      <trkpt lat="49.11961" lon="-0.00433">
        <ele>9.6</ele>
        <time>2024-03-03T10:11:18Z</time>
      </trkpt>
      <trkpt lat="49.11968" lon="-0.00432">
        <ele>9.6</ele>
        <time>2024-03-03T10:11:19Z</time>
      </trkpt>
      <trkpt lat="49.11975" lon="-0.0043">
        <ele>9.6</ele>
        <time>2024-03-03T10:11:20Z</time>
      </trkpt>
      <trkpt lat="49.11982" lon="-0.00428">
        <ele>9.6</ele>
        <time>2024-03-03T10:11:21Z</time>
      </trkpt>
      <trkpt lat="49.11989" lon="-0.00426">
        <ele>9.6</ele>
        <time>2024-03-03T10:11:22Z</time>
      </trkpt>
      <trkpt lat="49.11996" lon="-0.00426">
        <ele>9.6</ele>
        <time>2024-03-03T10:11:23Z</time>
      </trkpt>
      <trkpt lat="49.12003" lon="-0.00428">
        <ele>9.7</ele>
        <time>2024-03-03T10:11:24Z</time>
      </trkpt>
      <trkpt lat="49.1201" lon="-0.0043">
        <ele>9.7</ele>
        <time>2024-03-03T10:11:25Z</time>
      </trkpt>
      <trkpt lat="49.12016" lon="-0.00432">
        <ele>9.8</ele>
        <time>2024-03-03T10:11:26Z</time>
      </trkpt>
      <trkpt lat="49.12023" lon="-0.00436">
        <ele>9.8</ele>
        <time>2024-03-03T10:11:27Z</time>
      </trkpt>
      <trkpt lat="49.12029" lon="-0.0044">
        <ele>9.8</ele>
        <time>2024-03-03T10:11:28Z</time>
      </trkpt>
      <trkpt lat="49.12035" lon="-0.00444">
        <ele>9.8</ele>
        <time>2024-03-03T10:11:29Z</time>
      </trkpt>
      <trkpt lat="49.12042" lon="-0.00448">
        <ele>9.8</ele>
        <time>2024-03-03T10:11:30Z</time>
      </trkpt>
      <trkpt lat="49.12048" lon="-0.00452">
        <ele>9.8</ele>
        <time>2024-03-03T10:11:31Z</time>
      </trkpt>
      <trkpt lat="49.12055" lon="-0.00455">
        <ele>9.8</ele>
        <time>2024-03-03T10:11:32Z</time>
      </trkpt>
      <trkpt lat="49.12061" lon="-0.00458">
        <ele>9.8</ele>
        <time>2024-03-03T10:11:33Z</time>
      </trkpt>
      <trkpt lat="49.12068" lon="-0.00462">
        <ele>9.8</ele>
        <time>2024-03-03T10:11:34Z</time>
      </trkpt>
      <trkpt lat="49.12075" lon="-0.00465">
        <ele>9.8</ele>
        <time>2024-03-03T10:11:35Z</time>
      </trkpt>
      <trkpt lat="49.12081" lon="-0.00469">
        <ele>9.8</ele>
        <time>2024-03-03T10:11:36Z</time>
      </trkpt>
      <trkpt lat="49.12088" lon="-0.00472">
        <ele>9.8</ele>
        <time>2024-03-03T10:11:37Z</time>
      </trkpt>
      <trkpt lat="49.12094" lon="-0.00475">
        <ele>9.8</ele>
        <time>2024-03-03T10:11:38Z</time>
      </trkpt>
      <trkpt lat="49.121" lon="-0.00478">
        <ele>9.8</ele>
        <time>2024-03-03T10:11:39Z</time>
      </trkpt>
      <trkpt lat="49.12106" lon="-0.00481">
        <ele>9.7</ele>
        <time>2024-03-03T10:11:40Z</time>
      </trkpt>
      <trkpt lat="49.12112" lon="-0.00486">
        <ele>9.7</ele>
        <time>2024-03-03T10:11:41Z</time>
      </trkpt>
      <trkpt lat="49.12117" lon="-0.0049">
        <ele>9.7</ele>
        <time>2024-03-03T10:11:42Z</time>
      </trkpt>
      <trkpt lat="49.12122" lon="-0.00495">
        <ele>9.7</ele>
        <time>2024-03-03T10:11:43Z</time>
      </trkpt>
      <trkpt lat="49.12128" lon="-0.005">
        <ele>9.7</ele>
        <time>2024-03-03T10:11:44Z</time>
      </trkpt>
      <trkpt lat="49.12133" lon="-0.00505">
        <ele>9.6</ele>
        <time>2024-03-03T10:11:45Z</time>
      </trkpt>
      <trkpt lat="49.12139" lon="-0.0051">
        <ele>9.7</ele>
        <time>2024-03-03T10:11:46Z</time>
      </trkpt>
      <trkpt lat="49.12145" lon="-0.00516">
        <ele>9.7</ele>
        <time>2024-03-03T10:11:47Z</time>
      </trkpt>
      <trkpt lat="49.1215" lon="-0.00522">
        <ele>9.7</ele>
        <time>2024-03-03T10:11:48Z</time>
      </trkpt>
      <trkpt lat="49.12156" lon="-0.00528">
        <ele>9.7</ele>
        <time>2024-03-03T10:11:49Z</time>
      </trkpt>
      <trkpt lat="49.12161" lon="-0.00534">
        <ele>9.7</ele>
        <time>2024-03-03T10:11:50Z</time>
      </trkpt>
      <trkpt lat="49.12166" lon="-0.00539">
        <ele>9.7</ele>
        <time>2024-03-03T10:11:51Z</time>
      </trkpt>
      <trkpt lat="49.12171" lon="-0.00545">
        <ele>9.7</ele>
        <time>2024-03-03T10:11:52Z</time>
      </trkpt>
      <trkpt lat="49.12176" lon="-0.0055">
        <ele>9.7</ele>
        <time>2024-03-03T10:11:53Z</time>
      </trkpt>
      <trkpt lat="49.12181" lon="-0.00555">
        <ele>9.7</ele>
        <time>2024-03-03T10:11:54Z</time>
      </trkpt>
      <trkpt lat="49.12187" lon="-0.00559">
        <ele>9.7</ele>
        <time>2024-03-03T10:11:55Z</time>
      </trkpt>
      <trkpt lat="49.12192" lon="-0.00564">
        <ele>9.7</ele>
        <time>2024-03-03T10:11:56Z</time>
      </trkpt>
      <trkpt lat="49.12198" lon="-0.00569">
        <ele>9.7</ele>
        <time>2024-03-03T10:11:57Z</time>
      </trkpt>
      <trkpt lat="49.12203" lon="-0.00575">
        <ele>9.8</ele>
        <time>2024-03-03T10:11:58Z</time>
      </trkpt>
      <trkpt lat="49.12208" lon="-0.0058">
        <ele>9.8</ele>
        <time>2024-03-03T10:11:59Z</time>
      </trkpt>
      <trkpt lat="49.12214" lon="-0.00586">
        <ele>9.8</ele>
        <time>2024-03-03T10:12:00Z</time>
      </trkpt>
      <trkpt lat="49.12219" lon="-0.00591">
        <ele>9.9</ele>
        <time>2024-03-03T10:12:01Z</time>
      </trkpt>
      <trkpt lat="49.12224" lon="-0.00597">
        <ele>9.8</ele>
        <time>2024-03-03T10:12:02Z</time>
      </trkpt>
      <trkpt lat="49.12228" lon="-0.00604">
        <ele>9.8</ele>
        <time>2024-03-03T10:12:03Z</time>
      </trkpt>
      <trkpt lat="49.12232" lon="-0.00611">
        <ele>9.8</ele>
        <time>2024-03-03T10:12:04Z</time>
      </trkpt>
      <trkpt lat="49.12236" lon="-0.00618">
        <ele>9.7</ele>
        <time>2024-03-03T10:12:05Z</time>
      </trkpt>
      <trkpt lat="49.1224" lon="-0.00627">
        <ele>9.7</ele>
        <time>2024-03-03T10:12:06Z</time>
      </trkpt>
      <trkpt lat="49.12243" lon="-0.00637">
        <ele>9.6</ele>
        <time>2024-03-03T10:12:07Z</time>
      </trkpt>
      <trkpt lat="49.12246" lon="-0.00647">
        <ele>9.6</ele>
        <time>2024-03-03T10:12:08Z</time>
      </trkpt>
      <trkpt lat="49.12249" lon="-0.00657">
        <ele>9.6</ele>
        <time>2024-03-03T10:12:09Z</time>
      </trkpt>
      <trkpt lat="49.12251" lon="-0.00667">
        <ele>9.6</ele>
        <time>2024-03-03T10:12:10Z</time>
      </trkpt>
      <trkpt lat="49.12254" lon="-0.00676">
        <ele>9.6</ele>
        <time>2024-03-03T10:12:11Z</time>
      </trkpt>
      <trkpt lat="49.12256" lon="-0.00686">
        <ele>9.6</ele>
        <time>2024-03-03T10:12:12Z</time>
      </trkpt>
      <trkpt lat="49.12258" lon="-0.00696">
        <ele>9.6</ele>
        <time>2024-03-03T10:12:13Z</time>
      </trkpt>
      <trkpt lat="49.1226" lon="-0.00706">
        <ele>9.6</ele>
        <time>2024-03-03T10:12:14Z</time>
      </trkpt>
      <trkpt lat="49.12263" lon="-0.00716">
        <ele>9.6</ele>
        <time>2024-03-03T10:12:15Z</time>
      </trkpt>
      <trkpt lat="49.12266" lon="-0.00725">
        <ele>9.6</ele>
        <time>2024-03-03T10:12:16Z</time>
      </trkpt>
      <trkpt lat="49.1227" lon="-0.00734">
        <ele>9.5</ele>
        <time>2024-03-03T10:12:17Z</time>
      </trkpt>
      <trkpt lat="49.12273" lon="-0.00743">
        <ele>9.5</ele>
        <time>2024-03-03T10:12:18Z</time>
      </trkpt>
      <trkpt lat="49.12277" lon="-0.00751">
        <ele>9.4</ele>
        <time>2024-03-03T10:12:19Z</time>
      </trkpt>
      <trkpt lat="49.12281" lon="-0.00759">
        <ele>9.4</ele>
        <time>2024-03-03T10:12:20Z</time>
      </trkpt>
      <trkpt lat="49.12285" lon="-0.00767">
        <ele>9.3</ele>
        <time>2024-03-03T10:12:21Z</time>
      </trkpt>
      <trkpt lat="49.1229" lon="-0.00774">
        <ele>9.3</ele>
        <time>2024-03-03T10:12:22Z</time>
      </trkpt>
      <trkpt lat="49.12296" lon="-0.0078">
        <ele>9.3</ele>
        <time>2024-03-03T10:12:23Z</time>
      </trkpt>
      <trkpt lat="49.12302" lon="-0.00786">
        <ele>9.3</ele>
        <time>2024-03-03T10:12:24Z</time>
      </trkpt>
      <trkpt lat="49.12309" lon="-0.0079">
        <ele>9.3</ele>
        <time>2024-03-03T10:12:25Z</time>
      </trkpt>
      <trkpt lat="49.12316" lon="-0.00793">
        <ele>9.3</ele>
        <time>2024-03-03T10:12:26Z</time>
      </trkpt>
      <trkpt lat="49.12322" lon="-0.00796">
        <ele>9.3</ele>
        <time>2024-03-03T10:12:27Z</time>
      </trkpt>
      <trkpt lat="49.12329" lon="-0.00799">
        <ele>9.3</ele>
        <time>2024-03-03T10:12:28Z</time>
      </trkpt>
      <trkpt lat="49.12335" lon="-0.00803">
        <ele>9.3</ele>
        <time>2024-03-03T10:12:29Z</time>
      </trkpt>
      <trkpt lat="49.12342" lon="-0.00806">
        <ele>9.3</ele>
        <time>2024-03-03T10:12:30Z</time>
      </trkpt>
      <trkpt lat="49.12348" lon="-0.00811">
        <ele>9.3</ele>
        <time>2024-03-03T10:12:31Z</time>
      </trkpt>
      <trkpt lat="49.12354" lon="-0.00816">
        <ele>9.3</ele>
        <time>2024-03-03T10:12:32Z</time>
      </trkpt>
      <trkpt lat="49.1236" lon="-0.00822">
        <ele>9.3</ele>
        <time>2024-03-03T10:12:33Z</time>
      </trkpt>
      <trkpt lat="49.12366" lon="-0.00828">
        <ele>9.2</ele>
        <time>2024-03-03T10:12:34Z</time>
      </trkpt>
      <trkpt lat="49.12371" lon="-0.00835">
        <ele>9.2</ele>
        <time>2024-03-03T10:12:35Z</time>
      </trkpt>
      <trkpt lat="49.12377" lon="-0.00841">
        <ele>9.2</ele>
        <time>2024-03-03T10:12:36Z</time>
      </trkpt>
      <trkpt lat="49.12382" lon="-0.00848">
        <ele>9.2</ele>
        <time>2024-03-03T10:12:37Z</time>
      </trkpt>
      <trkpt lat="49.12387" lon="-0.00855">
        <ele>9.2</ele>
        <time>2024-03-03T10:12:38Z</time>
      </trkpt>
      <trkpt lat="49.12392" lon="-0.00862">
        <ele>9.2</ele>
        <time>2024-03-03T10:12:39Z</time>
      </trkpt>
      <trkpt lat="49.12397" lon="-0.0087">
        <ele>9.2</ele>
        <time>2024-03-03T10:12:40Z</time>
      </trkpt>
      <trkpt lat="49.12401" lon="-0.00878">
        <ele>9.2</ele>
        <time>2024-03-03T10:12:41Z</time>
      </trkpt>
      <trkpt lat="49.12406" lon="-0.00885">
        <ele>9.1</ele>
        <time>2024-03-03T10:12:42Z</time>
      </trkpt>
      <trkpt lat="49.12409" lon="-0.00893">
        <ele>9.1</ele>
        <time>2024-03-03T10:12:43Z</time>
      </trkpt>
      <trkpt lat="49.12413" lon="-0.00902">
        <ele>9.1</ele>
        <time>2024-03-03T10:12:44Z</time>
      </trkpt>
      <trkpt lat="49.12417" lon="-0.0091">
        <ele>9.1</ele>
        <time>2024-03-03T10:12:45Z</time>
      </trkpt>
      <trkpt lat="49.1242" lon="-0.00919">
        <ele>9.1</ele>
        <time>2024-03-03T10:12:46Z</time>
      </trkpt>
      <trkpt lat="49.12424" lon="-0.00928">
        <ele>9.1</ele>
        <time>2024-03-03T10:12:47Z</time>
      </trkpt>
      <trkpt lat="49.12427" lon="-0.00936">
        <ele>9.1</ele>
        <time>2024-03-03T10:12:48Z</time>
      </trkpt>
      <trkpt lat="49.1243" lon="-0.00945">
        <ele>9.1</ele>
        <time>2024-03-03T10:12:49Z</time>
      </trkpt>
      <trkpt lat="49.12434" lon="-0.00952">
        <ele>9.1</ele>
        <time>2024-03-03T10:12:50Z</time>
      </trkpt>
      <trkpt lat="49.12437" lon="-0.0096">
        <ele>9</ele>
        <time>2024-03-03T10:12:51Z</time>
      </trkpt>
      <trkpt lat="49.1244" lon="-0.00968">
        <ele>9</ele>
        <time>2024-03-03T10:12:52Z</time>
      </trkpt>
      <trkpt lat="49.12444" lon="-0.00976">
        <ele>9</ele>
        <time>2024-03-03T10:12:53Z</time>
      </trkpt>
      <trkpt lat="49.12448" lon="-0.00984">
        <ele>9</ele>
        <time>2024-03-03T10:12:54Z</time>
      </trkpt>
      <trkpt lat="49.12451" lon="-0.00993">
        <ele>9</ele>
        <time>2024-03-03T10:12:55Z</time>
      </trkpt>
      <trkpt lat="49.12454" lon="-0.01001">
        <ele>9</ele>
        <time>2024-03-03T10:12:56Z</time>
      </trkpt>
      <trkpt lat="49.12458" lon="-0.01009">
        <ele>8.9</ele>
        <time>2024-03-03T10:12:57Z</time>
      </trkpt>
      <trkpt lat="49.12462" lon="-0.01018">
        <ele>8.9</ele>
        <time>2024-03-03T10:12:58Z</time>
      </trkpt>
      <trkpt lat="49.12465" lon="-0.01027">
        <ele>9</ele>
        <time>2024-03-03T10:12:59Z</time>
      </trkpt>
      <trkpt lat="49.12468" lon="-0.01035">
        <ele>9</ele>
        <time>2024-03-03T10:13:00Z</time>
      </trkpt>
      <trkpt lat="49.12471" lon="-0.01044">
        <ele>9</ele>
        <time>2024-03-03T10:13:01Z</time>
      </trkpt>
      <trkpt lat="49.12474" lon="-0.01053">
        <ele>9</ele>
        <time>2024-03-03T10:13:02Z</time>
      </trkpt>
      <trkpt lat="49.12477" lon="-0.01063">
        <ele>9</ele>
        <time>2024-03-03T10:13:03Z</time>
      </trkpt>
      <trkpt lat="49.1248" lon="-0.01072">
        <ele>9</ele>
        <time>2024-03-03T10:13:04Z</time>
      </trkpt>
      <trkpt lat="49.12483" lon="-0.01082">
        <ele>9.1</ele>
        <time>2024-03-03T10:13:05Z</time>
      </trkpt>
      <trkpt lat="49.12486" lon="-0.01092">
        <ele>9.1</ele>
        <time>2024-03-03T10:13:06Z</time>
      </trkpt>
      <trkpt lat="49.12489" lon="-0.01101">
        <ele>9.1</ele>
        <time>2024-03-03T10:13:07Z</time>
      </trkpt>
      <trkpt lat="49.12491" lon="-0.0111">
        <ele>9.1</ele>
        <time>2024-03-03T10:13:08Z</time>
      </trkpt>
      <trkpt lat="49.12494" lon="-0.0112">
        <ele>9</ele>
        <time>2024-03-03T10:13:09Z</time>
      </trkpt>
      <trkpt lat="49.12497" lon="-0.0113">
        <ele>9</ele>
        <time>2024-03-03T10:13:10Z</time>
      </trkpt>
      <trkpt lat="49.125" lon="-0.01139">
        <ele>8.9</ele>
        <time>2024-03-03T10:13:11Z</time>
      </trkpt>
      <trkpt lat="49.12503" lon="-0.01149">
        <ele>8.9</ele>
        <time>2024-03-03T10:13:12Z</time>
      </trkpt>
      <trkpt lat="49.12506" lon="-0.01159">
        <ele>8.9</ele>
        <time>2024-03-03T10:13:13Z</time>
      </trkpt>
      <trkpt lat="49.12509" lon="-0.01169">
        <ele>8.8</ele>
        <time>2024-03-03T10:13:14Z</time>
      </trkpt>
      <trkpt lat="49.12512" lon="-0.01179">
        <ele>8.8</ele>
        <time>2024-03-03T10:13:15Z</time>
      </trkpt>
      <trkpt lat="49.12515" lon="-0.01189">
        <ele>8.8</ele>
        <time>2024-03-03T10:13:16Z</time>
      </trkpt>
      <trkpt lat="49.12518" lon="-0.01199">
        <ele>8.8</ele>
        <time>2024-03-03T10:13:17Z</time>
      </trkpt>
      <trkpt lat="49.12521" lon="-0.01209">
        <ele>8.7</ele>
        <time>2024-03-03T10:13:18Z</time>
      </trkpt>
      <trkpt lat="49.12524" lon="-0.01219">
        <ele>8.7</ele>
        <time>2024-03-03T10:13:19Z</time>
      </trkpt>
      <trkpt lat="49.12526" lon="-0.01229">
        <ele>8.6</ele>
        <time>2024-03-03T10:13:20Z</time>
      </trkpt>
      <trkpt lat="49.12529" lon="-0.0124">
        <ele>8.6</ele>
        <time>2024-03-03T10:13:21Z</time>
      </trkpt>
      <trkpt lat="49.12531" lon="-0.0125">
        <ele>8.6</ele>
        <time>2024-03-03T10:13:22Z</time>
      </trkpt>
      <trkpt lat="49.12533" lon="-0.01261">
        <ele>8.6</ele>
        <time>2024-03-03T10:13:23Z</time>
      </trkpt>
      <trkpt lat="49.12535" lon="-0.01271">
        <ele>8.6</ele>
        <time>2024-03-03T10:13:24Z</time>
      </trkpt>
      <trkpt lat="49.12537" lon="-0.01281">
        <ele>8.6</ele>
        <time>2024-03-03T10:13:25Z</time>
      </trkpt>
      <trkpt lat="49.12538" lon="-0.01292">
        <ele>8.6</ele>
        <time>2024-03-03T10:13:26Z</time>
      </trkpt>
      <trkpt lat="49.1254" lon="-0.01303">
        <ele>8.6</ele>
        <time>2024-03-03T10:13:27Z</time>
      </trkpt>
      <trkpt lat="49.12542" lon="-0.01314">
        <ele>8.5</ele>
        <time>2024-03-03T10:13:28Z</time>
      </trkpt>
      <trkpt lat="49.12543" lon="-0.01324">
        <ele>8.5</ele>
        <time>2024-03-03T10:13:29Z</time>
      </trkpt>
      <trkpt lat="49.12544" lon="-0.01335">
        <ele>8.5</ele>
        <time>2024-03-03T10:13:30Z</time>
      </trkpt>
      <trkpt lat="49.12545" lon="-0.01346">
        <ele>8.5</ele>
        <time>2024-03-03T10:13:31Z</time>
      </trkpt>
      <trkpt lat="49.12546" lon="-0.01356">
        <ele>8.5</ele>
        <time>2024-03-03T10:13:32Z</time>
      </trkpt>
      <trkpt lat="49.12547" lon="-0.01367">
        <ele>8.4</ele>
        <time>2024-03-03T10:13:33Z</time>
      </trkpt>
      <trkpt lat="49.12547" lon="-0.01378">
        <ele>8.4</ele>
        <time>2024-03-03T10:13:34Z</time>
      </trkpt>
      <trkpt lat="49.12548" lon="-0.01389">
        <ele>8.4</ele>
        <time>2024-03-03T10:13:35Z</time>
      </trkpt>
      <trkpt lat="49.12548" lon="-0.014">
        <ele>8.3</ele>
        <time>2024-03-03T10:13:36Z</time>
      </trkpt>
      <trkpt lat="49.12549" lon="-0.01411">
        <ele>8.3</ele>
        <time>2024-03-03T10:13:37Z</time>
      </trkpt>
      <trkpt lat="49.12549" lon="-0.01422">
        <ele>8.3</ele>
        <time>2024-03-03T10:13:38Z</time>
      </trkpt>
      <trkpt lat="49.12549" lon="-0.01433">
        <ele>8.2</ele>
        <time>2024-03-03T10:13:39Z</time>
      </trkpt>
      <trkpt lat="49.12549" lon="-0.01444">
        <ele>8.2</ele>
        <time>2024-03-03T10:13:40Z</time>
      </trkpt>
      <trkpt lat="49.12549" lon="-0.01456">
        <ele>8.2</ele>
        <time>2024-03-03T10:13:41Z</time>
      </trkpt>
      <trkpt lat="49.12549" lon="-0.01467">
        <ele>8.2</ele>
        <time>2024-03-03T10:13:42Z</time>
      </trkpt>
      <trkpt lat="49.12549" lon="-0.01478">
        <ele>8.2</ele>
        <time>2024-03-03T10:13:43Z</time>
      </trkpt>
      <trkpt lat="49.12548" lon="-0.0149">
        <ele>8.2</ele>
        <time>2024-03-03T10:13:44Z</time>
      </trkpt>
      <trkpt lat="49.12548" lon="-0.01501">
        <ele>8.1</ele>
        <time>2024-03-03T10:13:45Z</time>
      </trkpt>
      <trkpt lat="49.12547" lon="-0.01511">
        <ele>8.1</ele>
        <time>2024-03-03T10:13:46Z</time>
      </trkpt>
      <trkpt lat="49.12546" lon="-0.01522">
        <ele>8.1</ele>
        <time>2024-03-03T10:13:47Z</time>
      </trkpt>
      <trkpt lat="49.12545" lon="-0.01533">
        <ele>8.1</ele>
        <time>2024-03-03T10:13:48Z</time>
      </trkpt>
      <trkpt lat="49.12545" lon="-0.01544">
        <ele>8.1</ele>
        <time>2024-03-03T10:13:49Z</time>
      </trkpt>
      <trkpt lat="49.12544" lon="-0.01555">
        <ele>8.1</ele>
        <time>2024-03-03T10:13:50Z</time>
      </trkpt>
      <trkpt lat="49.12543" lon="-0.01566">
        <ele>8.1</ele>
        <time>2024-03-03T10:13:51Z</time>
      </trkpt>
      <trkpt lat="49.12542" lon="-0.01576">
        <ele>8.1</ele>
        <time>2024-03-03T10:13:52Z</time>
      </trkpt>
      <trkpt lat="49.12541" lon="-0.01587">
        <ele>8.1</ele>
        <time>2024-03-03T10:13:53Z</time>
      </trkpt>
      <trkpt lat="49.1254" lon="-0.01598">
        <ele>8.1</ele>
        <time>2024-03-03T10:13:54Z</time>
      </trkpt>
      <trkpt lat="49.12539" lon="-0.01608">
        <ele>8.1</ele>
        <time>2024-03-03T10:13:55Z</time>
      </trkpt>
      <trkpt lat="49.12538" lon="-0.01619">
        <ele>8</ele>
        <time>2024-03-03T10:13:56Z</time>
      </trkpt>
      <trkpt lat="49.12537" lon="-0.0163">
        <ele>8</ele>
        <time>2024-03-03T10:13:57Z</time>
      </trkpt>
      <trkpt lat="49.12536" lon="-0.01641">
        <ele>7.9</ele>
        <time>2024-03-03T10:13:58Z</time>
      </trkpt>
      <trkpt lat="49.12535" lon="-0.01652">
        <ele>7.9</ele>
        <time>2024-03-03T10:13:59Z</time>
      </trkpt>
      <trkpt lat="49.12534" lon="-0.01664">
        <ele>7.9</ele>
        <time>2024-03-03T10:14:00Z</time>
      </trkpt>
      <trkpt lat="49.12533" lon="-0.01675">
        <ele>7.8</ele>
        <time>2024-03-03T10:14:01Z</time>
      </trkpt>
      <trkpt lat="49.12533" lon="-0.01686">
        <ele>7.8</ele>
        <time>2024-03-03T10:14:02Z</time>
      </trkpt>
      <trkpt lat="49.12532" lon="-0.01698">
        <ele>7.8</ele>
        <time>2024-03-03T10:14:03Z</time>
      </trkpt>
      <trkpt lat="49.12531" lon="-0.01709">
        <ele>7.8</ele>
        <time>2024-03-03T10:14:04Z</time>
      </trkpt>
      <trkpt lat="49.1253" lon="-0.0172">
        <ele>7.8</ele>
        <time>2024-03-03T10:14:05Z</time>
      </trkpt>
      <trkpt lat="49.12529" lon="-0.01731">
        <ele>7.8</ele>
        <time>2024-03-03T10:14:06Z</time>
      </trkpt>
      <trkpt lat="49.12528" lon="-0.01742">
        <ele>7.8</ele>
        <time>2024-03-03T10:14:07Z</time>
      </trkpt>
      <trkpt lat="49.12528" lon="-0.01753">
        <ele>7.8</ele>
        <time>2024-03-03T10:14:08Z</time>
      </trkpt>
      <trkpt lat="49.12527" lon="-0.01764">
        <ele>7.8</ele>
        <time>2024-03-03T10:14:09Z</time>
      </trkpt>
      <trkpt lat="49.12526" lon="-0.01775">
        <ele>7.8</ele>
        <time>2024-03-03T10:14:10Z</time>
      </trkpt>
      <trkpt lat="49.12525" lon="-0.01786">
        <ele>7.8</ele>
        <time>2024-03-03T10:14:11Z</time>
      </trkpt>
      <trkpt lat="49.12524" lon="-0.01797">
        <ele>7.8</ele>
        <time>2024-03-03T10:14:12Z</time>
      </trkpt>
      <trkpt lat="49.12523" lon="-0.01808">
        <ele>7.8</ele>
        <time>2024-03-03T10:14:13Z</time>
      </trkpt>
      <trkpt lat="49.12522" lon="-0.01819">
        <ele>7.7</ele>
        <time>2024-03-03T10:14:14Z</time>
      </trkpt>
      <trkpt lat="49.12521" lon="-0.01831">
        <ele>7.7</ele>
        <time>2024-03-03T10:14:15Z</time>
      </trkpt>
      <trkpt lat="49.1252" lon="-0.01842">
        <ele>7.7</ele>
        <time>2024-03-03T10:14:16Z</time>
      </trkpt>
      <trkpt lat="49.12519" lon="-0.01854">
        <ele>7.7</ele>
        <time>2024-03-03T10:14:17Z</time>
      </trkpt>
      <trkpt lat="49.12518" lon="-0.01865">
        <ele>7.7</ele>
        <time>2024-03-03T10:14:18Z</time>
      </trkpt>
      <trkpt lat="49.12517" lon="-0.01876">
        <ele>7.6</ele>
        <time>2024-03-03T10:14:19Z</time>
      </trkpt>
      <trkpt lat="49.12516" lon="-0.01887">
        <ele>7.6</ele>
        <time>2024-03-03T10:14:20Z</time>
      </trkpt>
      <trkpt lat="49.12515" lon="-0.01897">
        <ele>7.5</ele>
        <time>2024-03-03T10:14:21Z</time>
      </trkpt>
      <trkpt lat="49.12514" lon="-0.01908">
        <ele>7.5</ele>
        <time>2024-03-03T10:14:22Z</time>
      </trkpt>
      <trkpt lat="49.12513" lon="-0.01919">
        <ele>7.5</ele>
        <time>2024-03-03T10:14:23Z</time>
      </trkpt>
      <trkpt lat="49.12512" lon="-0.01931">
        <ele>7.5</ele>
        <time>2024-03-03T10:14:24Z</time>
      </trkpt>
      <trkpt lat="49.12511" lon="-0.01941">
        <ele>7.5</ele>
        <time>2024-03-03T10:14:25Z</time>
      </trkpt>
      <trkpt lat="49.1251" lon="-0.01953">
        <ele>7.5</ele>
        <time>2024-03-03T10:14:26Z</time>
      </trkpt>
      <trkpt lat="49.12509" lon="-0.01964">
        <ele>7.5</ele>
        <time>2024-03-03T10:14:27Z</time>
      </trkpt>
      <trkpt lat="49.12508" lon="-0.01975">
        <ele>7.5</ele>
        <time>2024-03-03T10:14:28Z</time>
      </trkpt>
      <trkpt lat="49.12507" lon="-0.01987">
        <ele>7.5</ele>
        <time>2024-03-03T10:14:29Z</time>
      </trkpt>
      <trkpt lat="49.12506" lon="-0.01999">
        <ele>7.5</ele>
        <time>2024-03-03T10:14:30Z</time>
      </trkpt>
      <trkpt lat="49.12505" lon="-0.02011">
        <ele>7.4</ele>
        <time>2024-03-03T10:14:31Z</time>
      </trkpt>
      <trkpt lat="49.12505" lon="-0.02023">
        <ele>7.4</ele>
        <time>2024-03-03T10:14:32Z</time>
      </trkpt>
      <trkpt lat="49.12503" lon="-0.02035">
        <ele>7.4</ele>
        <time>2024-03-03T10:14:33Z</time>
      </trkpt>
      <trkpt lat="49.12502" lon="-0.02047">
        <ele>7.3</ele>
        <time>2024-03-03T10:14:34Z</time>
      </trkpt>
      <trkpt lat="49.12501" lon="-0.02059">
        <ele>7.3</ele>
        <time>2024-03-03T10:14:35Z</time>
      </trkpt>
      <trkpt lat="49.125" lon="-0.0207">
        <ele>7.3</ele>
        <time>2024-03-03T10:14:36Z</time>
      </trkpt>
      <trkpt lat="49.12499" lon="-0.02082">
        <ele>7.3</ele>
        <time>2024-03-03T10:14:37Z</time>
      </trkpt>
      <trkpt lat="49.12498" lon="-0.02093">
        <ele>7.3</ele>
        <time>2024-03-03T10:14:38Z</time>
      </trkpt>
      <trkpt lat="49.12497" lon="-0.02105">
        <ele>7.3</ele>
        <time>2024-03-03T10:14:39Z</time>
      </trkpt>
      <trkpt lat="49.12497" lon="-0.02116">
        <ele>7.4</ele>
        <time>2024-03-03T10:14:40Z</time>
      </trkpt>
      <trkpt lat="49.12496" lon="-0.02127">
        <ele>7.4</ele>
        <time>2024-03-03T10:14:41Z</time>
      </trkpt>
      <trkpt lat="49.12495" lon="-0.02138">
        <ele>7.5</ele>
        <time>2024-03-03T10:14:42Z</time>
      </trkpt>
      <trkpt lat="49.12494" lon="-0.02149">
        <ele>7.5</ele>
        <time>2024-03-03T10:14:43Z</time>
      </trkpt>
      <trkpt lat="49.12493" lon="-0.0216">
        <ele>7.6</ele>
        <time>2024-03-03T10:14:44Z</time>
      </trkpt>
      <trkpt lat="49.12493" lon="-0.02171">
        <ele>7.7</ele>
        <time>2024-03-03T10:14:45Z</time>
      </trkpt>
      <trkpt lat="49.12492" lon="-0.02182">
        <ele>7.8</ele>
        <time>2024-03-03T10:14:46Z</time>
      </trkpt>
      <trkpt lat="49.12491" lon="-0.02193">
        <ele>7.9</ele>
        <time>2024-03-03T10:14:47Z</time>
      </trkpt>
      <trkpt lat="49.1249" lon="-0.02204">
        <ele>8</ele>
        <time>2024-03-03T10:14:48Z</time>
      </trkpt>
      <trkpt lat="49.12489" lon="-0.02215">
        <ele>8.1</ele>
        <time>2024-03-03T10:14:49Z</time>
      </trkpt>
      <trkpt lat="49.12489" lon="-0.02226">
        <ele>8.2</ele>
        <time>2024-03-03T10:14:50Z</time>
      </trkpt>
      <trkpt lat="49.12489" lon="-0.02237">
        <ele>8.2</ele>
        <time>2024-03-03T10:14:51Z</time>
      </trkpt>
      <trkpt lat="49.12489" lon="-0.02247">
        <ele>8.2</ele>
        <time>2024-03-03T10:14:52Z</time>
      </trkpt>
      <trkpt lat="49.12489" lon="-0.02258">
        <ele>8.1</ele>
        <time>2024-03-03T10:14:53Z</time>
      </trkpt>
      <trkpt lat="49.1249" lon="-0.0227">
        <ele>8</ele>
        <time>2024-03-03T10:14:54Z</time>
      </trkpt>
      <trkpt lat="49.1249" lon="-0.02281">
        <ele>7.9</ele>
        <time>2024-03-03T10:14:55Z</time>
      </trkpt>
      <trkpt lat="49.12491" lon="-0.02293">
        <ele>7.9</ele>
        <time>2024-03-03T10:14:56Z</time>
      </trkpt>
      <trkpt lat="49.12492" lon="-0.02304">
        <ele>7.8</ele>
        <time>2024-03-03T10:14:57Z</time>
      </trkpt>
      <trkpt lat="49.12492" lon="-0.02316">
        <ele>7.7</ele>
        <time>2024-03-03T10:14:58Z</time>
      </trkpt>
      <trkpt lat="49.12493" lon="-0.02327">
        <ele>7.7</ele>
        <time>2024-03-03T10:14:59Z</time>
      </trkpt>
      <trkpt lat="49.12494" lon="-0.02339">
        <ele>7.6</ele>
        <time>2024-03-03T10:15:00Z</time>
      </trkpt>
      <trkpt lat="49.12494" lon="-0.02351">
        <ele>7.5</ele>
        <time>2024-03-03T10:15:01Z</time>
      </trkpt>
      <trkpt lat="49.12495" lon="-0.02363">
        <ele>7.5</ele>
        <time>2024-03-03T10:15:02Z</time>
      </trkpt>
      <trkpt lat="49.12495" lon="-0.02374">
        <ele>7.4</ele>
        <time>2024-03-03T10:15:03Z</time>
      </trkpt>
      <trkpt lat="49.12496" lon="-0.02386">
        <ele>7.4</ele>
        <time>2024-03-03T10:15:04Z</time>
      </trkpt>
      <trkpt lat="49.12497" lon="-0.02397">
        <ele>7.4</ele>
        <time>2024-03-03T10:15:05Z</time>
      </trkpt>
      <trkpt lat="49.12497" lon="-0.02409">
        <ele>7.4</ele>
        <time>2024-03-03T10:15:06Z</time>
      </trkpt>
      <trkpt lat="49.12498" lon="-0.0242">
        <ele>7.3</ele>
        <time>2024-03-03T10:15:07Z</time>
      </trkpt>
      <trkpt lat="49.12498" lon="-0.02431">
        <ele>7.3</ele>
        <time>2024-03-03T10:15:08Z</time>
      </trkpt>
      <trkpt lat="49.12499" lon="-0.02442">
        <ele>7.3</ele>
        <time>2024-03-03T10:15:09Z</time>
      </trkpt>
      <trkpt lat="49.12499" lon="-0.02453">
        <ele>7.3</ele>
        <time>2024-03-03T10:15:10Z</time>
      </trkpt>
      <trkpt lat="49.125" lon="-0.02465">
        <ele>7.3</ele>
        <time>2024-03-03T10:15:11Z</time>
      </trkpt>
      <trkpt lat="49.125" lon="-0.02476">
        <ele>7.2</ele>
        <time>2024-03-03T10:15:12Z</time>
      </trkpt>
      <trkpt lat="49.12501" lon="-0.02487">
        <ele>7.2</ele>
        <time>2024-03-03T10:15:13Z</time>
      </trkpt>
      <trkpt lat="49.12502" lon="-0.02499">
        <ele>7.2</ele>
        <time>2024-03-03T10:15:14Z</time>
      </trkpt>
      <trkpt lat="49.12502" lon="-0.0251">
        <ele>7.3</ele>
        <time>2024-03-03T10:15:15Z</time>
      </trkpt>
      <trkpt lat="49.12503" lon="-0.02521">
        <ele>7.3</ele>
        <time>2024-03-03T10:15:16Z</time>
      </trkpt>
      <trkpt lat="49.12503" lon="-0.02532">
        <ele>7.3</ele>
        <time>2024-03-03T10:15:17Z</time>
      </trkpt>
      <trkpt lat="49.12503" lon="-0.02543">
        <ele>7.3</ele>
        <time>2024-03-03T10:15:18Z</time>
      </trkpt>
      <trkpt lat="49.12504" lon="-0.02554">
        <ele>7.2</ele>
        <time>2024-03-03T10:15:19Z</time>
      </trkpt>
      <trkpt lat="49.12505" lon="-0.02565">
        <ele>7.2</ele>
        <time>2024-03-03T10:15:20Z</time>
      </trkpt>
      <trkpt lat="49.12505" lon="-0.02576">
        <ele>7.2</ele>
        <time>2024-03-03T10:15:21Z</time>
      </trkpt>
      <trkpt lat="49.12505" lon="-0.02587">
        <ele>7.2</ele>
        <time>2024-03-03T10:15:22Z</time>
      </trkpt>
      <trkpt lat="49.12506" lon="-0.02599">
        <ele>7.2</ele>
        <time>2024-03-03T10:15:23Z</time>
      </trkpt>
      <trkpt lat="49.12507" lon="-0.0261">
        <ele>7.2</ele>
        <time>2024-03-03T10:15:24Z</time>
      </trkpt>
      <trkpt lat="49.12507" lon="-0.02622">
        <ele>7.2</ele>
        <time>2024-03-03T10:15:25Z</time>
      </trkpt>
      <trkpt lat="49.12508" lon="-0.02633">
        <ele>7.2</ele>
        <time>2024-03-03T10:15:26Z</time>
      </trkpt>
      <trkpt lat="49.12509" lon="-0.02644">
        <ele>7.1</ele>
        <time>2024-03-03T10:15:27Z</time>
      </trkpt>
      <trkpt lat="49.12509" lon="-0.02655">
        <ele>7.1</ele>
        <time>2024-03-03T10:15:28Z</time>
      </trkpt>
      <trkpt lat="49.12509" lon="-0.02666">
        <ele>7.1</ele>
        <time>2024-03-03T10:15:29Z</time>
      </trkpt>
      <trkpt lat="49.1251" lon="-0.02677">
        <ele>7.1</ele>
        <time>2024-03-03T10:15:30Z</time>
      </trkpt>
      <trkpt lat="49.1251" lon="-0.02688">
        <ele>7.1</ele>
        <time>2024-03-03T10:15:31Z</time>
      </trkpt>
      <trkpt lat="49.12511" lon="-0.02699">
        <ele>7.1</ele>
        <time>2024-03-03T10:15:32Z</time>
      </trkpt>
      <trkpt lat="49.12511" lon="-0.0271">
        <ele>7.1</ele>
        <time>2024-03-03T10:15:33Z</time>
      </trkpt>
      <trkpt lat="49.12512" lon="-0.02722">
        <ele>7.1</ele>
        <time>2024-03-03T10:15:34Z</time>
      </trkpt>
      <trkpt lat="49.12512" lon="-0.02733">
        <ele>7.1</ele>
        <time>2024-03-03T10:15:35Z</time>
      </trkpt>
      <trkpt lat="49.12513" lon="-0.02743">
        <ele>7.1</ele>
        <time>2024-03-03T10:15:36Z</time>
      </trkpt>
      <trkpt lat="49.12513" lon="-0.02754">
        <ele>7.1</ele>
        <time>2024-03-03T10:15:37Z</time>
      </trkpt>
      <trkpt lat="49.12514" lon="-0.02765">
        <ele>7.1</ele>
        <time>2024-03-03T10:15:38Z</time>
      </trkpt>
      <trkpt lat="49.12515" lon="-0.02775">
        <ele>7.1</ele>
        <time>2024-03-03T10:15:39Z</time>
      </trkpt>
      <trkpt lat="49.12515" lon="-0.02787">
        <ele>7.2</ele>
        <time>2024-03-03T10:15:40Z</time>
      </trkpt>
      <trkpt lat="49.12515" lon="-0.02798">
        <ele>7.2</ele>
        <time>2024-03-03T10:15:41Z</time>
      </trkpt>
      <trkpt lat="49.12516" lon="-0.02808">
        <ele>7.2</ele>
        <time>2024-03-03T10:15:42Z</time>
      </trkpt>
      <trkpt lat="49.12517" lon="-0.02819">
        <ele>7.2</ele>
        <time>2024-03-03T10:15:43Z</time>
      </trkpt>
      <trkpt lat="49.12517" lon="-0.0283">
        <ele>7.2</ele>
        <time>2024-03-03T10:15:44Z</time>
      </trkpt>
      <trkpt lat="49.12518" lon="-0.02841">
        <ele>7.2</ele>
        <time>2024-03-03T10:15:45Z</time>
      </trkpt>
      <trkpt lat="49.12518" lon="-0.02852">
        <ele>7.2</ele>
        <time>2024-03-03T10:15:46Z</time>
      </trkpt>
      <trkpt lat="49.12519" lon="-0.02863">
        <ele>7.2</ele>
        <time>2024-03-03T10:15:47Z</time>
      </trkpt>
      <trkpt lat="49.1252" lon="-0.02874">
        <ele>7.2</ele>
        <time>2024-03-03T10:15:48Z</time>
      </trkpt>
      <trkpt lat="49.1252" lon="-0.02884">
        <ele>7.2</ele>
        <time>2024-03-03T10:15:49Z</time>
      </trkpt>
      <trkpt lat="49.12521" lon="-0.02895">
        <ele>7.2</ele>
        <time>2024-03-03T10:15:50Z</time>
      </trkpt>
      <trkpt lat="49.12521" lon="-0.02906">
        <ele>7.2</ele>
        <time>2024-03-03T10:15:51Z</time>
      </trkpt>
      <trkpt lat="49.12521" lon="-0.02917">
        <ele>7.2</ele>
        <time>2024-03-03T10:15:52Z</time>
      </trkpt>
      <trkpt lat="49.12522" lon="-0.02927">
        <ele>7.3</ele>
        <time>2024-03-03T10:15:53Z</time>
      </trkpt>
      <trkpt lat="49.12522" lon="-0.02937">
        <ele>7.3</ele>
        <time>2024-03-03T10:15:54Z</time>
      </trkpt>
      <trkpt lat="49.12523" lon="-0.02948">
        <ele>7.3</ele>
        <time>2024-03-03T10:15:55Z</time>
      </trkpt>
      <trkpt lat="49.12523" lon="-0.02958">
        <ele>7.4</ele>
        <time>2024-03-03T10:15:56Z</time>
      </trkpt>
      <trkpt lat="49.12524" lon="-0.02969">
        <ele>7.4</ele>
        <time>2024-03-03T10:15:57Z</time>
      </trkpt>
      <trkpt lat="49.12525" lon="-0.0298">
        <ele>7.5</ele>
        <time>2024-03-03T10:15:58Z</time>
      </trkpt>
      <trkpt lat="49.12525" lon="-0.0299">
        <ele>7.6</ele>
        <time>2024-03-03T10:15:59Z</time>
      </trkpt>
      <trkpt lat="49.12525" lon="-0.03001">
        <ele>7.7</ele>
        <time>2024-03-03T10:16:00Z</time>
      </trkpt>
      <trkpt lat="49.12526" lon="-0.03012">
        <ele>7.8</ele>
        <time>2024-03-03T10:16:01Z</time>
      </trkpt>
      <trkpt lat="49.12526" lon="-0.03022">
        <ele>7.9</ele>
        <time>2024-03-03T10:16:02Z</time>
      </trkpt>
      <trkpt lat="49.12527" lon="-0.03032">
        <ele>7.9</ele>
        <time>2024-03-03T10:16:03Z</time>
      </trkpt>
      <trkpt lat="49.12527" lon="-0.03042">
        <ele>7.9</ele>
        <time>2024-03-03T10:16:04Z</time>
      </trkpt>
      <trkpt lat="49.12527" lon="-0.03052">
        <ele>7.9</ele>
        <time>2024-03-03T10:16:05Z</time>
      </trkpt>
      <trkpt lat="49.12528" lon="-0.03061">
        <ele>7.8</ele>
        <time>2024-03-03T10:16:06Z</time>
      </trkpt>
      <trkpt lat="49.12529" lon="-0.03071">
        <ele>7.7</ele>
        <time>2024-03-03T10:16:07Z</time>
      </trkpt>
      <trkpt lat="49.1253" lon="-0.03083">
        <ele>7.6</ele>
        <time>2024-03-03T10:16:08Z</time>
      </trkpt>
      <trkpt lat="49.1253" lon="-0.03094">
        <ele>7.5</ele>
        <time>2024-03-03T10:16:09Z</time>
      </trkpt>
      <trkpt lat="49.1253" lon="-0.03105">
        <ele>7.4</ele>
        <time>2024-03-03T10:16:10Z</time>
      </trkpt>
      <trkpt lat="49.12531" lon="-0.03117">
        <ele>7.3</ele>
        <time>2024-03-03T10:16:11Z</time>
      </trkpt>
      <trkpt lat="49.12531" lon="-0.03129">
        <ele>7.3</ele>
        <time>2024-03-03T10:16:12Z</time>
      </trkpt>
      <trkpt lat="49.12532" lon="-0.03141">
        <ele>7.2</ele>
        <time>2024-03-03T10:16:13Z</time>
      </trkpt>
      <trkpt lat="49.12532" lon="-0.03152">
        <ele>7.2</ele>
        <time>2024-03-03T10:16:14Z</time>
      </trkpt>
      <trkpt lat="49.12533" lon="-0.03163">
        <ele>7.2</ele>
        <time>2024-03-03T10:16:15Z</time>
      </trkpt>
      <trkpt lat="49.12534" lon="-0.03174">
        <ele>7.2</ele>
        <time>2024-03-03T10:16:16Z</time>
      </trkpt>
      <trkpt lat="49.12534" lon="-0.03185">
        <ele>7.2</ele>
        <time>2024-03-03T10:16:17Z</time>
      </trkpt>
      <trkpt lat="49.12535" lon="-0.03196">
        <ele>7.2</ele>
        <time>2024-03-03T10:16:18Z</time>
      </trkpt>
      <trkpt lat="49.12535" lon="-0.03207">
        <ele>7.2</ele>
        <time>2024-03-03T10:16:19Z</time>
      </trkpt>
      <trkpt lat="49.12536" lon="-0.03218">
        <ele>7.3</ele>
        <time>2024-03-03T10:16:20Z</time>
      </trkpt>
      <trkpt lat="49.12537" lon="-0.03229">
        <ele>7.3</ele>
        <time>2024-03-03T10:16:21Z</time>
      </trkpt>
      <trkpt lat="49.12537" lon="-0.03239">
        <ele>7.4</ele>
        <time>2024-03-03T10:16:22Z</time>
      </trkpt>
      <trkpt lat="49.12538" lon="-0.0325">
        <ele>7.4</ele>
        <time>2024-03-03T10:16:23Z</time>
      </trkpt>
      <trkpt lat="49.12538" lon="-0.03261">
        <ele>7.4</ele>
        <time>2024-03-03T10:16:24Z</time>
      </trkpt>
      <trkpt lat="49.12539" lon="-0.03272">
        <ele>7.4</ele>
        <time>2024-03-03T10:16:25Z</time>
      </trkpt>
      <trkpt lat="49.12539" lon="-0.03282">
        <ele>7.5</ele>
        <time>2024-03-03T10:16:26Z</time>
      </trkpt>
      <trkpt lat="49.1254" lon="-0.03293">
        <ele>7.5</ele>
        <time>2024-03-03T10:16:27Z</time>
      </trkpt>
      <trkpt lat="49.1254" lon="-0.03303">
        <ele>7.5</ele>
        <time>2024-03-03T10:16:28Z</time>
      </trkpt>
      <trkpt lat="49.12541" lon="-0.03314">
        <ele>7.5</ele>
        <time>2024-03-03T10:16:29Z</time>
      </trkpt>
      <trkpt lat="49.12542" lon="-0.03325">
        <ele>7.5</ele>
        <time>2024-03-03T10:16:30Z</time>
      </trkpt>
      <trkpt lat="49.12543" lon="-0.03336">
        <ele>7.5</ele>
        <time>2024-03-03T10:16:31Z</time>
      </trkpt>
      <trkpt lat="49.12544" lon="-0.03346">
        <ele>7.6</ele>
        <time>2024-03-03T10:16:32Z</time>
      </trkpt>
      <trkpt lat="49.12545" lon="-0.03357">
        <ele>7.6</ele>
        <time>2024-03-03T10:16:33Z</time>
      </trkpt>
      <trkpt lat="49.12546" lon="-0.03368">
        <ele>7.6</ele>
        <time>2024-03-03T10:16:34Z</time>
      </trkpt>
      <trkpt lat="49.12547" lon="-0.03379">
        <ele>7.6</ele>
        <time>2024-03-03T10:16:35Z</time>
      </trkpt>
      <trkpt lat="49.12549" lon="-0.03389">
        <ele>7.6</ele>
        <time>2024-03-03T10:16:36Z</time>
      </trkpt>
      <trkpt lat="49.1255" lon="-0.034">
        <ele>7.6</ele>
        <time>2024-03-03T10:16:37Z</time>
      </trkpt>
      <trkpt lat="49.12552" lon="-0.0341">
        <ele>7.7</ele>
        <time>2024-03-03T10:16:38Z</time>
      </trkpt>
      <trkpt lat="49.12553" lon="-0.03421">
        <ele>7.7</ele>
        <time>2024-03-03T10:16:39Z</time>
      </trkpt>
      <trkpt lat="49.12555" lon="-0.03431">
        <ele>7.7</ele>
        <time>2024-03-03T10:16:40Z</time>
      </trkpt>
      <trkpt lat="49.12556" lon="-0.03441">
        <ele>7.7</ele>
        <time>2024-03-03T10:16:41Z</time>
      </trkpt>
      <trkpt lat="49.12559" lon="-0.03451">
        <ele>7.8</ele>
        <time>2024-03-03T10:16:42Z</time>
      </trkpt>
      <trkpt lat="49.12561" lon="-0.03462">
        <ele>7.8</ele>
        <time>2024-03-03T10:16:43Z</time>
      </trkpt>
      <trkpt lat="49.12563" lon="-0.03472">
        <ele>7.8</ele>
        <time>2024-03-03T10:16:44Z</time>
      </trkpt>
      <trkpt lat="49.12565" lon="-0.03482">
        <ele>7.8</ele>
        <time>2024-03-03T10:16:45Z</time>
      </trkpt>
      <trkpt lat="49.12567" lon="-0.03493">
        <ele>7.8</ele>
        <time>2024-03-03T10:16:46Z</time>
      </trkpt>
      <trkpt lat="49.12569" lon="-0.03503">
        <ele>7.7</ele>
        <time>2024-03-03T10:16:47Z</time>
      </trkpt>
      <trkpt lat="49.12571" lon="-0.03513">
        <ele>7.8</ele>
        <time>2024-03-03T10:16:48Z</time>
      </trkpt>
      <trkpt lat="49.12573" lon="-0.03524">
        <ele>7.8</ele>
        <time>2024-03-03T10:16:49Z</time>
      </trkpt>
      <trkpt lat="49.12574" lon="-0.03534">
        <ele>7.8</ele>
        <time>2024-03-03T10:16:50Z</time>
      </trkpt>
      <trkpt lat="49.12576" lon="-0.03543">
        <ele>7.8</ele>
        <time>2024-03-03T10:16:51Z</time>
      </trkpt>
      <trkpt lat="49.12578" lon="-0.03553">
        <ele>7.9</ele>
        <time>2024-03-03T10:16:52Z</time>
      </trkpt>
      <trkpt lat="49.1258" lon="-0.03563">
        <ele>7.9</ele>
        <time>2024-03-03T10:16:53Z</time>
      </trkpt>
      <trkpt lat="49.12583" lon="-0.03573">
        <ele>7.9</ele>
        <time>2024-03-03T10:16:54Z</time>
      </trkpt>
      <trkpt lat="49.12585" lon="-0.03584">
        <ele>8</ele>
        <time>2024-03-03T10:16:55Z</time>
      </trkpt>
      <trkpt lat="49.12587" lon="-0.03594">
        <ele>8</ele>
        <time>2024-03-03T10:16:56Z</time>
      </trkpt>
      <trkpt lat="49.1259" lon="-0.03604">
        <ele>8</ele>
        <time>2024-03-03T10:16:57Z</time>
      </trkpt>
      <trkpt lat="49.12592" lon="-0.03614">
        <ele>8.1</ele>
        <time>2024-03-03T10:16:58Z</time>
      </trkpt>
      <trkpt lat="49.12594" lon="-0.03624">
        <ele>8.1</ele>
        <time>2024-03-03T10:16:59Z</time>
      </trkpt>
      <trkpt lat="49.12596" lon="-0.03634">
        <ele>8.2</ele>
        <time>2024-03-03T10:17:00Z</time>
      </trkpt>
      <trkpt lat="49.12599" lon="-0.03645">
        <ele>8.2</ele>
        <time>2024-03-03T10:17:01Z</time>
      </trkpt>
      <trkpt lat="49.12601" lon="-0.03655">
        <ele>8.3</ele>
        <time>2024-03-03T10:17:02Z</time>
      </trkpt>
      <trkpt lat="49.12603" lon="-0.03665">
        <ele>8.3</ele>
        <time>2024-03-03T10:17:03Z</time>
      </trkpt>
      <trkpt lat="49.12605" lon="-0.03674">
        <ele>8.4</ele>
        <time>2024-03-03T10:17:04Z</time>
      </trkpt>
      <trkpt lat="49.12608" lon="-0.03684">
        <ele>8.4</ele>
        <time>2024-03-03T10:17:05Z</time>
      </trkpt>
      <trkpt lat="49.1261" lon="-0.03695">
        <ele>8.4</ele>
        <time>2024-03-03T10:17:06Z</time>
      </trkpt>
      <trkpt lat="49.12613" lon="-0.03705">
        <ele>8.5</ele>
        <time>2024-03-03T10:17:07Z</time>
      </trkpt>
      <trkpt lat="49.12615" lon="-0.03715">
        <ele>8.5</ele>
        <time>2024-03-03T10:17:08Z</time>
      </trkpt>
      <trkpt lat="49.12618" lon="-0.03726">
        <ele>8.5</ele>
        <time>2024-03-03T10:17:09Z</time>
      </trkpt>
      <trkpt lat="49.1262" lon="-0.03736">
        <ele>8.5</ele>
        <time>2024-03-03T10:17:10Z</time>
      </trkpt>
      <trkpt lat="49.12622" lon="-0.03746">
        <ele>8.5</ele>
        <time>2024-03-03T10:17:11Z</time>
      </trkpt>
      <trkpt lat="49.12624" lon="-0.03757">
        <ele>8.5</ele>
        <time>2024-03-03T10:17:12Z</time>
      </trkpt>
      <trkpt lat="49.12626" lon="-0.03768">
        <ele>8.5</ele>
        <time>2024-03-03T10:17:13Z</time>
      </trkpt>
      <trkpt lat="49.12628" lon="-0.03778">
        <ele>8.5</ele>
        <time>2024-03-03T10:17:14Z</time>
      </trkpt>
      <trkpt lat="49.12629" lon="-0.03788">
        <ele>8.5</ele>
        <time>2024-03-03T10:17:15Z</time>
      </trkpt>
      <trkpt lat="49.1263" lon="-0.03799">
        <ele>8.5</ele>
        <time>2024-03-03T10:17:16Z</time>
      </trkpt>
      <trkpt lat="49.12631" lon="-0.03809">
        <ele>8.6</ele>
        <time>2024-03-03T10:17:17Z</time>
      </trkpt>
      <trkpt lat="49.12631" lon="-0.03819">
        <ele>8.6</ele>
        <time>2024-03-03T10:17:18Z</time>
      </trkpt>
      <trkpt lat="49.12631" lon="-0.0383">
        <ele>8.6</ele>
        <time>2024-03-03T10:17:19Z</time>
      </trkpt>
      <trkpt lat="49.1263" lon="-0.0384">
        <ele>8.6</ele>
        <time>2024-03-03T10:17:20Z</time>
      </trkpt>
      <trkpt lat="49.12628" lon="-0.03851">
        <ele>8.6</ele>
        <time>2024-03-03T10:17:21Z</time>
      </trkpt>
      <trkpt lat="49.12626" lon="-0.03863">
        <ele>8.6</ele>
        <time>2024-03-03T10:17:22Z</time>
      </trkpt>
      <trkpt lat="49.12624" lon="-0.03874">
        <ele>8.5</ele>
        <time>2024-03-03T10:17:23Z</time>
      </trkpt>
      <trkpt lat="49.12621" lon="-0.03884">
        <ele>8.4</ele>
        <time>2024-03-03T10:17:24Z</time>
      </trkpt>
      <trkpt lat="49.12617" lon="-0.03893">
        <ele>8.4</ele>
        <time>2024-03-03T10:17:25Z</time>
      </trkpt>
      <trkpt lat="49.12615" lon="-0.03903">
        <ele>8.4</ele>
        <time>2024-03-03T10:17:26Z</time>
      </trkpt>
      <trkpt lat="49.12613" lon="-0.03912">
        <ele>8.4</ele>
        <time>2024-03-03T10:17:27Z</time>
      </trkpt>
      <trkpt lat="49.12612" lon="-0.03921">
        <ele>8.4</ele>
        <time>2024-03-03T10:17:28Z</time>
      </trkpt>
      <trkpt lat="49.1261" lon="-0.03931">
        <ele>8.3</ele>
        <time>2024-03-03T10:17:29Z</time>
      </trkpt>
      <trkpt lat="49.12608" lon="-0.03939">
        <ele>8.3</ele>
        <time>2024-03-03T10:17:30Z</time>
      </trkpt>
      <trkpt lat="49.12607" lon="-0.03947">
        <ele>8.3</ele>
        <time>2024-03-03T10:17:31Z</time>
      </trkpt>
      <trkpt lat="49.12606" lon="-0.03954">
        <ele>8.3</ele>
        <time>2024-03-03T10:17:32Z</time>
      </trkpt>
      <trkpt lat="49.12605" lon="-0.03961">
        <ele>8.3</ele>
        <time>2024-03-03T10:17:33Z</time>
      </trkpt>
      <trkpt lat="49.12605" lon="-0.03967">
        <ele>8.3</ele>
        <time>2024-03-03T10:17:34Z</time>
      </trkpt>
      <trkpt lat="49.12604" lon="-0.03971">
        <ele>8.4</ele>
        <time>2024-03-03T10:17:35Z</time>
      </trkpt>
      <trkpt lat="49.12604" lon="-0.03976">
        <ele>8.4</ele>
        <time>2024-03-03T10:17:36Z</time>
      </trkpt>
      <trkpt lat="49.12604" lon="-0.03978">
        <ele>8.4</ele>
        <time>2024-03-03T10:17:37Z</time>
      </trkpt>
      <trkpt lat="49.12604" lon="-0.03983">
        <ele>8.4</ele>
        <time>2024-03-03T10:17:38Z</time>
      </trkpt>
      <trkpt lat="49.12604" lon="-0.03987">
        <ele>8.3</ele>
        <time>2024-03-03T10:17:39Z</time>
      </trkpt>
      <trkpt lat="49.12603" lon="-0.03993">
        <ele>8.3</ele>
        <time>2024-03-03T10:17:40Z</time>
      </trkpt>
      <trkpt lat="49.12602" lon="-0.03999">
        <ele>8.2</ele>
        <time>2024-03-03T10:17:41Z</time>
      </trkpt>
      <trkpt lat="49.126" lon="-0.04006">
        <ele>8.2</ele>
        <time>2024-03-03T10:17:42Z</time>
      </trkpt>
      <trkpt lat="49.12597" lon="-0.04013">
        <ele>8.1</ele>
        <time>2024-03-03T10:17:43Z</time>
      </trkpt>
      <trkpt lat="49.12594" lon="-0.04021">
        <ele>8</ele>
        <time>2024-03-03T10:17:44Z</time>
      </trkpt>
      <trkpt lat="49.1259" lon="-0.04028">
        <ele>8</ele>
        <time>2024-03-03T10:17:45Z</time>
      </trkpt>
      <trkpt lat="49.12587" lon="-0.04036">
        <ele>7.9</ele>
        <time>2024-03-03T10:17:46Z</time>
      </trkpt>
      <trkpt lat="49.12583" lon="-0.04043">
        <ele>7.9</ele>
        <time>2024-03-03T10:17:47Z</time>
      </trkpt>
      <trkpt lat="49.1258" lon="-0.04051">
        <ele>7.8</ele>
        <time>2024-03-03T10:17:48Z</time>
      </trkpt>
      <trkpt lat="49.12576" lon="-0.04058">
        <ele>7.8</ele>
        <time>2024-03-03T10:17:49Z</time>
      </trkpt>
      <trkpt lat="49.12573" lon="-0.04066">
        <ele>7.8</ele>
        <time>2024-03-03T10:17:50Z</time>
      </trkpt>
      <trkpt lat="49.12569" lon="-0.04074">
        <ele>7.8</ele>
        <time>2024-03-03T10:17:51Z</time>
      </trkpt>
      <trkpt lat="49.12565" lon="-0.04082">
        <ele>7.7</ele>
        <time>2024-03-03T10:17:52Z</time>
      </trkpt>
      <trkpt lat="49.12561" lon="-0.0409">
        <ele>7.7</ele>
        <time>2024-03-03T10:17:53Z</time>
      </trkpt>
      <trkpt lat="49.12558" lon="-0.04098">
        <ele>7.6</ele>
        <time>2024-03-03T10:17:54Z</time>
      </trkpt>
      <trkpt lat="49.12554" lon="-0.04107">
        <ele>7.6</ele>
        <time>2024-03-03T10:17:55Z</time>
      </trkpt>
      <trkpt lat="49.1255" lon="-0.04115">
        <ele>7.5</ele>
        <time>2024-03-03T10:17:56Z</time>
      </trkpt>
      <trkpt lat="49.12546" lon="-0.04124">
        <ele>7.5</ele>
        <time>2024-03-03T10:17:57Z</time>
      </trkpt>
      <trkpt lat="49.12543" lon="-0.04132">
        <ele>7.4</ele>
        <time>2024-03-03T10:17:58Z</time>
      </trkpt>
      <trkpt lat="49.12539" lon="-0.0414">
        <ele>7.3</ele>
        <time>2024-03-03T10:17:59Z</time>
      </trkpt>
      <trkpt lat="49.12535" lon="-0.04149">
        <ele>7.3</ele>
        <time>2024-03-03T10:18:00Z</time>
      </trkpt>
      <trkpt lat="49.12532" lon="-0.04159">
        <ele>7.2</ele>
        <time>2024-03-03T10:18:01Z</time>
      </trkpt>
      <trkpt lat="49.12529" lon="-0.04168">
        <ele>7.1</ele>
        <time>2024-03-03T10:18:02Z</time>
      </trkpt>
      <trkpt lat="49.12526" lon="-0.04177">
        <ele>7.1</ele>
        <time>2024-03-03T10:18:03Z</time>
      </trkpt>
      <trkpt lat="49.12523" lon="-0.04187">
        <ele>7</ele>
        <time>2024-03-03T10:18:04Z</time>
      </trkpt>
      <trkpt lat="49.12522" lon="-0.04197">
        <ele>6.9</ele>
        <time>2024-03-03T10:18:05Z</time>
      </trkpt>
      <trkpt lat="49.12519" lon="-0.04208">
        <ele>6.9</ele>
        <time>2024-03-03T10:18:06Z</time>
      </trkpt>
      <trkpt lat="49.12518" lon="-0.04219">
        <ele>6.8</ele>
        <time>2024-03-03T10:18:07Z</time>
      </trkpt>
      <trkpt lat="49.12516" lon="-0.0423">
        <ele>6.8</ele>
        <time>2024-03-03T10:18:08Z</time>
      </trkpt>
      <trkpt lat="49.12514" lon="-0.04241">
        <ele>6.8</ele>
        <time>2024-03-03T10:18:09Z</time>
      </trkpt>
      <trkpt lat="49.12512" lon="-0.04252">
        <ele>6.7</ele>
        <time>2024-03-03T10:18:10Z</time>
      </trkpt>
      <trkpt lat="49.1251" lon="-0.04262">
        <ele>6.7</ele>
        <time>2024-03-03T10:18:11Z</time>
      </trkpt>
      <trkpt lat="49.12507" lon="-0.04273">
        <ele>6.7</ele>
        <time>2024-03-03T10:18:12Z</time>
      </trkpt>
      <trkpt lat="49.12505" lon="-0.04283">
        <ele>6.7</ele>
        <time>2024-03-03T10:18:13Z</time>
      </trkpt>
      <trkpt lat="49.12503" lon="-0.04293">
        <ele>6.7</ele>
        <time>2024-03-03T10:18:14Z</time>
      </trkpt>
      <trkpt lat="49.12501" lon="-0.04304">
        <ele>6.7</ele>
        <time>2024-03-03T10:18:15Z</time>
      </trkpt>
      <trkpt lat="49.12499" lon="-0.04314">
        <ele>6.7</ele>
        <time>2024-03-03T10:18:16Z</time>
      </trkpt>
      <trkpt lat="49.12496" lon="-0.04325">
        <ele>6.7</ele>
        <time>2024-03-03T10:18:17Z</time>
      </trkpt>
      <trkpt lat="49.12494" lon="-0.04335">
        <ele>6.7</ele>
        <time>2024-03-03T10:18:18Z</time>
      </trkpt>
      <trkpt lat="49.12492" lon="-0.04345">
        <ele>6.7</ele>
        <time>2024-03-03T10:18:19Z</time>
      </trkpt>
      <trkpt lat="49.12489" lon="-0.04355">
        <ele>6.7</ele>
        <time>2024-03-03T10:18:20Z</time>
      </trkpt>
      <trkpt lat="49.12486" lon="-0.04365">
        <ele>6.7</ele>
        <time>2024-03-03T10:18:21Z</time>
      </trkpt>
      <trkpt lat="49.12483" lon="-0.04376">
        <ele>6.7</ele>
        <time>2024-03-03T10:18:22Z</time>
      </trkpt>
      <trkpt lat="49.1248" lon="-0.04386">
        <ele>6.7</ele>
        <time>2024-03-03T10:18:23Z</time>
      </trkpt>
      <trkpt lat="49.12477" lon="-0.04396">
        <ele>6.7</ele>
        <time>2024-03-03T10:18:24Z</time>
      </trkpt>
      <trkpt lat="49.12474" lon="-0.04406">
        <ele>6.7</ele>
        <time>2024-03-03T10:18:25Z</time>
      </trkpt>
      <trkpt lat="49.12471" lon="-0.04416">
        <ele>6.7</ele>
        <time>2024-03-03T10:18:26Z</time>
      </trkpt>
      <trkpt lat="49.12467" lon="-0.04426">
        <ele>6.7</ele>
        <time>2024-03-03T10:18:27Z</time>
      </trkpt>
      <trkpt lat="49.12464" lon="-0.04436">
        <ele>6.7</ele>
        <time>2024-03-03T10:18:28Z</time>
      </trkpt>
      <trkpt lat="49.12461" lon="-0.04445">
        <ele>6.7</ele>
        <time>2024-03-03T10:18:29Z</time>
      </trkpt>
      <trkpt lat="49.12458" lon="-0.04455">
        <ele>6.8</ele>
        <time>2024-03-03T10:18:30Z</time>
      </trkpt>
      <trkpt lat="49.12455" lon="-0.04464">
        <ele>6.8</ele>
        <time>2024-03-03T10:18:31Z</time>
      </trkpt>
      <trkpt lat="49.12451" lon="-0.04474">
        <ele>6.8</ele>
        <time>2024-03-03T10:18:32Z</time>
      </trkpt>
      <trkpt lat="49.12448" lon="-0.04483">
        <ele>6.8</ele>
        <time>2024-03-03T10:18:33Z</time>
      </trkpt>
      <trkpt lat="49.12445" lon="-0.04493">
        <ele>6.8</ele>
        <time>2024-03-03T10:18:34Z</time>
      </trkpt>
      <trkpt lat="49.12441" lon="-0.04503">
        <ele>6.9</ele>
        <time>2024-03-03T10:18:35Z</time>
      </trkpt>
      <trkpt lat="49.12438" lon="-0.04512">
        <ele>6.9</ele>
        <time>2024-03-03T10:18:36Z</time>
      </trkpt>
      <trkpt lat="49.12435" lon="-0.04522">
        <ele>6.9</ele>
        <time>2024-03-03T10:18:37Z</time>
      </trkpt>
      <trkpt lat="49.12431" lon="-0.04531">
        <ele>6.9</ele>
        <time>2024-03-03T10:18:38Z</time>
      </trkpt>
      <trkpt lat="49.12428" lon="-0.04541">
        <ele>6.9</ele>
        <time>2024-03-03T10:18:39Z</time>
      </trkpt>
      <trkpt lat="49.12425" lon="-0.0455">
        <ele>6.9</ele>
        <time>2024-03-03T10:18:40Z</time>
      </trkpt>
      <trkpt lat="49.12422" lon="-0.0456">
        <ele>6.9</ele>
        <time>2024-03-03T10:18:41Z</time>
      </trkpt>
      <trkpt lat="49.12418" lon="-0.04569">
        <ele>6.9</ele>
        <time>2024-03-03T10:18:42Z</time>
      </trkpt>
      <trkpt lat="49.12415" lon="-0.04579">
        <ele>6.9</ele>
        <time>2024-03-03T10:18:43Z</time>
      </trkpt>
      <trkpt lat="49.12411" lon="-0.04588">
        <ele>6.9</ele>
        <time>2024-03-03T10:18:44Z</time>
      </trkpt>
      <trkpt lat="49.12408" lon="-0.04598">
        <ele>6.9</ele>
        <time>2024-03-03T10:18:45Z</time>
      </trkpt>
      <trkpt lat="49.12404" lon="-0.04608">
        <ele>6.9</ele>
        <time>2024-03-03T10:18:46Z</time>
      </trkpt>
      <trkpt lat="49.12401" lon="-0.04617">
        <ele>6.9</ele>
        <time>2024-03-03T10:18:47Z</time>
      </trkpt>
      <trkpt lat="49.12398" lon="-0.04626">
        <ele>6.9</ele>
        <time>2024-03-03T10:18:48Z</time>
      </trkpt>
      <trkpt lat="49.12395" lon="-0.04635">
        <ele>6.9</ele>
        <time>2024-03-03T10:18:49Z</time>
      </trkpt>
      <trkpt lat="49.12392" lon="-0.04645">
        <ele>6.9</ele>
        <time>2024-03-03T10:18:50Z</time>
      </trkpt>
      <trkpt lat="49.12388" lon="-0.04654">
        <ele>6.9</ele>
        <time>2024-03-03T10:18:51Z</time>
      </trkpt>
      <trkpt lat="49.12385" lon="-0.04664">
        <ele>6.8</ele>
        <time>2024-03-03T10:18:52Z</time>
      </trkpt>
      <trkpt lat="49.12381" lon="-0.04673">
        <ele>6.8</ele>
        <time>2024-03-03T10:18:53Z</time>
      </trkpt>
      <trkpt lat="49.12378" lon="-0.04682">
        <ele>6.8</ele>
        <time>2024-03-03T10:18:54Z</time>
      </trkpt>
      <trkpt lat="49.12375" lon="-0.04692">
        <ele>6.8</ele>
        <time>2024-03-03T10:18:55Z</time>
      </trkpt>
      <trkpt lat="49.12371" lon="-0.04701">
        <ele>6.8</ele>
        <time>2024-03-03T10:18:56Z</time>
      </trkpt>
      <trkpt lat="49.12368" lon="-0.0471">
        <ele>6.8</ele>
        <time>2024-03-03T10:18:57Z</time>
      </trkpt>
      <trkpt lat="49.12365" lon="-0.0472">
        <ele>6.8</ele>
        <time>2024-03-03T10:18:58Z</time>
      </trkpt>
      <trkpt lat="49.12362" lon="-0.0473">
        <ele>6.8</ele>
        <time>2024-03-03T10:18:59Z</time>
      </trkpt>
      <trkpt lat="49.12359" lon="-0.0474">
        <ele>6.8</ele>
        <time>2024-03-03T10:19:00Z</time>
      </trkpt>
      <trkpt lat="49.12356" lon="-0.0475">
        <ele>6.8</ele>
        <time>2024-03-03T10:19:01Z</time>
      </trkpt>
      <trkpt lat="49.12354" lon="-0.0476">
        <ele>6.8</ele>
        <time>2024-03-03T10:19:02Z</time>
      </trkpt>
      <trkpt lat="49.12352" lon="-0.0477">
        <ele>6.8</ele>
        <time>2024-03-03T10:19:03Z</time>
      </trkpt>
      <trkpt lat="49.12351" lon="-0.0478">
        <ele>6.8</ele>
        <time>2024-03-03T10:19:04Z</time>
      </trkpt>
      <trkpt lat="49.1235" lon="-0.04791">
        <ele>6.8</ele>
        <time>2024-03-03T10:19:05Z</time>
      </trkpt>
      <trkpt lat="49.12349" lon="-0.04802">
        <ele>6.9</ele>
        <time>2024-03-03T10:19:06Z</time>
      </trkpt>
      <trkpt lat="49.12349" lon="-0.04813">
        <ele>6.9</ele>
        <time>2024-03-03T10:19:07Z</time>
      </trkpt>
      <trkpt lat="49.12349" lon="-0.04824">
        <ele>6.9</ele>
        <time>2024-03-03T10:19:08Z</time>
      </trkpt>
      <trkpt lat="49.12348" lon="-0.04835">
        <ele>6.9</ele>
        <time>2024-03-03T10:19:09Z</time>
      </trkpt>
      <trkpt lat="49.12347" lon="-0.04846">
        <ele>6.9</ele>
        <time>2024-03-03T10:19:10Z</time>
      </trkpt>
      <trkpt lat="49.12346" lon="-0.04857">
        <ele>6.9</ele>
        <time>2024-03-03T10:19:11Z</time>
      </trkpt>
      <trkpt lat="49.12344" lon="-0.04868">
        <ele>6.9</ele>
        <time>2024-03-03T10:19:12Z</time>
      </trkpt>
      <trkpt lat="49.12342" lon="-0.04878">
        <ele>6.9</ele>
        <time>2024-03-03T10:19:13Z</time>
      </trkpt>
      <trkpt lat="49.1234" lon="-0.04888">
        <ele>6.9</ele>
        <time>2024-03-03T10:19:14Z</time>
      </trkpt>
      <trkpt lat="49.12338" lon="-0.04898">
        <ele>6.9</ele>
        <time>2024-03-03T10:19:15Z</time>
      </trkpt>
      <trkpt lat="49.12336" lon="-0.04908">
        <ele>7</ele>
        <time>2024-03-03T10:19:16Z</time>
      </trkpt>
      <trkpt lat="49.12333" lon="-0.04919">
        <ele>7</ele>
        <time>2024-03-03T10:19:17Z</time>
      </trkpt>
      <trkpt lat="49.12331" lon="-0.04929">
        <ele>7</ele>
        <time>2024-03-03T10:19:18Z</time>
      </trkpt>
      <trkpt lat="49.12329" lon="-0.0494">
        <ele>7.1</ele>
        <time>2024-03-03T10:19:19Z</time>
      </trkpt>
      <trkpt lat="49.12327" lon="-0.0495">
        <ele>7.1</ele>
        <time>2024-03-03T10:19:20Z</time>
      </trkpt>
      <trkpt lat="49.12325" lon="-0.0496">
        <ele>7.2</ele>
        <time>2024-03-03T10:19:21Z</time>
      </trkpt>
      <trkpt lat="49.12323" lon="-0.04969">
        <ele>7.2</ele>
        <time>2024-03-03T10:19:22Z</time>
      </trkpt>
      <trkpt lat="49.12321" lon="-0.04979">
        <ele>7.3</ele>
        <time>2024-03-03T10:19:23Z</time>
      </trkpt>
      <trkpt lat="49.12319" lon="-0.04989">
        <ele>7.3</ele>
        <time>2024-03-03T10:19:24Z</time>
      </trkpt>
      <trkpt lat="49.12317" lon="-0.04999">
        <ele>7.3</ele>
        <time>2024-03-03T10:19:25Z</time>
      </trkpt>
      <trkpt lat="49.12315" lon="-0.05009">
        <ele>7.3</ele>
        <time>2024-03-03T10:19:26Z</time>
      </trkpt>
      <trkpt lat="49.12313" lon="-0.05019">
        <ele>7.3</ele>
        <time>2024-03-03T10:19:27Z</time>
      </trkpt>
      <trkpt lat="49.12311" lon="-0.05029">
        <ele>7.4</ele>
        <time>2024-03-03T10:19:28Z</time>
      </trkpt>
      <trkpt lat="49.12309" lon="-0.05039">
        <ele>7.4</ele>
        <time>2024-03-03T10:19:29Z</time>
      </trkpt>
      <trkpt lat="49.12306" lon="-0.05049">
        <ele>7.4</ele>
        <time>2024-03-03T10:19:30Z</time>
      </trkpt>
      <trkpt lat="49.12304" lon="-0.0506">
        <ele>7.4</ele>
        <time>2024-03-03T10:19:31Z</time>
      </trkpt>
      <trkpt lat="49.12302" lon="-0.0507">
        <ele>7.4</ele>
        <time>2024-03-03T10:19:32Z</time>
      </trkpt>
      <trkpt lat="49.123" lon="-0.0508">
        <ele>7.5</ele>
        <time>2024-03-03T10:19:33Z</time>
      </trkpt>
      <trkpt lat="49.12298" lon="-0.05091">
        <ele>7.6</ele>
        <time>2024-03-03T10:19:34Z</time>
      </trkpt>
      <trkpt lat="49.12296" lon="-0.05101">
        <ele>7.6</ele>
        <time>2024-03-03T10:19:35Z</time>
      </trkpt>
      <trkpt lat="49.12294" lon="-0.0511">
        <ele>7.7</ele>
        <time>2024-03-03T10:19:36Z</time>
      </trkpt>
      <trkpt lat="49.12292" lon="-0.0512">
        <ele>7.8</ele>
        <time>2024-03-03T10:19:37Z</time>
      </trkpt>
      <trkpt lat="49.1229" lon="-0.05129">
        <ele>7.8</ele>
        <time>2024-03-03T10:19:38Z</time>
      </trkpt>
      <trkpt lat="49.12289" lon="-0.05138">
        <ele>7.9</ele>
        <time>2024-03-03T10:19:39Z</time>
      </trkpt>
      <trkpt lat="49.12288" lon="-0.05146">
        <ele>8</ele>
        <time>2024-03-03T10:19:40Z</time>
      </trkpt>
      <trkpt lat="49.12286" lon="-0.05152">
        <ele>8.1</ele>
        <time>2024-03-03T10:19:41Z</time>
      </trkpt>
      <trkpt lat="49.12286" lon="-0.05157">
        <ele>8.1</ele>
        <time>2024-03-03T10:19:42Z</time>
      </trkpt>
      <trkpt lat="49.12285" lon="-0.05161">
        <ele>8.1</ele>
        <time>2024-03-03T10:19:43Z</time>
      </trkpt>
      <trkpt lat="49.12286" lon="-0.05166">
        <ele>8.1</ele>
        <time>2024-03-03T10:19:44Z</time>
      </trkpt>
      <trkpt lat="49.12287" lon="-0.05168">
        <ele>8.1</ele>
        <time>2024-03-03T10:19:45Z</time>
      </trkpt>
      <trkpt lat="49.12289" lon="-0.05172">
        <ele>8.2</ele>
        <time>2024-03-03T10:19:46Z</time>
      </trkpt>
      <trkpt lat="49.12292" lon="-0.05175">
        <ele>8.2</ele>
        <time>2024-03-03T10:19:47Z</time>
      </trkpt>
      <trkpt lat="49.12296" lon="-0.05177">
        <ele>8.2</ele>
        <time>2024-03-03T10:19:48Z</time>
      </trkpt>
      <trkpt lat="49.123" lon="-0.05179">
        <ele>8.3</ele>
        <time>2024-03-03T10:19:49Z</time>
      </trkpt>
      <trkpt lat="49.12304" lon="-0.05182">
        <ele>8.4</ele>
        <time>2024-03-03T10:19:50Z</time>
      </trkpt>
      <trkpt lat="49.12308" lon="-0.05184">
        <ele>8.4</ele>
        <time>2024-03-03T10:19:51Z</time>
      </trkpt>
      <trkpt lat="49.12311" lon="-0.05188">
        <ele>8.5</ele>
        <time>2024-03-03T10:19:52Z</time>
      </trkpt>
      <trkpt lat="49.12315" lon="-0.05192">
        <ele>8.5</ele>
        <time>2024-03-03T10:19:53Z</time>
      </trkpt>
      <trkpt lat="49.12318" lon="-0.05198">
        <ele>8.6</ele>
        <time>2024-03-03T10:19:54Z</time>
      </trkpt>
      <trkpt lat="49.12322" lon="-0.05203">
        <ele>8.6</ele>
        <time>2024-03-03T10:19:55Z</time>
      </trkpt>
      <trkpt lat="49.12326" lon="-0.05209">
        <ele>8.7</ele>
        <time>2024-03-03T10:19:56Z</time>
      </trkpt>
      <trkpt lat="49.1233" lon="-0.05215">
        <ele>8.7</ele>
        <time>2024-03-03T10:19:57Z</time>
      </trkpt>
      <trkpt lat="49.12334" lon="-0.0522">
        <ele>8.8</ele>
        <time>2024-03-03T10:19:58Z</time>
      </trkpt>
      <trkpt lat="49.12337" lon="-0.05224">
        <ele>8.9</ele>
        <time>2024-03-03T10:19:59Z</time>
      </trkpt>
      <trkpt lat="49.12339" lon="-0.05229">
        <ele>8.9</ele>
        <time>2024-03-03T10:20:00Z</time>
      </trkpt>
      <trkpt lat="49.12341" lon="-0.05233">
        <ele>9</ele>
        <time>2024-03-03T10:20:01Z</time>
      </trkpt>
      <trkpt lat="49.12343" lon="-0.05238">
        <ele>9</ele>
        <time>2024-03-03T10:20:02Z</time>
      </trkpt>
      <trkpt lat="49.12344" lon="-0.05244">
        <ele>9.1</ele>
        <time>2024-03-03T10:20:03Z</time>
      </trkpt>
      <trkpt lat="49.12343" lon="-0.05252">
        <ele>9</ele>
        <time>2024-03-03T10:20:04Z</time>
      </trkpt>
      <trkpt lat="49.1234" lon="-0.05259">
        <ele>8.8</ele>
        <time>2024-03-03T10:20:05Z</time>
      </trkpt>
      <trkpt lat="49.12336" lon="-0.05265">
        <ele>8.7</ele>
        <time>2024-03-03T10:20:06Z</time>
      </trkpt>
      <trkpt lat="49.12332" lon="-0.05272">
        <ele>8.6</ele>
        <time>2024-03-03T10:20:07Z</time>
      </trkpt>
      <trkpt lat="49.12328" lon="-0.05278">
        <ele>8.4</ele>
        <time>2024-03-03T10:20:08Z</time>
      </trkpt>
      <trkpt lat="49.12324" lon="-0.05286">
        <ele>8.4</ele>
        <time>2024-03-03T10:20:09Z</time>
      </trkpt>
      <trkpt lat="49.12321" lon="-0.05293">
        <ele>8.3</ele>
        <time>2024-03-03T10:20:10Z</time>
      </trkpt>
      <trkpt lat="49.12317" lon="-0.053">
        <ele>8.3</ele>
        <time>2024-03-03T10:20:11Z</time>
      </trkpt>
      <trkpt lat="49.12313" lon="-0.05308">
        <ele>8.2</ele>
        <time>2024-03-03T10:20:12Z</time>
      </trkpt>
      <trkpt lat="49.12309" lon="-0.05315">
        <ele>8.2</ele>
        <time>2024-03-03T10:20:13Z</time>
      </trkpt>
      <trkpt lat="49.12306" lon="-0.05323">
        <ele>8.2</ele>
        <time>2024-03-03T10:20:14Z</time>
      </trkpt>
      <trkpt lat="49.12302" lon="-0.0533">
        <ele>8.2</ele>
        <time>2024-03-03T10:20:15Z</time>
      </trkpt>
      <trkpt lat="49.12298" lon="-0.05338">
        <ele>8.1</ele>
        <time>2024-03-03T10:20:16Z</time>
      </trkpt>
      <trkpt lat="49.12295" lon="-0.05346">
        <ele>8.1</ele>
        <time>2024-03-03T10:20:17Z</time>
      </trkpt>
      <trkpt lat="49.12291" lon="-0.05354">
        <ele>8.1</ele>
        <time>2024-03-03T10:20:18Z</time>
      </trkpt>
      <trkpt lat="49.12288" lon="-0.05363">
        <ele>8.1</ele>
        <time>2024-03-03T10:20:19Z</time>
      </trkpt>
      <trkpt lat="49.12284" lon="-0.05372">
        <ele>8.1</ele>
        <time>2024-03-03T10:20:20Z</time>
      </trkpt>
      <trkpt lat="49.12281" lon="-0.05381">
        <ele>8.1</ele>
        <time>2024-03-03T10:20:21Z</time>
      </trkpt>
      <trkpt lat="49.12278" lon="-0.0539">
        <ele>8.1</ele>
        <time>2024-03-03T10:20:22Z</time>
      </trkpt>
      <trkpt lat="49.12274" lon="-0.05398">
        <ele>8.1</ele>
        <time>2024-03-03T10:20:23Z</time>
      </trkpt>
      <trkpt lat="49.12272" lon="-0.05407">
        <ele>8.1</ele>
        <time>2024-03-03T10:20:24Z</time>
      </trkpt>
      <trkpt lat="49.12268" lon="-0.05416">
        <ele>8.1</ele>
        <time>2024-03-03T10:20:25Z</time>
      </trkpt>
      <trkpt lat="49.12265" lon="-0.05425">
        <ele>8.2</ele>
        <time>2024-03-03T10:20:26Z</time>
      </trkpt>
      <trkpt lat="49.12262" lon="-0.05435">
        <ele>8.2</ele>
        <time>2024-03-03T10:20:27Z</time>
      </trkpt>
      <trkpt lat="49.1226" lon="-0.05445">
        <ele>8.2</ele>
        <time>2024-03-03T10:20:28Z</time>
      </trkpt>
      <trkpt lat="49.12257" lon="-0.05454">
        <ele>8.2</ele>
        <time>2024-03-03T10:20:29Z</time>
      </trkpt>
      <trkpt lat="49.12254" lon="-0.05464">
        <ele>8.3</ele>
        <time>2024-03-03T10:20:30Z</time>
      </trkpt>
      <trkpt lat="49.12251" lon="-0.05473">
        <ele>8.3</ele>
        <time>2024-03-03T10:20:31Z</time>
      </trkpt>
      <trkpt lat="49.12249" lon="-0.05483">
        <ele>8.3</ele>
        <time>2024-03-03T10:20:32Z</time>
      </trkpt>
      <trkpt lat="49.12246" lon="-0.05492">
        <ele>8.3</ele>
        <time>2024-03-03T10:20:33Z</time>
      </trkpt>
      <trkpt lat="49.12244" lon="-0.05502">
        <ele>8.4</ele>
        <time>2024-03-03T10:20:34Z</time>
      </trkpt>
      <trkpt lat="49.12241" lon="-0.05512">
        <ele>8.4</ele>
        <time>2024-03-03T10:20:35Z</time>
      </trkpt>
      <trkpt lat="49.12239" lon="-0.05522">
        <ele>8.4</ele>
        <time>2024-03-03T10:20:36Z</time>
      </trkpt>
      <trkpt lat="49.12236" lon="-0.05532">
        <ele>8.4</ele>
        <time>2024-03-03T10:20:37Z</time>
      </trkpt>
      <trkpt lat="49.12234" lon="-0.05542">
        <ele>8.5</ele>
        <time>2024-03-03T10:20:38Z</time>
      </trkpt>
      <trkpt lat="49.12231" lon="-0.05551">
        <ele>8.5</ele>
        <time>2024-03-03T10:20:39Z</time>
      </trkpt>
      <trkpt lat="49.12228" lon="-0.0556">
        <ele>8.5</ele>
        <time>2024-03-03T10:20:40Z</time>
      </trkpt>
      <trkpt lat="49.12226" lon="-0.0557">
        <ele>8.6</ele>
        <time>2024-03-03T10:20:41Z</time>
      </trkpt>
      <trkpt lat="49.12223" lon="-0.0558">
        <ele>8.6</ele>
        <time>2024-03-03T10:20:42Z</time>
      </trkpt>
      <trkpt lat="49.1222" lon="-0.05589">
        <ele>8.7</ele>
        <time>2024-03-03T10:20:43Z</time>
      </trkpt>
      <trkpt lat="49.12217" lon="-0.05599">
        <ele>8.7</ele>
        <time>2024-03-03T10:20:44Z</time>
      </trkpt>
      <trkpt lat="49.12215" lon="-0.0561">
        <ele>8.7</ele>
        <time>2024-03-03T10:20:45Z</time>
      </trkpt>
      <trkpt lat="49.12212" lon="-0.05619">
        <ele>8.8</ele>
        <time>2024-03-03T10:20:46Z</time>
      </trkpt>
      <trkpt lat="49.12209" lon="-0.05629">
        <ele>8.8</ele>
        <time>2024-03-03T10:20:47Z</time>
      </trkpt>
      <trkpt lat="49.12207" lon="-0.05639">
        <ele>8.9</ele>
        <time>2024-03-03T10:20:48Z</time>
      </trkpt>
      <trkpt lat="49.12205" lon="-0.05648">
        <ele>8.9</ele>
        <time>2024-03-03T10:20:49Z</time>
      </trkpt>
      <trkpt lat="49.12202" lon="-0.05658">
        <ele>8.9</ele>
        <time>2024-03-03T10:20:50Z</time>
      </trkpt>
      <trkpt lat="49.12199" lon="-0.05668">
        <ele>9</ele>
        <time>2024-03-03T10:20:51Z</time>
      </trkpt>
      <trkpt lat="49.12197" lon="-0.05677">
        <ele>9</ele>
        <time>2024-03-03T10:20:52Z</time>
      </trkpt>
      <trkpt lat="49.12194" lon="-0.05687">
        <ele>9</ele>
        <time>2024-03-03T10:20:53Z</time>
      </trkpt>
      <trkpt lat="49.12191" lon="-0.05697">
        <ele>9.1</ele>
        <time>2024-03-03T10:20:54Z</time>
      </trkpt>
      <trkpt lat="49.12188" lon="-0.05707">
        <ele>9.1</ele>
        <time>2024-03-03T10:20:55Z</time>
      </trkpt>
      <trkpt lat="49.12186" lon="-0.05717">
        <ele>9.1</ele>
        <time>2024-03-03T10:20:56Z</time>
      </trkpt>
      <trkpt lat="49.12183" lon="-0.05727">
        <ele>9.1</ele>
        <time>2024-03-03T10:20:57Z</time>
      </trkpt>
      <trkpt lat="49.12181" lon="-0.05736">
        <ele>9.2</ele>
        <time>2024-03-03T10:20:58Z</time>
      </trkpt>
      <trkpt lat="49.12178" lon="-0.05746">
        <ele>9.2</ele>
        <time>2024-03-03T10:20:59Z</time>
      </trkpt>
      <trkpt lat="49.12176" lon="-0.05755">
        <ele>9.2</ele>
        <time>2024-03-03T10:21:00Z</time>
      </trkpt>
      <trkpt lat="49.12173" lon="-0.05765">
        <ele>9.2</ele>
        <time>2024-03-03T10:21:01Z</time>
      </trkpt>
      <trkpt lat="49.1217" lon="-0.05775">
        <ele>9.3</ele>
        <time>2024-03-03T10:21:02Z</time>
      </trkpt>
      <trkpt lat="49.12168" lon="-0.05784">
        <ele>9.3</ele>
        <time>2024-03-03T10:21:03Z</time>
      </trkpt>
      <trkpt lat="49.12165" lon="-0.05794">
        <ele>9.5</ele>
        <time>2024-03-03T10:21:04Z</time>
      </trkpt>
      <trkpt lat="49.12162" lon="-0.05803">
        <ele>9.6</ele>
        <time>2024-03-03T10:21:05Z</time>
      </trkpt>
      <trkpt lat="49.1216" lon="-0.05813">
        <ele>9.8</ele>
        <time>2024-03-03T10:21:06Z</time>
      </trkpt>
      <trkpt lat="49.12157" lon="-0.05823">
        <ele>9.8</ele>
        <time>2024-03-03T10:21:07Z</time>
      </trkpt>
      <trkpt lat="49.12154" lon="-0.05833">
        <ele>9.8</ele>
        <time>2024-03-03T10:21:08Z</time>
      </trkpt>
      <trkpt lat="49.12152" lon="-0.05842">
        <ele>9.8</ele>
        <time>2024-03-03T10:21:09Z</time>
      </trkpt>
      <trkpt lat="49.12149" lon="-0.05852">
        <ele>9.8</ele>
        <time>2024-03-03T10:21:10Z</time>
      </trkpt>
      <trkpt lat="49.12147" lon="-0.05862">
        <ele>9.8</ele>
        <time>2024-03-03T10:21:11Z</time>
      </trkpt>
      <trkpt lat="49.12144" lon="-0.05872">
        <ele>9.9</ele>
        <time>2024-03-03T10:21:12Z</time>
      </trkpt>
      <trkpt lat="49.12142" lon="-0.05881">
        <ele>9.9</ele>
        <time>2024-03-03T10:21:13Z</time>
      </trkpt>
      <trkpt lat="49.12139" lon="-0.05892">
        <ele>9.9</ele>
        <time>2024-03-03T10:21:14Z</time>
      </trkpt>
      <trkpt lat="49.12136" lon="-0.05901">
        <ele>9.9</ele>
        <time>2024-03-03T10:21:15Z</time>
      </trkpt>
      <trkpt lat="49.12134" lon="-0.05911">
        <ele>10</ele>
        <time>2024-03-03T10:21:16Z</time>
      </trkpt>
      <trkpt lat="49.12131" lon="-0.05921">
        <ele>10</ele>
        <time>2024-03-03T10:21:17Z</time>
      </trkpt>
      <trkpt lat="49.12129" lon="-0.05931">
        <ele>10</ele>
        <time>2024-03-03T10:21:18Z</time>
      </trkpt>
      <trkpt lat="49.12126" lon="-0.05941">
        <ele>10</ele>
        <time>2024-03-03T10:21:19Z</time>
      </trkpt>
      <trkpt lat="49.12123" lon="-0.05951">
        <ele>10.1</ele>
        <time>2024-03-03T10:21:20Z</time>
      </trkpt>
      <trkpt lat="49.1212" lon="-0.0596">
        <ele>10.1</ele>
        <time>2024-03-03T10:21:21Z</time>
      </trkpt>
      <trkpt lat="49.12117" lon="-0.0597">
        <ele>10.1</ele>
        <time>2024-03-03T10:21:22Z</time>
      </trkpt>
      <trkpt lat="49.12114" lon="-0.0598">
        <ele>10.1</ele>
        <time>2024-03-03T10:21:23Z</time>
      </trkpt>
      <trkpt lat="49.12111" lon="-0.0599">
        <ele>10.2</ele>
        <time>2024-03-03T10:21:24Z</time>
      </trkpt>
      <trkpt lat="49.12109" lon="-0.06">
        <ele>10.2</ele>
        <time>2024-03-03T10:21:25Z</time>
      </trkpt>
      <trkpt lat="49.12106" lon="-0.0601">
        <ele>10.2</ele>
        <time>2024-03-03T10:21:26Z</time>
      </trkpt>
      <trkpt lat="49.12104" lon="-0.0602">
        <ele>10.2</ele>
        <time>2024-03-03T10:21:27Z</time>
      </trkpt>
      <trkpt lat="49.12101" lon="-0.06029">
        <ele>10.2</ele>
        <time>2024-03-03T10:21:28Z</time>
      </trkpt>
      <trkpt lat="49.12098" lon="-0.06039">
        <ele>10.3</ele>
        <time>2024-03-03T10:21:29Z</time>
      </trkpt>
      <trkpt lat="49.12096" lon="-0.06049">
        <ele>10.3</ele>
        <time>2024-03-03T10:21:30Z</time>
      </trkpt>
      <trkpt lat="49.12093" lon="-0.06059">
        <ele>10.3</ele>
        <time>2024-03-03T10:21:31Z</time>
      </trkpt>
      <trkpt lat="49.1209" lon="-0.06069">
        <ele>10.3</ele>
        <time>2024-03-03T10:21:32Z</time>
      </trkpt>
      <trkpt lat="49.12087" lon="-0.06079">
        <ele>10.3</ele>
        <time>2024-03-03T10:21:33Z</time>
      </trkpt>
      <trkpt lat="49.12085" lon="-0.06088">
        <ele>10.3</ele>
        <time>2024-03-03T10:21:34Z</time>
      </trkpt>
      <trkpt lat="49.12082" lon="-0.06098">
        <ele>10.3</ele>
        <time>2024-03-03T10:21:35Z</time>
      </trkpt>
      <trkpt lat="49.1208" lon="-0.06108">
        <ele>10.3</ele>
        <time>2024-03-03T10:21:36Z</time>
      </trkpt>
      <trkpt lat="49.12077" lon="-0.06118">
        <ele>10.3</ele>
        <time>2024-03-03T10:21:37Z</time>
      </trkpt>
      <trkpt lat="49.12074" lon="-0.06127">
        <ele>10.4</ele>
        <time>2024-03-03T10:21:38Z</time>
      </trkpt>
      <trkpt lat="49.12072" lon="-0.06137">
        <ele>10.4</ele>
        <time>2024-03-03T10:21:39Z</time>
      </trkpt>
      <trkpt lat="49.12069" lon="-0.06147">
        <ele>10.4</ele>
        <time>2024-03-03T10:21:40Z</time>
      </trkpt>
      <trkpt lat="49.12066" lon="-0.06157">
        <ele>10.5</ele>
        <time>2024-03-03T10:21:41Z</time>
      </trkpt>
      <trkpt lat="49.12064" lon="-0.06166">
        <ele>10.5</ele>
        <time>2024-03-03T10:21:42Z</time>
      </trkpt>
      <trkpt lat="49.12061" lon="-0.06176">
        <ele>10.6</ele>
        <time>2024-03-03T10:21:43Z</time>
      </trkpt>
      <trkpt lat="49.12059" lon="-0.06186">
        <ele>10.6</ele>
        <time>2024-03-03T10:21:44Z</time>
      </trkpt>
      <trkpt lat="49.12056" lon="-0.06195">
        <ele>10.6</ele>
        <time>2024-03-03T10:21:45Z</time>
      </trkpt>
      <trkpt lat="49.12054" lon="-0.06205">
        <ele>10.7</ele>
        <time>2024-03-03T10:21:46Z</time>
      </trkpt>
      <trkpt lat="49.12051" lon="-0.06215">
        <ele>10.7</ele>
        <time>2024-03-03T10:21:47Z</time>
      </trkpt>
      <trkpt lat="49.12048" lon="-0.06224">
        <ele>10.8</ele>
        <time>2024-03-03T10:21:48Z</time>
      </trkpt>
      <trkpt lat="49.12046" lon="-0.06234">
        <ele>10.8</ele>
        <time>2024-03-03T10:21:49Z</time>
      </trkpt>
      <trkpt lat="49.12043" lon="-0.06243">
        <ele>10.9</ele>
        <time>2024-03-03T10:21:50Z</time>
      </trkpt>
      <trkpt lat="49.1204" lon="-0.06253">
        <ele>10.9</ele>
        <time>2024-03-03T10:21:51Z</time>
      </trkpt>
      <trkpt lat="49.12038" lon="-0.06263">
        <ele>11</ele>
        <time>2024-03-03T10:21:52Z</time>
      </trkpt>
      <trkpt lat="49.12035" lon="-0.06273">
        <ele>11.1</ele>
        <time>2024-03-03T10:21:53Z</time>
      </trkpt>
      <trkpt lat="49.12032" lon="-0.06283">
        <ele>11.1</ele>
        <time>2024-03-03T10:21:54Z</time>
      </trkpt>
      <trkpt lat="49.1203" lon="-0.06292">
        <ele>11.2</ele>
        <time>2024-03-03T10:21:55Z</time>
      </trkpt>
      <trkpt lat="49.12027" lon="-0.06302">
        <ele>11.2</ele>
        <time>2024-03-03T10:21:56Z</time>
      </trkpt>
      <trkpt lat="49.12025" lon="-0.06311">
        <ele>11.3</ele>
        <time>2024-03-03T10:21:57Z</time>
      </trkpt>
      <trkpt lat="49.12022" lon="-0.06321">
        <ele>11.3</ele>
        <time>2024-03-03T10:21:58Z</time>
      </trkpt>
      <trkpt lat="49.12019" lon="-0.06331">
        <ele>11.4</ele>
        <time>2024-03-03T10:21:59Z</time>
      </trkpt>
      <trkpt lat="49.12017" lon="-0.06341">
        <ele>11.4</ele>
        <time>2024-03-03T10:22:00Z</time>
      </trkpt>
      <trkpt lat="49.12015" lon="-0.06351">
        <ele>11.5</ele>
        <time>2024-03-03T10:22:01Z</time>
      </trkpt>
      <trkpt lat="49.12013" lon="-0.0636">
        <ele>11.6</ele>
        <time>2024-03-03T10:22:02Z</time>
      </trkpt>
      <trkpt lat="49.12011" lon="-0.0637">
        <ele>11.6</ele>
        <time>2024-03-03T10:22:03Z</time>
      </trkpt>
      <trkpt lat="49.12009" lon="-0.06379">
        <ele>11.7</ele>
        <time>2024-03-03T10:22:04Z</time>
      </trkpt>
      <trkpt lat="49.12007" lon="-0.06389">
        <ele>11.7</ele>
        <time>2024-03-03T10:22:05Z</time>
      </trkpt>
      <trkpt lat="49.12004" lon="-0.06398">
        <ele>11.8</ele>
        <time>2024-03-03T10:22:06Z</time>
      </trkpt>
      <trkpt lat="49.12002" lon="-0.06408">
        <ele>11.8</ele>
        <time>2024-03-03T10:22:07Z</time>
      </trkpt>
      <trkpt lat="49.12001" lon="-0.06417">
        <ele>11.9</ele>
        <time>2024-03-03T10:22:08Z</time>
      </trkpt>
      <trkpt lat="49.11999" lon="-0.06427">
        <ele>12</ele>
        <time>2024-03-03T10:22:09Z</time>
      </trkpt>
      <trkpt lat="49.11997" lon="-0.06436">
        <ele>12.1</ele>
        <time>2024-03-03T10:22:10Z</time>
      </trkpt>
      <trkpt lat="49.11995" lon="-0.06446">
        <ele>12.1</ele>
        <time>2024-03-03T10:22:11Z</time>
      </trkpt>
      <trkpt lat="49.11994" lon="-0.06456">
        <ele>12.2</ele>
        <time>2024-03-03T10:22:12Z</time>
      </trkpt>
      <trkpt lat="49.11992" lon="-0.06465">
        <ele>12.3</ele>
        <time>2024-03-03T10:22:13Z</time>
      </trkpt>
      <trkpt lat="49.11991" lon="-0.06475">
        <ele>12.4</ele>
        <time>2024-03-03T10:22:14Z</time>
      </trkpt>
      <trkpt lat="49.1199" lon="-0.06485">
        <ele>12.5</ele>
        <time>2024-03-03T10:22:15Z</time>
      </trkpt>
      <trkpt lat="49.11988" lon="-0.06494">
        <ele>12.6</ele>
        <time>2024-03-03T10:22:16Z</time>
      </trkpt>
      <trkpt lat="49.11988" lon="-0.06504">
        <ele>12.7</ele>
        <time>2024-03-03T10:22:17Z</time>
      </trkpt>
      <trkpt lat="49.11987" lon="-0.06514">
        <ele>12.8</ele>
        <time>2024-03-03T10:22:18Z</time>
      </trkpt>
      <trkpt lat="49.11986" lon="-0.06524">
        <ele>12.8</ele>
        <time>2024-03-03T10:22:19Z</time>
      </trkpt>
      <trkpt lat="49.11985" lon="-0.06534">
        <ele>12.9</ele>
        <time>2024-03-03T10:22:20Z</time>
      </trkpt>
      <trkpt lat="49.11985" lon="-0.06544">
        <ele>13</ele>
        <time>2024-03-03T10:22:21Z</time>
      </trkpt>
      <trkpt lat="49.11984" lon="-0.06554">
        <ele>13.1</ele>
        <time>2024-03-03T10:22:22Z</time>
      </trkpt>
      <trkpt lat="49.11983" lon="-0.06564">
        <ele>13.1</ele>
        <time>2024-03-03T10:22:23Z</time>
      </trkpt>
      <trkpt lat="49.11983" lon="-0.06574">
        <ele>13.2</ele>
        <time>2024-03-03T10:22:24Z</time>
      </trkpt>
      <trkpt lat="49.11983" lon="-0.06584">
        <ele>13.3</ele>
        <time>2024-03-03T10:22:25Z</time>
      </trkpt>
      <trkpt lat="49.11983" lon="-0.06593">
        <ele>13.3</ele>
        <time>2024-03-03T10:22:26Z</time>
      </trkpt>
      <trkpt lat="49.11982" lon="-0.06603">
        <ele>13.4</ele>
        <time>2024-03-03T10:22:27Z</time>
      </trkpt>
      <trkpt lat="49.11982" lon="-0.06613">
        <ele>13.5</ele>
        <time>2024-03-03T10:22:28Z</time>
      </trkpt>
      <trkpt lat="49.11983" lon="-0.06624">
        <ele>13.5</ele>
        <time>2024-03-03T10:22:29Z</time>
      </trkpt>
      <trkpt lat="49.11983" lon="-0.06634">
        <ele>13.6</ele>
        <time>2024-03-03T10:22:30Z</time>
      </trkpt>
      <trkpt lat="49.11984" lon="-0.06644">
        <ele>13.6</ele>
        <time>2024-03-03T10:22:31Z</time>
      </trkpt>
      <trkpt lat="49.11985" lon="-0.06653">
        <ele>13.7</ele>
        <time>2024-03-03T10:22:32Z</time>
      </trkpt>
      <trkpt lat="49.11986" lon="-0.06663">
        <ele>13.8</ele>
        <time>2024-03-03T10:22:33Z</time>
      </trkpt>
      <trkpt lat="49.11987" lon="-0.06673">
        <ele>13.8</ele>
        <time>2024-03-03T10:22:34Z</time>
      </trkpt>
      <trkpt lat="49.11987" lon="-0.06683">
        <ele>13.9</ele>
        <time>2024-03-03T10:22:35Z</time>
      </trkpt>
      <trkpt lat="49.11988" lon="-0.06693">
        <ele>14</ele>
        <time>2024-03-03T10:22:36Z</time>
      </trkpt>
      <trkpt lat="49.11989" lon="-0.06703">
        <ele>14.1</ele>
        <time>2024-03-03T10:22:37Z</time>
      </trkpt>
      <trkpt lat="49.11989" lon="-0.06712">
        <ele>14.1</ele>
        <time>2024-03-03T10:22:38Z</time>
      </trkpt>
      <trkpt lat="49.1199" lon="-0.06721">
        <ele>14.2</ele>
        <time>2024-03-03T10:22:39Z</time>
      </trkpt>
      <trkpt lat="49.1199" lon="-0.06729">
        <ele>14.2</ele>
        <time>2024-03-03T10:22:40Z</time>
      </trkpt>
      <trkpt lat="49.11991" lon="-0.06737">
        <ele>14.3</ele>
        <time>2024-03-03T10:22:41Z</time>
      </trkpt>
      <trkpt lat="49.11995" lon="-0.06743">
        <ele>14.3</ele>
        <time>2024-03-03T10:22:42Z</time>
      </trkpt>
      <trkpt lat="49.12001" lon="-0.06744">
        <ele>14.1</ele>
        <time>2024-03-03T10:22:43Z</time>
      </trkpt>
      <trkpt lat="49.12007" lon="-0.06742">
        <ele>13.9</ele>
        <time>2024-03-03T10:22:44Z</time>
      </trkpt>
      <trkpt lat="49.12012" lon="-0.0674">
        <ele>13.8</ele>
        <time>2024-03-03T10:22:45Z</time>
      </trkpt>
      <trkpt lat="49.12018" lon="-0.06738">
        <ele>13.7</ele>
        <time>2024-03-03T10:22:46Z</time>
      </trkpt>
      <trkpt lat="49.12023" lon="-0.06735">
        <ele>13.5</ele>
        <time>2024-03-03T10:22:47Z</time>
      </trkpt>
      <trkpt lat="49.12028" lon="-0.06733">
        <ele>13.4</ele>
        <time>2024-03-03T10:22:48Z</time>
      </trkpt>
      <trkpt lat="49.12034" lon="-0.06731">
        <ele>13.3</ele>
        <time>2024-03-03T10:22:49Z</time>
      </trkpt>
      <trkpt lat="49.12039" lon="-0.06728">
        <ele>13.2</ele>
        <time>2024-03-03T10:22:50Z</time>
      </trkpt>
      <trkpt lat="49.12045" lon="-0.06727">
        <ele>13.1</ele>
        <time>2024-03-03T10:22:51Z</time>
      </trkpt>
      <trkpt lat="49.12051" lon="-0.06724">
        <ele>13</ele>
        <time>2024-03-03T10:22:52Z</time>
      </trkpt>
      <trkpt lat="49.12057" lon="-0.06722">
        <ele>12.9</ele>
        <time>2024-03-03T10:22:53Z</time>
      </trkpt>
      <trkpt lat="49.12063" lon="-0.06719">
        <ele>12.8</ele>
        <time>2024-03-03T10:22:54Z</time>
      </trkpt>
      <trkpt lat="49.12069" lon="-0.06717">
        <ele>12.8</ele>
        <time>2024-03-03T10:22:55Z</time>
      </trkpt>
      <trkpt lat="49.12076" lon="-0.06715">
        <ele>12.7</ele>
        <time>2024-03-03T10:22:56Z</time>
      </trkpt>
      <trkpt lat="49.12082" lon="-0.06712">
        <ele>12.6</ele>
        <time>2024-03-03T10:22:57Z</time>
      </trkpt>
      <trkpt lat="49.12089" lon="-0.0671">
        <ele>12.5</ele>
        <time>2024-03-03T10:22:58Z</time>
      </trkpt>
      <trkpt lat="49.12096" lon="-0.06708">
        <ele>12.5</ele>
        <time>2024-03-03T10:22:59Z</time>
      </trkpt>
      <trkpt lat="49.12102" lon="-0.06705">
        <ele>12.4</ele>
        <time>2024-03-03T10:23:00Z</time>
      </trkpt>
      <trkpt lat="49.12109" lon="-0.06703">
        <ele>12.4</ele>
        <time>2024-03-03T10:23:01Z</time>
      </trkpt>
      <trkpt lat="49.12116" lon="-0.067">
        <ele>12.3</ele>
        <time>2024-03-03T10:23:02Z</time>
      </trkpt>
      <trkpt lat="49.12123" lon="-0.06698">
        <ele>12.3</ele>
        <time>2024-03-03T10:23:03Z</time>
      </trkpt>
      <trkpt lat="49.12131" lon="-0.06696">
        <ele>12.3</ele>
        <time>2024-03-03T10:23:04Z</time>
      </trkpt>
      <trkpt lat="49.12137" lon="-0.06694">
        <ele>12.3</ele>
        <time>2024-03-03T10:23:05Z</time>
      </trkpt>
      <trkpt lat="49.12144" lon="-0.06693">
        <ele>12.3</ele>
        <time>2024-03-03T10:23:06Z</time>
      </trkpt>
      <trkpt lat="49.12151" lon="-0.06692">
        <ele>12.3</ele>
        <time>2024-03-03T10:23:07Z</time>
      </trkpt>
      <trkpt lat="49.12158" lon="-0.0669">
        <ele>12.3</ele>
        <time>2024-03-03T10:23:08Z</time>
      </trkpt>
      <trkpt lat="49.12165" lon="-0.0669">
        <ele>12.4</ele>
        <time>2024-03-03T10:23:09Z</time>
      </trkpt>
      <trkpt lat="49.12172" lon="-0.06689">
        <ele>12.4</ele>
        <time>2024-03-03T10:23:10Z</time>
      </trkpt>
      <trkpt lat="49.12179" lon="-0.06689">
        <ele>12.4</ele>
        <time>2024-03-03T10:23:11Z</time>
      </trkpt>
      <trkpt lat="49.12186" lon="-0.06688">
        <ele>12.4</ele>
        <time>2024-03-03T10:23:12Z</time>
      </trkpt>
      <trkpt lat="49.12193" lon="-0.06688">
        <ele>12.4</ele>
        <time>2024-03-03T10:23:13Z</time>
      </trkpt>
      <trkpt lat="49.122" lon="-0.06688">
        <ele>12.4</ele>
        <time>2024-03-03T10:23:14Z</time>
      </trkpt>
      <trkpt lat="49.12207" lon="-0.06687">
        <ele>12.5</ele>
        <time>2024-03-03T10:23:15Z</time>
      </trkpt>
      <trkpt lat="49.12214" lon="-0.06687">
        <ele>12.5</ele>
        <time>2024-03-03T10:23:16Z</time>
      </trkpt>
      <trkpt lat="49.12221" lon="-0.06687">
        <ele>12.5</ele>
        <time>2024-03-03T10:23:17Z</time>
      </trkpt>
      <trkpt lat="49.12227" lon="-0.06687">
        <ele>12.6</ele>
        <time>2024-03-03T10:23:18Z</time>
      </trkpt>
      <trkpt lat="49.12235" lon="-0.06686">
        <ele>12.6</ele>
        <time>2024-03-03T10:23:19Z</time>
      </trkpt>
      <trkpt lat="49.12242" lon="-0.06687">
        <ele>12.6</ele>
        <time>2024-03-03T10:23:20Z</time>
      </trkpt>
      <trkpt lat="49.12249" lon="-0.06686">
        <ele>12.6</ele>
        <time>2024-03-03T10:23:21Z</time>
      </trkpt>
      <trkpt lat="49.12256" lon="-0.06686">
        <ele>12.5</ele>
        <time>2024-03-03T10:23:22Z</time>
      </trkpt>
      <trkpt lat="49.12263" lon="-0.06686">
        <ele>12.5</ele>
        <time>2024-03-03T10:23:23Z</time>
      </trkpt>
      <trkpt lat="49.1227" lon="-0.06686">
        <ele>12.5</ele>
        <time>2024-03-03T10:23:24Z</time>
      </trkpt>
      <trkpt lat="49.12278" lon="-0.06686">
        <ele>12.4</ele>
        <time>2024-03-03T10:23:25Z</time>
      </trkpt>
      <trkpt lat="49.12285" lon="-0.06686">
        <ele>12.4</ele>
        <time>2024-03-03T10:23:26Z</time>
      </trkpt>
      <trkpt lat="49.12293" lon="-0.06686">
        <ele>12.3</ele>
        <time>2024-03-03T10:23:27Z</time>
      </trkpt>
      <trkpt lat="49.12302" lon="-0.06686">
        <ele>12.3</ele>
        <time>2024-03-03T10:23:28Z</time>
      </trkpt>
      <trkpt lat="49.12309" lon="-0.06687">
        <ele>12.3</ele>
        <time>2024-03-03T10:23:29Z</time>
      </trkpt>
      <trkpt lat="49.12317" lon="-0.06687">
        <ele>12.3</ele>
        <time>2024-03-03T10:23:30Z</time>
      </trkpt>
      <trkpt lat="49.12325" lon="-0.06687">
        <ele>12.1</ele>
        <time>2024-03-03T10:23:31Z</time>
      </trkpt>
      <trkpt lat="49.12333" lon="-0.06688">
        <ele>12.1</ele>
        <time>2024-03-03T10:23:32Z</time>
      </trkpt>
      <trkpt lat="49.1234" lon="-0.06688">
        <ele>12</ele>
        <time>2024-03-03T10:23:33Z</time>
      </trkpt>
      <trkpt lat="49.12348" lon="-0.06688">
        <ele>12</ele>
        <time>2024-03-03T10:23:34Z</time>
      </trkpt>
      <trkpt lat="49.12355" lon="-0.06688">
        <ele>12</ele>
        <time>2024-03-03T10:23:35Z</time>
      </trkpt>
      <trkpt lat="49.12363" lon="-0.06688">
        <ele>12</ele>
        <time>2024-03-03T10:23:36Z</time>
      </trkpt>
      <trkpt lat="49.1237" lon="-0.06687">
        <ele>11.9</ele>
        <time>2024-03-03T10:23:37Z</time>
      </trkpt>
      <trkpt lat="49.12378" lon="-0.06687">
        <ele>11.9</ele>
        <time>2024-03-03T10:23:38Z</time>
      </trkpt>
      <trkpt lat="49.12385" lon="-0.06687">
        <ele>11.9</ele>
        <time>2024-03-03T10:23:39Z</time>
      </trkpt>
      <trkpt lat="49.12393" lon="-0.06687">
        <ele>11.9</ele>
        <time>2024-03-03T10:23:40Z</time>
      </trkpt>
      <trkpt lat="49.124" lon="-0.06687">
        <ele>11.8</ele>
        <time>2024-03-03T10:23:41Z</time>
      </trkpt>
      <trkpt lat="49.12408" lon="-0.06687">
        <ele>11.8</ele>
        <time>2024-03-03T10:23:42Z</time>
      </trkpt>
      <trkpt lat="49.12415" lon="-0.06687">
        <ele>11.8</ele>
        <time>2024-03-03T10:23:43Z</time>
      </trkpt>
      <trkpt lat="49.12423" lon="-0.06687">
        <ele>11.8</ele>
        <time>2024-03-03T10:23:44Z</time>
      </trkpt>
      <trkpt lat="49.12431" lon="-0.06686">
        <ele>11.8</ele>
        <time>2024-03-03T10:23:45Z</time>
      </trkpt>
      <trkpt lat="49.12438" lon="-0.06686">
        <ele>11.7</ele>
        <time>2024-03-03T10:23:46Z</time>
      </trkpt>
      <trkpt lat="49.12445" lon="-0.06686">
        <ele>11.7</ele>
        <time>2024-03-03T10:23:47Z</time>
      </trkpt>
      <trkpt lat="49.12453" lon="-0.06686">
        <ele>11.7</ele>
        <time>2024-03-03T10:23:48Z</time>
      </trkpt>
      <trkpt lat="49.12461" lon="-0.06686">
        <ele>11.7</ele>
        <time>2024-03-03T10:23:49Z</time>
      </trkpt>
      <trkpt lat="49.12469" lon="-0.06686">
        <ele>11.8</ele>
        <time>2024-03-03T10:23:50Z</time>
      </trkpt>
      <trkpt lat="49.12476" lon="-0.06686">
        <ele>11.8</ele>
        <time>2024-03-03T10:23:51Z</time>
      </trkpt>
      <trkpt lat="49.12483" lon="-0.06686">
        <ele>11.8</ele>
        <time>2024-03-03T10:23:52Z</time>
      </trkpt>
      <trkpt lat="49.12491" lon="-0.06686">
        <ele>11.8</ele>
        <time>2024-03-03T10:23:53Z</time>
      </trkpt>
      <trkpt lat="49.12498" lon="-0.06686">
        <ele>11.8</ele>
        <time>2024-03-03T10:23:54Z</time>
      </trkpt>
      <trkpt lat="49.12506" lon="-0.06686">
        <ele>11.8</ele>
        <time>2024-03-03T10:23:55Z</time>
      </trkpt>
      <trkpt lat="49.12513" lon="-0.06685">
        <ele>11.8</ele>
        <time>2024-03-03T10:23:56Z</time>
      </trkpt>
      <trkpt lat="49.12521" lon="-0.06685">
        <ele>11.8</ele>
        <time>2024-03-03T10:23:57Z</time>
      </trkpt>
      <trkpt lat="49.12529" lon="-0.06685">
        <ele>11.8</ele>
        <time>2024-03-03T10:23:58Z</time>
      </trkpt>
      <trkpt lat="49.12537" lon="-0.06685">
        <ele>11.8</ele>
        <time>2024-03-03T10:23:59Z</time>
      </trkpt>
      <trkpt lat="49.12545" lon="-0.06684">
        <ele>11.8</ele>
        <time>2024-03-03T10:24:00Z</time>
      </trkpt>
      <trkpt lat="49.12552" lon="-0.06684">
        <ele>11.8</ele>
        <time>2024-03-03T10:24:01Z</time>
      </trkpt>
      <trkpt lat="49.12559" lon="-0.06684">
        <ele>11.8</ele>
        <time>2024-03-03T10:24:02Z</time>
      </trkpt>
      <trkpt lat="49.12566" lon="-0.06684">
        <ele>11.8</ele>
        <time>2024-03-03T10:24:03Z</time>
      </trkpt>
      <trkpt lat="49.12573" lon="-0.06684">
        <ele>11.8</ele>
        <time>2024-03-03T10:24:04Z</time>
      </trkpt>
      <trkpt lat="49.1258" lon="-0.06684">
        <ele>11.8</ele>
        <time>2024-03-03T10:24:05Z</time>
      </trkpt>
      <trkpt lat="49.12588" lon="-0.06684">
        <ele>11.8</ele>
        <time>2024-03-03T10:24:06Z</time>
      </trkpt>
      <trkpt lat="49.12595" lon="-0.06684">
        <ele>11.8</ele>
        <time>2024-03-03T10:24:07Z</time>
      </trkpt>
      <trkpt lat="49.12602" lon="-0.06684">
        <ele>11.8</ele>
        <time>2024-03-03T10:24:08Z</time>
      </trkpt>
      <trkpt lat="49.1261" lon="-0.06684">
        <ele>11.9</ele>
        <time>2024-03-03T10:24:09Z</time>
      </trkpt>
      <trkpt lat="49.12617" lon="-0.06684">
        <ele>11.9</ele>
        <time>2024-03-03T10:24:10Z</time>
      </trkpt>
      <trkpt lat="49.12625" lon="-0.06684">
        <ele>11.9</ele>
        <time>2024-03-03T10:24:11Z</time>
      </trkpt>
      <trkpt lat="49.12633" lon="-0.06685">
        <ele>11.9</ele>
        <time>2024-03-03T10:24:12Z</time>
      </trkpt>
      <trkpt lat="49.12641" lon="-0.06685">
        <ele>12</ele>
        <time>2024-03-03T10:24:13Z</time>
      </trkpt>
      <trkpt lat="49.12648" lon="-0.06685">
        <ele>12</ele>
        <time>2024-03-03T10:24:14Z</time>
      </trkpt>
      <trkpt lat="49.12656" lon="-0.06685">
        <ele>12</ele>
        <time>2024-03-03T10:24:15Z</time>
      </trkpt>
      <trkpt lat="49.12663" lon="-0.06684">
        <ele>12</ele>
        <time>2024-03-03T10:24:16Z</time>
      </trkpt>
      <trkpt lat="49.1267" lon="-0.06684">
        <ele>12</ele>
        <time>2024-03-03T10:24:17Z</time>
      </trkpt>
      <trkpt lat="49.12678" lon="-0.06685">
        <ele>12.1</ele>
        <time>2024-03-03T10:24:18Z</time>
      </trkpt>
      <trkpt lat="49.12686" lon="-0.06685">
        <ele>12.1</ele>
        <time>2024-03-03T10:24:19Z</time>
      </trkpt>
      <trkpt lat="49.12694" lon="-0.06685">
        <ele>12.1</ele>
        <time>2024-03-03T10:24:20Z</time>
      </trkpt>
      <trkpt lat="49.12701" lon="-0.06685">
        <ele>12.2</ele>
        <time>2024-03-03T10:24:21Z</time>
      </trkpt>
      <trkpt lat="49.12709" lon="-0.06685">
        <ele>12.2</ele>
        <time>2024-03-03T10:24:22Z</time>
      </trkpt>
      <trkpt lat="49.12717" lon="-0.06685">
        <ele>12.2</ele>
        <time>2024-03-03T10:24:23Z</time>
      </trkpt>
      <trkpt lat="49.12724" lon="-0.06685">
        <ele>12.2</ele>
        <time>2024-03-03T10:24:24Z</time>
      </trkpt>
      <trkpt lat="49.12732" lon="-0.06685">
        <ele>12.2</ele>
        <time>2024-03-03T10:24:25Z</time>
      </trkpt>
      <trkpt lat="49.1274" lon="-0.06685">
        <ele>12.2</ele>
        <time>2024-03-03T10:24:26Z</time>
      </trkpt>
      <trkpt lat="49.12747" lon="-0.06685">
        <ele>12.2</ele>
        <time>2024-03-03T10:24:27Z</time>
      </trkpt>
      <trkpt lat="49.12754" lon="-0.06685">
        <ele>12.2</ele>
        <time>2024-03-03T10:24:28Z</time>
      </trkpt>
      <trkpt lat="49.12762" lon="-0.06685">
        <ele>12.2</ele>
        <time>2024-03-03T10:24:29Z</time>
      </trkpt>
      <trkpt lat="49.1277" lon="-0.06685">
        <ele>12.2</ele>
        <time>2024-03-03T10:24:30Z</time>
      </trkpt>
      <trkpt lat="49.12777" lon="-0.06686">
        <ele>12.1</ele>
        <time>2024-03-03T10:24:31Z</time>
      </trkpt>
      <trkpt lat="49.12785" lon="-0.06687">
        <ele>12.1</ele>
        <time>2024-03-03T10:24:32Z</time>
      </trkpt>
      <trkpt lat="49.12793" lon="-0.06689">
        <ele>12.1</ele>
        <time>2024-03-03T10:24:33Z</time>
      </trkpt>
      <trkpt lat="49.128" lon="-0.06691">
        <ele>12</ele>
        <time>2024-03-03T10:24:34Z</time>
      </trkpt>
      <trkpt lat="49.12808" lon="-0.06693">
        <ele>12</ele>
        <time>2024-03-03T10:24:35Z</time>
      </trkpt>
      <trkpt lat="49.12815" lon="-0.06695">
        <ele>12</ele>
        <time>2024-03-03T10:24:36Z</time>
      </trkpt>
      <trkpt lat="49.12822" lon="-0.06698">
        <ele>11.9</ele>
        <time>2024-03-03T10:24:37Z</time>
      </trkpt>
      <trkpt lat="49.1283" lon="-0.067">
        <ele>11.9</ele>
        <time>2024-03-03T10:24:38Z</time>
      </trkpt>
      <trkpt lat="49.12837" lon="-0.06703">
        <ele>11.9</ele>
        <time>2024-03-03T10:24:39Z</time>
      </trkpt>
      <trkpt lat="49.12844" lon="-0.06706">
        <ele>11.9</ele>
        <time>2024-03-03T10:24:40Z</time>
      </trkpt>
      <trkpt lat="49.12851" lon="-0.0671">
        <ele>11.8</ele>
        <time>2024-03-03T10:24:41Z</time>
      </trkpt>
      <trkpt lat="49.12858" lon="-0.06713">
        <ele>11.8</ele>
        <time>2024-03-03T10:24:42Z</time>
      </trkpt>
      <trkpt lat="49.12865" lon="-0.06717">
        <ele>11.8</ele>
        <time>2024-03-03T10:24:43Z</time>
      </trkpt>
      <trkpt lat="49.12872" lon="-0.06721">
        <ele>11.7</ele>
        <time>2024-03-03T10:24:44Z</time>
      </trkpt>
      <trkpt lat="49.12879" lon="-0.06725">
        <ele>11.7</ele>
        <time>2024-03-03T10:24:45Z</time>
      </trkpt>
      <trkpt lat="49.12886" lon="-0.0673">
        <ele>11.7</ele>
        <time>2024-03-03T10:24:46Z</time>
      </trkpt>
      <trkpt lat="49.12892" lon="-0.06734">
        <ele>11.7</ele>
        <time>2024-03-03T10:24:47Z</time>
      </trkpt>
      <trkpt lat="49.12899" lon="-0.06739">
        <ele>11.7</ele>
        <time>2024-03-03T10:24:48Z</time>
      </trkpt>
      <trkpt lat="49.12906" lon="-0.06742">
        <ele>11.6</ele>
        <time>2024-03-03T10:24:49Z</time>
      </trkpt>
      <trkpt lat="49.12913" lon="-0.06747">
        <ele>11.6</ele>
        <time>2024-03-03T10:24:50Z</time>
      </trkpt>
      <trkpt lat="49.1292" lon="-0.06751">
        <ele>11.6</ele>
        <time>2024-03-03T10:24:51Z</time>
      </trkpt>
      <trkpt lat="49.12927" lon="-0.06756">
        <ele>11.6</ele>
        <time>2024-03-03T10:24:52Z</time>
      </trkpt>
      <trkpt lat="49.12934" lon="-0.06761">
        <ele>11.6</ele>
        <time>2024-03-03T10:24:53Z</time>
      </trkpt>
      <trkpt lat="49.12941" lon="-0.06766">
        <ele>11.6</ele>
        <time>2024-03-03T10:24:54Z</time>
      </trkpt>
      <trkpt lat="49.12948" lon="-0.06771">
        <ele>11.5</ele>
        <time>2024-03-03T10:24:55Z</time>
      </trkpt>
      <trkpt lat="49.12954" lon="-0.06775">
        <ele>11.5</ele>
        <time>2024-03-03T10:24:56Z</time>
      </trkpt>
      <trkpt lat="49.12961" lon="-0.06779">
        <ele>11.5</ele>
        <time>2024-03-03T10:24:57Z</time>
      </trkpt>
      <trkpt lat="49.12968" lon="-0.06783">
        <ele>11.5</ele>
        <time>2024-03-03T10:24:58Z</time>
      </trkpt>
      <trkpt lat="49.12975" lon="-0.06787">
        <ele>11.4</ele>
        <time>2024-03-03T10:24:59Z</time>
      </trkpt>
      <trkpt lat="49.12982" lon="-0.0679">
        <ele>11.4</ele>
        <time>2024-03-03T10:25:00Z</time>
      </trkpt>
      <trkpt lat="49.12991" lon="-0.06792">
        <ele>11.3</ele>
        <time>2024-03-03T10:25:01Z</time>
      </trkpt>
      <trkpt lat="49.12999" lon="-0.06793">
        <ele>11.3</ele>
        <time>2024-03-03T10:25:02Z</time>
      </trkpt>
      <trkpt lat="49.13007" lon="-0.06794">
        <ele>11.3</ele>
        <time>2024-03-03T10:25:03Z</time>
      </trkpt>
      <trkpt lat="49.13014" lon="-0.06794">
        <ele>11.2</ele>
        <time>2024-03-03T10:25:04Z</time>
      </trkpt>
      <trkpt lat="49.13022" lon="-0.06794">
        <ele>11.2</ele>
        <time>2024-03-03T10:25:05Z</time>
      </trkpt>
      <trkpt lat="49.13029" lon="-0.06792">
        <ele>11.2</ele>
        <time>2024-03-03T10:25:06Z</time>
      </trkpt>
      <trkpt lat="49.13037" lon="-0.06791">
        <ele>11.2</ele>
        <time>2024-03-03T10:25:07Z</time>
      </trkpt>
      <trkpt lat="49.13045" lon="-0.0679">
        <ele>11.2</ele>
        <time>2024-03-03T10:25:08Z</time>
      </trkpt>
      <trkpt lat="49.13053" lon="-0.06788">
        <ele>11.1</ele>
        <time>2024-03-03T10:25:09Z</time>
      </trkpt>
      <trkpt lat="49.1306" lon="-0.06787">
        <ele>11.1</ele>
        <time>2024-03-03T10:25:10Z</time>
      </trkpt>
      <trkpt lat="49.13067" lon="-0.06785">
        <ele>11.1</ele>
        <time>2024-03-03T10:25:11Z</time>
      </trkpt>
      <trkpt lat="49.13075" lon="-0.06783">
        <ele>11.1</ele>
        <time>2024-03-03T10:25:12Z</time>
      </trkpt>
      <trkpt lat="49.13082" lon="-0.06782">
        <ele>11.1</ele>
        <time>2024-03-03T10:25:13Z</time>
      </trkpt>
      <trkpt lat="49.13089" lon="-0.0678">
        <ele>11.1</ele>
        <time>2024-03-03T10:25:14Z</time>
      </trkpt>
      <trkpt lat="49.13097" lon="-0.06779">
        <ele>11</ele>
        <time>2024-03-03T10:25:15Z</time>
      </trkpt>
      <trkpt lat="49.13104" lon="-0.06777">
        <ele>11</ele>
        <time>2024-03-03T10:25:16Z</time>
      </trkpt>
      <trkpt lat="49.13111" lon="-0.06775">
        <ele>11</ele>
        <time>2024-03-03T10:25:17Z</time>
      </trkpt>
      <trkpt lat="49.13119" lon="-0.06773">
        <ele>10.9</ele>
        <time>2024-03-03T10:25:18Z</time>
      </trkpt>
      <trkpt lat="49.13126" lon="-0.06772">
        <ele>10.9</ele>
        <time>2024-03-03T10:25:19Z</time>
      </trkpt>
      <trkpt lat="49.13134" lon="-0.06771">
        <ele>10.9</ele>
        <time>2024-03-03T10:25:20Z</time>
      </trkpt>
      <trkpt lat="49.13141" lon="-0.06769">
        <ele>10.9</ele>
        <time>2024-03-03T10:25:21Z</time>
      </trkpt>
      <trkpt lat="49.13148" lon="-0.06767">
        <ele>10.9</ele>
        <time>2024-03-03T10:25:22Z</time>
      </trkpt>
      <trkpt lat="49.13155" lon="-0.06766">
        <ele>10.9</ele>
        <time>2024-03-03T10:25:23Z</time>
      </trkpt>
      <trkpt lat="49.13163" lon="-0.06764">
        <ele>10.8</ele>
        <time>2024-03-03T10:25:24Z</time>
      </trkpt>
      <trkpt lat="49.1317" lon="-0.06762">
        <ele>10.8</ele>
        <time>2024-03-03T10:25:25Z</time>
      </trkpt>
      <trkpt lat="49.13178" lon="-0.06761">
        <ele>10.8</ele>
        <time>2024-03-03T10:25:26Z</time>
      </trkpt>
      <trkpt lat="49.13185" lon="-0.0676">
        <ele>10.8</ele>
        <time>2024-03-03T10:25:27Z</time>
      </trkpt>
      <trkpt lat="49.13192" lon="-0.06758">
        <ele>10.7</ele>
        <time>2024-03-03T10:25:28Z</time>
      </trkpt>
      <trkpt lat="49.132" lon="-0.06758">
        <ele>10.7</ele>
        <time>2024-03-03T10:25:29Z</time>
      </trkpt>
      <trkpt lat="49.13207" lon="-0.06756">
        <ele>10.7</ele>
        <time>2024-03-03T10:25:30Z</time>
      </trkpt>
      <trkpt lat="49.13214" lon="-0.06755">
        <ele>10.6</ele>
        <time>2024-03-03T10:25:31Z</time>
      </trkpt>
      <trkpt lat="49.13222" lon="-0.06754">
        <ele>10.6</ele>
        <time>2024-03-03T10:25:32Z</time>
      </trkpt>
      <trkpt lat="49.13229" lon="-0.06754">
        <ele>10.6</ele>
        <time>2024-03-03T10:25:33Z</time>
      </trkpt>
      <trkpt lat="49.13236" lon="-0.06753">
        <ele>10.6</ele>
        <time>2024-03-03T10:25:34Z</time>
      </trkpt>
      <trkpt lat="49.13244" lon="-0.06753">
        <ele>10.6</ele>
        <time>2024-03-03T10:25:35Z</time>
      </trkpt>
      <trkpt lat="49.13251" lon="-0.06753">
        <ele>10.6</ele>
        <time>2024-03-03T10:25:36Z</time>
      </trkpt>
      <trkpt lat="49.13258" lon="-0.06752">
        <ele>10.6</ele>
        <time>2024-03-03T10:25:37Z</time>
      </trkpt>
      <trkpt lat="49.13265" lon="-0.06752">
        <ele>10.6</ele>
        <time>2024-03-03T10:25:38Z</time>
      </trkpt>
      <trkpt lat="49.13272" lon="-0.06752">
        <ele>10.6</ele>
        <time>2024-03-03T10:25:39Z</time>
      </trkpt>
      <trkpt lat="49.13279" lon="-0.06752">
        <ele>10.6</ele>
        <time>2024-03-03T10:25:40Z</time>
      </trkpt>
      <trkpt lat="49.13286" lon="-0.06752">
        <ele>10.7</ele>
        <time>2024-03-03T10:25:41Z</time>
      </trkpt>
      <trkpt lat="49.13293" lon="-0.06753">
        <ele>10.7</ele>
        <time>2024-03-03T10:25:42Z</time>
      </trkpt>
      <trkpt lat="49.13301" lon="-0.06753">
        <ele>10.7</ele>
        <time>2024-03-03T10:25:43Z</time>
      </trkpt>
      <trkpt lat="49.13308" lon="-0.06752">
        <ele>10.7</ele>
        <time>2024-03-03T10:25:44Z</time>
      </trkpt>
      <trkpt lat="49.13315" lon="-0.06752">
        <ele>10.7</ele>
        <time>2024-03-03T10:25:45Z</time>
      </trkpt>
      <trkpt lat="49.13322" lon="-0.06752">
        <ele>10.7</ele>
        <time>2024-03-03T10:25:46Z</time>
      </trkpt>
      <trkpt lat="49.13329" lon="-0.06753">
        <ele>10.7</ele>
        <time>2024-03-03T10:25:47Z</time>
      </trkpt>
      <trkpt lat="49.13336" lon="-0.06753">
        <ele>10.7</ele>
        <time>2024-03-03T10:25:48Z</time>
      </trkpt>
      <trkpt lat="49.13343" lon="-0.06753">
        <ele>10.7</ele>
        <time>2024-03-03T10:25:49Z</time>
      </trkpt>
      <trkpt lat="49.1335" lon="-0.06753">
        <ele>10.7</ele>
        <time>2024-03-03T10:25:50Z</time>
      </trkpt>
      <trkpt lat="49.13357" lon="-0.06753">
        <ele>10.7</ele>
        <time>2024-03-03T10:25:51Z</time>
      </trkpt>
      <trkpt lat="49.13364" lon="-0.06754">
        <ele>10.7</ele>
        <time>2024-03-03T10:25:52Z</time>
      </trkpt>
      <trkpt lat="49.13371" lon="-0.06754">
        <ele>10.7</ele>
        <time>2024-03-03T10:25:53Z</time>
      </trkpt>
      <trkpt lat="49.13378" lon="-0.06754">
        <ele>10.7</ele>
        <time>2024-03-03T10:25:54Z</time>
      </trkpt>
      <trkpt lat="49.13385" lon="-0.06755">
        <ele>10.7</ele>
        <time>2024-03-03T10:25:55Z</time>
      </trkpt>
      <trkpt lat="49.13392" lon="-0.06756">
        <ele>10.7</ele>
        <time>2024-03-03T10:25:56Z</time>
      </trkpt>
      <trkpt lat="49.13399" lon="-0.06757">
        <ele>10.7</ele>
        <time>2024-03-03T10:25:57Z</time>
      </trkpt>
      <trkpt lat="49.13405" lon="-0.06759">
        <ele>10.7</ele>
        <time>2024-03-03T10:25:58Z</time>
      </trkpt>
      <trkpt lat="49.13412" lon="-0.0676">
        <ele>10.7</ele>
        <time>2024-03-03T10:25:59Z</time>
      </trkpt>
      <trkpt lat="49.13418" lon="-0.06764">
        <ele>10.7</ele>
        <time>2024-03-03T10:26:00Z</time>
      </trkpt>
      <trkpt lat="49.13424" lon="-0.06769">
        <ele>10.7</ele>
        <time>2024-03-03T10:26:01Z</time>
      </trkpt>
      <trkpt lat="49.13429" lon="-0.06777">
        <ele>10.8</ele>
        <time>2024-03-03T10:26:02Z</time>
      </trkpt>
      <trkpt lat="49.13434" lon="-0.06785">
        <ele>10.8</ele>
        <time>2024-03-03T10:26:03Z</time>
      </trkpt>
      <trkpt lat="49.13437" lon="-0.06795">
        <ele>10.8</ele>
        <time>2024-03-03T10:26:04Z</time>
      </trkpt>
      <trkpt lat="49.13439" lon="-0.06806">
        <ele>10.9</ele>
        <time>2024-03-03T10:26:05Z</time>
      </trkpt>
      <trkpt lat="49.1344" lon="-0.06817">
        <ele>10.9</ele>
        <time>2024-03-03T10:26:06Z</time>
      </trkpt>
      <trkpt lat="49.13439" lon="-0.06827">
        <ele>10.9</ele>
        <time>2024-03-03T10:26:07Z</time>
      </trkpt>
      <trkpt lat="49.13438" lon="-0.06838">
        <ele>11</ele>
        <time>2024-03-03T10:26:08Z</time>
      </trkpt>
      <trkpt lat="49.13438" lon="-0.06849">
        <ele>11</ele>
        <time>2024-03-03T10:26:09Z</time>
      </trkpt>
      <trkpt lat="49.13438" lon="-0.06859">
        <ele>11</ele>
        <time>2024-03-03T10:26:10Z</time>
      </trkpt>
      <trkpt lat="49.13437" lon="-0.06869">
        <ele>11</ele>
        <time>2024-03-03T10:26:11Z</time>
      </trkpt>
      <trkpt lat="49.13437" lon="-0.0688">
        <ele>11</ele>
        <time>2024-03-03T10:26:12Z</time>
      </trkpt>
      <trkpt lat="49.13436" lon="-0.0689">
        <ele>11</ele>
        <time>2024-03-03T10:26:13Z</time>
      </trkpt>
      <trkpt lat="49.13435" lon="-0.069">
        <ele>11.1</ele>
        <time>2024-03-03T10:26:14Z</time>
      </trkpt>
      <trkpt lat="49.13435" lon="-0.06911">
        <ele>11.1</ele>
        <time>2024-03-03T10:26:15Z</time>
      </trkpt>
      <trkpt lat="49.13435" lon="-0.06921">
        <ele>11.1</ele>
        <time>2024-03-03T10:26:16Z</time>
      </trkpt>
      <trkpt lat="49.13434" lon="-0.06932">
        <ele>11.1</ele>
        <time>2024-03-03T10:26:17Z</time>
      </trkpt>
      <trkpt lat="49.13434" lon="-0.06942">
        <ele>11.1</ele>
        <time>2024-03-03T10:26:18Z</time>
      </trkpt>
      <trkpt lat="49.13433" lon="-0.06952">
        <ele>11.2</ele>
        <time>2024-03-03T10:26:19Z</time>
      </trkpt>
      <trkpt lat="49.13433" lon="-0.06962">
        <ele>11.2</ele>
        <time>2024-03-03T10:26:20Z</time>
      </trkpt>
      <trkpt lat="49.13433" lon="-0.06973">
        <ele>11.2</ele>
        <time>2024-03-03T10:26:21Z</time>
      </trkpt>
      <trkpt lat="49.13432" lon="-0.06983">
        <ele>11.2</ele>
        <time>2024-03-03T10:26:22Z</time>
      </trkpt>
      <trkpt lat="49.13431" lon="-0.06994">
        <ele>11.2</ele>
        <time>2024-03-03T10:26:23Z</time>
      </trkpt>
      <trkpt lat="49.13431" lon="-0.07005">
        <ele>11.2</ele>
        <time>2024-03-03T10:26:24Z</time>
      </trkpt>
      <trkpt lat="49.1343" lon="-0.07015">
        <ele>11.2</ele>
        <time>2024-03-03T10:26:25Z</time>
      </trkpt>
      <trkpt lat="49.1343" lon="-0.07026">
        <ele>11.2</ele>
        <time>2024-03-03T10:26:26Z</time>
      </trkpt>
      <trkpt lat="49.13429" lon="-0.07037">
        <ele>11.1</ele>
        <time>2024-03-03T10:26:27Z</time>
      </trkpt>
      <trkpt lat="49.13429" lon="-0.07047">
        <ele>11.1</ele>
        <time>2024-03-03T10:26:28Z</time>
      </trkpt>
      <trkpt lat="49.13429" lon="-0.07058">
        <ele>11.1</ele>
        <time>2024-03-03T10:26:29Z</time>
      </trkpt>
      <trkpt lat="49.13428" lon="-0.07069">
        <ele>11</ele>
        <time>2024-03-03T10:26:30Z</time>
      </trkpt>
      <trkpt lat="49.13428" lon="-0.0708">
        <ele>11</ele>
        <time>2024-03-03T10:26:31Z</time>
      </trkpt>
      <trkpt lat="49.13428" lon="-0.0709">
        <ele>11</ele>
        <time>2024-03-03T10:26:32Z</time>
      </trkpt>
      <trkpt lat="49.13427" lon="-0.07101">
        <ele>11</ele>
        <time>2024-03-03T10:26:33Z</time>
      </trkpt>
      <trkpt lat="49.13427" lon="-0.07111">
        <ele>11</ele>
        <time>2024-03-03T10:26:34Z</time>
      </trkpt>
      <trkpt lat="49.13426" lon="-0.07121">
        <ele>10.9</ele>
        <time>2024-03-03T10:26:35Z</time>
      </trkpt>
      <trkpt lat="49.13425" lon="-0.07131">
        <ele>10.9</ele>
        <time>2024-03-03T10:26:36Z</time>
      </trkpt>
      <trkpt lat="49.13425" lon="-0.07142">
        <ele>10.9</ele>
        <time>2024-03-03T10:26:37Z</time>
      </trkpt>
      <trkpt lat="49.13424" lon="-0.07152">
        <ele>10.9</ele>
        <time>2024-03-03T10:26:38Z</time>
      </trkpt>
      <trkpt lat="49.13424" lon="-0.07163">
        <ele>10.9</ele>
        <time>2024-03-03T10:26:39Z</time>
      </trkpt>
      <trkpt lat="49.13423" lon="-0.07174">
        <ele>10.9</ele>
        <time>2024-03-03T10:26:40Z</time>
      </trkpt>
      <trkpt lat="49.13423" lon="-0.07185">
        <ele>10.9</ele>
        <time>2024-03-03T10:26:41Z</time>
      </trkpt>
      <trkpt lat="49.13422" lon="-0.07196">
        <ele>10.9</ele>
        <time>2024-03-03T10:26:42Z</time>
      </trkpt>
      <trkpt lat="49.13422" lon="-0.07206">
        <ele>10.9</ele>
        <time>2024-03-03T10:26:43Z</time>
      </trkpt>
      <trkpt lat="49.13421" lon="-0.07218">
        <ele>10.9</ele>
        <time>2024-03-03T10:26:44Z</time>
      </trkpt>
      <trkpt lat="49.13421" lon="-0.07228">
        <ele>10.8</ele>
        <time>2024-03-03T10:26:45Z</time>
      </trkpt>
      <trkpt lat="49.13421" lon="-0.0724">
        <ele>10.8</ele>
        <time>2024-03-03T10:26:46Z</time>
      </trkpt>
      <trkpt lat="49.1342" lon="-0.0725">
        <ele>10.8</ele>
        <time>2024-03-03T10:26:47Z</time>
      </trkpt>
      <trkpt lat="49.1342" lon="-0.07261">
        <ele>10.8</ele>
        <time>2024-03-03T10:26:48Z</time>
      </trkpt>
      <trkpt lat="49.1342" lon="-0.07272">
        <ele>10.8</ele>
        <time>2024-03-03T10:26:49Z</time>
      </trkpt>
      <trkpt lat="49.13419" lon="-0.07283">
        <ele>10.8</ele>
        <time>2024-03-03T10:26:50Z</time>
      </trkpt>
      <trkpt lat="49.13419" lon="-0.07294">
        <ele>10.8</ele>
        <time>2024-03-03T10:26:51Z</time>
      </trkpt>
      <trkpt lat="49.13418" lon="-0.07304">
        <ele>10.8</ele>
        <time>2024-03-03T10:26:52Z</time>
      </trkpt>
      <trkpt lat="49.13418" lon="-0.07315">
        <ele>10.8</ele>
        <time>2024-03-03T10:26:53Z</time>
      </trkpt>
      <trkpt lat="49.13417" lon="-0.07325">
        <ele>10.8</ele>
        <time>2024-03-03T10:26:54Z</time>
      </trkpt>
      <trkpt lat="49.13417" lon="-0.07335">
        <ele>10.8</ele>
        <time>2024-03-03T10:26:55Z</time>
      </trkpt>
      <trkpt lat="49.13417" lon="-0.07346">
        <ele>10.8</ele>
        <time>2024-03-03T10:26:56Z</time>
      </trkpt>
      <trkpt lat="49.13416" lon="-0.07356">
        <ele>10.8</ele>
        <time>2024-03-03T10:26:57Z</time>
      </trkpt>
      <trkpt lat="49.13416" lon="-0.07367">
        <ele>10.8</ele>
        <time>2024-03-03T10:26:58Z</time>
      </trkpt>
      <trkpt lat="49.13415" lon="-0.07377">
        <ele>10.8</ele>
        <time>2024-03-03T10:26:59Z</time>
      </trkpt>
      <trkpt lat="49.13415" lon="-0.07387">
        <ele>10.8</ele>
        <time>2024-03-03T10:27:00Z</time>
      </trkpt>
      <trkpt lat="49.13414" lon="-0.07397">
        <ele>10.8</ele>
        <time>2024-03-03T10:27:01Z</time>
      </trkpt>
      <trkpt lat="49.13414" lon="-0.07408">
        <ele>10.8</ele>
        <time>2024-03-03T10:27:02Z</time>
      </trkpt>
      <trkpt lat="49.13413" lon="-0.07418">
        <ele>10.8</ele>
        <time>2024-03-03T10:27:03Z</time>
      </trkpt>
      <trkpt lat="49.13413" lon="-0.07428">
        <ele>10.8</ele>
        <time>2024-03-03T10:27:04Z</time>
      </trkpt>
      <trkpt lat="49.13412" lon="-0.07438">
        <ele>10.7</ele>
        <time>2024-03-03T10:27:05Z</time>
      </trkpt>
      <trkpt lat="49.13412" lon="-0.07448">
        <ele>10.7</ele>
        <time>2024-03-03T10:27:06Z</time>
      </trkpt>
      <trkpt lat="49.13411" lon="-0.07458">
        <ele>10.7</ele>
        <time>2024-03-03T10:27:07Z</time>
      </trkpt>
      <trkpt lat="49.13411" lon="-0.07469">
        <ele>10.6</ele>
        <time>2024-03-03T10:27:08Z</time>
      </trkpt>
      <trkpt lat="49.13411" lon="-0.07478">
        <ele>10.5</ele>
        <time>2024-03-03T10:27:09Z</time>
      </trkpt>
      <trkpt lat="49.1341" lon="-0.07488">
        <ele>10.5</ele>
        <time>2024-03-03T10:27:10Z</time>
      </trkpt>
      <trkpt lat="49.1341" lon="-0.07498">
        <ele>10.4</ele>
        <time>2024-03-03T10:27:11Z</time>
      </trkpt>
      <trkpt lat="49.1341" lon="-0.07508">
        <ele>10.3</ele>
        <time>2024-03-03T10:27:12Z</time>
      </trkpt>
      <trkpt lat="49.13409" lon="-0.07517">
        <ele>10.2</ele>
        <time>2024-03-03T10:27:13Z</time>
      </trkpt>
      <trkpt lat="49.13409" lon="-0.07527">
        <ele>10.1</ele>
        <time>2024-03-03T10:27:14Z</time>
      </trkpt>
      <trkpt lat="49.13408" lon="-0.07537">
        <ele>9.9</ele>
        <time>2024-03-03T10:27:15Z</time>
      </trkpt>
      <trkpt lat="49.1341" lon="-0.07545">
        <ele>9.8</ele>
        <time>2024-03-03T10:27:16Z</time>
      </trkpt>
      <trkpt lat="49.13415" lon="-0.07549">
        <ele>9.8</ele>
        <time>2024-03-03T10:27:17Z</time>
      </trkpt>
      <trkpt lat="49.13422" lon="-0.0755">
        <ele>9.8</ele>
        <time>2024-03-03T10:27:18Z</time>
      </trkpt>
      <trkpt lat="49.13428" lon="-0.07551">
        <ele>9.8</ele>
        <time>2024-03-03T10:27:19Z</time>
      </trkpt>
      <trkpt lat="49.13435" lon="-0.07552">
        <ele>9.8</ele>
        <time>2024-03-03T10:27:20Z</time>
      </trkpt>
      <trkpt lat="49.13442" lon="-0.07552">
        <ele>9.8</ele>
        <time>2024-03-03T10:27:21Z</time>
      </trkpt>
      <trkpt lat="49.13449" lon="-0.07552">
        <ele>9.8</ele>
        <time>2024-03-03T10:27:22Z</time>
      </trkpt>
      <trkpt lat="49.13456" lon="-0.07553">
        <ele>9.8</ele>
        <time>2024-03-03T10:27:23Z</time>
      </trkpt>
      <trkpt lat="49.13463" lon="-0.07555">
        <ele>9.7</ele>
        <time>2024-03-03T10:27:24Z</time>
      </trkpt>
      <trkpt lat="49.13469" lon="-0.07556">
        <ele>9.7</ele>
        <time>2024-03-03T10:27:25Z</time>
      </trkpt>
      <trkpt lat="49.13476" lon="-0.07556">
        <ele>9.7</ele>
        <time>2024-03-03T10:27:26Z</time>
      </trkpt>
      <trkpt lat="49.13482" lon="-0.07557">
        <ele>9.6</ele>
        <time>2024-03-03T10:27:27Z</time>
      </trkpt>
      <trkpt lat="49.13489" lon="-0.07558">
        <ele>9.5</ele>
        <time>2024-03-03T10:27:28Z</time>
      </trkpt>
      <trkpt lat="49.13496" lon="-0.07559">
        <ele>9.5</ele>
        <time>2024-03-03T10:27:29Z</time>
      </trkpt>
      <trkpt lat="49.13503" lon="-0.0756">
        <ele>9.4</ele>
        <time>2024-03-03T10:27:30Z</time>
      </trkpt>
      <trkpt lat="49.1351" lon="-0.07561">
        <ele>9.3</ele>
        <time>2024-03-03T10:27:31Z</time>
      </trkpt>
      <trkpt lat="49.13517" lon="-0.07562">
        <ele>9.3</ele>
        <time>2024-03-03T10:27:32Z</time>
      </trkpt>
      <trkpt lat="49.13524" lon="-0.07563">
        <ele>9.2</ele>
        <time>2024-03-03T10:27:33Z</time>
      </trkpt>
      <trkpt lat="49.13531" lon="-0.07564">
        <ele>9.2</ele>
        <time>2024-03-03T10:27:34Z</time>
      </trkpt>
      <trkpt lat="49.13538" lon="-0.07566">
        <ele>9.2</ele>
        <time>2024-03-03T10:27:35Z</time>
      </trkpt>
      <trkpt lat="49.13545" lon="-0.07568">
        <ele>9.2</ele>
        <time>2024-03-03T10:27:36Z</time>
      </trkpt>
      <trkpt lat="49.13552" lon="-0.0757">
        <ele>9.2</ele>
        <time>2024-03-03T10:27:37Z</time>
      </trkpt>
      <trkpt lat="49.13559" lon="-0.07573">
        <ele>9.3</ele>
        <time>2024-03-03T10:27:38Z</time>
      </trkpt>
      <trkpt lat="49.13566" lon="-0.07575">
        <ele>9.3</ele>
        <time>2024-03-03T10:27:39Z</time>
      </trkpt>
      <trkpt lat="49.13574" lon="-0.07577">
        <ele>9.3</ele>
        <time>2024-03-03T10:27:40Z</time>
      </trkpt>
      <trkpt lat="49.1358" lon="-0.07578">
        <ele>9.3</ele>
        <time>2024-03-03T10:27:41Z</time>
      </trkpt>
      <trkpt lat="49.13587" lon="-0.07578">
        <ele>9.3</ele>
        <time>2024-03-03T10:27:42Z</time>
      </trkpt>
      <trkpt lat="49.13593" lon="-0.07578">
        <ele>9.4</ele>
        <time>2024-03-03T10:27:43Z</time>
      </trkpt>
      <trkpt lat="49.136" lon="-0.07577">
        <ele>9.4</ele>
        <time>2024-03-03T10:27:44Z</time>
      </trkpt>
      <trkpt lat="49.13607" lon="-0.07575">
        <ele>9.5</ele>
        <time>2024-03-03T10:27:45Z</time>
      </trkpt>
      <trkpt lat="49.13614" lon="-0.07574">
        <ele>9.5</ele>
        <time>2024-03-03T10:27:46Z</time>
      </trkpt>
      <trkpt lat="49.1362" lon="-0.07571">
        <ele>9.6</ele>
        <time>2024-03-03T10:27:47Z</time>
      </trkpt>
      <trkpt lat="49.13627" lon="-0.0757">
        <ele>9.7</ele>
        <time>2024-03-03T10:27:48Z</time>
      </trkpt>
      <trkpt lat="49.13634" lon="-0.07568">
        <ele>9.8</ele>
        <time>2024-03-03T10:27:49Z</time>
      </trkpt>
      <trkpt lat="49.13641" lon="-0.07566">
        <ele>9.9</ele>
        <time>2024-03-03T10:27:50Z</time>
      </trkpt>
      <trkpt lat="49.13647" lon="-0.07564">
        <ele>10</ele>
        <time>2024-03-03T10:27:51Z</time>
      </trkpt>
      <trkpt lat="49.13654" lon="-0.07563">
        <ele>10.1</ele>
        <time>2024-03-03T10:27:52Z</time>
      </trkpt>
      <trkpt lat="49.13661" lon="-0.07561">
        <ele>10.2</ele>
        <time>2024-03-03T10:27:53Z</time>
      </trkpt>
      <trkpt lat="49.13667" lon="-0.07559">
        <ele>10.2</ele>
        <time>2024-03-03T10:27:54Z</time>
      </trkpt>
      <trkpt lat="49.13674" lon="-0.07558">
        <ele>10.2</ele>
        <time>2024-03-03T10:27:55Z</time>
      </trkpt>
      <trkpt lat="49.13681" lon="-0.07558">
        <ele>10.2</ele>
        <time>2024-03-03T10:27:56Z</time>
      </trkpt>
      <trkpt lat="49.13687" lon="-0.07558">
        <ele>10.2</ele>
        <time>2024-03-03T10:27:57Z</time>
      </trkpt>
      <trkpt lat="49.13694" lon="-0.07558">
        <ele>10.2</ele>
        <time>2024-03-03T10:27:58Z</time>
      </trkpt>
      <trkpt lat="49.137" lon="-0.07559">
        <ele>10.1</ele>
        <time>2024-03-03T10:27:59Z</time>
      </trkpt>
      <trkpt lat="49.13707" lon="-0.07561">
        <ele>10</ele>
        <time>2024-03-03T10:28:00Z</time>
      </trkpt>
      <trkpt lat="49.13714" lon="-0.07564">
        <ele>9.8</ele>
        <time>2024-03-03T10:28:01Z</time>
      </trkpt>
      <trkpt lat="49.13721" lon="-0.07567">
        <ele>9.7</ele>
        <time>2024-03-03T10:28:02Z</time>
      </trkpt>
      <trkpt lat="49.13728" lon="-0.07571">
        <ele>9.6</ele>
        <time>2024-03-03T10:28:03Z</time>
      </trkpt>
      <trkpt lat="49.13735" lon="-0.07574">
        <ele>9.6</ele>
        <time>2024-03-03T10:28:04Z</time>
      </trkpt>
      <trkpt lat="49.13742" lon="-0.07578">
        <ele>9.5</ele>
        <time>2024-03-03T10:28:05Z</time>
      </trkpt>
      <trkpt lat="49.13749" lon="-0.07581">
        <ele>9.5</ele>
        <time>2024-03-03T10:28:06Z</time>
      </trkpt>
      <trkpt lat="49.13756" lon="-0.07585">
        <ele>9.5</ele>
        <time>2024-03-03T10:28:07Z</time>
      </trkpt>
      <trkpt lat="49.13763" lon="-0.07589">
        <ele>9.4</ele>
        <time>2024-03-03T10:28:08Z</time>
      </trkpt>
      <trkpt lat="49.13769" lon="-0.07592">
        <ele>9.4</ele>
        <time>2024-03-03T10:28:09Z</time>
      </trkpt>
      <trkpt lat="49.13775" lon="-0.07596">
        <ele>9.4</ele>
        <time>2024-03-03T10:28:10Z</time>
      </trkpt>
      <trkpt lat="49.13782" lon="-0.076">
        <ele>9.3</ele>
        <time>2024-03-03T10:28:11Z</time>
      </trkpt>
      <trkpt lat="49.13788" lon="-0.07604">
        <ele>9.3</ele>
        <time>2024-03-03T10:28:12Z</time>
      </trkpt>
      <trkpt lat="49.13795" lon="-0.07608">
        <ele>9.1</ele>
        <time>2024-03-03T10:28:13Z</time>
      </trkpt>
      <trkpt lat="49.13802" lon="-0.07611">
        <ele>9</ele>
        <time>2024-03-03T10:28:14Z</time>
      </trkpt>
      <trkpt lat="49.13809" lon="-0.07615">
        <ele>8.9</ele>
        <time>2024-03-03T10:28:15Z</time>
      </trkpt>
      <trkpt lat="49.13816" lon="-0.07618">
        <ele>8.8</ele>
        <time>2024-03-03T10:28:16Z</time>
      </trkpt>
      <trkpt lat="49.13822" lon="-0.07622">
        <ele>8.7</ele>
        <time>2024-03-03T10:28:17Z</time>
      </trkpt>
      <trkpt lat="49.13829" lon="-0.07626">
        <ele>8.6</ele>
        <time>2024-03-03T10:28:18Z</time>
      </trkpt>
      <trkpt lat="49.13835" lon="-0.07629">
        <ele>8.6</ele>
        <time>2024-03-03T10:28:19Z</time>
      </trkpt>
      <trkpt lat="49.13841" lon="-0.07632">
        <ele>8.5</ele>
        <time>2024-03-03T10:28:20Z</time>
      </trkpt>
      <trkpt lat="49.13848" lon="-0.07635">
        <ele>8.5</ele>
        <time>2024-03-03T10:28:21Z</time>
      </trkpt>
      <trkpt lat="49.13854" lon="-0.07638">
        <ele>8.4</ele>
        <time>2024-03-03T10:28:22Z</time>
      </trkpt>
      <trkpt lat="49.1386" lon="-0.07641">
        <ele>8.4</ele>
        <time>2024-03-03T10:28:23Z</time>
      </trkpt>
      <trkpt lat="49.13867" lon="-0.07644">
        <ele>8.4</ele>
        <time>2024-03-03T10:28:24Z</time>
      </trkpt>
      <trkpt lat="49.13873" lon="-0.07647">
        <ele>8.3</ele>
        <time>2024-03-03T10:28:25Z</time>
      </trkpt>
      <trkpt lat="49.13878" lon="-0.0765">
        <ele>8.3</ele>
        <time>2024-03-03T10:28:26Z</time>
      </trkpt>
      <trkpt lat="49.13884" lon="-0.07653">
        <ele>8.3</ele>
        <time>2024-03-03T10:28:27Z</time>
      </trkpt>
      <trkpt lat="49.1389" lon="-0.07655">
        <ele>8.3</ele>
        <time>2024-03-03T10:28:28Z</time>
      </trkpt>
      <trkpt lat="49.13897" lon="-0.07657">
        <ele>8.2</ele>
        <time>2024-03-03T10:28:29Z</time>
      </trkpt>
      <trkpt lat="49.13903" lon="-0.07658">
        <ele>8.2</ele>
        <time>2024-03-03T10:28:30Z</time>
      </trkpt>
      <trkpt lat="49.13909" lon="-0.07658">
        <ele>8.1</ele>
        <time>2024-03-03T10:28:31Z</time>
      </trkpt>
      <trkpt lat="49.13915" lon="-0.07658">
        <ele>8</ele>
        <time>2024-03-03T10:28:32Z</time>
      </trkpt>
      <trkpt lat="49.13922" lon="-0.07658">
        <ele>7.9</ele>
        <time>2024-03-03T10:28:33Z</time>
      </trkpt>
      <trkpt lat="49.13929" lon="-0.07659">
        <ele>7.8</ele>
        <time>2024-03-03T10:28:34Z</time>
      </trkpt>
      <trkpt lat="49.13936" lon="-0.07658">
        <ele>7.7</ele>
        <time>2024-03-03T10:28:35Z</time>
      </trkpt>
      <trkpt lat="49.13944" lon="-0.07658">
        <ele>7.6</ele>
        <time>2024-03-03T10:28:36Z</time>
      </trkpt>
      <trkpt lat="49.1395" lon="-0.07656">
        <ele>7.6</ele>
        <time>2024-03-03T10:28:37Z</time>
      </trkpt>
      <trkpt lat="49.13957" lon="-0.07653">
        <ele>7.5</ele>
        <time>2024-03-03T10:28:38Z</time>
      </trkpt>
      <trkpt lat="49.13964" lon="-0.07649">
        <ele>7.5</ele>
        <time>2024-03-03T10:28:39Z</time>
      </trkpt>
      <trkpt lat="49.1397" lon="-0.07644">
        <ele>7.4</ele>
        <time>2024-03-03T10:28:40Z</time>
      </trkpt>
      <trkpt lat="49.13975" lon="-0.07638">
        <ele>7.4</ele>
        <time>2024-03-03T10:28:41Z</time>
      </trkpt>
      <trkpt lat="49.13981" lon="-0.07633">
        <ele>7.3</ele>
        <time>2024-03-03T10:28:42Z</time>
      </trkpt>
      <trkpt lat="49.13987" lon="-0.07626">
        <ele>7.3</ele>
        <time>2024-03-03T10:28:43Z</time>
      </trkpt>
      <trkpt lat="49.13993" lon="-0.0762">
        <ele>7.2</ele>
        <time>2024-03-03T10:28:44Z</time>
      </trkpt>
      <trkpt lat="49.13998" lon="-0.07613">
        <ele>7.2</ele>
        <time>2024-03-03T10:28:45Z</time>
      </trkpt>
      <trkpt lat="49.14004" lon="-0.07605">
        <ele>7.2</ele>
        <time>2024-03-03T10:28:46Z</time>
      </trkpt>
      <trkpt lat="49.14009" lon="-0.07597">
        <ele>7.1</ele>
        <time>2024-03-03T10:28:47Z</time>
      </trkpt>
      <trkpt lat="49.14013" lon="-0.07589">
        <ele>7</ele>
        <time>2024-03-03T10:28:48Z</time>
      </trkpt>
      <trkpt lat="49.14018" lon="-0.0758">
        <ele>7</ele>
        <time>2024-03-03T10:28:49Z</time>
      </trkpt>
      <trkpt lat="49.14023" lon="-0.07572">
        <ele>6.9</ele>
        <time>2024-03-03T10:28:50Z</time>
      </trkpt>
      <trkpt lat="49.14028" lon="-0.07564">
        <ele>6.9</ele>
        <time>2024-03-03T10:28:51Z</time>
      </trkpt>
      <trkpt lat="49.14033" lon="-0.07555">
        <ele>6.9</ele>
        <time>2024-03-03T10:28:52Z</time>
      </trkpt>
      <trkpt lat="49.14039" lon="-0.07548">
        <ele>6.8</ele>
        <time>2024-03-03T10:28:53Z</time>
      </trkpt>
      <trkpt lat="49.14044" lon="-0.0754">
        <ele>6.8</ele>
        <time>2024-03-03T10:28:54Z</time>
      </trkpt>
      <trkpt lat="49.14049" lon="-0.07532">
        <ele>6.8</ele>
        <time>2024-03-03T10:28:55Z</time>
      </trkpt>
      <trkpt lat="49.14055" lon="-0.07525">
        <ele>6.8</ele>
        <time>2024-03-03T10:28:56Z</time>
      </trkpt>
      <trkpt lat="49.14061" lon="-0.07519">
        <ele>6.9</ele>
        <time>2024-03-03T10:28:57Z</time>
      </trkpt>
      <trkpt lat="49.14067" lon="-0.07513">
        <ele>6.9</ele>
        <time>2024-03-03T10:28:58Z</time>
      </trkpt>
      <trkpt lat="49.14074" lon="-0.07508">
        <ele>7</ele>
        <time>2024-03-03T10:28:59Z</time>
      </trkpt>
      <trkpt lat="49.1408" lon="-0.07503">
        <ele>7.1</ele>
        <time>2024-03-03T10:29:00Z</time>
      </trkpt>
      <trkpt lat="49.14087" lon="-0.07499">
        <ele>7.1</ele>
        <time>2024-03-03T10:29:01Z</time>
      </trkpt>
      <trkpt lat="49.14093" lon="-0.07495">
        <ele>7.2</ele>
        <time>2024-03-03T10:29:02Z</time>
      </trkpt>
      <trkpt lat="49.141" lon="-0.07491">
        <ele>7.3</ele>
        <time>2024-03-03T10:29:03Z</time>
      </trkpt>
      <trkpt lat="49.14106" lon="-0.07487">
        <ele>7.3</ele>
        <time>2024-03-03T10:29:04Z</time>
      </trkpt>
      <trkpt lat="49.14113" lon="-0.07483">
        <ele>7.4</ele>
        <time>2024-03-03T10:29:05Z</time>
      </trkpt>
      <trkpt lat="49.1412" lon="-0.07479">
        <ele>7.4</ele>
        <time>2024-03-03T10:29:06Z</time>
      </trkpt>
      <trkpt lat="49.14127" lon="-0.07475">
        <ele>7.4</ele>
        <time>2024-03-03T10:29:07Z</time>
      </trkpt>
      <trkpt lat="49.14134" lon="-0.07471">
        <ele>7.4</ele>
        <time>2024-03-03T10:29:08Z</time>
      </trkpt>
      <trkpt lat="49.1414" lon="-0.07467">
        <ele>7.4</ele>
        <time>2024-03-03T10:29:09Z</time>
      </trkpt>
      <trkpt lat="49.14146" lon="-0.07463">
        <ele>7.4</ele>
        <time>2024-03-03T10:29:10Z</time>
      </trkpt>
      <trkpt lat="49.14153" lon="-0.07459">
        <ele>7.5</ele>
        <time>2024-03-03T10:29:11Z</time>
      </trkpt>
      <trkpt lat="49.14159" lon="-0.07454">
        <ele>7.5</ele>
        <time>2024-03-03T10:29:12Z</time>
      </trkpt>
      <trkpt lat="49.14165" lon="-0.07449">
        <ele>7.5</ele>
        <time>2024-03-03T10:29:13Z</time>
      </trkpt>
      <trkpt lat="49.14171" lon="-0.07445">
        <ele>7.6</ele>
        <time>2024-03-03T10:29:14Z</time>
      </trkpt>
      <trkpt lat="49.14177" lon="-0.07439">
        <ele>7.6</ele>
        <time>2024-03-03T10:29:15Z</time>
      </trkpt>
      <trkpt lat="49.14183" lon="-0.07433">
        <ele>7.6</ele>
        <time>2024-03-03T10:29:16Z</time>
      </trkpt>
      <trkpt lat="49.14189" lon="-0.07427">
        <ele>7.6</ele>
        <time>2024-03-03T10:29:17Z</time>
      </trkpt>
      <trkpt lat="49.14196" lon="-0.0742">
        <ele>7.6</ele>
        <time>2024-03-03T10:29:18Z</time>
      </trkpt>
      <trkpt lat="49.14202" lon="-0.07414">
        <ele>7.6</ele>
        <time>2024-03-03T10:29:19Z</time>
      </trkpt>
      <trkpt lat="49.14208" lon="-0.07407">
        <ele>7.5</ele>
        <time>2024-03-03T10:29:20Z</time>
      </trkpt>
      <trkpt lat="49.14213" lon="-0.074">
        <ele>7.5</ele>
        <time>2024-03-03T10:29:21Z</time>
      </trkpt>
      <trkpt lat="49.14219" lon="-0.07393">
        <ele>7.5</ele>
        <time>2024-03-03T10:29:22Z</time>
      </trkpt>
      <trkpt lat="49.14225" lon="-0.07386">
        <ele>7.5</ele>
        <time>2024-03-03T10:29:23Z</time>
      </trkpt>
      <trkpt lat="49.1423" lon="-0.07379">
        <ele>7.4</ele>
        <time>2024-03-03T10:29:24Z</time>
      </trkpt>
      <trkpt lat="49.14236" lon="-0.07372">
        <ele>7.4</ele>
        <time>2024-03-03T10:29:25Z</time>
      </trkpt>
      <trkpt lat="49.14242" lon="-0.07365">
        <ele>7.4</ele>
        <time>2024-03-03T10:29:26Z</time>
      </trkpt>
      <trkpt lat="49.14247" lon="-0.07358">
        <ele>7.3</ele>
        <time>2024-03-03T10:29:27Z</time>
      </trkpt>
      <trkpt lat="49.14253" lon="-0.0735">
        <ele>7.3</ele>
        <time>2024-03-03T10:29:28Z</time>
      </trkpt>
      <trkpt lat="49.14259" lon="-0.07343">
        <ele>7.3</ele>
        <time>2024-03-03T10:29:29Z</time>
      </trkpt>
      <trkpt lat="49.14264" lon="-0.07335">
        <ele>7.3</ele>
        <time>2024-03-03T10:29:30Z</time>
      </trkpt>
      <trkpt lat="49.1427" lon="-0.07327">
        <ele>7.2</ele>
        <time>2024-03-03T10:29:31Z</time>
      </trkpt>
      <trkpt lat="49.14275" lon="-0.07319">
        <ele>7.2</ele>
        <time>2024-03-03T10:29:32Z</time>
      </trkpt>
      <trkpt lat="49.1428" lon="-0.07311">
        <ele>7.2</ele>
        <time>2024-03-03T10:29:33Z</time>
      </trkpt>
      <trkpt lat="49.14285" lon="-0.07302">
        <ele>7.3</ele>
        <time>2024-03-03T10:29:34Z</time>
      </trkpt>
      <trkpt lat="49.1429" lon="-0.07293">
        <ele>7.3</ele>
        <time>2024-03-03T10:29:35Z</time>
      </trkpt>
      <trkpt lat="49.14294" lon="-0.07285">
        <ele>7.4</ele>
        <time>2024-03-03T10:29:36Z</time>
      </trkpt>
      <trkpt lat="49.14299" lon="-0.07276">
        <ele>7.4</ele>
        <time>2024-03-03T10:29:37Z</time>
      </trkpt>
      <trkpt lat="49.14304" lon="-0.07267">
        <ele>7.5</ele>
        <time>2024-03-03T10:29:38Z</time>
      </trkpt>
      <trkpt lat="49.14309" lon="-0.07259">
        <ele>7.6</ele>
        <time>2024-03-03T10:29:39Z</time>
      </trkpt>
      <trkpt lat="49.14314" lon="-0.07252">
        <ele>7.7</ele>
        <time>2024-03-03T10:29:40Z</time>
      </trkpt>
      <trkpt lat="49.14318" lon="-0.07244">
        <ele>7.7</ele>
        <time>2024-03-03T10:29:41Z</time>
      </trkpt>
      <trkpt lat="49.14324" lon="-0.07237">
        <ele>7.8</ele>
        <time>2024-03-03T10:29:42Z</time>
      </trkpt>
      <trkpt lat="49.14329" lon="-0.0723">
        <ele>7.9</ele>
        <time>2024-03-03T10:29:43Z</time>
      </trkpt>
      <trkpt lat="49.14334" lon="-0.07222">
        <ele>8</ele>
        <time>2024-03-03T10:29:44Z</time>
      </trkpt>
      <trkpt lat="49.1434" lon="-0.07215">
        <ele>8.1</ele>
        <time>2024-03-03T10:29:45Z</time>
      </trkpt>
      <trkpt lat="49.14345" lon="-0.07209">
        <ele>8.1</ele>
        <time>2024-03-03T10:29:46Z</time>
      </trkpt>
      <trkpt lat="49.14351" lon="-0.07202">
        <ele>8.3</ele>
        <time>2024-03-03T10:29:47Z</time>
      </trkpt>
      <trkpt lat="49.14357" lon="-0.07196">
        <ele>8.4</ele>
        <time>2024-03-03T10:29:48Z</time>
      </trkpt>
      <trkpt lat="49.14363" lon="-0.0719">
        <ele>8.6</ele>
        <time>2024-03-03T10:29:49Z</time>
      </trkpt>
      <trkpt lat="49.14368" lon="-0.07183">
        <ele>8.7</ele>
        <time>2024-03-03T10:29:50Z</time>
      </trkpt>
      <trkpt lat="49.14374" lon="-0.07177">
        <ele>8.9</ele>
        <time>2024-03-03T10:29:51Z</time>
      </trkpt>
      <trkpt lat="49.1438" lon="-0.07171">
        <ele>9.1</ele>
        <time>2024-03-03T10:29:52Z</time>
      </trkpt>
      <trkpt lat="49.14385" lon="-0.07166">
        <ele>9.4</ele>
        <time>2024-03-03T10:29:53Z</time>
      </trkpt>
      <trkpt lat="49.1439" lon="-0.0716">
        <ele>9.6</ele>
        <time>2024-03-03T10:29:54Z</time>
      </trkpt>
      <trkpt lat="49.14395" lon="-0.07154">
        <ele>9.8</ele>
        <time>2024-03-03T10:29:55Z</time>
      </trkpt>
      <trkpt lat="49.144" lon="-0.07148">
        <ele>10</ele>
        <time>2024-03-03T10:29:56Z</time>
      </trkpt>
      <trkpt lat="49.14405" lon="-0.07143">
        <ele>10.2</ele>
        <time>2024-03-03T10:29:57Z</time>
      </trkpt>
      <trkpt lat="49.14411" lon="-0.07137">
        <ele>10.4</ele>
        <time>2024-03-03T10:29:58Z</time>
      </trkpt>
      <trkpt lat="49.14416" lon="-0.07132">
        <ele>10.6</ele>
        <time>2024-03-03T10:29:59Z</time>
      </trkpt>
      <trkpt lat="49.14421" lon="-0.07126">
        <ele>10.8</ele>
        <time>2024-03-03T10:30:00Z</time>
      </trkpt>
      <trkpt lat="49.14426" lon="-0.0712">
        <ele>11</ele>
        <time>2024-03-03T10:30:01Z</time>
      </trkpt>
      <trkpt lat="49.14431" lon="-0.07114">
        <ele>11.2</ele>
        <time>2024-03-03T10:30:02Z</time>
      </trkpt>
      <trkpt lat="49.14436" lon="-0.07108">
        <ele>11.4</ele>
        <time>2024-03-03T10:30:03Z</time>
      </trkpt>
      <trkpt lat="49.14441" lon="-0.07102">
        <ele>11.5</ele>
        <time>2024-03-03T10:30:04Z</time>
      </trkpt>
      <trkpt lat="49.14446" lon="-0.07096">
        <ele>11.7</ele>
        <time>2024-03-03T10:30:05Z</time>
      </trkpt>
      <trkpt lat="49.14451" lon="-0.0709">
        <ele>11.8</ele>
        <time>2024-03-03T10:30:06Z</time>
      </trkpt>
      <trkpt lat="49.14456" lon="-0.07084">
        <ele>12</ele>
        <time>2024-03-03T10:30:07Z</time>
      </trkpt>
      <trkpt lat="49.14461" lon="-0.07078">
        <ele>12.1</ele>
        <time>2024-03-03T10:30:08Z</time>
      </trkpt>
      <trkpt lat="49.14466" lon="-0.07072">
        <ele>12.2</ele>
        <time>2024-03-03T10:30:09Z</time>
      </trkpt>
      <trkpt lat="49.14471" lon="-0.07066">
        <ele>12.3</ele>
        <time>2024-03-03T10:30:10Z</time>
      </trkpt>
      <trkpt lat="49.14476" lon="-0.07059">
        <ele>12.4</ele>
        <time>2024-03-03T10:30:11Z</time>
      </trkpt>
      <trkpt lat="49.14481" lon="-0.07053">
        <ele>12.5</ele>
        <time>2024-03-03T10:30:12Z</time>
      </trkpt>
      <trkpt lat="49.14486" lon="-0.07047">
        <ele>12.6</ele>
        <time>2024-03-03T10:30:13Z</time>
      </trkpt>
      <trkpt lat="49.14491" lon="-0.07041">
        <ele>12.7</ele>
        <time>2024-03-03T10:30:14Z</time>
      </trkpt>
      <trkpt lat="49.14496" lon="-0.07034">
        <ele>12.8</ele>
        <time>2024-03-03T10:30:15Z</time>
      </trkpt>
      <trkpt lat="49.145" lon="-0.07027">
        <ele>12.8</ele>
        <time>2024-03-03T10:30:16Z</time>
      </trkpt>
      <trkpt lat="49.14505" lon="-0.0702">
        <ele>12.9</ele>
        <time>2024-03-03T10:30:17Z</time>
      </trkpt>
      <trkpt lat="49.1451" lon="-0.07012">
        <ele>12.9</ele>
        <time>2024-03-03T10:30:18Z</time>
      </trkpt>
      <trkpt lat="49.14515" lon="-0.07004">
        <ele>13</ele>
        <time>2024-03-03T10:30:19Z</time>
      </trkpt>
      <trkpt lat="49.1452" lon="-0.06996">
        <ele>13</ele>
        <time>2024-03-03T10:30:20Z</time>
      </trkpt>
      <trkpt lat="49.14525" lon="-0.06988">
        <ele>13.1</ele>
        <time>2024-03-03T10:30:21Z</time>
      </trkpt>
      <trkpt lat="49.14529" lon="-0.0698">
        <ele>13.1</ele>
        <time>2024-03-03T10:30:22Z</time>
      </trkpt>
      <trkpt lat="49.14534" lon="-0.06972">
        <ele>13.1</ele>
        <time>2024-03-03T10:30:23Z</time>
      </trkpt>
      <trkpt lat="49.14539" lon="-0.06964">
        <ele>13.1</ele>
        <time>2024-03-03T10:30:24Z</time>
      </trkpt>
      <trkpt lat="49.14543" lon="-0.06955">
        <ele>13.2</ele>
        <time>2024-03-03T10:30:25Z</time>
      </trkpt>
      <trkpt lat="49.14548" lon="-0.06947">
        <ele>13.1</ele>
        <time>2024-03-03T10:30:26Z</time>
      </trkpt>
      <trkpt lat="49.14553" lon="-0.06939">
        <ele>13.1</ele>
        <time>2024-03-03T10:30:27Z</time>
      </trkpt>
      <trkpt lat="49.14558" lon="-0.06932">
        <ele>13</ele>
        <time>2024-03-03T10:30:28Z</time>
      </trkpt>
      <trkpt lat="49.14563" lon="-0.06924">
        <ele>13</ele>
        <time>2024-03-03T10:30:29Z</time>
      </trkpt>
      <trkpt lat="49.14568" lon="-0.06917">
        <ele>13</ele>
        <time>2024-03-03T10:30:30Z</time>
      </trkpt>
      <trkpt lat="49.14573" lon="-0.06909">
        <ele>13</ele>
        <time>2024-03-03T10:30:31Z</time>
      </trkpt>
      <trkpt lat="49.14578" lon="-0.06901">
        <ele>12.9</ele>
        <time>2024-03-03T10:30:32Z</time>
      </trkpt>
      <trkpt lat="49.14583" lon="-0.06894">
        <ele>12.9</ele>
        <time>2024-03-03T10:30:33Z</time>
      </trkpt>
      <trkpt lat="49.14588" lon="-0.06886">
        <ele>12.9</ele>
        <time>2024-03-03T10:30:34Z</time>
      </trkpt>
      <trkpt lat="49.14593" lon="-0.06878">
        <ele>12.9</ele>
        <time>2024-03-03T10:30:35Z</time>
      </trkpt>
      <trkpt lat="49.14598" lon="-0.0687">
        <ele>12.8</ele>
        <time>2024-03-03T10:30:36Z</time>
      </trkpt>
      <trkpt lat="49.14603" lon="-0.06862">
        <ele>12.8</ele>
        <time>2024-03-03T10:30:37Z</time>
      </trkpt>
      <trkpt lat="49.14608" lon="-0.06854">
        <ele>12.7</ele>
        <time>2024-03-03T10:30:38Z</time>
      </trkpt>
      <trkpt lat="49.14613" lon="-0.06846">
        <ele>12.7</ele>
        <time>2024-03-03T10:30:39Z</time>
      </trkpt>
      <trkpt lat="49.14618" lon="-0.06837">
        <ele>12.7</ele>
        <time>2024-03-03T10:30:40Z</time>
      </trkpt>
      <trkpt lat="49.14622" lon="-0.06829">
        <ele>12.6</ele>
        <time>2024-03-03T10:30:41Z</time>
      </trkpt>
      <trkpt lat="49.14627" lon="-0.06821">
        <ele>12.6</ele>
        <time>2024-03-03T10:30:42Z</time>
      </trkpt>
      <trkpt lat="49.14632" lon="-0.06812">
        <ele>12.6</ele>
        <time>2024-03-03T10:30:43Z</time>
      </trkpt>
      <trkpt lat="49.14637" lon="-0.06804">
        <ele>12.5</ele>
        <time>2024-03-03T10:30:44Z</time>
      </trkpt>
      <trkpt lat="49.14641" lon="-0.06795">
        <ele>12.5</ele>
        <time>2024-03-03T10:30:45Z</time>
      </trkpt>
      <trkpt lat="49.14646" lon="-0.06786">
        <ele>12.5</ele>
        <time>2024-03-03T10:30:46Z</time>
      </trkpt>
      <trkpt lat="49.14651" lon="-0.06777">
        <ele>12.4</ele>
        <time>2024-03-03T10:30:47Z</time>
      </trkpt>
      <trkpt lat="49.14656" lon="-0.06768">
        <ele>12.4</ele>
        <time>2024-03-03T10:30:48Z</time>
      </trkpt>
      <trkpt lat="49.1466" lon="-0.06758">
        <ele>12.4</ele>
        <time>2024-03-03T10:30:49Z</time>
      </trkpt>
      <trkpt lat="49.14665" lon="-0.06749">
        <ele>12.3</ele>
        <time>2024-03-03T10:30:50Z</time>
      </trkpt>
      <trkpt lat="49.14669" lon="-0.0674">
        <ele>12.2</ele>
        <time>2024-03-03T10:30:51Z</time>
      </trkpt>
      <trkpt lat="49.14674" lon="-0.06731">
        <ele>12.1</ele>
        <time>2024-03-03T10:30:52Z</time>
      </trkpt>
      <trkpt lat="49.14677" lon="-0.06721">
        <ele>12</ele>
        <time>2024-03-03T10:30:53Z</time>
      </trkpt>
      <trkpt lat="49.14681" lon="-0.06711">
        <ele>11.9</ele>
        <time>2024-03-03T10:30:54Z</time>
      </trkpt>
      <trkpt lat="49.14684" lon="-0.06701">
        <ele>11.8</ele>
        <time>2024-03-03T10:30:55Z</time>
      </trkpt>
      <trkpt lat="49.14687" lon="-0.06691">
        <ele>11.6</ele>
        <time>2024-03-03T10:30:56Z</time>
      </trkpt>
      <trkpt lat="49.14689" lon="-0.0668">
        <ele>11.4</ele>
        <time>2024-03-03T10:30:57Z</time>
      </trkpt>
      <trkpt lat="49.14691" lon="-0.06669">
        <ele>11.2</ele>
        <time>2024-03-03T10:30:58Z</time>
      </trkpt>
      <trkpt lat="49.14694" lon="-0.06658">
        <ele>11</ele>
        <time>2024-03-03T10:30:59Z</time>
      </trkpt>
      <trkpt lat="49.14697" lon="-0.06646">
        <ele>10.8</ele>
        <time>2024-03-03T10:31:00Z</time>
      </trkpt>
      <trkpt lat="49.147" lon="-0.06635">
        <ele>10.5</ele>
        <time>2024-03-03T10:31:01Z</time>
      </trkpt>
      <trkpt lat="49.14703" lon="-0.06623">
        <ele>10.3</ele>
        <time>2024-03-03T10:31:02Z</time>
      </trkpt>
      <trkpt lat="49.14707" lon="-0.06611">
        <ele>10.1</ele>
        <time>2024-03-03T10:31:03Z</time>
      </trkpt>
      <trkpt lat="49.14712" lon="-0.066">
        <ele>9.9</ele>
        <time>2024-03-03T10:31:04Z</time>
      </trkpt>
      <trkpt lat="49.14718" lon="-0.0659">
        <ele>9.8</ele>
        <time>2024-03-03T10:31:05Z</time>
      </trkpt>
      <trkpt lat="49.14725" lon="-0.06581">
        <ele>9.5</ele>
        <time>2024-03-03T10:31:06Z</time>
      </trkpt>
      <trkpt lat="49.14731" lon="-0.06573">
        <ele>9.3</ele>
        <time>2024-03-03T10:31:07Z</time>
      </trkpt>
      <trkpt lat="49.14739" lon="-0.06567">
        <ele>9.1</ele>
        <time>2024-03-03T10:31:08Z</time>
      </trkpt>
      <trkpt lat="49.14747" lon="-0.06562">
        <ele>8.9</ele>
        <time>2024-03-03T10:31:09Z</time>
      </trkpt>
      <trkpt lat="49.14756" lon="-0.06559">
        <ele>8.7</ele>
        <time>2024-03-03T10:31:10Z</time>
      </trkpt>
      <trkpt lat="49.14764" lon="-0.06558">
        <ele>8.6</ele>
        <time>2024-03-03T10:31:11Z</time>
      </trkpt>
      <trkpt lat="49.14772" lon="-0.06556">
        <ele>8.5</ele>
        <time>2024-03-03T10:31:12Z</time>
      </trkpt>
      <trkpt lat="49.1478" lon="-0.06555">
        <ele>8.3</ele>
        <time>2024-03-03T10:31:13Z</time>
      </trkpt>
      <trkpt lat="49.14789" lon="-0.06553">
        <ele>8.2</ele>
        <time>2024-03-03T10:31:14Z</time>
      </trkpt>
      <trkpt lat="49.14797" lon="-0.06552">
        <ele>8.1</ele>
        <time>2024-03-03T10:31:15Z</time>
      </trkpt>
      <trkpt lat="49.14806" lon="-0.0655">
        <ele>8.1</ele>
        <time>2024-03-03T10:31:16Z</time>
      </trkpt>
      <trkpt lat="49.14814" lon="-0.06548">
        <ele>8</ele>
        <time>2024-03-03T10:31:17Z</time>
      </trkpt>
      <trkpt lat="49.14823" lon="-0.06546">
        <ele>8</ele>
        <time>2024-03-03T10:31:18Z</time>
      </trkpt>
      <trkpt lat="49.14831" lon="-0.06544">
        <ele>8</ele>
        <time>2024-03-03T10:31:19Z</time>
      </trkpt>
      <trkpt lat="49.14839" lon="-0.06542">
        <ele>8</ele>
        <time>2024-03-03T10:31:20Z</time>
      </trkpt>
      <trkpt lat="49.14847" lon="-0.0654">
        <ele>8.1</ele>
        <time>2024-03-03T10:31:21Z</time>
      </trkpt>
      <trkpt lat="49.14855" lon="-0.06536">
        <ele>8.1</ele>
        <time>2024-03-03T10:31:22Z</time>
      </trkpt>
      <trkpt lat="49.14862" lon="-0.06531">
        <ele>8.2</ele>
        <time>2024-03-03T10:31:23Z</time>
      </trkpt>
      <trkpt lat="49.14868" lon="-0.06527">
        <ele>8.2</ele>
        <time>2024-03-03T10:31:24Z</time>
      </trkpt>
      <trkpt lat="49.14874" lon="-0.06522">
        <ele>8.3</ele>
        <time>2024-03-03T10:31:25Z</time>
      </trkpt>
      <trkpt lat="49.1488" lon="-0.06516">
        <ele>8.3</ele>
        <time>2024-03-03T10:31:26Z</time>
      </trkpt>
      <trkpt lat="49.14885" lon="-0.0651">
        <ele>8.3</ele>
        <time>2024-03-03T10:31:27Z</time>
      </trkpt>
      <trkpt lat="49.1489" lon="-0.06503">
        <ele>8.4</ele>
        <time>2024-03-03T10:31:28Z</time>
      </trkpt>
      <trkpt lat="49.14896" lon="-0.06494">
        <ele>8.4</ele>
        <time>2024-03-03T10:31:29Z</time>
      </trkpt>
      <trkpt lat="49.14901" lon="-0.06486">
        <ele>8.5</ele>
        <time>2024-03-03T10:31:30Z</time>
      </trkpt>
      <trkpt lat="49.14907" lon="-0.06478">
        <ele>8.5</ele>
        <time>2024-03-03T10:31:31Z</time>
      </trkpt>
      <trkpt lat="49.14912" lon="-0.06469">
        <ele>8.5</ele>
        <time>2024-03-03T10:31:32Z</time>
      </trkpt>
      <trkpt lat="49.14917" lon="-0.06461">
        <ele>8.6</ele>
        <time>2024-03-03T10:31:33Z</time>
      </trkpt>
      <trkpt lat="49.14922" lon="-0.06453">
        <ele>8.6</ele>
        <time>2024-03-03T10:31:34Z</time>
      </trkpt>
      <trkpt lat="49.14927" lon="-0.06445">
        <ele>8.6</ele>
        <time>2024-03-03T10:31:35Z</time>
      </trkpt>
      <trkpt lat="49.14933" lon="-0.06437">
        <ele>8.6</ele>
        <time>2024-03-03T10:31:36Z</time>
      </trkpt>
      <trkpt lat="49.14939" lon="-0.0643">
        <ele>8.5</ele>
        <time>2024-03-03T10:31:37Z</time>
      </trkpt>
      <trkpt lat="49.14946" lon="-0.06424">
        <ele>8.5</ele>
        <time>2024-03-03T10:31:38Z</time>
      </trkpt>
      <trkpt lat="49.14953" lon="-0.06417">
        <ele>8.4</ele>
        <time>2024-03-03T10:31:39Z</time>
      </trkpt>
      <trkpt lat="49.1496" lon="-0.06411">
        <ele>8.4</ele>
        <time>2024-03-03T10:31:40Z</time>
      </trkpt>
      <trkpt lat="49.14967" lon="-0.06405">
        <ele>8.3</ele>
        <time>2024-03-03T10:31:41Z</time>
      </trkpt>
      <trkpt lat="49.14974" lon="-0.06399">
        <ele>8.1</ele>
        <time>2024-03-03T10:31:42Z</time>
      </trkpt>
      <trkpt lat="49.14982" lon="-0.06393">
        <ele>7.9</ele>
        <time>2024-03-03T10:31:43Z</time>
      </trkpt>
      <trkpt lat="49.14989" lon="-0.06388">
        <ele>7.7</ele>
        <time>2024-03-03T10:31:44Z</time>
      </trkpt>
      <trkpt lat="49.14997" lon="-0.06383">
        <ele>7.5</ele>
        <time>2024-03-03T10:31:45Z</time>
      </trkpt>
      <trkpt lat="49.15005" lon="-0.06378">
        <ele>7.4</ele>
        <time>2024-03-03T10:31:46Z</time>
      </trkpt>
      <trkpt lat="49.15013" lon="-0.06374">
        <ele>7.2</ele>
        <time>2024-03-03T10:31:47Z</time>
      </trkpt>
      <trkpt lat="49.1502" lon="-0.0637">
        <ele>7.1</ele>
        <time>2024-03-03T10:31:48Z</time>
      </trkpt>
      <trkpt lat="49.15028" lon="-0.06368">
        <ele>7.1</ele>
        <time>2024-03-03T10:31:49Z</time>
      </trkpt>
      <trkpt lat="49.15036" lon="-0.06365">
        <ele>7</ele>
        <time>2024-03-03T10:31:50Z</time>
      </trkpt>
      <trkpt lat="49.15043" lon="-0.06362">
        <ele>6.9</ele>
        <time>2024-03-03T10:31:51Z</time>
      </trkpt>
      <trkpt lat="49.15051" lon="-0.06358">
        <ele>6.8</ele>
        <time>2024-03-03T10:31:52Z</time>
      </trkpt>
      <trkpt lat="49.15058" lon="-0.06355">
        <ele>6.7</ele>
        <time>2024-03-03T10:31:53Z</time>
      </trkpt>
      <trkpt lat="49.15065" lon="-0.06352">
        <ele>6.7</ele>
        <time>2024-03-03T10:31:54Z</time>
      </trkpt>
      <trkpt lat="49.15072" lon="-0.06349">
        <ele>6.6</ele>
        <time>2024-03-03T10:31:55Z</time>
      </trkpt>
      <trkpt lat="49.15079" lon="-0.06346">
        <ele>6.5</ele>
        <time>2024-03-03T10:31:56Z</time>
      </trkpt>
      <trkpt lat="49.15087" lon="-0.06343">
        <ele>6.5</ele>
        <time>2024-03-03T10:31:57Z</time>
      </trkpt>
      <trkpt lat="49.15094" lon="-0.0634">
        <ele>6.4</ele>
        <time>2024-03-03T10:31:58Z</time>
      </trkpt>
      <trkpt lat="49.15101" lon="-0.06337">
        <ele>6.4</ele>
        <time>2024-03-03T10:31:59Z</time>
      </trkpt>
      <trkpt lat="49.15109" lon="-0.06334">
        <ele>6.3</ele>
        <time>2024-03-03T10:32:00Z</time>
      </trkpt>
      <trkpt lat="49.15116" lon="-0.06331">
        <ele>6.3</ele>
        <time>2024-03-03T10:32:01Z</time>
      </trkpt>
      <trkpt lat="49.15123" lon="-0.06328">
        <ele>6.3</ele>
        <time>2024-03-03T10:32:02Z</time>
      </trkpt>
      <trkpt lat="49.1513" lon="-0.06325">
        <ele>6.2</ele>
        <time>2024-03-03T10:32:03Z</time>
      </trkpt>
      <trkpt lat="49.15137" lon="-0.06322">
        <ele>6.2</ele>
        <time>2024-03-03T10:32:04Z</time>
      </trkpt>
      <trkpt lat="49.15144" lon="-0.06319">
        <ele>6.1</ele>
        <time>2024-03-03T10:32:05Z</time>
      </trkpt>
      <trkpt lat="49.15152" lon="-0.06316">
        <ele>6.1</ele>
        <time>2024-03-03T10:32:06Z</time>
      </trkpt>
      <trkpt lat="49.15159" lon="-0.06312">
        <ele>6</ele>
        <time>2024-03-03T10:32:07Z</time>
      </trkpt>
      <trkpt lat="49.15166" lon="-0.06309">
        <ele>5.9</ele>
        <time>2024-03-03T10:32:08Z</time>
      </trkpt>
      <trkpt lat="49.15174" lon="-0.06306">
        <ele>5.9</ele>
        <time>2024-03-03T10:32:09Z</time>
      </trkpt>
      <trkpt lat="49.15181" lon="-0.06303">
        <ele>5.8</ele>
        <time>2024-03-03T10:32:10Z</time>
      </trkpt>
      <trkpt lat="49.15189" lon="-0.063">
        <ele>5.8</ele>
        <time>2024-03-03T10:32:11Z</time>
      </trkpt>
      <trkpt lat="49.15196" lon="-0.06297">
        <ele>5.8</ele>
        <time>2024-03-03T10:32:12Z</time>
      </trkpt>
      <trkpt lat="49.15204" lon="-0.06294">
        <ele>5.8</ele>
        <time>2024-03-03T10:32:13Z</time>
      </trkpt>
      <trkpt lat="49.15211" lon="-0.06292">
        <ele>5.7</ele>
        <time>2024-03-03T10:32:14Z</time>
      </trkpt>
      <trkpt lat="49.15218" lon="-0.06288">
        <ele>5.7</ele>
        <time>2024-03-03T10:32:15Z</time>
      </trkpt>
      <trkpt lat="49.15225" lon="-0.06285">
        <ele>5.7</ele>
        <time>2024-03-03T10:32:16Z</time>
      </trkpt>
      <trkpt lat="49.15233" lon="-0.06282">
        <ele>5.8</ele>
        <time>2024-03-03T10:32:17Z</time>
      </trkpt>
      <trkpt lat="49.1524" lon="-0.0628">
        <ele>5.8</ele>
        <time>2024-03-03T10:32:18Z</time>
      </trkpt>
      <trkpt lat="49.15247" lon="-0.06276">
        <ele>5.8</ele>
        <time>2024-03-03T10:32:19Z</time>
      </trkpt>
      <trkpt lat="49.15254" lon="-0.06273">
        <ele>5.7</ele>
        <time>2024-03-03T10:32:20Z</time>
      </trkpt>
      <trkpt lat="49.15261" lon="-0.0627">
        <ele>5.7</ele>
        <time>2024-03-03T10:32:21Z</time>
      </trkpt>
      <trkpt lat="49.15268" lon="-0.06267">
        <ele>5.7</ele>
        <time>2024-03-03T10:32:22Z</time>
      </trkpt>
      <trkpt lat="49.15275" lon="-0.06264">
        <ele>5.8</ele>
        <time>2024-03-03T10:32:23Z</time>
      </trkpt>
      <trkpt lat="49.15282" lon="-0.06261">
        <ele>5.8</ele>
        <time>2024-03-03T10:32:24Z</time>
      </trkpt>
      <trkpt lat="49.15289" lon="-0.06259">
        <ele>5.8</ele>
        <time>2024-03-03T10:32:25Z</time>
      </trkpt>
      <trkpt lat="49.15296" lon="-0.06256">
        <ele>5.8</ele>
        <time>2024-03-03T10:32:26Z</time>
      </trkpt>
      <trkpt lat="49.15303" lon="-0.06253">
        <ele>5.8</ele>
        <time>2024-03-03T10:32:27Z</time>
      </trkpt>
      <trkpt lat="49.1531" lon="-0.0625">
        <ele>5.8</ele>
        <time>2024-03-03T10:32:28Z</time>
      </trkpt>
      <trkpt lat="49.15317" lon="-0.06247">
        <ele>5.7</ele>
        <time>2024-03-03T10:32:29Z</time>
      </trkpt>
      <trkpt lat="49.15324" lon="-0.06244">
        <ele>5.7</ele>
        <time>2024-03-03T10:32:30Z</time>
      </trkpt>
      <trkpt lat="49.1533" lon="-0.06241">
        <ele>5.7</ele>
        <time>2024-03-03T10:32:31Z</time>
      </trkpt>
      <trkpt lat="49.15337" lon="-0.06238">
        <ele>5.7</ele>
        <time>2024-03-03T10:32:32Z</time>
      </trkpt>
      <trkpt lat="49.15344" lon="-0.06235">
        <ele>5.7</ele>
        <time>2024-03-03T10:32:33Z</time>
      </trkpt>
      <trkpt lat="49.15352" lon="-0.06233">
        <ele>5.7</ele>
        <time>2024-03-03T10:32:34Z</time>
      </trkpt>
      <trkpt lat="49.15359" lon="-0.0623">
        <ele>5.7</ele>
        <time>2024-03-03T10:32:35Z</time>
      </trkpt>
      <trkpt lat="49.15366" lon="-0.06226">
        <ele>5.7</ele>
        <time>2024-03-03T10:32:36Z</time>
      </trkpt>
      <trkpt lat="49.15373" lon="-0.06224">
        <ele>5.7</ele>
        <time>2024-03-03T10:32:37Z</time>
      </trkpt>
      <trkpt lat="49.1538" lon="-0.06221">
        <ele>5.6</ele>
        <time>2024-03-03T10:32:38Z</time>
      </trkpt>
      <trkpt lat="49.15387" lon="-0.06218">
        <ele>5.6</ele>
        <time>2024-03-03T10:32:39Z</time>
      </trkpt>
      <trkpt lat="49.15394" lon="-0.06215">
        <ele>5.6</ele>
        <time>2024-03-03T10:32:40Z</time>
      </trkpt>
      <trkpt lat="49.15401" lon="-0.06212">
        <ele>5.6</ele>
        <time>2024-03-03T10:32:41Z</time>
      </trkpt>
      <trkpt lat="49.15408" lon="-0.0621">
        <ele>5.6</ele>
        <time>2024-03-03T10:32:42Z</time>
      </trkpt>
      <trkpt lat="49.15415" lon="-0.06207">
        <ele>5.6</ele>
        <time>2024-03-03T10:32:43Z</time>
      </trkpt>
      <trkpt lat="49.15422" lon="-0.06204">
        <ele>5.6</ele>
        <time>2024-03-03T10:32:44Z</time>
      </trkpt>
      <trkpt lat="49.15429" lon="-0.06201">
        <ele>5.6</ele>
        <time>2024-03-03T10:32:45Z</time>
      </trkpt>
      <trkpt lat="49.15436" lon="-0.06198">
        <ele>5.6</ele>
        <time>2024-03-03T10:32:46Z</time>
      </trkpt>
      <trkpt lat="49.15443" lon="-0.06195">
        <ele>5.6</ele>
        <time>2024-03-03T10:32:47Z</time>
      </trkpt>
      <trkpt lat="49.1545" lon="-0.06192">
        <ele>5.6</ele>
        <time>2024-03-03T10:32:48Z</time>
      </trkpt>
      <trkpt lat="49.15457" lon="-0.06189">
        <ele>5.6</ele>
        <time>2024-03-03T10:32:49Z</time>
      </trkpt>
      <trkpt lat="49.15464" lon="-0.06186">
        <ele>5.6</ele>
        <time>2024-03-03T10:32:50Z</time>
      </trkpt>
      <trkpt lat="49.1547" lon="-0.06183">
        <ele>5.6</ele>
        <time>2024-03-03T10:32:51Z</time>
      </trkpt>
      <trkpt lat="49.15477" lon="-0.0618">
        <ele>5.6</ele>
        <time>2024-03-03T10:32:52Z</time>
      </trkpt>
      <trkpt lat="49.15484" lon="-0.06177">
        <ele>5.6</ele>
        <time>2024-03-03T10:32:53Z</time>
      </trkpt>
      <trkpt lat="49.15491" lon="-0.06174">
        <ele>5.6</ele>
        <time>2024-03-03T10:32:54Z</time>
      </trkpt>
      <trkpt lat="49.15498" lon="-0.06171">
        <ele>5.6</ele>
        <time>2024-03-03T10:32:55Z</time>
      </trkpt>
      <trkpt lat="49.15505" lon="-0.06168">
        <ele>5.5</ele>
        <time>2024-03-03T10:32:56Z</time>
      </trkpt>
      <trkpt lat="49.15513" lon="-0.06165">
        <ele>5.5</ele>
        <time>2024-03-03T10:32:57Z</time>
      </trkpt>
      <trkpt lat="49.1552" lon="-0.06162">
        <ele>5.5</ele>
        <time>2024-03-03T10:32:58Z</time>
      </trkpt>
      <trkpt lat="49.15527" lon="-0.0616">
        <ele>5.5</ele>
        <time>2024-03-03T10:32:59Z</time>
      </trkpt>
      <trkpt lat="49.15534" lon="-0.06157">
        <ele>5.5</ele>
        <time>2024-03-03T10:33:00Z</time>
      </trkpt>
      <trkpt lat="49.15542" lon="-0.06154">
        <ele>5.5</ele>
        <time>2024-03-03T10:33:01Z</time>
      </trkpt>
      <trkpt lat="49.15548" lon="-0.06151">
        <ele>5.5</ele>
        <time>2024-03-03T10:33:02Z</time>
      </trkpt>
      <trkpt lat="49.15556" lon="-0.06148">
        <ele>5.5</ele>
        <time>2024-03-03T10:33:03Z</time>
      </trkpt>
      <trkpt lat="49.15563" lon="-0.06145">
        <ele>5.5</ele>
        <time>2024-03-03T10:33:04Z</time>
      </trkpt>
      <trkpt lat="49.1557" lon="-0.06142">
        <ele>5.5</ele>
        <time>2024-03-03T10:33:05Z</time>
      </trkpt>
      <trkpt lat="49.15577" lon="-0.06139">
        <ele>5.5</ele>
        <time>2024-03-03T10:33:06Z</time>
      </trkpt>
      <trkpt lat="49.15584" lon="-0.06136">
        <ele>5.5</ele>
        <time>2024-03-03T10:33:07Z</time>
      </trkpt>
      <trkpt lat="49.15591" lon="-0.06134">
        <ele>5.5</ele>
        <time>2024-03-03T10:33:08Z</time>
      </trkpt>
      <trkpt lat="49.15598" lon="-0.06131">
        <ele>5.5</ele>
        <time>2024-03-03T10:33:09Z</time>
      </trkpt>
      <trkpt lat="49.15605" lon="-0.06128">
        <ele>5.5</ele>
        <time>2024-03-03T10:33:10Z</time>
      </trkpt>
      <trkpt lat="49.15612" lon="-0.06125">
        <ele>5.5</ele>
        <time>2024-03-03T10:33:11Z</time>
      </trkpt>
      <trkpt lat="49.15618" lon="-0.06122">
        <ele>5.5</ele>
        <time>2024-03-03T10:33:12Z</time>
      </trkpt>
      <trkpt lat="49.15625" lon="-0.06119">
        <ele>5.5</ele>
        <time>2024-03-03T10:33:13Z</time>
      </trkpt>
      <trkpt lat="49.15632" lon="-0.06116">
        <ele>5.5</ele>
        <time>2024-03-03T10:33:14Z</time>
      </trkpt>
      <trkpt lat="49.15639" lon="-0.06114">
        <ele>5.5</ele>
        <time>2024-03-03T10:33:15Z</time>
      </trkpt>
      <trkpt lat="49.15646" lon="-0.06111">
        <ele>5.5</ele>
        <time>2024-03-03T10:33:16Z</time>
      </trkpt>
      <trkpt lat="49.15652" lon="-0.06108">
        <ele>5.5</ele>
        <time>2024-03-03T10:33:17Z</time>
      </trkpt>
      <trkpt lat="49.15659" lon="-0.06105">
        <ele>5.5</ele>
        <time>2024-03-03T10:33:18Z</time>
      </trkpt>
      <trkpt lat="49.15665" lon="-0.06102">
        <ele>5.5</ele>
        <time>2024-03-03T10:33:19Z</time>
      </trkpt>
      <trkpt lat="49.15671" lon="-0.061">
        <ele>5.5</ele>
        <time>2024-03-03T10:33:20Z</time>
      </trkpt>
      <trkpt lat="49.15678" lon="-0.06097">
        <ele>5.5</ele>
        <time>2024-03-03T10:33:21Z</time>
      </trkpt>
      <trkpt lat="49.15685" lon="-0.06094">
        <ele>5.5</ele>
        <time>2024-03-03T10:33:22Z</time>
      </trkpt>
      <trkpt lat="49.15692" lon="-0.06091">
        <ele>5.5</ele>
        <time>2024-03-03T10:33:23Z</time>
      </trkpt>
      <trkpt lat="49.15699" lon="-0.06088">
        <ele>5.6</ele>
        <time>2024-03-03T10:33:24Z</time>
      </trkpt>
      <trkpt lat="49.15706" lon="-0.06086">
        <ele>5.6</ele>
        <time>2024-03-03T10:33:25Z</time>
      </trkpt>
      <trkpt lat="49.15713" lon="-0.06082">
        <ele>5.6</ele>
        <time>2024-03-03T10:33:26Z</time>
      </trkpt>
      <trkpt lat="49.1572" lon="-0.0608">
        <ele>5.7</ele>
        <time>2024-03-03T10:33:27Z</time>
      </trkpt>
      <trkpt lat="49.15726" lon="-0.06077">
        <ele>5.7</ele>
        <time>2024-03-03T10:33:28Z</time>
      </trkpt>
      <trkpt lat="49.15733" lon="-0.06074">
        <ele>5.8</ele>
        <time>2024-03-03T10:33:29Z</time>
      </trkpt>
      <trkpt lat="49.1574" lon="-0.06071">
        <ele>5.8</ele>
        <time>2024-03-03T10:33:30Z</time>
      </trkpt>
      <trkpt lat="49.15747" lon="-0.06068">
        <ele>5.9</ele>
        <time>2024-03-03T10:33:31Z</time>
      </trkpt>
      <trkpt lat="49.15754" lon="-0.06066">
        <ele>6</ele>
        <time>2024-03-03T10:33:32Z</time>
      </trkpt>
      <trkpt lat="49.1576" lon="-0.06063">
        <ele>6</ele>
        <time>2024-03-03T10:33:33Z</time>
      </trkpt>
      <trkpt lat="49.15766" lon="-0.06061">
        <ele>6.1</ele>
        <time>2024-03-03T10:33:34Z</time>
      </trkpt>
      <trkpt lat="49.15773" lon="-0.06058">
        <ele>6.2</ele>
        <time>2024-03-03T10:33:35Z</time>
      </trkpt>
      <trkpt lat="49.15779" lon="-0.06055">
        <ele>6.2</ele>
        <time>2024-03-03T10:33:36Z</time>
      </trkpt>
      <trkpt lat="49.15786" lon="-0.06052">
        <ele>6.3</ele>
        <time>2024-03-03T10:33:37Z</time>
      </trkpt>
      <trkpt lat="49.15793" lon="-0.06049">
        <ele>6.4</ele>
        <time>2024-03-03T10:33:38Z</time>
      </trkpt>
      <trkpt lat="49.15799" lon="-0.06046">
        <ele>6.5</ele>
        <time>2024-03-03T10:33:39Z</time>
      </trkpt>
      <trkpt lat="49.15805" lon="-0.06043">
        <ele>6.7</ele>
        <time>2024-03-03T10:33:40Z</time>
      </trkpt>
      <trkpt lat="49.15811" lon="-0.06041">
        <ele>6.8</ele>
        <time>2024-03-03T10:33:41Z</time>
      </trkpt>
      <trkpt lat="49.15817" lon="-0.06038">
        <ele>6.8</ele>
        <time>2024-03-03T10:33:42Z</time>
      </trkpt>
      <trkpt lat="49.15823" lon="-0.06036">
        <ele>6.9</ele>
        <time>2024-03-03T10:33:43Z</time>
      </trkpt>
      <trkpt lat="49.15829" lon="-0.06034">
        <ele>6.9</ele>
        <time>2024-03-03T10:33:44Z</time>
      </trkpt>
      <trkpt lat="49.15836" lon="-0.06031">
        <ele>6.9</ele>
        <time>2024-03-03T10:33:45Z</time>
      </trkpt>
      <trkpt lat="49.15842" lon="-0.06028">
        <ele>6.8</ele>
        <time>2024-03-03T10:33:46Z</time>
      </trkpt>
      <trkpt lat="49.15849" lon="-0.06025">
        <ele>6.8</ele>
        <time>2024-03-03T10:33:47Z</time>
      </trkpt>
      <trkpt lat="49.15856" lon="-0.06022">
        <ele>6.8</ele>
        <time>2024-03-03T10:33:48Z</time>
      </trkpt>
      <trkpt lat="49.15862" lon="-0.06019">
        <ele>6.7</ele>
        <time>2024-03-03T10:33:49Z</time>
      </trkpt>
      <trkpt lat="49.15869" lon="-0.06016">
        <ele>6.7</ele>
        <time>2024-03-03T10:33:50Z</time>
      </trkpt>
      <trkpt lat="49.15875" lon="-0.06014">
        <ele>6.7</ele>
        <time>2024-03-03T10:33:51Z</time>
      </trkpt>
      <trkpt lat="49.15881" lon="-0.06011">
        <ele>6.7</ele>
        <time>2024-03-03T10:33:52Z</time>
      </trkpt>
      <trkpt lat="49.15888" lon="-0.06008">
        <ele>6.7</ele>
        <time>2024-03-03T10:33:53Z</time>
      </trkpt>
      <trkpt lat="49.15894" lon="-0.06005">
        <ele>6.8</ele>
        <time>2024-03-03T10:33:54Z</time>
      </trkpt>
      <trkpt lat="49.15901" lon="-0.06003">
        <ele>6.8</ele>
        <time>2024-03-03T10:33:55Z</time>
      </trkpt>
      <trkpt lat="49.15907" lon="-0.06">
        <ele>6.9</ele>
        <time>2024-03-03T10:33:56Z</time>
      </trkpt>
      <trkpt lat="49.15914" lon="-0.05997">
        <ele>7</ele>
        <time>2024-03-03T10:33:57Z</time>
      </trkpt>
      <trkpt lat="49.15921" lon="-0.05994">
        <ele>7.1</ele>
        <time>2024-03-03T10:33:58Z</time>
      </trkpt>
      <trkpt lat="49.15927" lon="-0.05992">
        <ele>7.1</ele>
        <time>2024-03-03T10:33:59Z</time>
      </trkpt>
      <trkpt lat="49.15933" lon="-0.05989">
        <ele>7.2</ele>
        <time>2024-03-03T10:34:00Z</time>
      </trkpt>
      <trkpt lat="49.15939" lon="-0.05987">
        <ele>7.3</ele>
        <time>2024-03-03T10:34:01Z</time>
      </trkpt>
      <trkpt lat="49.15945" lon="-0.05984">
        <ele>7.4</ele>
        <time>2024-03-03T10:34:02Z</time>
      </trkpt>
      <trkpt lat="49.15952" lon="-0.05981">
        <ele>7.5</ele>
        <time>2024-03-03T10:34:03Z</time>
      </trkpt>
      <trkpt lat="49.15958" lon="-0.05979">
        <ele>7.6</ele>
        <time>2024-03-03T10:34:04Z</time>
      </trkpt>
      <trkpt lat="49.15964" lon="-0.05976">
        <ele>7.7</ele>
        <time>2024-03-03T10:34:05Z</time>
      </trkpt>
      <trkpt lat="49.15971" lon="-0.05973">
        <ele>7.9</ele>
        <time>2024-03-03T10:34:06Z</time>
      </trkpt>
      <trkpt lat="49.15977" lon="-0.05971">
        <ele>8</ele>
        <time>2024-03-03T10:34:07Z</time>
      </trkpt>
      <trkpt lat="49.15983" lon="-0.05969">
        <ele>8.2</ele>
        <time>2024-03-03T10:34:08Z</time>
      </trkpt>
      <trkpt lat="49.15988" lon="-0.05966">
        <ele>8.3</ele>
        <time>2024-03-03T10:34:09Z</time>
      </trkpt>
      <trkpt lat="49.15995" lon="-0.05964">
        <ele>8.5</ele>
        <time>2024-03-03T10:34:10Z</time>
      </trkpt>
      <trkpt lat="49.16001" lon="-0.05962">
        <ele>8.6</ele>
        <time>2024-03-03T10:34:11Z</time>
      </trkpt>
      <trkpt lat="49.16006" lon="-0.05959">
        <ele>8.8</ele>
        <time>2024-03-03T10:34:12Z</time>
      </trkpt>
      <trkpt lat="49.16012" lon="-0.05956">
        <ele>9</ele>
        <time>2024-03-03T10:34:13Z</time>
      </trkpt>
      <trkpt lat="49.16018" lon="-0.05953">
        <ele>9.2</ele>
        <time>2024-03-03T10:34:14Z</time>
      </trkpt>
      <trkpt lat="49.16024" lon="-0.05951">
        <ele>9.4</ele>
        <time>2024-03-03T10:34:15Z</time>
      </trkpt>
      <trkpt lat="49.16031" lon="-0.05949">
        <ele>9.6</ele>
        <time>2024-03-03T10:34:16Z</time>
      </trkpt>
      <trkpt lat="49.16037" lon="-0.05947">
        <ele>9.8</ele>
        <time>2024-03-03T10:34:17Z</time>
      </trkpt>
      <trkpt lat="49.16042" lon="-0.05944">
        <ele>10</ele>
        <time>2024-03-03T10:34:18Z</time>
      </trkpt>
      <trkpt lat="49.16048" lon="-0.05941">
        <ele>10.2</ele>
        <time>2024-03-03T10:34:19Z</time>
      </trkpt>
      <trkpt lat="49.16054" lon="-0.05939">
        <ele>10.4</ele>
        <time>2024-03-03T10:34:20Z</time>
      </trkpt>
      <trkpt lat="49.1606" lon="-0.05936">
        <ele>10.6</ele>
        <time>2024-03-03T10:34:21Z</time>
      </trkpt>
      <trkpt lat="49.16066" lon="-0.05934">
        <ele>10.8</ele>
        <time>2024-03-03T10:34:22Z</time>
      </trkpt>
      <trkpt lat="49.16072" lon="-0.05932">
        <ele>11.1</ele>
        <time>2024-03-03T10:34:23Z</time>
      </trkpt>
      <trkpt lat="49.16078" lon="-0.0593">
        <ele>11.3</ele>
        <time>2024-03-03T10:34:24Z</time>
      </trkpt>
      <trkpt lat="49.16083" lon="-0.05928">
        <ele>11.5</ele>
        <time>2024-03-03T10:34:25Z</time>
      </trkpt>
      <trkpt lat="49.16089" lon="-0.05925">
        <ele>11.8</ele>
        <time>2024-03-03T10:34:26Z</time>
      </trkpt>
      <trkpt lat="49.16095" lon="-0.05923">
        <ele>12</ele>
        <time>2024-03-03T10:34:27Z</time>
      </trkpt>
      <trkpt lat="49.16101" lon="-0.0592">
        <ele>12.2</ele>
        <time>2024-03-03T10:34:28Z</time>
      </trkpt>
      <trkpt lat="49.16106" lon="-0.05917">
        <ele>12.4</ele>
        <time>2024-03-03T10:34:29Z</time>
      </trkpt>
      <trkpt lat="49.16112" lon="-0.05915">
        <ele>12.7</ele>
        <time>2024-03-03T10:34:30Z</time>
      </trkpt>
      <trkpt lat="49.16118" lon="-0.05912">
        <ele>12.9</ele>
        <time>2024-03-03T10:34:31Z</time>
      </trkpt>
      <trkpt lat="49.16123" lon="-0.05909">
        <ele>13.1</ele>
        <time>2024-03-03T10:34:32Z</time>
      </trkpt>
      <trkpt lat="49.16129" lon="-0.05907">
        <ele>13.3</ele>
        <time>2024-03-03T10:34:33Z</time>
      </trkpt>
      <trkpt lat="49.16134" lon="-0.05904">
        <ele>13.6</ele>
        <time>2024-03-03T10:34:34Z</time>
      </trkpt>
      <trkpt lat="49.1614" lon="-0.05902">
        <ele>13.8</ele>
        <time>2024-03-03T10:34:35Z</time>
      </trkpt>
      <trkpt lat="49.16146" lon="-0.059">
        <ele>14</ele>
        <time>2024-03-03T10:34:36Z</time>
      </trkpt>
      <trkpt lat="49.16151" lon="-0.05897">
        <ele>14.2</ele>
        <time>2024-03-03T10:34:37Z</time>
      </trkpt>
      <trkpt lat="49.16157" lon="-0.05894">
        <ele>14.4</ele>
        <time>2024-03-03T10:34:38Z</time>
      </trkpt>
      <trkpt lat="49.16163" lon="-0.05891">
        <ele>14.6</ele>
        <time>2024-03-03T10:34:39Z</time>
      </trkpt>
      <trkpt lat="49.16169" lon="-0.05889">
        <ele>14.8</ele>
        <time>2024-03-03T10:34:40Z</time>
      </trkpt>
      <trkpt lat="49.16175" lon="-0.05887">
        <ele>15</ele>
        <time>2024-03-03T10:34:41Z</time>
      </trkpt>
      <trkpt lat="49.16181" lon="-0.05884">
        <ele>15.3</ele>
        <time>2024-03-03T10:34:42Z</time>
      </trkpt>
      <trkpt lat="49.16187" lon="-0.05882">
        <ele>15.5</ele>
        <time>2024-03-03T10:34:43Z</time>
      </trkpt>
      <trkpt lat="49.16193" lon="-0.0588">
        <ele>15.7</ele>
        <time>2024-03-03T10:34:44Z</time>
      </trkpt>
      <trkpt lat="49.16199" lon="-0.05878">
        <ele>15.9</ele>
        <time>2024-03-03T10:34:45Z</time>
      </trkpt>
      <trkpt lat="49.16205" lon="-0.05875">
        <ele>16.1</ele>
        <time>2024-03-03T10:34:46Z</time>
      </trkpt>
      <trkpt lat="49.1621" lon="-0.05873">
        <ele>16.3</ele>
        <time>2024-03-03T10:34:47Z</time>
      </trkpt>
      <trkpt lat="49.16216" lon="-0.0587">
        <ele>16.5</ele>
        <time>2024-03-03T10:34:48Z</time>
      </trkpt>
      <trkpt lat="49.16222" lon="-0.05867">
        <ele>16.7</ele>
        <time>2024-03-03T10:34:49Z</time>
      </trkpt>
      <trkpt lat="49.16228" lon="-0.05865">
        <ele>16.8</ele>
        <time>2024-03-03T10:34:50Z</time>
      </trkpt>
      <trkpt lat="49.16234" lon="-0.05863">
        <ele>17</ele>
        <time>2024-03-03T10:34:51Z</time>
      </trkpt>
      <trkpt lat="49.1624" lon="-0.05861">
        <ele>17.2</ele>
        <time>2024-03-03T10:34:52Z</time>
      </trkpt>
      <trkpt lat="49.16245" lon="-0.05859">
        <ele>17.3</ele>
        <time>2024-03-03T10:34:53Z</time>
      </trkpt>
      <trkpt lat="49.16251" lon="-0.05856">
        <ele>17.5</ele>
        <time>2024-03-03T10:34:54Z</time>
      </trkpt>
      <trkpt lat="49.16257" lon="-0.05853">
        <ele>17.7</ele>
        <time>2024-03-03T10:34:55Z</time>
      </trkpt>
      <trkpt lat="49.16263" lon="-0.05851">
        <ele>17.8</ele>
        <time>2024-03-03T10:34:56Z</time>
      </trkpt>
      <trkpt lat="49.16268" lon="-0.05849">
        <ele>17.9</ele>
        <time>2024-03-03T10:34:57Z</time>
      </trkpt>
      <trkpt lat="49.16274" lon="-0.05846">
        <ele>18.1</ele>
        <time>2024-03-03T10:34:58Z</time>
      </trkpt>
      <trkpt lat="49.1628" lon="-0.05844">
        <ele>18.2</ele>
        <time>2024-03-03T10:34:59Z</time>
      </trkpt>
      <trkpt lat="49.16286" lon="-0.05841">
        <ele>18.4</ele>
        <time>2024-03-03T10:35:00Z</time>
      </trkpt>
      <trkpt lat="49.16292" lon="-0.05839">
        <ele>18.5</ele>
        <time>2024-03-03T10:35:01Z</time>
      </trkpt>
      <trkpt lat="49.16298" lon="-0.05836">
        <ele>18.7</ele>
        <time>2024-03-03T10:35:02Z</time>
      </trkpt>
      <trkpt lat="49.16304" lon="-0.05834">
        <ele>18.8</ele>
        <time>2024-03-03T10:35:03Z</time>
      </trkpt>
      <trkpt lat="49.1631" lon="-0.05831">
        <ele>19</ele>
        <time>2024-03-03T10:35:04Z</time>
      </trkpt>
      <trkpt lat="49.16316" lon="-0.05829">
        <ele>19.1</ele>
        <time>2024-03-03T10:35:05Z</time>
      </trkpt>
      <trkpt lat="49.16322" lon="-0.05827">
        <ele>19.3</ele>
        <time>2024-03-03T10:35:06Z</time>
      </trkpt>
      <trkpt lat="49.16328" lon="-0.05825">
        <ele>19.4</ele>
        <time>2024-03-03T10:35:07Z</time>
      </trkpt>
      <trkpt lat="49.16334" lon="-0.05822">
        <ele>19.6</ele>
        <time>2024-03-03T10:35:08Z</time>
      </trkpt>
      <trkpt lat="49.1634" lon="-0.0582">
        <ele>19.7</ele>
        <time>2024-03-03T10:35:09Z</time>
      </trkpt>
      <trkpt lat="49.16346" lon="-0.05817">
        <ele>19.9</ele>
        <time>2024-03-03T10:35:10Z</time>
      </trkpt>
      <trkpt lat="49.16352" lon="-0.05814">
        <ele>20</ele>
        <time>2024-03-03T10:35:11Z</time>
      </trkpt>
      <trkpt lat="49.16357" lon="-0.05811">
        <ele>20.1</ele>
        <time>2024-03-03T10:35:12Z</time>
      </trkpt>
      <trkpt lat="49.16363" lon="-0.05808">
        <ele>20.2</ele>
        <time>2024-03-03T10:35:13Z</time>
      </trkpt>
      <trkpt lat="49.16369" lon="-0.05806">
        <ele>20.3</ele>
        <time>2024-03-03T10:35:14Z</time>
      </trkpt>
      <trkpt lat="49.16375" lon="-0.05803">
        <ele>20.5</ele>
        <time>2024-03-03T10:35:15Z</time>
      </trkpt>
      <trkpt lat="49.16382" lon="-0.05801">
        <ele>20.5</ele>
        <time>2024-03-03T10:35:16Z</time>
      </trkpt>
      <trkpt lat="49.16388" lon="-0.05799">
        <ele>20.6</ele>
        <time>2024-03-03T10:35:17Z</time>
      </trkpt>
      <trkpt lat="49.16394" lon="-0.05797">
        <ele>20.7</ele>
        <time>2024-03-03T10:35:18Z</time>
      </trkpt>
      <trkpt lat="49.16401" lon="-0.05795">
        <ele>20.7</ele>
        <time>2024-03-03T10:35:19Z</time>
      </trkpt>
      <trkpt lat="49.16407" lon="-0.05792">
        <ele>20.8</ele>
        <time>2024-03-03T10:35:20Z</time>
      </trkpt>
      <trkpt lat="49.16413" lon="-0.05789">
        <ele>20.8</ele>
        <time>2024-03-03T10:35:21Z</time>
      </trkpt>
      <trkpt lat="49.16418" lon="-0.05787">
        <ele>20.9</ele>
        <time>2024-03-03T10:35:22Z</time>
      </trkpt>
      <trkpt lat="49.16425" lon="-0.05783">
        <ele>20.9</ele>
        <time>2024-03-03T10:35:23Z</time>
      </trkpt>
      <trkpt lat="49.16431" lon="-0.05781">
        <ele>21</ele>
        <time>2024-03-03T10:35:24Z</time>
      </trkpt>
      <trkpt lat="49.16437" lon="-0.05778">
        <ele>21</ele>
        <time>2024-03-03T10:35:25Z</time>
      </trkpt>
      <trkpt lat="49.16443" lon="-0.05775">
        <ele>21</ele>
        <time>2024-03-03T10:35:26Z</time>
      </trkpt>
      <trkpt lat="49.1645" lon="-0.05772">
        <ele>21.1</ele>
        <time>2024-03-03T10:35:27Z</time>
      </trkpt>
      <trkpt lat="49.16456" lon="-0.0577">
        <ele>21.1</ele>
        <time>2024-03-03T10:35:28Z</time>
      </trkpt>
      <trkpt lat="49.16463" lon="-0.05767">
        <ele>21.2</ele>
        <time>2024-03-03T10:35:29Z</time>
      </trkpt>
      <trkpt lat="49.16469" lon="-0.05765">
        <ele>21.2</ele>
        <time>2024-03-03T10:35:30Z</time>
      </trkpt>
      <trkpt lat="49.16476" lon="-0.05761">
        <ele>21.3</ele>
        <time>2024-03-03T10:35:31Z</time>
      </trkpt>
      <trkpt lat="49.16483" lon="-0.05758">
        <ele>21.4</ele>
        <time>2024-03-03T10:35:32Z</time>
      </trkpt>
      <trkpt lat="49.16489" lon="-0.05755">
        <ele>21.5</ele>
        <time>2024-03-03T10:35:33Z</time>
      </trkpt>
      <trkpt lat="49.16496" lon="-0.05752">
        <ele>21.6</ele>
        <time>2024-03-03T10:35:34Z</time>
      </trkpt>
      <trkpt lat="49.16502" lon="-0.0575">
        <ele>21.7</ele>
        <time>2024-03-03T10:35:35Z</time>
      </trkpt>
      <trkpt lat="49.16508" lon="-0.05747">
        <ele>21.8</ele>
        <time>2024-03-03T10:35:36Z</time>
      </trkpt>
      <trkpt lat="49.16514" lon="-0.05745">
        <ele>21.9</ele>
        <time>2024-03-03T10:35:37Z</time>
      </trkpt>
      <trkpt lat="49.1652" lon="-0.05743">
        <ele>22</ele>
        <time>2024-03-03T10:35:38Z</time>
      </trkpt>
      <trkpt lat="49.16526" lon="-0.05741">
        <ele>22.2</ele>
        <time>2024-03-03T10:35:39Z</time>
      </trkpt>
      <trkpt lat="49.16532" lon="-0.05739">
        <ele>22.3</ele>
        <time>2024-03-03T10:35:40Z</time>
      </trkpt>
      <trkpt lat="49.16537" lon="-0.05737">
        <ele>22.5</ele>
        <time>2024-03-03T10:35:41Z</time>
      </trkpt>
      <trkpt lat="49.16543" lon="-0.05735">
        <ele>22.6</ele>
        <time>2024-03-03T10:35:42Z</time>
      </trkpt>
      <trkpt lat="49.16548" lon="-0.05733">
        <ele>22.8</ele>
        <time>2024-03-03T10:35:43Z</time>
      </trkpt>
      <trkpt lat="49.16553" lon="-0.05731">
        <ele>22.9</ele>
        <time>2024-03-03T10:35:44Z</time>
      </trkpt>
      <trkpt lat="49.16558" lon="-0.05728">
        <ele>23</ele>
        <time>2024-03-03T10:35:45Z</time>
      </trkpt>
      <trkpt lat="49.16562" lon="-0.05726">
        <ele>23.1</ele>
        <time>2024-03-03T10:35:46Z</time>
      </trkpt>
      <trkpt lat="49.16566" lon="-0.05724">
        <ele>23.2</ele>
        <time>2024-03-03T10:35:47Z</time>
      </trkpt>
      <trkpt lat="49.1657" lon="-0.05721">
        <ele>23.2</ele>
        <time>2024-03-03T10:35:48Z</time>
      </trkpt>
      <trkpt lat="49.16573" lon="-0.05719">
        <ele>23.2</ele>
        <time>2024-03-03T10:35:49Z</time>
      </trkpt>
      <trkpt lat="49.16577" lon="-0.05717">
        <ele>23.3</ele>
        <time>2024-03-03T10:35:50Z</time>
      </trkpt>
      <trkpt lat="49.16581" lon="-0.05715">
        <ele>23.4</ele>
        <time>2024-03-03T10:35:51Z</time>
      </trkpt>
      <trkpt lat="49.16585" lon="-0.05713">
        <ele>23.5</ele>
        <time>2024-03-03T10:35:52Z</time>
      </trkpt>
      <trkpt lat="49.16588" lon="-0.05711">
        <ele>23.6</ele>
        <time>2024-03-03T10:35:53Z</time>
      </trkpt>
      <trkpt lat="49.16592" lon="-0.05709">
        <ele>23.7</ele>
        <time>2024-03-03T10:35:54Z</time>
      </trkpt>
      <trkpt lat="49.16596" lon="-0.05707">
        <ele>23.8</ele>
        <time>2024-03-03T10:35:55Z</time>
      </trkpt>
      <trkpt lat="49.166" lon="-0.05705">
        <ele>24</ele>
        <time>2024-03-03T10:35:56Z</time>
      </trkpt>
      <trkpt lat="49.16604" lon="-0.05704">
        <ele>24.1</ele>
        <time>2024-03-03T10:35:57Z</time>
      </trkpt>
      <trkpt lat="49.16608" lon="-0.05702">
        <ele>24.2</ele>
        <time>2024-03-03T10:35:58Z</time>
      </trkpt>
      <trkpt lat="49.16613" lon="-0.05701">
        <ele>24.4</ele>
        <time>2024-03-03T10:35:59Z</time>
      </trkpt>
      <trkpt lat="49.16617" lon="-0.057">
        <ele>24.5</ele>
        <time>2024-03-03T10:36:00Z</time>
      </trkpt>
      <trkpt lat="49.16621" lon="-0.05698">
        <ele>24.7</ele>
        <time>2024-03-03T10:36:01Z</time>
      </trkpt>
      <trkpt lat="49.16625" lon="-0.05696">
        <ele>24.9</ele>
        <time>2024-03-03T10:36:02Z</time>
      </trkpt>
      <trkpt lat="49.1663" lon="-0.05694">
        <ele>25</ele>
        <time>2024-03-03T10:36:03Z</time>
      </trkpt>
      <trkpt lat="49.16634" lon="-0.05693">
        <ele>25.2</ele>
        <time>2024-03-03T10:36:04Z</time>
      </trkpt>
      <trkpt lat="49.16639" lon="-0.05691">
        <ele>25.4</ele>
        <time>2024-03-03T10:36:05Z</time>
      </trkpt>
      <trkpt lat="49.16643" lon="-0.05689">
        <ele>25.5</ele>
        <time>2024-03-03T10:36:06Z</time>
      </trkpt>
      <trkpt lat="49.16648" lon="-0.05687">
        <ele>25.7</ele>
        <time>2024-03-03T10:36:07Z</time>
      </trkpt>
      <trkpt lat="49.16652" lon="-0.05684">
        <ele>25.9</ele>
        <time>2024-03-03T10:36:08Z</time>
      </trkpt>
      <trkpt lat="49.16657" lon="-0.05682">
        <ele>26</ele>
        <time>2024-03-03T10:36:09Z</time>
      </trkpt>
      <trkpt lat="49.16662" lon="-0.0568">
        <ele>26.2</ele>
        <time>2024-03-03T10:36:10Z</time>
      </trkpt>
      <trkpt lat="49.16666" lon="-0.05678">
        <ele>26.3</ele>
        <time>2024-03-03T10:36:11Z</time>
      </trkpt>
      <trkpt lat="49.16671" lon="-0.05676">
        <ele>26.5</ele>
        <time>2024-03-03T10:36:12Z</time>
      </trkpt>
      <trkpt lat="49.16676" lon="-0.05674">
        <ele>26.6</ele>
        <time>2024-03-03T10:36:13Z</time>
      </trkpt>
      <trkpt lat="49.16681" lon="-0.05672">
        <ele>26.7</ele>
        <time>2024-03-03T10:36:14Z</time>
      </trkpt>
      <trkpt lat="49.16685" lon="-0.05671">
        <ele>26.9</ele>
        <time>2024-03-03T10:36:15Z</time>
      </trkpt>
      <trkpt lat="49.1669" lon="-0.05669">
        <ele>27</ele>
        <time>2024-03-03T10:36:16Z</time>
      </trkpt>
      <trkpt lat="49.16695" lon="-0.05667">
        <ele>27.1</ele>
        <time>2024-03-03T10:36:17Z</time>
      </trkpt>
      <trkpt lat="49.16699" lon="-0.05665">
        <ele>27.2</ele>
        <time>2024-03-03T10:36:18Z</time>
      </trkpt>
      <trkpt lat="49.16704" lon="-0.05663">
        <ele>27.4</ele>
        <time>2024-03-03T10:36:19Z</time>
      </trkpt>
      <trkpt lat="49.16709" lon="-0.05661">
        <ele>27.5</ele>
        <time>2024-03-03T10:36:20Z</time>
      </trkpt>
      <trkpt lat="49.16714" lon="-0.05659">
        <ele>27.6</ele>
        <time>2024-03-03T10:36:21Z</time>
      </trkpt>
      <trkpt lat="49.16719" lon="-0.05657">
        <ele>27.8</ele>
        <time>2024-03-03T10:36:22Z</time>
      </trkpt>
      <trkpt lat="49.16725" lon="-0.05655">
        <ele>28</ele>
        <time>2024-03-03T10:36:23Z</time>
      </trkpt>
      <trkpt lat="49.1673" lon="-0.05653">
        <ele>28.2</ele>
        <time>2024-03-03T10:36:24Z</time>
      </trkpt>
      <trkpt lat="49.16736" lon="-0.0565">
        <ele>28.3</ele>
        <time>2024-03-03T10:36:25Z</time>
      </trkpt>
      <trkpt lat="49.16741" lon="-0.05648">
        <ele>28.5</ele>
        <time>2024-03-03T10:36:26Z</time>
      </trkpt>
      <trkpt lat="49.16746" lon="-0.05645">
        <ele>28.6</ele>
        <time>2024-03-03T10:36:27Z</time>
      </trkpt>
      <trkpt lat="49.16752" lon="-0.05643">
        <ele>28.7</ele>
        <time>2024-03-03T10:36:28Z</time>
      </trkpt>
      <trkpt lat="49.16757" lon="-0.0564">
        <ele>28.8</ele>
        <time>2024-03-03T10:36:29Z</time>
      </trkpt>
      <trkpt lat="49.16762" lon="-0.05638">
        <ele>28.9</ele>
        <time>2024-03-03T10:36:30Z</time>
      </trkpt>
      <trkpt lat="49.16767" lon="-0.05636">
        <ele>29</ele>
        <time>2024-03-03T10:36:31Z</time>
      </trkpt>
      <trkpt lat="49.16773" lon="-0.05634">
        <ele>29.1</ele>
        <time>2024-03-03T10:36:32Z</time>
      </trkpt>
      <trkpt lat="49.16778" lon="-0.05631">
        <ele>29.2</ele>
        <time>2024-03-03T10:36:33Z</time>
      </trkpt>
      <trkpt lat="49.16784" lon="-0.05629">
        <ele>29.4</ele>
        <time>2024-03-03T10:36:34Z</time>
      </trkpt>
      <trkpt lat="49.16789" lon="-0.05627">
        <ele>29.5</ele>
        <time>2024-03-03T10:36:35Z</time>
      </trkpt>
      <trkpt lat="49.16795" lon="-0.05626">
        <ele>29.6</ele>
        <time>2024-03-03T10:36:36Z</time>
      </trkpt>
      <trkpt lat="49.168" lon="-0.05624">
        <ele>29.6</ele>
        <time>2024-03-03T10:36:37Z</time>
      </trkpt>
      <trkpt lat="49.16806" lon="-0.05622">
        <ele>29.7</ele>
        <time>2024-03-03T10:36:38Z</time>
      </trkpt>
      <trkpt lat="49.16811" lon="-0.0562">
        <ele>29.8</ele>
        <time>2024-03-03T10:36:39Z</time>
      </trkpt>
      <trkpt lat="49.16817" lon="-0.05617">
        <ele>29.9</ele>
        <time>2024-03-03T10:36:40Z</time>
      </trkpt>
      <trkpt lat="49.16823" lon="-0.05615">
        <ele>29.9</ele>
        <time>2024-03-03T10:36:41Z</time>
      </trkpt>
      <trkpt lat="49.16828" lon="-0.05613">
        <ele>29.9</ele>
        <time>2024-03-03T10:36:42Z</time>
      </trkpt>
      <trkpt lat="49.16834" lon="-0.05611">
        <ele>29.9</ele>
        <time>2024-03-03T10:36:43Z</time>
      </trkpt>
      <trkpt lat="49.16839" lon="-0.05609">
        <ele>29.9</ele>
        <time>2024-03-03T10:36:44Z</time>
      </trkpt>
      <trkpt lat="49.16845" lon="-0.05607">
        <ele>29.9</ele>
        <time>2024-03-03T10:36:45Z</time>
      </trkpt>
      <trkpt lat="49.1685" lon="-0.05605">
        <ele>29.9</ele>
        <time>2024-03-03T10:36:46Z</time>
      </trkpt>
      <trkpt lat="49.16855" lon="-0.05602">
        <ele>29.9</ele>
        <time>2024-03-03T10:36:47Z</time>
      </trkpt>
      <trkpt lat="49.1686" lon="-0.056">
        <ele>29.9</ele>
        <time>2024-03-03T10:36:48Z</time>
      </trkpt>
      <trkpt lat="49.16865" lon="-0.05598">
        <ele>29.9</ele>
        <time>2024-03-03T10:36:49Z</time>
      </trkpt>
      <trkpt lat="49.16871" lon="-0.05595">
        <ele>29.9</ele>
        <time>2024-03-03T10:36:50Z</time>
      </trkpt>
      <trkpt lat="49.16875" lon="-0.05594">
        <ele>29.9</ele>
        <time>2024-03-03T10:36:51Z</time>
      </trkpt>
      <trkpt lat="49.1688" lon="-0.05592">
        <ele>29.9</ele>
        <time>2024-03-03T10:36:52Z</time>
      </trkpt>
      <trkpt lat="49.16884" lon="-0.05591">
        <ele>29.9</ele>
        <time>2024-03-03T10:36:53Z</time>
      </trkpt>
      <trkpt lat="49.16889" lon="-0.05589">
        <ele>29.8</ele>
        <time>2024-03-03T10:36:54Z</time>
      </trkpt>
      <trkpt lat="49.16894" lon="-0.05586">
        <ele>29.8</ele>
        <time>2024-03-03T10:36:55Z</time>
      </trkpt>
      <trkpt lat="49.16899" lon="-0.05583">
        <ele>29.7</ele>
        <time>2024-03-03T10:36:56Z</time>
      </trkpt>
      <trkpt lat="49.16904" lon="-0.0558">
        <ele>29.6</ele>
        <time>2024-03-03T10:36:57Z</time>
      </trkpt>
      <trkpt lat="49.16908" lon="-0.05577">
        <ele>29.6</ele>
        <time>2024-03-03T10:36:58Z</time>
      </trkpt>
      <trkpt lat="49.16912" lon="-0.05577">
        <ele>29.5</ele>
        <time>2024-03-03T10:36:59Z</time>
      </trkpt>
      <trkpt lat="49.16916" lon="-0.05581">
        <ele>29.5</ele>
        <time>2024-03-03T10:37:00Z</time>
      </trkpt>
      <trkpt lat="49.16918" lon="-0.05588">
        <ele>29.4</ele>
        <time>2024-03-03T10:37:01Z</time>
      </trkpt>
      <trkpt lat="49.16919" lon="-0.05596">
        <ele>29.3</ele>
        <time>2024-03-03T10:37:02Z</time>
      </trkpt>
      <trkpt lat="49.1692" lon="-0.05603">
        <ele>29.2</ele>
        <time>2024-03-03T10:37:03Z</time>
      </trkpt>
      <trkpt lat="49.16922" lon="-0.05611">
        <ele>29.1</ele>
        <time>2024-03-03T10:37:04Z</time>
      </trkpt>
      <trkpt lat="49.16923" lon="-0.05618">
        <ele>29</ele>
        <time>2024-03-03T10:37:05Z</time>
      </trkpt>
      <trkpt lat="49.16925" lon="-0.05626">
        <ele>28.8</ele>
        <time>2024-03-03T10:37:06Z</time>
      </trkpt>
      <trkpt lat="49.16928" lon="-0.05633">
        <ele>28.7</ele>
        <time>2024-03-03T10:37:07Z</time>
      </trkpt>
      <trkpt lat="49.16932" lon="-0.0564">
        <ele>28.5</ele>
        <time>2024-03-03T10:37:08Z</time>
      </trkpt>
      <trkpt lat="49.16936" lon="-0.05648">
        <ele>28.3</ele>
        <time>2024-03-03T10:37:09Z</time>
      </trkpt>
      <trkpt lat="49.1694" lon="-0.05655">
        <ele>28.1</ele>
        <time>2024-03-03T10:37:10Z</time>
      </trkpt>
      <trkpt lat="49.16944" lon="-0.05662">
        <ele>27.8</ele>
        <time>2024-03-03T10:37:11Z</time>
      </trkpt>
      <trkpt lat="49.16949" lon="-0.05668">
        <ele>27.6</ele>
        <time>2024-03-03T10:37:12Z</time>
      </trkpt>
      <trkpt lat="49.16954" lon="-0.05674">
        <ele>27.3</ele>
        <time>2024-03-03T10:37:13Z</time>
      </trkpt>
      <trkpt lat="49.16959" lon="-0.0568">
        <ele>27.1</ele>
        <time>2024-03-03T10:37:14Z</time>
      </trkpt>
      <trkpt lat="49.16965" lon="-0.05685">
        <ele>26.8</ele>
        <time>2024-03-03T10:37:15Z</time>
      </trkpt>
      <trkpt lat="49.16972" lon="-0.05691">
        <ele>26.6</ele>
        <time>2024-03-03T10:37:16Z</time>
      </trkpt>
      <trkpt lat="49.1698" lon="-0.05697">
        <ele>26.3</ele>
        <time>2024-03-03T10:37:17Z</time>
      </trkpt>
      <trkpt lat="49.16987" lon="-0.05703">
        <ele>26.1</ele>
        <time>2024-03-03T10:37:18Z</time>
      </trkpt>
      <trkpt lat="49.16994" lon="-0.05709">
        <ele>26</ele>
        <time>2024-03-03T10:37:19Z</time>
      </trkpt>
      <trkpt lat="49.17001" lon="-0.05715">
        <ele>25.7</ele>
        <time>2024-03-03T10:37:20Z</time>
      </trkpt>
      <trkpt lat="49.17007" lon="-0.05721">
        <ele>25.5</ele>
        <time>2024-03-03T10:37:21Z</time>
      </trkpt>
      <trkpt lat="49.17014" lon="-0.05728">
        <ele>25.3</ele>
        <time>2024-03-03T10:37:22Z</time>
      </trkpt>
      <trkpt lat="49.17021" lon="-0.05735">
        <ele>25.1</ele>
        <time>2024-03-03T10:37:23Z</time>
      </trkpt>
      <trkpt lat="49.17028" lon="-0.05742">
        <ele>25</ele>
        <time>2024-03-03T10:37:24Z</time>
      </trkpt>
      <trkpt lat="49.17036" lon="-0.05749">
        <ele>24.7</ele>
        <time>2024-03-03T10:37:25Z</time>
      </trkpt>
      <trkpt lat="49.17044" lon="-0.05756">
        <ele>24.5</ele>
        <time>2024-03-03T10:37:26Z</time>
      </trkpt>
      <trkpt lat="49.17052" lon="-0.05763">
        <ele>24.3</ele>
        <time>2024-03-03T10:37:27Z</time>
      </trkpt>
      <trkpt lat="49.17058" lon="-0.05769">
        <ele>24.1</ele>
        <time>2024-03-03T10:37:28Z</time>
      </trkpt>
      <trkpt lat="49.17066" lon="-0.05777">
        <ele>23.9</ele>
        <time>2024-03-03T10:37:29Z</time>
      </trkpt>
      <trkpt lat="49.17073" lon="-0.05785">
        <ele>23.7</ele>
        <time>2024-03-03T10:37:30Z</time>
      </trkpt>
      <trkpt lat="49.1708" lon="-0.05792">
        <ele>23.6</ele>
        <time>2024-03-03T10:37:31Z</time>
      </trkpt>
      <trkpt lat="49.17088" lon="-0.05798">
        <ele>23.4</ele>
        <time>2024-03-03T10:37:32Z</time>
      </trkpt>
      <trkpt lat="49.17094" lon="-0.05804">
        <ele>23.4</ele>
        <time>2024-03-03T10:37:33Z</time>
      </trkpt>
      <trkpt lat="49.17101" lon="-0.0581">
        <ele>23.3</ele>
        <time>2024-03-03T10:37:34Z</time>
      </trkpt>
      <trkpt lat="49.17107" lon="-0.05816">
        <ele>23.2</ele>
        <time>2024-03-03T10:37:35Z</time>
      </trkpt>
      <trkpt lat="49.17113" lon="-0.05822">
        <ele>23.2</ele>
        <time>2024-03-03T10:37:36Z</time>
      </trkpt>
      <trkpt lat="49.17119" lon="-0.05828">
        <ele>23.1</ele>
        <time>2024-03-03T10:37:37Z</time>
      </trkpt>
      <trkpt lat="49.17125" lon="-0.05834">
        <ele>23.1</ele>
        <time>2024-03-03T10:37:38Z</time>
      </trkpt>
      <trkpt lat="49.17131" lon="-0.0584">
        <ele>23.1</ele>
        <time>2024-03-03T10:37:39Z</time>
      </trkpt>
      <trkpt lat="49.17137" lon="-0.05847">
        <ele>23.1</ele>
        <time>2024-03-03T10:37:40Z</time>
      </trkpt>
      <trkpt lat="49.17143" lon="-0.05854">
        <ele>23.1</ele>
        <time>2024-03-03T10:37:41Z</time>
      </trkpt>
      <trkpt lat="49.17149" lon="-0.05861">
        <ele>23.1</ele>
        <time>2024-03-03T10:37:42Z</time>
      </trkpt>
      <trkpt lat="49.17156" lon="-0.05869">
        <ele>23.2</ele>
        <time>2024-03-03T10:37:43Z</time>
      </trkpt>
      <trkpt lat="49.17161" lon="-0.05877">
        <ele>23.2</ele>
        <time>2024-03-03T10:37:44Z</time>
      </trkpt>
      <trkpt lat="49.17166" lon="-0.05885">
        <ele>23.3</ele>
        <time>2024-03-03T10:37:45Z</time>
      </trkpt>
      <trkpt lat="49.17171" lon="-0.05894">
        <ele>23.4</ele>
        <time>2024-03-03T10:37:46Z</time>
      </trkpt>
      <trkpt lat="49.17176" lon="-0.05902">
        <ele>23.4</ele>
        <time>2024-03-03T10:37:47Z</time>
      </trkpt>
      <trkpt lat="49.1718" lon="-0.0591">
        <ele>23.5</ele>
        <time>2024-03-03T10:37:48Z</time>
      </trkpt>
      <trkpt lat="49.17184" lon="-0.05918">
        <ele>23.7</ele>
        <time>2024-03-03T10:37:49Z</time>
      </trkpt>
      <trkpt lat="49.17188" lon="-0.05926">
        <ele>23.8</ele>
        <time>2024-03-03T10:37:50Z</time>
      </trkpt>
      <trkpt lat="49.17191" lon="-0.05934">
        <ele>23.9</ele>
        <time>2024-03-03T10:37:51Z</time>
      </trkpt>
      <trkpt lat="49.17195" lon="-0.05942">
        <ele>24</ele>
        <time>2024-03-03T10:37:52Z</time>
      </trkpt>
      <trkpt lat="49.17198" lon="-0.0595">
        <ele>24.1</ele>
        <time>2024-03-03T10:37:53Z</time>
      </trkpt>
      <trkpt lat="49.17202" lon="-0.05958">
        <ele>24.2</ele>
        <time>2024-03-03T10:37:54Z</time>
      </trkpt>
      <trkpt lat="49.17206" lon="-0.05966">
        <ele>24.3</ele>
        <time>2024-03-03T10:37:55Z</time>
      </trkpt>
      <trkpt lat="49.17209" lon="-0.05974">
        <ele>24.4</ele>
        <time>2024-03-03T10:37:56Z</time>
      </trkpt>
      <trkpt lat="49.17213" lon="-0.05982">
        <ele>24.5</ele>
        <time>2024-03-03T10:37:57Z</time>
      </trkpt>
      <trkpt lat="49.17217" lon="-0.05991">
        <ele>24.5</ele>
        <time>2024-03-03T10:37:58Z</time>
      </trkpt>
      <trkpt lat="49.1722" lon="-0.05999">
        <ele>24.6</ele>
        <time>2024-03-03T10:37:59Z</time>
      </trkpt>
      <trkpt lat="49.17224" lon="-0.06007">
        <ele>24.7</ele>
        <time>2024-03-03T10:38:00Z</time>
      </trkpt>
      <trkpt lat="49.17228" lon="-0.06015">
        <ele>24.8</ele>
        <time>2024-03-03T10:38:01Z</time>
      </trkpt>
      <trkpt lat="49.17232" lon="-0.06023">
        <ele>24.9</ele>
        <time>2024-03-03T10:38:02Z</time>
      </trkpt>
      <trkpt lat="49.17236" lon="-0.06032">
        <ele>25</ele>
        <time>2024-03-03T10:38:03Z</time>
      </trkpt>
      <trkpt lat="49.17239" lon="-0.0604">
        <ele>25.2</ele>
        <time>2024-03-03T10:38:04Z</time>
      </trkpt>
      <trkpt lat="49.17243" lon="-0.06049">
        <ele>25.3</ele>
        <time>2024-03-03T10:38:05Z</time>
      </trkpt>
      <trkpt lat="49.17247" lon="-0.06057">
        <ele>25.4</ele>
        <time>2024-03-03T10:38:06Z</time>
      </trkpt>
      <trkpt lat="49.17251" lon="-0.06065">
        <ele>25.5</ele>
        <time>2024-03-03T10:38:07Z</time>
      </trkpt>
      <trkpt lat="49.17256" lon="-0.06074">
        <ele>25.6</ele>
        <time>2024-03-03T10:38:08Z</time>
      </trkpt>
      <trkpt lat="49.1726" lon="-0.06082">
        <ele>25.6</ele>
        <time>2024-03-03T10:38:09Z</time>
      </trkpt>
      <trkpt lat="49.17264" lon="-0.06091">
        <ele>25.7</ele>
        <time>2024-03-03T10:38:10Z</time>
      </trkpt>
      <trkpt lat="49.17268" lon="-0.061">
        <ele>25.7</ele>
        <time>2024-03-03T10:38:11Z</time>
      </trkpt>
      <trkpt lat="49.17272" lon="-0.06109">
        <ele>25.7</ele>
        <time>2024-03-03T10:38:12Z</time>
      </trkpt>
      <trkpt lat="49.17276" lon="-0.06119">
        <ele>25.8</ele>
        <time>2024-03-03T10:38:13Z</time>
      </trkpt>
      <trkpt lat="49.1728" lon="-0.06128">
        <ele>25.8</ele>
        <time>2024-03-03T10:38:14Z</time>
      </trkpt>
      <trkpt lat="49.17283" lon="-0.06137">
        <ele>25.8</ele>
        <time>2024-03-03T10:38:15Z</time>
      </trkpt>
      <trkpt lat="49.17287" lon="-0.06146">
        <ele>25.8</ele>
        <time>2024-03-03T10:38:16Z</time>
      </trkpt>
      <trkpt lat="49.1729" lon="-0.06155">
        <ele>25.8</ele>
        <time>2024-03-03T10:38:17Z</time>
      </trkpt>
      <trkpt lat="49.17294" lon="-0.06165">
        <ele>25.8</ele>
        <time>2024-03-03T10:38:18Z</time>
      </trkpt>
      <trkpt lat="49.17298" lon="-0.06174">
        <ele>25.8</ele>
        <time>2024-03-03T10:38:19Z</time>
      </trkpt>
      <trkpt lat="49.17301" lon="-0.06184">
        <ele>25.7</ele>
        <time>2024-03-03T10:38:20Z</time>
      </trkpt>
      <trkpt lat="49.17305" lon="-0.06194">
        <ele>25.7</ele>
        <time>2024-03-03T10:38:21Z</time>
      </trkpt>
      <trkpt lat="49.17309" lon="-0.06204">
        <ele>25.7</ele>
        <time>2024-03-03T10:38:22Z</time>
      </trkpt>
      <trkpt lat="49.17313" lon="-0.06214">
        <ele>25.7</ele>
        <time>2024-03-03T10:38:23Z</time>
      </trkpt>
      <trkpt lat="49.17316" lon="-0.06224">
        <ele>25.6</ele>
        <time>2024-03-03T10:38:24Z</time>
      </trkpt>
      <trkpt lat="49.1732" lon="-0.06234">
        <ele>25.6</ele>
        <time>2024-03-03T10:38:25Z</time>
      </trkpt>
      <trkpt lat="49.17323" lon="-0.06244">
        <ele>25.6</ele>
        <time>2024-03-03T10:38:26Z</time>
      </trkpt>
      <trkpt lat="49.17327" lon="-0.06253">
        <ele>25.6</ele>
        <time>2024-03-03T10:38:27Z</time>
      </trkpt>
      <trkpt lat="49.1733" lon="-0.06263">
        <ele>25.5</ele>
        <time>2024-03-03T10:38:28Z</time>
      </trkpt>
      <trkpt lat="49.17334" lon="-0.06273">
        <ele>25.5</ele>
        <time>2024-03-03T10:38:29Z</time>
      </trkpt>
      <trkpt lat="49.17337" lon="-0.06283">
        <ele>25.5</ele>
        <time>2024-03-03T10:38:30Z</time>
      </trkpt>
      <trkpt lat="49.17341" lon="-0.06293">
        <ele>25.4</ele>
        <time>2024-03-03T10:38:31Z</time>
      </trkpt>
      <trkpt lat="49.17344" lon="-0.06303">
        <ele>25.4</ele>
        <time>2024-03-03T10:38:32Z</time>
      </trkpt>
      <trkpt lat="49.17347" lon="-0.06313">
        <ele>25.3</ele>
        <time>2024-03-03T10:38:33Z</time>
      </trkpt>
      <trkpt lat="49.17351" lon="-0.06324">
        <ele>25.3</ele>
        <time>2024-03-03T10:38:34Z</time>
      </trkpt>
      <trkpt lat="49.17354" lon="-0.06333">
        <ele>25.2</ele>
        <time>2024-03-03T10:38:35Z</time>
      </trkpt>
      <trkpt lat="49.17357" lon="-0.06343">
        <ele>25.2</ele>
        <time>2024-03-03T10:38:36Z</time>
      </trkpt>
      <trkpt lat="49.1736" lon="-0.06353">
        <ele>25.1</ele>
        <time>2024-03-03T10:38:37Z</time>
      </trkpt>
      <trkpt lat="49.17364" lon="-0.06363">
        <ele>25</ele>
        <time>2024-03-03T10:38:38Z</time>
      </trkpt>
      <trkpt lat="49.17367" lon="-0.06372">
        <ele>25</ele>
        <time>2024-03-03T10:38:39Z</time>
      </trkpt>
      <trkpt lat="49.1737" lon="-0.06383">
        <ele>24.9</ele>
        <time>2024-03-03T10:38:40Z</time>
      </trkpt>
      <trkpt lat="49.17373" lon="-0.06393">
        <ele>24.8</ele>
        <time>2024-03-03T10:38:41Z</time>
      </trkpt>
      <trkpt lat="49.17376" lon="-0.06403">
        <ele>24.8</ele>
        <time>2024-03-03T10:38:42Z</time>
      </trkpt>
      <trkpt lat="49.1738" lon="-0.06413">
        <ele>24.7</ele>
        <time>2024-03-03T10:38:43Z</time>
      </trkpt>
      <trkpt lat="49.17384" lon="-0.06424">
        <ele>24.6</ele>
        <time>2024-03-03T10:38:44Z</time>
      </trkpt>
      <trkpt lat="49.17387" lon="-0.06435">
        <ele>24.6</ele>
        <time>2024-03-03T10:38:45Z</time>
      </trkpt>
      <trkpt lat="49.17391" lon="-0.06446">
        <ele>24.5</ele>
        <time>2024-03-03T10:38:46Z</time>
      </trkpt>
      <trkpt lat="49.17395" lon="-0.06456">
        <ele>24.5</ele>
        <time>2024-03-03T10:38:47Z</time>
      </trkpt>
      <trkpt lat="49.17399" lon="-0.06465">
        <ele>24.3</ele>
        <time>2024-03-03T10:38:48Z</time>
      </trkpt>
      <trkpt lat="49.17404" lon="-0.06474">
        <ele>24.2</ele>
        <time>2024-03-03T10:38:49Z</time>
      </trkpt>
      <trkpt lat="49.1741" lon="-0.06483">
        <ele>24.1</ele>
        <time>2024-03-03T10:38:50Z</time>
      </trkpt>
      <trkpt lat="49.17416" lon="-0.06492">
        <ele>23.9</ele>
        <time>2024-03-03T10:38:51Z</time>
      </trkpt>
      <trkpt lat="49.17422" lon="-0.06499">
        <ele>23.8</ele>
        <time>2024-03-03T10:38:52Z</time>
      </trkpt>
      <trkpt lat="49.17428" lon="-0.06506">
        <ele>23.6</ele>
        <time>2024-03-03T10:38:53Z</time>
      </trkpt>
      <trkpt lat="49.17435" lon="-0.06513">
        <ele>23.4</ele>
        <time>2024-03-03T10:38:54Z</time>
      </trkpt>
      <trkpt lat="49.17442" lon="-0.06519">
        <ele>23.2</ele>
        <time>2024-03-03T10:38:55Z</time>
      </trkpt>
      <trkpt lat="49.17448" lon="-0.06524">
        <ele>23</ele>
        <time>2024-03-03T10:38:56Z</time>
      </trkpt>
      <trkpt lat="49.17455" lon="-0.0653">
        <ele>22.8</ele>
        <time>2024-03-03T10:38:57Z</time>
      </trkpt>
      <trkpt lat="49.17462" lon="-0.06536">
        <ele>22.6</ele>
        <time>2024-03-03T10:38:58Z</time>
      </trkpt>
      <trkpt lat="49.17468" lon="-0.06542">
        <ele>22.4</ele>
        <time>2024-03-03T10:38:59Z</time>
      </trkpt>
      <trkpt lat="49.17475" lon="-0.06548">
        <ele>22.3</ele>
        <time>2024-03-03T10:39:00Z</time>
      </trkpt>
      <trkpt lat="49.17481" lon="-0.06554">
        <ele>22.1</ele>
        <time>2024-03-03T10:39:01Z</time>
      </trkpt>
      <trkpt lat="49.17489" lon="-0.0656">
        <ele>21.8</ele>
        <time>2024-03-03T10:39:02Z</time>
      </trkpt>
      <trkpt lat="49.17496" lon="-0.06567">
        <ele>21.6</ele>
        <time>2024-03-03T10:39:03Z</time>
      </trkpt>
      <trkpt lat="49.17504" lon="-0.06574">
        <ele>21.5</ele>
        <time>2024-03-03T10:39:04Z</time>
      </trkpt>
      <trkpt lat="49.17511" lon="-0.06581">
        <ele>21.4</ele>
        <time>2024-03-03T10:39:05Z</time>
      </trkpt>
      <trkpt lat="49.17518" lon="-0.06587">
        <ele>21.3</ele>
        <time>2024-03-03T10:39:06Z</time>
      </trkpt>
      <trkpt lat="49.17526" lon="-0.06593">
        <ele>21.2</ele>
        <time>2024-03-03T10:39:07Z</time>
      </trkpt>
      <trkpt lat="49.17533" lon="-0.06599">
        <ele>21.2</ele>
        <time>2024-03-03T10:39:08Z</time>
      </trkpt>
      <trkpt lat="49.17541" lon="-0.06606">
        <ele>21.1</ele>
        <time>2024-03-03T10:39:09Z</time>
      </trkpt>
      <trkpt lat="49.17548" lon="-0.06612">
        <ele>21.1</ele>
        <time>2024-03-03T10:39:10Z</time>
      </trkpt>
      <trkpt lat="49.17555" lon="-0.06619">
        <ele>21</ele>
        <time>2024-03-03T10:39:11Z</time>
      </trkpt>
      <trkpt lat="49.17561" lon="-0.06625">
        <ele>21</ele>
        <time>2024-03-03T10:39:12Z</time>
      </trkpt>
      <trkpt lat="49.17568" lon="-0.06632">
        <ele>20.9</ele>
        <time>2024-03-03T10:39:13Z</time>
      </trkpt>
      <trkpt lat="49.17575" lon="-0.06638">
        <ele>20.9</ele>
        <time>2024-03-03T10:39:14Z</time>
      </trkpt>
      <trkpt lat="49.17581" lon="-0.06645">
        <ele>20.9</ele>
        <time>2024-03-03T10:39:15Z</time>
      </trkpt>
      <trkpt lat="49.17588" lon="-0.06651">
        <ele>20.9</ele>
        <time>2024-03-03T10:39:16Z</time>
      </trkpt>
      <trkpt lat="49.17595" lon="-0.06658">
        <ele>20.8</ele>
        <time>2024-03-03T10:39:17Z</time>
      </trkpt>
      <trkpt lat="49.17602" lon="-0.06665">
        <ele>20.8</ele>
        <time>2024-03-03T10:39:18Z</time>
      </trkpt>
      <trkpt lat="49.17608" lon="-0.06672">
        <ele>20.8</ele>
        <time>2024-03-03T10:39:19Z</time>
      </trkpt>
      <trkpt lat="49.17615" lon="-0.06678">
        <ele>20.8</ele>
        <time>2024-03-03T10:39:20Z</time>
      </trkpt>
      <trkpt lat="49.17622" lon="-0.06685">
        <ele>20.8</ele>
        <time>2024-03-03T10:39:21Z</time>
      </trkpt>
      <trkpt lat="49.17629" lon="-0.06692">
        <ele>20.9</ele>
        <time>2024-03-03T10:39:22Z</time>
      </trkpt>
      <trkpt lat="49.17636" lon="-0.06699">
        <ele>20.9</ele>
        <time>2024-03-03T10:39:23Z</time>
      </trkpt>
      <trkpt lat="49.17642" lon="-0.06706">
        <ele>20.9</ele>
        <time>2024-03-03T10:39:24Z</time>
      </trkpt>
      <trkpt lat="49.17648" lon="-0.06712">
        <ele>20.8</ele>
        <time>2024-03-03T10:39:25Z</time>
      </trkpt>
      <trkpt lat="49.17654" lon="-0.0672">
        <ele>20.8</ele>
        <time>2024-03-03T10:39:26Z</time>
      </trkpt>
      <trkpt lat="49.1766" lon="-0.06727">
        <ele>20.8</ele>
        <time>2024-03-03T10:39:27Z</time>
      </trkpt>
      <trkpt lat="49.17666" lon="-0.06734">
        <ele>20.7</ele>
        <time>2024-03-03T10:39:28Z</time>
      </trkpt>
      <trkpt lat="49.17672" lon="-0.06742">
        <ele>20.7</ele>
        <time>2024-03-03T10:39:29Z</time>
      </trkpt>
      <trkpt lat="49.17678" lon="-0.06749">
        <ele>20.6</ele>
        <time>2024-03-03T10:39:30Z</time>
      </trkpt>
      <trkpt lat="49.17684" lon="-0.06757">
        <ele>20.6</ele>
        <time>2024-03-03T10:39:31Z</time>
      </trkpt>
      <trkpt lat="49.1769" lon="-0.06764">
        <ele>20.6</ele>
        <time>2024-03-03T10:39:32Z</time>
      </trkpt>
      <trkpt lat="49.17697" lon="-0.06771">
        <ele>20.5</ele>
        <time>2024-03-03T10:39:33Z</time>
      </trkpt>
      <trkpt lat="49.17703" lon="-0.06778">
        <ele>20.5</ele>
        <time>2024-03-03T10:39:34Z</time>
      </trkpt>
      <trkpt lat="49.17709" lon="-0.06786">
        <ele>20.5</ele>
        <time>2024-03-03T10:39:35Z</time>
      </trkpt>
      <trkpt lat="49.17714" lon="-0.06793">
        <ele>20.5</ele>
        <time>2024-03-03T10:39:36Z</time>
      </trkpt>
      <trkpt lat="49.1772" lon="-0.068">
        <ele>20.5</ele>
        <time>2024-03-03T10:39:37Z</time>
      </trkpt>
      <trkpt lat="49.17726" lon="-0.06808">
        <ele>20.5</ele>
        <time>2024-03-03T10:39:38Z</time>
      </trkpt>
      <trkpt lat="49.17732" lon="-0.06815">
        <ele>20.5</ele>
        <time>2024-03-03T10:39:39Z</time>
      </trkpt>
      <trkpt lat="49.17738" lon="-0.06823">
        <ele>20.5</ele>
        <time>2024-03-03T10:39:40Z</time>
      </trkpt>
      <trkpt lat="49.17743" lon="-0.0683">
        <ele>20.5</ele>
        <time>2024-03-03T10:39:41Z</time>
      </trkpt>
      <trkpt lat="49.17749" lon="-0.06837">
        <ele>20.5</ele>
        <time>2024-03-03T10:39:42Z</time>
      </trkpt>
      <trkpt lat="49.17755" lon="-0.06845">
        <ele>20.6</ele>
        <time>2024-03-03T10:39:43Z</time>
      </trkpt>
      <trkpt lat="49.17761" lon="-0.06852">
        <ele>20.6</ele>
        <time>2024-03-03T10:39:44Z</time>
      </trkpt>
      <trkpt lat="49.17767" lon="-0.06859">
        <ele>20.6</ele>
        <time>2024-03-03T10:39:45Z</time>
      </trkpt>
      <trkpt lat="49.17773" lon="-0.06866">
        <ele>20.6</ele>
        <time>2024-03-03T10:39:46Z</time>
      </trkpt>
      <trkpt lat="49.17779" lon="-0.06873">
        <ele>20.6</ele>
        <time>2024-03-03T10:39:47Z</time>
      </trkpt>
      <trkpt lat="49.17784" lon="-0.0688">
        <ele>20.6</ele>
        <time>2024-03-03T10:39:48Z</time>
      </trkpt>
      <trkpt lat="49.1779" lon="-0.06888">
        <ele>20.7</ele>
        <time>2024-03-03T10:39:49Z</time>
      </trkpt>
      <trkpt lat="49.17796" lon="-0.06895">
        <ele>20.7</ele>
        <time>2024-03-03T10:39:50Z</time>
      </trkpt>
      <trkpt lat="49.17801" lon="-0.06902">
        <ele>20.7</ele>
        <time>2024-03-03T10:39:51Z</time>
      </trkpt>
      <trkpt lat="49.17807" lon="-0.06909">
        <ele>20.7</ele>
        <time>2024-03-03T10:39:52Z</time>
      </trkpt>
      <trkpt lat="49.17812" lon="-0.06916">
        <ele>20.8</ele>
        <time>2024-03-03T10:39:53Z</time>
      </trkpt>
      <trkpt lat="49.17818" lon="-0.06923">
        <ele>20.8</ele>
        <time>2024-03-03T10:39:54Z</time>
      </trkpt>
      <trkpt lat="49.17823" lon="-0.06931">
        <ele>20.8</ele>
        <time>2024-03-03T10:39:55Z</time>
      </trkpt>
      <trkpt lat="49.17829" lon="-0.06939">
        <ele>20.9</ele>
        <time>2024-03-03T10:39:56Z</time>
      </trkpt>
      <trkpt lat="49.17834" lon="-0.06947">
        <ele>20.9</ele>
        <time>2024-03-03T10:39:57Z</time>
      </trkpt>
      <trkpt lat="49.17838" lon="-0.06956">
        <ele>20.9</ele>
        <time>2024-03-03T10:39:58Z</time>
      </trkpt>
      <trkpt lat="49.17843" lon="-0.06965">
        <ele>20.9</ele>
        <time>2024-03-03T10:39:59Z</time>
      </trkpt>
      <trkpt lat="49.17847" lon="-0.06974">
        <ele>20.8</ele>
        <time>2024-03-03T10:40:00Z</time>
      </trkpt>
      <trkpt lat="49.17852" lon="-0.06983">
        <ele>20.8</ele>
        <time>2024-03-03T10:40:01Z</time>
      </trkpt>
      <trkpt lat="49.17856" lon="-0.06993">
        <ele>20.8</ele>
        <time>2024-03-03T10:40:02Z</time>
      </trkpt>
      <trkpt lat="49.17861" lon="-0.07002">
        <ele>20.8</ele>
        <time>2024-03-03T10:40:03Z</time>
      </trkpt>
      <trkpt lat="49.17866" lon="-0.07012">
        <ele>20.8</ele>
        <time>2024-03-03T10:40:04Z</time>
      </trkpt>
      <trkpt lat="49.1787" lon="-0.07021">
        <ele>20.8</ele>
        <time>2024-03-03T10:40:05Z</time>
      </trkpt>
      <trkpt lat="49.17875" lon="-0.0703">
        <ele>20.8</ele>
        <time>2024-03-03T10:40:06Z</time>
      </trkpt>
      <trkpt lat="49.17879" lon="-0.0704">
        <ele>20.8</ele>
        <time>2024-03-03T10:40:07Z</time>
      </trkpt>
      <trkpt lat="49.17884" lon="-0.07049">
        <ele>20.8</ele>
        <time>2024-03-03T10:40:08Z</time>
      </trkpt>
      <trkpt lat="49.17888" lon="-0.07059">
        <ele>20.8</ele>
        <time>2024-03-03T10:40:09Z</time>
      </trkpt>
      <trkpt lat="49.17892" lon="-0.07069">
        <ele>20.8</ele>
        <time>2024-03-03T10:40:10Z</time>
      </trkpt>
      <trkpt lat="49.17897" lon="-0.07078">
        <ele>20.8</ele>
        <time>2024-03-03T10:40:11Z</time>
      </trkpt>
      <trkpt lat="49.17901" lon="-0.07087">
        <ele>20.8</ele>
        <time>2024-03-03T10:40:12Z</time>
      </trkpt>
      <trkpt lat="49.17906" lon="-0.07096">
        <ele>20.8</ele>
        <time>2024-03-03T10:40:13Z</time>
      </trkpt>
      <trkpt lat="49.1791" lon="-0.07106">
        <ele>20.7</ele>
        <time>2024-03-03T10:40:14Z</time>
      </trkpt>
      <trkpt lat="49.17914" lon="-0.07115">
        <ele>20.7</ele>
        <time>2024-03-03T10:40:15Z</time>
      </trkpt>
      <trkpt lat="49.17918" lon="-0.07124">
        <ele>20.7</ele>
        <time>2024-03-03T10:40:16Z</time>
      </trkpt>
      <trkpt lat="49.17923" lon="-0.07133">
        <ele>20.7</ele>
        <time>2024-03-03T10:40:17Z</time>
      </trkpt>
      <trkpt lat="49.17927" lon="-0.07142">
        <ele>20.6</ele>
        <time>2024-03-03T10:40:18Z</time>
      </trkpt>
      <trkpt lat="49.17931" lon="-0.07152">
        <ele>20.6</ele>
        <time>2024-03-03T10:40:19Z</time>
      </trkpt>
      <trkpt lat="49.17936" lon="-0.07161">
        <ele>20.6</ele>
        <time>2024-03-03T10:40:20Z</time>
      </trkpt>
      <trkpt lat="49.1794" lon="-0.0717">
        <ele>20.6</ele>
        <time>2024-03-03T10:40:21Z</time>
      </trkpt>
      <trkpt lat="49.17944" lon="-0.07179">
        <ele>20.6</ele>
        <time>2024-03-03T10:40:22Z</time>
      </trkpt>
      <trkpt lat="49.17949" lon="-0.07188">
        <ele>20.5</ele>
        <time>2024-03-03T10:40:23Z</time>
      </trkpt>
      <trkpt lat="49.17953" lon="-0.07197">
        <ele>20.5</ele>
        <time>2024-03-03T10:40:24Z</time>
      </trkpt>
      <trkpt lat="49.17957" lon="-0.07206">
        <ele>20.5</ele>
        <time>2024-03-03T10:40:25Z</time>
      </trkpt>
      <trkpt lat="49.17961" lon="-0.07215">
        <ele>20.5</ele>
        <time>2024-03-03T10:40:26Z</time>
      </trkpt>
      <trkpt lat="49.17965" lon="-0.07224">
        <ele>20.6</ele>
        <time>2024-03-03T10:40:27Z</time>
      </trkpt>
      <trkpt lat="49.17969" lon="-0.07233">
        <ele>20.6</ele>
        <time>2024-03-03T10:40:28Z</time>
      </trkpt>
      <trkpt lat="49.17973" lon="-0.07242">
        <ele>20.5</ele>
        <time>2024-03-03T10:40:29Z</time>
      </trkpt>
      <trkpt lat="49.17977" lon="-0.07251">
        <ele>20.5</ele>
        <time>2024-03-03T10:40:30Z</time>
      </trkpt>
      <trkpt lat="49.17981" lon="-0.0726">
        <ele>20.4</ele>
        <time>2024-03-03T10:40:31Z</time>
      </trkpt>
      <trkpt lat="49.17985" lon="-0.07268">
        <ele>20.4</ele>
        <time>2024-03-03T10:40:32Z</time>
      </trkpt>
      <trkpt lat="49.1799" lon="-0.07278">
        <ele>20.3</ele>
        <time>2024-03-03T10:40:33Z</time>
      </trkpt>
      <trkpt lat="49.17994" lon="-0.07287">
        <ele>20.3</ele>
        <time>2024-03-03T10:40:34Z</time>
      </trkpt>
      <trkpt lat="49.17999" lon="-0.07296">
        <ele>20.2</ele>
        <time>2024-03-03T10:40:35Z</time>
      </trkpt>
      <trkpt lat="49.18003" lon="-0.07306">
        <ele>20.1</ele>
        <time>2024-03-03T10:40:36Z</time>
      </trkpt>
      <trkpt lat="49.18008" lon="-0.07315">
        <ele>20.1</ele>
        <time>2024-03-03T10:40:37Z</time>
      </trkpt>
      <trkpt lat="49.18013" lon="-0.07324">
        <ele>20</ele>
        <time>2024-03-03T10:40:38Z</time>
      </trkpt>
      <trkpt lat="49.18017" lon="-0.07333">
        <ele>19.9</ele>
        <time>2024-03-03T10:40:39Z</time>
      </trkpt>
      <trkpt lat="49.18022" lon="-0.07343">
        <ele>19.9</ele>
        <time>2024-03-03T10:40:40Z</time>
      </trkpt>
      <trkpt lat="49.18026" lon="-0.07353">
        <ele>19.8</ele>
        <time>2024-03-03T10:40:41Z</time>
      </trkpt>
      <trkpt lat="49.18031" lon="-0.07363">
        <ele>19.8</ele>
        <time>2024-03-03T10:40:42Z</time>
      </trkpt>
      <trkpt lat="49.18035" lon="-0.07372">
        <ele>19.8</ele>
        <time>2024-03-03T10:40:43Z</time>
      </trkpt>
      <trkpt lat="49.18039" lon="-0.07382">
        <ele>19.7</ele>
        <time>2024-03-03T10:40:44Z</time>
      </trkpt>
      <trkpt lat="49.18044" lon="-0.07391">
        <ele>19.7</ele>
        <time>2024-03-03T10:40:45Z</time>
      </trkpt>
      <trkpt lat="49.18049" lon="-0.07401">
        <ele>19.7</ele>
        <time>2024-03-03T10:40:46Z</time>
      </trkpt>
      <trkpt lat="49.18053" lon="-0.0741">
        <ele>19.6</ele>
        <time>2024-03-03T10:40:47Z</time>
      </trkpt>
      <trkpt lat="49.18057" lon="-0.0742">
        <ele>19.6</ele>
        <time>2024-03-03T10:40:48Z</time>
      </trkpt>
      <trkpt lat="49.18061" lon="-0.07431">
        <ele>19.6</ele>
        <time>2024-03-03T10:40:49Z</time>
      </trkpt>
      <trkpt lat="49.18065" lon="-0.07441">
        <ele>19.6</ele>
        <time>2024-03-03T10:40:50Z</time>
      </trkpt>
      <trkpt lat="49.18069" lon="-0.07451">
        <ele>19.5</ele>
        <time>2024-03-03T10:40:51Z</time>
      </trkpt>
      <trkpt lat="49.18073" lon="-0.07461">
        <ele>19.5</ele>
        <time>2024-03-03T10:40:52Z</time>
      </trkpt>
      <trkpt lat="49.18077" lon="-0.07472">
        <ele>19.4</ele>
        <time>2024-03-03T10:40:53Z</time>
      </trkpt>
      <trkpt lat="49.1808" lon="-0.07482">
        <ele>19.4</ele>
        <time>2024-03-03T10:40:54Z</time>
      </trkpt>
      <trkpt lat="49.18084" lon="-0.07493">
        <ele>19.3</ele>
        <time>2024-03-03T10:40:55Z</time>
      </trkpt>
      <trkpt lat="49.18087" lon="-0.07504">
        <ele>19.3</ele>
        <time>2024-03-03T10:40:56Z</time>
      </trkpt>
      <trkpt lat="49.18091" lon="-0.07516">
        <ele>19.3</ele>
        <time>2024-03-03T10:40:57Z</time>
      </trkpt>
      <trkpt lat="49.18094" lon="-0.07526">
        <ele>19.3</ele>
        <time>2024-03-03T10:40:58Z</time>
      </trkpt>
      <trkpt lat="49.18098" lon="-0.07537">
        <ele>19.2</ele>
        <time>2024-03-03T10:40:59Z</time>
      </trkpt>
      <trkpt lat="49.18102" lon="-0.07549">
        <ele>19.3</ele>
        <time>2024-03-03T10:41:00Z</time>
      </trkpt>
      <trkpt lat="49.18105" lon="-0.07559">
        <ele>19.3</ele>
        <time>2024-03-03T10:41:01Z</time>
      </trkpt>
      <trkpt lat="49.18109" lon="-0.0757">
        <ele>19.3</ele>
        <time>2024-03-03T10:41:02Z</time>
      </trkpt>
      <trkpt lat="49.18112" lon="-0.0758">
        <ele>19.4</ele>
        <time>2024-03-03T10:41:03Z</time>
      </trkpt>
      <trkpt lat="49.18116" lon="-0.0759">
        <ele>19.4</ele>
        <time>2024-03-03T10:41:04Z</time>
      </trkpt>
      <trkpt lat="49.18119" lon="-0.076">
        <ele>19.5</ele>
        <time>2024-03-03T10:41:05Z</time>
      </trkpt>
      <trkpt lat="49.18123" lon="-0.0761">
        <ele>19.6</ele>
        <time>2024-03-03T10:41:06Z</time>
      </trkpt>
      <trkpt lat="49.18126" lon="-0.0762">
        <ele>19.7</ele>
        <time>2024-03-03T10:41:07Z</time>
      </trkpt>
      <trkpt lat="49.18129" lon="-0.07631">
        <ele>19.8</ele>
        <time>2024-03-03T10:41:08Z</time>
      </trkpt>
      <trkpt lat="49.18132" lon="-0.0764">
        <ele>19.9</ele>
        <time>2024-03-03T10:41:09Z</time>
      </trkpt>
      <trkpt lat="49.18135" lon="-0.0765">
        <ele>19.9</ele>
        <time>2024-03-03T10:41:10Z</time>
      </trkpt>
      <trkpt lat="49.18138" lon="-0.07661">
        <ele>20</ele>
        <time>2024-03-03T10:41:11Z</time>
      </trkpt>
      <trkpt lat="49.18141" lon="-0.07671">
        <ele>20.1</ele>
        <time>2024-03-03T10:41:12Z</time>
      </trkpt>
      <trkpt lat="49.18144" lon="-0.07681">
        <ele>20.1</ele>
        <time>2024-03-03T10:41:13Z</time>
      </trkpt>
      <trkpt lat="49.18146" lon="-0.07691">
        <ele>20.2</ele>
        <time>2024-03-03T10:41:14Z</time>
      </trkpt>
      <trkpt lat="49.18149" lon="-0.07702">
        <ele>20.3</ele>
        <time>2024-03-03T10:41:15Z</time>
      </trkpt>
      <trkpt lat="49.18151" lon="-0.07712">
        <ele>20.4</ele>
        <time>2024-03-03T10:41:16Z</time>
      </trkpt>
      <trkpt lat="49.18152" lon="-0.07723">
        <ele>20.5</ele>
        <time>2024-03-03T10:41:17Z</time>
      </trkpt>
      <trkpt lat="49.18154" lon="-0.07733">
        <ele>20.6</ele>
        <time>2024-03-03T10:41:18Z</time>
      </trkpt>
      <trkpt lat="49.18155" lon="-0.07743">
        <ele>20.7</ele>
        <time>2024-03-03T10:41:19Z</time>
      </trkpt>
      <trkpt lat="49.18157" lon="-0.07753">
        <ele>20.7</ele>
        <time>2024-03-03T10:41:20Z</time>
      </trkpt>
      <trkpt lat="49.18158" lon="-0.07761">
        <ele>20.8</ele>
        <time>2024-03-03T10:41:21Z</time>
      </trkpt>
      <trkpt lat="49.18159" lon="-0.0777">
        <ele>20.9</ele>
        <time>2024-03-03T10:41:22Z</time>
      </trkpt>
      <trkpt lat="49.1816" lon="-0.07779">
        <ele>20.9</ele>
        <time>2024-03-03T10:41:23Z</time>
      </trkpt>
      <trkpt lat="49.18161" lon="-0.07787">
        <ele>21</ele>
        <time>2024-03-03T10:41:24Z</time>
      </trkpt>
      <trkpt lat="49.18162" lon="-0.07796">
        <ele>21</ele>
        <time>2024-03-03T10:41:25Z</time>
      </trkpt>
      <trkpt lat="49.18164" lon="-0.07804">
        <ele>21</ele>
        <time>2024-03-03T10:41:26Z</time>
      </trkpt>
      <trkpt lat="49.18166" lon="-0.07814">
        <ele>21.1</ele>
        <time>2024-03-03T10:41:27Z</time>
      </trkpt>
      <trkpt lat="49.18168" lon="-0.07823">
        <ele>21.1</ele>
        <time>2024-03-03T10:41:28Z</time>
      </trkpt>
      <trkpt lat="49.1817" lon="-0.07832">
        <ele>21.1</ele>
        <time>2024-03-03T10:41:29Z</time>
      </trkpt>
      <trkpt lat="49.18172" lon="-0.0784">
        <ele>21.1</ele>
        <time>2024-03-03T10:41:30Z</time>
      </trkpt>
      <trkpt lat="49.18173" lon="-0.07849">
        <ele>21.1</ele>
        <time>2024-03-03T10:41:31Z</time>
      </trkpt>
      <trkpt lat="49.18175" lon="-0.07858">
        <ele>21.1</ele>
        <time>2024-03-03T10:41:32Z</time>
      </trkpt>
      <trkpt lat="49.18177" lon="-0.07866">
        <ele>21.1</ele>
        <time>2024-03-03T10:41:33Z</time>
      </trkpt>
      <trkpt lat="49.18178" lon="-0.07874">
        <ele>21.1</ele>
        <time>2024-03-03T10:41:34Z</time>
      </trkpt>
      <trkpt lat="49.1818" lon="-0.07882">
        <ele>21.1</ele>
        <time>2024-03-03T10:41:35Z</time>
      </trkpt>
      <trkpt lat="49.18181" lon="-0.07889">
        <ele>21.1</ele>
        <time>2024-03-03T10:41:36Z</time>
      </trkpt>
      <trkpt lat="49.18183" lon="-0.07895">
        <ele>21.1</ele>
        <time>2024-03-03T10:41:37Z</time>
      </trkpt>
      <trkpt lat="49.18187" lon="-0.07898">
        <ele>21.1</ele>
        <time>2024-03-03T10:41:38Z</time>
      </trkpt>
      <trkpt lat="49.18192" lon="-0.07897">
        <ele>20.8</ele>
        <time>2024-03-03T10:41:39Z</time>
      </trkpt>
      <trkpt lat="49.18197" lon="-0.07894">
        <ele>20.6</ele>
        <time>2024-03-03T10:41:40Z</time>
      </trkpt>
      <trkpt lat="49.18201" lon="-0.0789">
        <ele>20.4</ele>
        <time>2024-03-03T10:41:41Z</time>
      </trkpt>
      <trkpt lat="49.18206" lon="-0.07886">
        <ele>20.2</ele>
        <time>2024-03-03T10:41:42Z</time>
      </trkpt>
      <trkpt lat="49.18209" lon="-0.07882">
        <ele>20.1</ele>
        <time>2024-03-03T10:41:43Z</time>
      </trkpt>
      <trkpt lat="49.18214" lon="-0.07878">
        <ele>19.9</ele>
        <time>2024-03-03T10:41:44Z</time>
      </trkpt>
      <trkpt lat="49.18218" lon="-0.07873">
        <ele>19.8</ele>
        <time>2024-03-03T10:41:45Z</time>
      </trkpt>
      <trkpt lat="49.18223" lon="-0.07868">
        <ele>19.6</ele>
        <time>2024-03-03T10:41:46Z</time>
      </trkpt>
      <trkpt lat="49.18228" lon="-0.07862">
        <ele>19.5</ele>
        <time>2024-03-03T10:41:47Z</time>
      </trkpt>
      <trkpt lat="49.18233" lon="-0.07856">
        <ele>19.3</ele>
        <time>2024-03-03T10:41:48Z</time>
      </trkpt>
      <trkpt lat="49.18238" lon="-0.07851">
        <ele>19.2</ele>
        <time>2024-03-03T10:41:49Z</time>
      </trkpt>
      <trkpt lat="49.18242" lon="-0.07844">
        <ele>19</ele>
        <time>2024-03-03T10:41:50Z</time>
      </trkpt>
      <trkpt lat="49.18247" lon="-0.07838">
        <ele>18.9</ele>
        <time>2024-03-03T10:41:51Z</time>
      </trkpt>
      <trkpt lat="49.18252" lon="-0.07832">
        <ele>18.8</ele>
        <time>2024-03-03T10:41:52Z</time>
      </trkpt>
      <trkpt lat="49.18257" lon="-0.07826">
        <ele>18.6</ele>
        <time>2024-03-03T10:41:53Z</time>
      </trkpt>
      <trkpt lat="49.18261" lon="-0.07819">
        <ele>18.5</ele>
        <time>2024-03-03T10:41:54Z</time>
      </trkpt>
      <trkpt lat="49.18266" lon="-0.07813">
        <ele>18.4</ele>
        <time>2024-03-03T10:41:55Z</time>
      </trkpt>
      <trkpt lat="49.18271" lon="-0.07806">
        <ele>18.2</ele>
        <time>2024-03-03T10:41:56Z</time>
      </trkpt>
      <trkpt lat="49.18276" lon="-0.07799">
        <ele>18.1</ele>
        <time>2024-03-03T10:41:57Z</time>
      </trkpt>
      <trkpt lat="49.18282" lon="-0.07792">
        <ele>17.9</ele>
        <time>2024-03-03T10:41:58Z</time>
      </trkpt>
      <trkpt lat="49.18288" lon="-0.07784">
        <ele>17.8</ele>
        <time>2024-03-03T10:41:59Z</time>
      </trkpt>
      <trkpt lat="49.18294" lon="-0.07776">
        <ele>17.7</ele>
        <time>2024-03-03T10:42:00Z</time>
      </trkpt>
      <trkpt lat="49.183" lon="-0.07768">
        <ele>17.6</ele>
        <time>2024-03-03T10:42:01Z</time>
      </trkpt>
      <trkpt lat="49.18307" lon="-0.0776">
        <ele>17.4</ele>
        <time>2024-03-03T10:42:02Z</time>
      </trkpt>
      <trkpt lat="49.18314" lon="-0.07753">
        <ele>17.3</ele>
        <time>2024-03-03T10:42:03Z</time>
      </trkpt>
      <trkpt lat="49.18321" lon="-0.07746">
        <ele>17.1</ele>
        <time>2024-03-03T10:42:04Z</time>
      </trkpt>
      <trkpt lat="49.18327" lon="-0.07739">
        <ele>16.9</ele>
        <time>2024-03-03T10:42:05Z</time>
      </trkpt>
      <trkpt lat="49.18333" lon="-0.07733">
        <ele>16.8</ele>
        <time>2024-03-03T10:42:06Z</time>
      </trkpt>
      <trkpt lat="49.1834" lon="-0.07726">
        <ele>16.6</ele>
        <time>2024-03-03T10:42:07Z</time>
      </trkpt>
      <trkpt lat="49.18346" lon="-0.0772">
        <ele>16.4</ele>
        <time>2024-03-03T10:42:08Z</time>
      </trkpt>
      <trkpt lat="49.18353" lon="-0.07714">
        <ele>16.2</ele>
        <time>2024-03-03T10:42:09Z</time>
      </trkpt>
      <trkpt lat="49.1836" lon="-0.07707">
        <ele>16</ele>
        <time>2024-03-03T10:42:10Z</time>
      </trkpt>
      <trkpt lat="49.18367" lon="-0.07701">
        <ele>15.8</ele>
        <time>2024-03-03T10:42:11Z</time>
      </trkpt>
      <trkpt lat="49.18373" lon="-0.07695">
        <ele>15.6</ele>
        <time>2024-03-03T10:42:12Z</time>
      </trkpt>
      <trkpt lat="49.18381" lon="-0.07688">
        <ele>15.5</ele>
        <time>2024-03-03T10:42:13Z</time>
      </trkpt>
      <trkpt lat="49.18388" lon="-0.07682">
        <ele>15.4</ele>
        <time>2024-03-03T10:42:14Z</time>
      </trkpt>
      <trkpt lat="49.18395" lon="-0.07676">
        <ele>15.2</ele>
        <time>2024-03-03T10:42:15Z</time>
      </trkpt>
      <trkpt lat="49.18401" lon="-0.0767">
        <ele>15.1</ele>
        <time>2024-03-03T10:42:16Z</time>
      </trkpt>
      <trkpt lat="49.18408" lon="-0.07663">
        <ele>15.1</ele>
        <time>2024-03-03T10:42:17Z</time>
      </trkpt>
      <trkpt lat="49.18414" lon="-0.07658">
        <ele>15</ele>
        <time>2024-03-03T10:42:18Z</time>
      </trkpt>
      <trkpt lat="49.18421" lon="-0.07652">
        <ele>14.9</ele>
        <time>2024-03-03T10:42:19Z</time>
      </trkpt>
      <trkpt lat="49.18428" lon="-0.07647">
        <ele>14.9</ele>
        <time>2024-03-03T10:42:20Z</time>
      </trkpt>
      <trkpt lat="49.18434" lon="-0.07642">
        <ele>14.8</ele>
        <time>2024-03-03T10:42:21Z</time>
      </trkpt>
      <trkpt lat="49.18441" lon="-0.07635">
        <ele>14.7</ele>
        <time>2024-03-03T10:42:22Z</time>
      </trkpt>
      <trkpt lat="49.18447" lon="-0.07628">
        <ele>14.7</ele>
        <time>2024-03-03T10:42:23Z</time>
      </trkpt>
      <trkpt lat="49.18454" lon="-0.07622">
        <ele>14.6</ele>
        <time>2024-03-03T10:42:24Z</time>
      </trkpt>
      <trkpt lat="49.18461" lon="-0.07615">
        <ele>14.6</ele>
        <time>2024-03-03T10:42:25Z</time>
      </trkpt>
      <trkpt lat="49.18467" lon="-0.07609">
        <ele>14.6</ele>
        <time>2024-03-03T10:42:26Z</time>
      </trkpt>
      <trkpt lat="49.18474" lon="-0.07602">
        <ele>14.6</ele>
        <time>2024-03-03T10:42:27Z</time>
      </trkpt>
      <trkpt lat="49.1848" lon="-0.07597">
        <ele>14.6</ele>
        <time>2024-03-03T10:42:28Z</time>
      </trkpt>
      <trkpt lat="49.18486" lon="-0.07591">
        <ele>14.6</ele>
        <time>2024-03-03T10:42:29Z</time>
      </trkpt>
      <trkpt lat="49.18492" lon="-0.07585">
        <ele>14.6</ele>
        <time>2024-03-03T10:42:30Z</time>
      </trkpt>
      <trkpt lat="49.18498" lon="-0.07579">
        <ele>14.6</ele>
        <time>2024-03-03T10:42:31Z</time>
      </trkpt>
      <trkpt lat="49.18505" lon="-0.07572">
        <ele>14.6</ele>
        <time>2024-03-03T10:42:32Z</time>
      </trkpt>
      <trkpt lat="49.18511" lon="-0.07567">
        <ele>14.6</ele>
        <time>2024-03-03T10:42:33Z</time>
      </trkpt>
      <trkpt lat="49.18518" lon="-0.07562">
        <ele>14.6</ele>
        <time>2024-03-03T10:42:34Z</time>
      </trkpt>
      <trkpt lat="49.18524" lon="-0.07557">
        <ele>14.5</ele>
        <time>2024-03-03T10:42:35Z</time>
      </trkpt>
      <trkpt lat="49.18531" lon="-0.07552">
        <ele>14.5</ele>
        <time>2024-03-03T10:42:36Z</time>
      </trkpt>
      <trkpt lat="49.18537" lon="-0.07547">
        <ele>14.6</ele>
        <time>2024-03-03T10:42:37Z</time>
      </trkpt>
      <trkpt lat="49.18544" lon="-0.07541">
        <ele>14.6</ele>
        <time>2024-03-03T10:42:38Z</time>
      </trkpt>
      <trkpt lat="49.1855" lon="-0.07536">
        <ele>14.7</ele>
        <time>2024-03-03T10:42:39Z</time>
      </trkpt>
      <trkpt lat="49.18556" lon="-0.07531">
        <ele>14.7</ele>
        <time>2024-03-03T10:42:40Z</time>
      </trkpt>
      <trkpt lat="49.18562" lon="-0.07526">
        <ele>14.8</ele>
        <time>2024-03-03T10:42:41Z</time>
      </trkpt>
      <trkpt lat="49.18568" lon="-0.07521">
        <ele>14.9</ele>
        <time>2024-03-03T10:42:42Z</time>
      </trkpt>
      <trkpt lat="49.18574" lon="-0.07516">
        <ele>15</ele>
        <time>2024-03-03T10:42:43Z</time>
      </trkpt>
      <trkpt lat="49.1858" lon="-0.07511">
        <ele>15.1</ele>
        <time>2024-03-03T10:42:44Z</time>
      </trkpt>
      <trkpt lat="49.18587" lon="-0.07506">
        <ele>15.1</ele>
        <time>2024-03-03T10:42:45Z</time>
      </trkpt>
      <trkpt lat="49.18593" lon="-0.07501">
        <ele>15.1</ele>
        <time>2024-03-03T10:42:46Z</time>
      </trkpt>
      <trkpt lat="49.18599" lon="-0.07496">
        <ele>15.2</ele>
        <time>2024-03-03T10:42:47Z</time>
      </trkpt>
      <trkpt lat="49.18605" lon="-0.07491">
        <ele>15.1</ele>
        <time>2024-03-03T10:42:48Z</time>
      </trkpt>
      <trkpt lat="49.18612" lon="-0.07487">
        <ele>15.1</ele>
        <time>2024-03-03T10:42:49Z</time>
      </trkpt>
      <trkpt lat="49.18619" lon="-0.07482">
        <ele>15.1</ele>
        <time>2024-03-03T10:42:50Z</time>
      </trkpt>
      <trkpt lat="49.18625" lon="-0.07478">
        <ele>15.1</ele>
        <time>2024-03-03T10:42:51Z</time>
      </trkpt>
      <trkpt lat="49.18632" lon="-0.07474">
        <ele>15.1</ele>
        <time>2024-03-03T10:42:52Z</time>
      </trkpt>
      <trkpt lat="49.18638" lon="-0.0747">
        <ele>15.1</ele>
        <time>2024-03-03T10:42:53Z</time>
      </trkpt>
      <trkpt lat="49.18646" lon="-0.07467">
        <ele>15.1</ele>
        <time>2024-03-03T10:42:54Z</time>
      </trkpt>
      <trkpt lat="49.18652" lon="-0.07464">
        <ele>15.1</ele>
        <time>2024-03-03T10:42:55Z</time>
      </trkpt>
      <trkpt lat="49.18659" lon="-0.0746">
        <ele>15.1</ele>
        <time>2024-03-03T10:42:56Z</time>
      </trkpt>
      <trkpt lat="49.18667" lon="-0.07457">
        <ele>15.1</ele>
        <time>2024-03-03T10:42:57Z</time>
      </trkpt>
      <trkpt lat="49.18674" lon="-0.07454">
        <ele>15.1</ele>
        <time>2024-03-03T10:42:58Z</time>
      </trkpt>
      <trkpt lat="49.18681" lon="-0.07452">
        <ele>15</ele>
        <time>2024-03-03T10:42:59Z</time>
      </trkpt>
      <trkpt lat="49.18688" lon="-0.07448">
        <ele>15</ele>
        <time>2024-03-03T10:43:00Z</time>
      </trkpt>
      <trkpt lat="49.18695" lon="-0.07445">
        <ele>15</ele>
        <time>2024-03-03T10:43:01Z</time>
      </trkpt>
      <trkpt lat="49.18702" lon="-0.07441">
        <ele>14.9</ele>
        <time>2024-03-03T10:43:02Z</time>
      </trkpt>
      <trkpt lat="49.18709" lon="-0.07438">
        <ele>14.9</ele>
        <time>2024-03-03T10:43:03Z</time>
      </trkpt>
      <trkpt lat="49.18715" lon="-0.07434">
        <ele>14.9</ele>
        <time>2024-03-03T10:43:04Z</time>
      </trkpt>
      <trkpt lat="49.18721" lon="-0.0743">
        <ele>14.9</ele>
        <time>2024-03-03T10:43:05Z</time>
      </trkpt>
      <trkpt lat="49.18727" lon="-0.07427">
        <ele>14.9</ele>
        <time>2024-03-03T10:43:06Z</time>
      </trkpt>
      <trkpt lat="49.18734" lon="-0.07425">
        <ele>14.8</ele>
        <time>2024-03-03T10:43:07Z</time>
      </trkpt>
      <trkpt lat="49.18742" lon="-0.07425">
        <ele>14.7</ele>
        <time>2024-03-03T10:43:08Z</time>
      </trkpt>
      <trkpt lat="49.1875" lon="-0.07427">
        <ele>14.6</ele>
        <time>2024-03-03T10:43:09Z</time>
      </trkpt>
      <trkpt lat="49.18758" lon="-0.07431">
        <ele>14.4</ele>
        <time>2024-03-03T10:43:10Z</time>
      </trkpt>
      <trkpt lat="49.18766" lon="-0.07434">
        <ele>14.3</ele>
        <time>2024-03-03T10:43:11Z</time>
      </trkpt>
      <trkpt lat="49.18773" lon="-0.07437">
        <ele>14.2</ele>
        <time>2024-03-03T10:43:12Z</time>
      </trkpt>
      <trkpt lat="49.18781" lon="-0.0744">
        <ele>14.1</ele>
        <time>2024-03-03T10:43:13Z</time>
      </trkpt>
      <trkpt lat="49.18788" lon="-0.0744">
        <ele>14</ele>
        <time>2024-03-03T10:43:14Z</time>
      </trkpt>
      <trkpt lat="49.18795" lon="-0.07441">
        <ele>13.9</ele>
        <time>2024-03-03T10:43:15Z</time>
      </trkpt>
      <trkpt lat="49.18803" lon="-0.0744">
        <ele>13.8</ele>
        <time>2024-03-03T10:43:16Z</time>
      </trkpt>
      <trkpt lat="49.1881" lon="-0.07439">
        <ele>13.7</ele>
        <time>2024-03-03T10:43:17Z</time>
      </trkpt>
      <trkpt lat="49.18818" lon="-0.07437">
        <ele>13.6</ele>
        <time>2024-03-03T10:43:18Z</time>
      </trkpt>
      <trkpt lat="49.18824" lon="-0.07434">
        <ele>13.5</ele>
        <time>2024-03-03T10:43:19Z</time>
      </trkpt>
      <trkpt lat="49.18832" lon="-0.0743">
        <ele>13.4</ele>
        <time>2024-03-03T10:43:20Z</time>
      </trkpt>
      <trkpt lat="49.1884" lon="-0.07425">
        <ele>13.2</ele>
        <time>2024-03-03T10:43:21Z</time>
      </trkpt>
      <trkpt lat="49.18848" lon="-0.0742">
        <ele>13.1</ele>
        <time>2024-03-03T10:43:22Z</time>
      </trkpt>
      <trkpt lat="49.18856" lon="-0.07416">
        <ele>13</ele>
        <time>2024-03-03T10:43:23Z</time>
      </trkpt>
      <trkpt lat="49.18864" lon="-0.07411">
        <ele>12.9</ele>
        <time>2024-03-03T10:43:24Z</time>
      </trkpt>
      <trkpt lat="49.18871" lon="-0.07407">
        <ele>12.8</ele>
        <time>2024-03-03T10:43:25Z</time>
      </trkpt>
      <trkpt lat="49.18879" lon="-0.07403">
        <ele>12.7</ele>
        <time>2024-03-03T10:43:26Z</time>
      </trkpt>
      <trkpt lat="49.18886" lon="-0.07399">
        <ele>12.6</ele>
        <time>2024-03-03T10:43:27Z</time>
      </trkpt>
      <trkpt lat="49.18894" lon="-0.07395">
        <ele>12.5</ele>
        <time>2024-03-03T10:43:28Z</time>
      </trkpt>
      <trkpt lat="49.189" lon="-0.0739">
        <ele>12.3</ele>
        <time>2024-03-03T10:43:29Z</time>
      </trkpt>
      <trkpt lat="49.18907" lon="-0.07386">
        <ele>12.2</ele>
        <time>2024-03-03T10:43:30Z</time>
      </trkpt>
      <trkpt lat="49.18914" lon="-0.07383">
        <ele>12.1</ele>
        <time>2024-03-03T10:43:31Z</time>
      </trkpt>
      <trkpt lat="49.18921" lon="-0.07379">
        <ele>12</ele>
        <time>2024-03-03T10:43:32Z</time>
      </trkpt>
      <trkpt lat="49.18927" lon="-0.07376">
        <ele>11.9</ele>
        <time>2024-03-03T10:43:33Z</time>
      </trkpt>
      <trkpt lat="49.18932" lon="-0.07371">
        <ele>11.9</ele>
        <time>2024-03-03T10:43:34Z</time>
      </trkpt>
      <trkpt lat="49.18938" lon="-0.07366">
        <ele>11.8</ele>
        <time>2024-03-03T10:43:35Z</time>
      </trkpt>
      <trkpt lat="49.18943" lon="-0.07359">
        <ele>11.8</ele>
        <time>2024-03-03T10:43:36Z</time>
      </trkpt>
      <trkpt lat="49.18949" lon="-0.07351">
        <ele>11.7</ele>
        <time>2024-03-03T10:43:37Z</time>
      </trkpt>
      <trkpt lat="49.18953" lon="-0.07343">
        <ele>11.7</ele>
        <time>2024-03-03T10:43:38Z</time>
      </trkpt>
      <trkpt lat="49.18958" lon="-0.07335">
        <ele>11.7</ele>
        <time>2024-03-03T10:43:39Z</time>
      </trkpt>
      <trkpt lat="49.18962" lon="-0.07328">
        <ele>11.7</ele>
        <time>2024-03-03T10:43:40Z</time>
      </trkpt>
      <trkpt lat="49.18968" lon="-0.07322">
        <ele>11.7</ele>
        <time>2024-03-03T10:43:41Z</time>
      </trkpt>
      <trkpt lat="49.18975" lon="-0.0732">
        <ele>11.7</ele>
        <time>2024-03-03T10:43:42Z</time>
      </trkpt>
      <trkpt lat="49.18981" lon="-0.07324">
        <ele>11.7</ele>
        <time>2024-03-03T10:43:43Z</time>
      </trkpt>
      <trkpt lat="49.18987" lon="-0.07331">
        <ele>11.6</ele>
        <time>2024-03-03T10:43:44Z</time>
      </trkpt>
      <trkpt lat="49.1899" lon="-0.07339">
        <ele>11.6</ele>
        <time>2024-03-03T10:43:45Z</time>
      </trkpt>
      <trkpt lat="49.18992" lon="-0.07348">
        <ele>11.6</ele>
        <time>2024-03-03T10:43:46Z</time>
      </trkpt>
      <trkpt lat="49.18993" lon="-0.07356">
        <ele>11.7</ele>
        <time>2024-03-03T10:43:47Z</time>
      </trkpt>
      <trkpt lat="49.18994" lon="-0.07362">
        <ele>11.7</ele>
        <time>2024-03-03T10:43:48Z</time>
      </trkpt>
      <trkpt lat="49.18997" lon="-0.07367">
        <ele>11.8</ele>
        <time>2024-03-03T10:43:49Z</time>
      </trkpt>
      <trkpt lat="49.19" lon="-0.07369">
        <ele>11.8</ele>
        <time>2024-03-03T10:43:50Z</time>
      </trkpt>
      <trkpt lat="49.19004" lon="-0.0737">
        <ele>11.8</ele>
        <time>2024-03-03T10:43:51Z</time>
      </trkpt>
      <trkpt lat="49.19008" lon="-0.07368">
        <ele>11.7</ele>
        <time>2024-03-03T10:43:52Z</time>
      </trkpt>
      <trkpt lat="49.19013" lon="-0.07365">
        <ele>11.6</ele>
        <time>2024-03-03T10:43:53Z</time>
      </trkpt>
      <trkpt lat="49.19017" lon="-0.0736">
        <ele>11.5</ele>
        <time>2024-03-03T10:43:54Z</time>
      </trkpt>
      <trkpt lat="49.19021" lon="-0.07354">
        <ele>11.4</ele>
        <time>2024-03-03T10:43:55Z</time>
      </trkpt>
      <trkpt lat="49.19025" lon="-0.07348">
        <ele>11.2</ele>
        <time>2024-03-03T10:43:56Z</time>
      </trkpt>
      <trkpt lat="49.1903" lon="-0.07343">
        <ele>11.1</ele>
        <time>2024-03-03T10:43:57Z</time>
      </trkpt>
      <trkpt lat="49.19035" lon="-0.07337">
        <ele>10.9</ele>
        <time>2024-03-03T10:43:58Z</time>
      </trkpt>
      <trkpt lat="49.19041" lon="-0.07331">
        <ele>10.7</ele>
        <time>2024-03-03T10:43:59Z</time>
      </trkpt>
      <trkpt lat="49.19047" lon="-0.07325">
        <ele>10.5</ele>
        <time>2024-03-03T10:44:00Z</time>
      </trkpt>
      <trkpt lat="49.19053" lon="-0.07319">
        <ele>10.3</ele>
        <time>2024-03-03T10:44:01Z</time>
      </trkpt>
      <trkpt lat="49.19059" lon="-0.07312">
        <ele>10</ele>
        <time>2024-03-03T10:44:02Z</time>
      </trkpt>
      <trkpt lat="49.19066" lon="-0.07305">
        <ele>9.7</ele>
        <time>2024-03-03T10:44:03Z</time>
      </trkpt>
      <trkpt lat="49.19073" lon="-0.07297">
        <ele>9.5</ele>
        <time>2024-03-03T10:44:04Z</time>
      </trkpt>
      <trkpt lat="49.1908" lon="-0.07289">
        <ele>9.2</ele>
        <time>2024-03-03T10:44:05Z</time>
      </trkpt>
      <trkpt lat="49.19088" lon="-0.07282">
        <ele>9</ele>
        <time>2024-03-03T10:44:06Z</time>
      </trkpt>
      <trkpt lat="49.19095" lon="-0.07274">
        <ele>8.8</ele>
        <time>2024-03-03T10:44:07Z</time>
      </trkpt>
      <trkpt lat="49.19102" lon="-0.07267">
        <ele>8.6</ele>
        <time>2024-03-03T10:44:08Z</time>
      </trkpt>
      <trkpt lat="49.19109" lon="-0.07259">
        <ele>8.5</ele>
        <time>2024-03-03T10:44:09Z</time>
      </trkpt>
      <trkpt lat="49.19116" lon="-0.07251">
        <ele>8.3</ele>
        <time>2024-03-03T10:44:10Z</time>
      </trkpt>
      <trkpt lat="49.19123" lon="-0.07244">
        <ele>8.2</ele>
        <time>2024-03-03T10:44:11Z</time>
      </trkpt>
      <trkpt lat="49.1913" lon="-0.07236">
        <ele>8.1</ele>
        <time>2024-03-03T10:44:12Z</time>
      </trkpt>
      <trkpt lat="49.19137" lon="-0.07229">
        <ele>7.9</ele>
        <time>2024-03-03T10:44:13Z</time>
      </trkpt>
      <trkpt lat="49.19144" lon="-0.07222">
        <ele>7.8</ele>
        <time>2024-03-03T10:44:14Z</time>
      </trkpt>
      <trkpt lat="49.19151" lon="-0.07215">
        <ele>7.7</ele>
        <time>2024-03-03T10:44:15Z</time>
      </trkpt>
      <trkpt lat="49.19157" lon="-0.07208">
        <ele>7.7</ele>
        <time>2024-03-03T10:44:16Z</time>
      </trkpt>
      <trkpt lat="49.19164" lon="-0.07201">
        <ele>7.6</ele>
        <time>2024-03-03T10:44:17Z</time>
      </trkpt>
      <trkpt lat="49.1917" lon="-0.07194">
        <ele>7.5</ele>
        <time>2024-03-03T10:44:18Z</time>
      </trkpt>
      <trkpt lat="49.19177" lon="-0.07187">
        <ele>7.4</ele>
        <time>2024-03-03T10:44:19Z</time>
      </trkpt>
      <trkpt lat="49.19183" lon="-0.0718">
        <ele>7.3</ele>
        <time>2024-03-03T10:44:20Z</time>
      </trkpt>
      <trkpt lat="49.1919" lon="-0.07174">
        <ele>7.2</ele>
        <time>2024-03-03T10:44:21Z</time>
      </trkpt>
      <trkpt lat="49.19196" lon="-0.07168">
        <ele>7.2</ele>
        <time>2024-03-03T10:44:22Z</time>
      </trkpt>
      <trkpt lat="49.19202" lon="-0.07161">
        <ele>7.1</ele>
        <time>2024-03-03T10:44:23Z</time>
      </trkpt>
      <trkpt lat="49.19208" lon="-0.07154">
        <ele>7.1</ele>
        <time>2024-03-03T10:44:24Z</time>
      </trkpt>
      <trkpt lat="49.19214" lon="-0.07148">
        <ele>7.1</ele>
        <time>2024-03-03T10:44:25Z</time>
      </trkpt>
      <trkpt lat="49.1922" lon="-0.07142">
        <ele>7.1</ele>
        <time>2024-03-03T10:44:26Z</time>
      </trkpt>
      <trkpt lat="49.19226" lon="-0.07136">
        <ele>7</ele>
        <time>2024-03-03T10:44:27Z</time>
      </trkpt>
      <trkpt lat="49.19232" lon="-0.07129">
        <ele>7</ele>
        <time>2024-03-03T10:44:28Z</time>
      </trkpt>
      <trkpt lat="49.19238" lon="-0.07122">
        <ele>7</ele>
        <time>2024-03-03T10:44:29Z</time>
      </trkpt>
      <trkpt lat="49.19245" lon="-0.07116">
        <ele>7</ele>
        <time>2024-03-03T10:44:30Z</time>
      </trkpt>
      <trkpt lat="49.19251" lon="-0.07109">
        <ele>7</ele>
        <time>2024-03-03T10:44:31Z</time>
      </trkpt>
      <trkpt lat="49.19257" lon="-0.07102">
        <ele>7</ele>
        <time>2024-03-03T10:44:32Z</time>
      </trkpt>
      <trkpt lat="49.19263" lon="-0.07096">
        <ele>7</ele>
        <time>2024-03-03T10:44:33Z</time>
      </trkpt>
      <trkpt lat="49.1927" lon="-0.07089">
        <ele>7</ele>
        <time>2024-03-03T10:44:34Z</time>
      </trkpt>
      <trkpt lat="49.19276" lon="-0.07082">
        <ele>7.1</ele>
        <time>2024-03-03T10:44:35Z</time>
      </trkpt>
      <trkpt lat="49.19282" lon="-0.07076">
        <ele>7.1</ele>
        <time>2024-03-03T10:44:36Z</time>
      </trkpt>
      <trkpt lat="49.19288" lon="-0.0707">
        <ele>7.1</ele>
        <time>2024-03-03T10:44:37Z</time>
      </trkpt>
      <trkpt lat="49.19295" lon="-0.07063">
        <ele>7.2</ele>
        <time>2024-03-03T10:44:38Z</time>
      </trkpt>
      <trkpt lat="49.19301" lon="-0.07057">
        <ele>7.3</ele>
        <time>2024-03-03T10:44:39Z</time>
      </trkpt>
      <trkpt lat="49.19307" lon="-0.07051">
        <ele>7.3</ele>
        <time>2024-03-03T10:44:40Z</time>
      </trkpt>
      <trkpt lat="49.19313" lon="-0.07045">
        <ele>7.4</ele>
        <time>2024-03-03T10:44:41Z</time>
      </trkpt>
      <trkpt lat="49.19319" lon="-0.07039">
        <ele>7.4</ele>
        <time>2024-03-03T10:44:42Z</time>
      </trkpt>
      <trkpt lat="49.19326" lon="-0.07033">
        <ele>7.5</ele>
        <time>2024-03-03T10:44:43Z</time>
      </trkpt>
      <trkpt lat="49.19333" lon="-0.07029">
        <ele>7.6</ele>
        <time>2024-03-03T10:44:44Z</time>
      </trkpt>
      <trkpt lat="49.19339" lon="-0.07024">
        <ele>7.7</ele>
        <time>2024-03-03T10:44:45Z</time>
      </trkpt>
      <trkpt lat="49.19345" lon="-0.07019">
        <ele>7.8</ele>
        <time>2024-03-03T10:44:46Z</time>
      </trkpt>
      <trkpt lat="49.19352" lon="-0.07015">
        <ele>7.9</ele>
        <time>2024-03-03T10:44:47Z</time>
      </trkpt>
      <trkpt lat="49.19358" lon="-0.0701">
        <ele>8</ele>
        <time>2024-03-03T10:44:48Z</time>
      </trkpt>
      <trkpt lat="49.19365" lon="-0.07005">
        <ele>8.2</ele>
        <time>2024-03-03T10:44:49Z</time>
      </trkpt>
      <trkpt lat="49.19371" lon="-0.07001">
        <ele>8.4</ele>
        <time>2024-03-03T10:44:50Z</time>
      </trkpt>
      <trkpt lat="49.19378" lon="-0.06996">
        <ele>8.6</ele>
        <time>2024-03-03T10:44:51Z</time>
      </trkpt>
      <trkpt lat="49.19384" lon="-0.06992">
        <ele>8.8</ele>
        <time>2024-03-03T10:44:52Z</time>
      </trkpt>
      <trkpt lat="49.19391" lon="-0.06988">
        <ele>9.1</ele>
        <time>2024-03-03T10:44:53Z</time>
      </trkpt>
      <trkpt lat="49.19398" lon="-0.06984">
        <ele>9.3</ele>
        <time>2024-03-03T10:44:54Z</time>
      </trkpt>
      <trkpt lat="49.19404" lon="-0.06979">
        <ele>9.6</ele>
        <time>2024-03-03T10:44:55Z</time>
      </trkpt>
      <trkpt lat="49.19411" lon="-0.06975">
        <ele>9.8</ele>
        <time>2024-03-03T10:44:56Z</time>
      </trkpt>
      <trkpt lat="49.19418" lon="-0.06971">
        <ele>10</ele>
        <time>2024-03-03T10:44:57Z</time>
      </trkpt>
      <trkpt lat="49.19425" lon="-0.06967">
        <ele>10.1</ele>
        <time>2024-03-03T10:44:58Z</time>
      </trkpt>
      <trkpt lat="49.19431" lon="-0.06963">
        <ele>10.2</ele>
        <time>2024-03-03T10:44:59Z</time>
      </trkpt>
      <trkpt lat="49.19438" lon="-0.06958">
        <ele>10.2</ele>
        <time>2024-03-03T10:45:00Z</time>
      </trkpt>
      <trkpt lat="49.19445" lon="-0.06954">
        <ele>10.2</ele>
        <time>2024-03-03T10:45:01Z</time>
      </trkpt>
      <trkpt lat="49.19453" lon="-0.0695">
        <ele>10</ele>
        <time>2024-03-03T10:45:02Z</time>
      </trkpt>
      <trkpt lat="49.1946" lon="-0.06946">
        <ele>9.8</ele>
        <time>2024-03-03T10:45:03Z</time>
      </trkpt>
      <trkpt lat="49.19467" lon="-0.06941">
        <ele>9.6</ele>
        <time>2024-03-03T10:45:04Z</time>
      </trkpt>
      <trkpt lat="49.19475" lon="-0.06935">
        <ele>9.3</ele>
        <time>2024-03-03T10:45:05Z</time>
      </trkpt>
      <trkpt lat="49.19483" lon="-0.06928">
        <ele>9.1</ele>
        <time>2024-03-03T10:45:06Z</time>
      </trkpt>
      <trkpt lat="49.19491" lon="-0.06922">
        <ele>8.8</ele>
        <time>2024-03-03T10:45:07Z</time>
      </trkpt>
      <trkpt lat="49.19499" lon="-0.06916">
        <ele>8.6</ele>
        <time>2024-03-03T10:45:08Z</time>
      </trkpt>
      <trkpt lat="49.19507" lon="-0.0691">
        <ele>8.3</ele>
        <time>2024-03-03T10:45:09Z</time>
      </trkpt>
      <trkpt lat="49.19515" lon="-0.06904">
        <ele>8.1</ele>
        <time>2024-03-03T10:45:10Z</time>
      </trkpt>
      <trkpt lat="49.19523" lon="-0.06897">
        <ele>8</ele>
        <time>2024-03-03T10:45:11Z</time>
      </trkpt>
      <trkpt lat="49.19531" lon="-0.0689">
        <ele>7.8</ele>
        <time>2024-03-03T10:45:12Z</time>
      </trkpt>
      <trkpt lat="49.19538" lon="-0.06884">
        <ele>7.7</ele>
        <time>2024-03-03T10:45:13Z</time>
      </trkpt>
      <trkpt lat="49.19546" lon="-0.06877">
        <ele>7.6</ele>
        <time>2024-03-03T10:45:14Z</time>
      </trkpt>
      <trkpt lat="49.19553" lon="-0.0687">
        <ele>7.6</ele>
        <time>2024-03-03T10:45:15Z</time>
      </trkpt>
      <trkpt lat="49.1956" lon="-0.06863">
        <ele>7.5</ele>
        <time>2024-03-03T10:45:16Z</time>
      </trkpt>
      <trkpt lat="49.19567" lon="-0.06856">
        <ele>7.5</ele>
        <time>2024-03-03T10:45:17Z</time>
      </trkpt>
      <trkpt lat="49.19573" lon="-0.06849">
        <ele>7.4</ele>
        <time>2024-03-03T10:45:18Z</time>
      </trkpt>
      <trkpt lat="49.19579" lon="-0.06843">
        <ele>7.4</ele>
        <time>2024-03-03T10:45:19Z</time>
      </trkpt>
      <trkpt lat="49.19586" lon="-0.06836">
        <ele>7.4</ele>
        <time>2024-03-03T10:45:20Z</time>
      </trkpt>
      <trkpt lat="49.19592" lon="-0.06829">
        <ele>7.4</ele>
        <time>2024-03-03T10:45:21Z</time>
      </trkpt>
      <trkpt lat="49.19599" lon="-0.06823">
        <ele>7.4</ele>
        <time>2024-03-03T10:45:22Z</time>
      </trkpt>
      <trkpt lat="49.19606" lon="-0.06816">
        <ele>7.5</ele>
        <time>2024-03-03T10:45:23Z</time>
      </trkpt>
      <trkpt lat="49.19612" lon="-0.0681">
        <ele>7.5</ele>
        <time>2024-03-03T10:45:24Z</time>
      </trkpt>
      <trkpt lat="49.19619" lon="-0.06804">
        <ele>7.6</ele>
        <time>2024-03-03T10:45:25Z</time>
      </trkpt>
      <trkpt lat="49.19626" lon="-0.06798">
        <ele>7.6</ele>
        <time>2024-03-03T10:45:26Z</time>
      </trkpt>
      <trkpt lat="49.19633" lon="-0.06793">
        <ele>7.7</ele>
        <time>2024-03-03T10:45:27Z</time>
      </trkpt>
      <trkpt lat="49.1964" lon="-0.06787">
        <ele>7.7</ele>
        <time>2024-03-03T10:45:28Z</time>
      </trkpt>
      <trkpt lat="49.19646" lon="-0.06781">
        <ele>7.7</ele>
        <time>2024-03-03T10:45:29Z</time>
      </trkpt>
      <trkpt lat="49.19653" lon="-0.06776">
        <ele>7.7</ele>
        <time>2024-03-03T10:45:30Z</time>
      </trkpt>
      <trkpt lat="49.19659" lon="-0.0677">
        <ele>7.8</ele>
        <time>2024-03-03T10:45:31Z</time>
      </trkpt>
      <trkpt lat="49.19666" lon="-0.06765">
        <ele>7.8</ele>
        <time>2024-03-03T10:45:32Z</time>
      </trkpt>
      <trkpt lat="49.19673" lon="-0.0676">
        <ele>7.8</ele>
        <time>2024-03-03T10:45:33Z</time>
      </trkpt>
      <trkpt lat="49.1968" lon="-0.06755">
        <ele>7.8</ele>
        <time>2024-03-03T10:45:34Z</time>
      </trkpt>
      <trkpt lat="49.19687" lon="-0.06751">
        <ele>7.9</ele>
        <time>2024-03-03T10:45:35Z</time>
      </trkpt>
      <trkpt lat="49.19694" lon="-0.06747">
        <ele>7.9</ele>
        <time>2024-03-03T10:45:36Z</time>
      </trkpt>
      <trkpt lat="49.197" lon="-0.06742">
        <ele>7.9</ele>
        <time>2024-03-03T10:45:37Z</time>
      </trkpt>
      <trkpt lat="49.19707" lon="-0.06738">
        <ele>7.9</ele>
        <time>2024-03-03T10:45:38Z</time>
      </trkpt>
      <trkpt lat="49.19714" lon="-0.06734">
        <ele>7.9</ele>
        <time>2024-03-03T10:45:39Z</time>
      </trkpt>
      <trkpt lat="49.19722" lon="-0.0673">
        <ele>7.9</ele>
        <time>2024-03-03T10:45:40Z</time>
      </trkpt>
      <trkpt lat="49.19729" lon="-0.06726">
        <ele>7.9</ele>
        <time>2024-03-03T10:45:41Z</time>
      </trkpt>
      <trkpt lat="49.19736" lon="-0.06722">
        <ele>7.9</ele>
        <time>2024-03-03T10:45:42Z</time>
      </trkpt>
      <trkpt lat="49.19743" lon="-0.06718">
        <ele>7.9</ele>
        <time>2024-03-03T10:45:43Z</time>
      </trkpt>
      <trkpt lat="49.19751" lon="-0.06713">
        <ele>7.8</ele>
        <time>2024-03-03T10:45:44Z</time>
      </trkpt>
      <trkpt lat="49.19758" lon="-0.06708">
        <ele>7.7</ele>
        <time>2024-03-03T10:45:45Z</time>
      </trkpt>
      <trkpt lat="49.19765" lon="-0.06702">
        <ele>7.6</ele>
        <time>2024-03-03T10:45:46Z</time>
      </trkpt>
      <trkpt lat="49.19771" lon="-0.06696">
        <ele>7.5</ele>
        <time>2024-03-03T10:45:47Z</time>
      </trkpt>
      <trkpt lat="49.19777" lon="-0.06689">
        <ele>7.5</ele>
        <time>2024-03-03T10:45:48Z</time>
      </trkpt>
      <trkpt lat="49.19783" lon="-0.06681">
        <ele>7.4</ele>
        <time>2024-03-03T10:45:49Z</time>
      </trkpt>
      <trkpt lat="49.19788" lon="-0.06674">
        <ele>7.3</ele>
        <time>2024-03-03T10:45:50Z</time>
      </trkpt>
      <trkpt lat="49.19793" lon="-0.06665">
        <ele>7.2</ele>
        <time>2024-03-03T10:45:51Z</time>
      </trkpt>
      <trkpt lat="49.19798" lon="-0.06657">
        <ele>7.1</ele>
        <time>2024-03-03T10:45:52Z</time>
      </trkpt>
      <trkpt lat="49.19802" lon="-0.06648">
        <ele>7.1</ele>
        <time>2024-03-03T10:45:53Z</time>
      </trkpt>
      <trkpt lat="49.19806" lon="-0.06639">
        <ele>7</ele>
        <time>2024-03-03T10:45:54Z</time>
      </trkpt>
      <trkpt lat="49.1981" lon="-0.06629">
        <ele>7</ele>
        <time>2024-03-03T10:45:55Z</time>
      </trkpt>
      <trkpt lat="49.19813" lon="-0.06618">
        <ele>7</ele>
        <time>2024-03-03T10:45:56Z</time>
      </trkpt>
      <trkpt lat="49.19816" lon="-0.06608">
        <ele>7</ele>
        <time>2024-03-03T10:45:57Z</time>
      </trkpt>
      <trkpt lat="49.19819" lon="-0.06598">
        <ele>7</ele>
        <time>2024-03-03T10:45:58Z</time>
      </trkpt>
      <trkpt lat="49.19821" lon="-0.06587">
        <ele>7.1</ele>
        <time>2024-03-03T10:45:59Z</time>
      </trkpt>
      <trkpt lat="49.19822" lon="-0.06577">
        <ele>7.1</ele>
        <time>2024-03-03T10:46:00Z</time>
      </trkpt>
      <trkpt lat="49.19823" lon="-0.06568">
        <ele>7.2</ele>
        <time>2024-03-03T10:46:01Z</time>
      </trkpt>
      <trkpt lat="49.19824" lon="-0.06561">
        <ele>7.2</ele>
        <time>2024-03-03T10:46:02Z</time>
      </trkpt>
      <trkpt lat="49.19825" lon="-0.06555">
        <ele>7.3</ele>
        <time>2024-03-03T10:46:03Z</time>
      </trkpt>
      <trkpt lat="49.19825" lon="-0.0655">
        <ele>7.3</ele>
        <time>2024-03-03T10:46:04Z</time>
      </trkpt>
      <trkpt lat="49.19826" lon="-0.06546">
        <ele>7.4</ele>
        <time>2024-03-03T10:46:05Z</time>
      </trkpt>
      <trkpt lat="49.19827" lon="-0.0654">
        <ele>7.4</ele>
        <time>2024-03-03T10:46:06Z</time>
      </trkpt>
      <trkpt lat="49.19827" lon="-0.06538">
        <ele>7.4</ele>
        <time>2024-03-03T10:46:07Z</time>
      </trkpt>
      <trkpt lat="49.1983" lon="-0.06535">
        <ele>7.5</ele>
        <time>2024-03-03T10:46:08Z</time>
      </trkpt>
      <trkpt lat="49.19834" lon="-0.06534">
        <ele>7.4</ele>
        <time>2024-03-03T10:46:09Z</time>
      </trkpt>
      <trkpt lat="49.19839" lon="-0.06535">
        <ele>7.3</ele>
        <time>2024-03-03T10:46:10Z</time>
      </trkpt>
      <trkpt lat="49.19844" lon="-0.06538">
        <ele>7.3</ele>
        <time>2024-03-03T10:46:11Z</time>
      </trkpt>
      <trkpt lat="49.19848" lon="-0.0654">
        <ele>7.3</ele>
        <time>2024-03-03T10:46:12Z</time>
      </trkpt>
      <trkpt lat="49.19853" lon="-0.06542">
        <ele>7.3</ele>
        <time>2024-03-03T10:46:13Z</time>
      </trkpt>
      <trkpt lat="49.19858" lon="-0.06545">
        <ele>7.2</ele>
        <time>2024-03-03T10:46:14Z</time>
      </trkpt>
      <trkpt lat="49.19863" lon="-0.06547">
        <ele>7.2</ele>
        <time>2024-03-03T10:46:15Z</time>
      </trkpt>
      <trkpt lat="49.19869" lon="-0.06549">
        <ele>7.2</ele>
        <time>2024-03-03T10:46:16Z</time>
      </trkpt>
      <trkpt lat="49.19875" lon="-0.06551">
        <ele>7.2</ele>
        <time>2024-03-03T10:46:17Z</time>
      </trkpt>
      <trkpt lat="49.19881" lon="-0.06552">
        <ele>7.2</ele>
        <time>2024-03-03T10:46:18Z</time>
      </trkpt>
      <trkpt lat="49.19888" lon="-0.06553">
        <ele>7.2</ele>
        <time>2024-03-03T10:46:19Z</time>
      </trkpt>
      <trkpt lat="49.19894" lon="-0.06553">
        <ele>7.2</ele>
        <time>2024-03-03T10:46:20Z</time>
      </trkpt>
      <trkpt lat="49.19901" lon="-0.06553">
        <ele>7.2</ele>
        <time>2024-03-03T10:46:21Z</time>
      </trkpt>
      <trkpt lat="49.19908" lon="-0.06554">
        <ele>7.2</ele>
        <time>2024-03-03T10:46:22Z</time>
      </trkpt>
      <trkpt lat="49.19915" lon="-0.06553">
        <ele>7.2</ele>
        <time>2024-03-03T10:46:23Z</time>
      </trkpt>
      <trkpt lat="49.19922" lon="-0.06553">
        <ele>7.2</ele>
        <time>2024-03-03T10:46:24Z</time>
      </trkpt>
      <trkpt lat="49.19929" lon="-0.06553">
        <ele>7.2</ele>
        <time>2024-03-03T10:46:25Z</time>
      </trkpt>
      <trkpt lat="49.19937" lon="-0.06552">
        <ele>7.2</ele>
        <time>2024-03-03T10:46:26Z</time>
      </trkpt>
      <trkpt lat="49.19944" lon="-0.06552">
        <ele>7.2</ele>
        <time>2024-03-03T10:46:27Z</time>
      </trkpt>
      <trkpt lat="49.19951" lon="-0.06551">
        <ele>7.2</ele>
        <time>2024-03-03T10:46:28Z</time>
      </trkpt>
      <trkpt lat="49.19958" lon="-0.06551">
        <ele>7.2</ele>
        <time>2024-03-03T10:46:29Z</time>
      </trkpt>
      <trkpt lat="49.19965" lon="-0.06551">
        <ele>7.2</ele>
        <time>2024-03-03T10:46:30Z</time>
      </trkpt>
      <trkpt lat="49.19972" lon="-0.0655">
        <ele>7.2</ele>
        <time>2024-03-03T10:46:31Z</time>
      </trkpt>
      <trkpt lat="49.19979" lon="-0.0655">
        <ele>7.2</ele>
        <time>2024-03-03T10:46:32Z</time>
      </trkpt>
      <trkpt lat="49.19986" lon="-0.06549">
        <ele>7.2</ele>
        <time>2024-03-03T10:46:33Z</time>
      </trkpt>
      <trkpt lat="49.19993" lon="-0.06546">
        <ele>7.2</ele>
        <time>2024-03-03T10:46:34Z</time>
      </trkpt>
      <trkpt lat="49.2" lon="-0.06543">
        <ele>7.2</ele>
        <time>2024-03-03T10:46:35Z</time>
      </trkpt>
      <trkpt lat="49.20007" lon="-0.06539">
        <ele>7.2</ele>
        <time>2024-03-03T10:46:36Z</time>
      </trkpt>
      <trkpt lat="49.20013" lon="-0.06534">
        <ele>7.3</ele>
        <time>2024-03-03T10:46:37Z</time>
      </trkpt>
      <trkpt lat="49.2002" lon="-0.0653">
        <ele>7.3</ele>
        <time>2024-03-03T10:46:38Z</time>
      </trkpt>
      <trkpt lat="49.20026" lon="-0.06524">
        <ele>7.3</ele>
        <time>2024-03-03T10:46:39Z</time>
      </trkpt>
      <trkpt lat="49.20032" lon="-0.06518">
        <ele>7.3</ele>
        <time>2024-03-03T10:46:40Z</time>
      </trkpt>
      <trkpt lat="49.20038" lon="-0.06512">
        <ele>7.3</ele>
        <time>2024-03-03T10:46:41Z</time>
      </trkpt>
      <trkpt lat="49.20043" lon="-0.06505">
        <ele>7.3</ele>
        <time>2024-03-03T10:46:42Z</time>
      </trkpt>
      <trkpt lat="49.20049" lon="-0.06498">
        <ele>7.3</ele>
        <time>2024-03-03T10:46:43Z</time>
      </trkpt>
      <trkpt lat="49.20055" lon="-0.06491">
        <ele>7.3</ele>
        <time>2024-03-03T10:46:44Z</time>
      </trkpt>
      <trkpt lat="49.20061" lon="-0.06484">
        <ele>7.3</ele>
        <time>2024-03-03T10:46:45Z</time>
      </trkpt>
      <trkpt lat="49.20066" lon="-0.06478">
        <ele>7.3</ele>
        <time>2024-03-03T10:46:46Z</time>
      </trkpt>
      <trkpt lat="49.20072" lon="-0.06473">
        <ele>7.4</ele>
        <time>2024-03-03T10:46:47Z</time>
      </trkpt>
      <trkpt lat="49.20079" lon="-0.06468">
        <ele>7.4</ele>
        <time>2024-03-03T10:46:48Z</time>
      </trkpt>
      <trkpt lat="49.20085" lon="-0.06463">
        <ele>7.4</ele>
        <time>2024-03-03T10:46:49Z</time>
      </trkpt>
      <trkpt lat="49.20091" lon="-0.06457">
        <ele>7.4</ele>
        <time>2024-03-03T10:46:50Z</time>
      </trkpt>
      <trkpt lat="49.20097" lon="-0.06451">
        <ele>7.5</ele>
        <time>2024-03-03T10:46:51Z</time>
      </trkpt>
      <trkpt lat="49.20102" lon="-0.06444">
        <ele>7.5</ele>
        <time>2024-03-03T10:46:52Z</time>
      </trkpt>
      <trkpt lat="49.20107" lon="-0.06435">
        <ele>7.6</ele>
        <time>2024-03-03T10:46:53Z</time>
      </trkpt>
      <trkpt lat="49.20111" lon="-0.06427">
        <ele>7.6</ele>
        <time>2024-03-03T10:46:54Z</time>
      </trkpt>
      <trkpt lat="49.20116" lon="-0.06417">
        <ele>7.6</ele>
        <time>2024-03-03T10:46:55Z</time>
      </trkpt>
      <trkpt lat="49.2012" lon="-0.06408">
        <ele>7.6</ele>
        <time>2024-03-03T10:46:56Z</time>
      </trkpt>
      <trkpt lat="49.20123" lon="-0.06399">
        <ele>7.6</ele>
        <time>2024-03-03T10:46:57Z</time>
      </trkpt>
      <trkpt lat="49.20127" lon="-0.0639">
        <ele>7.6</ele>
        <time>2024-03-03T10:46:58Z</time>
      </trkpt>
      <trkpt lat="49.20131" lon="-0.06381">
        <ele>7.6</ele>
        <time>2024-03-03T10:46:59Z</time>
      </trkpt>
      <trkpt lat="49.20136" lon="-0.06373">
        <ele>7.7</ele>
        <time>2024-03-03T10:47:00Z</time>
      </trkpt>
      <trkpt lat="49.20141" lon="-0.06365">
        <ele>7.7</ele>
        <time>2024-03-03T10:47:01Z</time>
      </trkpt>
      <trkpt lat="49.20146" lon="-0.06358">
        <ele>7.8</ele>
        <time>2024-03-03T10:47:02Z</time>
      </trkpt>
      <trkpt lat="49.20151" lon="-0.0635">
        <ele>7.8</ele>
        <time>2024-03-03T10:47:03Z</time>
      </trkpt>
      <trkpt lat="49.20156" lon="-0.06344">
        <ele>7.8</ele>
        <time>2024-03-03T10:47:04Z</time>
      </trkpt>
      <trkpt lat="49.20161" lon="-0.06336">
        <ele>7.8</ele>
        <time>2024-03-03T10:47:05Z</time>
      </trkpt>
      <trkpt lat="49.20166" lon="-0.06329">
        <ele>7.9</ele>
        <time>2024-03-03T10:47:06Z</time>
      </trkpt>
      <trkpt lat="49.20171" lon="-0.06322">
        <ele>7.9</ele>
        <time>2024-03-03T10:47:07Z</time>
      </trkpt>
      <trkpt lat="49.20176" lon="-0.06316">
        <ele>7.9</ele>
        <time>2024-03-03T10:47:08Z</time>
      </trkpt>
      <trkpt lat="49.20182" lon="-0.0631">
        <ele>7.9</ele>
        <time>2024-03-03T10:47:09Z</time>
      </trkpt>
      <trkpt lat="49.20189" lon="-0.06305">
        <ele>7.9</ele>
        <time>2024-03-03T10:47:10Z</time>
      </trkpt>
      <trkpt lat="49.20196" lon="-0.06303">
        <ele>7.9</ele>
        <time>2024-03-03T10:47:11Z</time>
      </trkpt>
      <trkpt lat="49.20202" lon="-0.06302">
        <ele>7.9</ele>
        <time>2024-03-03T10:47:12Z</time>
      </trkpt>
      <trkpt lat="49.20209" lon="-0.06303">
        <ele>8</ele>
        <time>2024-03-03T10:47:13Z</time>
      </trkpt>
      <trkpt lat="49.20216" lon="-0.06306">
        <ele>8</ele>
        <time>2024-03-03T10:47:14Z</time>
      </trkpt>
      <trkpt lat="49.20223" lon="-0.06309">
        <ele>8</ele>
        <time>2024-03-03T10:47:15Z</time>
      </trkpt>
      <trkpt lat="49.2023" lon="-0.06314">
        <ele>8</ele>
        <time>2024-03-03T10:47:16Z</time>
      </trkpt>
      <trkpt lat="49.20237" lon="-0.06318">
        <ele>8.1</ele>
        <time>2024-03-03T10:47:17Z</time>
      </trkpt>
      <trkpt lat="49.20243" lon="-0.06321">
        <ele>8.1</ele>
        <time>2024-03-03T10:47:18Z</time>
      </trkpt>
      <trkpt lat="49.2025" lon="-0.06325">
        <ele>8.2</ele>
        <time>2024-03-03T10:47:19Z</time>
      </trkpt>
      <trkpt lat="49.20257" lon="-0.06328">
        <ele>8.2</ele>
        <time>2024-03-03T10:47:20Z</time>
      </trkpt>
      <trkpt lat="49.20264" lon="-0.06331">
        <ele>8.3</ele>
        <time>2024-03-03T10:47:21Z</time>
      </trkpt>
      <trkpt lat="49.20271" lon="-0.06335">
        <ele>8.3</ele>
        <time>2024-03-03T10:47:22Z</time>
      </trkpt>
      <trkpt lat="49.20278" lon="-0.06338">
        <ele>8.4</ele>
        <time>2024-03-03T10:47:23Z</time>
      </trkpt>
      <trkpt lat="49.20285" lon="-0.06341">
        <ele>8.4</ele>
        <time>2024-03-03T10:47:24Z</time>
      </trkpt>
      <trkpt lat="49.20291" lon="-0.06344">
        <ele>8.5</ele>
        <time>2024-03-03T10:47:25Z</time>
      </trkpt>
      <trkpt lat="49.20298" lon="-0.06348">
        <ele>8.5</ele>
        <time>2024-03-03T10:47:26Z</time>
      </trkpt>
      <trkpt lat="49.20305" lon="-0.06351">
        <ele>8.5</ele>
        <time>2024-03-03T10:47:27Z</time>
      </trkpt>
      <trkpt lat="49.20312" lon="-0.06354">
        <ele>8.5</ele>
        <time>2024-03-03T10:47:28Z</time>
      </trkpt>
      <trkpt lat="49.20319" lon="-0.06357">
        <ele>8.6</ele>
        <time>2024-03-03T10:47:29Z</time>
      </trkpt>
      <trkpt lat="49.20325" lon="-0.0636">
        <ele>8.6</ele>
        <time>2024-03-03T10:47:30Z</time>
      </trkpt>
      <trkpt lat="49.20332" lon="-0.06363">
        <ele>8.6</ele>
        <time>2024-03-03T10:47:31Z</time>
      </trkpt>
      <trkpt lat="49.20339" lon="-0.06366">
        <ele>8.6</ele>
        <time>2024-03-03T10:47:32Z</time>
      </trkpt>
      <trkpt lat="49.20345" lon="-0.06369">
        <ele>8.6</ele>
        <time>2024-03-03T10:47:33Z</time>
      </trkpt>
      <trkpt lat="49.20352" lon="-0.06373">
        <ele>8.6</ele>
        <time>2024-03-03T10:47:34Z</time>
      </trkpt>
      <trkpt lat="49.20359" lon="-0.06377">
        <ele>8.7</ele>
        <time>2024-03-03T10:47:35Z</time>
      </trkpt>
      <trkpt lat="49.20366" lon="-0.0638">
        <ele>8.7</ele>
        <time>2024-03-03T10:47:36Z</time>
      </trkpt>
      <trkpt lat="49.20373" lon="-0.06384">
        <ele>8.8</ele>
        <time>2024-03-03T10:47:37Z</time>
      </trkpt>
      <trkpt lat="49.20379" lon="-0.06388">
        <ele>8.8</ele>
        <time>2024-03-03T10:47:38Z</time>
      </trkpt>
      <trkpt lat="49.20386" lon="-0.06392">
        <ele>8.8</ele>
        <time>2024-03-03T10:47:39Z</time>
      </trkpt>
      <trkpt lat="49.20393" lon="-0.06396">
        <ele>8.9</ele>
        <time>2024-03-03T10:47:40Z</time>
      </trkpt>
      <trkpt lat="49.20399" lon="-0.064">
        <ele>8.9</ele>
        <time>2024-03-03T10:47:41Z</time>
      </trkpt>
      <trkpt lat="49.20406" lon="-0.06403">
        <ele>8.9</ele>
        <time>2024-03-03T10:47:42Z</time>
      </trkpt>
      <trkpt lat="49.20412" lon="-0.06406">
        <ele>8.9</ele>
        <time>2024-03-03T10:47:43Z</time>
      </trkpt>
      <trkpt lat="49.20419" lon="-0.06409">
        <ele>8.9</ele>
        <time>2024-03-03T10:47:44Z</time>
      </trkpt>
      <trkpt lat="49.20426" lon="-0.06413">
        <ele>8.9</ele>
        <time>2024-03-03T10:47:45Z</time>
      </trkpt>
      <trkpt lat="49.20433" lon="-0.06416">
        <ele>8.9</ele>
        <time>2024-03-03T10:47:46Z</time>
      </trkpt>
      <trkpt lat="49.2044" lon="-0.0642">
        <ele>8.9</ele>
        <time>2024-03-03T10:47:47Z</time>
      </trkpt>
      <trkpt lat="49.20447" lon="-0.06424">
        <ele>8.8</ele>
        <time>2024-03-03T10:47:48Z</time>
      </trkpt>
      <trkpt lat="49.20454" lon="-0.06427">
        <ele>8.8</ele>
        <time>2024-03-03T10:47:49Z</time>
      </trkpt>
      <trkpt lat="49.20461" lon="-0.06432">
        <ele>8.8</ele>
        <time>2024-03-03T10:47:50Z</time>
      </trkpt>
      <trkpt lat="49.20467" lon="-0.06437">
        <ele>8.8</ele>
        <time>2024-03-03T10:47:51Z</time>
      </trkpt>
      <trkpt lat="49.20473" lon="-0.06443">
        <ele>8.9</ele>
        <time>2024-03-03T10:47:52Z</time>
      </trkpt>
      <trkpt lat="49.20479" lon="-0.0645">
        <ele>8.9</ele>
        <time>2024-03-03T10:47:53Z</time>
      </trkpt>
      <trkpt lat="49.20485" lon="-0.06457">
        <ele>8.9</ele>
        <time>2024-03-03T10:47:54Z</time>
      </trkpt>
      <trkpt lat="49.2049" lon="-0.06464">
        <ele>8.9</ele>
        <time>2024-03-03T10:47:55Z</time>
      </trkpt>
      <trkpt lat="49.20496" lon="-0.06472">
        <ele>8.9</ele>
        <time>2024-03-03T10:47:56Z</time>
      </trkpt>
      <trkpt lat="49.20501" lon="-0.06479">
        <ele>8.9</ele>
        <time>2024-03-03T10:47:57Z</time>
      </trkpt>
      <trkpt lat="49.20507" lon="-0.06486">
        <ele>8.9</ele>
        <time>2024-03-03T10:47:58Z</time>
      </trkpt>
      <trkpt lat="49.20513" lon="-0.06493">
        <ele>8.9</ele>
        <time>2024-03-03T10:47:59Z</time>
      </trkpt>
      <trkpt lat="49.20519" lon="-0.065">
        <ele>9</ele>
        <time>2024-03-03T10:48:00Z</time>
      </trkpt>
      <trkpt lat="49.20525" lon="-0.06505">
        <ele>9</ele>
        <time>2024-03-03T10:48:01Z</time>
      </trkpt>
      <trkpt lat="49.20531" lon="-0.06511">
        <ele>9</ele>
        <time>2024-03-03T10:48:02Z</time>
      </trkpt>
      <trkpt lat="49.20537" lon="-0.06517">
        <ele>9</ele>
        <time>2024-03-03T10:48:03Z</time>
      </trkpt>
      <trkpt lat="49.20543" lon="-0.06522">
        <ele>9</ele>
        <time>2024-03-03T10:48:04Z</time>
      </trkpt>
      <trkpt lat="49.20549" lon="-0.06527">
        <ele>9</ele>
        <time>2024-03-03T10:48:05Z</time>
      </trkpt>
      <trkpt lat="49.20555" lon="-0.06533">
        <ele>9</ele>
        <time>2024-03-03T10:48:06Z</time>
      </trkpt>
      <trkpt lat="49.20561" lon="-0.06538">
        <ele>9</ele>
        <time>2024-03-03T10:48:07Z</time>
      </trkpt>
      <trkpt lat="49.20568" lon="-0.06545">
        <ele>9.1</ele>
        <time>2024-03-03T10:48:08Z</time>
      </trkpt>
      <trkpt lat="49.20573" lon="-0.06552">
        <ele>9.1</ele>
        <time>2024-03-03T10:48:09Z</time>
      </trkpt>
      <trkpt lat="49.20579" lon="-0.0656">
        <ele>9.1</ele>
        <time>2024-03-03T10:48:10Z</time>
      </trkpt>
      <trkpt lat="49.20584" lon="-0.06568">
        <ele>9.1</ele>
        <time>2024-03-03T10:48:11Z</time>
      </trkpt>
      <trkpt lat="49.2059" lon="-0.06576">
        <ele>9.2</ele>
        <time>2024-03-03T10:48:12Z</time>
      </trkpt>
      <trkpt lat="49.20595" lon="-0.06584">
        <ele>9.2</ele>
        <time>2024-03-03T10:48:13Z</time>
      </trkpt>
      <trkpt lat="49.206" lon="-0.06592">
        <ele>9.2</ele>
        <time>2024-03-03T10:48:14Z</time>
      </trkpt>
      <trkpt lat="49.20605" lon="-0.066">
        <ele>9.2</ele>
        <time>2024-03-03T10:48:15Z</time>
      </trkpt>
      <trkpt lat="49.2061" lon="-0.06608">
        <ele>9.2</ele>
        <time>2024-03-03T10:48:16Z</time>
      </trkpt>
      <trkpt lat="49.20615" lon="-0.06616">
        <ele>9.2</ele>
        <time>2024-03-03T10:48:17Z</time>
      </trkpt>
      <trkpt lat="49.20621" lon="-0.06625">
        <ele>9.1</ele>
        <time>2024-03-03T10:48:18Z</time>
      </trkpt>
      <trkpt lat="49.20626" lon="-0.06633">
        <ele>9.1</ele>
        <time>2024-03-03T10:48:19Z</time>
      </trkpt>
      <trkpt lat="49.20632" lon="-0.0664">
        <ele>9.1</ele>
        <time>2024-03-03T10:48:20Z</time>
      </trkpt>
      <trkpt lat="49.20638" lon="-0.06648">
        <ele>9.1</ele>
        <time>2024-03-03T10:48:21Z</time>
      </trkpt>
      <trkpt lat="49.20643" lon="-0.06656">
        <ele>9.1</ele>
        <time>2024-03-03T10:48:22Z</time>
      </trkpt>
      <trkpt lat="49.20649" lon="-0.06663">
        <ele>9</ele>
        <time>2024-03-03T10:48:23Z</time>
      </trkpt>
      <trkpt lat="49.20655" lon="-0.0667">
        <ele>9</ele>
        <time>2024-03-03T10:48:24Z</time>
      </trkpt>
      <trkpt lat="49.2066" lon="-0.06678">
        <ele>9</ele>
        <time>2024-03-03T10:48:25Z</time>
      </trkpt>
      <trkpt lat="49.20666" lon="-0.06684">
        <ele>9</ele>
        <time>2024-03-03T10:48:26Z</time>
      </trkpt>
      <trkpt lat="49.20672" lon="-0.06691">
        <ele>9</ele>
        <time>2024-03-03T10:48:27Z</time>
      </trkpt>
      <trkpt lat="49.20678" lon="-0.06698">
        <ele>9</ele>
        <time>2024-03-03T10:48:28Z</time>
      </trkpt>
      <trkpt lat="49.20684" lon="-0.06704">
        <ele>9</ele>
        <time>2024-03-03T10:48:29Z</time>
      </trkpt>
      <trkpt lat="49.2069" lon="-0.06711">
        <ele>9</ele>
        <time>2024-03-03T10:48:30Z</time>
      </trkpt>
      <trkpt lat="49.20696" lon="-0.06717">
        <ele>9</ele>
        <time>2024-03-03T10:48:31Z</time>
      </trkpt>
      <trkpt lat="49.20702" lon="-0.06724">
        <ele>8.9</ele>
        <time>2024-03-03T10:48:32Z</time>
      </trkpt>
      <trkpt lat="49.20708" lon="-0.06731">
        <ele>8.9</ele>
        <time>2024-03-03T10:48:33Z</time>
      </trkpt>
      <trkpt lat="49.20714" lon="-0.06738">
        <ele>8.9</ele>
        <time>2024-03-03T10:48:34Z</time>
      </trkpt>
      <trkpt lat="49.2072" lon="-0.06744">
        <ele>8.9</ele>
        <time>2024-03-03T10:48:35Z</time>
      </trkpt>
      <trkpt lat="49.20726" lon="-0.06751">
        <ele>8.8</ele>
        <time>2024-03-03T10:48:36Z</time>
      </trkpt>
      <trkpt lat="49.20732" lon="-0.06758">
        <ele>8.8</ele>
        <time>2024-03-03T10:48:37Z</time>
      </trkpt>
      <trkpt lat="49.20738" lon="-0.06764">
        <ele>8.8</ele>
        <time>2024-03-03T10:48:38Z</time>
      </trkpt>
      <trkpt lat="49.20745" lon="-0.06771">
        <ele>8.7</ele>
        <time>2024-03-03T10:48:39Z</time>
      </trkpt>
      <trkpt lat="49.20751" lon="-0.06778">
        <ele>8.7</ele>
        <time>2024-03-03T10:48:40Z</time>
      </trkpt>
      <trkpt lat="49.20757" lon="-0.06784">
        <ele>8.7</ele>
        <time>2024-03-03T10:48:41Z</time>
      </trkpt>
      <trkpt lat="49.20763" lon="-0.06791">
        <ele>8.6</ele>
        <time>2024-03-03T10:48:42Z</time>
      </trkpt>
      <trkpt lat="49.2077" lon="-0.06798">
        <ele>8.6</ele>
        <time>2024-03-03T10:48:43Z</time>
      </trkpt>
      <trkpt lat="49.20777" lon="-0.06805">
        <ele>8.6</ele>
        <time>2024-03-03T10:48:44Z</time>
      </trkpt>
      <trkpt lat="49.20783" lon="-0.06811">
        <ele>8.5</ele>
        <time>2024-03-03T10:48:45Z</time>
      </trkpt>
      <trkpt lat="49.20791" lon="-0.06816">
        <ele>8.5</ele>
        <time>2024-03-03T10:48:46Z</time>
      </trkpt>
      <trkpt lat="49.20798" lon="-0.06821">
        <ele>8.5</ele>
        <time>2024-03-03T10:48:47Z</time>
      </trkpt>
      <trkpt lat="49.20805" lon="-0.06825">
        <ele>8.5</ele>
        <time>2024-03-03T10:48:48Z</time>
      </trkpt>
      <trkpt lat="49.20812" lon="-0.06828">
        <ele>8.4</ele>
        <time>2024-03-03T10:48:49Z</time>
      </trkpt>
      <trkpt lat="49.2082" lon="-0.06831">
        <ele>8.4</ele>
        <time>2024-03-03T10:48:50Z</time>
      </trkpt>
      <trkpt lat="49.20827" lon="-0.06833">
        <ele>8.3</ele>
        <time>2024-03-03T10:48:51Z</time>
      </trkpt>
      <trkpt lat="49.20835" lon="-0.06835">
        <ele>8.3</ele>
        <time>2024-03-03T10:48:52Z</time>
      </trkpt>
      <trkpt lat="49.20843" lon="-0.06836">
        <ele>8.3</ele>
        <time>2024-03-03T10:48:53Z</time>
      </trkpt>
      <trkpt lat="49.2085" lon="-0.06838">
        <ele>8.3</ele>
        <time>2024-03-03T10:48:54Z</time>
      </trkpt>
      <trkpt lat="49.20858" lon="-0.06839">
        <ele>8.2</ele>
        <time>2024-03-03T10:48:55Z</time>
      </trkpt>
      <trkpt lat="49.20866" lon="-0.0684">
        <ele>8.2</ele>
        <time>2024-03-03T10:48:56Z</time>
      </trkpt>
      <trkpt lat="49.20873" lon="-0.06841">
        <ele>8.2</ele>
        <time>2024-03-03T10:48:57Z</time>
      </trkpt>
      <trkpt lat="49.20881" lon="-0.06844">
        <ele>8.2</ele>
        <time>2024-03-03T10:48:58Z</time>
      </trkpt>
      <trkpt lat="49.20888" lon="-0.06847">
        <ele>8.2</ele>
        <time>2024-03-03T10:48:59Z</time>
      </trkpt>
      <trkpt lat="49.20895" lon="-0.06851">
        <ele>8.2</ele>
        <time>2024-03-03T10:49:00Z</time>
      </trkpt>
      <trkpt lat="49.20903" lon="-0.06855">
        <ele>8.2</ele>
        <time>2024-03-03T10:49:01Z</time>
      </trkpt>
      <trkpt lat="49.2091" lon="-0.06858">
        <ele>8.3</ele>
        <time>2024-03-03T10:49:02Z</time>
      </trkpt>
      <trkpt lat="49.20917" lon="-0.0686">
        <ele>8.3</ele>
        <time>2024-03-03T10:49:03Z</time>
      </trkpt>
      <trkpt lat="49.20925" lon="-0.06861">
        <ele>8.3</ele>
        <time>2024-03-03T10:49:04Z</time>
      </trkpt>
      <trkpt lat="49.20932" lon="-0.06862">
        <ele>8.3</ele>
        <time>2024-03-03T10:49:05Z</time>
      </trkpt>
      <trkpt lat="49.20939" lon="-0.06862">
        <ele>8.3</ele>
        <time>2024-03-03T10:49:06Z</time>
      </trkpt>
      <trkpt lat="49.20946" lon="-0.06861">
        <ele>8.3</ele>
        <time>2024-03-03T10:49:07Z</time>
      </trkpt>
      <trkpt lat="49.20954" lon="-0.06861">
        <ele>8.3</ele>
        <time>2024-03-03T10:49:08Z</time>
      </trkpt>
      <trkpt lat="49.20961" lon="-0.06861">
        <ele>8.3</ele>
        <time>2024-03-03T10:49:09Z</time>
      </trkpt>
      <trkpt lat="49.20969" lon="-0.06861">
        <ele>8.3</ele>
        <time>2024-03-03T10:49:10Z</time>
      </trkpt>
      <trkpt lat="49.20976" lon="-0.0686">
        <ele>8.3</ele>
        <time>2024-03-03T10:49:11Z</time>
      </trkpt>
      <trkpt lat="49.20984" lon="-0.06859">
        <ele>8.4</ele>
        <time>2024-03-03T10:49:12Z</time>
      </trkpt>
      <trkpt lat="49.20992" lon="-0.06859">
        <ele>8.4</ele>
        <time>2024-03-03T10:49:13Z</time>
      </trkpt>
      <trkpt lat="49.20999" lon="-0.06858">
        <ele>8.5</ele>
        <time>2024-03-03T10:49:14Z</time>
      </trkpt>
      <trkpt lat="49.21006" lon="-0.06858">
        <ele>8.5</ele>
        <time>2024-03-03T10:49:15Z</time>
      </trkpt>
      <trkpt lat="49.21014" lon="-0.06857">
        <ele>8.5</ele>
        <time>2024-03-03T10:49:16Z</time>
      </trkpt>
      <trkpt lat="49.21021" lon="-0.06855">
        <ele>8.5</ele>
        <time>2024-03-03T10:49:17Z</time>
      </trkpt>
      <trkpt lat="49.21029" lon="-0.06854">
        <ele>8.6</ele>
        <time>2024-03-03T10:49:18Z</time>
      </trkpt>
      <trkpt lat="49.21036" lon="-0.06853">
        <ele>8.6</ele>
        <time>2024-03-03T10:49:19Z</time>
      </trkpt>
      <trkpt lat="49.21043" lon="-0.06852">
        <ele>8.6</ele>
        <time>2024-03-03T10:49:20Z</time>
      </trkpt>
      <trkpt lat="49.21051" lon="-0.06852">
        <ele>8.6</ele>
        <time>2024-03-03T10:49:21Z</time>
      </trkpt>
      <trkpt lat="49.21058" lon="-0.06851">
        <ele>8.7</ele>
        <time>2024-03-03T10:49:22Z</time>
      </trkpt>
      <trkpt lat="49.21066" lon="-0.06851">
        <ele>8.7</ele>
        <time>2024-03-03T10:49:23Z</time>
      </trkpt>
      <trkpt lat="49.21073" lon="-0.06851">
        <ele>8.7</ele>
        <time>2024-03-03T10:49:24Z</time>
      </trkpt>
      <trkpt lat="49.2108" lon="-0.06852">
        <ele>8.8</ele>
        <time>2024-03-03T10:49:25Z</time>
      </trkpt>
      <trkpt lat="49.21088" lon="-0.06853">
        <ele>8.8</ele>
        <time>2024-03-03T10:49:26Z</time>
      </trkpt>
      <trkpt lat="49.21095" lon="-0.06854">
        <ele>8.8</ele>
        <time>2024-03-03T10:49:27Z</time>
      </trkpt>
      <trkpt lat="49.21102" lon="-0.06856">
        <ele>8.8</ele>
        <time>2024-03-03T10:49:28Z</time>
      </trkpt>
      <trkpt lat="49.2111" lon="-0.06857">
        <ele>8.9</ele>
        <time>2024-03-03T10:49:29Z</time>
      </trkpt>
      <trkpt lat="49.21117" lon="-0.06858">
        <ele>8.9</ele>
        <time>2024-03-03T10:49:30Z</time>
      </trkpt>
      <trkpt lat="49.21124" lon="-0.0686">
        <ele>8.9</ele>
        <time>2024-03-03T10:49:31Z</time>
      </trkpt>
      <trkpt lat="49.21131" lon="-0.06861">
        <ele>8.9</ele>
        <time>2024-03-03T10:49:32Z</time>
      </trkpt>
      <trkpt lat="49.21138" lon="-0.06863">
        <ele>8.9</ele>
        <time>2024-03-03T10:49:33Z</time>
      </trkpt>
      <trkpt lat="49.21145" lon="-0.06864">
        <ele>8.9</ele>
        <time>2024-03-03T10:49:34Z</time>
      </trkpt>
      <trkpt lat="49.21152" lon="-0.06865">
        <ele>8.9</ele>
        <time>2024-03-03T10:49:35Z</time>
      </trkpt>
      <trkpt lat="49.2116" lon="-0.06867">
        <ele>9</ele>
        <time>2024-03-03T10:49:36Z</time>
      </trkpt>
      <trkpt lat="49.21167" lon="-0.06868">
        <ele>9.1</ele>
        <time>2024-03-03T10:49:37Z</time>
      </trkpt>
      <trkpt lat="49.21175" lon="-0.06869">
        <ele>9.2</ele>
        <time>2024-03-03T10:49:38Z</time>
      </trkpt>
      <trkpt lat="49.21182" lon="-0.0687">
        <ele>9.3</ele>
        <time>2024-03-03T10:49:39Z</time>
      </trkpt>
      <trkpt lat="49.21189" lon="-0.0687">
        <ele>9.4</ele>
        <time>2024-03-03T10:49:40Z</time>
      </trkpt>
      <trkpt lat="49.21196" lon="-0.06871">
        <ele>9.5</ele>
        <time>2024-03-03T10:49:41Z</time>
      </trkpt>
      <trkpt lat="49.21203" lon="-0.06872">
        <ele>9.6</ele>
        <time>2024-03-03T10:49:42Z</time>
      </trkpt>
      <trkpt lat="49.2121" lon="-0.06873">
        <ele>9.7</ele>
        <time>2024-03-03T10:49:43Z</time>
      </trkpt>
      <trkpt lat="49.21217" lon="-0.06874">
        <ele>9.8</ele>
        <time>2024-03-03T10:49:44Z</time>
      </trkpt>
      <trkpt lat="49.21224" lon="-0.06875">
        <ele>10</ele>
        <time>2024-03-03T10:49:45Z</time>
      </trkpt>
      <trkpt lat="49.21231" lon="-0.06876">
        <ele>10.1</ele>
        <time>2024-03-03T10:49:46Z</time>
      </trkpt>
      <trkpt lat="49.21238" lon="-0.06877">
        <ele>10.3</ele>
        <time>2024-03-03T10:49:47Z</time>
      </trkpt>
      <trkpt lat="49.21245" lon="-0.06878">
        <ele>10.5</ele>
        <time>2024-03-03T10:49:48Z</time>
      </trkpt>
      <trkpt lat="49.21252" lon="-0.06879">
        <ele>10.6</ele>
        <time>2024-03-03T10:49:49Z</time>
      </trkpt>
      <trkpt lat="49.21259" lon="-0.0688">
        <ele>10.8</ele>
        <time>2024-03-03T10:49:50Z</time>
      </trkpt>
      <trkpt lat="49.21265" lon="-0.06881">
        <ele>11</ele>
        <time>2024-03-03T10:49:51Z</time>
      </trkpt>
      <trkpt lat="49.21272" lon="-0.06881">
        <ele>11.2</ele>
        <time>2024-03-03T10:49:52Z</time>
      </trkpt>
      <trkpt lat="49.21279" lon="-0.06882">
        <ele>11.5</ele>
        <time>2024-03-03T10:49:53Z</time>
      </trkpt>
      <trkpt lat="49.21286" lon="-0.06882">
        <ele>11.7</ele>
        <time>2024-03-03T10:49:54Z</time>
      </trkpt>
      <trkpt lat="49.21292" lon="-0.06883">
        <ele>11.9</ele>
        <time>2024-03-03T10:49:55Z</time>
      </trkpt>
      <trkpt lat="49.21299" lon="-0.06884">
        <ele>12.1</ele>
        <time>2024-03-03T10:49:56Z</time>
      </trkpt>
      <trkpt lat="49.21306" lon="-0.06885">
        <ele>12.3</ele>
        <time>2024-03-03T10:49:57Z</time>
      </trkpt>
      <trkpt lat="49.21313" lon="-0.06886">
        <ele>12.5</ele>
        <time>2024-03-03T10:49:58Z</time>
      </trkpt>
      <trkpt lat="49.2132" lon="-0.06887">
        <ele>12.8</ele>
        <time>2024-03-03T10:49:59Z</time>
      </trkpt>
      <trkpt lat="49.21326" lon="-0.06888">
        <ele>13</ele>
        <time>2024-03-03T10:50:00Z</time>
      </trkpt>
      <trkpt lat="49.21333" lon="-0.06889">
        <ele>13.3</ele>
        <time>2024-03-03T10:50:01Z</time>
      </trkpt>
      <trkpt lat="49.21339" lon="-0.0689">
        <ele>13.5</ele>
        <time>2024-03-03T10:50:02Z</time>
      </trkpt>
      <trkpt lat="49.21345" lon="-0.06891">
        <ele>13.7</ele>
        <time>2024-03-03T10:50:03Z</time>
      </trkpt>
      <trkpt lat="49.21351" lon="-0.06892">
        <ele>13.9</ele>
        <time>2024-03-03T10:50:04Z</time>
      </trkpt>
      <trkpt lat="49.21357" lon="-0.06894">
        <ele>14</ele>
        <time>2024-03-03T10:50:05Z</time>
      </trkpt>
      <trkpt lat="49.21363" lon="-0.06895">
        <ele>14.2</ele>
        <time>2024-03-03T10:50:06Z</time>
      </trkpt>
      <trkpt lat="49.21369" lon="-0.06896">
        <ele>14.3</ele>
        <time>2024-03-03T10:50:07Z</time>
      </trkpt>
      <trkpt lat="49.21376" lon="-0.06897">
        <ele>14.4</ele>
        <time>2024-03-03T10:50:08Z</time>
      </trkpt>
      <trkpt lat="49.21382" lon="-0.06897">
        <ele>14.4</ele>
        <time>2024-03-03T10:50:09Z</time>
      </trkpt>
      <trkpt lat="49.21389" lon="-0.06897">
        <ele>14.4</ele>
        <time>2024-03-03T10:50:10Z</time>
      </trkpt>
      <trkpt lat="49.21395" lon="-0.06897">
        <ele>14.4</ele>
        <time>2024-03-03T10:50:11Z</time>
      </trkpt>
      <trkpt lat="49.21401" lon="-0.06896">
        <ele>14.4</ele>
        <time>2024-03-03T10:50:12Z</time>
      </trkpt>
      <trkpt lat="49.21408" lon="-0.06894">
        <ele>14.3</ele>
        <time>2024-03-03T10:50:13Z</time>
      </trkpt>
      <trkpt lat="49.21415" lon="-0.06893">
        <ele>14.2</ele>
        <time>2024-03-03T10:50:14Z</time>
      </trkpt>
      <trkpt lat="49.21422" lon="-0.06892">
        <ele>14.1</ele>
        <time>2024-03-03T10:50:15Z</time>
      </trkpt>
      <trkpt lat="49.2143" lon="-0.0689">
        <ele>14</ele>
        <time>2024-03-03T10:50:16Z</time>
      </trkpt>
      <trkpt lat="49.21437" lon="-0.06889">
        <ele>14</ele>
        <time>2024-03-03T10:50:17Z</time>
      </trkpt>
      <trkpt lat="49.21444" lon="-0.06887">
        <ele>13.9</ele>
        <time>2024-03-03T10:50:18Z</time>
      </trkpt>
      <trkpt lat="49.21451" lon="-0.06886">
        <ele>13.9</ele>
        <time>2024-03-03T10:50:19Z</time>
      </trkpt>
      <trkpt lat="49.21457" lon="-0.06885">
        <ele>13.9</ele>
        <time>2024-03-03T10:50:20Z</time>
      </trkpt>
      <trkpt lat="49.21464" lon="-0.06885">
        <ele>13.8</ele>
        <time>2024-03-03T10:50:21Z</time>
      </trkpt>
      <trkpt lat="49.21471" lon="-0.06884">
        <ele>13.8</ele>
        <time>2024-03-03T10:50:22Z</time>
      </trkpt>
      <trkpt lat="49.21478" lon="-0.06884">
        <ele>13.8</ele>
        <time>2024-03-03T10:50:23Z</time>
      </trkpt>
      <trkpt lat="49.21484" lon="-0.06882">
        <ele>13.9</ele>
        <time>2024-03-03T10:50:24Z</time>
      </trkpt>
      <trkpt lat="49.21491" lon="-0.06881">
        <ele>13.9</ele>
        <time>2024-03-03T10:50:25Z</time>
      </trkpt>
      <trkpt lat="49.21499" lon="-0.06881">
        <ele>14.1</ele>
        <time>2024-03-03T10:50:26Z</time>
      </trkpt>
      <trkpt lat="49.21505" lon="-0.0688">
        <ele>14.2</ele>
        <time>2024-03-03T10:50:27Z</time>
      </trkpt>
      <trkpt lat="49.21512" lon="-0.06879">
        <ele>14.3</ele>
        <time>2024-03-03T10:50:28Z</time>
      </trkpt>
      <trkpt lat="49.21519" lon="-0.06879">
        <ele>14.5</ele>
        <time>2024-03-03T10:50:29Z</time>
      </trkpt>
      <trkpt lat="49.21525" lon="-0.06879">
        <ele>14.7</ele>
        <time>2024-03-03T10:50:30Z</time>
      </trkpt>
      <trkpt lat="49.21531" lon="-0.06878">
        <ele>14.9</ele>
        <time>2024-03-03T10:50:31Z</time>
      </trkpt>
      <trkpt lat="49.21538" lon="-0.06877">
        <ele>15.2</ele>
        <time>2024-03-03T10:50:32Z</time>
      </trkpt>
      <trkpt lat="49.21545" lon="-0.06877">
        <ele>15.4</ele>
        <time>2024-03-03T10:50:33Z</time>
      </trkpt>
      <trkpt lat="49.21551" lon="-0.06876">
        <ele>15.7</ele>
        <time>2024-03-03T10:50:34Z</time>
      </trkpt>
      <trkpt lat="49.21557" lon="-0.06876">
        <ele>16</ele>
        <time>2024-03-03T10:50:35Z</time>
      </trkpt>
      <trkpt lat="49.21563" lon="-0.06875">
        <ele>16.3</ele>
        <time>2024-03-03T10:50:36Z</time>
      </trkpt>
      <trkpt lat="49.21569" lon="-0.06875">
        <ele>16.5</ele>
        <time>2024-03-03T10:50:37Z</time>
      </trkpt>
      <trkpt lat="49.21574" lon="-0.06874">
        <ele>16.9</ele>
        <time>2024-03-03T10:50:38Z</time>
      </trkpt>
      <trkpt lat="49.2158" lon="-0.06873">
        <ele>17.2</ele>
        <time>2024-03-03T10:50:39Z</time>
      </trkpt>
      <trkpt lat="49.21585" lon="-0.06873">
        <ele>17.5</ele>
        <time>2024-03-03T10:50:40Z</time>
      </trkpt>
      <trkpt lat="49.21591" lon="-0.06872">
        <ele>17.8</ele>
        <time>2024-03-03T10:50:41Z</time>
      </trkpt>
      <trkpt lat="49.21596" lon="-0.06872">
        <ele>18.1</ele>
        <time>2024-03-03T10:50:42Z</time>
      </trkpt>
      <trkpt lat="49.216" lon="-0.06871">
        <ele>18.3</ele>
        <time>2024-03-03T10:50:43Z</time>
      </trkpt>
      <trkpt lat="49.21605" lon="-0.0687">
        <ele>18.6</ele>
        <time>2024-03-03T10:50:44Z</time>
      </trkpt>
      <trkpt lat="49.2161" lon="-0.06869">
        <ele>19</ele>
        <time>2024-03-03T10:50:45Z</time>
      </trkpt>
      <trkpt lat="49.21614" lon="-0.06867">
        <ele>19.3</ele>
        <time>2024-03-03T10:50:46Z</time>
      </trkpt>
      <trkpt lat="49.21619" lon="-0.06866">
        <ele>19.6</ele>
        <time>2024-03-03T10:50:47Z</time>
      </trkpt>
      <trkpt lat="49.21623" lon="-0.06864">
        <ele>20</ele>
        <time>2024-03-03T10:50:48Z</time>
      </trkpt>
      <trkpt lat="49.21628" lon="-0.06862">
        <ele>20.3</ele>
        <time>2024-03-03T10:50:49Z</time>
      </trkpt>
      <trkpt lat="49.21632" lon="-0.06859">
        <ele>20.7</ele>
        <time>2024-03-03T10:50:50Z</time>
      </trkpt>
      <trkpt lat="49.21636" lon="-0.06855">
        <ele>21.1</ele>
        <time>2024-03-03T10:50:51Z</time>
      </trkpt>
      <trkpt lat="49.21639" lon="-0.06851">
        <ele>21.4</ele>
        <time>2024-03-03T10:50:52Z</time>
      </trkpt>
      <trkpt lat="49.21643" lon="-0.06848">
        <ele>21.8</ele>
        <time>2024-03-03T10:50:53Z</time>
      </trkpt>
      <trkpt lat="49.21646" lon="-0.06844">
        <ele>22.1</ele>
        <time>2024-03-03T10:50:54Z</time>
      </trkpt>
      <trkpt lat="49.21649" lon="-0.0684">
        <ele>22.4</ele>
        <time>2024-03-03T10:50:55Z</time>
      </trkpt>
      <trkpt lat="49.21651" lon="-0.06835">
        <ele>22.7</ele>
        <time>2024-03-03T10:50:56Z</time>
      </trkpt>
      <trkpt lat="49.21654" lon="-0.0683">
        <ele>23.1</ele>
        <time>2024-03-03T10:50:57Z</time>
      </trkpt>
      <trkpt lat="49.21656" lon="-0.06825">
        <ele>23.5</ele>
        <time>2024-03-03T10:50:58Z</time>
      </trkpt>
      <trkpt lat="49.21659" lon="-0.06819">
        <ele>23.9</ele>
        <time>2024-03-03T10:50:59Z</time>
      </trkpt>
      <trkpt lat="49.21661" lon="-0.06813">
        <ele>24.2</ele>
        <time>2024-03-03T10:51:00Z</time>
      </trkpt>
      <trkpt lat="49.21663" lon="-0.06807">
        <ele>24.6</ele>
        <time>2024-03-03T10:51:01Z</time>
      </trkpt>
      <trkpt lat="49.21665" lon="-0.06802">
        <ele>25</ele>
        <time>2024-03-03T10:51:02Z</time>
      </trkpt>
      <trkpt lat="49.21667" lon="-0.06796">
        <ele>25.3</ele>
        <time>2024-03-03T10:51:03Z</time>
      </trkpt>
      <trkpt lat="49.21669" lon="-0.0679">
        <ele>25.7</ele>
        <time>2024-03-03T10:51:04Z</time>
      </trkpt>
      <trkpt lat="49.21671" lon="-0.06785">
        <ele>26.1</ele>
        <time>2024-03-03T10:51:05Z</time>
      </trkpt>
      <trkpt lat="49.21673" lon="-0.0678">
        <ele>26.4</ele>
        <time>2024-03-03T10:51:06Z</time>
      </trkpt>
      <trkpt lat="49.21676" lon="-0.06775">
        <ele>26.7</ele>
        <time>2024-03-03T10:51:07Z</time>
      </trkpt>
      <trkpt lat="49.21679" lon="-0.0677">
        <ele>27.1</ele>
        <time>2024-03-03T10:51:08Z</time>
      </trkpt>
      <trkpt lat="49.21682" lon="-0.06767">
        <ele>27.4</ele>
        <time>2024-03-03T10:51:09Z</time>
      </trkpt>
      <trkpt lat="49.21687" lon="-0.06766">
        <ele>27.6</ele>
        <time>2024-03-03T10:51:10Z</time>
      </trkpt>
      <trkpt lat="49.21691" lon="-0.06765">
        <ele>27.9</ele>
        <time>2024-03-03T10:51:11Z</time>
      </trkpt>
      <trkpt lat="49.21696" lon="-0.06765">
        <ele>28.1</ele>
        <time>2024-03-03T10:51:12Z</time>
      </trkpt>
      <trkpt lat="49.21701" lon="-0.06764">
        <ele>28.4</ele>
        <time>2024-03-03T10:51:13Z</time>
      </trkpt>
      <trkpt lat="49.21706" lon="-0.06764">
        <ele>28.6</ele>
        <time>2024-03-03T10:51:14Z</time>
      </trkpt>
      <trkpt lat="49.2171" lon="-0.06764">
        <ele>28.8</ele>
        <time>2024-03-03T10:51:15Z</time>
      </trkpt>
      <trkpt lat="49.21715" lon="-0.06765">
        <ele>28.9</ele>
        <time>2024-03-03T10:51:16Z</time>
      </trkpt>
      <trkpt lat="49.21721" lon="-0.06766">
        <ele>28.9</ele>
        <time>2024-03-03T10:51:17Z</time>
      </trkpt>
      <trkpt lat="49.21726" lon="-0.06767">
        <ele>28.9</ele>
        <time>2024-03-03T10:51:18Z</time>
      </trkpt>
      <trkpt lat="49.21731" lon="-0.06767">
        <ele>28.9</ele>
        <time>2024-03-03T10:51:19Z</time>
      </trkpt>
      <trkpt lat="49.21737" lon="-0.06767">
        <ele>28.9</ele>
        <time>2024-03-03T10:51:20Z</time>
      </trkpt>
      <trkpt lat="49.21743" lon="-0.06768">
        <ele>28.9</ele>
        <time>2024-03-03T10:51:21Z</time>
      </trkpt>
      <trkpt lat="49.21749" lon="-0.06768">
        <ele>28.9</ele>
        <time>2024-03-03T10:51:22Z</time>
      </trkpt>
      <trkpt lat="49.21754" lon="-0.06768">
        <ele>28.9</ele>
        <time>2024-03-03T10:51:23Z</time>
      </trkpt>
      <trkpt lat="49.2176" lon="-0.06769">
        <ele>28.9</ele>
        <time>2024-03-03T10:51:24Z</time>
      </trkpt>
      <trkpt lat="49.21766" lon="-0.0677">
        <ele>28.8</ele>
        <time>2024-03-03T10:51:25Z</time>
      </trkpt>
      <trkpt lat="49.21772" lon="-0.0677">
        <ele>28.8</ele>
        <time>2024-03-03T10:51:26Z</time>
      </trkpt>
      <trkpt lat="49.21778" lon="-0.06771">
        <ele>28.7</ele>
        <time>2024-03-03T10:51:27Z</time>
      </trkpt>
      <trkpt lat="49.21784" lon="-0.06772">
        <ele>28.6</ele>
        <time>2024-03-03T10:51:28Z</time>
      </trkpt>
      <trkpt lat="49.2179" lon="-0.06771">
        <ele>28.5</ele>
        <time>2024-03-03T10:51:29Z</time>
      </trkpt>
      <trkpt lat="49.21795" lon="-0.06771">
        <ele>28.5</ele>
        <time>2024-03-03T10:51:30Z</time>
      </trkpt>
      <trkpt lat="49.21802" lon="-0.06771">
        <ele>28.4</ele>
        <time>2024-03-03T10:51:31Z</time>
      </trkpt>
      <trkpt lat="49.21808" lon="-0.06772">
        <ele>28.3</ele>
        <time>2024-03-03T10:51:32Z</time>
      </trkpt>
      <trkpt lat="49.21814" lon="-0.06773">
        <ele>28.2</ele>
        <time>2024-03-03T10:51:33Z</time>
      </trkpt>
      <trkpt lat="49.21821" lon="-0.06776">
        <ele>28.1</ele>
        <time>2024-03-03T10:51:34Z</time>
      </trkpt>
      <trkpt lat="49.21827" lon="-0.06779">
        <ele>27.9</ele>
        <time>2024-03-03T10:51:35Z</time>
      </trkpt>
      <trkpt lat="49.21833" lon="-0.06783">
        <ele>27.8</ele>
        <time>2024-03-03T10:51:36Z</time>
      </trkpt>
      <trkpt lat="49.21839" lon="-0.06788">
        <ele>27.6</ele>
        <time>2024-03-03T10:51:37Z</time>
      </trkpt>
      <trkpt lat="49.21845" lon="-0.06795">
        <ele>27.4</ele>
        <time>2024-03-03T10:51:38Z</time>
      </trkpt>
      <trkpt lat="49.21851" lon="-0.06802">
        <ele>27.2</ele>
        <time>2024-03-03T10:51:39Z</time>
      </trkpt>
      <trkpt lat="49.21855" lon="-0.0681">
        <ele>27</ele>
        <time>2024-03-03T10:51:40Z</time>
      </trkpt>
      <trkpt lat="49.2186" lon="-0.06817">
        <ele>26.8</ele>
        <time>2024-03-03T10:51:41Z</time>
      </trkpt>
      <trkpt lat="49.21865" lon="-0.06825">
        <ele>26.5</ele>
        <time>2024-03-03T10:51:42Z</time>
      </trkpt>
      <trkpt lat="49.2187" lon="-0.06834">
        <ele>26.3</ele>
        <time>2024-03-03T10:51:43Z</time>
      </trkpt>
      <trkpt lat="49.21876" lon="-0.06843">
        <ele>25.9</ele>
        <time>2024-03-03T10:51:44Z</time>
      </trkpt>
      <trkpt lat="49.21881" lon="-0.06851">
        <ele>25.6</ele>
        <time>2024-03-03T10:51:45Z</time>
      </trkpt>
      <trkpt lat="49.21887" lon="-0.06859">
        <ele>25.3</ele>
        <time>2024-03-03T10:51:46Z</time>
      </trkpt>
      <trkpt lat="49.21893" lon="-0.06867">
        <ele>25</ele>
        <time>2024-03-03T10:51:47Z</time>
      </trkpt>
      <trkpt lat="49.21899" lon="-0.06873">
        <ele>24.7</ele>
        <time>2024-03-03T10:51:48Z</time>
      </trkpt>
      <trkpt lat="49.21906" lon="-0.06879">
        <ele>24.2</ele>
        <time>2024-03-03T10:51:49Z</time>
      </trkpt>
      <trkpt lat="49.21914" lon="-0.06883">
        <ele>24.2</ele>
        <time>2024-03-03T10:51:50Z</time>
      </trkpt>
      <trkpt lat="49.21922" lon="-0.06886">
        <ele>23.8</ele>
        <time>2024-03-03T10:51:51Z</time>
      </trkpt>
      <trkpt lat="49.2193" lon="-0.06887">
        <ele>23.4</ele>
        <time>2024-03-03T10:51:52Z</time>
      </trkpt>
      <trkpt lat="49.21938" lon="-0.06888">
        <ele>23</ele>
        <time>2024-03-03T10:51:53Z</time>
      </trkpt>
      <trkpt lat="49.21947" lon="-0.06888">
        <ele>22.5</ele>
        <time>2024-03-03T10:51:54Z</time>
      </trkpt>
      <trkpt lat="49.21955" lon="-0.06887">
        <ele>22.1</ele>
        <time>2024-03-03T10:51:55Z</time>
      </trkpt>
      <trkpt lat="49.21964" lon="-0.06886">
        <ele>21.6</ele>
        <time>2024-03-03T10:51:56Z</time>
      </trkpt>
      <trkpt lat="49.21973" lon="-0.06885">
        <ele>21.2</ele>
        <time>2024-03-03T10:51:57Z</time>
      </trkpt>
      <trkpt lat="49.21981" lon="-0.06884">
        <ele>20.8</ele>
        <time>2024-03-03T10:51:58Z</time>
      </trkpt>
      <trkpt lat="49.2199" lon="-0.06882">
        <ele>20.4</ele>
        <time>2024-03-03T10:51:59Z</time>
      </trkpt>
      <trkpt lat="49.21999" lon="-0.0688">
        <ele>19.9</ele>
        <time>2024-03-03T10:52:00Z</time>
      </trkpt>
      <trkpt lat="49.22007" lon="-0.06877">
        <ele>19.5</ele>
        <time>2024-03-03T10:52:01Z</time>
      </trkpt>
      <trkpt lat="49.22016" lon="-0.06875">
        <ele>19.1</ele>
        <time>2024-03-03T10:52:02Z</time>
      </trkpt>
      <trkpt lat="49.22024" lon="-0.06873">
        <ele>18.6</ele>
        <time>2024-03-03T10:52:03Z</time>
      </trkpt>
      <trkpt lat="49.22033" lon="-0.06872">
        <ele>18.2</ele>
        <time>2024-03-03T10:52:04Z</time>
      </trkpt>
      <trkpt lat="49.22042" lon="-0.0687">
        <ele>17.8</ele>
        <time>2024-03-03T10:52:05Z</time>
      </trkpt>
      <trkpt lat="49.22051" lon="-0.06869">
        <ele>17.3</ele>
        <time>2024-03-03T10:52:06Z</time>
      </trkpt>
      <trkpt lat="49.22059" lon="-0.06868">
        <ele>17</ele>
        <time>2024-03-03T10:52:07Z</time>
      </trkpt>
      <trkpt lat="49.22067" lon="-0.06866">
        <ele>16.6</ele>
        <time>2024-03-03T10:52:08Z</time>
      </trkpt>
      <trkpt lat="49.22076" lon="-0.06864">
        <ele>16.2</ele>
        <time>2024-03-03T10:52:09Z</time>
      </trkpt>
      <trkpt lat="49.22084" lon="-0.06862">
        <ele>15.8</ele>
        <time>2024-03-03T10:52:10Z</time>
      </trkpt>
      <trkpt lat="49.22093" lon="-0.0686">
        <ele>15.5</ele>
        <time>2024-03-03T10:52:11Z</time>
      </trkpt>
      <trkpt lat="49.22101" lon="-0.06859">
        <ele>15.1</ele>
        <time>2024-03-03T10:52:12Z</time>
      </trkpt>
      <trkpt lat="49.2211" lon="-0.06857">
        <ele>14.7</ele>
        <time>2024-03-03T10:52:13Z</time>
      </trkpt>
      <trkpt lat="49.22119" lon="-0.06855">
        <ele>14.4</ele>
        <time>2024-03-03T10:52:14Z</time>
      </trkpt>
      <trkpt lat="49.22128" lon="-0.06854">
        <ele>14</ele>
        <time>2024-03-03T10:52:15Z</time>
      </trkpt>
      <trkpt lat="49.22138" lon="-0.06852">
        <ele>13.6</ele>
        <time>2024-03-03T10:52:16Z</time>
      </trkpt>
      <trkpt lat="49.22147" lon="-0.0685">
        <ele>13.3</ele>
        <time>2024-03-03T10:52:17Z</time>
      </trkpt>
      <trkpt lat="49.22156" lon="-0.06849">
        <ele>13</ele>
        <time>2024-03-03T10:52:18Z</time>
      </trkpt>
      <trkpt lat="49.22166" lon="-0.06848">
        <ele>12.8</ele>
        <time>2024-03-03T10:52:19Z</time>
      </trkpt>
      <trkpt lat="49.22175" lon="-0.06847">
        <ele>12.6</ele>
        <time>2024-03-03T10:52:20Z</time>
      </trkpt>
      <trkpt lat="49.22185" lon="-0.06846">
        <ele>12.4</ele>
        <time>2024-03-03T10:52:21Z</time>
      </trkpt>
      <trkpt lat="49.22194" lon="-0.06846">
        <ele>12.3</ele>
        <time>2024-03-03T10:52:22Z</time>
      </trkpt>
      <trkpt lat="49.22203" lon="-0.06846">
        <ele>12.3</ele>
        <time>2024-03-03T10:52:23Z</time>
      </trkpt>
      <trkpt lat="49.22212" lon="-0.06846">
        <ele>12.3</ele>
        <time>2024-03-03T10:52:24Z</time>
      </trkpt>
      <trkpt lat="49.22221" lon="-0.06846">
        <ele>12.3</ele>
        <time>2024-03-03T10:52:25Z</time>
      </trkpt>
      <trkpt lat="49.2223" lon="-0.06846">
        <ele>12.3</ele>
        <time>2024-03-03T10:52:26Z</time>
      </trkpt>
      <trkpt lat="49.22238" lon="-0.06846">
        <ele>12.4</ele>
        <time>2024-03-03T10:52:27Z</time>
      </trkpt>
      <trkpt lat="49.22246" lon="-0.06846">
        <ele>12.5</ele>
        <time>2024-03-03T10:52:28Z</time>
      </trkpt>
      <trkpt lat="49.22254" lon="-0.06845">
        <ele>12.6</ele>
        <time>2024-03-03T10:52:29Z</time>
      </trkpt>
      <trkpt lat="49.22263" lon="-0.06846">
        <ele>12.7</ele>
        <time>2024-03-03T10:52:30Z</time>
      </trkpt>
      <trkpt lat="49.22271" lon="-0.06845">
        <ele>12.9</ele>
        <time>2024-03-03T10:52:31Z</time>
      </trkpt>
      <trkpt lat="49.22279" lon="-0.06845">
        <ele>13</ele>
        <time>2024-03-03T10:52:32Z</time>
      </trkpt>
      <trkpt lat="49.22287" lon="-0.06845">
        <ele>13.1</ele>
        <time>2024-03-03T10:52:33Z</time>
      </trkpt>
      <trkpt lat="49.22294" lon="-0.06845">
        <ele>13.3</ele>
        <time>2024-03-03T10:52:34Z</time>
      </trkpt>
      <trkpt lat="49.22302" lon="-0.06845">
        <ele>13.4</ele>
        <time>2024-03-03T10:52:35Z</time>
      </trkpt>
      <trkpt lat="49.2231" lon="-0.06845">
        <ele>13.6</ele>
        <time>2024-03-03T10:52:36Z</time>
      </trkpt>
      <trkpt lat="49.22318" lon="-0.06846">
        <ele>13.8</ele>
        <time>2024-03-03T10:52:37Z</time>
      </trkpt>
      <trkpt lat="49.22325" lon="-0.06846">
        <ele>13.9</ele>
        <time>2024-03-03T10:52:38Z</time>
      </trkpt>
      <trkpt lat="49.22333" lon="-0.06846">
        <ele>14.1</ele>
        <time>2024-03-03T10:52:39Z</time>
      </trkpt>
      <trkpt lat="49.2234" lon="-0.06846">
        <ele>14.2</ele>
        <time>2024-03-03T10:52:40Z</time>
      </trkpt>
      <trkpt lat="49.22347" lon="-0.06845">
        <ele>14.3</ele>
        <time>2024-03-03T10:52:41Z</time>
      </trkpt>
      <trkpt lat="49.22355" lon="-0.06845">
        <ele>14.5</ele>
        <time>2024-03-03T10:52:42Z</time>
      </trkpt>
      <trkpt lat="49.22362" lon="-0.06846">
        <ele>14.6</ele>
        <time>2024-03-03T10:52:43Z</time>
      </trkpt>
      <trkpt lat="49.2237" lon="-0.06847">
        <ele>14.8</ele>
        <time>2024-03-03T10:52:44Z</time>
      </trkpt>
      <trkpt lat="49.22377" lon="-0.06847">
        <ele>15</ele>
        <time>2024-03-03T10:52:45Z</time>
      </trkpt>
      <trkpt lat="49.22384" lon="-0.06846">
        <ele>15.2</ele>
        <time>2024-03-03T10:52:46Z</time>
      </trkpt>
      <trkpt lat="49.22391" lon="-0.06846">
        <ele>15.3</ele>
        <time>2024-03-03T10:52:47Z</time>
      </trkpt>
      <trkpt lat="49.22397" lon="-0.06846">
        <ele>15.3</ele>
        <time>2024-03-03T10:52:48Z</time>
      </trkpt>
      <trkpt lat="49.22404" lon="-0.06846">
        <ele>15.4</ele>
        <time>2024-03-03T10:52:49Z</time>
      </trkpt>
      <trkpt lat="49.2241" lon="-0.06847">
        <ele>15.5</ele>
        <time>2024-03-03T10:52:50Z</time>
      </trkpt>
      <trkpt lat="49.22415" lon="-0.06847">
        <ele>15.6</ele>
        <time>2024-03-03T10:52:51Z</time>
      </trkpt>
      <trkpt lat="49.22421" lon="-0.06847">
        <ele>15.7</ele>
        <time>2024-03-03T10:52:52Z</time>
      </trkpt>
      <trkpt lat="49.22425" lon="-0.06847">
        <ele>15.9</ele>
        <time>2024-03-03T10:52:53Z</time>
      </trkpt>
      <trkpt lat="49.22429" lon="-0.06847">
        <ele>16</ele>
        <time>2024-03-03T10:52:54Z</time>
      </trkpt>
      <trkpt lat="49.22433" lon="-0.06848">
        <ele>16.2</ele>
        <time>2024-03-03T10:52:55Z</time>
      </trkpt>
      <trkpt lat="49.22437" lon="-0.06848">
        <ele>16.3</ele>
        <time>2024-03-03T10:52:56Z</time>
      </trkpt>
      <trkpt lat="49.2244" lon="-0.06848">
        <ele>16.4</ele>
        <time>2024-03-03T10:52:57Z</time>
      </trkpt>
      <trkpt lat="49.22444" lon="-0.06847">
        <ele>16.6</ele>
        <time>2024-03-03T10:52:58Z</time>
      </trkpt>
      <trkpt lat="49.22448" lon="-0.06847">
        <ele>16.6</ele>
        <time>2024-03-03T10:52:59Z</time>
      </trkpt>
      <trkpt lat="49.22453" lon="-0.06847">
        <ele>16.6</ele>
        <time>2024-03-03T10:53:00Z</time>
      </trkpt>
      <trkpt lat="49.22457" lon="-0.06847">
        <ele>16.5</ele>
        <time>2024-03-03T10:53:01Z</time>
      </trkpt>
      <trkpt lat="49.22462" lon="-0.06849">
        <ele>16.4</ele>
        <time>2024-03-03T10:53:02Z</time>
      </trkpt>
      <trkpt lat="49.22467" lon="-0.06851">
        <ele>16.4</ele>
        <time>2024-03-03T10:53:03Z</time>
      </trkpt>
      <trkpt lat="49.22472" lon="-0.06852">
        <ele>16.3</ele>
        <time>2024-03-03T10:53:04Z</time>
      </trkpt>
      <trkpt lat="49.22478" lon="-0.06854">
        <ele>16.2</ele>
        <time>2024-03-03T10:53:05Z</time>
      </trkpt>
      <trkpt lat="49.22484" lon="-0.06856">
        <ele>16.2</ele>
        <time>2024-03-03T10:53:06Z</time>
      </trkpt>
      <trkpt lat="49.22489" lon="-0.06857">
        <ele>16.2</ele>
        <time>2024-03-03T10:53:07Z</time>
      </trkpt>
      <trkpt lat="49.22495" lon="-0.06858">
        <ele>16.2</ele>
        <time>2024-03-03T10:53:08Z</time>
      </trkpt>
      <trkpt lat="49.22501" lon="-0.0686">
        <ele>16.2</ele>
        <time>2024-03-03T10:53:09Z</time>
      </trkpt>
      <trkpt lat="49.22506" lon="-0.06861">
        <ele>16.3</ele>
        <time>2024-03-03T10:53:10Z</time>
      </trkpt>
      <trkpt lat="49.22512" lon="-0.06862">
        <ele>16.3</ele>
        <time>2024-03-03T10:53:11Z</time>
      </trkpt>
      <trkpt lat="49.22518" lon="-0.06864">
        <ele>16.4</ele>
        <time>2024-03-03T10:53:12Z</time>
      </trkpt>
      <trkpt lat="49.22524" lon="-0.06865">
        <ele>16.5</ele>
        <time>2024-03-03T10:53:13Z</time>
      </trkpt>
      <trkpt lat="49.22529" lon="-0.06866">
        <ele>16.6</ele>
        <time>2024-03-03T10:53:14Z</time>
      </trkpt>
      <trkpt lat="49.22535" lon="-0.06868">
        <ele>16.7</ele>
        <time>2024-03-03T10:53:15Z</time>
      </trkpt>
      <trkpt lat="49.22541" lon="-0.06869">
        <ele>16.9</ele>
        <time>2024-03-03T10:53:16Z</time>
      </trkpt>
      <trkpt lat="49.22546" lon="-0.0687">
        <ele>17</ele>
        <time>2024-03-03T10:53:17Z</time>
      </trkpt>
      <trkpt lat="49.22552" lon="-0.06871">
        <ele>17.2</ele>
        <time>2024-03-03T10:53:18Z</time>
      </trkpt>
      <trkpt lat="49.22557" lon="-0.06873">
        <ele>17.4</ele>
        <time>2024-03-03T10:53:19Z</time>
      </trkpt>
      <trkpt lat="49.22563" lon="-0.06874">
        <ele>17.6</ele>
        <time>2024-03-03T10:53:20Z</time>
      </trkpt>
      <trkpt lat="49.22568" lon="-0.06875">
        <ele>17.8</ele>
        <time>2024-03-03T10:53:21Z</time>
      </trkpt>
      <trkpt lat="49.22574" lon="-0.06876">
        <ele>18</ele>
        <time>2024-03-03T10:53:22Z</time>
      </trkpt>
      <trkpt lat="49.2258" lon="-0.06877">
        <ele>18.2</ele>
        <time>2024-03-03T10:53:23Z</time>
      </trkpt>
      <trkpt lat="49.22586" lon="-0.06878">
        <ele>18.4</ele>
        <time>2024-03-03T10:53:24Z</time>
      </trkpt>
      <trkpt lat="49.22591" lon="-0.06879">
        <ele>18.6</ele>
        <time>2024-03-03T10:53:25Z</time>
      </trkpt>
      <trkpt lat="49.22597" lon="-0.0688">
        <ele>18.7</ele>
        <time>2024-03-03T10:53:26Z</time>
      </trkpt>
      <trkpt lat="49.22602" lon="-0.06882">
        <ele>18.9</ele>
        <time>2024-03-03T10:53:27Z</time>
      </trkpt>
      <trkpt lat="49.22607" lon="-0.06883">
        <ele>19.1</ele>
        <time>2024-03-03T10:53:28Z</time>
      </trkpt>
      <trkpt lat="49.22613" lon="-0.06884">
        <ele>19.3</ele>
        <time>2024-03-03T10:53:29Z</time>
      </trkpt>
      <trkpt lat="49.22618" lon="-0.06885">
        <ele>19.5</ele>
        <time>2024-03-03T10:53:30Z</time>
      </trkpt>
      <trkpt lat="49.22624" lon="-0.06886">
        <ele>19.8</ele>
        <time>2024-03-03T10:53:31Z</time>
      </trkpt>
      <trkpt lat="49.22629" lon="-0.06888">
        <ele>20</ele>
        <time>2024-03-03T10:53:32Z</time>
      </trkpt>
      <trkpt lat="49.22634" lon="-0.06889">
        <ele>20.2</ele>
        <time>2024-03-03T10:53:33Z</time>
      </trkpt>
      <trkpt lat="49.2264" lon="-0.0689">
        <ele>20.4</ele>
        <time>2024-03-03T10:53:34Z</time>
      </trkpt>
      <trkpt lat="49.22645" lon="-0.0689">
        <ele>20.6</ele>
        <time>2024-03-03T10:53:35Z</time>
      </trkpt>
      <trkpt lat="49.2265" lon="-0.06891">
        <ele>20.8</ele>
        <time>2024-03-03T10:53:36Z</time>
      </trkpt>
      <trkpt lat="49.22656" lon="-0.06892">
        <ele>21</ele>
        <time>2024-03-03T10:53:37Z</time>
      </trkpt>
      <trkpt lat="49.22661" lon="-0.06894">
        <ele>21.2</ele>
        <time>2024-03-03T10:53:38Z</time>
      </trkpt>
      <trkpt lat="49.22666" lon="-0.06895">
        <ele>21.4</ele>
        <time>2024-03-03T10:53:39Z</time>
      </trkpt>
      <trkpt lat="49.22671" lon="-0.06896">
        <ele>21.6</ele>
        <time>2024-03-03T10:53:40Z</time>
      </trkpt>
      <trkpt lat="49.22677" lon="-0.06897">
        <ele>21.8</ele>
        <time>2024-03-03T10:53:41Z</time>
      </trkpt>
      <trkpt lat="49.22682" lon="-0.06898">
        <ele>21.9</ele>
        <time>2024-03-03T10:53:42Z</time>
      </trkpt>
      <trkpt lat="49.22687" lon="-0.069">
        <ele>22.1</ele>
        <time>2024-03-03T10:53:43Z</time>
      </trkpt>
      <trkpt lat="49.22692" lon="-0.06901">
        <ele>22.2</ele>
        <time>2024-03-03T10:53:44Z</time>
      </trkpt>
      <trkpt lat="49.22697" lon="-0.06902">
        <ele>22.4</ele>
        <time>2024-03-03T10:53:45Z</time>
      </trkpt>
      <trkpt lat="49.22702" lon="-0.06903">
        <ele>22.5</ele>
        <time>2024-03-03T10:53:46Z</time>
      </trkpt>
      <trkpt lat="49.22707" lon="-0.06904">
        <ele>22.6</ele>
        <time>2024-03-03T10:53:47Z</time>
      </trkpt>
      <trkpt lat="49.22712" lon="-0.06905">
        <ele>22.7</ele>
        <time>2024-03-03T10:53:48Z</time>
      </trkpt>
      <trkpt lat="49.22717" lon="-0.06906">
        <ele>22.8</ele>
        <time>2024-03-03T10:53:49Z</time>
      </trkpt>
      <trkpt lat="49.22723" lon="-0.06907">
        <ele>22.9</ele>
        <time>2024-03-03T10:53:50Z</time>
      </trkpt>
      <trkpt lat="49.22728" lon="-0.06908">
        <ele>23</ele>
        <time>2024-03-03T10:53:51Z</time>
      </trkpt>
      <trkpt lat="49.22734" lon="-0.06909">
        <ele>23.1</ele>
        <time>2024-03-03T10:53:52Z</time>
      </trkpt>
      <trkpt lat="49.22739" lon="-0.06911">
        <ele>23.2</ele>
        <time>2024-03-03T10:53:53Z</time>
      </trkpt>
      <trkpt lat="49.22745" lon="-0.06912">
        <ele>23.3</ele>
        <time>2024-03-03T10:53:54Z</time>
      </trkpt>
      <trkpt lat="49.22751" lon="-0.06913">
        <ele>23.4</ele>
        <time>2024-03-03T10:53:55Z</time>
      </trkpt>
      <trkpt lat="49.22757" lon="-0.06915">
        <ele>23.5</ele>
        <time>2024-03-03T10:53:56Z</time>
      </trkpt>
      <trkpt lat="49.22762" lon="-0.06916">
        <ele>23.5</ele>
        <time>2024-03-03T10:53:57Z</time>
      </trkpt>
      <trkpt lat="49.22768" lon="-0.06917">
        <ele>23.6</ele>
        <time>2024-03-03T10:53:58Z</time>
      </trkpt>
      <trkpt lat="49.22774" lon="-0.06918">
        <ele>23.6</ele>
        <time>2024-03-03T10:53:59Z</time>
      </trkpt>
      <trkpt lat="49.2278" lon="-0.06919">
        <ele>23.6</ele>
        <time>2024-03-03T10:54:00Z</time>
      </trkpt>
      <trkpt lat="49.22786" lon="-0.06921">
        <ele>23.5</ele>
        <time>2024-03-03T10:54:01Z</time>
      </trkpt>
      <trkpt lat="49.22792" lon="-0.06922">
        <ele>23.5</ele>
        <time>2024-03-03T10:54:02Z</time>
      </trkpt>
      <trkpt lat="49.22798" lon="-0.06924">
        <ele>23.4</ele>
        <time>2024-03-03T10:54:03Z</time>
      </trkpt>
      <trkpt lat="49.22804" lon="-0.06926">
        <ele>23.3</ele>
        <time>2024-03-03T10:54:04Z</time>
      </trkpt>
      <trkpt lat="49.2281" lon="-0.06928">
        <ele>23.1</ele>
        <time>2024-03-03T10:54:05Z</time>
      </trkpt>
      <trkpt lat="49.22816" lon="-0.0693">
        <ele>22.9</ele>
        <time>2024-03-03T10:54:06Z</time>
      </trkpt>
      <trkpt lat="49.22823" lon="-0.06932">
        <ele>22.7</ele>
        <time>2024-03-03T10:54:07Z</time>
      </trkpt>
      <trkpt lat="49.22829" lon="-0.06934">
        <ele>22.5</ele>
        <time>2024-03-03T10:54:08Z</time>
      </trkpt>
      <trkpt lat="49.22836" lon="-0.06935">
        <ele>22.3</ele>
        <time>2024-03-03T10:54:09Z</time>
      </trkpt>
      <trkpt lat="49.22843" lon="-0.06937">
        <ele>22</ele>
        <time>2024-03-03T10:54:10Z</time>
      </trkpt>
      <trkpt lat="49.2285" lon="-0.06938">
        <ele>21.8</ele>
        <time>2024-03-03T10:54:11Z</time>
      </trkpt>
      <trkpt lat="49.22858" lon="-0.06938">
        <ele>21.5</ele>
        <time>2024-03-03T10:54:12Z</time>
      </trkpt>
      <trkpt lat="49.22866" lon="-0.06937">
        <ele>21.2</ele>
        <time>2024-03-03T10:54:13Z</time>
      </trkpt>
      <trkpt lat="49.22875" lon="-0.06935">
        <ele>20.9</ele>
        <time>2024-03-03T10:54:14Z</time>
      </trkpt>
      <trkpt lat="49.22883" lon="-0.06931">
        <ele>20.6</ele>
        <time>2024-03-03T10:54:15Z</time>
      </trkpt>
      <trkpt lat="49.22891" lon="-0.06926">
        <ele>20.3</ele>
        <time>2024-03-03T10:54:16Z</time>
      </trkpt>
      <trkpt lat="49.22898" lon="-0.0692">
        <ele>20</ele>
        <time>2024-03-03T10:54:17Z</time>
      </trkpt>
      <trkpt lat="49.22905" lon="-0.06912">
        <ele>19.7</ele>
        <time>2024-03-03T10:54:18Z</time>
      </trkpt>
      <trkpt lat="49.22911" lon="-0.06903">
        <ele>19.5</ele>
        <time>2024-03-03T10:54:19Z</time>
      </trkpt>
      <trkpt lat="49.22916" lon="-0.06893">
        <ele>19.3</ele>
        <time>2024-03-03T10:54:20Z</time>
      </trkpt>
      <trkpt lat="49.2292" lon="-0.06883">
        <ele>19.1</ele>
        <time>2024-03-03T10:54:21Z</time>
      </trkpt>
      <trkpt lat="49.22924" lon="-0.06872">
        <ele>18.9</ele>
        <time>2024-03-03T10:54:22Z</time>
      </trkpt>
      <trkpt lat="49.22927" lon="-0.0686">
        <ele>18.6</ele>
        <time>2024-03-03T10:54:23Z</time>
      </trkpt>
      <trkpt lat="49.2293" lon="-0.06848">
        <ele>18.4</ele>
        <time>2024-03-03T10:54:24Z</time>
      </trkpt>
      <trkpt lat="49.22934" lon="-0.06836">
        <ele>18.2</ele>
        <time>2024-03-03T10:54:25Z</time>
      </trkpt>
      <trkpt lat="49.22937" lon="-0.06825">
        <ele>18</ele>
        <time>2024-03-03T10:54:26Z</time>
      </trkpt>
      <trkpt lat="49.2294" lon="-0.06814">
        <ele>17.8</ele>
        <time>2024-03-03T10:54:27Z</time>
      </trkpt>
      <trkpt lat="49.22945" lon="-0.06804">
        <ele>17.6</ele>
        <time>2024-03-03T10:54:28Z</time>
      </trkpt>
      <trkpt lat="49.2295" lon="-0.06794">
        <ele>17.3</ele>
        <time>2024-03-03T10:54:29Z</time>
      </trkpt>
      <trkpt lat="49.22957" lon="-0.06785">
        <ele>17</ele>
        <time>2024-03-03T10:54:30Z</time>
      </trkpt>
      <trkpt lat="49.22964" lon="-0.06777">
        <ele>16.8</ele>
        <time>2024-03-03T10:54:31Z</time>
      </trkpt>
      <trkpt lat="49.22972" lon="-0.06769">
        <ele>16.5</ele>
        <time>2024-03-03T10:54:32Z</time>
      </trkpt>
      <trkpt lat="49.2298" lon="-0.06761">
        <ele>16.2</ele>
        <time>2024-03-03T10:54:33Z</time>
      </trkpt>
      <trkpt lat="49.22988" lon="-0.06755">
        <ele>15.9</ele>
        <time>2024-03-03T10:54:34Z</time>
      </trkpt>
      <trkpt lat="49.22996" lon="-0.06751">
        <ele>15.7</ele>
        <time>2024-03-03T10:54:35Z</time>
      </trkpt>
      <trkpt lat="49.23005" lon="-0.06748">
        <ele>15.4</ele>
        <time>2024-03-03T10:54:36Z</time>
      </trkpt>
      <trkpt lat="49.23014" lon="-0.06746">
        <ele>15.1</ele>
        <time>2024-03-03T10:54:37Z</time>
      </trkpt>
      <trkpt lat="49.23024" lon="-0.06747">
        <ele>14.9</ele>
        <time>2024-03-03T10:54:38Z</time>
      </trkpt>
      <trkpt lat="49.23033" lon="-0.06749">
        <ele>14.6</ele>
        <time>2024-03-03T10:54:39Z</time>
      </trkpt>
      <trkpt lat="49.23042" lon="-0.06752">
        <ele>14.3</ele>
        <time>2024-03-03T10:54:40Z</time>
      </trkpt>
      <trkpt lat="49.23051" lon="-0.06757">
        <ele>13.9</ele>
        <time>2024-03-03T10:54:41Z</time>
      </trkpt>
      <trkpt lat="49.23061" lon="-0.06761">
        <ele>13.6</ele>
        <time>2024-03-03T10:54:42Z</time>
      </trkpt>
      <trkpt lat="49.2307" lon="-0.06765">
        <ele>13.3</ele>
        <time>2024-03-03T10:54:43Z</time>
      </trkpt>
      <trkpt lat="49.23079" lon="-0.0677">
        <ele>12.9</ele>
        <time>2024-03-03T10:54:44Z</time>
      </trkpt>
      <trkpt lat="49.23089" lon="-0.06774">
        <ele>12.6</ele>
        <time>2024-03-03T10:54:45Z</time>
      </trkpt>
      <trkpt lat="49.23098" lon="-0.06779">
        <ele>12.3</ele>
        <time>2024-03-03T10:54:46Z</time>
      </trkpt>
      <trkpt lat="49.23107" lon="-0.06783">
        <ele>12.1</ele>
        <time>2024-03-03T10:54:47Z</time>
      </trkpt>
      <trkpt lat="49.23117" lon="-0.06787">
        <ele>11.9</ele>
        <time>2024-03-03T10:54:48Z</time>
      </trkpt>
      <trkpt lat="49.23125" lon="-0.06792">
        <ele>11.8</ele>
        <time>2024-03-03T10:54:49Z</time>
      </trkpt>
      <trkpt lat="49.23134" lon="-0.06796">
        <ele>11.7</ele>
        <time>2024-03-03T10:54:50Z</time>
      </trkpt>
      <trkpt lat="49.23172" lon="-0.06814">
        <ele>11.4</ele>
        <time>2024-03-03T10:54:54Z</time>
      </trkpt>
      <trkpt lat="49.23181" lon="-0.06818">
        <ele>11.4</ele>
        <time>2024-03-03T10:54:55Z</time>
      </trkpt>
      <trkpt lat="49.23187" lon="-0.06822">
        <ele>11.4</ele>
        <time>2024-03-03T10:54:56Z</time>
      </trkpt>
      <trkpt lat="49.23194" lon="-0.06826">
        <ele>11.4</ele>
        <time>2024-03-03T10:54:57Z</time>
      </trkpt>
      <trkpt lat="49.23201" lon="-0.0683">
        <ele>11.4</ele>
        <time>2024-03-03T10:54:58Z</time>
      </trkpt>
      <trkpt lat="49.23209" lon="-0.06833">
        <ele>11.4</ele>
        <time>2024-03-03T10:54:59Z</time>
      </trkpt>
      <trkpt lat="49.23216" lon="-0.06836">
        <ele>11.3</ele>
        <time>2024-03-03T10:55:00Z</time>
      </trkpt>
      <trkpt lat="49.23223" lon="-0.0684">
        <ele>11.3</ele>
        <time>2024-03-03T10:55:01Z</time>
      </trkpt>
      <trkpt lat="49.2323" lon="-0.06844">
        <ele>11.2</ele>
        <time>2024-03-03T10:55:02Z</time>
      </trkpt>
      <trkpt lat="49.23238" lon="-0.06848">
        <ele>11.2</ele>
        <time>2024-03-03T10:55:03Z</time>
      </trkpt>
      <trkpt lat="49.23245" lon="-0.06851">
        <ele>11.1</ele>
        <time>2024-03-03T10:55:04Z</time>
      </trkpt>
      <trkpt lat="49.23253" lon="-0.06854">
        <ele>11.1</ele>
        <time>2024-03-03T10:55:05Z</time>
      </trkpt>
      <trkpt lat="49.2326" lon="-0.06858">
        <ele>11</ele>
        <time>2024-03-03T10:55:06Z</time>
      </trkpt>
      <trkpt lat="49.23267" lon="-0.06861">
        <ele>11</ele>
        <time>2024-03-03T10:55:07Z</time>
      </trkpt>
      <trkpt lat="49.23274" lon="-0.06865">
        <ele>10.9</ele>
        <time>2024-03-03T10:55:08Z</time>
      </trkpt>
      <trkpt lat="49.23281" lon="-0.06869">
        <ele>10.9</ele>
        <time>2024-03-03T10:55:09Z</time>
      </trkpt>
      <trkpt lat="49.23288" lon="-0.06873">
        <ele>10.8</ele>
        <time>2024-03-03T10:55:10Z</time>
      </trkpt>
      <trkpt lat="49.23295" lon="-0.06877">
        <ele>10.7</ele>
        <time>2024-03-03T10:55:11Z</time>
      </trkpt>
      <trkpt lat="49.23303" lon="-0.06881">
        <ele>10.6</ele>
        <time>2024-03-03T10:55:12Z</time>
      </trkpt>
      <trkpt lat="49.2331" lon="-0.06885">
        <ele>10.5</ele>
        <time>2024-03-03T10:55:13Z</time>
      </trkpt>
      <trkpt lat="49.23317" lon="-0.06889">
        <ele>10.4</ele>
        <time>2024-03-03T10:55:14Z</time>
      </trkpt>
      <trkpt lat="49.23324" lon="-0.06893">
        <ele>10.3</ele>
        <time>2024-03-03T10:55:15Z</time>
      </trkpt>
      <trkpt lat="49.23332" lon="-0.06897">
        <ele>10.1</ele>
        <time>2024-03-03T10:55:16Z</time>
      </trkpt>
      <trkpt lat="49.23339" lon="-0.06901">
        <ele>10</ele>
        <time>2024-03-03T10:55:17Z</time>
      </trkpt>
      <trkpt lat="49.23346" lon="-0.06905">
        <ele>9.8</ele>
        <time>2024-03-03T10:55:18Z</time>
      </trkpt>
      <trkpt lat="49.23353" lon="-0.06909">
        <ele>9.7</ele>
        <time>2024-03-03T10:55:19Z</time>
      </trkpt>
      <trkpt lat="49.23361" lon="-0.06913">
        <ele>9.5</ele>
        <time>2024-03-03T10:55:20Z</time>
      </trkpt>
      <trkpt lat="49.23368" lon="-0.06918">
        <ele>9.3</ele>
        <time>2024-03-03T10:55:21Z</time>
      </trkpt>
      <trkpt lat="49.23376" lon="-0.06922">
        <ele>9.2</ele>
        <time>2024-03-03T10:55:22Z</time>
      </trkpt>
      <trkpt lat="49.23383" lon="-0.06926">
        <ele>9</ele>
        <time>2024-03-03T10:55:23Z</time>
      </trkpt>
      <trkpt lat="49.2339" lon="-0.0693">
        <ele>8.9</ele>
        <time>2024-03-03T10:55:24Z</time>
      </trkpt>
      <trkpt lat="49.23398" lon="-0.06934">
        <ele>8.7</ele>
        <time>2024-03-03T10:55:25Z</time>
      </trkpt>
      <trkpt lat="49.23406" lon="-0.06938">
        <ele>8.5</ele>
        <time>2024-03-03T10:55:26Z</time>
      </trkpt>
      <trkpt lat="49.23413" lon="-0.06942">
        <ele>8.4</ele>
        <time>2024-03-03T10:55:27Z</time>
      </trkpt>
      <trkpt lat="49.23421" lon="-0.06946">
        <ele>8.3</ele>
        <time>2024-03-03T10:55:28Z</time>
      </trkpt>
      <trkpt lat="49.23428" lon="-0.0695">
        <ele>8.2</ele>
        <time>2024-03-03T10:55:29Z</time>
      </trkpt>
      <trkpt lat="49.23436" lon="-0.06955">
        <ele>8</ele>
        <time>2024-03-03T10:55:30Z</time>
      </trkpt>
      <trkpt lat="49.23443" lon="-0.06959">
        <ele>7.9</ele>
        <time>2024-03-03T10:55:31Z</time>
      </trkpt>
      <trkpt lat="49.2345" lon="-0.06963">
        <ele>7.8</ele>
        <time>2024-03-03T10:55:32Z</time>
      </trkpt>
      <trkpt lat="49.23457" lon="-0.06967">
        <ele>7.7</ele>
        <time>2024-03-03T10:55:33Z</time>
      </trkpt>
      <trkpt lat="49.23465" lon="-0.06971">
        <ele>7.7</ele>
        <time>2024-03-03T10:55:34Z</time>
      </trkpt>
      <trkpt lat="49.23472" lon="-0.06975">
        <ele>7.6</ele>
        <time>2024-03-03T10:55:35Z</time>
      </trkpt>
      <trkpt lat="49.2348" lon="-0.06979">
        <ele>7.6</ele>
        <time>2024-03-03T10:55:36Z</time>
      </trkpt>
      <trkpt lat="49.23487" lon="-0.06984">
        <ele>7.5</ele>
        <time>2024-03-03T10:55:37Z</time>
      </trkpt>
      <trkpt lat="49.23494" lon="-0.06989">
        <ele>7.5</ele>
        <time>2024-03-03T10:55:38Z</time>
      </trkpt>
      <trkpt lat="49.23501" lon="-0.06994">
        <ele>7.5</ele>
        <time>2024-03-03T10:55:39Z</time>
      </trkpt>
      <trkpt lat="49.23508" lon="-0.06998">
        <ele>7.5</ele>
        <time>2024-03-03T10:55:40Z</time>
      </trkpt>
      <trkpt lat="49.23514" lon="-0.07003">
        <ele>7.5</ele>
        <time>2024-03-03T10:55:41Z</time>
      </trkpt>
      <trkpt lat="49.23521" lon="-0.07007">
        <ele>7.5</ele>
        <time>2024-03-03T10:55:42Z</time>
      </trkpt>
      <trkpt lat="49.23527" lon="-0.07012">
        <ele>7.5</ele>
        <time>2024-03-03T10:55:43Z</time>
      </trkpt>
      <trkpt lat="49.23534" lon="-0.07016">
        <ele>7.4</ele>
        <time>2024-03-03T10:55:44Z</time>
      </trkpt>
      <trkpt lat="49.2354" lon="-0.0702">
        <ele>7.4</ele>
        <time>2024-03-03T10:55:45Z</time>
      </trkpt>
      <trkpt lat="49.23547" lon="-0.07025">
        <ele>7.4</ele>
        <time>2024-03-03T10:55:46Z</time>
      </trkpt>
      <trkpt lat="49.23553" lon="-0.07029">
        <ele>7.4</ele>
        <time>2024-03-03T10:55:47Z</time>
      </trkpt>
      <trkpt lat="49.2356" lon="-0.07034">
        <ele>7.4</ele>
        <time>2024-03-03T10:55:48Z</time>
      </trkpt>
      <trkpt lat="49.23567" lon="-0.07038">
        <ele>7.4</ele>
        <time>2024-03-03T10:55:49Z</time>
      </trkpt>
      <trkpt lat="49.23573" lon="-0.07042">
        <ele>7.4</ele>
        <time>2024-03-03T10:55:50Z</time>
      </trkpt>
      <trkpt lat="49.2358" lon="-0.07046">
        <ele>7.4</ele>
        <time>2024-03-03T10:55:51Z</time>
      </trkpt>
      <trkpt lat="49.23587" lon="-0.0705">
        <ele>7.4</ele>
        <time>2024-03-03T10:55:52Z</time>
      </trkpt>
      <trkpt lat="49.23594" lon="-0.07055">
        <ele>7.4</ele>
        <time>2024-03-03T10:55:53Z</time>
      </trkpt>
      <trkpt lat="49.23601" lon="-0.07059">
        <ele>7.4</ele>
        <time>2024-03-03T10:55:54Z</time>
      </trkpt>
      <trkpt lat="49.23608" lon="-0.07064">
        <ele>7.4</ele>
        <time>2024-03-03T10:55:55Z</time>
      </trkpt>
      <trkpt lat="49.23614" lon="-0.07068">
        <ele>7.4</ele>
        <time>2024-03-03T10:55:56Z</time>
      </trkpt>
      <trkpt lat="49.2362" lon="-0.07073">
        <ele>7.4</ele>
        <time>2024-03-03T10:55:57Z</time>
      </trkpt>
      <trkpt lat="49.23627" lon="-0.07078">
        <ele>7.4</ele>
        <time>2024-03-03T10:55:58Z</time>
      </trkpt>
      <trkpt lat="49.23633" lon="-0.07084">
        <ele>7.4</ele>
        <time>2024-03-03T10:55:59Z</time>
      </trkpt>
      <trkpt lat="49.23639" lon="-0.0709">
        <ele>7.4</ele>
        <time>2024-03-03T10:56:00Z</time>
      </trkpt>
      <trkpt lat="49.23644" lon="-0.07097">
        <ele>7.4</ele>
        <time>2024-03-03T10:56:01Z</time>
      </trkpt>
      <trkpt lat="49.23649" lon="-0.07104">
        <ele>7.4</ele>
        <time>2024-03-03T10:56:02Z</time>
      </trkpt>
      <trkpt lat="49.23655" lon="-0.07111">
        <ele>7.4</ele>
        <time>2024-03-03T10:56:03Z</time>
      </trkpt>
      <trkpt lat="49.2366" lon="-0.07118">
        <ele>7.4</ele>
        <time>2024-03-03T10:56:04Z</time>
      </trkpt>
      <trkpt lat="49.23665" lon="-0.07125">
        <ele>7.4</ele>
        <time>2024-03-03T10:56:05Z</time>
      </trkpt>
      <trkpt lat="49.23669" lon="-0.07133">
        <ele>7.5</ele>
        <time>2024-03-03T10:56:06Z</time>
      </trkpt>
      <trkpt lat="49.23674" lon="-0.0714">
        <ele>7.5</ele>
        <time>2024-03-03T10:56:07Z</time>
      </trkpt>
      <trkpt lat="49.23678" lon="-0.07149">
        <ele>7.5</ele>
        <time>2024-03-03T10:56:08Z</time>
      </trkpt>
      <trkpt lat="49.23681" lon="-0.07157">
        <ele>7.5</ele>
        <time>2024-03-03T10:56:09Z</time>
      </trkpt>
      <trkpt lat="49.23684" lon="-0.07167">
        <ele>7.5</ele>
        <time>2024-03-03T10:56:10Z</time>
      </trkpt>
      <trkpt lat="49.23687" lon="-0.07177">
        <ele>7.5</ele>
        <time>2024-03-03T10:56:11Z</time>
      </trkpt>
      <trkpt lat="49.23689" lon="-0.07187">
        <ele>7.5</ele>
        <time>2024-03-03T10:56:12Z</time>
      </trkpt>
      <trkpt lat="49.2369" lon="-0.07196">
        <ele>7.5</ele>
        <time>2024-03-03T10:56:13Z</time>
      </trkpt>
      <trkpt lat="49.23692" lon="-0.07206">
        <ele>7.5</ele>
        <time>2024-03-03T10:56:14Z</time>
      </trkpt>
      <trkpt lat="49.23693" lon="-0.07216">
        <ele>7.5</ele>
        <time>2024-03-03T10:56:15Z</time>
      </trkpt>
      <trkpt lat="49.23694" lon="-0.07226">
        <ele>7.5</ele>
        <time>2024-03-03T10:56:16Z</time>
      </trkpt>
      <trkpt lat="49.23695" lon="-0.07235">
        <ele>7.5</ele>
        <time>2024-03-03T10:56:17Z</time>
      </trkpt>
      <trkpt lat="49.23696" lon="-0.07245">
        <ele>7.5</ele>
        <time>2024-03-03T10:56:18Z</time>
      </trkpt>
      <trkpt lat="49.23697" lon="-0.07255">
        <ele>7.5</ele>
        <time>2024-03-03T10:56:19Z</time>
      </trkpt>
      <trkpt lat="49.23698" lon="-0.07265">
        <ele>7.5</ele>
        <time>2024-03-03T10:56:20Z</time>
      </trkpt>
      <trkpt lat="49.23699" lon="-0.07275">
        <ele>7.4</ele>
        <time>2024-03-03T10:56:21Z</time>
      </trkpt>
      <trkpt lat="49.237" lon="-0.07286">
        <ele>7.4</ele>
        <time>2024-03-03T10:56:22Z</time>
      </trkpt>
      <trkpt lat="49.23701" lon="-0.07295">
        <ele>7.4</ele>
        <time>2024-03-03T10:56:23Z</time>
      </trkpt>
      <trkpt lat="49.23703" lon="-0.07305">
        <ele>7.4</ele>
        <time>2024-03-03T10:56:24Z</time>
      </trkpt>
      <trkpt lat="49.23705" lon="-0.07315">
        <ele>7.4</ele>
        <time>2024-03-03T10:56:25Z</time>
      </trkpt>
      <trkpt lat="49.23707" lon="-0.07325">
        <ele>7.4</ele>
        <time>2024-03-03T10:56:26Z</time>
      </trkpt>
      <trkpt lat="49.23709" lon="-0.07335">
        <ele>7.4</ele>
        <time>2024-03-03T10:56:27Z</time>
      </trkpt>
      <trkpt lat="49.2371" lon="-0.07345">
        <ele>7.4</ele>
        <time>2024-03-03T10:56:28Z</time>
      </trkpt>
      <trkpt lat="49.23712" lon="-0.07355">
        <ele>7.4</ele>
        <time>2024-03-03T10:56:29Z</time>
      </trkpt>
      <trkpt lat="49.23713" lon="-0.07365">
        <ele>7.4</ele>
        <time>2024-03-03T10:56:30Z</time>
      </trkpt>
      <trkpt lat="49.23714" lon="-0.07375">
        <ele>7.4</ele>
        <time>2024-03-03T10:56:31Z</time>
      </trkpt>
      <trkpt lat="49.23715" lon="-0.07386">
        <ele>7.4</ele>
        <time>2024-03-03T10:56:32Z</time>
      </trkpt>
      <trkpt lat="49.23716" lon="-0.07396">
        <ele>7.3</ele>
        <time>2024-03-03T10:56:33Z</time>
      </trkpt>
      <trkpt lat="49.23717" lon="-0.07407">
        <ele>7.3</ele>
        <time>2024-03-03T10:56:34Z</time>
      </trkpt>
      <trkpt lat="49.23718" lon="-0.07417">
        <ele>7.3</ele>
        <time>2024-03-03T10:56:35Z</time>
      </trkpt>
      <trkpt lat="49.23718" lon="-0.07428">
        <ele>7.3</ele>
        <time>2024-03-03T10:56:36Z</time>
      </trkpt>
      <trkpt lat="49.23719" lon="-0.07438">
        <ele>7.3</ele>
        <time>2024-03-03T10:56:37Z</time>
      </trkpt>
      <trkpt lat="49.23719" lon="-0.07449">
        <ele>7.3</ele>
        <time>2024-03-03T10:56:38Z</time>
      </trkpt>
      <trkpt lat="49.23719" lon="-0.0746">
        <ele>7.3</ele>
        <time>2024-03-03T10:56:39Z</time>
      </trkpt>
      <trkpt lat="49.23719" lon="-0.0747">
        <ele>7.3</ele>
        <time>2024-03-03T10:56:40Z</time>
      </trkpt>
      <trkpt lat="49.23718" lon="-0.07481">
        <ele>7.3</ele>
        <time>2024-03-03T10:56:41Z</time>
      </trkpt>
      <trkpt lat="49.23717" lon="-0.07491">
        <ele>7.3</ele>
        <time>2024-03-03T10:56:42Z</time>
      </trkpt>
      <trkpt lat="49.23716" lon="-0.07502">
        <ele>7.3</ele>
        <time>2024-03-03T10:56:43Z</time>
      </trkpt>
      <trkpt lat="49.23715" lon="-0.07512">
        <ele>7.3</ele>
        <time>2024-03-03T10:56:44Z</time>
      </trkpt>
      <trkpt lat="49.23714" lon="-0.07523">
        <ele>7.3</ele>
        <time>2024-03-03T10:56:45Z</time>
      </trkpt>
      <trkpt lat="49.23713" lon="-0.07534">
        <ele>7.3</ele>
        <time>2024-03-03T10:56:46Z</time>
      </trkpt>
      <trkpt lat="49.23712" lon="-0.07544">
        <ele>7.3</ele>
        <time>2024-03-03T10:56:47Z</time>
      </trkpt>
      <trkpt lat="49.23712" lon="-0.07555">
        <ele>7.3</ele>
        <time>2024-03-03T10:56:48Z</time>
      </trkpt>
      <trkpt lat="49.23713" lon="-0.07566">
        <ele>7.4</ele>
        <time>2024-03-03T10:56:49Z</time>
      </trkpt>
      <trkpt lat="49.23713" lon="-0.07576">
        <ele>7.4</ele>
        <time>2024-03-03T10:56:50Z</time>
      </trkpt>
      <trkpt lat="49.23714" lon="-0.07587">
        <ele>7.3</ele>
        <time>2024-03-03T10:56:51Z</time>
      </trkpt>
      <trkpt lat="49.23714" lon="-0.07597">
        <ele>7.3</ele>
        <time>2024-03-03T10:56:52Z</time>
      </trkpt>
      <trkpt lat="49.23715" lon="-0.07608">
        <ele>7.3</ele>
        <time>2024-03-03T10:56:53Z</time>
      </trkpt>
      <trkpt lat="49.23715" lon="-0.07618">
        <ele>7.3</ele>
        <time>2024-03-03T10:56:54Z</time>
      </trkpt>
      <trkpt lat="49.23714" lon="-0.07629">
        <ele>7.3</ele>
        <time>2024-03-03T10:56:55Z</time>
      </trkpt>
      <trkpt lat="49.23713" lon="-0.07639">
        <ele>7.3</ele>
        <time>2024-03-03T10:56:56Z</time>
      </trkpt>
      <trkpt lat="49.23712" lon="-0.0765">
        <ele>7.3</ele>
        <time>2024-03-03T10:56:57Z</time>
      </trkpt>
      <trkpt lat="49.23711" lon="-0.0766">
        <ele>7.2</ele>
        <time>2024-03-03T10:56:58Z</time>
      </trkpt>
      <trkpt lat="49.2371" lon="-0.07671">
        <ele>7.2</ele>
        <time>2024-03-03T10:56:59Z</time>
      </trkpt>
      <trkpt lat="49.2371" lon="-0.07682">
        <ele>7.2</ele>
        <time>2024-03-03T10:57:00Z</time>
      </trkpt>
      <trkpt lat="49.2371" lon="-0.07692">
        <ele>7.2</ele>
        <time>2024-03-03T10:57:01Z</time>
      </trkpt>
      <trkpt lat="49.23709" lon="-0.07703">
        <ele>7.2</ele>
        <time>2024-03-03T10:57:02Z</time>
      </trkpt>
      <trkpt lat="49.2371" lon="-0.07714">
        <ele>7.2</ele>
        <time>2024-03-03T10:57:03Z</time>
      </trkpt>
      <trkpt lat="49.23711" lon="-0.07724">
        <ele>7.2</ele>
        <time>2024-03-03T10:57:04Z</time>
      </trkpt>
      <trkpt lat="49.23712" lon="-0.07735">
        <ele>7.2</ele>
        <time>2024-03-03T10:57:05Z</time>
      </trkpt>
      <trkpt lat="49.23714" lon="-0.07745">
        <ele>7.2</ele>
        <time>2024-03-03T10:57:06Z</time>
      </trkpt>
      <trkpt lat="49.23717" lon="-0.07755">
        <ele>7.2</ele>
        <time>2024-03-03T10:57:07Z</time>
      </trkpt>
      <trkpt lat="49.2372" lon="-0.07765">
        <ele>7.2</ele>
        <time>2024-03-03T10:57:08Z</time>
      </trkpt>
      <trkpt lat="49.23724" lon="-0.07775">
        <ele>7.1</ele>
        <time>2024-03-03T10:57:09Z</time>
      </trkpt>
      <trkpt lat="49.23727" lon="-0.07785">
        <ele>7.1</ele>
        <time>2024-03-03T10:57:10Z</time>
      </trkpt>
      <trkpt lat="49.23729" lon="-0.07795">
        <ele>7.1</ele>
        <time>2024-03-03T10:57:11Z</time>
      </trkpt>
      <trkpt lat="49.23732" lon="-0.07805">
        <ele>7</ele>
        <time>2024-03-03T10:57:12Z</time>
      </trkpt>
      <trkpt lat="49.23734" lon="-0.07816">
        <ele>7</ele>
        <time>2024-03-03T10:57:13Z</time>
      </trkpt>
      <trkpt lat="49.23735" lon="-0.07827">
        <ele>6.9</ele>
        <time>2024-03-03T10:57:14Z</time>
      </trkpt>
      <trkpt lat="49.23736" lon="-0.07838">
        <ele>6.9</ele>
        <time>2024-03-03T10:57:15Z</time>
      </trkpt>
      <trkpt lat="49.23735" lon="-0.07849">
        <ele>6.8</ele>
        <time>2024-03-03T10:57:16Z</time>
      </trkpt>
      <trkpt lat="49.23734" lon="-0.0786">
        <ele>6.8</ele>
        <time>2024-03-03T10:57:17Z</time>
      </trkpt>
      <trkpt lat="49.23733" lon="-0.07871">
        <ele>6.8</ele>
        <time>2024-03-03T10:57:18Z</time>
      </trkpt>
      <trkpt lat="49.23732" lon="-0.07882">
        <ele>6.7</ele>
        <time>2024-03-03T10:57:19Z</time>
      </trkpt>
      <trkpt lat="49.2373" lon="-0.07893">
        <ele>6.6</ele>
        <time>2024-03-03T10:57:20Z</time>
      </trkpt>
      <trkpt lat="49.23729" lon="-0.07904">
        <ele>6.6</ele>
        <time>2024-03-03T10:57:21Z</time>
      </trkpt>
      <trkpt lat="49.23728" lon="-0.07916">
        <ele>6.5</ele>
        <time>2024-03-03T10:57:22Z</time>
      </trkpt>
      <trkpt lat="49.23726" lon="-0.07927">
        <ele>6.5</ele>
        <time>2024-03-03T10:57:23Z</time>
      </trkpt>
      <trkpt lat="49.23725" lon="-0.07938">
        <ele>6.5</ele>
        <time>2024-03-03T10:57:24Z</time>
      </trkpt>
      <trkpt lat="49.23723" lon="-0.07949">
        <ele>6.5</ele>
        <time>2024-03-03T10:57:25Z</time>
      </trkpt>
      <trkpt lat="49.23722" lon="-0.0796">
        <ele>6.5</ele>
        <time>2024-03-03T10:57:26Z</time>
      </trkpt>
      <trkpt lat="49.2372" lon="-0.07971">
        <ele>6.5</ele>
        <time>2024-03-03T10:57:27Z</time>
      </trkpt>
      <trkpt lat="49.23718" lon="-0.07983">
        <ele>6.4</ele>
        <time>2024-03-03T10:57:28Z</time>
      </trkpt>
      <trkpt lat="49.23717" lon="-0.07994">
        <ele>6.4</ele>
        <time>2024-03-03T10:57:29Z</time>
      </trkpt>
      <trkpt lat="49.23716" lon="-0.08005">
        <ele>6.4</ele>
        <time>2024-03-03T10:57:30Z</time>
      </trkpt>
      <trkpt lat="49.23715" lon="-0.08017">
        <ele>6.3</ele>
        <time>2024-03-03T10:57:31Z</time>
      </trkpt>
      <trkpt lat="49.23715" lon="-0.08028">
        <ele>6.3</ele>
        <time>2024-03-03T10:57:32Z</time>
      </trkpt>
      <trkpt lat="49.23715" lon="-0.08039">
        <ele>6.3</ele>
        <time>2024-03-03T10:57:33Z</time>
      </trkpt>
      <trkpt lat="49.23716" lon="-0.0805">
        <ele>6.3</ele>
        <time>2024-03-03T10:57:34Z</time>
      </trkpt>
      <trkpt lat="49.23719" lon="-0.0806">
        <ele>6.3</ele>
        <time>2024-03-03T10:57:35Z</time>
      </trkpt>
      <trkpt lat="49.23722" lon="-0.08069">
        <ele>6.2</ele>
        <time>2024-03-03T10:57:36Z</time>
      </trkpt>
      <trkpt lat="49.23727" lon="-0.08077">
        <ele>6.2</ele>
        <time>2024-03-03T10:57:37Z</time>
      </trkpt>
      <trkpt lat="49.23733" lon="-0.08084">
        <ele>6.2</ele>
        <time>2024-03-03T10:57:38Z</time>
      </trkpt>
      <trkpt lat="49.23739" lon="-0.0809">
        <ele>6.2</ele>
        <time>2024-03-03T10:57:39Z</time>
      </trkpt>
      <trkpt lat="49.23744" lon="-0.08096">
        <ele>6.2</ele>
        <time>2024-03-03T10:57:40Z</time>
      </trkpt>
      <trkpt lat="49.2375" lon="-0.08102">
        <ele>6.2</ele>
        <time>2024-03-03T10:57:41Z</time>
      </trkpt>
      <trkpt lat="49.23755" lon="-0.08108">
        <ele>6.3</ele>
        <time>2024-03-03T10:57:42Z</time>
      </trkpt>
      <trkpt lat="49.23761" lon="-0.08114">
        <ele>6.3</ele>
        <time>2024-03-03T10:57:43Z</time>
      </trkpt>
      <trkpt lat="49.23766" lon="-0.0812">
        <ele>6.4</ele>
        <time>2024-03-03T10:57:44Z</time>
      </trkpt>
      <trkpt lat="49.23772" lon="-0.08126">
        <ele>6.4</ele>
        <time>2024-03-03T10:57:45Z</time>
      </trkpt>
      <trkpt lat="49.23778" lon="-0.08132">
        <ele>6.5</ele>
        <time>2024-03-03T10:57:46Z</time>
      </trkpt>
      <trkpt lat="49.23783" lon="-0.08138">
        <ele>6.5</ele>
        <time>2024-03-03T10:57:47Z</time>
      </trkpt>
      <trkpt lat="49.23789" lon="-0.08144">
        <ele>6.6</ele>
        <time>2024-03-03T10:57:48Z</time>
      </trkpt>
      <trkpt lat="49.23794" lon="-0.0815">
        <ele>6.7</ele>
        <time>2024-03-03T10:57:49Z</time>
      </trkpt>
      <trkpt lat="49.23799" lon="-0.08156">
        <ele>6.7</ele>
        <time>2024-03-03T10:57:50Z</time>
      </trkpt>
      <trkpt lat="49.23805" lon="-0.08162">
        <ele>6.8</ele>
        <time>2024-03-03T10:57:51Z</time>
      </trkpt>
      <trkpt lat="49.2381" lon="-0.08169">
        <ele>6.9</ele>
        <time>2024-03-03T10:57:52Z</time>
      </trkpt>
      <trkpt lat="49.23815" lon="-0.08175">
        <ele>7</ele>
        <time>2024-03-03T10:57:53Z</time>
      </trkpt>
      <trkpt lat="49.2382" lon="-0.08182">
        <ele>7.1</ele>
        <time>2024-03-03T10:57:54Z</time>
      </trkpt>
      <trkpt lat="49.23824" lon="-0.08188">
        <ele>7.2</ele>
        <time>2024-03-03T10:57:55Z</time>
      </trkpt>
      <trkpt lat="49.23829" lon="-0.08195">
        <ele>7.4</ele>
        <time>2024-03-03T10:57:56Z</time>
      </trkpt>
      <trkpt lat="49.23834" lon="-0.08201">
        <ele>7.5</ele>
        <time>2024-03-03T10:57:57Z</time>
      </trkpt>
      <trkpt lat="49.23838" lon="-0.08207">
        <ele>7.6</ele>
        <time>2024-03-03T10:57:58Z</time>
      </trkpt>
      <trkpt lat="49.23843" lon="-0.08213">
        <ele>7.7</ele>
        <time>2024-03-03T10:57:59Z</time>
      </trkpt>
      <trkpt lat="49.23848" lon="-0.08219">
        <ele>7.8</ele>
        <time>2024-03-03T10:58:00Z</time>
      </trkpt>
      <trkpt lat="49.23852" lon="-0.08226">
        <ele>7.9</ele>
        <time>2024-03-03T10:58:01Z</time>
      </trkpt>
      <trkpt lat="49.23856" lon="-0.08232">
        <ele>8</ele>
        <time>2024-03-03T10:58:02Z</time>
      </trkpt>
      <trkpt lat="49.23861" lon="-0.08238">
        <ele>8.1</ele>
        <time>2024-03-03T10:58:03Z</time>
      </trkpt>
      <trkpt lat="49.23865" lon="-0.08245">
        <ele>8.1</ele>
        <time>2024-03-03T10:58:04Z</time>
      </trkpt>
      <trkpt lat="49.2387" lon="-0.08252">
        <ele>8.2</ele>
        <time>2024-03-03T10:58:05Z</time>
      </trkpt>
      <trkpt lat="49.23873" lon="-0.08259">
        <ele>8.2</ele>
        <time>2024-03-03T10:58:06Z</time>
      </trkpt>
      <trkpt lat="49.23877" lon="-0.08268">
        <ele>8.2</ele>
        <time>2024-03-03T10:58:07Z</time>
      </trkpt>
      <trkpt lat="49.23879" lon="-0.08278">
        <ele>8.1</ele>
        <time>2024-03-03T10:58:08Z</time>
      </trkpt>
      <trkpt lat="49.23881" lon="-0.08289">
        <ele>8</ele>
        <time>2024-03-03T10:58:09Z</time>
      </trkpt>
      <trkpt lat="49.23882" lon="-0.083">
        <ele>8</ele>
        <time>2024-03-03T10:58:10Z</time>
      </trkpt>
      <trkpt lat="49.23882" lon="-0.08311">
        <ele>7.9</ele>
        <time>2024-03-03T10:58:11Z</time>
      </trkpt>
      <trkpt lat="49.23882" lon="-0.08322">
        <ele>7.8</ele>
        <time>2024-03-03T10:58:12Z</time>
      </trkpt>
      <trkpt lat="49.23882" lon="-0.08334">
        <ele>7.8</ele>
        <time>2024-03-03T10:58:13Z</time>
      </trkpt>
      <trkpt lat="49.23882" lon="-0.08345">
        <ele>7.7</ele>
        <time>2024-03-03T10:58:14Z</time>
      </trkpt>
      <trkpt lat="49.23882" lon="-0.08356">
        <ele>7.7</ele>
        <time>2024-03-03T10:58:15Z</time>
      </trkpt>
      <trkpt lat="49.23881" lon="-0.08367">
        <ele>7.7</ele>
        <time>2024-03-03T10:58:16Z</time>
      </trkpt>
      <trkpt lat="49.23879" lon="-0.08379">
        <ele>7.7</ele>
        <time>2024-03-03T10:58:17Z</time>
      </trkpt>
      <trkpt lat="49.23879" lon="-0.0839">
        <ele>7.7</ele>
        <time>2024-03-03T10:58:18Z</time>
      </trkpt>
      <trkpt lat="49.23878" lon="-0.08401">
        <ele>7.7</ele>
        <time>2024-03-03T10:58:19Z</time>
      </trkpt>
      <trkpt lat="49.23878" lon="-0.08412">
        <ele>7.6</ele>
        <time>2024-03-03T10:58:20Z</time>
      </trkpt>
      <trkpt lat="49.23878" lon="-0.08423">
        <ele>7.6</ele>
        <time>2024-03-03T10:58:21Z</time>
      </trkpt>
      <trkpt lat="49.2388" lon="-0.08434">
        <ele>7.6</ele>
        <time>2024-03-03T10:58:22Z</time>
      </trkpt>
      <trkpt lat="49.23881" lon="-0.08445">
        <ele>7.6</ele>
        <time>2024-03-03T10:58:23Z</time>
      </trkpt>
      <trkpt lat="49.23883" lon="-0.08455">
        <ele>7.5</ele>
        <time>2024-03-03T10:58:24Z</time>
      </trkpt>
      <trkpt lat="49.23885" lon="-0.08466">
        <ele>7.5</ele>
        <time>2024-03-03T10:58:25Z</time>
      </trkpt>
      <trkpt lat="49.23887" lon="-0.08476">
        <ele>7.5</ele>
        <time>2024-03-03T10:58:26Z</time>
      </trkpt>
      <trkpt lat="49.2389" lon="-0.08486">
        <ele>7.5</ele>
        <time>2024-03-03T10:58:27Z</time>
      </trkpt>
      <trkpt lat="49.23892" lon="-0.08497">
        <ele>7.5</ele>
        <time>2024-03-03T10:58:28Z</time>
      </trkpt>
      <trkpt lat="49.23895" lon="-0.08507">
        <ele>7.6</ele>
        <time>2024-03-03T10:58:29Z</time>
      </trkpt>
      <trkpt lat="49.23898" lon="-0.08516">
        <ele>7.6</ele>
        <time>2024-03-03T10:58:30Z</time>
      </trkpt>
      <trkpt lat="49.23902" lon="-0.08526">
        <ele>7.6</ele>
        <time>2024-03-03T10:58:31Z</time>
      </trkpt>
      <trkpt lat="49.23904" lon="-0.08536">
        <ele>7.6</ele>
        <time>2024-03-03T10:58:32Z</time>
      </trkpt>
      <trkpt lat="49.23907" lon="-0.08546">
        <ele>7.6</ele>
        <time>2024-03-03T10:58:33Z</time>
      </trkpt>
      <trkpt lat="49.2391" lon="-0.08556">
        <ele>7.6</ele>
        <time>2024-03-03T10:58:34Z</time>
      </trkpt>
      <trkpt lat="49.23913" lon="-0.08566">
        <ele>7.6</ele>
        <time>2024-03-03T10:58:35Z</time>
      </trkpt>
      <trkpt lat="49.23915" lon="-0.08576">
        <ele>7.6</ele>
        <time>2024-03-03T10:58:36Z</time>
      </trkpt>
      <trkpt lat="49.23917" lon="-0.08586">
        <ele>7.6</ele>
        <time>2024-03-03T10:58:37Z</time>
      </trkpt>
      <trkpt lat="49.23919" lon="-0.08597">
        <ele>7.6</ele>
        <time>2024-03-03T10:58:38Z</time>
      </trkpt>
      <trkpt lat="49.2392" lon="-0.08608">
        <ele>7.6</ele>
        <time>2024-03-03T10:58:39Z</time>
      </trkpt>
      <trkpt lat="49.23921" lon="-0.08619">
        <ele>7.5</ele>
        <time>2024-03-03T10:58:40Z</time>
      </trkpt>
      <trkpt lat="49.23922" lon="-0.0863">
        <ele>7.5</ele>
        <time>2024-03-03T10:58:41Z</time>
      </trkpt>
      <trkpt lat="49.23923" lon="-0.08641">
        <ele>7.5</ele>
        <time>2024-03-03T10:58:42Z</time>
      </trkpt>
      <trkpt lat="49.23924" lon="-0.08652">
        <ele>7.5</ele>
        <time>2024-03-03T10:58:43Z</time>
      </trkpt>
      <trkpt lat="49.23925" lon="-0.08662">
        <ele>7.5</ele>
        <time>2024-03-03T10:58:44Z</time>
      </trkpt>
      <trkpt lat="49.23927" lon="-0.08672">
        <ele>7.5</ele>
        <time>2024-03-03T10:58:45Z</time>
      </trkpt>
      <trkpt lat="49.23928" lon="-0.08683">
        <ele>7.4</ele>
        <time>2024-03-03T10:58:46Z</time>
      </trkpt>
      <trkpt lat="49.23929" lon="-0.08693">
        <ele>7.4</ele>
        <time>2024-03-03T10:58:47Z</time>
      </trkpt>
      <trkpt lat="49.23931" lon="-0.08703">
        <ele>7.4</ele>
        <time>2024-03-03T10:58:48Z</time>
      </trkpt>
      <trkpt lat="49.23933" lon="-0.08713">
        <ele>7.4</ele>
        <time>2024-03-03T10:58:49Z</time>
      </trkpt>
      <trkpt lat="49.23935" lon="-0.08724">
        <ele>7.4</ele>
        <time>2024-03-03T10:58:50Z</time>
      </trkpt>
      <trkpt lat="49.23938" lon="-0.08734">
        <ele>7.4</ele>
        <time>2024-03-03T10:58:51Z</time>
      </trkpt>
      <trkpt lat="49.2394" lon="-0.08744">
        <ele>7.4</ele>
        <time>2024-03-03T10:58:52Z</time>
      </trkpt>
      <trkpt lat="49.23943" lon="-0.08754">
        <ele>7.4</ele>
        <time>2024-03-03T10:58:53Z</time>
      </trkpt>
      <trkpt lat="49.23946" lon="-0.08764">
        <ele>7.4</ele>
        <time>2024-03-03T10:58:54Z</time>
      </trkpt>
      <trkpt lat="49.23948" lon="-0.08774">
        <ele>7.4</ele>
        <time>2024-03-03T10:58:55Z</time>
      </trkpt>
      <trkpt lat="49.2395" lon="-0.08785">
        <ele>7.4</ele>
        <time>2024-03-03T10:58:56Z</time>
      </trkpt>
      <trkpt lat="49.23952" lon="-0.08795">
        <ele>7.4</ele>
        <time>2024-03-03T10:58:57Z</time>
      </trkpt>
      <trkpt lat="49.23954" lon="-0.08806">
        <ele>7.4</ele>
        <time>2024-03-03T10:58:58Z</time>
      </trkpt>
      <trkpt lat="49.23956" lon="-0.08816">
        <ele>7.4</ele>
        <time>2024-03-03T10:58:59Z</time>
      </trkpt>
      <trkpt lat="49.23957" lon="-0.08827">
        <ele>7.3</ele>
        <time>2024-03-03T10:59:00Z</time>
      </trkpt>
      <trkpt lat="49.23959" lon="-0.08838">
        <ele>7.3</ele>
        <time>2024-03-03T10:59:01Z</time>
      </trkpt>
      <trkpt lat="49.2396" lon="-0.08848">
        <ele>7.3</ele>
        <time>2024-03-03T10:59:02Z</time>
      </trkpt>
      <trkpt lat="49.23962" lon="-0.08859">
        <ele>7.3</ele>
        <time>2024-03-03T10:59:03Z</time>
      </trkpt>
      <trkpt lat="49.23963" lon="-0.0887">
        <ele>7.2</ele>
        <time>2024-03-03T10:59:04Z</time>
      </trkpt>
      <trkpt lat="49.23965" lon="-0.08881">
        <ele>7.2</ele>
        <time>2024-03-03T10:59:05Z</time>
      </trkpt>
      <trkpt lat="49.23966" lon="-0.08891">
        <ele>7.2</ele>
        <time>2024-03-03T10:59:06Z</time>
      </trkpt>
      <trkpt lat="49.23967" lon="-0.08902">
        <ele>7.2</ele>
        <time>2024-03-03T10:59:07Z</time>
      </trkpt>
      <trkpt lat="49.23969" lon="-0.08912">
        <ele>7.2</ele>
        <time>2024-03-03T10:59:08Z</time>
      </trkpt>
      <trkpt lat="49.23972" lon="-0.08923">
        <ele>7.2</ele>
        <time>2024-03-03T10:59:09Z</time>
      </trkpt>
      <trkpt lat="49.23975" lon="-0.08933">
        <ele>7.1</ele>
        <time>2024-03-03T10:59:10Z</time>
      </trkpt>
      <trkpt lat="49.23978" lon="-0.08942">
        <ele>7.1</ele>
        <time>2024-03-03T10:59:11Z</time>
      </trkpt>
      <trkpt lat="49.23982" lon="-0.08951">
        <ele>7.1</ele>
        <time>2024-03-03T10:59:12Z</time>
      </trkpt>
      <trkpt lat="49.23987" lon="-0.08959">
        <ele>7.1</ele>
        <time>2024-03-03T10:59:13Z</time>
      </trkpt>
      <trkpt lat="49.23992" lon="-0.08967">
        <ele>7</ele>
        <time>2024-03-03T10:59:14Z</time>
      </trkpt>
      <trkpt lat="49.23997" lon="-0.08975">
        <ele>7</ele>
        <time>2024-03-03T10:59:15Z</time>
      </trkpt>
      <trkpt lat="49.24002" lon="-0.08982">
        <ele>7</ele>
        <time>2024-03-03T10:59:16Z</time>
      </trkpt>
      <trkpt lat="49.24007" lon="-0.0899">
        <ele>7</ele>
        <time>2024-03-03T10:59:17Z</time>
      </trkpt>
      <trkpt lat="49.24012" lon="-0.08997">
        <ele>7</ele>
        <time>2024-03-03T10:59:18Z</time>
      </trkpt>
      <trkpt lat="49.24018" lon="-0.09004">
        <ele>7</ele>
        <time>2024-03-03T10:59:19Z</time>
      </trkpt>
      <trkpt lat="49.24023" lon="-0.09009">
        <ele>7</ele>
        <time>2024-03-03T10:59:20Z</time>
      </trkpt>
      <trkpt lat="49.24029" lon="-0.09014">
        <ele>7.1</ele>
        <time>2024-03-03T10:59:21Z</time>
      </trkpt>
      <trkpt lat="49.24035" lon="-0.09019">
        <ele>7.1</ele>
        <time>2024-03-03T10:59:22Z</time>
      </trkpt>
      <trkpt lat="49.24041" lon="-0.09024">
        <ele>7.1</ele>
        <time>2024-03-03T10:59:23Z</time>
      </trkpt>
      <trkpt lat="49.24047" lon="-0.09028">
        <ele>7.1</ele>
        <time>2024-03-03T10:59:24Z</time>
      </trkpt>
      <trkpt lat="49.24054" lon="-0.09033">
        <ele>7.1</ele>
        <time>2024-03-03T10:59:25Z</time>
      </trkpt>
      <trkpt lat="49.2406" lon="-0.09037">
        <ele>7.1</ele>
        <time>2024-03-03T10:59:26Z</time>
      </trkpt>
      <trkpt lat="49.24068" lon="-0.09041">
        <ele>7.1</ele>
        <time>2024-03-03T10:59:27Z</time>
      </trkpt>
      <trkpt lat="49.24074" lon="-0.09046">
        <ele>7.1</ele>
        <time>2024-03-03T10:59:28Z</time>
      </trkpt>
      <trkpt lat="49.24081" lon="-0.09053">
        <ele>7.2</ele>
        <time>2024-03-03T10:59:29Z</time>
      </trkpt>
      <trkpt lat="49.24086" lon="-0.0906">
        <ele>7.2</ele>
        <time>2024-03-03T10:59:30Z</time>
      </trkpt>
      <trkpt lat="49.24091" lon="-0.09069">
        <ele>7.2</ele>
        <time>2024-03-03T10:59:31Z</time>
      </trkpt>
      <trkpt lat="49.24095" lon="-0.09079">
        <ele>7.2</ele>
        <time>2024-03-03T10:59:32Z</time>
      </trkpt>
      <trkpt lat="49.24099" lon="-0.09088">
        <ele>7.2</ele>
        <time>2024-03-03T10:59:33Z</time>
      </trkpt>
      <trkpt lat="49.24102" lon="-0.09098">
        <ele>7.2</ele>
        <time>2024-03-03T10:59:34Z</time>
      </trkpt>
      <trkpt lat="49.24105" lon="-0.09108">
        <ele>7.2</ele>
        <time>2024-03-03T10:59:35Z</time>
      </trkpt>
      <trkpt lat="49.24107" lon="-0.09117">
        <ele>7.2</ele>
        <time>2024-03-03T10:59:36Z</time>
      </trkpt>
      <trkpt lat="49.2411" lon="-0.09127">
        <ele>7.2</ele>
        <time>2024-03-03T10:59:37Z</time>
      </trkpt>
      <trkpt lat="49.24113" lon="-0.09137">
        <ele>7.2</ele>
        <time>2024-03-03T10:59:38Z</time>
      </trkpt>
      <trkpt lat="49.24116" lon="-0.09147">
        <ele>7.2</ele>
        <time>2024-03-03T10:59:39Z</time>
      </trkpt>
      <trkpt lat="49.24119" lon="-0.09157">
        <ele>7.3</ele>
        <time>2024-03-03T10:59:40Z</time>
      </trkpt>
      <trkpt lat="49.24122" lon="-0.09167">
        <ele>7.3</ele>
        <time>2024-03-03T10:59:41Z</time>
      </trkpt>
      <trkpt lat="49.24124" lon="-0.09177">
        <ele>7.3</ele>
        <time>2024-03-03T10:59:42Z</time>
      </trkpt>
      <trkpt lat="49.24126" lon="-0.09187">
        <ele>7.3</ele>
        <time>2024-03-03T10:59:43Z</time>
      </trkpt>
      <trkpt lat="49.24128" lon="-0.09197">
        <ele>7.3</ele>
        <time>2024-03-03T10:59:44Z</time>
      </trkpt>
      <trkpt lat="49.2413" lon="-0.09207">
        <ele>7.3</ele>
        <time>2024-03-03T10:59:45Z</time>
      </trkpt>
      <trkpt lat="49.24132" lon="-0.09218">
        <ele>7.3</ele>
        <time>2024-03-03T10:59:46Z</time>
      </trkpt>
      <trkpt lat="49.24133" lon="-0.09228">
        <ele>7.4</ele>
        <time>2024-03-03T10:59:47Z</time>
      </trkpt>
      <trkpt lat="49.24135" lon="-0.09239">
        <ele>7.4</ele>
        <time>2024-03-03T10:59:48Z</time>
      </trkpt>
      <trkpt lat="49.24136" lon="-0.09249">
        <ele>7.4</ele>
        <time>2024-03-03T10:59:49Z</time>
      </trkpt>
      <trkpt lat="49.24137" lon="-0.09259">
        <ele>7.4</ele>
        <time>2024-03-03T10:59:50Z</time>
      </trkpt>
      <trkpt lat="49.24139" lon="-0.09269">
        <ele>7.4</ele>
        <time>2024-03-03T10:59:51Z</time>
      </trkpt>
      <trkpt lat="49.2414" lon="-0.0928">
        <ele>7.4</ele>
        <time>2024-03-03T10:59:52Z</time>
      </trkpt>
      <trkpt lat="49.24141" lon="-0.09291">
        <ele>7.5</ele>
        <time>2024-03-03T10:59:53Z</time>
      </trkpt>
      <trkpt lat="49.24142" lon="-0.09301">
        <ele>7.5</ele>
        <time>2024-03-03T10:59:54Z</time>
      </trkpt>
      <trkpt lat="49.24143" lon="-0.09311">
        <ele>7.5</ele>
        <time>2024-03-03T10:59:55Z</time>
      </trkpt>
      <trkpt lat="49.24144" lon="-0.09322">
        <ele>7.6</ele>
        <time>2024-03-03T10:59:56Z</time>
      </trkpt>
      <trkpt lat="49.24145" lon="-0.09332">
        <ele>7.6</ele>
        <time>2024-03-03T10:59:57Z</time>
      </trkpt>
      <trkpt lat="49.24147" lon="-0.09342">
        <ele>7.7</ele>
        <time>2024-03-03T10:59:58Z</time>
      </trkpt>
      <trkpt lat="49.24148" lon="-0.09352">
        <ele>7.8</ele>
        <time>2024-03-03T10:59:59Z</time>
      </trkpt>
      <trkpt lat="49.24149" lon="-0.09363">
        <ele>7.8</ele>
        <time>2024-03-03T11:00:00Z</time>
      </trkpt>
      <trkpt lat="49.2415" lon="-0.09374">
        <ele>7.8</ele>
        <time>2024-03-03T11:00:01Z</time>
      </trkpt>
      <trkpt lat="49.24151" lon="-0.09384">
        <ele>7.9</ele>
        <time>2024-03-03T11:00:02Z</time>
      </trkpt>
      <trkpt lat="49.24152" lon="-0.09394">
        <ele>7.9</ele>
        <time>2024-03-03T11:00:03Z</time>
      </trkpt>
      <trkpt lat="49.24154" lon="-0.09404">
        <ele>8</ele>
        <time>2024-03-03T11:00:04Z</time>
      </trkpt>
      <trkpt lat="49.24155" lon="-0.09415">
        <ele>8</ele>
        <time>2024-03-03T11:00:05Z</time>
      </trkpt>
      <trkpt lat="49.24157" lon="-0.09425">
        <ele>8</ele>
        <time>2024-03-03T11:00:06Z</time>
      </trkpt>
      <trkpt lat="49.24159" lon="-0.09436">
        <ele>8.1</ele>
        <time>2024-03-03T11:00:07Z</time>
      </trkpt>
      <trkpt lat="49.2416" lon="-0.09446">
        <ele>8.1</ele>
        <time>2024-03-03T11:00:08Z</time>
      </trkpt>
      <trkpt lat="49.24162" lon="-0.09456">
        <ele>8.1</ele>
        <time>2024-03-03T11:00:09Z</time>
      </trkpt>
      <trkpt lat="49.24164" lon="-0.09467">
        <ele>8.2</ele>
        <time>2024-03-03T11:00:10Z</time>
      </trkpt>
      <trkpt lat="49.24166" lon="-0.09477">
        <ele>8.3</ele>
        <time>2024-03-03T11:00:11Z</time>
      </trkpt>
      <trkpt lat="49.24168" lon="-0.09487">
        <ele>8.3</ele>
        <time>2024-03-03T11:00:12Z</time>
      </trkpt>
      <trkpt lat="49.24171" lon="-0.09496">
        <ele>8.4</ele>
        <time>2024-03-03T11:00:13Z</time>
      </trkpt>
      <trkpt lat="49.24174" lon="-0.09506">
        <ele>8.4</ele>
        <time>2024-03-03T11:00:14Z</time>
      </trkpt>
      <trkpt lat="49.24177" lon="-0.09515">
        <ele>8.5</ele>
        <time>2024-03-03T11:00:15Z</time>
      </trkpt>
      <trkpt lat="49.24181" lon="-0.09523">
        <ele>8.5</ele>
        <time>2024-03-03T11:00:16Z</time>
      </trkpt>
      <trkpt lat="49.24185" lon="-0.09532">
        <ele>8.5</ele>
        <time>2024-03-03T11:00:17Z</time>
      </trkpt>
      <trkpt lat="49.24189" lon="-0.0954">
        <ele>8.5</ele>
        <time>2024-03-03T11:00:18Z</time>
      </trkpt>
      <trkpt lat="49.24194" lon="-0.09549">
        <ele>8.5</ele>
        <time>2024-03-03T11:00:19Z</time>
      </trkpt>
      <trkpt lat="49.24199" lon="-0.09557">
        <ele>8.5</ele>
        <time>2024-03-03T11:00:20Z</time>
      </trkpt>
      <trkpt lat="49.24204" lon="-0.09565">
        <ele>8.5</ele>
        <time>2024-03-03T11:00:21Z</time>
      </trkpt>
      <trkpt lat="49.24209" lon="-0.09572">
        <ele>8.5</ele>
        <time>2024-03-03T11:00:22Z</time>
      </trkpt>
      <trkpt lat="49.24215" lon="-0.09579">
        <ele>8.4</ele>
        <time>2024-03-03T11:00:23Z</time>
      </trkpt>
      <trkpt lat="49.2422" lon="-0.09587">
        <ele>8.4</ele>
        <time>2024-03-03T11:00:24Z</time>
      </trkpt>
      <trkpt lat="49.24226" lon="-0.09594">
        <ele>8.4</ele>
        <time>2024-03-03T11:00:25Z</time>
      </trkpt>
      <trkpt lat="49.24232" lon="-0.096">
        <ele>8.4</ele>
        <time>2024-03-03T11:00:26Z</time>
      </trkpt>
      <trkpt lat="49.24238" lon="-0.09606">
        <ele>8.4</ele>
        <time>2024-03-03T11:00:27Z</time>
      </trkpt>
      <trkpt lat="49.24245" lon="-0.09612">
        <ele>8.3</ele>
        <time>2024-03-03T11:00:28Z</time>
      </trkpt>
      <trkpt lat="49.24251" lon="-0.09619">
        <ele>8.2</ele>
        <time>2024-03-03T11:00:29Z</time>
      </trkpt>
      <trkpt lat="49.24257" lon="-0.09625">
        <ele>8.1</ele>
        <time>2024-03-03T11:00:30Z</time>
      </trkpt>
      <trkpt lat="49.24263" lon="-0.09631">
        <ele>8.1</ele>
        <time>2024-03-03T11:00:31Z</time>
      </trkpt>
      <trkpt lat="49.24269" lon="-0.09638">
        <ele>8</ele>
        <time>2024-03-03T11:00:32Z</time>
      </trkpt>
      <trkpt lat="49.24275" lon="-0.09644">
        <ele>7.9</ele>
        <time>2024-03-03T11:00:33Z</time>
      </trkpt>
      <trkpt lat="49.2428" lon="-0.0965">
        <ele>7.9</ele>
        <time>2024-03-03T11:00:34Z</time>
      </trkpt>
      <trkpt lat="49.24286" lon="-0.09657">
        <ele>7.8</ele>
        <time>2024-03-03T11:00:35Z</time>
      </trkpt>
      <trkpt lat="49.24292" lon="-0.09663">
        <ele>7.8</ele>
        <time>2024-03-03T11:00:36Z</time>
      </trkpt>
      <trkpt lat="49.24298" lon="-0.0967">
        <ele>7.8</ele>
        <time>2024-03-03T11:00:37Z</time>
      </trkpt>
      <trkpt lat="49.24304" lon="-0.09676">
        <ele>7.8</ele>
        <time>2024-03-03T11:00:38Z</time>
      </trkpt>
      <trkpt lat="49.2431" lon="-0.09682">
        <ele>7.8</ele>
        <time>2024-03-03T11:00:39Z</time>
      </trkpt>
      <trkpt lat="49.24316" lon="-0.09688">
        <ele>7.8</ele>
        <time>2024-03-03T11:00:40Z</time>
      </trkpt>
      <trkpt lat="49.24322" lon="-0.09695">
        <ele>7.9</ele>
        <time>2024-03-03T11:00:41Z</time>
      </trkpt>
      <trkpt lat="49.24328" lon="-0.09701">
        <ele>7.9</ele>
        <time>2024-03-03T11:00:42Z</time>
      </trkpt>
      <trkpt lat="49.24334" lon="-0.09707">
        <ele>8.1</ele>
        <time>2024-03-03T11:00:43Z</time>
      </trkpt>
      <trkpt lat="49.24339" lon="-0.09712">
        <ele>8.2</ele>
        <time>2024-03-03T11:00:44Z</time>
      </trkpt>
      <trkpt lat="49.24344" lon="-0.09718">
        <ele>8.4</ele>
        <time>2024-03-03T11:00:45Z</time>
      </trkpt>
      <trkpt lat="49.2435" lon="-0.09724">
        <ele>8.5</ele>
        <time>2024-03-03T11:00:46Z</time>
      </trkpt>
      <trkpt lat="49.24355" lon="-0.0973">
        <ele>8.7</ele>
        <time>2024-03-03T11:00:47Z</time>
      </trkpt>
      <trkpt lat="49.2436" lon="-0.09735">
        <ele>8.8</ele>
        <time>2024-03-03T11:00:48Z</time>
      </trkpt>
      <trkpt lat="49.24365" lon="-0.09742">
        <ele>9</ele>
        <time>2024-03-03T11:00:49Z</time>
      </trkpt>
      <trkpt lat="49.24369" lon="-0.09748">
        <ele>9.2</ele>
        <time>2024-03-03T11:00:50Z</time>
      </trkpt>
      <trkpt lat="49.24374" lon="-0.09755">
        <ele>9.4</ele>
        <time>2024-03-03T11:00:51Z</time>
      </trkpt>
      <trkpt lat="49.24378" lon="-0.09762">
        <ele>9.6</ele>
        <time>2024-03-03T11:00:52Z</time>
      </trkpt>
      <trkpt lat="49.24382" lon="-0.09769">
        <ele>9.7</ele>
        <time>2024-03-03T11:00:53Z</time>
      </trkpt>
      <trkpt lat="49.24386" lon="-0.09776">
        <ele>9.9</ele>
        <time>2024-03-03T11:00:54Z</time>
      </trkpt>
      <trkpt lat="49.24389" lon="-0.09784">
        <ele>10.1</ele>
        <time>2024-03-03T11:00:55Z</time>
      </trkpt>
      <trkpt lat="49.24392" lon="-0.09793">
        <ele>10.3</ele>
        <time>2024-03-03T11:00:56Z</time>
      </trkpt>
      <trkpt lat="49.24395" lon="-0.09801">
        <ele>10.5</ele>
        <time>2024-03-03T11:00:57Z</time>
      </trkpt>
      <trkpt lat="49.24398" lon="-0.0981">
        <ele>10.7</ele>
        <time>2024-03-03T11:00:58Z</time>
      </trkpt>
      <trkpt lat="49.244" lon="-0.09819">
        <ele>10.8</ele>
        <time>2024-03-03T11:00:59Z</time>
      </trkpt>
      <trkpt lat="49.24403" lon="-0.09828">
        <ele>11</ele>
        <time>2024-03-03T11:01:00Z</time>
      </trkpt>
      <trkpt lat="49.24405" lon="-0.09837">
        <ele>11.1</ele>
        <time>2024-03-03T11:01:01Z</time>
      </trkpt>
      <trkpt lat="49.24408" lon="-0.09846">
        <ele>11.3</ele>
        <time>2024-03-03T11:01:02Z</time>
      </trkpt>
      <trkpt lat="49.24409" lon="-0.09854">
        <ele>11.4</ele>
        <time>2024-03-03T11:01:03Z</time>
      </trkpt>
      <trkpt lat="49.24411" lon="-0.09863">
        <ele>11.6</ele>
        <time>2024-03-03T11:01:04Z</time>
      </trkpt>
      <trkpt lat="49.24413" lon="-0.09871">
        <ele>11.7</ele>
        <time>2024-03-03T11:01:05Z</time>
      </trkpt>
      <trkpt lat="49.24415" lon="-0.09881">
        <ele>11.8</ele>
        <time>2024-03-03T11:01:06Z</time>
      </trkpt>
      <trkpt lat="49.24417" lon="-0.09889">
        <ele>11.9</ele>
        <time>2024-03-03T11:01:07Z</time>
      </trkpt>
      <trkpt lat="49.24419" lon="-0.09897">
        <ele>12</ele>
        <time>2024-03-03T11:01:08Z</time>
      </trkpt>
      <trkpt lat="49.24421" lon="-0.09906">
        <ele>12.1</ele>
        <time>2024-03-03T11:01:09Z</time>
      </trkpt>
      <trkpt lat="49.24423" lon="-0.09915">
        <ele>12.2</ele>
        <time>2024-03-03T11:01:10Z</time>
      </trkpt>
      <trkpt lat="49.24425" lon="-0.09923">
        <ele>12.2</ele>
        <time>2024-03-03T11:01:11Z</time>
      </trkpt>
      <trkpt lat="49.24427" lon="-0.09932">
        <ele>12.3</ele>
        <time>2024-03-03T11:01:12Z</time>
      </trkpt>
      <trkpt lat="49.2443" lon="-0.09941">
        <ele>12.2</ele>
        <time>2024-03-03T11:01:13Z</time>
      </trkpt>
      <trkpt lat="49.24433" lon="-0.0995">
        <ele>12.2</ele>
        <time>2024-03-03T11:01:14Z</time>
      </trkpt>
      <trkpt lat="49.24436" lon="-0.09959">
        <ele>12.1</ele>
        <time>2024-03-03T11:01:15Z</time>
      </trkpt>
      <trkpt lat="49.24441" lon="-0.09969">
        <ele>11.9</ele>
        <time>2024-03-03T11:01:16Z</time>
      </trkpt>
      <trkpt lat="49.24445" lon="-0.09978">
        <ele>11.7</ele>
        <time>2024-03-03T11:01:17Z</time>
      </trkpt>
      <trkpt lat="49.2445" lon="-0.09986">
        <ele>11.4</ele>
        <time>2024-03-03T11:01:18Z</time>
      </trkpt>
      <trkpt lat="49.24456" lon="-0.09993">
        <ele>11.2</ele>
        <time>2024-03-03T11:01:19Z</time>
      </trkpt>
      <trkpt lat="49.24462" lon="-0.1">
        <ele>10.9</ele>
        <time>2024-03-03T11:01:20Z</time>
      </trkpt>
      <trkpt lat="49.24468" lon="-0.10006">
        <ele>10.6</ele>
        <time>2024-03-03T11:01:21Z</time>
      </trkpt>
      <trkpt lat="49.24474" lon="-0.10011">
        <ele>10.3</ele>
        <time>2024-03-03T11:01:22Z</time>
      </trkpt>
      <trkpt lat="49.24481" lon="-0.10017">
        <ele>10</ele>
        <time>2024-03-03T11:01:23Z</time>
      </trkpt>
      <trkpt lat="49.24488" lon="-0.10023">
        <ele>9.7</ele>
        <time>2024-03-03T11:01:24Z</time>
      </trkpt>
      <trkpt lat="49.24495" lon="-0.10029">
        <ele>9.4</ele>
        <time>2024-03-03T11:01:25Z</time>
      </trkpt>
      <trkpt lat="49.24503" lon="-0.10036">
        <ele>9</ele>
        <time>2024-03-03T11:01:26Z</time>
      </trkpt>
      <trkpt lat="49.2451" lon="-0.10042">
        <ele>8.6</ele>
        <time>2024-03-03T11:01:27Z</time>
      </trkpt>
      <trkpt lat="49.24518" lon="-0.10048">
        <ele>8.3</ele>
        <time>2024-03-03T11:01:28Z</time>
      </trkpt>
      <trkpt lat="49.24525" lon="-0.10053">
        <ele>7.9</ele>
        <time>2024-03-03T11:01:29Z</time>
      </trkpt>
      <trkpt lat="49.24532" lon="-0.10059">
        <ele>7.6</ele>
        <time>2024-03-03T11:01:30Z</time>
      </trkpt>
      <trkpt lat="49.2454" lon="-0.10065">
        <ele>7.2</ele>
        <time>2024-03-03T11:01:31Z</time>
      </trkpt>
      <trkpt lat="49.24548" lon="-0.10071">
        <ele>6.9</ele>
        <time>2024-03-03T11:01:32Z</time>
      </trkpt>
      <trkpt lat="49.24555" lon="-0.10077">
        <ele>6.6</ele>
        <time>2024-03-03T11:01:33Z</time>
      </trkpt>
      <trkpt lat="49.24563" lon="-0.10083">
        <ele>6.3</ele>
        <time>2024-03-03T11:01:34Z</time>
      </trkpt>
      <trkpt lat="49.24571" lon="-0.10089">
        <ele>6.2</ele>
        <time>2024-03-03T11:01:35Z</time>
      </trkpt>
      <trkpt lat="49.24579" lon="-0.10095">
        <ele>5.9</ele>
        <time>2024-03-03T11:01:36Z</time>
      </trkpt>
      <trkpt lat="49.24587" lon="-0.10101">
        <ele>5.5</ele>
        <time>2024-03-03T11:01:37Z</time>
      </trkpt>
      <trkpt lat="49.24595" lon="-0.10106">
        <ele>5.3</ele>
        <time>2024-03-03T11:01:38Z</time>
      </trkpt>
      <trkpt lat="49.24603" lon="-0.10112">
        <ele>5</ele>
        <time>2024-03-03T11:01:39Z</time>
      </trkpt>
      <trkpt lat="49.24611" lon="-0.10117">
        <ele>4.7</ele>
        <time>2024-03-03T11:01:40Z</time>
      </trkpt>
      <trkpt lat="49.24618" lon="-0.10123">
        <ele>4.5</ele>
        <time>2024-03-03T11:01:41Z</time>
      </trkpt>
      <trkpt lat="49.24626" lon="-0.10129">
        <ele>4.4</ele>
        <time>2024-03-03T11:01:42Z</time>
      </trkpt>
      <trkpt lat="49.24634" lon="-0.10135">
        <ele>4.3</ele>
        <time>2024-03-03T11:01:43Z</time>
      </trkpt>
      <trkpt lat="49.24641" lon="-0.10141">
        <ele>4.2</ele>
        <time>2024-03-03T11:01:44Z</time>
      </trkpt>
      <trkpt lat="49.24649" lon="-0.10147">
        <ele>4.2</ele>
        <time>2024-03-03T11:01:45Z</time>
      </trkpt>
      <trkpt lat="49.24657" lon="-0.10153">
        <ele>4.2</ele>
        <time>2024-03-03T11:01:46Z</time>
      </trkpt>
      <trkpt lat="49.24664" lon="-0.10158">
        <ele>4.2</ele>
        <time>2024-03-03T11:01:47Z</time>
      </trkpt>
      <trkpt lat="49.24671" lon="-0.10163">
        <ele>4.2</ele>
        <time>2024-03-03T11:01:48Z</time>
      </trkpt>
      <trkpt lat="49.24678" lon="-0.10168">
        <ele>4.2</ele>
        <time>2024-03-03T11:01:49Z</time>
      </trkpt>
      <trkpt lat="49.24685" lon="-0.10174">
        <ele>4.2</ele>
        <time>2024-03-03T11:01:50Z</time>
      </trkpt>
      <trkpt lat="49.24692" lon="-0.10179">
        <ele>4.3</ele>
        <time>2024-03-03T11:01:51Z</time>
      </trkpt>
      <trkpt lat="49.24699" lon="-0.10185">
        <ele>4.3</ele>
        <time>2024-03-03T11:01:52Z</time>
      </trkpt>
      <trkpt lat="49.24706" lon="-0.1019">
        <ele>4.4</ele>
        <time>2024-03-03T11:01:53Z</time>
      </trkpt>
      <trkpt lat="49.24714" lon="-0.10196">
        <ele>4.4</ele>
        <time>2024-03-03T11:01:54Z</time>
      </trkpt>
      <trkpt lat="49.2472" lon="-0.10201">
        <ele>4.5</ele>
        <time>2024-03-03T11:01:55Z</time>
      </trkpt>
      <trkpt lat="49.24727" lon="-0.10206">
        <ele>4.6</ele>
        <time>2024-03-03T11:01:56Z</time>
      </trkpt>
      <trkpt lat="49.24734" lon="-0.10211">
        <ele>4.7</ele>
        <time>2024-03-03T11:01:57Z</time>
      </trkpt>
      <trkpt lat="49.24741" lon="-0.10217">
        <ele>4.8</ele>
        <time>2024-03-03T11:01:58Z</time>
      </trkpt>
      <trkpt lat="49.24748" lon="-0.10223">
        <ele>4.8</ele>
        <time>2024-03-03T11:01:59Z</time>
      </trkpt>
      <trkpt lat="49.24754" lon="-0.10228">
        <ele>4.9</ele>
        <time>2024-03-03T11:02:00Z</time>
      </trkpt>
      <trkpt lat="49.24761" lon="-0.10233">
        <ele>5</ele>
        <time>2024-03-03T11:02:01Z</time>
      </trkpt>
      <trkpt lat="49.24768" lon="-0.10238">
        <ele>5.2</ele>
        <time>2024-03-03T11:02:02Z</time>
      </trkpt>
      <trkpt lat="49.24775" lon="-0.10243">
        <ele>5.3</ele>
        <time>2024-03-03T11:02:03Z</time>
      </trkpt>
      <trkpt lat="49.24781" lon="-0.10248">
        <ele>5.4</ele>
        <time>2024-03-03T11:02:04Z</time>
      </trkpt>
      <trkpt lat="49.24788" lon="-0.10253">
        <ele>5.5</ele>
        <time>2024-03-03T11:02:05Z</time>
      </trkpt>
      <trkpt lat="49.24795" lon="-0.10258">
        <ele>5.6</ele>
        <time>2024-03-03T11:02:06Z</time>
      </trkpt>
      <trkpt lat="49.24801" lon="-0.10263">
        <ele>5.7</ele>
        <time>2024-03-03T11:02:07Z</time>
      </trkpt>
      <trkpt lat="49.24808" lon="-0.10268">
        <ele>5.8</ele>
        <time>2024-03-03T11:02:08Z</time>
      </trkpt>
      <trkpt lat="49.24814" lon="-0.10272">
        <ele>5.9</ele>
        <time>2024-03-03T11:02:09Z</time>
      </trkpt>
      <trkpt lat="49.24821" lon="-0.10276">
        <ele>6</ele>
        <time>2024-03-03T11:02:10Z</time>
      </trkpt>
      <trkpt lat="49.24827" lon="-0.1028">
        <ele>6</ele>
        <time>2024-03-03T11:02:11Z</time>
      </trkpt>
      <trkpt lat="49.24833" lon="-0.10283">
        <ele>6.1</ele>
        <time>2024-03-03T11:02:12Z</time>
      </trkpt>
      <trkpt lat="49.24839" lon="-0.10286">
        <ele>6.1</ele>
        <time>2024-03-03T11:02:13Z</time>
      </trkpt>
      <trkpt lat="49.24846" lon="-0.10288">
        <ele>6.2</ele>
        <time>2024-03-03T11:02:14Z</time>
      </trkpt>
      <trkpt lat="49.24853" lon="-0.10289">
        <ele>6.2</ele>
        <time>2024-03-03T11:02:15Z</time>
      </trkpt>
      <trkpt lat="49.24861" lon="-0.1029">
        <ele>6.3</ele>
        <time>2024-03-03T11:02:16Z</time>
      </trkpt>
      <trkpt lat="49.24868" lon="-0.10291">
        <ele>6.4</ele>
        <time>2024-03-03T11:02:17Z</time>
      </trkpt>
      <trkpt lat="49.24875" lon="-0.1029">
        <ele>6.4</ele>
        <time>2024-03-03T11:02:18Z</time>
      </trkpt>
      <trkpt lat="49.24882" lon="-0.10288">
        <ele>6.5</ele>
        <time>2024-03-03T11:02:19Z</time>
      </trkpt>
      <trkpt lat="49.2489" lon="-0.10286">
        <ele>6.5</ele>
        <time>2024-03-03T11:02:20Z</time>
      </trkpt>
      <trkpt lat="49.24897" lon="-0.10283">
        <ele>6.4</ele>
        <time>2024-03-03T11:02:21Z</time>
      </trkpt>
      <trkpt lat="49.24903" lon="-0.10279">
        <ele>6.4</ele>
        <time>2024-03-03T11:02:22Z</time>
      </trkpt>
      <trkpt lat="49.2491" lon="-0.10274">
        <ele>6.3</ele>
        <time>2024-03-03T11:02:23Z</time>
      </trkpt>
      <trkpt lat="49.24916" lon="-0.10268">
        <ele>6.2</ele>
        <time>2024-03-03T11:02:24Z</time>
      </trkpt>
      <trkpt lat="49.24922" lon="-0.10261">
        <ele>6.1</ele>
        <time>2024-03-03T11:02:25Z</time>
      </trkpt>
      <trkpt lat="49.24927" lon="-0.10253">
        <ele>6</ele>
        <time>2024-03-03T11:02:26Z</time>
      </trkpt>
      <trkpt lat="49.24931" lon="-0.10245">
        <ele>6</ele>
        <time>2024-03-03T11:02:27Z</time>
      </trkpt>
      <trkpt lat="49.24936" lon="-0.10236">
        <ele>5.9</ele>
        <time>2024-03-03T11:02:28Z</time>
      </trkpt>
      <trkpt lat="49.2494" lon="-0.10227">
        <ele>5.8</ele>
        <time>2024-03-03T11:02:29Z</time>
      </trkpt>
      <trkpt lat="49.24945" lon="-0.10219">
        <ele>5.7</ele>
        <time>2024-03-03T11:02:30Z</time>
      </trkpt>
      <trkpt lat="49.24949" lon="-0.1021">
        <ele>5.7</ele>
        <time>2024-03-03T11:02:31Z</time>
      </trkpt>
      <trkpt lat="49.24953" lon="-0.102">
        <ele>5.6</ele>
        <time>2024-03-03T11:02:32Z</time>
      </trkpt>
      <trkpt lat="49.24957" lon="-0.10191">
        <ele>5.6</ele>
        <time>2024-03-03T11:02:33Z</time>
      </trkpt>
      <trkpt lat="49.24961" lon="-0.1018">
        <ele>5.6</ele>
        <time>2024-03-03T11:02:34Z</time>
      </trkpt>
      <trkpt lat="49.24965" lon="-0.1017">
        <ele>5.6</ele>
        <time>2024-03-03T11:02:35Z</time>
      </trkpt>
      <trkpt lat="49.24969" lon="-0.10159">
        <ele>5.6</ele>
        <time>2024-03-03T11:02:36Z</time>
      </trkpt>
      <trkpt lat="49.24973" lon="-0.10149">
        <ele>5.5</ele>
        <time>2024-03-03T11:02:37Z</time>
      </trkpt>
      <trkpt lat="49.24976" lon="-0.10138">
        <ele>5.5</ele>
        <time>2024-03-03T11:02:38Z</time>
      </trkpt>
      <trkpt lat="49.2498" lon="-0.10127">
        <ele>5.4</ele>
        <time>2024-03-03T11:02:39Z</time>
      </trkpt>
      <trkpt lat="49.24984" lon="-0.10116">
        <ele>5.3</ele>
        <time>2024-03-03T11:02:40Z</time>
      </trkpt>
      <trkpt lat="49.24988" lon="-0.10105">
        <ele>5.3</ele>
        <time>2024-03-03T11:02:41Z</time>
      </trkpt>
      <trkpt lat="49.24992" lon="-0.10094">
        <ele>5.2</ele>
        <time>2024-03-03T11:02:42Z</time>
      </trkpt>
      <trkpt lat="49.24996" lon="-0.10084">
        <ele>5.2</ele>
        <time>2024-03-03T11:02:43Z</time>
      </trkpt>
      <trkpt lat="49.24999" lon="-0.10073">
        <ele>5.1</ele>
        <time>2024-03-03T11:02:44Z</time>
      </trkpt>
      <trkpt lat="49.25003" lon="-0.10064">
        <ele>5</ele>
        <time>2024-03-03T11:02:45Z</time>
      </trkpt>
      <trkpt lat="49.25007" lon="-0.10054">
        <ele>5</ele>
        <time>2024-03-03T11:02:46Z</time>
      </trkpt>
      <trkpt lat="49.25011" lon="-0.10044">
        <ele>4.9</ele>
        <time>2024-03-03T11:02:47Z</time>
      </trkpt>
      <trkpt lat="49.25016" lon="-0.10034">
        <ele>4.9</ele>
        <time>2024-03-03T11:02:48Z</time>
      </trkpt>
      <trkpt lat="49.25019" lon="-0.10024">
        <ele>4.9</ele>
        <time>2024-03-03T11:02:49Z</time>
      </trkpt>
      <trkpt lat="49.25023" lon="-0.10014">
        <ele>4.8</ele>
        <time>2024-03-03T11:02:50Z</time>
      </trkpt>
      <trkpt lat="49.25027" lon="-0.10004">
        <ele>4.7</ele>
        <time>2024-03-03T11:02:51Z</time>
      </trkpt>
      <trkpt lat="49.25031" lon="-0.09993">
        <ele>4.6</ele>
        <time>2024-03-03T11:02:52Z</time>
      </trkpt>
      <trkpt lat="49.25035" lon="-0.09983">
        <ele>4.5</ele>
        <time>2024-03-03T11:02:53Z</time>
      </trkpt>
      <trkpt lat="49.25039" lon="-0.09973">
        <ele>4.5</ele>
        <time>2024-03-03T11:02:54Z</time>
      </trkpt>
      <trkpt lat="49.25043" lon="-0.09962">
        <ele>4.4</ele>
        <time>2024-03-03T11:02:55Z</time>
      </trkpt>
      <trkpt lat="49.25047" lon="-0.09951">
        <ele>4.4</ele>
        <time>2024-03-03T11:02:56Z</time>
      </trkpt>
      <trkpt lat="49.25051" lon="-0.0994">
        <ele>4.4</ele>
        <time>2024-03-03T11:02:57Z</time>
      </trkpt>
      <trkpt lat="49.25055" lon="-0.0993">
        <ele>4.4</ele>
        <time>2024-03-03T11:02:58Z</time>
      </trkpt>
      <trkpt lat="49.25059" lon="-0.0992">
        <ele>4.4</ele>
        <time>2024-03-03T11:02:59Z</time>
      </trkpt>
      <trkpt lat="49.25063" lon="-0.09909">
        <ele>4.3</ele>
        <time>2024-03-03T11:03:00Z</time>
      </trkpt>
      <trkpt lat="49.25067" lon="-0.09898">
        <ele>4.3</ele>
        <time>2024-03-03T11:03:01Z</time>
      </trkpt>
      <trkpt lat="49.2507" lon="-0.09888">
        <ele>4.2</ele>
        <time>2024-03-03T11:03:02Z</time>
      </trkpt>
      <trkpt lat="49.25074" lon="-0.09877">
        <ele>4.2</ele>
        <time>2024-03-03T11:03:03Z</time>
      </trkpt>
      <trkpt lat="49.25078" lon="-0.09866">
        <ele>4.2</ele>
        <time>2024-03-03T11:03:04Z</time>
      </trkpt>
      <trkpt lat="49.25083" lon="-0.09856">
        <ele>4.2</ele>
        <time>2024-03-03T11:03:05Z</time>
      </trkpt>
      <trkpt lat="49.25087" lon="-0.09845">
        <ele>4.2</ele>
        <time>2024-03-03T11:03:06Z</time>
      </trkpt>
      <trkpt lat="49.25091" lon="-0.09834">
        <ele>4.2</ele>
        <time>2024-03-03T11:03:07Z</time>
      </trkpt>
      <trkpt lat="49.25095" lon="-0.09823">
        <ele>4.2</ele>
        <time>2024-03-03T11:03:08Z</time>
      </trkpt>
      <trkpt lat="49.25098" lon="-0.09813">
        <ele>4.2</ele>
        <time>2024-03-03T11:03:09Z</time>
      </trkpt>
      <trkpt lat="49.25103" lon="-0.09803">
        <ele>4.2</ele>
        <time>2024-03-03T11:03:10Z</time>
      </trkpt>
      <trkpt lat="49.25107" lon="-0.09793">
        <ele>4.3</ele>
        <time>2024-03-03T11:03:11Z</time>
      </trkpt>
      <trkpt lat="49.25111" lon="-0.09783">
        <ele>4.3</ele>
        <time>2024-03-03T11:03:12Z</time>
      </trkpt>
      <trkpt lat="49.25115" lon="-0.09773">
        <ele>4.4</ele>
        <time>2024-03-03T11:03:13Z</time>
      </trkpt>
      <trkpt lat="49.25119" lon="-0.09763">
        <ele>4.4</ele>
        <time>2024-03-03T11:03:14Z</time>
      </trkpt>
      <trkpt lat="49.25124" lon="-0.09755">
        <ele>4.5</ele>
        <time>2024-03-03T11:03:15Z</time>
      </trkpt>
      <trkpt lat="49.25129" lon="-0.09746">
        <ele>4.6</ele>
        <time>2024-03-03T11:03:16Z</time>
      </trkpt>
      <trkpt lat="49.25135" lon="-0.09739">
        <ele>4.7</ele>
        <time>2024-03-03T11:03:17Z</time>
      </trkpt>
      <trkpt lat="49.25142" lon="-0.09733">
        <ele>4.7</ele>
        <time>2024-03-03T11:03:18Z</time>
      </trkpt>
      <trkpt lat="49.25149" lon="-0.09728">
        <ele>4.8</ele>
        <time>2024-03-03T11:03:19Z</time>
      </trkpt>
      <trkpt lat="49.25156" lon="-0.09725">
        <ele>4.8</ele>
        <time>2024-03-03T11:03:20Z</time>
      </trkpt>
      <trkpt lat="49.25164" lon="-0.09722">
        <ele>4.9</ele>
        <time>2024-03-03T11:03:21Z</time>
      </trkpt>
      <trkpt lat="49.25171" lon="-0.09719">
        <ele>5</ele>
        <time>2024-03-03T11:03:22Z</time>
      </trkpt>
      <trkpt lat="49.25178" lon="-0.09716">
        <ele>5</ele>
        <time>2024-03-03T11:03:23Z</time>
      </trkpt>
      <trkpt lat="49.25186" lon="-0.09713">
        <ele>5.1</ele>
        <time>2024-03-03T11:03:24Z</time>
      </trkpt>
      <trkpt lat="49.25192" lon="-0.0971">
        <ele>5.2</ele>
        <time>2024-03-03T11:03:25Z</time>
      </trkpt>
      <trkpt lat="49.25199" lon="-0.09707">
        <ele>5.3</ele>
        <time>2024-03-03T11:03:26Z</time>
      </trkpt>
      <trkpt lat="49.25206" lon="-0.09705">
        <ele>5.4</ele>
        <time>2024-03-03T11:03:27Z</time>
      </trkpt>
      <trkpt lat="49.25214" lon="-0.09702">
        <ele>5.5</ele>
        <time>2024-03-03T11:03:28Z</time>
      </trkpt>
      <trkpt lat="49.25221" lon="-0.097">
        <ele>5.5</ele>
        <time>2024-03-03T11:03:29Z</time>
      </trkpt>
      <trkpt lat="49.25228" lon="-0.09697">
        <ele>5.6</ele>
        <time>2024-03-03T11:03:30Z</time>
      </trkpt>
      <trkpt lat="49.25235" lon="-0.09694">
        <ele>5.6</ele>
        <time>2024-03-03T11:03:31Z</time>
      </trkpt>
      <trkpt lat="49.25242" lon="-0.09691">
        <ele>5.6</ele>
        <time>2024-03-03T11:03:32Z</time>
      </trkpt>
      <trkpt lat="49.25248" lon="-0.09687">
        <ele>5.6</ele>
        <time>2024-03-03T11:03:33Z</time>
      </trkpt>
      <trkpt lat="49.25255" lon="-0.09683">
        <ele>5.6</ele>
        <time>2024-03-03T11:03:34Z</time>
      </trkpt>
      <trkpt lat="49.25261" lon="-0.09678">
        <ele>5.6</ele>
        <time>2024-03-03T11:03:35Z</time>
      </trkpt>
      <trkpt lat="49.25268" lon="-0.09672">
        <ele>5.5</ele>
        <time>2024-03-03T11:03:36Z</time>
      </trkpt>
      <trkpt lat="49.25274" lon="-0.09665">
        <ele>5.5</ele>
        <time>2024-03-03T11:03:37Z</time>
      </trkpt>
      <trkpt lat="49.25281" lon="-0.09658">
        <ele>5.5</ele>
        <time>2024-03-03T11:03:38Z</time>
      </trkpt>
      <trkpt lat="49.25286" lon="-0.09652">
        <ele>5.5</ele>
        <time>2024-03-03T11:03:39Z</time>
      </trkpt>
      <trkpt lat="49.25293" lon="-0.09646">
        <ele>5.4</ele>
        <time>2024-03-03T11:03:40Z</time>
      </trkpt>
      <trkpt lat="49.25299" lon="-0.09641">
        <ele>5.4</ele>
        <time>2024-03-03T11:03:41Z</time>
      </trkpt>
      <trkpt lat="49.25306" lon="-0.09636">
        <ele>5.4</ele>
        <time>2024-03-03T11:03:42Z</time>
      </trkpt>
      <trkpt lat="49.25312" lon="-0.09632">
        <ele>5.3</ele>
        <time>2024-03-03T11:03:43Z</time>
      </trkpt>
      <trkpt lat="49.25319" lon="-0.09629">
        <ele>5.3</ele>
        <time>2024-03-03T11:03:44Z</time>
      </trkpt>
      <trkpt lat="49.25327" lon="-0.09626">
        <ele>5.2</ele>
        <time>2024-03-03T11:03:45Z</time>
      </trkpt>
      <trkpt lat="49.25334" lon="-0.09624">
        <ele>5.2</ele>
        <time>2024-03-03T11:03:46Z</time>
      </trkpt>
      <trkpt lat="49.25342" lon="-0.09622">
        <ele>5.2</ele>
        <time>2024-03-03T11:03:47Z</time>
      </trkpt>
      <trkpt lat="49.25349" lon="-0.09621">
        <ele>5.2</ele>
        <time>2024-03-03T11:03:48Z</time>
      </trkpt>
      <trkpt lat="49.25357" lon="-0.09619">
        <ele>5.2</ele>
        <time>2024-03-03T11:03:49Z</time>
      </trkpt>
      <trkpt lat="49.25365" lon="-0.09617">
        <ele>5.1</ele>
        <time>2024-03-03T11:03:50Z</time>
      </trkpt>
      <trkpt lat="49.25372" lon="-0.09615">
        <ele>5.1</ele>
        <time>2024-03-03T11:03:51Z</time>
      </trkpt>
      <trkpt lat="49.2538" lon="-0.09614">
        <ele>5.2</ele>
        <time>2024-03-03T11:03:52Z</time>
      </trkpt>
      <trkpt lat="49.25387" lon="-0.09613">
        <ele>5.2</ele>
        <time>2024-03-03T11:03:53Z</time>
      </trkpt>
      <trkpt lat="49.25395" lon="-0.09612">
        <ele>5.2</ele>
        <time>2024-03-03T11:03:54Z</time>
      </trkpt>
      <trkpt lat="49.25402" lon="-0.09611">
        <ele>5.2</ele>
        <time>2024-03-03T11:03:55Z</time>
      </trkpt>
      <trkpt lat="49.25409" lon="-0.09609">
        <ele>5.2</ele>
        <time>2024-03-03T11:03:56Z</time>
      </trkpt>
      <trkpt lat="49.25417" lon="-0.09608">
        <ele>5.3</ele>
        <time>2024-03-03T11:03:57Z</time>
      </trkpt>
      <trkpt lat="49.25424" lon="-0.09607">
        <ele>5.3</ele>
        <time>2024-03-03T11:03:58Z</time>
      </trkpt>
      <trkpt lat="49.25432" lon="-0.09606">
        <ele>5.4</ele>
        <time>2024-03-03T11:03:59Z</time>
      </trkpt>
      <trkpt lat="49.25439" lon="-0.09604">
        <ele>5.5</ele>
        <time>2024-03-03T11:04:00Z</time>
      </trkpt>
      <trkpt lat="49.25446" lon="-0.09602">
        <ele>5.6</ele>
        <time>2024-03-03T11:04:01Z</time>
      </trkpt>
      <trkpt lat="49.25454" lon="-0.09601">
        <ele>5.6</ele>
        <time>2024-03-03T11:04:02Z</time>
      </trkpt>
      <trkpt lat="49.25461" lon="-0.096">
        <ele>5.7</ele>
        <time>2024-03-03T11:04:03Z</time>
      </trkpt>
      <trkpt lat="49.25468" lon="-0.09598">
        <ele>5.7</ele>
        <time>2024-03-03T11:04:04Z</time>
      </trkpt>
      <trkpt lat="49.25475" lon="-0.09597">
        <ele>5.8</ele>
        <time>2024-03-03T11:04:05Z</time>
      </trkpt>
      <trkpt lat="49.25483" lon="-0.09596">
        <ele>5.8</ele>
        <time>2024-03-03T11:04:06Z</time>
      </trkpt>
      <trkpt lat="49.2549" lon="-0.09595">
        <ele>5.9</ele>
        <time>2024-03-03T11:04:07Z</time>
      </trkpt>
      <trkpt lat="49.25497" lon="-0.09593">
        <ele>6</ele>
        <time>2024-03-03T11:04:08Z</time>
      </trkpt>
      <trkpt lat="49.25505" lon="-0.09593">
        <ele>6.1</ele>
        <time>2024-03-03T11:04:09Z</time>
      </trkpt>
      <trkpt lat="49.25512" lon="-0.09593">
        <ele>6.2</ele>
        <time>2024-03-03T11:04:10Z</time>
      </trkpt>
      <trkpt lat="49.25519" lon="-0.09593">
        <ele>6.3</ele>
        <time>2024-03-03T11:04:11Z</time>
      </trkpt>
      <trkpt lat="49.25527" lon="-0.09593">
        <ele>6.4</ele>
        <time>2024-03-03T11:04:12Z</time>
      </trkpt>
      <trkpt lat="49.25534" lon="-0.09594">
        <ele>6.4</ele>
        <time>2024-03-03T11:04:13Z</time>
      </trkpt>
      <trkpt lat="49.25541" lon="-0.09594">
        <ele>6.5</ele>
        <time>2024-03-03T11:04:14Z</time>
      </trkpt>
      <trkpt lat="49.25547" lon="-0.09594">
        <ele>6.6</ele>
        <time>2024-03-03T11:04:15Z</time>
      </trkpt>
      <trkpt lat="49.25554" lon="-0.09594">
        <ele>6.6</ele>
        <time>2024-03-03T11:04:16Z</time>
      </trkpt>
      <trkpt lat="49.25561" lon="-0.09594">
        <ele>6.7</ele>
        <time>2024-03-03T11:04:17Z</time>
      </trkpt>
      <trkpt lat="49.25569" lon="-0.09595">
        <ele>6.8</ele>
        <time>2024-03-03T11:04:18Z</time>
      </trkpt>
      <trkpt lat="49.25576" lon="-0.09595">
        <ele>6.9</ele>
        <time>2024-03-03T11:04:19Z</time>
      </trkpt>
      <trkpt lat="49.25582" lon="-0.09596">
        <ele>6.9</ele>
        <time>2024-03-03T11:04:20Z</time>
      </trkpt>
      <trkpt lat="49.25589" lon="-0.09596">
        <ele>7</ele>
        <time>2024-03-03T11:04:21Z</time>
      </trkpt>
      <trkpt lat="49.25596" lon="-0.09595">
        <ele>7</ele>
        <time>2024-03-03T11:04:22Z</time>
      </trkpt>
      <trkpt lat="49.25603" lon="-0.09594">
        <ele>7.1</ele>
        <time>2024-03-03T11:04:23Z</time>
      </trkpt>
      <trkpt lat="49.25609" lon="-0.09594">
        <ele>7.1</ele>
        <time>2024-03-03T11:04:24Z</time>
      </trkpt>
      <trkpt lat="49.25616" lon="-0.09594">
        <ele>7.2</ele>
        <time>2024-03-03T11:04:25Z</time>
      </trkpt>
      <trkpt lat="49.25623" lon="-0.09593">
        <ele>7.2</ele>
        <time>2024-03-03T11:04:26Z</time>
      </trkpt>
      <trkpt lat="49.2563" lon="-0.0959">
        <ele>7.3</ele>
        <time>2024-03-03T11:04:27Z</time>
      </trkpt>
      <trkpt lat="49.25637" lon="-0.09587">
        <ele>7.3</ele>
        <time>2024-03-03T11:04:28Z</time>
      </trkpt>
      <trkpt lat="49.25643" lon="-0.09584">
        <ele>7.3</ele>
        <time>2024-03-03T11:04:29Z</time>
      </trkpt>
      <trkpt lat="49.2565" lon="-0.0958">
        <ele>7.4</ele>
        <time>2024-03-03T11:04:30Z</time>
      </trkpt>
      <trkpt lat="49.25656" lon="-0.09575">
        <ele>7.4</ele>
        <time>2024-03-03T11:04:31Z</time>
      </trkpt>
      <trkpt lat="49.25663" lon="-0.09571">
        <ele>7.4</ele>
        <time>2024-03-03T11:04:32Z</time>
      </trkpt>
      <trkpt lat="49.25669" lon="-0.09566">
        <ele>7.5</ele>
        <time>2024-03-03T11:04:33Z</time>
      </trkpt>
      <trkpt lat="49.25675" lon="-0.09562">
        <ele>7.5</ele>
        <time>2024-03-03T11:04:34Z</time>
      </trkpt>
      <trkpt lat="49.25682" lon="-0.09557">
        <ele>7.6</ele>
        <time>2024-03-03T11:04:35Z</time>
      </trkpt>
      <trkpt lat="49.25688" lon="-0.09552">
        <ele>7.6</ele>
        <time>2024-03-03T11:04:36Z</time>
      </trkpt>
      <trkpt lat="49.25695" lon="-0.09548">
        <ele>7.6</ele>
        <time>2024-03-03T11:04:37Z</time>
      </trkpt>
      <trkpt lat="49.25701" lon="-0.09543">
        <ele>7.7</ele>
        <time>2024-03-03T11:04:38Z</time>
      </trkpt>
      <trkpt lat="49.25708" lon="-0.09538">
        <ele>7.7</ele>
        <time>2024-03-03T11:04:39Z</time>
      </trkpt>
      <trkpt lat="49.25714" lon="-0.09533">
        <ele>7.8</ele>
        <time>2024-03-03T11:04:40Z</time>
      </trkpt>
      <trkpt lat="49.25721" lon="-0.09528">
        <ele>7.8</ele>
        <time>2024-03-03T11:04:41Z</time>
      </trkpt>
      <trkpt lat="49.25727" lon="-0.09524">
        <ele>7.9</ele>
        <time>2024-03-03T11:04:42Z</time>
      </trkpt>
      <trkpt lat="49.25734" lon="-0.09519">
        <ele>7.9</ele>
        <time>2024-03-03T11:04:43Z</time>
      </trkpt>
      <trkpt lat="49.2574" lon="-0.09515">
        <ele>7.9</ele>
        <time>2024-03-03T11:04:44Z</time>
      </trkpt>
      <trkpt lat="49.25747" lon="-0.09511">
        <ele>8</ele>
        <time>2024-03-03T11:04:45Z</time>
      </trkpt>
      <trkpt lat="49.25753" lon="-0.09507">
        <ele>8.1</ele>
        <time>2024-03-03T11:04:46Z</time>
      </trkpt>
      <trkpt lat="49.2576" lon="-0.09502">
        <ele>8.2</ele>
        <time>2024-03-03T11:04:47Z</time>
      </trkpt>
      <trkpt lat="49.25766" lon="-0.09498">
        <ele>8.3</ele>
        <time>2024-03-03T11:04:48Z</time>
      </trkpt>
      <trkpt lat="49.25773" lon="-0.09494">
        <ele>8.4</ele>
        <time>2024-03-03T11:04:49Z</time>
      </trkpt>
      <trkpt lat="49.25778" lon="-0.09489">
        <ele>8.5</ele>
        <time>2024-03-03T11:04:50Z</time>
      </trkpt>
      <trkpt lat="49.25784" lon="-0.09485">
        <ele>8.4</ele>
        <time>2024-03-03T11:04:51Z</time>
      </trkpt>
      <trkpt lat="49.2579" lon="-0.09482">
        <ele>8.4</ele>
        <time>2024-03-03T11:04:52Z</time>
      </trkpt>
      <trkpt lat="49.25796" lon="-0.09478">
        <ele>8.4</ele>
        <time>2024-03-03T11:04:53Z</time>
      </trkpt>
      <trkpt lat="49.25802" lon="-0.09476">
        <ele>8.4</ele>
        <time>2024-03-03T11:04:54Z</time>
      </trkpt>
      <trkpt lat="49.25807" lon="-0.09474">
        <ele>8.4</ele>
        <time>2024-03-03T11:04:55Z</time>
      </trkpt>
      <trkpt lat="49.25812" lon="-0.09473">
        <ele>8.4</ele>
        <time>2024-03-03T11:04:56Z</time>
      </trkpt>
      <trkpt lat="49.25818" lon="-0.09474">
        <ele>8.4</ele>
        <time>2024-03-03T11:04:57Z</time>
      </trkpt>
      <trkpt lat="49.25823" lon="-0.09474">
        <ele>8.4</ele>
        <time>2024-03-03T11:04:58Z</time>
      </trkpt>
      <trkpt lat="49.25829" lon="-0.09475">
        <ele>8.5</ele>
        <time>2024-03-03T11:04:59Z</time>
      </trkpt>
      <trkpt lat="49.25833" lon="-0.09476">
        <ele>8.5</ele>
        <time>2024-03-03T11:05:00Z</time>
      </trkpt>
      <trkpt lat="49.25838" lon="-0.09476">
        <ele>8.5</ele>
        <time>2024-03-03T11:05:01Z</time>
      </trkpt>
      <trkpt lat="49.25842" lon="-0.09476">
        <ele>8.5</ele>
        <time>2024-03-03T11:05:02Z</time>
      </trkpt>
      <trkpt lat="49.25847" lon="-0.09476">
        <ele>8.4</ele>
        <time>2024-03-03T11:05:03Z</time>
      </trkpt>
      <trkpt lat="49.25852" lon="-0.09477">
        <ele>8.4</ele>
        <time>2024-03-03T11:05:04Z</time>
      </trkpt>
      <trkpt lat="49.25857" lon="-0.09478">
        <ele>8.4</ele>
        <time>2024-03-03T11:05:05Z</time>
      </trkpt>
      <trkpt lat="49.25862" lon="-0.09479">
        <ele>8.4</ele>
        <time>2024-03-03T11:05:06Z</time>
      </trkpt>
      <trkpt lat="49.25867" lon="-0.0948">
        <ele>8.4</ele>
        <time>2024-03-03T11:05:07Z</time>
      </trkpt>
      <trkpt lat="49.25873" lon="-0.09481">
        <ele>8.4</ele>
        <time>2024-03-03T11:05:08Z</time>
      </trkpt>
      <trkpt lat="49.25878" lon="-0.09482">
        <ele>8.4</ele>
        <time>2024-03-03T11:05:09Z</time>
      </trkpt>
      <trkpt lat="49.25884" lon="-0.09483">
        <ele>8.5</ele>
        <time>2024-03-03T11:05:10Z</time>
      </trkpt>
      <trkpt lat="49.25889" lon="-0.09484">
        <ele>8.6</ele>
        <time>2024-03-03T11:05:11Z</time>
      </trkpt>
      <trkpt lat="49.25894" lon="-0.09485">
        <ele>8.7</ele>
        <time>2024-03-03T11:05:12Z</time>
      </trkpt>
      <trkpt lat="49.259" lon="-0.09485">
        <ele>8.9</ele>
        <time>2024-03-03T11:05:13Z</time>
      </trkpt>
      <trkpt lat="49.25905" lon="-0.09486">
        <ele>9</ele>
        <time>2024-03-03T11:05:14Z</time>
      </trkpt>
      <trkpt lat="49.2591" lon="-0.09486">
        <ele>9.1</ele>
        <time>2024-03-03T11:05:15Z</time>
      </trkpt>
      <trkpt lat="49.25915" lon="-0.09487">
        <ele>9.3</ele>
        <time>2024-03-03T11:05:16Z</time>
      </trkpt>
      <trkpt lat="49.25921" lon="-0.09487">
        <ele>9.5</ele>
        <time>2024-03-03T11:05:17Z</time>
      </trkpt>
      <trkpt lat="49.25926" lon="-0.09487">
        <ele>9.7</ele>
        <time>2024-03-03T11:05:18Z</time>
      </trkpt>
      <trkpt lat="49.25931" lon="-0.09486">
        <ele>9.8</ele>
        <time>2024-03-03T11:05:19Z</time>
      </trkpt>
      <trkpt lat="49.25937" lon="-0.09485">
        <ele>10</ele>
        <time>2024-03-03T11:05:20Z</time>
      </trkpt>
      <trkpt lat="49.25943" lon="-0.09484">
        <ele>10.3</ele>
        <time>2024-03-03T11:05:21Z</time>
      </trkpt>
      <trkpt lat="49.25949" lon="-0.09484">
        <ele>10.5</ele>
        <time>2024-03-03T11:05:22Z</time>
      </trkpt>
      <trkpt lat="49.25955" lon="-0.09483">
        <ele>10.7</ele>
        <time>2024-03-03T11:05:23Z</time>
      </trkpt>
      <trkpt lat="49.25961" lon="-0.09481">
        <ele>10.9</ele>
        <time>2024-03-03T11:05:24Z</time>
      </trkpt>
      <trkpt lat="49.25967" lon="-0.0948">
        <ele>11.1</ele>
        <time>2024-03-03T11:05:25Z</time>
      </trkpt>
      <trkpt lat="49.25972" lon="-0.09477">
        <ele>11.4</ele>
        <time>2024-03-03T11:05:26Z</time>
      </trkpt>
      <trkpt lat="49.25978" lon="-0.09476">
        <ele>11.5</ele>
        <time>2024-03-03T11:05:27Z</time>
      </trkpt>
      <trkpt lat="49.25983" lon="-0.09475">
        <ele>11.6</ele>
        <time>2024-03-03T11:05:28Z</time>
      </trkpt>
      <trkpt lat="49.25989" lon="-0.09473">
        <ele>11.7</ele>
        <time>2024-03-03T11:05:29Z</time>
      </trkpt>
      <trkpt lat="49.25995" lon="-0.09471">
        <ele>11.8</ele>
        <time>2024-03-03T11:05:30Z</time>
      </trkpt>
      <trkpt lat="49.26001" lon="-0.09469">
        <ele>11.9</ele>
        <time>2024-03-03T11:05:31Z</time>
      </trkpt>
      <trkpt lat="49.26007" lon="-0.09467">
        <ele>12</ele>
        <time>2024-03-03T11:05:32Z</time>
      </trkpt>
      <trkpt lat="49.26013" lon="-0.09466">
        <ele>12.1</ele>
        <time>2024-03-03T11:05:33Z</time>
      </trkpt>
      <trkpt lat="49.26019" lon="-0.09466">
        <ele>12.1</ele>
        <time>2024-03-03T11:05:34Z</time>
      </trkpt>
      <trkpt lat="49.26025" lon="-0.09464">
        <ele>12.1</ele>
        <time>2024-03-03T11:05:35Z</time>
      </trkpt>
      <trkpt lat="49.26031" lon="-0.09462">
        <ele>12.2</ele>
        <time>2024-03-03T11:05:36Z</time>
      </trkpt>
      <trkpt lat="49.26037" lon="-0.0946">
        <ele>12.2</ele>
        <time>2024-03-03T11:05:37Z</time>
      </trkpt>
      <trkpt lat="49.26044" lon="-0.09459">
        <ele>12.1</ele>
        <time>2024-03-03T11:05:38Z</time>
      </trkpt>
      <trkpt lat="49.2605" lon="-0.09457">
        <ele>12.1</ele>
        <time>2024-03-03T11:05:39Z</time>
      </trkpt>
      <trkpt lat="49.26057" lon="-0.09455">
        <ele>12.1</ele>
        <time>2024-03-03T11:05:40Z</time>
      </trkpt>
      <trkpt lat="49.26064" lon="-0.09453">
        <ele>12</ele>
        <time>2024-03-03T11:05:41Z</time>
      </trkpt>
      <trkpt lat="49.26071" lon="-0.09452">
        <ele>12</ele>
        <time>2024-03-03T11:05:42Z</time>
      </trkpt>
      <trkpt lat="49.26077" lon="-0.09452">
        <ele>11.9</ele>
        <time>2024-03-03T11:05:43Z</time>
      </trkpt>
      <trkpt lat="49.26084" lon="-0.09451">
        <ele>11.9</ele>
        <time>2024-03-03T11:05:44Z</time>
      </trkpt>
      <trkpt lat="49.26091" lon="-0.0945">
        <ele>11.9</ele>
        <time>2024-03-03T11:05:45Z</time>
      </trkpt>
      <trkpt lat="49.26098" lon="-0.09448">
        <ele>11.9</ele>
        <time>2024-03-03T11:05:46Z</time>
      </trkpt>
      <trkpt lat="49.26105" lon="-0.09446">
        <ele>11.9</ele>
        <time>2024-03-03T11:05:47Z</time>
      </trkpt>
      <trkpt lat="49.26112" lon="-0.09445">
        <ele>11.9</ele>
        <time>2024-03-03T11:05:48Z</time>
      </trkpt>
      <trkpt lat="49.26119" lon="-0.09443">
        <ele>11.8</ele>
        <time>2024-03-03T11:05:49Z</time>
      </trkpt>
      <trkpt lat="49.26126" lon="-0.09442">
        <ele>11.8</ele>
        <time>2024-03-03T11:05:50Z</time>
      </trkpt>
      <trkpt lat="49.26133" lon="-0.09442">
        <ele>11.8</ele>
        <time>2024-03-03T11:05:51Z</time>
      </trkpt>
      <trkpt lat="49.2614" lon="-0.09441">
        <ele>11.7</ele>
        <time>2024-03-03T11:05:52Z</time>
      </trkpt>
      <trkpt lat="49.26147" lon="-0.09441">
        <ele>11.7</ele>
        <time>2024-03-03T11:05:53Z</time>
      </trkpt>
      <trkpt lat="49.26154" lon="-0.09442">
        <ele>11.6</ele>
        <time>2024-03-03T11:05:54Z</time>
      </trkpt>
      <trkpt lat="49.26162" lon="-0.09443">
        <ele>11.4</ele>
        <time>2024-03-03T11:05:55Z</time>
      </trkpt>
      <trkpt lat="49.26169" lon="-0.09446">
        <ele>11.3</ele>
        <time>2024-03-03T11:05:56Z</time>
      </trkpt>
      <trkpt lat="49.26176" lon="-0.09451">
        <ele>11.2</ele>
        <time>2024-03-03T11:05:57Z</time>
      </trkpt>
      <trkpt lat="49.26183" lon="-0.09455">
        <ele>11.1</ele>
        <time>2024-03-03T11:05:58Z</time>
      </trkpt>
      <trkpt lat="49.2619" lon="-0.0946">
        <ele>11</ele>
        <time>2024-03-03T11:05:59Z</time>
      </trkpt>
      <trkpt lat="49.26197" lon="-0.09463">
        <ele>11</ele>
        <time>2024-03-03T11:06:00Z</time>
      </trkpt>
      <trkpt lat="49.26205" lon="-0.09466">
        <ele>11</ele>
        <time>2024-03-03T11:06:01Z</time>
      </trkpt>
      <trkpt lat="49.26212" lon="-0.09466">
        <ele>11</ele>
        <time>2024-03-03T11:06:02Z</time>
      </trkpt>
      <trkpt lat="49.2622" lon="-0.09466">
        <ele>10.9</ele>
        <time>2024-03-03T11:06:03Z</time>
      </trkpt>
      <trkpt lat="49.26228" lon="-0.09465">
        <ele>10.9</ele>
        <time>2024-03-03T11:06:04Z</time>
      </trkpt>
      <trkpt lat="49.26235" lon="-0.09462">
        <ele>11</ele>
        <time>2024-03-03T11:06:05Z</time>
      </trkpt>
      <trkpt lat="49.26242" lon="-0.09459">
        <ele>11.1</ele>
        <time>2024-03-03T11:06:06Z</time>
      </trkpt>
      <trkpt lat="49.26248" lon="-0.09454">
        <ele>11.2</ele>
        <time>2024-03-03T11:06:07Z</time>
      </trkpt>
      <trkpt lat="49.26255" lon="-0.0945">
        <ele>11.4</ele>
        <time>2024-03-03T11:06:08Z</time>
      </trkpt>
      <trkpt lat="49.26261" lon="-0.09446">
        <ele>11.5</ele>
        <time>2024-03-03T11:06:09Z</time>
      </trkpt>
      <trkpt lat="49.26266" lon="-0.09443">
        <ele>11.7</ele>
        <time>2024-03-03T11:06:10Z</time>
      </trkpt>
      <trkpt lat="49.26272" lon="-0.09439">
        <ele>11.9</ele>
        <time>2024-03-03T11:06:11Z</time>
      </trkpt>
      <trkpt lat="49.26277" lon="-0.09436">
        <ele>12.1</ele>
        <time>2024-03-03T11:06:12Z</time>
      </trkpt>
      <trkpt lat="49.26283" lon="-0.09432">
        <ele>12.3</ele>
        <time>2024-03-03T11:06:13Z</time>
      </trkpt>
      <trkpt lat="49.26288" lon="-0.09429">
        <ele>12.4</ele>
        <time>2024-03-03T11:06:14Z</time>
      </trkpt>
      <trkpt lat="49.26293" lon="-0.09427">
        <ele>12.6</ele>
        <time>2024-03-03T11:06:15Z</time>
      </trkpt>
      <trkpt lat="49.26298" lon="-0.09424">
        <ele>12.8</ele>
        <time>2024-03-03T11:06:16Z</time>
      </trkpt>
      <trkpt lat="49.26303" lon="-0.09422">
        <ele>13</ele>
        <time>2024-03-03T11:06:17Z</time>
      </trkpt>
      <trkpt lat="49.26308" lon="-0.09419">
        <ele>13.2</ele>
        <time>2024-03-03T11:06:18Z</time>
      </trkpt>
      <trkpt lat="49.26313" lon="-0.09417">
        <ele>13.4</ele>
        <time>2024-03-03T11:06:19Z</time>
      </trkpt>
      <trkpt lat="49.26319" lon="-0.09416">
        <ele>13.6</ele>
        <time>2024-03-03T11:06:20Z</time>
      </trkpt>
      <trkpt lat="49.26325" lon="-0.09415">
        <ele>13.8</ele>
        <time>2024-03-03T11:06:21Z</time>
      </trkpt>
      <trkpt lat="49.2633" lon="-0.09414">
        <ele>13.9</ele>
        <time>2024-03-03T11:06:22Z</time>
      </trkpt>
      <trkpt lat="49.26336" lon="-0.09412">
        <ele>14.1</ele>
        <time>2024-03-03T11:06:23Z</time>
      </trkpt>
      <trkpt lat="49.26341" lon="-0.09411">
        <ele>14.3</ele>
        <time>2024-03-03T11:06:24Z</time>
      </trkpt>
      <trkpt lat="49.26348" lon="-0.0941">
        <ele>14.5</ele>
        <time>2024-03-03T11:06:25Z</time>
      </trkpt>
      <trkpt lat="49.26354" lon="-0.09409">
        <ele>14.7</ele>
        <time>2024-03-03T11:06:26Z</time>
      </trkpt>
      <trkpt lat="49.26361" lon="-0.09409">
        <ele>14.8</ele>
        <time>2024-03-03T11:06:27Z</time>
      </trkpt>
      <trkpt lat="49.26367" lon="-0.0941">
        <ele>15</ele>
        <time>2024-03-03T11:06:28Z</time>
      </trkpt>
      <trkpt lat="49.26373" lon="-0.0941">
        <ele>15.1</ele>
        <time>2024-03-03T11:06:29Z</time>
      </trkpt>
      <trkpt lat="49.2638" lon="-0.0941">
        <ele>15.3</ele>
        <time>2024-03-03T11:06:30Z</time>
      </trkpt>
      <trkpt lat="49.26387" lon="-0.0941">
        <ele>15.4</ele>
        <time>2024-03-03T11:06:31Z</time>
      </trkpt>
      <trkpt lat="49.26393" lon="-0.0941">
        <ele>15.5</ele>
        <time>2024-03-03T11:06:32Z</time>
      </trkpt>
      <trkpt lat="49.264" lon="-0.09411">
        <ele>15.6</ele>
        <time>2024-03-03T11:06:33Z</time>
      </trkpt>
      <trkpt lat="49.26406" lon="-0.09411">
        <ele>15.7</ele>
        <time>2024-03-03T11:06:34Z</time>
      </trkpt>
      <trkpt lat="49.26412" lon="-0.09411">
        <ele>15.7</ele>
        <time>2024-03-03T11:06:35Z</time>
      </trkpt>
      <trkpt lat="49.26419" lon="-0.09411">
        <ele>15.8</ele>
        <time>2024-03-03T11:06:36Z</time>
      </trkpt>
      <trkpt lat="49.26425" lon="-0.09411">
        <ele>15.8</ele>
        <time>2024-03-03T11:06:37Z</time>
      </trkpt>
      <trkpt lat="49.26432" lon="-0.09412">
        <ele>15.8</ele>
        <time>2024-03-03T11:06:38Z</time>
      </trkpt>
      <trkpt lat="49.26439" lon="-0.09412">
        <ele>15.8</ele>
        <time>2024-03-03T11:06:39Z</time>
      </trkpt>
      <trkpt lat="49.26446" lon="-0.09413">
        <ele>15.8</ele>
        <time>2024-03-03T11:06:40Z</time>
      </trkpt>
      <trkpt lat="49.26453" lon="-0.09414">
        <ele>15.8</ele>
        <time>2024-03-03T11:06:41Z</time>
      </trkpt>
      <trkpt lat="49.26459" lon="-0.09415">
        <ele>15.7</ele>
        <time>2024-03-03T11:06:42Z</time>
      </trkpt>
      <trkpt lat="49.26466" lon="-0.09415">
        <ele>15.7</ele>
        <time>2024-03-03T11:06:43Z</time>
      </trkpt>
      <trkpt lat="49.26472" lon="-0.09415">
        <ele>15.6</ele>
        <time>2024-03-03T11:06:44Z</time>
      </trkpt>
      <trkpt lat="49.26479" lon="-0.09415">
        <ele>15.6</ele>
        <time>2024-03-03T11:06:45Z</time>
      </trkpt>
      <trkpt lat="49.26485" lon="-0.09414">
        <ele>15.5</ele>
        <time>2024-03-03T11:06:46Z</time>
      </trkpt>
      <trkpt lat="49.26492" lon="-0.09415">
        <ele>15.4</ele>
        <time>2024-03-03T11:06:47Z</time>
      </trkpt>
      <trkpt lat="49.26498" lon="-0.09415">
        <ele>15.3</ele>
        <time>2024-03-03T11:06:48Z</time>
      </trkpt>
      <trkpt lat="49.26505" lon="-0.09415">
        <ele>15.2</ele>
        <time>2024-03-03T11:06:49Z</time>
      </trkpt>
      <trkpt lat="49.26512" lon="-0.09415">
        <ele>15</ele>
        <time>2024-03-03T11:06:50Z</time>
      </trkpt>
      <trkpt lat="49.2652" lon="-0.09416">
        <ele>14.8</ele>
        <time>2024-03-03T11:06:51Z</time>
      </trkpt>
      <trkpt lat="49.26527" lon="-0.09416">
        <ele>14.7</ele>
        <time>2024-03-03T11:06:52Z</time>
      </trkpt>
      <trkpt lat="49.26534" lon="-0.09415">
        <ele>14.5</ele>
        <time>2024-03-03T11:06:53Z</time>
      </trkpt>
      <trkpt lat="49.26541" lon="-0.09415">
        <ele>14.3</ele>
        <time>2024-03-03T11:06:54Z</time>
      </trkpt>
      <trkpt lat="49.26548" lon="-0.09415">
        <ele>14</ele>
        <time>2024-03-03T11:06:55Z</time>
      </trkpt>
      <trkpt lat="49.26556" lon="-0.09415">
        <ele>13.7</ele>
        <time>2024-03-03T11:06:56Z</time>
      </trkpt>
      <trkpt lat="49.26563" lon="-0.09415">
        <ele>13.3</ele>
        <time>2024-03-03T11:06:57Z</time>
      </trkpt>
      <trkpt lat="49.26571" lon="-0.09415">
        <ele>12.8</ele>
        <time>2024-03-03T11:06:58Z</time>
      </trkpt>
      <trkpt lat="49.26579" lon="-0.09415">
        <ele>12.3</ele>
        <time>2024-03-03T11:06:59Z</time>
      </trkpt>
      <trkpt lat="49.26588" lon="-0.09416">
        <ele>11.8</ele>
        <time>2024-03-03T11:07:00Z</time>
      </trkpt>
      <trkpt lat="49.26596" lon="-0.09417">
        <ele>11.3</ele>
        <time>2024-03-03T11:07:01Z</time>
      </trkpt>
      <trkpt lat="49.26605" lon="-0.09418">
        <ele>10.9</ele>
        <time>2024-03-03T11:07:02Z</time>
      </trkpt>
      <trkpt lat="49.26613" lon="-0.09418">
        <ele>10.5</ele>
        <time>2024-03-03T11:07:03Z</time>
      </trkpt>
      <trkpt lat="49.26622" lon="-0.09418">
        <ele>10</ele>
        <time>2024-03-03T11:07:04Z</time>
      </trkpt>
      <trkpt lat="49.26631" lon="-0.09419">
        <ele>9.5</ele>
        <time>2024-03-03T11:07:05Z</time>
      </trkpt>
      <trkpt lat="49.26641" lon="-0.0942">
        <ele>9.1</ele>
        <time>2024-03-03T11:07:06Z</time>
      </trkpt>
      <trkpt lat="49.26651" lon="-0.09421">
        <ele>8.7</ele>
        <time>2024-03-03T11:07:07Z</time>
      </trkpt>
      <trkpt lat="49.26661" lon="-0.09422">
        <ele>8.4</ele>
        <time>2024-03-03T11:07:08Z</time>
      </trkpt>
      <trkpt lat="49.26671" lon="-0.09423">
        <ele>8.1</ele>
        <time>2024-03-03T11:07:09Z</time>
      </trkpt>
      <trkpt lat="49.2668" lon="-0.09423">
        <ele>8</ele>
        <time>2024-03-03T11:07:10Z</time>
      </trkpt>
      <trkpt lat="49.26689" lon="-0.09423">
        <ele>7.9</ele>
        <time>2024-03-03T11:07:11Z</time>
      </trkpt>
      <trkpt lat="49.26697" lon="-0.09423">
        <ele>8</ele>
        <time>2024-03-03T11:07:12Z</time>
      </trkpt>
      <trkpt lat="49.26705" lon="-0.09422">
        <ele>8</ele>
        <time>2024-03-03T11:07:13Z</time>
      </trkpt>
      <trkpt lat="49.26713" lon="-0.09422">
        <ele>8.1</ele>
        <time>2024-03-03T11:07:14Z</time>
      </trkpt>
      <trkpt lat="49.26721" lon="-0.09422">
        <ele>8.3</ele>
        <time>2024-03-03T11:07:15Z</time>
      </trkpt>
      <trkpt lat="49.26729" lon="-0.09422">
        <ele>8.4</ele>
        <time>2024-03-03T11:07:16Z</time>
      </trkpt>
      <trkpt lat="49.26736" lon="-0.09422">
        <ele>8.6</ele>
        <time>2024-03-03T11:07:17Z</time>
      </trkpt>
      <trkpt lat="49.26744" lon="-0.09422">
        <ele>8.8</ele>
        <time>2024-03-03T11:07:18Z</time>
      </trkpt>
      <trkpt lat="49.26751" lon="-0.09422">
        <ele>9</ele>
        <time>2024-03-03T11:07:19Z</time>
      </trkpt>
      <trkpt lat="49.26757" lon="-0.09422">
        <ele>9.3</ele>
        <time>2024-03-03T11:07:20Z</time>
      </trkpt>
      <trkpt lat="49.26763" lon="-0.09421">
        <ele>9.6</ele>
        <time>2024-03-03T11:07:21Z</time>
      </trkpt>
      <trkpt lat="49.26769" lon="-0.09421">
        <ele>9.9</ele>
        <time>2024-03-03T11:07:22Z</time>
      </trkpt>
      <trkpt lat="49.26775" lon="-0.0942">
        <ele>10.2</ele>
        <time>2024-03-03T11:07:23Z</time>
      </trkpt>
      <trkpt lat="49.26781" lon="-0.0942">
        <ele>10.4</ele>
        <time>2024-03-03T11:07:24Z</time>
      </trkpt>
      <trkpt lat="49.26787" lon="-0.09419">
        <ele>10.7</ele>
        <time>2024-03-03T11:07:25Z</time>
      </trkpt>
      <trkpt lat="49.26793" lon="-0.09419">
        <ele>11</ele>
        <time>2024-03-03T11:07:26Z</time>
      </trkpt>
      <trkpt lat="49.26798" lon="-0.09418">
        <ele>11.3</ele>
        <time>2024-03-03T11:07:27Z</time>
      </trkpt>
      <trkpt lat="49.26804" lon="-0.09418">
        <ele>11.5</ele>
        <time>2024-03-03T11:07:28Z</time>
      </trkpt>
      <trkpt lat="49.26809" lon="-0.09419">
        <ele>11.8</ele>
        <time>2024-03-03T11:07:29Z</time>
      </trkpt>
      <trkpt lat="49.26815" lon="-0.09419">
        <ele>12.1</ele>
        <time>2024-03-03T11:07:30Z</time>
      </trkpt>
      <trkpt lat="49.2682" lon="-0.09419">
        <ele>12.4</ele>
        <time>2024-03-03T11:07:31Z</time>
      </trkpt>
      <trkpt lat="49.26825" lon="-0.0942">
        <ele>12.7</ele>
        <time>2024-03-03T11:07:32Z</time>
      </trkpt>
      <trkpt lat="49.2683" lon="-0.0942">
        <ele>13</ele>
        <time>2024-03-03T11:07:33Z</time>
      </trkpt>
      <trkpt lat="49.26835" lon="-0.0942">
        <ele>13.2</ele>
        <time>2024-03-03T11:07:34Z</time>
      </trkpt>
      <trkpt lat="49.2684" lon="-0.0942">
        <ele>13.5</ele>
        <time>2024-03-03T11:07:35Z</time>
      </trkpt>
      <trkpt lat="49.26845" lon="-0.09419">
        <ele>13.8</ele>
        <time>2024-03-03T11:07:36Z</time>
      </trkpt>
      <trkpt lat="49.2685" lon="-0.09419">
        <ele>14.1</ele>
        <time>2024-03-03T11:07:37Z</time>
      </trkpt>
      <trkpt lat="49.26855" lon="-0.09418">
        <ele>14.4</ele>
        <time>2024-03-03T11:07:38Z</time>
      </trkpt>
      <trkpt lat="49.2686" lon="-0.09418">
        <ele>14.7</ele>
        <time>2024-03-03T11:07:39Z</time>
      </trkpt>
      <trkpt lat="49.26864" lon="-0.09418">
        <ele>15</ele>
        <time>2024-03-03T11:07:40Z</time>
      </trkpt>
      <trkpt lat="49.26869" lon="-0.09418">
        <ele>15.3</ele>
        <time>2024-03-03T11:07:41Z</time>
      </trkpt>
      <trkpt lat="49.26874" lon="-0.09417">
        <ele>15.5</ele>
        <time>2024-03-03T11:07:42Z</time>
      </trkpt>
      <trkpt lat="49.26879" lon="-0.09417">
        <ele>15.8</ele>
        <time>2024-03-03T11:07:43Z</time>
      </trkpt>
      <trkpt lat="49.26883" lon="-0.09417">
        <ele>16.1</ele>
        <time>2024-03-03T11:07:44Z</time>
      </trkpt>
      <trkpt lat="49.26888" lon="-0.09417">
        <ele>16.3</ele>
        <time>2024-03-03T11:07:45Z</time>
      </trkpt>
      <trkpt lat="49.26892" lon="-0.09416">
        <ele>16.6</ele>
        <time>2024-03-03T11:07:46Z</time>
      </trkpt>
      <trkpt lat="49.26896" lon="-0.09416">
        <ele>16.8</ele>
        <time>2024-03-03T11:07:47Z</time>
      </trkpt>
      <trkpt lat="49.26901" lon="-0.09416">
        <ele>17.1</ele>
        <time>2024-03-03T11:07:48Z</time>
      </trkpt>
      <trkpt lat="49.26905" lon="-0.09416">
        <ele>17.4</ele>
        <time>2024-03-03T11:07:49Z</time>
      </trkpt>
      <trkpt lat="49.2691" lon="-0.09416">
        <ele>17.7</ele>
        <time>2024-03-03T11:07:50Z</time>
      </trkpt>
      <trkpt lat="49.26915" lon="-0.09417">
        <ele>18</ele>
        <time>2024-03-03T11:07:51Z</time>
      </trkpt>
      <trkpt lat="49.26919" lon="-0.09417">
        <ele>18.2</ele>
        <time>2024-03-03T11:07:52Z</time>
      </trkpt>
      <trkpt lat="49.26924" lon="-0.09417">
        <ele>18.5</ele>
        <time>2024-03-03T11:07:53Z</time>
      </trkpt>
      <trkpt lat="49.26929" lon="-0.09416">
        <ele>18.8</ele>
        <time>2024-03-03T11:07:54Z</time>
      </trkpt>
      <trkpt lat="49.26933" lon="-0.09416">
        <ele>19.1</ele>
        <time>2024-03-03T11:07:55Z</time>
      </trkpt>
      <trkpt lat="49.26937" lon="-0.09416">
        <ele>19.3</ele>
        <time>2024-03-03T11:07:56Z</time>
      </trkpt>
      <trkpt lat="49.26941" lon="-0.09415">
        <ele>19.5</ele>
        <time>2024-03-03T11:07:57Z</time>
      </trkpt>
      <trkpt lat="49.26945" lon="-0.09414">
        <ele>19.7</ele>
        <time>2024-03-03T11:07:58Z</time>
      </trkpt>
      <trkpt lat="49.2695" lon="-0.09413">
        <ele>20</ele>
        <time>2024-03-03T11:07:59Z</time>
      </trkpt>
      <trkpt lat="49.26953" lon="-0.09413">
        <ele>20.2</ele>
        <time>2024-03-03T11:08:00Z</time>
      </trkpt>
      <trkpt lat="49.26957" lon="-0.09414">
        <ele>20.5</ele>
        <time>2024-03-03T11:08:01Z</time>
      </trkpt>
      <trkpt lat="49.26961" lon="-0.09413">
        <ele>20.7</ele>
        <time>2024-03-03T11:08:02Z</time>
      </trkpt>
      <trkpt lat="49.26965" lon="-0.09413">
        <ele>20.9</ele>
        <time>2024-03-03T11:08:03Z</time>
      </trkpt>
      <trkpt lat="49.26969" lon="-0.09414">
        <ele>21.1</ele>
        <time>2024-03-03T11:08:04Z</time>
      </trkpt>
      <trkpt lat="49.26972" lon="-0.09413">
        <ele>21.3</ele>
        <time>2024-03-03T11:08:05Z</time>
      </trkpt>
      <trkpt lat="49.26975" lon="-0.09413">
        <ele>21.5</ele>
        <time>2024-03-03T11:08:06Z</time>
      </trkpt>
      <trkpt lat="49.26979" lon="-0.09413">
        <ele>21.7</ele>
        <time>2024-03-03T11:08:07Z</time>
      </trkpt>
      <trkpt lat="49.26984" lon="-0.09412">
        <ele>21.9</ele>
        <time>2024-03-03T11:08:08Z</time>
      </trkpt>
      <trkpt lat="49.26988" lon="-0.09412">
        <ele>22.1</ele>
        <time>2024-03-03T11:08:09Z</time>
      </trkpt>
      <trkpt lat="49.26993" lon="-0.09413">
        <ele>22.2</ele>
        <time>2024-03-03T11:08:10Z</time>
      </trkpt>
      <trkpt lat="49.26997" lon="-0.09414">
        <ele>22.3</ele>
        <time>2024-03-03T11:08:11Z</time>
      </trkpt>
      <trkpt lat="49.27001" lon="-0.09415">
        <ele>22.4</ele>
        <time>2024-03-03T11:08:12Z</time>
      </trkpt>
      <trkpt lat="49.27006" lon="-0.09414">
        <ele>22.5</ele>
        <time>2024-03-03T11:08:13Z</time>
      </trkpt>
      <trkpt lat="49.27011" lon="-0.09414">
        <ele>22.6</ele>
        <time>2024-03-03T11:08:14Z</time>
      </trkpt>
      <trkpt lat="49.27016" lon="-0.09415">
        <ele>22.6</ele>
        <time>2024-03-03T11:08:15Z</time>
      </trkpt>
      <trkpt lat="49.27021" lon="-0.09415">
        <ele>22.6</ele>
        <time>2024-03-03T11:08:16Z</time>
      </trkpt>
      <trkpt lat="49.27027" lon="-0.09417">
        <ele>22.6</ele>
        <time>2024-03-03T11:08:17Z</time>
      </trkpt>
      <trkpt lat="49.27032" lon="-0.09419">
        <ele>22.5</ele>
        <time>2024-03-03T11:08:18Z</time>
      </trkpt>
      <trkpt lat="49.27038" lon="-0.09421">
        <ele>22.4</ele>
        <time>2024-03-03T11:08:19Z</time>
      </trkpt>
      <trkpt lat="49.27044" lon="-0.09425">
        <ele>22.3</ele>
        <time>2024-03-03T11:08:20Z</time>
      </trkpt>
      <trkpt lat="49.2705" lon="-0.09429">
        <ele>22.2</ele>
        <time>2024-03-03T11:08:21Z</time>
      </trkpt>
      <trkpt lat="49.27056" lon="-0.09434">
        <ele>22</ele>
        <time>2024-03-03T11:08:22Z</time>
      </trkpt>
      <trkpt lat="49.27061" lon="-0.09439">
        <ele>21.9</ele>
        <time>2024-03-03T11:08:23Z</time>
      </trkpt>
      <trkpt lat="49.27067" lon="-0.09444">
        <ele>21.7</ele>
        <time>2024-03-03T11:08:24Z</time>
      </trkpt>
      <trkpt lat="49.27073" lon="-0.0945">
        <ele>21.5</ele>
        <time>2024-03-03T11:08:25Z</time>
      </trkpt>
      <trkpt lat="49.27079" lon="-0.09456">
        <ele>21.3</ele>
        <time>2024-03-03T11:08:26Z</time>
      </trkpt>
      <trkpt lat="49.27085" lon="-0.09462">
        <ele>21.1</ele>
        <time>2024-03-03T11:08:27Z</time>
      </trkpt>
      <trkpt lat="49.27091" lon="-0.09467">
        <ele>20.9</ele>
        <time>2024-03-03T11:08:28Z</time>
      </trkpt>
      <trkpt lat="49.27098" lon="-0.09471">
        <ele>20.6</ele>
        <time>2024-03-03T11:08:29Z</time>
      </trkpt>
      <trkpt lat="49.27105" lon="-0.09474">
        <ele>20.3</ele>
        <time>2024-03-03T11:08:30Z</time>
      </trkpt>
      <trkpt lat="49.27112" lon="-0.09477">
        <ele>20</ele>
        <time>2024-03-03T11:08:31Z</time>
      </trkpt>
      <trkpt lat="49.27119" lon="-0.09481">
        <ele>19.6</ele>
        <time>2024-03-03T11:08:32Z</time>
      </trkpt>
      <trkpt lat="49.27126" lon="-0.09484">
        <ele>19.3</ele>
        <time>2024-03-03T11:08:33Z</time>
      </trkpt>
      <trkpt lat="49.27134" lon="-0.09488">
        <ele>18.9</ele>
        <time>2024-03-03T11:08:34Z</time>
      </trkpt>
      <trkpt lat="49.27141" lon="-0.09492">
        <ele>18.5</ele>
        <time>2024-03-03T11:08:35Z</time>
      </trkpt>
      <trkpt lat="49.27148" lon="-0.09496">
        <ele>18.1</ele>
        <time>2024-03-03T11:08:36Z</time>
      </trkpt>
      <trkpt lat="49.27156" lon="-0.09501">
        <ele>17.5</ele>
        <time>2024-03-03T11:08:37Z</time>
      </trkpt>
      <trkpt lat="49.27164" lon="-0.09507">
        <ele>17</ele>
        <time>2024-03-03T11:08:38Z</time>
      </trkpt>
      <trkpt lat="49.27172" lon="-0.09512">
        <ele>16.4</ele>
        <time>2024-03-03T11:08:39Z</time>
      </trkpt>
      <trkpt lat="49.2718" lon="-0.09518">
        <ele>15.9</ele>
        <time>2024-03-03T11:08:40Z</time>
      </trkpt>
      <trkpt lat="49.27189" lon="-0.09523">
        <ele>15.4</ele>
        <time>2024-03-03T11:08:41Z</time>
      </trkpt>
      <trkpt lat="49.27198" lon="-0.09527">
        <ele>14.8</ele>
        <time>2024-03-03T11:08:42Z</time>
      </trkpt>
      <trkpt lat="49.27207" lon="-0.09529">
        <ele>14.3</ele>
        <time>2024-03-03T11:08:43Z</time>
      </trkpt>
      <trkpt lat="49.27216" lon="-0.09531">
        <ele>13.8</ele>
        <time>2024-03-03T11:08:44Z</time>
      </trkpt>
      <trkpt lat="49.27226" lon="-0.09533">
        <ele>13.3</ele>
        <time>2024-03-03T11:08:45Z</time>
      </trkpt>
      <trkpt lat="49.27235" lon="-0.09535">
        <ele>12.8</ele>
        <time>2024-03-03T11:08:46Z</time>
      </trkpt>
      <trkpt lat="49.27245" lon="-0.09537">
        <ele>12.3</ele>
        <time>2024-03-03T11:08:47Z</time>
      </trkpt>
      <trkpt lat="49.27255" lon="-0.09539">
        <ele>11.8</ele>
        <time>2024-03-03T11:08:48Z</time>
      </trkpt>
      <trkpt lat="49.27264" lon="-0.09541">
        <ele>11.4</ele>
        <time>2024-03-03T11:08:49Z</time>
      </trkpt>
      <trkpt lat="49.27274" lon="-0.09543">
        <ele>11</ele>
        <time>2024-03-03T11:08:50Z</time>
      </trkpt>
      <trkpt lat="49.27283" lon="-0.09545">
        <ele>10.6</ele>
        <time>2024-03-03T11:08:51Z</time>
      </trkpt>
      <trkpt lat="49.27292" lon="-0.09547">
        <ele>10.2</ele>
        <time>2024-03-03T11:08:52Z</time>
      </trkpt>
      <trkpt lat="49.27302" lon="-0.09549">
        <ele>9.9</ele>
        <time>2024-03-03T11:08:53Z</time>
      </trkpt>
      <trkpt lat="49.27311" lon="-0.09551">
        <ele>9.5</ele>
        <time>2024-03-03T11:08:54Z</time>
      </trkpt>
      <trkpt lat="49.2732" lon="-0.09553">
        <ele>9.2</ele>
        <time>2024-03-03T11:08:55Z</time>
      </trkpt>
      <trkpt lat="49.27329" lon="-0.09555">
        <ele>8.8</ele>
        <time>2024-03-03T11:08:56Z</time>
      </trkpt>
      <trkpt lat="49.27338" lon="-0.09558">
        <ele>8.5</ele>
        <time>2024-03-03T11:08:57Z</time>
      </trkpt>
      <trkpt lat="49.27347" lon="-0.0956">
        <ele>8.2</ele>
        <time>2024-03-03T11:08:58Z</time>
      </trkpt>
      <trkpt lat="49.27356" lon="-0.09562">
        <ele>7.9</ele>
        <time>2024-03-03T11:08:59Z</time>
      </trkpt>
      <trkpt lat="49.27365" lon="-0.09565">
        <ele>7.5</ele>
        <time>2024-03-03T11:09:00Z</time>
      </trkpt>
      <trkpt lat="49.27374" lon="-0.09568">
        <ele>7.2</ele>
        <time>2024-03-03T11:09:01Z</time>
      </trkpt>
      <trkpt lat="49.27382" lon="-0.09571">
        <ele>6.9</ele>
        <time>2024-03-03T11:09:02Z</time>
      </trkpt>
      <trkpt lat="49.27391" lon="-0.09575">
        <ele>6.6</ele>
        <time>2024-03-03T11:09:03Z</time>
      </trkpt>
      <trkpt lat="49.274" lon="-0.09578">
        <ele>6.4</ele>
        <time>2024-03-03T11:09:04Z</time>
      </trkpt>
      <trkpt lat="49.27409" lon="-0.09581">
        <ele>6.2</ele>
        <time>2024-03-03T11:09:05Z</time>
      </trkpt>
      <trkpt lat="49.27418" lon="-0.09582">
        <ele>6</ele>
        <time>2024-03-03T11:09:06Z</time>
      </trkpt>
      <trkpt lat="49.27427" lon="-0.09582">
        <ele>5.8</ele>
        <time>2024-03-03T11:09:07Z</time>
      </trkpt>
      <trkpt lat="49.27436" lon="-0.09581">
        <ele>5.7</ele>
        <time>2024-03-03T11:09:08Z</time>
      </trkpt>
      <trkpt lat="49.27444" lon="-0.0958">
        <ele>5.6</ele>
        <time>2024-03-03T11:09:09Z</time>
      </trkpt>
      <trkpt lat="49.27453" lon="-0.09578">
        <ele>5.6</ele>
        <time>2024-03-03T11:09:10Z</time>
      </trkpt>
      <trkpt lat="49.27461" lon="-0.09578">
        <ele>5.5</ele>
        <time>2024-03-03T11:09:11Z</time>
      </trkpt>
      <trkpt lat="49.2747" lon="-0.09576">
        <ele>5.4</ele>
        <time>2024-03-03T11:09:12Z</time>
      </trkpt>
      <trkpt lat="49.27478" lon="-0.09575">
        <ele>5.3</ele>
        <time>2024-03-03T11:09:13Z</time>
      </trkpt>
      <trkpt lat="49.27486" lon="-0.09573">
        <ele>5.2</ele>
        <time>2024-03-03T11:09:14Z</time>
      </trkpt>
      <trkpt lat="49.27493" lon="-0.09572">
        <ele>5.2</ele>
        <time>2024-03-03T11:09:15Z</time>
      </trkpt>
      <trkpt lat="49.27501" lon="-0.09571">
        <ele>5.2</ele>
        <time>2024-03-03T11:09:16Z</time>
      </trkpt>
      <trkpt lat="49.27508" lon="-0.0957">
        <ele>5.2</ele>
        <time>2024-03-03T11:09:17Z</time>
      </trkpt>
      <trkpt lat="49.27516" lon="-0.09569">
        <ele>5.1</ele>
        <time>2024-03-03T11:09:18Z</time>
      </trkpt>
      <trkpt lat="49.27523" lon="-0.09567">
        <ele>5.1</ele>
        <time>2024-03-03T11:09:19Z</time>
      </trkpt>
      <trkpt lat="49.2753" lon="-0.09565">
        <ele>5.1</ele>
        <time>2024-03-03T11:09:20Z</time>
      </trkpt>
      <trkpt lat="49.27536" lon="-0.09563">
        <ele>5.1</ele>
        <time>2024-03-03T11:09:21Z</time>
      </trkpt>
      <trkpt lat="49.27542" lon="-0.09559">
        <ele>5.1</ele>
        <time>2024-03-03T11:09:22Z</time>
      </trkpt>
      <trkpt lat="49.27548" lon="-0.09556">
        <ele>5.1</ele>
        <time>2024-03-03T11:09:23Z</time>
      </trkpt>
      <trkpt lat="49.27554" lon="-0.09553">
        <ele>5.2</ele>
        <time>2024-03-03T11:09:24Z</time>
      </trkpt>
      <trkpt lat="49.27559" lon="-0.0955">
        <ele>5.2</ele>
        <time>2024-03-03T11:09:25Z</time>
      </trkpt>
      <trkpt lat="49.27563" lon="-0.09549">
        <ele>5.2</ele>
        <time>2024-03-03T11:09:26Z</time>
      </trkpt>
      <trkpt lat="49.27568" lon="-0.09549">
        <ele>5.2</ele>
        <time>2024-03-03T11:09:27Z</time>
      </trkpt>
      <trkpt lat="49.27573" lon="-0.09549">
        <ele>5.2</ele>
        <time>2024-03-03T11:09:28Z</time>
      </trkpt>
      <trkpt lat="49.27579" lon="-0.09549">
        <ele>5.2</ele>
        <time>2024-03-03T11:09:29Z</time>
      </trkpt>
      <trkpt lat="49.27584" lon="-0.09548">
        <ele>5.1</ele>
        <time>2024-03-03T11:09:30Z</time>
      </trkpt>
      <trkpt lat="49.2759" lon="-0.09547">
        <ele>5.1</ele>
        <time>2024-03-03T11:09:31Z</time>
      </trkpt>
      <trkpt lat="49.27595" lon="-0.09546">
        <ele>5</ele>
        <time>2024-03-03T11:09:32Z</time>
      </trkpt>
      <trkpt lat="49.27601" lon="-0.09545">
        <ele>5</ele>
        <time>2024-03-03T11:09:33Z</time>
      </trkpt>
      <trkpt lat="49.27607" lon="-0.09545">
        <ele>4.9</ele>
        <time>2024-03-03T11:09:34Z</time>
      </trkpt>
      <trkpt lat="49.27613" lon="-0.09544">
        <ele>4.9</ele>
        <time>2024-03-03T11:09:35Z</time>
      </trkpt>
      <trkpt lat="49.27619" lon="-0.09544">
        <ele>4.9</ele>
        <time>2024-03-03T11:09:36Z</time>
      </trkpt>
      <trkpt lat="49.27625" lon="-0.09543">
        <ele>4.9</ele>
        <time>2024-03-03T11:09:37Z</time>
      </trkpt>
      <trkpt lat="49.27631" lon="-0.09541">
        <ele>5</ele>
        <time>2024-03-03T11:09:38Z</time>
      </trkpt>
      <trkpt lat="49.27637" lon="-0.0954">
        <ele>5</ele>
        <time>2024-03-03T11:09:39Z</time>
      </trkpt>
      <trkpt lat="49.27642" lon="-0.09539">
        <ele>5</ele>
        <time>2024-03-03T11:09:40Z</time>
      </trkpt>
      <trkpt lat="49.27648" lon="-0.09539">
        <ele>5.1</ele>
        <time>2024-03-03T11:09:41Z</time>
      </trkpt>
      <trkpt lat="49.27654" lon="-0.09539">
        <ele>5.1</ele>
        <time>2024-03-03T11:09:42Z</time>
      </trkpt>
      <trkpt lat="49.2766" lon="-0.09539">
        <ele>5.1</ele>
        <time>2024-03-03T11:09:43Z</time>
      </trkpt>
      <trkpt lat="49.27666" lon="-0.09539">
        <ele>5.1</ele>
        <time>2024-03-03T11:09:44Z</time>
      </trkpt>
      <trkpt lat="49.27672" lon="-0.0954">
        <ele>5.1</ele>
        <time>2024-03-03T11:09:45Z</time>
      </trkpt>
      <trkpt lat="49.27679" lon="-0.09541">
        <ele>5.1</ele>
        <time>2024-03-03T11:09:46Z</time>
      </trkpt>
      <trkpt lat="49.27686" lon="-0.09542">
        <ele>5.1</ele>
        <time>2024-03-03T11:09:47Z</time>
      </trkpt>
      <trkpt lat="49.27692" lon="-0.09541">
        <ele>5.1</ele>
        <time>2024-03-03T11:09:48Z</time>
      </trkpt>
      <trkpt lat="49.27698" lon="-0.0954">
        <ele>5.1</ele>
        <time>2024-03-03T11:09:49Z</time>
      </trkpt>
      <trkpt lat="49.27704" lon="-0.09539">
        <ele>5.1</ele>
        <time>2024-03-03T11:09:50Z</time>
      </trkpt>
      <trkpt lat="49.2771" lon="-0.09538">
        <ele>5.1</ele>
        <time>2024-03-03T11:09:51Z</time>
      </trkpt>
      <trkpt lat="49.27716" lon="-0.09538">
        <ele>5.1</ele>
        <time>2024-03-03T11:09:52Z</time>
      </trkpt>
      <trkpt lat="49.27722" lon="-0.09537">
        <ele>5.1</ele>
        <time>2024-03-03T11:09:53Z</time>
      </trkpt>
      <trkpt lat="49.27727" lon="-0.09536">
        <ele>5.1</ele>
        <time>2024-03-03T11:09:54Z</time>
      </trkpt>
      <trkpt lat="49.27733" lon="-0.09535">
        <ele>5.1</ele>
        <time>2024-03-03T11:09:55Z</time>
      </trkpt>
      <trkpt lat="49.27739" lon="-0.09534">
        <ele>5.1</ele>
        <time>2024-03-03T11:09:56Z</time>
      </trkpt>
      <trkpt lat="49.27745" lon="-0.09533">
        <ele>5.1</ele>
        <time>2024-03-03T11:09:57Z</time>
      </trkpt>
      <trkpt lat="49.27752" lon="-0.09532">
        <ele>5.1</ele>
        <time>2024-03-03T11:09:58Z</time>
      </trkpt>
      <trkpt lat="49.27758" lon="-0.09531">
        <ele>5.1</ele>
        <time>2024-03-03T11:09:59Z</time>
      </trkpt>
      <trkpt lat="49.27764" lon="-0.0953">
        <ele>5.1</ele>
        <time>2024-03-03T11:10:00Z</time>
      </trkpt>
      <trkpt lat="49.27771" lon="-0.09529">
        <ele>5.1</ele>
        <time>2024-03-03T11:10:01Z</time>
      </trkpt>
      <trkpt lat="49.27777" lon="-0.09528">
        <ele>5.1</ele>
        <time>2024-03-03T11:10:02Z</time>
      </trkpt>
      <trkpt lat="49.27783" lon="-0.09528">
        <ele>5.1</ele>
        <time>2024-03-03T11:10:03Z</time>
      </trkpt>
      <trkpt lat="49.27789" lon="-0.09527">
        <ele>5.1</ele>
        <time>2024-03-03T11:10:04Z</time>
      </trkpt>
      <trkpt lat="49.27795" lon="-0.09527">
        <ele>5.1</ele>
        <time>2024-03-03T11:10:05Z</time>
      </trkpt>
      <trkpt lat="49.27801" lon="-0.09525">
        <ele>5.1</ele>
        <time>2024-03-03T11:10:06Z</time>
      </trkpt>
      <trkpt lat="49.27807" lon="-0.09524">
        <ele>5.1</ele>
        <time>2024-03-03T11:10:07Z</time>
      </trkpt>
      <trkpt lat="49.27813" lon="-0.09523">
        <ele>5.1</ele>
        <time>2024-03-03T11:10:08Z</time>
      </trkpt>
      <trkpt lat="49.2782" lon="-0.09522">
        <ele>5.1</ele>
        <time>2024-03-03T11:10:09Z</time>
      </trkpt>
      <trkpt lat="49.27826" lon="-0.09522">
        <ele>5.1</ele>
        <time>2024-03-03T11:10:10Z</time>
      </trkpt>
      <trkpt lat="49.27833" lon="-0.09522">
        <ele>5.1</ele>
        <time>2024-03-03T11:10:11Z</time>
      </trkpt>
      <trkpt lat="49.27839" lon="-0.09521">
        <ele>5.1</ele>
        <time>2024-03-03T11:10:12Z</time>
      </trkpt>
      <trkpt lat="49.27845" lon="-0.0952">
        <ele>5.1</ele>
        <time>2024-03-03T11:10:13Z</time>
      </trkpt>
      <trkpt lat="49.27852" lon="-0.09519">
        <ele>5.1</ele>
        <time>2024-03-03T11:10:14Z</time>
      </trkpt>
      <trkpt lat="49.27858" lon="-0.09519">
        <ele>5.1</ele>
        <time>2024-03-03T11:10:15Z</time>
      </trkpt>
      <trkpt lat="49.27864" lon="-0.09518">
        <ele>5.1</ele>
        <time>2024-03-03T11:10:16Z</time>
      </trkpt>
      <trkpt lat="49.27871" lon="-0.09518">
        <ele>5.2</ele>
        <time>2024-03-03T11:10:17Z</time>
      </trkpt>
      <trkpt lat="49.27877" lon="-0.09519">
        <ele>5.2</ele>
        <time>2024-03-03T11:10:18Z</time>
      </trkpt>
      <trkpt lat="49.27883" lon="-0.09519">
        <ele>5.2</ele>
        <time>2024-03-03T11:10:19Z</time>
      </trkpt>
      <trkpt lat="49.2789" lon="-0.09518">
        <ele>5.2</ele>
        <time>2024-03-03T11:10:20Z</time>
      </trkpt>
      <trkpt lat="49.27896" lon="-0.09518">
        <ele>5.2</ele>
        <time>2024-03-03T11:10:21Z</time>
      </trkpt>
      <trkpt lat="49.27903" lon="-0.09518">
        <ele>5.2</ele>
        <time>2024-03-03T11:10:22Z</time>
      </trkpt>
      <trkpt lat="49.27909" lon="-0.09519">
        <ele>5.2</ele>
        <time>2024-03-03T11:10:23Z</time>
      </trkpt>
      <trkpt lat="49.27916" lon="-0.09519">
        <ele>5.2</ele>
        <time>2024-03-03T11:10:24Z</time>
      </trkpt>
      <trkpt lat="49.27922" lon="-0.0952">
        <ele>5.2</ele>
        <time>2024-03-03T11:10:25Z</time>
      </trkpt>
      <trkpt lat="49.27928" lon="-0.0952">
        <ele>5.2</ele>
        <time>2024-03-03T11:10:26Z</time>
      </trkpt>
      <trkpt lat="49.27935" lon="-0.0952">
        <ele>5.2</ele>
        <time>2024-03-03T11:10:27Z</time>
      </trkpt>
      <trkpt lat="49.27941" lon="-0.0952">
        <ele>5.2</ele>
        <time>2024-03-03T11:10:28Z</time>
      </trkpt>
      <trkpt lat="49.27948" lon="-0.09521">
        <ele>5.2</ele>
        <time>2024-03-03T11:10:29Z</time>
      </trkpt>
      <trkpt lat="49.27955" lon="-0.09522">
        <ele>5.2</ele>
        <time>2024-03-03T11:10:30Z</time>
      </trkpt>
      <trkpt lat="49.27961" lon="-0.09523">
        <ele>5.2</ele>
        <time>2024-03-03T11:10:31Z</time>
      </trkpt>
      <trkpt lat="49.27968" lon="-0.09525">
        <ele>5.2</ele>
        <time>2024-03-03T11:10:32Z</time>
      </trkpt>
      <trkpt lat="49.27975" lon="-0.09527">
        <ele>5.1</ele>
        <time>2024-03-03T11:10:33Z</time>
      </trkpt>
      <trkpt lat="49.27982" lon="-0.09529">
        <ele>5.1</ele>
        <time>2024-03-03T11:10:34Z</time>
      </trkpt>
      <trkpt lat="49.27989" lon="-0.09531">
        <ele>5.1</ele>
        <time>2024-03-03T11:10:35Z</time>
      </trkpt>
      <trkpt lat="49.27996" lon="-0.09533">
        <ele>5.1</ele>
        <time>2024-03-03T11:10:36Z</time>
      </trkpt>
      <trkpt lat="49.28003" lon="-0.09536">
        <ele>5.1</ele>
        <time>2024-03-03T11:10:37Z</time>
      </trkpt>
      <trkpt lat="49.28009" lon="-0.09538">
        <ele>5.1</ele>
        <time>2024-03-03T11:10:38Z</time>
      </trkpt>
      <trkpt lat="49.28015" lon="-0.09541">
        <ele>5.1</ele>
        <time>2024-03-03T11:10:39Z</time>
      </trkpt>
      <trkpt lat="49.28021" lon="-0.09543">
        <ele>5.1</ele>
        <time>2024-03-03T11:10:40Z</time>
      </trkpt>
      <trkpt lat="49.28027" lon="-0.09546">
        <ele>5.1</ele>
        <time>2024-03-03T11:10:41Z</time>
      </trkpt>
      <trkpt lat="49.28033" lon="-0.09549">
        <ele>5.1</ele>
        <time>2024-03-03T11:10:42Z</time>
      </trkpt>
      <trkpt lat="49.28038" lon="-0.09551">
        <ele>5.1</ele>
        <time>2024-03-03T11:10:43Z</time>
      </trkpt>
      <trkpt lat="49.28044" lon="-0.09554">
        <ele>5.1</ele>
        <time>2024-03-03T11:10:44Z</time>
      </trkpt>
      <trkpt lat="49.28051" lon="-0.09557">
        <ele>5.1</ele>
        <time>2024-03-03T11:10:45Z</time>
      </trkpt>
      <trkpt lat="49.28057" lon="-0.09559">
        <ele>5.1</ele>
        <time>2024-03-03T11:10:46Z</time>
      </trkpt>
      <trkpt lat="49.28063" lon="-0.09562">
        <ele>5.1</ele>
        <time>2024-03-03T11:10:47Z</time>
      </trkpt>
      <trkpt lat="49.28069" lon="-0.09565">
        <ele>5.1</ele>
        <time>2024-03-03T11:10:48Z</time>
      </trkpt>
      <trkpt lat="49.28075" lon="-0.09568">
        <ele>5.1</ele>
        <time>2024-03-03T11:10:49Z</time>
      </trkpt>
      <trkpt lat="49.28081" lon="-0.09571">
        <ele>5.1</ele>
        <time>2024-03-03T11:10:50Z</time>
      </trkpt>
      <trkpt lat="49.28087" lon="-0.09574">
        <ele>5.1</ele>
        <time>2024-03-03T11:10:51Z</time>
      </trkpt>
      <trkpt lat="49.28093" lon="-0.09578">
        <ele>5.1</ele>
        <time>2024-03-03T11:10:52Z</time>
      </trkpt>
      <trkpt lat="49.28098" lon="-0.09581">
        <ele>5.1</ele>
        <time>2024-03-03T11:10:53Z</time>
      </trkpt>
      <trkpt lat="49.28104" lon="-0.09584">
        <ele>5.1</ele>
        <time>2024-03-03T11:10:54Z</time>
      </trkpt>
      <trkpt lat="49.2811" lon="-0.09587">
        <ele>5.1</ele>
        <time>2024-03-03T11:10:55Z</time>
      </trkpt>
      <trkpt lat="49.28116" lon="-0.09591">
        <ele>5</ele>
        <time>2024-03-03T11:10:56Z</time>
      </trkpt>
      <trkpt lat="49.28122" lon="-0.09594">
        <ele>5</ele>
        <time>2024-03-03T11:10:57Z</time>
      </trkpt>
      <trkpt lat="49.28129" lon="-0.09598">
        <ele>5</ele>
        <time>2024-03-03T11:10:58Z</time>
      </trkpt>
      <trkpt lat="49.28135" lon="-0.09602">
        <ele>5</ele>
        <time>2024-03-03T11:10:59Z</time>
      </trkpt>
      <trkpt lat="49.2814" lon="-0.09605">
        <ele>5</ele>
        <time>2024-03-03T11:11:00Z</time>
      </trkpt>
      <trkpt lat="49.28146" lon="-0.09608">
        <ele>5</ele>
        <time>2024-03-03T11:11:01Z</time>
      </trkpt>
      <trkpt lat="49.28152" lon="-0.09613">
        <ele>5</ele>
        <time>2024-03-03T11:11:02Z</time>
      </trkpt>
      <trkpt lat="49.28158" lon="-0.09616">
        <ele>5</ele>
        <time>2024-03-03T11:11:03Z</time>
      </trkpt>
      <trkpt lat="49.28164" lon="-0.0962">
        <ele>5</ele>
        <time>2024-03-03T11:11:04Z</time>
      </trkpt>
      <trkpt lat="49.2817" lon="-0.09624">
        <ele>5</ele>
        <time>2024-03-03T11:11:05Z</time>
      </trkpt>
      <trkpt lat="49.28176" lon="-0.09627">
        <ele>5</ele>
        <time>2024-03-03T11:11:06Z</time>
      </trkpt>
      <trkpt lat="49.28181" lon="-0.09631">
        <ele>5</ele>
        <time>2024-03-03T11:11:07Z</time>
      </trkpt>
      <trkpt lat="49.28187" lon="-0.09635">
        <ele>5</ele>
        <time>2024-03-03T11:11:08Z</time>
      </trkpt>
      <trkpt lat="49.28193" lon="-0.09639">
        <ele>5</ele>
        <time>2024-03-03T11:11:09Z</time>
      </trkpt>
      <trkpt lat="49.28198" lon="-0.09642">
        <ele>5</ele>
        <time>2024-03-03T11:11:10Z</time>
      </trkpt>
      <trkpt lat="49.28203" lon="-0.09646">
        <ele>5</ele>
        <time>2024-03-03T11:11:11Z</time>
      </trkpt>
      <trkpt lat="49.28209" lon="-0.09649">
        <ele>5</ele>
        <time>2024-03-03T11:11:12Z</time>
      </trkpt>
      <trkpt lat="49.28214" lon="-0.09653">
        <ele>5</ele>
        <time>2024-03-03T11:11:13Z</time>
      </trkpt>
      <trkpt lat="49.28219" lon="-0.09657">
        <ele>5.1</ele>
        <time>2024-03-03T11:11:14Z</time>
      </trkpt>
      <trkpt lat="49.28224" lon="-0.0966">
        <ele>5.1</ele>
        <time>2024-03-03T11:11:15Z</time>
      </trkpt>
      <trkpt lat="49.2823" lon="-0.09664">
        <ele>5.1</ele>
        <time>2024-03-03T11:11:16Z</time>
      </trkpt>
      <trkpt lat="49.28235" lon="-0.09667">
        <ele>5.1</ele>
        <time>2024-03-03T11:11:17Z</time>
      </trkpt>
      <trkpt lat="49.2824" lon="-0.09671">
        <ele>5.1</ele>
        <time>2024-03-03T11:11:18Z</time>
      </trkpt>
      <trkpt lat="49.28245" lon="-0.09674">
        <ele>5.1</ele>
        <time>2024-03-03T11:11:19Z</time>
      </trkpt>
      <trkpt lat="49.28251" lon="-0.09678">
        <ele>5.1</ele>
        <time>2024-03-03T11:11:20Z</time>
      </trkpt>
      <trkpt lat="49.28256" lon="-0.09682">
        <ele>5.2</ele>
        <time>2024-03-03T11:11:21Z</time>
      </trkpt>
      <trkpt lat="49.28261" lon="-0.09686">
        <ele>5.2</ele>
        <time>2024-03-03T11:11:22Z</time>
      </trkpt>
      <trkpt lat="49.28266" lon="-0.09689">
        <ele>5.2</ele>
        <time>2024-03-03T11:11:23Z</time>
      </trkpt>
      <trkpt lat="49.28271" lon="-0.09691">
        <ele>5.2</ele>
        <time>2024-03-03T11:11:24Z</time>
      </trkpt>
      <trkpt lat="49.28275" lon="-0.09694">
        <ele>5.2</ele>
        <time>2024-03-03T11:11:25Z</time>
      </trkpt>
      <trkpt lat="49.2828" lon="-0.09696">
        <ele>5.3</ele>
        <time>2024-03-03T11:11:26Z</time>
      </trkpt>
      <trkpt lat="49.28284" lon="-0.09699">
        <ele>5.3</ele>
        <time>2024-03-03T11:11:27Z</time>
      </trkpt>
      <trkpt lat="49.28288" lon="-0.09701">
        <ele>5.3</ele>
        <time>2024-03-03T11:11:28Z</time>
      </trkpt>
      <trkpt lat="49.28292" lon="-0.09702">
        <ele>5.3</ele>
        <time>2024-03-03T11:11:29Z</time>
      </trkpt>
      <trkpt lat="49.28296" lon="-0.09703">
        <ele>5.4</ele>
        <time>2024-03-03T11:11:30Z</time>
      </trkpt>
      <trkpt lat="49.28299" lon="-0.09704">
        <ele>5.4</ele>
        <time>2024-03-03T11:11:31Z</time>
      </trkpt>
      <trkpt lat="49.28302" lon="-0.09705">
        <ele>5.4</ele>
        <time>2024-03-03T11:11:32Z</time>
      </trkpt>
      <trkpt lat="49.28304" lon="-0.09706">
        <ele>5.4</ele>
        <time>2024-03-03T11:11:33Z</time>
      </trkpt>
      <trkpt lat="49.28305" lon="-0.09706">
        <ele>5.4</ele>
        <time>2024-03-03T11:11:34Z</time>
      </trkpt>
      <trkpt lat="49.28305" lon="-0.09706">
        <ele>5.4</ele>
        <time>2024-03-03T11:11:35Z</time>
      </trkpt>
      <trkpt lat="49.28305" lon="-0.09706">
        <ele>5.4</ele>
        <time>2024-03-03T11:11:36Z</time>
      </trkpt>
      <trkpt lat="49.28305" lon="-0.09706">
        <ele>5.4</ele>
        <time>2024-03-03T11:11:37Z</time>
      </trkpt>
      <trkpt lat="49.28305" lon="-0.09706">
        <ele>5.4</ele>
        <time>2024-03-03T11:11:38Z</time>
      </trkpt>
      <trkpt lat="49.28305" lon="-0.09706">
        <ele>5.4</ele>
        <time>2024-03-03T11:11:39Z</time>
      </trkpt>
      <trkpt lat="49.28305" lon="-0.09706">
        <ele>5.4</ele>
        <time>2024-03-03T11:11:40Z</time>
      </trkpt>
      <trkpt lat="49.28305" lon="-0.09706">
        <ele>5.4</ele>
        <time>2024-03-03T11:11:41Z</time>
      </trkpt>
      <trkpt lat="49.28305" lon="-0.09706">
        <ele>5.4</ele>
        <time>2024-03-03T11:11:42Z</time>
      </trkpt>
      <trkpt lat="49.28305" lon="-0.09706">
        <ele>5.4</ele>
        <time>2024-03-03T11:11:43Z</time>
      </trkpt>
      <trkpt lat="49.28305" lon="-0.09706">
        <ele>5.4</ele>
        <time>2024-03-03T11:11:44Z</time>
      </trkpt>
      <trkpt lat="49.28305" lon="-0.09706">
        <ele>5.4</ele>
        <time>2024-03-03T11:11:45Z</time>
      </trkpt>
      <trkpt lat="49.28305" lon="-0.09706">
        <ele>5.4</ele>
        <time>2024-03-03T11:11:46Z</time>
      </trkpt>
      <trkpt lat="49.28305" lon="-0.09706">
        <ele>5.4</ele>
        <time>2024-03-03T11:11:47Z</time>
      </trkpt>
      <trkpt lat="49.28305" lon="-0.09706">
        <ele>5.4</ele>
        <time>2024-03-03T11:11:48Z</time>
      </trkpt>
      <trkpt lat="49.28306" lon="-0.09706">
        <ele>5.4</ele>
        <time>2024-03-03T11:11:49Z</time>
      </trkpt>
      <trkpt lat="49.28308" lon="-0.09706">
        <ele>5.4</ele>
        <time>2024-03-03T11:11:50Z</time>
      </trkpt>
      <trkpt lat="49.28309" lon="-0.09707">
        <ele>5.4</ele>
        <time>2024-03-03T11:11:51Z</time>
      </trkpt>
      <trkpt lat="49.28312" lon="-0.09708">
        <ele>5.4</ele>
        <time>2024-03-03T11:11:52Z</time>
      </trkpt>
      <trkpt lat="49.28313" lon="-0.09708">
        <ele>5.4</ele>
        <time>2024-03-03T11:11:53Z</time>
      </trkpt>
      <trkpt lat="49.28316" lon="-0.09708">
        <ele>5.4</ele>
        <time>2024-03-03T11:11:54Z</time>
      </trkpt>
      <trkpt lat="49.28317" lon="-0.09708">
        <ele>5.4</ele>
        <time>2024-03-03T11:11:55Z</time>
      </trkpt>
      <trkpt lat="49.2832" lon="-0.09708">
        <ele>5.5</ele>
        <time>2024-03-03T11:11:56Z</time>
      </trkpt>
      <trkpt lat="49.28322" lon="-0.09708">
        <ele>5.5</ele>
        <time>2024-03-03T11:11:57Z</time>
      </trkpt>
      <trkpt lat="49.28325" lon="-0.09711">
        <ele>5.5</ele>
        <time>2024-03-03T11:11:58Z</time>
      </trkpt>
      <trkpt lat="49.28326" lon="-0.09713">
        <ele>5.5</ele>
        <time>2024-03-03T11:11:59Z</time>
      </trkpt>
      <trkpt lat="49.28328" lon="-0.09718">
        <ele>5.4</ele>
        <time>2024-03-03T11:12:00Z</time>
      </trkpt>
      <trkpt lat="49.28328" lon="-0.09724">
        <ele>5.4</ele>
        <time>2024-03-03T11:12:01Z</time>
      </trkpt>
      <trkpt lat="49.28328" lon="-0.09731">
        <ele>5.3</ele>
        <time>2024-03-03T11:12:02Z</time>
      </trkpt>
      <trkpt lat="49.28328" lon="-0.09737">
        <ele>5.3</ele>
        <time>2024-03-03T11:12:03Z</time>
      </trkpt>
      <trkpt lat="49.28329" lon="-0.09743">
        <ele>5.3</ele>
        <time>2024-03-03T11:12:04Z</time>
      </trkpt>
      <trkpt lat="49.28329" lon="-0.09749">
        <ele>5.2</ele>
        <time>2024-03-03T11:12:05Z</time>
      </trkpt>
      <trkpt lat="49.2833" lon="-0.09756">
        <ele>5.2</ele>
        <time>2024-03-03T11:12:06Z</time>
      </trkpt>
      <trkpt lat="49.28331" lon="-0.09764">
        <ele>5.1</ele>
        <time>2024-03-03T11:12:07Z</time>
      </trkpt>
      <trkpt lat="49.28331" lon="-0.09771">
        <ele>5.1</ele>
        <time>2024-03-03T11:12:08Z</time>
      </trkpt>
      <trkpt lat="49.28331" lon="-0.09779">
        <ele>5</ele>
        <time>2024-03-03T11:12:09Z</time>
      </trkpt>
      <trkpt lat="49.28331" lon="-0.09786">
        <ele>5</ele>
        <time>2024-03-03T11:12:10Z</time>
      </trkpt>
      <trkpt lat="49.28332" lon="-0.09794">
        <ele>5</ele>
        <time>2024-03-03T11:12:11Z</time>
      </trkpt>
      <trkpt lat="49.28332" lon="-0.09802">
        <ele>4.9</ele>
        <time>2024-03-03T11:12:12Z</time>
      </trkpt>
      <trkpt lat="49.28333" lon="-0.0981">
        <ele>4.9</ele>
        <time>2024-03-03T11:12:13Z</time>
      </trkpt>
      <trkpt lat="49.28333" lon="-0.09818">
        <ele>4.9</ele>
        <time>2024-03-03T11:12:14Z</time>
      </trkpt>
      <trkpt lat="49.28333" lon="-0.09826">
        <ele>4.9</ele>
        <time>2024-03-03T11:12:15Z</time>
      </trkpt>
      <trkpt lat="49.28333" lon="-0.09834">
        <ele>4.9</ele>
        <time>2024-03-03T11:12:16Z</time>
      </trkpt>
      <trkpt lat="49.28334" lon="-0.09843">
        <ele>4.9</ele>
        <time>2024-03-03T11:12:17Z</time>
      </trkpt>
      <trkpt lat="49.28334" lon="-0.09852">
        <ele>4.8</ele>
        <time>2024-03-03T11:12:18Z</time>
      </trkpt>
      <trkpt lat="49.28334" lon="-0.0986">
        <ele>4.8</ele>
        <time>2024-03-03T11:12:19Z</time>
      </trkpt>
      <trkpt lat="49.28335" lon="-0.0987">
        <ele>4.8</ele>
        <time>2024-03-03T11:12:20Z</time>
      </trkpt>
      <trkpt lat="49.28335" lon="-0.09879">
        <ele>4.8</ele>
        <time>2024-03-03T11:12:21Z</time>
      </trkpt>
      <trkpt lat="49.28336" lon="-0.09887">
        <ele>4.8</ele>
        <time>2024-03-03T11:12:22Z</time>
      </trkpt>
      <trkpt lat="49.28336" lon="-0.09895">
        <ele>4.8</ele>
        <time>2024-03-03T11:12:23Z</time>
      </trkpt>
      <trkpt lat="49.28337" lon="-0.09903">
        <ele>4.8</ele>
        <time>2024-03-03T11:12:24Z</time>
      </trkpt>
      <trkpt lat="49.28337" lon="-0.0991">
        <ele>4.8</ele>
        <time>2024-03-03T11:12:25Z</time>
      </trkpt>
      <trkpt lat="49.28337" lon="-0.09915">
        <ele>4.8</ele>
        <time>2024-03-03T11:12:26Z</time>
      </trkpt>
      <trkpt lat="49.28337" lon="-0.09921">
        <ele>4.8</ele>
        <time>2024-03-03T11:12:27Z</time>
      </trkpt>
      <trkpt lat="49.28337" lon="-0.09922">
        <ele>4.8</ele>
        <time>2024-03-03T11:12:28Z</time>
      </trkpt>
      <trkpt lat="49.28337" lon="-0.09923">
        <ele>4.8</ele>
        <time>2024-03-03T11:12:29Z</time>
      </trkpt>
      <trkpt lat="49.28337" lon="-0.09923">
        <ele>4.8</ele>
        <time>2024-03-03T11:12:30Z</time>
      </trkpt>
      <trkpt lat="49.28337" lon="-0.09922">
        <ele>4.8</ele>
        <time>2024-03-03T11:12:31Z</time>
      </trkpt>
      <trkpt lat="49.28337" lon="-0.09922">
        <ele>4.8</ele>
        <time>2024-03-03T11:12:32Z</time>
      </trkpt>
      <trkpt lat="49.28337" lon="-0.09922">
        <ele>4.8</ele>
        <time>2024-03-03T11:12:33Z</time>
      </trkpt>
      <trkpt lat="49.28337" lon="-0.09922">
        <ele>4.8</ele>
        <time>2024-03-03T11:12:34Z</time>
      </trkpt>
      <trkpt lat="49.28337" lon="-0.09922">
        <ele>4.8</ele>
        <time>2024-03-03T11:12:35Z</time>
      </trkpt>
      <trkpt lat="49.28337" lon="-0.09922">
        <ele>4.8</ele>
        <time>2024-03-03T11:12:36Z</time>
      </trkpt>
      <trkpt lat="49.28337" lon="-0.09922">
        <ele>4.8</ele>
        <time>2024-03-03T11:12:37Z</time>
      </trkpt>
      <trkpt lat="49.28337" lon="-0.09922">
        <ele>4.8</ele>
        <time>2024-03-03T11:12:38Z</time>
      </trkpt>
      <trkpt lat="49.28337" lon="-0.09922">
        <ele>4.8</ele>
        <time>2024-03-03T11:12:39Z</time>
      </trkpt>
      <trkpt lat="49.28337" lon="-0.09922">
        <ele>4.8</ele>
        <time>2024-03-03T11:12:40Z</time>
      </trkpt>
      <trkpt lat="49.28337" lon="-0.09922">
        <ele>4.8</ele>
        <time>2024-03-03T11:12:41Z</time>
      </trkpt>
      <trkpt lat="49.28337" lon="-0.09922">
        <ele>4.8</ele>
        <time>2024-03-03T11:12:42Z</time>
      </trkpt>
      <trkpt lat="49.28337" lon="-0.09922">
        <ele>4.8</ele>
        <time>2024-03-03T11:12:43Z</time>
      </trkpt>
      <trkpt lat="49.28337" lon="-0.09922">
        <ele>4.8</ele>
        <time>2024-03-03T11:12:44Z</time>
      </trkpt>
      <trkpt lat="49.28337" lon="-0.09922">
        <ele>4.8</ele>
        <time>2024-03-03T11:12:45Z</time>
      </trkpt>
      <trkpt lat="49.28337" lon="-0.09922">
        <ele>4.8</ele>
        <time>2024-03-03T11:12:46Z</time>
      </trkpt>
      <trkpt lat="49.28337" lon="-0.09922">
        <ele>4.8</ele>
        <time>2024-03-03T11:12:47Z</time>
      </trkpt>
      <trkpt lat="49.28337" lon="-0.09922">
        <ele>4.8</ele>
        <time>2024-03-03T11:12:48Z</time>
      </trkpt>
      <trkpt lat="49.28337" lon="-0.09922">
        <ele>4.8</ele>
        <time>2024-03-03T11:12:49Z</time>
      </trkpt>
      <trkpt lat="49.28337" lon="-0.09922">
        <ele>4.8</ele>
        <time>2024-03-03T11:12:50Z</time>
      </trkpt>
      <trkpt lat="49.28337" lon="-0.09922">
        <ele>4.8</ele>
        <time>2024-03-03T11:12:51Z</time>
      </trkpt>
      <trkpt lat="49.28337" lon="-0.09922">
        <ele>4.8</ele>
        <time>2024-03-03T11:12:52Z</time>
      </trkpt>
      <trkpt lat="49.28337" lon="-0.09922">
        <ele>4.8</ele>
        <time>2024-03-03T11:12:53Z</time>
      </trkpt>
      <trkpt lat="49.28337" lon="-0.09922">
        <ele>4.8</ele>
        <time>2024-03-03T11:12:54Z</time>
      </trkpt>
      <trkpt lat="49.28337" lon="-0.09922">
        <ele>4.8</ele>
        <time>2024-03-03T11:12:55Z</time>
      </trkpt>
      <trkpt lat="49.28337" lon="-0.09922">
        <ele>4.8</ele>
        <time>2024-03-03T11:12:56Z</time>
      </trkpt>
      <trkpt lat="49.28337" lon="-0.09922">
        <ele>4.8</ele>
        <time>2024-03-03T11:12:57Z</time>
      </trkpt>
      <trkpt lat="49.28337" lon="-0.09922">
        <ele>4.8</ele>
        <time>2024-03-03T11:12:58Z</time>
      </trkpt>
      <trkpt lat="49.28337" lon="-0.09924">
        <ele>4.8</ele>
        <time>2024-03-03T11:12:59Z</time>
      </trkpt>
      <trkpt lat="49.28337" lon="-0.09926">
        <ele>4.8</ele>
        <time>2024-03-03T11:13:00Z</time>
      </trkpt>
      <trkpt lat="49.28338" lon="-0.09932">
        <ele>4.8</ele>
        <time>2024-03-03T11:13:01Z</time>
      </trkpt>
      <trkpt lat="49.28338" lon="-0.09934">
        <ele>4.8</ele>
        <time>2024-03-03T11:13:02Z</time>
      </trkpt>
      <trkpt lat="49.28338" lon="-0.09938">
        <ele>4.7</ele>
        <time>2024-03-03T11:13:03Z</time>
      </trkpt>
      <trkpt lat="49.28338" lon="-0.09942">
        <ele>4.7</ele>
        <time>2024-03-03T11:13:04Z</time>
      </trkpt>
      <trkpt lat="49.28338" lon="-0.09947">
        <ele>4.7</ele>
        <time>2024-03-03T11:13:05Z</time>
      </trkpt>
      <trkpt lat="49.28339" lon="-0.09953">
        <ele>4.7</ele>
        <time>2024-03-03T11:13:06Z</time>
      </trkpt>
      <trkpt lat="49.28339" lon="-0.0996">
        <ele>4.6</ele>
        <time>2024-03-03T11:13:07Z</time>
      </trkpt>
      <trkpt lat="49.28339" lon="-0.09968">
        <ele>4.6</ele>
        <time>2024-03-03T11:13:08Z</time>
      </trkpt>
      <trkpt lat="49.2834" lon="-0.09974">
        <ele>4.5</ele>
        <time>2024-03-03T11:13:09Z</time>
      </trkpt>
      <trkpt lat="49.2834" lon="-0.09982">
        <ele>4.5</ele>
        <time>2024-03-03T11:13:10Z</time>
      </trkpt>
      <trkpt lat="49.2834" lon="-0.09989">
        <ele>4.4</ele>
        <time>2024-03-03T11:13:11Z</time>
      </trkpt>
      <trkpt lat="49.28341" lon="-0.09997">
        <ele>4.4</ele>
        <time>2024-03-03T11:13:12Z</time>
      </trkpt>
      <trkpt lat="49.28341" lon="-0.10004">
        <ele>4.4</ele>
        <time>2024-03-03T11:13:13Z</time>
      </trkpt>
      <trkpt lat="49.28341" lon="-0.10012">
        <ele>4.3</ele>
        <time>2024-03-03T11:13:14Z</time>
      </trkpt>
      <trkpt lat="49.28341" lon="-0.1002">
        <ele>4.3</ele>
        <time>2024-03-03T11:13:15Z</time>
      </trkpt>
      <trkpt lat="49.28342" lon="-0.10028">
        <ele>4.3</ele>
        <time>2024-03-03T11:13:16Z</time>
      </trkpt>
      <trkpt lat="49.28342" lon="-0.10036">
        <ele>4.3</ele>
        <time>2024-03-03T11:13:17Z</time>
      </trkpt>
      <trkpt lat="49.28343" lon="-0.10045">
        <ele>4.2</ele>
        <time>2024-03-03T11:13:18Z</time>
      </trkpt>
      <trkpt lat="49.28343" lon="-0.10054">
        <ele>4.2</ele>
        <time>2024-03-03T11:13:19Z</time>
      </trkpt>
      <trkpt lat="49.28343" lon="-0.10062">
        <ele>4.1</ele>
        <time>2024-03-03T11:13:20Z</time>
      </trkpt>
      <trkpt lat="49.28344" lon="-0.10071">
        <ele>4.1</ele>
        <time>2024-03-03T11:13:21Z</time>
      </trkpt>
      <trkpt lat="49.28344" lon="-0.10079">
        <ele>4.1</ele>
        <time>2024-03-03T11:13:22Z</time>
      </trkpt>
      <trkpt lat="49.28345" lon="-0.10087">
        <ele>4</ele>
        <time>2024-03-03T11:13:23Z</time>
      </trkpt>
      <trkpt lat="49.28345" lon="-0.10095">
        <ele>4</ele>
        <time>2024-03-03T11:13:24Z</time>
      </trkpt>
      <trkpt lat="49.28345" lon="-0.10104">
        <ele>4</ele>
        <time>2024-03-03T11:13:25Z</time>
      </trkpt>
      <trkpt lat="49.28345" lon="-0.10112">
        <ele>4</ele>
        <time>2024-03-03T11:13:26Z</time>
      </trkpt>
      <trkpt lat="49.28346" lon="-0.1012">
        <ele>4</ele>
        <time>2024-03-03T11:13:27Z</time>
      </trkpt>
      <trkpt lat="49.28346" lon="-0.10128">
        <ele>3.9</ele>
        <time>2024-03-03T11:13:28Z</time>
      </trkpt>
      <trkpt lat="49.28347" lon="-0.10137">
        <ele>3.9</ele>
        <time>2024-03-03T11:13:29Z</time>
      </trkpt>
      <trkpt lat="49.28347" lon="-0.10145">
        <ele>3.9</ele>
        <time>2024-03-03T11:13:30Z</time>
      </trkpt>
      <trkpt lat="49.28347" lon="-0.10153">
        <ele>3.9</ele>
        <time>2024-03-03T11:13:31Z</time>
      </trkpt>
      <trkpt lat="49.28348" lon="-0.10161">
        <ele>3.9</ele>
        <time>2024-03-03T11:13:32Z</time>
      </trkpt>
      <trkpt lat="49.28348" lon="-0.10169">
        <ele>3.9</ele>
        <time>2024-03-03T11:13:33Z</time>
      </trkpt>
      <trkpt lat="49.28348" lon="-0.10177">
        <ele>3.9</ele>
        <time>2024-03-03T11:13:34Z</time>
      </trkpt>
      <trkpt lat="49.28349" lon="-0.10184">
        <ele>3.9</ele>
        <time>2024-03-03T11:13:35Z</time>
      </trkpt>
      <trkpt lat="49.2835" lon="-0.10192">
        <ele>3.9</ele>
        <time>2024-03-03T11:13:36Z</time>
      </trkpt>
      <trkpt lat="49.2835" lon="-0.10199">
        <ele>3.9</ele>
        <time>2024-03-03T11:13:37Z</time>
      </trkpt>
      <trkpt lat="49.2835" lon="-0.10207">
        <ele>3.9</ele>
        <time>2024-03-03T11:13:38Z</time>
      </trkpt>
      <trkpt lat="49.28351" lon="-0.10214">
        <ele>3.9</ele>
        <time>2024-03-03T11:13:39Z</time>
      </trkpt>
      <trkpt lat="49.28351" lon="-0.10219">
        <ele>4</ele>
        <time>2024-03-03T11:13:40Z</time>
      </trkpt>
      <trkpt lat="49.28351" lon="-0.10224">
        <ele>4</ele>
        <time>2024-03-03T11:13:41Z</time>
      </trkpt>
      <trkpt lat="49.28351" lon="-0.10229">
        <ele>4</ele>
        <time>2024-03-03T11:13:42Z</time>
      </trkpt>
      <trkpt lat="49.28351" lon="-0.1023">
        <ele>4</ele>
        <time>2024-03-03T11:13:43Z</time>
      </trkpt>
      <trkpt lat="49.28351" lon="-0.10233">
        <ele>4</ele>
        <time>2024-03-03T11:13:44Z</time>
      </trkpt>
      <trkpt lat="49.28351" lon="-0.10234">
        <ele>4</ele>
        <time>2024-03-03T11:13:45Z</time>
      </trkpt>
      <trkpt lat="49.28351" lon="-0.10235">
        <ele>4</ele>
        <time>2024-03-03T11:13:46Z</time>
      </trkpt>
      <trkpt lat="49.28351" lon="-0.10235">
        <ele>4</ele>
        <time>2024-03-03T11:13:47Z</time>
      </trkpt>
      <trkpt lat="49.28351" lon="-0.10235">
        <ele>4</ele>
        <time>2024-03-03T11:13:48Z</time>
      </trkpt>
      <trkpt lat="49.28351" lon="-0.10235">
        <ele>4</ele>
        <time>2024-03-03T11:13:49Z</time>
      </trkpt>
      <trkpt lat="49.28351" lon="-0.10235">
        <ele>4</ele>
        <time>2024-03-03T11:13:50Z</time>
      </trkpt>
      <trkpt lat="49.28351" lon="-0.10235">
        <ele>4</ele>
        <time>2024-03-03T11:13:51Z</time>
      </trkpt>
      <trkpt lat="49.28351" lon="-0.10235">
        <ele>4</ele>
        <time>2024-03-03T11:13:52Z</time>
      </trkpt>
      <trkpt lat="49.28351" lon="-0.10235">
        <ele>4</ele>
        <time>2024-03-03T11:13:53Z</time>
      </trkpt>
      <trkpt lat="49.28351" lon="-0.10235">
        <ele>4</ele>
        <time>2024-03-03T11:13:54Z</time>
      </trkpt>
      <trkpt lat="49.28351" lon="-0.10235">
        <ele>4</ele>
        <time>2024-03-03T11:13:55Z</time>
      </trkpt>
      <trkpt lat="49.28351" lon="-0.10235">
        <ele>4</ele>
        <time>2024-03-03T11:13:56Z</time>
      </trkpt>
      <trkpt lat="49.28351" lon="-0.10235">
        <ele>4</ele>
        <time>2024-03-03T11:13:57Z</time>
      </trkpt>
      <trkpt lat="49.28351" lon="-0.10236">
        <ele>4</ele>
        <time>2024-03-03T11:13:58Z</time>
      </trkpt>
      <trkpt lat="49.28351" lon="-0.10236">
        <ele>4</ele>
        <time>2024-03-03T11:13:59Z</time>
      </trkpt>
      <trkpt lat="49.28351" lon="-0.10236">
        <ele>4</ele>
        <time>2024-03-03T11:14:00Z</time>
      </trkpt>
      <trkpt lat="49.28351" lon="-0.10236">
        <ele>4</ele>
        <time>2024-03-03T11:14:01Z</time>
      </trkpt>
      <trkpt lat="49.28351" lon="-0.10236">
        <ele>4</ele>
        <time>2024-03-03T11:14:02Z</time>
      </trkpt>
      <trkpt lat="49.28351" lon="-0.10236">
        <ele>4</ele>
        <time>2024-03-03T11:14:03Z</time>
      </trkpt>
      <trkpt lat="49.28351" lon="-0.10236">
        <ele>4</ele>
        <time>2024-03-03T11:14:04Z</time>
      </trkpt>
      <trkpt lat="49.28351" lon="-0.10236">
        <ele>4</ele>
        <time>2024-03-03T11:14:05Z</time>
      </trkpt>
      <trkpt lat="49.28351" lon="-0.10236">
        <ele>4</ele>
        <time>2024-03-03T11:14:06Z</time>
      </trkpt>
      <trkpt lat="49.28351" lon="-0.10236">
        <ele>4</ele>
        <time>2024-03-03T11:14:07Z</time>
      </trkpt>
      <trkpt lat="49.28351" lon="-0.10236">
        <ele>4</ele>
        <time>2024-03-03T11:14:08Z</time>
      </trkpt>
      <trkpt lat="49.28351" lon="-0.10237">
        <ele>4</ele>
        <time>2024-03-03T11:14:09Z</time>
      </trkpt>
      <trkpt lat="49.28351" lon="-0.10237">
        <ele>4</ele>
        <time>2024-03-03T11:14:10Z</time>
      </trkpt>
      <trkpt lat="49.28351" lon="-0.10237">
        <ele>4</ele>
        <time>2024-03-03T11:14:11Z</time>
      </trkpt>
      <trkpt lat="49.28351" lon="-0.10237">
        <ele>4</ele>
        <time>2024-03-03T11:14:12Z</time>
      </trkpt>
      <trkpt lat="49.28351" lon="-0.10237">
        <ele>4</ele>
        <time>2024-03-03T11:14:13Z</time>
      </trkpt>
      <trkpt lat="49.28351" lon="-0.10237">
        <ele>4</ele>
        <time>2024-03-03T11:14:14Z</time>
      </trkpt>
      <trkpt lat="49.28351" lon="-0.10237">
        <ele>4</ele>
        <time>2024-03-03T11:14:15Z</time>
      </trkpt>
      <trkpt lat="49.28351" lon="-0.10237">
        <ele>4</ele>
        <time>2024-03-03T11:14:16Z</time>
      </trkpt>
      <trkpt lat="49.28351" lon="-0.10237">
        <ele>4</ele>
        <time>2024-03-03T11:14:17Z</time>
      </trkpt>
      <trkpt lat="49.28351" lon="-0.10237">
        <ele>4</ele>
        <time>2024-03-03T11:14:18Z</time>
      </trkpt>
      <trkpt lat="49.28351" lon="-0.10237">
        <ele>4</ele>
        <time>2024-03-03T11:14:19Z</time>
      </trkpt>
      <trkpt lat="49.28351" lon="-0.10238">
        <ele>4</ele>
        <time>2024-03-03T11:14:20Z</time>
      </trkpt>
      <trkpt lat="49.28351" lon="-0.10238">
        <ele>4</ele>
        <time>2024-03-03T11:14:21Z</time>
      </trkpt>
      <trkpt lat="49.28351" lon="-0.10238">
        <ele>4</ele>
        <time>2024-03-03T11:14:22Z</time>
      </trkpt>
      <trkpt lat="49.28351" lon="-0.10238">
        <ele>4</ele>
        <time>2024-03-03T11:14:23Z</time>
      </trkpt>
      <trkpt lat="49.28351" lon="-0.10238">
        <ele>4</ele>
        <time>2024-03-03T11:14:24Z</time>
      </trkpt>
      <trkpt lat="49.28351" lon="-0.10238">
        <ele>4</ele>
        <time>2024-03-03T11:14:25Z</time>
      </trkpt>
      <trkpt lat="49.28351" lon="-0.10238">
        <ele>4</ele>
        <time>2024-03-03T11:14:26Z</time>
      </trkpt>
      <trkpt lat="49.28351" lon="-0.10238">
        <ele>4</ele>
        <time>2024-03-03T11:14:27Z</time>
      </trkpt>
      <trkpt lat="49.28351" lon="-0.10238">
        <ele>4</ele>
        <time>2024-03-03T11:14:28Z</time>
      </trkpt>
      <trkpt lat="49.28351" lon="-0.10238">
        <ele>4</ele>
        <time>2024-03-03T11:14:29Z</time>
      </trkpt>
      <trkpt lat="49.28351" lon="-0.10238">
        <ele>4</ele>
        <time>2024-03-03T11:14:30Z</time>
      </trkpt>
      <trkpt lat="49.28351" lon="-0.10239">
        <ele>4</ele>
        <time>2024-03-03T11:14:31Z</time>
      </trkpt>
      <trkpt lat="49.28351" lon="-0.10239">
        <ele>4</ele>
        <time>2024-03-03T11:14:32Z</time>
      </trkpt>
      <trkpt lat="49.28351" lon="-0.10239">
        <ele>4</ele>
        <time>2024-03-03T11:14:33Z</time>
      </trkpt>
      <trkpt lat="49.28351" lon="-0.10239">
        <ele>4</ele>
        <time>2024-03-03T11:14:34Z</time>
      </trkpt>
      <trkpt lat="49.28351" lon="-0.10239">
        <ele>4</ele>
        <time>2024-03-03T11:14:35Z</time>
      </trkpt>
      <trkpt lat="49.28351" lon="-0.10239">
        <ele>4</ele>
        <time>2024-03-03T11:14:36Z</time>
      </trkpt>
      <trkpt lat="49.28351" lon="-0.10239">
        <ele>4</ele>
        <time>2024-03-03T11:14:37Z</time>
      </trkpt>
      <trkpt lat="49.28351" lon="-0.10239">
        <ele>4</ele>
        <time>2024-03-03T11:14:38Z</time>
      </trkpt>
      <trkpt lat="49.28351" lon="-0.10239">
        <ele>4</ele>
        <time>2024-03-03T11:14:39Z</time>
      </trkpt>
      <trkpt lat="49.28351" lon="-0.10239">
        <ele>4</ele>
        <time>2024-03-03T11:14:40Z</time>
      </trkpt>
      <trkpt lat="49.28351" lon="-0.10239">
        <ele>4</ele>
        <time>2024-03-03T11:14:41Z</time>
      </trkpt>
      <trkpt lat="49.28351" lon="-0.1024">
        <ele>4</ele>
        <time>2024-03-03T11:14:42Z</time>
      </trkpt>
      <trkpt lat="49.28351" lon="-0.1024">
        <ele>4</ele>
        <time>2024-03-03T11:14:43Z</time>
      </trkpt>
      <trkpt lat="49.2835" lon="-0.1024">
        <ele>4</ele>
        <time>2024-03-03T11:14:44Z</time>
      </trkpt>
      <trkpt lat="49.2835" lon="-0.1024">
        <ele>4</ele>
        <time>2024-03-03T11:14:45Z</time>
      </trkpt>
      <trkpt lat="49.2835" lon="-0.1024">
        <ele>4</ele>
        <time>2024-03-03T11:14:46Z</time>
      </trkpt>
      <trkpt lat="49.2835" lon="-0.1024">
        <ele>4</ele>
        <time>2024-03-03T11:14:47Z</time>
      </trkpt>
      <trkpt lat="49.2835" lon="-0.1024">
        <ele>4</ele>
        <time>2024-03-03T11:14:48Z</time>
      </trkpt>
      <trkpt lat="49.2835" lon="-0.1024">
        <ele>4</ele>
        <time>2024-03-03T11:14:49Z</time>
      </trkpt>
      <trkpt lat="49.28351" lon="-0.10246">
        <ele>4</ele>
        <time>2024-03-03T11:14:50Z</time>
      </trkpt>
      <trkpt lat="49.28351" lon="-0.10248">
        <ele>4</ele>
        <time>2024-03-03T11:14:51Z</time>
      </trkpt>
      <trkpt lat="49.28352" lon="-0.10252">
        <ele>4.1</ele>
        <time>2024-03-03T11:14:52Z</time>
      </trkpt>
      <trkpt lat="49.28352" lon="-0.10257">
        <ele>4.1</ele>
        <time>2024-03-03T11:14:53Z</time>
      </trkpt>
      <trkpt lat="49.28352" lon="-0.10262">
        <ele>4.1</ele>
        <time>2024-03-03T11:14:54Z</time>
      </trkpt>
      <trkpt lat="49.28353" lon="-0.10268">
        <ele>4.1</ele>
        <time>2024-03-03T11:14:55Z</time>
      </trkpt>
      <trkpt lat="49.28353" lon="-0.10273">
        <ele>4.1</ele>
        <time>2024-03-03T11:14:56Z</time>
      </trkpt>
      <trkpt lat="49.28353" lon="-0.1028">
        <ele>4.1</ele>
        <time>2024-03-03T11:14:57Z</time>
      </trkpt>
      <trkpt lat="49.28353" lon="-0.10287">
        <ele>4.1</ele>
        <time>2024-03-03T11:14:58Z</time>
      </trkpt>
      <trkpt lat="49.28353" lon="-0.10294">
        <ele>4.1</ele>
        <time>2024-03-03T11:14:59Z</time>
      </trkpt>
      <trkpt lat="49.28352" lon="-0.10302">
        <ele>4.1</ele>
        <time>2024-03-03T11:15:00Z</time>
      </trkpt>
      <trkpt lat="49.2835" lon="-0.10309">
        <ele>4.1</ele>
        <time>2024-03-03T11:15:01Z</time>
      </trkpt>
      <trkpt lat="49.28348" lon="-0.10316">
        <ele>4</ele>
        <time>2024-03-03T11:15:02Z</time>
      </trkpt>
      <trkpt lat="49.28346" lon="-0.10323">
        <ele>4</ele>
        <time>2024-03-03T11:15:03Z</time>
      </trkpt>
      <trkpt lat="49.28344" lon="-0.10331">
        <ele>4</ele>
        <time>2024-03-03T11:15:04Z</time>
      </trkpt>
      <trkpt lat="49.28342" lon="-0.10339">
        <ele>4</ele>
        <time>2024-03-03T11:15:05Z</time>
      </trkpt>
      <trkpt lat="49.28341" lon="-0.10348">
        <ele>4</ele>
        <time>2024-03-03T11:15:06Z</time>
      </trkpt>
      <trkpt lat="49.28342" lon="-0.10357">
        <ele>4</ele>
        <time>2024-03-03T11:15:07Z</time>
      </trkpt>
      <trkpt lat="49.28342" lon="-0.10365">
        <ele>4</ele>
        <time>2024-03-03T11:15:08Z</time>
      </trkpt>
      <trkpt lat="49.28343" lon="-0.10374">
        <ele>4</ele>
        <time>2024-03-03T11:15:09Z</time>
      </trkpt>
      <trkpt lat="49.28343" lon="-0.10383">
        <ele>4</ele>
        <time>2024-03-03T11:15:10Z</time>
      </trkpt>
      <trkpt lat="49.28344" lon="-0.10392">
        <ele>4</ele>
        <time>2024-03-03T11:15:11Z</time>
      </trkpt>
      <trkpt lat="49.28344" lon="-0.10401">
        <ele>4</ele>
        <time>2024-03-03T11:15:12Z</time>
      </trkpt>
      <trkpt lat="49.28344" lon="-0.1041">
        <ele>4</ele>
        <time>2024-03-03T11:15:13Z</time>
      </trkpt>
      <trkpt lat="49.28344" lon="-0.1042">
        <ele>4</ele>
        <time>2024-03-03T11:15:14Z</time>
      </trkpt>
      <trkpt lat="49.28345" lon="-0.10429">
        <ele>4</ele>
        <time>2024-03-03T11:15:15Z</time>
      </trkpt>
      <trkpt lat="49.28345" lon="-0.10438">
        <ele>4</ele>
        <time>2024-03-03T11:15:16Z</time>
      </trkpt>
      <trkpt lat="49.28346" lon="-0.10447">
        <ele>4</ele>
        <time>2024-03-03T11:15:17Z</time>
      </trkpt>
      <trkpt lat="49.28346" lon="-0.10456">
        <ele>4</ele>
        <time>2024-03-03T11:15:18Z</time>
      </trkpt>
      <trkpt lat="49.28346" lon="-0.10464">
        <ele>4</ele>
        <time>2024-03-03T11:15:19Z</time>
      </trkpt>
      <trkpt lat="49.28347" lon="-0.10473">
        <ele>4</ele>
        <time>2024-03-03T11:15:20Z</time>
      </trkpt>
      <trkpt lat="49.28347" lon="-0.10482">
        <ele>4</ele>
        <time>2024-03-03T11:15:21Z</time>
      </trkpt>
      <trkpt lat="49.28348" lon="-0.1049">
        <ele>4</ele>
        <time>2024-03-03T11:15:22Z</time>
      </trkpt>
      <trkpt lat="49.28348" lon="-0.10499">
        <ele>4</ele>
        <time>2024-03-03T11:15:23Z</time>
      </trkpt>
      <trkpt lat="49.28349" lon="-0.10507">
        <ele>4</ele>
        <time>2024-03-03T11:15:24Z</time>
      </trkpt>
      <trkpt lat="49.28349" lon="-0.10515">
        <ele>4</ele>
        <time>2024-03-03T11:15:25Z</time>
      </trkpt>
      <trkpt lat="49.28349" lon="-0.10522">
        <ele>4</ele>
        <time>2024-03-03T11:15:26Z</time>
      </trkpt>
      <trkpt lat="49.28349" lon="-0.10528">
        <ele>4</ele>
        <time>2024-03-03T11:15:27Z</time>
      </trkpt>
      <trkpt lat="49.28349" lon="-0.10533">
        <ele>4</ele>
        <time>2024-03-03T11:15:28Z</time>
      </trkpt>
      <trkpt lat="49.28349" lon="-0.10539">
        <ele>4.1</ele>
        <time>2024-03-03T11:15:29Z</time>
      </trkpt>
      <trkpt lat="49.28349" lon="-0.10545">
        <ele>4.1</ele>
        <time>2024-03-03T11:15:30Z</time>
      </trkpt>
      <trkpt lat="49.2835" lon="-0.10552">
        <ele>4.1</ele>
        <time>2024-03-03T11:15:31Z</time>
      </trkpt>
      <trkpt lat="49.2835" lon="-0.10559">
        <ele>4.1</ele>
        <time>2024-03-03T11:15:32Z</time>
      </trkpt>
      <trkpt lat="49.2835" lon="-0.10566">
        <ele>4.1</ele>
        <time>2024-03-03T11:15:33Z</time>
      </trkpt>
      <trkpt lat="49.28351" lon="-0.10573">
        <ele>4.1</ele>
        <time>2024-03-03T11:15:34Z</time>
      </trkpt>
      <trkpt lat="49.28351" lon="-0.10581">
        <ele>4.1</ele>
        <time>2024-03-03T11:15:35Z</time>
      </trkpt>
      <trkpt lat="49.28352" lon="-0.10589">
        <ele>4.1</ele>
        <time>2024-03-03T11:15:36Z</time>
      </trkpt>
      <trkpt lat="49.28352" lon="-0.10596">
        <ele>4.1</ele>
        <time>2024-03-03T11:15:37Z</time>
      </trkpt>
      <trkpt lat="49.28352" lon="-0.10604">
        <ele>4.1</ele>
        <time>2024-03-03T11:15:38Z</time>
      </trkpt>
      <trkpt lat="49.28352" lon="-0.10612">
        <ele>4.1</ele>
        <time>2024-03-03T11:15:39Z</time>
      </trkpt>
      <trkpt lat="49.28352" lon="-0.1062">
        <ele>4.1</ele>
        <time>2024-03-03T11:15:40Z</time>
      </trkpt>
      <trkpt lat="49.28352" lon="-0.10628">
        <ele>4.1</ele>
        <time>2024-03-03T11:15:41Z</time>
      </trkpt>
      <trkpt lat="49.28353" lon="-0.10637">
        <ele>4.1</ele>
        <time>2024-03-03T11:15:42Z</time>
      </trkpt>
      <trkpt lat="49.28353" lon="-0.10645">
        <ele>4.1</ele>
        <time>2024-03-03T11:15:43Z</time>
      </trkpt>
      <trkpt lat="49.28354" lon="-0.10653">
        <ele>4.1</ele>
        <time>2024-03-03T11:15:44Z</time>
      </trkpt>
      <trkpt lat="49.28354" lon="-0.10661">
        <ele>4.1</ele>
        <time>2024-03-03T11:15:45Z</time>
      </trkpt>
      <trkpt lat="49.28355" lon="-0.10669">
        <ele>4.1</ele>
        <time>2024-03-03T11:15:46Z</time>
      </trkpt>
      <trkpt lat="49.28355" lon="-0.10678">
        <ele>4.1</ele>
        <time>2024-03-03T11:15:47Z</time>
      </trkpt>
      <trkpt lat="49.28355" lon="-0.10686">
        <ele>4.1</ele>
        <time>2024-03-03T11:15:48Z</time>
      </trkpt>
      <trkpt lat="49.28356" lon="-0.10694">
        <ele>4.1</ele>
        <time>2024-03-03T11:15:49Z</time>
      </trkpt>
      <trkpt lat="49.28356" lon="-0.10702">
        <ele>4.1</ele>
        <time>2024-03-03T11:15:50Z</time>
      </trkpt>
      <trkpt lat="49.28357" lon="-0.10709">
        <ele>4.1</ele>
        <time>2024-03-03T11:15:51Z</time>
      </trkpt>
      <trkpt lat="49.28357" lon="-0.10718">
        <ele>4.1</ele>
        <time>2024-03-03T11:15:52Z</time>
      </trkpt>
      <trkpt lat="49.28358" lon="-0.10726">
        <ele>4.1</ele>
        <time>2024-03-03T11:15:53Z</time>
      </trkpt>
      <trkpt lat="49.28358" lon="-0.10734">
        <ele>4.1</ele>
        <time>2024-03-03T11:15:54Z</time>
      </trkpt>
      <trkpt lat="49.28358" lon="-0.10742">
        <ele>4.1</ele>
        <time>2024-03-03T11:15:55Z</time>
      </trkpt>
      <trkpt lat="49.28358" lon="-0.1075">
        <ele>4.1</ele>
        <time>2024-03-03T11:15:56Z</time>
      </trkpt>
      <trkpt lat="49.28359" lon="-0.10757">
        <ele>4.1</ele>
        <time>2024-03-03T11:15:57Z</time>
      </trkpt>
      <trkpt lat="49.28359" lon="-0.10763">
        <ele>4.2</ele>
        <time>2024-03-03T11:15:58Z</time>
      </trkpt>
      <trkpt lat="49.28364" lon="-0.10765">
        <ele>4.1</ele>
        <time>2024-03-03T11:15:59Z</time>
      </trkpt>
      <trkpt lat="49.28366" lon="-0.10764">
        <ele>4.1</ele>
        <time>2024-03-03T11:16:00Z</time>
      </trkpt>
      <trkpt lat="49.28372" lon="-0.10763">
        <ele>4.1</ele>
        <time>2024-03-03T11:16:01Z</time>
      </trkpt>
      <trkpt lat="49.28378" lon="-0.10761">
        <ele>4.1</ele>
        <time>2024-03-03T11:16:02Z</time>
      </trkpt>
      <trkpt lat="49.28384" lon="-0.10761">
        <ele>4.1</ele>
        <time>2024-03-03T11:16:03Z</time>
      </trkpt>
      <trkpt lat="49.28389" lon="-0.10761">
        <ele>4.1</ele>
        <time>2024-03-03T11:16:04Z</time>
      </trkpt>
      <trkpt lat="49.28394" lon="-0.1076">
        <ele>4.1</ele>
        <time>2024-03-03T11:16:05Z</time>
      </trkpt>
      <trkpt lat="49.28399" lon="-0.10759">
        <ele>4.2</ele>
        <time>2024-03-03T11:16:06Z</time>
      </trkpt>
      <trkpt lat="49.28404" lon="-0.10758">
        <ele>4.2</ele>
        <time>2024-03-03T11:16:07Z</time>
      </trkpt>
      <trkpt lat="49.28409" lon="-0.10757">
        <ele>4.2</ele>
        <time>2024-03-03T11:16:08Z</time>
      </trkpt>
      <trkpt lat="49.28413" lon="-0.10757">
        <ele>4.2</ele>
        <time>2024-03-03T11:16:09Z</time>
      </trkpt>
      <trkpt lat="49.28418" lon="-0.10756">
        <ele>4.1</ele>
        <time>2024-03-03T11:16:10Z</time>
      </trkpt>
      <trkpt lat="49.28423" lon="-0.10754">
        <ele>4.1</ele>
        <time>2024-03-03T11:16:11Z</time>
      </trkpt>
      <trkpt lat="49.28427" lon="-0.10752">
        <ele>4.1</ele>
        <time>2024-03-03T11:16:12Z</time>
      </trkpt>
      <trkpt lat="49.28431" lon="-0.10751">
        <ele>4.1</ele>
        <time>2024-03-03T11:16:13Z</time>
      </trkpt>
      <trkpt lat="49.28435" lon="-0.10749">
        <ele>4</ele>
        <time>2024-03-03T11:16:14Z</time>
      </trkpt>
      <trkpt lat="49.28438" lon="-0.10748">
        <ele>4</ele>
        <time>2024-03-03T11:16:15Z</time>
      </trkpt>
      <trkpt lat="49.28442" lon="-0.10746">
        <ele>4</ele>
        <time>2024-03-03T11:16:16Z</time>
      </trkpt>
      <trkpt lat="49.28445" lon="-0.10742">
        <ele>3.9</ele>
        <time>2024-03-03T11:16:17Z</time>
      </trkpt>
      <trkpt lat="49.28447" lon="-0.10737">
        <ele>3.6</ele>
        <time>2024-03-03T11:16:18Z</time>
      </trkpt>
      <trkpt lat="49.28447" lon="-0.10731">
        <ele>3.4</ele>
        <time>2024-03-03T11:16:19Z</time>
      </trkpt>
      <trkpt lat="49.28447" lon="-0.10724">
        <ele>3.1</ele>
        <time>2024-03-03T11:16:20Z</time>
      </trkpt>
      <trkpt lat="49.28447" lon="-0.10718">
        <ele>3</ele>
        <time>2024-03-03T11:16:21Z</time>
      </trkpt>
      <trkpt lat="49.28446" lon="-0.10713">
        <ele>2.9</ele>
        <time>2024-03-03T11:16:22Z</time>
      </trkpt>
      <trkpt lat="49.28446" lon="-0.10708">
        <ele>2.8</ele>
        <time>2024-03-03T11:16:23Z</time>
      </trkpt>
      <trkpt lat="49.28445" lon="-0.10703">
        <ele>2.7</ele>
        <time>2024-03-03T11:16:24Z</time>
      </trkpt>
      <trkpt lat="49.28447" lon="-0.10698">
        <ele>2.7</ele>
        <time>2024-03-03T11:16:25Z</time>
      </trkpt>
      <trkpt lat="49.28447" lon="-0.10697">
        <ele>2.7</ele>
        <time>2024-03-03T11:16:26Z</time>
      </trkpt>
      <trkpt lat="49.28448" lon="-0.10697">
        <ele>2.7</ele>
        <time>2024-03-03T11:16:27Z</time>
      </trkpt>
      <trkpt lat="49.28448" lon="-0.10698">
        <ele>2.7</ele>
        <time>2024-03-03T11:16:28Z</time>
      </trkpt>
      <trkpt lat="49.28448" lon="-0.10698">
        <ele>2.7</ele>
        <time>2024-03-03T11:16:29Z</time>
      </trkpt>
      <trkpt lat="49.28449" lon="-0.10698">
        <ele>2.7</ele>
        <time>2024-03-03T11:16:30Z</time>
      </trkpt>
      <trkpt lat="49.28449" lon="-0.10698">
        <ele>2.7</ele>
        <time>2024-03-03T11:16:31Z</time>
      </trkpt>
      <trkpt lat="49.28449" lon="-0.10698">
        <ele>2.7</ele>
        <time>2024-03-03T11:16:32Z</time>
      </trkpt>
      <trkpt lat="49.28449" lon="-0.10698">
        <ele>2.7</ele>
        <time>2024-03-03T11:16:33Z</time>
      </trkpt>
      <trkpt lat="49.28449" lon="-0.10698">
        <ele>2.7</ele>
        <time>2024-03-03T11:16:34Z</time>
      </trkpt>
      <trkpt lat="49.28449" lon="-0.10698">
        <ele>2.7</ele>
        <time>2024-03-03T11:16:35Z</time>
      </trkpt>
      <trkpt lat="49.28449" lon="-0.10698">
        <ele>2.7</ele>
        <time>2024-03-03T11:16:36Z</time>
      </trkpt>
      <trkpt lat="49.28449" lon="-0.10698">
        <ele>2.7</ele>
        <time>2024-03-03T11:16:37Z</time>
      </trkpt>
      <trkpt lat="49.28449" lon="-0.10698">
        <ele>2.7</ele>
        <time>2024-03-03T11:16:38Z</time>
      </trkpt>
      <trkpt lat="49.28449" lon="-0.10698">
        <ele>2.7</ele>
        <time>2024-03-03T11:16:39Z</time>
      </trkpt>
      <trkpt lat="49.28449" lon="-0.10698">
        <ele>2.7</ele>
        <time>2024-03-03T11:16:40Z</time>
      </trkpt>
      <trkpt lat="49.28449" lon="-0.10698">
        <ele>2.7</ele>
        <time>2024-03-03T11:16:41Z</time>
      </trkpt>
      <trkpt lat="49.28449" lon="-0.10698">
        <ele>2.7</ele>
        <time>2024-03-03T11:16:42Z</time>
      </trkpt>
      <trkpt lat="49.28449" lon="-0.10698">
        <ele>2.7</ele>
        <time>2024-03-03T11:16:43Z</time>
      </trkpt>
      <trkpt lat="49.28449" lon="-0.10698">
        <ele>2.7</ele>
        <time>2024-03-03T11:16:44Z</time>
      </trkpt>
      <trkpt lat="49.28449" lon="-0.10698">
        <ele>2.7</ele>
        <time>2024-03-03T11:16:45Z</time>
      </trkpt>
      <trkpt lat="49.28449" lon="-0.10698">
        <ele>2.7</ele>
        <time>2024-03-03T11:16:46Z</time>
      </trkpt>
      <trkpt lat="49.28449" lon="-0.10698">
        <ele>2.7</ele>
        <time>2024-03-03T11:16:47Z</time>
      </trkpt>
      <trkpt lat="49.28449" lon="-0.10698">
        <ele>2.7</ele>
        <time>2024-03-03T11:16:48Z</time>
      </trkpt>
      <trkpt lat="49.28449" lon="-0.10698">
        <ele>2.7</ele>
        <time>2024-03-03T11:16:49Z</time>
      </trkpt>
      <trkpt lat="49.28449" lon="-0.10698">
        <ele>2.7</ele>
        <time>2024-03-03T11:16:50Z</time>
      </trkpt>
      <trkpt lat="49.28449" lon="-0.10698">
        <ele>2.7</ele>
        <time>2024-03-03T11:16:51Z</time>
      </trkpt>
      <trkpt lat="49.28449" lon="-0.10698">
        <ele>2.7</ele>
        <time>2024-03-03T11:16:52Z</time>
      </trkpt>
      <trkpt lat="49.28449" lon="-0.10698">
        <ele>2.7</ele>
        <time>2024-03-03T11:16:53Z</time>
      </trkpt>
      <trkpt lat="49.28449" lon="-0.10698">
        <ele>2.7</ele>
        <time>2024-03-03T11:16:54Z</time>
      </trkpt>
      <trkpt lat="49.28449" lon="-0.10698">
        <ele>2.7</ele>
        <time>2024-03-03T11:16:55Z</time>
      </trkpt>
      <trkpt lat="49.28449" lon="-0.10698">
        <ele>2.7</ele>
        <time>2024-03-03T11:16:56Z</time>
      </trkpt>
      <trkpt lat="49.28449" lon="-0.10698">
        <ele>2.7</ele>
        <time>2024-03-03T11:16:57Z</time>
      </trkpt>
      <trkpt lat="49.28449" lon="-0.10698">
        <ele>2.7</ele>
        <time>2024-03-03T11:16:58Z</time>
      </trkpt>
      <trkpt lat="49.28449" lon="-0.10698">
        <ele>2.7</ele>
        <time>2024-03-03T11:16:59Z</time>
      </trkpt>
      <trkpt lat="49.28449" lon="-0.10698">
        <ele>2.7</ele>
        <time>2024-03-03T11:17:00Z</time>
      </trkpt>
      <trkpt lat="49.28449" lon="-0.10698">
        <ele>2.7</ele>
        <time>2024-03-03T11:17:02Z</time>
      </trkpt>
    </trkseg>
  </trk>
</gpx>